<?xml version="1.0" encoding="UTF-8"?>
<gpx version="1.1" creator="https://www.youtrack.es" xsi:schemaLocation="http://www.topografix.com/GPX/1/1 http://www.topografix.com/GPX/1/1/gpx.xsd http://www.garmin.com/xmlschemas/GpxExtensions/v3 http://www.garmin.com/xmlschemas/GpxExtensionsv3.xsd http://www.garmin.com/xmlschemas/TrackPointExtension/v1 http://www.garmin.com/xmlschemas/TrackPointExtensionv1.xsd" xmlns:gpxtpx="http://www.garmin.com/xmlschemas/TrackPointExtension/v1" xmlns:gpxx="http://www.garmin.com/xmlschemas/GpxExtensions/v3" xmlns:xsi="http://www.w3.org/2001/XMLSchema-instance">
  <metadata>
    <link href="https://www.youtrack.es">
      <text>YouTrack.es</text>
    </link>
    <time>2026-05-09T03:49:08Z</time>
  </metadata>
  <trk>
    <src>https://www.youtrack.es</src>
    <link href="https://www.youtrack.es/ruta/8452-desafio-san-miguel-2019">
      <text>YouTrack.es</text>
    </link>
    <trkseg>
      <trkpt lat="42.791607" lon="-7.83607">
        <ele>543.8</ele>
        <time>1970-01-01T00:00:00.000Z</time>
      </trkpt>
      <trkpt lat="42.791561" lon="-7.836066">
        <ele>543.6</ele>
        <time>1970-01-01T00:00:01.000Z</time>
      </trkpt>
      <trkpt lat="42.791545" lon="-7.836064">
        <ele>543.6</ele>
        <time>1970-01-01T00:00:02.000Z</time>
      </trkpt>
      <trkpt lat="42.791513" lon="-7.836058">
        <ele>543.5</ele>
        <time>1970-01-01T00:00:03.000Z</time>
      </trkpt>
      <trkpt lat="42.791476" lon="-7.836045">
        <ele>543.4</ele>
        <time>1970-01-01T00:00:04.000Z</time>
      </trkpt>
      <trkpt lat="42.791443" lon="-7.836026">
        <ele>543.4</ele>
        <time>1970-01-01T00:00:05.000Z</time>
      </trkpt>
      <trkpt lat="42.791412" lon="-7.836006">
        <ele>543.4</ele>
        <time>1970-01-01T00:00:06.000Z</time>
      </trkpt>
      <trkpt lat="42.791381" lon="-7.835981">
        <ele>543.4</ele>
        <time>1970-01-01T00:00:07.000Z</time>
      </trkpt>
      <trkpt lat="42.791355" lon="-7.835953">
        <ele>543.5</ele>
        <time>1970-01-01T00:00:08.000Z</time>
      </trkpt>
      <trkpt lat="42.791326" lon="-7.835925">
        <ele>543.6</ele>
        <time>1970-01-01T00:00:09.000Z</time>
      </trkpt>
      <trkpt lat="42.791305" lon="-7.835895">
        <ele>543.7</ele>
        <time>1970-01-01T00:00:10.000Z</time>
      </trkpt>
      <trkpt lat="42.791293" lon="-7.835868">
        <ele>543.7</ele>
        <time>1970-01-01T00:00:11.000Z</time>
      </trkpt>
      <trkpt lat="42.791282" lon="-7.835836">
        <ele>543.8</ele>
        <time>1970-01-01T00:00:12.000Z</time>
      </trkpt>
      <trkpt lat="42.791268" lon="-7.835808">
        <ele>543.9</ele>
        <time>1970-01-01T00:00:13.000Z</time>
      </trkpt>
      <trkpt lat="42.791259" lon="-7.835777">
        <ele>544</ele>
        <time>1970-01-01T00:00:14.000Z</time>
      </trkpt>
      <trkpt lat="42.791254" lon="-7.835747">
        <ele>544.1</ele>
        <time>1970-01-01T00:00:15.000Z</time>
      </trkpt>
      <trkpt lat="42.791249" lon="-7.835716">
        <ele>544.2</ele>
        <time>1970-01-01T00:00:16.000Z</time>
      </trkpt>
      <trkpt lat="42.791241" lon="-7.835682">
        <ele>544.3</ele>
        <time>1970-01-01T00:00:17.000Z</time>
      </trkpt>
      <trkpt lat="42.79123" lon="-7.83565">
        <ele>544.5</ele>
        <time>1970-01-01T00:00:18.000Z</time>
      </trkpt>
      <trkpt lat="42.791219" lon="-7.835613">
        <ele>544.6</ele>
        <time>1970-01-01T00:00:19.000Z</time>
      </trkpt>
      <trkpt lat="42.79121" lon="-7.835574">
        <ele>544.8</ele>
        <time>1970-01-01T00:00:20.000Z</time>
      </trkpt>
      <trkpt lat="42.791203" lon="-7.835534">
        <ele>545</ele>
        <time>1970-01-01T00:00:21.000Z</time>
      </trkpt>
      <trkpt lat="42.791197" lon="-7.835495">
        <ele>545.2</ele>
        <time>1970-01-01T00:00:22.000Z</time>
      </trkpt>
      <trkpt lat="42.79119" lon="-7.835456">
        <ele>545.4</ele>
        <time>1970-01-01T00:00:23.000Z</time>
      </trkpt>
      <trkpt lat="42.791183" lon="-7.835418">
        <ele>545.6</ele>
        <time>1970-01-01T00:00:24.000Z</time>
      </trkpt>
      <trkpt lat="42.791178" lon="-7.835381">
        <ele>545.8</ele>
        <time>1970-01-01T00:00:25.000Z</time>
      </trkpt>
      <trkpt lat="42.791176" lon="-7.835343">
        <ele>546</ele>
        <time>1970-01-01T00:00:26.000Z</time>
      </trkpt>
      <trkpt lat="42.791175" lon="-7.835307">
        <ele>545.7</ele>
        <time>1970-01-01T00:00:27.000Z</time>
      </trkpt>
      <trkpt lat="42.791176" lon="-7.835271">
        <ele>545.9</ele>
        <time>1970-01-01T00:00:28.000Z</time>
      </trkpt>
      <trkpt lat="42.791181" lon="-7.835233">
        <ele>546.1</ele>
        <time>1970-01-01T00:00:29.000Z</time>
      </trkpt>
      <trkpt lat="42.791185" lon="-7.835195">
        <ele>546.3</ele>
        <time>1970-01-01T00:00:30.000Z</time>
      </trkpt>
      <trkpt lat="42.79119" lon="-7.835155">
        <ele>546.5</ele>
        <time>1970-01-01T00:00:31.000Z</time>
      </trkpt>
      <trkpt lat="42.791199" lon="-7.835118">
        <ele>546.8</ele>
        <time>1970-01-01T00:00:32.000Z</time>
      </trkpt>
      <trkpt lat="42.791209" lon="-7.835081">
        <ele>546.9</ele>
        <time>1970-01-01T00:00:33.000Z</time>
      </trkpt>
      <trkpt lat="42.791219" lon="-7.835047">
        <ele>546.9</ele>
        <time>1970-01-01T00:00:34.000Z</time>
      </trkpt>
      <trkpt lat="42.79123" lon="-7.83501">
        <ele>547</ele>
        <time>1970-01-01T00:00:35.000Z</time>
      </trkpt>
      <trkpt lat="42.79124" lon="-7.834975">
        <ele>547.1</ele>
        <time>1970-01-01T00:00:36.000Z</time>
      </trkpt>
      <trkpt lat="42.791249" lon="-7.83494">
        <ele>547.2</ele>
        <time>1970-01-01T00:00:37.000Z</time>
      </trkpt>
      <trkpt lat="42.791258" lon="-7.834904">
        <ele>547.3</ele>
        <time>1970-01-01T00:00:38.000Z</time>
      </trkpt>
      <trkpt lat="42.791267" lon="-7.834869">
        <ele>547.3</ele>
        <time>1970-01-01T00:00:39.000Z</time>
      </trkpt>
      <trkpt lat="42.791275" lon="-7.834831">
        <ele>547.4</ele>
        <time>1970-01-01T00:00:40.000Z</time>
      </trkpt>
      <trkpt lat="42.791287" lon="-7.834797">
        <ele>547.5</ele>
        <time>1970-01-01T00:00:41.000Z</time>
      </trkpt>
      <trkpt lat="42.791299" lon="-7.834761">
        <ele>547.6</ele>
        <time>1970-01-01T00:00:42.000Z</time>
      </trkpt>
      <trkpt lat="42.791312" lon="-7.834726">
        <ele>547.6</ele>
        <time>1970-01-01T00:00:43.000Z</time>
      </trkpt>
      <trkpt lat="42.791322" lon="-7.834694">
        <ele>547.7</ele>
        <time>1970-01-01T00:00:44.000Z</time>
      </trkpt>
      <trkpt lat="42.791333" lon="-7.834661">
        <ele>547.7</ele>
        <time>1970-01-01T00:00:45.000Z</time>
      </trkpt>
      <trkpt lat="42.791341" lon="-7.834627">
        <ele>547.8</ele>
        <time>1970-01-01T00:00:46.000Z</time>
      </trkpt>
      <trkpt lat="42.791347" lon="-7.834591">
        <ele>547.9</ele>
        <time>1970-01-01T00:00:47.000Z</time>
      </trkpt>
      <trkpt lat="42.791359" lon="-7.834557">
        <ele>547.9</ele>
        <time>1970-01-01T00:00:48.000Z</time>
      </trkpt>
      <trkpt lat="42.791374" lon="-7.834532">
        <ele>548</ele>
        <time>1970-01-01T00:00:49.000Z</time>
      </trkpt>
      <trkpt lat="42.791389" lon="-7.834506">
        <ele>548</ele>
        <time>1970-01-01T00:00:50.000Z</time>
      </trkpt>
      <trkpt lat="42.791399" lon="-7.83447">
        <ele>548.1</ele>
        <time>1970-01-01T00:00:51.000Z</time>
      </trkpt>
      <trkpt lat="42.791411" lon="-7.834432">
        <ele>548.2</ele>
        <time>1970-01-01T00:00:52.000Z</time>
      </trkpt>
      <trkpt lat="42.791428" lon="-7.834395">
        <ele>548.3</ele>
        <time>1970-01-01T00:00:53.000Z</time>
      </trkpt>
      <trkpt lat="42.791445" lon="-7.834357">
        <ele>548.4</ele>
        <time>1970-01-01T00:00:54.000Z</time>
      </trkpt>
      <trkpt lat="42.791461" lon="-7.83432">
        <ele>548.5</ele>
        <time>1970-01-01T00:00:55.000Z</time>
      </trkpt>
      <trkpt lat="42.791477" lon="-7.834276">
        <ele>548.6</ele>
        <time>1970-01-01T00:00:56.000Z</time>
      </trkpt>
      <trkpt lat="42.791493" lon="-7.834233">
        <ele>548.7</ele>
        <time>1970-01-01T00:00:57.000Z</time>
      </trkpt>
      <trkpt lat="42.791509" lon="-7.8342">
        <ele>548.8</ele>
        <time>1970-01-01T00:00:58.000Z</time>
      </trkpt>
      <trkpt lat="42.79153" lon="-7.834159">
        <ele>549</ele>
        <time>1970-01-01T00:00:59.000Z</time>
      </trkpt>
      <trkpt lat="42.791557" lon="-7.834117">
        <ele>549.2</ele>
        <time>1970-01-01T00:01:00.000Z</time>
      </trkpt>
      <trkpt lat="42.791586" lon="-7.834089">
        <ele>549.3</ele>
        <time>1970-01-01T00:01:01.000Z</time>
      </trkpt>
      <trkpt lat="42.791613" lon="-7.834066">
        <ele>549.5</ele>
        <time>1970-01-01T00:01:02.000Z</time>
      </trkpt>
      <trkpt lat="42.791639" lon="-7.834046">
        <ele>549.7</ele>
        <time>1970-01-01T00:01:03.000Z</time>
      </trkpt>
      <trkpt lat="42.791663" lon="-7.834027">
        <ele>549.7</ele>
        <time>1970-01-01T00:01:04.000Z</time>
      </trkpt>
      <trkpt lat="42.791687" lon="-7.834005">
        <ele>549.7</ele>
        <time>1970-01-01T00:01:05.000Z</time>
      </trkpt>
      <trkpt lat="42.791709" lon="-7.833988">
        <ele>549.7</ele>
        <time>1970-01-01T00:01:06.000Z</time>
      </trkpt>
      <trkpt lat="42.791732" lon="-7.833962">
        <ele>549.6</ele>
        <time>1970-01-01T00:01:07.000Z</time>
      </trkpt>
      <trkpt lat="42.79175" lon="-7.833941">
        <ele>549.6</ele>
        <time>1970-01-01T00:01:08.000Z</time>
      </trkpt>
      <trkpt lat="42.791767" lon="-7.833917">
        <ele>549.6</ele>
        <time>1970-01-01T00:01:09.000Z</time>
      </trkpt>
      <trkpt lat="42.791781" lon="-7.833888">
        <ele>549.6</ele>
        <time>1970-01-01T00:01:10.000Z</time>
      </trkpt>
      <trkpt lat="42.791782" lon="-7.833857">
        <ele>549.6</ele>
        <time>1970-01-01T00:01:11.000Z</time>
      </trkpt>
      <trkpt lat="42.791776" lon="-7.833818">
        <ele>549.6</ele>
        <time>1970-01-01T00:01:12.000Z</time>
      </trkpt>
      <trkpt lat="42.791768" lon="-7.833779">
        <ele>549.4</ele>
        <time>1970-01-01T00:01:13.000Z</time>
      </trkpt>
      <trkpt lat="42.79176" lon="-7.833737">
        <ele>549.3</ele>
        <time>1970-01-01T00:01:14.000Z</time>
      </trkpt>
      <trkpt lat="42.791758" lon="-7.83369">
        <ele>549.2</ele>
        <time>1970-01-01T00:01:15.000Z</time>
      </trkpt>
      <trkpt lat="42.791761" lon="-7.833639">
        <ele>549</ele>
        <time>1970-01-01T00:01:16.000Z</time>
      </trkpt>
      <trkpt lat="42.791773" lon="-7.833586">
        <ele>548.8</ele>
        <time>1970-01-01T00:01:17.000Z</time>
      </trkpt>
      <trkpt lat="42.791791" lon="-7.833544">
        <ele>548.7</ele>
        <time>1970-01-01T00:01:18.000Z</time>
      </trkpt>
      <trkpt lat="42.79181" lon="-7.833503">
        <ele>548.7</ele>
        <time>1970-01-01T00:01:19.000Z</time>
      </trkpt>
      <trkpt lat="42.791832" lon="-7.833456">
        <ele>548.6</ele>
        <time>1970-01-01T00:01:20.000Z</time>
      </trkpt>
      <trkpt lat="42.791854" lon="-7.833415">
        <ele>548.6</ele>
        <time>1970-01-01T00:01:21.000Z</time>
      </trkpt>
      <trkpt lat="42.791876" lon="-7.833377">
        <ele>548.6</ele>
        <time>1970-01-01T00:01:22.000Z</time>
      </trkpt>
      <trkpt lat="42.791898" lon="-7.833341">
        <ele>548.5</ele>
        <time>1970-01-01T00:01:23.000Z</time>
      </trkpt>
      <trkpt lat="42.791923" lon="-7.833305">
        <ele>548.5</ele>
        <time>1970-01-01T00:01:24.000Z</time>
      </trkpt>
      <trkpt lat="42.791946" lon="-7.833271">
        <ele>548.5</ele>
        <time>1970-01-01T00:01:25.000Z</time>
      </trkpt>
      <trkpt lat="42.791968" lon="-7.833238">
        <ele>548.5</ele>
        <time>1970-01-01T00:01:26.000Z</time>
      </trkpt>
      <trkpt lat="42.791991" lon="-7.833208">
        <ele>548.4</ele>
        <time>1970-01-01T00:01:27.000Z</time>
      </trkpt>
      <trkpt lat="42.792012" lon="-7.833179">
        <ele>548.4</ele>
        <time>1970-01-01T00:01:28.000Z</time>
      </trkpt>
      <trkpt lat="42.79203" lon="-7.83315">
        <ele>548.4</ele>
        <time>1970-01-01T00:01:29.000Z</time>
      </trkpt>
      <trkpt lat="42.792048" lon="-7.833116">
        <ele>548.4</ele>
        <time>1970-01-01T00:01:30.000Z</time>
      </trkpt>
      <trkpt lat="42.792065" lon="-7.833081">
        <ele>548.4</ele>
        <time>1970-01-01T00:01:31.000Z</time>
      </trkpt>
      <trkpt lat="42.792083" lon="-7.833048">
        <ele>548.4</ele>
        <time>1970-01-01T00:01:32.000Z</time>
      </trkpt>
      <trkpt lat="42.7921" lon="-7.833019">
        <ele>548.5</ele>
        <time>1970-01-01T00:01:33.000Z</time>
      </trkpt>
      <trkpt lat="42.792119" lon="-7.83299">
        <ele>548.5</ele>
        <time>1970-01-01T00:01:34.000Z</time>
      </trkpt>
      <trkpt lat="42.792138" lon="-7.83296">
        <ele>548.6</ele>
        <time>1970-01-01T00:01:35.000Z</time>
      </trkpt>
      <trkpt lat="42.792154" lon="-7.832931">
        <ele>548.6</ele>
        <time>1970-01-01T00:01:36.000Z</time>
      </trkpt>
      <trkpt lat="42.792171" lon="-7.832904">
        <ele>548.7</ele>
        <time>1970-01-01T00:01:37.000Z</time>
      </trkpt>
      <trkpt lat="42.792189" lon="-7.832878">
        <ele>548.7</ele>
        <time>1970-01-01T00:01:38.000Z</time>
      </trkpt>
      <trkpt lat="42.792207" lon="-7.832853">
        <ele>548.8</ele>
        <time>1970-01-01T00:01:39.000Z</time>
      </trkpt>
      <trkpt lat="42.792222" lon="-7.832825">
        <ele>548.8</ele>
        <time>1970-01-01T00:01:40.000Z</time>
      </trkpt>
      <trkpt lat="42.792234" lon="-7.832798">
        <ele>548.8</ele>
        <time>1970-01-01T00:01:41.000Z</time>
      </trkpt>
      <trkpt lat="42.792248" lon="-7.83277">
        <ele>548.9</ele>
        <time>1970-01-01T00:01:42.000Z</time>
      </trkpt>
      <trkpt lat="42.792265" lon="-7.832746">
        <ele>548.9</ele>
        <time>1970-01-01T00:01:43.000Z</time>
      </trkpt>
      <trkpt lat="42.792282" lon="-7.832722">
        <ele>549</ele>
        <time>1970-01-01T00:01:44.000Z</time>
      </trkpt>
      <trkpt lat="42.792298" lon="-7.832696">
        <ele>549</ele>
        <time>1970-01-01T00:01:45.000Z</time>
      </trkpt>
      <trkpt lat="42.792313" lon="-7.832669">
        <ele>549</ele>
        <time>1970-01-01T00:01:46.000Z</time>
      </trkpt>
      <trkpt lat="42.792328" lon="-7.832642">
        <ele>549.1</ele>
        <time>1970-01-01T00:01:47.000Z</time>
      </trkpt>
      <trkpt lat="42.79234" lon="-7.832614">
        <ele>549.1</ele>
        <time>1970-01-01T00:01:48.000Z</time>
      </trkpt>
      <trkpt lat="42.792355" lon="-7.832585">
        <ele>549.1</ele>
        <time>1970-01-01T00:01:49.000Z</time>
      </trkpt>
      <trkpt lat="42.792373" lon="-7.832551">
        <ele>549.1</ele>
        <time>1970-01-01T00:01:50.000Z</time>
      </trkpt>
      <trkpt lat="42.792389" lon="-7.832515">
        <ele>549</ele>
        <time>1970-01-01T00:01:51.000Z</time>
      </trkpt>
      <trkpt lat="42.792405" lon="-7.832476">
        <ele>549</ele>
        <time>1970-01-01T00:01:52.000Z</time>
      </trkpt>
      <trkpt lat="42.79242" lon="-7.832437">
        <ele>549</ele>
        <time>1970-01-01T00:01:53.000Z</time>
      </trkpt>
      <trkpt lat="42.792435" lon="-7.832401">
        <ele>548.9</ele>
        <time>1970-01-01T00:01:54.000Z</time>
      </trkpt>
      <trkpt lat="42.792449" lon="-7.832366">
        <ele>548.9</ele>
        <time>1970-01-01T00:01:55.000Z</time>
      </trkpt>
      <trkpt lat="42.792465" lon="-7.832333">
        <ele>548.9</ele>
        <time>1970-01-01T00:01:56.000Z</time>
      </trkpt>
      <trkpt lat="42.792482" lon="-7.832301">
        <ele>548.9</ele>
        <time>1970-01-01T00:01:57.000Z</time>
      </trkpt>
      <trkpt lat="42.792495" lon="-7.832265">
        <ele>548.8</ele>
        <time>1970-01-01T00:01:58.000Z</time>
      </trkpt>
      <trkpt lat="42.792508" lon="-7.832229">
        <ele>548.8</ele>
        <time>1970-01-01T00:01:59.000Z</time>
      </trkpt>
      <trkpt lat="42.792523" lon="-7.832193">
        <ele>548.8</ele>
        <time>1970-01-01T00:02:00.000Z</time>
      </trkpt>
      <trkpt lat="42.792541" lon="-7.832157">
        <ele>548.7</ele>
        <time>1970-01-01T00:02:01.000Z</time>
      </trkpt>
      <trkpt lat="42.792559" lon="-7.832121">
        <ele>548.7</ele>
        <time>1970-01-01T00:02:02.000Z</time>
      </trkpt>
      <trkpt lat="42.792576" lon="-7.832087">
        <ele>548.6</ele>
        <time>1970-01-01T00:02:03.000Z</time>
      </trkpt>
      <trkpt lat="42.792594" lon="-7.832055">
        <ele>548.6</ele>
        <time>1970-01-01T00:02:04.000Z</time>
      </trkpt>
      <trkpt lat="42.792602" lon="-7.832027">
        <ele>548.6</ele>
        <time>1970-01-01T00:02:05.000Z</time>
      </trkpt>
      <trkpt lat="42.792617" lon="-7.831994">
        <ele>548.6</ele>
        <time>1970-01-01T00:02:06.000Z</time>
      </trkpt>
      <trkpt lat="42.792635" lon="-7.831959">
        <ele>548.4</ele>
        <time>1970-01-01T00:02:07.000Z</time>
      </trkpt>
      <trkpt lat="42.792652" lon="-7.831924">
        <ele>548.4</ele>
        <time>1970-01-01T00:02:08.000Z</time>
      </trkpt>
      <trkpt lat="42.792665" lon="-7.831886">
        <ele>548.3</ele>
        <time>1970-01-01T00:02:09.000Z</time>
      </trkpt>
      <trkpt lat="42.792673" lon="-7.831851">
        <ele>548.2</ele>
        <time>1970-01-01T00:02:10.000Z</time>
      </trkpt>
      <trkpt lat="42.792687" lon="-7.831814">
        <ele>548.2</ele>
        <time>1970-01-01T00:02:11.000Z</time>
      </trkpt>
      <trkpt lat="42.792703" lon="-7.831775">
        <ele>548.1</ele>
        <time>1970-01-01T00:02:12.000Z</time>
      </trkpt>
      <trkpt lat="42.792715" lon="-7.831733">
        <ele>548.1</ele>
        <time>1970-01-01T00:02:13.000Z</time>
      </trkpt>
      <trkpt lat="42.792727" lon="-7.831692">
        <ele>548</ele>
        <time>1970-01-01T00:02:14.000Z</time>
      </trkpt>
      <trkpt lat="42.792741" lon="-7.831651">
        <ele>548</ele>
        <time>1970-01-01T00:02:15.000Z</time>
      </trkpt>
      <trkpt lat="42.792758" lon="-7.831612">
        <ele>548</ele>
        <time>1970-01-01T00:02:16.000Z</time>
      </trkpt>
      <trkpt lat="42.792775" lon="-7.831574">
        <ele>548</ele>
        <time>1970-01-01T00:02:17.000Z</time>
      </trkpt>
      <trkpt lat="42.792793" lon="-7.831533">
        <ele>548</ele>
        <time>1970-01-01T00:02:18.000Z</time>
      </trkpt>
      <trkpt lat="42.792812" lon="-7.831498">
        <ele>548</ele>
        <time>1970-01-01T00:02:19.000Z</time>
      </trkpt>
      <trkpt lat="42.792824" lon="-7.831458">
        <ele>548</ele>
        <time>1970-01-01T00:02:20.000Z</time>
      </trkpt>
      <trkpt lat="42.792843" lon="-7.831415">
        <ele>548.1</ele>
        <time>1970-01-01T00:02:21.000Z</time>
      </trkpt>
      <trkpt lat="42.792861" lon="-7.831371">
        <ele>548.1</ele>
        <time>1970-01-01T00:02:22.000Z</time>
      </trkpt>
      <trkpt lat="42.792875" lon="-7.831328">
        <ele>548.1</ele>
        <time>1970-01-01T00:02:23.000Z</time>
      </trkpt>
      <trkpt lat="42.792887" lon="-7.831286">
        <ele>548.1</ele>
        <time>1970-01-01T00:02:24.000Z</time>
      </trkpt>
      <trkpt lat="42.792902" lon="-7.831245">
        <ele>548.2</ele>
        <time>1970-01-01T00:02:25.000Z</time>
      </trkpt>
      <trkpt lat="42.792911" lon="-7.831207">
        <ele>548.2</ele>
        <time>1970-01-01T00:02:26.000Z</time>
      </trkpt>
      <trkpt lat="42.792922" lon="-7.831169">
        <ele>548.2</ele>
        <time>1970-01-01T00:02:27.000Z</time>
      </trkpt>
      <trkpt lat="42.792933" lon="-7.831131">
        <ele>548.3</ele>
        <time>1970-01-01T00:02:28.000Z</time>
      </trkpt>
      <trkpt lat="42.792948" lon="-7.831092">
        <ele>548.3</ele>
        <time>1970-01-01T00:02:29.000Z</time>
      </trkpt>
      <trkpt lat="42.792961" lon="-7.83105">
        <ele>548.3</ele>
        <time>1970-01-01T00:02:30.000Z</time>
      </trkpt>
      <trkpt lat="42.792974" lon="-7.831009">
        <ele>548.3</ele>
        <time>1970-01-01T00:02:31.000Z</time>
      </trkpt>
      <trkpt lat="42.792989" lon="-7.830976">
        <ele>548.3</ele>
        <time>1970-01-01T00:02:32.000Z</time>
      </trkpt>
      <trkpt lat="42.793004" lon="-7.830936">
        <ele>548.4</ele>
        <time>1970-01-01T00:02:33.000Z</time>
      </trkpt>
      <trkpt lat="42.793019" lon="-7.830896">
        <ele>548.4</ele>
        <time>1970-01-01T00:02:34.000Z</time>
      </trkpt>
      <trkpt lat="42.79304" lon="-7.830862">
        <ele>548.4</ele>
        <time>1970-01-01T00:02:35.000Z</time>
      </trkpt>
      <trkpt lat="42.793057" lon="-7.830826">
        <ele>548.4</ele>
        <time>1970-01-01T00:02:36.000Z</time>
      </trkpt>
      <trkpt lat="42.79307" lon="-7.830793">
        <ele>548.4</ele>
        <time>1970-01-01T00:02:37.000Z</time>
      </trkpt>
      <trkpt lat="42.793086" lon="-7.830752">
        <ele>548.4</ele>
        <time>1970-01-01T00:02:38.000Z</time>
      </trkpt>
      <trkpt lat="42.793103" lon="-7.830711">
        <ele>548.4</ele>
        <time>1970-01-01T00:02:39.000Z</time>
      </trkpt>
      <trkpt lat="42.793119" lon="-7.830669">
        <ele>548.3</ele>
        <time>1970-01-01T00:02:40.000Z</time>
      </trkpt>
      <trkpt lat="42.79314" lon="-7.830632">
        <ele>548.3</ele>
        <time>1970-01-01T00:02:41.000Z</time>
      </trkpt>
      <trkpt lat="42.79316" lon="-7.830593">
        <ele>548.3</ele>
        <time>1970-01-01T00:02:42.000Z</time>
      </trkpt>
      <trkpt lat="42.793182" lon="-7.830558">
        <ele>548.3</ele>
        <time>1970-01-01T00:02:43.000Z</time>
      </trkpt>
      <trkpt lat="42.793204" lon="-7.830524">
        <ele>548.3</ele>
        <time>1970-01-01T00:02:44.000Z</time>
      </trkpt>
      <trkpt lat="42.793226" lon="-7.830512">
        <ele>548.2</ele>
        <time>1970-01-01T00:02:45.000Z</time>
      </trkpt>
      <trkpt lat="42.793246" lon="-7.830491">
        <ele>548.2</ele>
        <time>1970-01-01T00:02:46.000Z</time>
      </trkpt>
      <trkpt lat="42.793263" lon="-7.830455">
        <ele>548.2</ele>
        <time>1970-01-01T00:02:47.000Z</time>
      </trkpt>
      <trkpt lat="42.793277" lon="-7.830418">
        <ele>548.1</ele>
        <time>1970-01-01T00:02:48.000Z</time>
      </trkpt>
      <trkpt lat="42.793295" lon="-7.830382">
        <ele>548.1</ele>
        <time>1970-01-01T00:02:49.000Z</time>
      </trkpt>
      <trkpt lat="42.793316" lon="-7.830344">
        <ele>548</ele>
        <time>1970-01-01T00:02:50.000Z</time>
      </trkpt>
      <trkpt lat="42.793338" lon="-7.830309">
        <ele>547.9</ele>
        <time>1970-01-01T00:02:51.000Z</time>
      </trkpt>
      <trkpt lat="42.793357" lon="-7.830274">
        <ele>547.9</ele>
        <time>1970-01-01T00:02:52.000Z</time>
      </trkpt>
      <trkpt lat="42.793373" lon="-7.830243">
        <ele>547.8</ele>
        <time>1970-01-01T00:02:53.000Z</time>
      </trkpt>
      <trkpt lat="42.793396" lon="-7.83021">
        <ele>547.7</ele>
        <time>1970-01-01T00:02:54.000Z</time>
      </trkpt>
      <trkpt lat="42.793418" lon="-7.830179">
        <ele>547.7</ele>
        <time>1970-01-01T00:02:55.000Z</time>
      </trkpt>
      <trkpt lat="42.793439" lon="-7.830149">
        <ele>547.6</ele>
        <time>1970-01-01T00:02:56.000Z</time>
      </trkpt>
      <trkpt lat="42.793466" lon="-7.830116">
        <ele>547.6</ele>
        <time>1970-01-01T00:02:57.000Z</time>
      </trkpt>
      <trkpt lat="42.793488" lon="-7.830081">
        <ele>547.6</ele>
        <time>1970-01-01T00:02:58.000Z</time>
      </trkpt>
      <trkpt lat="42.793508" lon="-7.830046">
        <ele>547.6</ele>
        <time>1970-01-01T00:02:59.000Z</time>
      </trkpt>
      <trkpt lat="42.793529" lon="-7.830011">
        <ele>547.6</ele>
        <time>1970-01-01T00:03:00.000Z</time>
      </trkpt>
      <trkpt lat="42.793553" lon="-7.829975">
        <ele>547.6</ele>
        <time>1970-01-01T00:03:01.000Z</time>
      </trkpt>
      <trkpt lat="42.793577" lon="-7.829939">
        <ele>547.7</ele>
        <time>1970-01-01T00:03:02.000Z</time>
      </trkpt>
      <trkpt lat="42.793603" lon="-7.829904">
        <ele>547.7</ele>
        <time>1970-01-01T00:03:03.000Z</time>
      </trkpt>
      <trkpt lat="42.793632" lon="-7.829876">
        <ele>547.7</ele>
        <time>1970-01-01T00:03:04.000Z</time>
      </trkpt>
      <trkpt lat="42.793664" lon="-7.829861">
        <ele>547.7</ele>
        <time>1970-01-01T00:03:05.000Z</time>
      </trkpt>
      <trkpt lat="42.793695" lon="-7.829867">
        <ele>547.8</ele>
        <time>1970-01-01T00:03:06.000Z</time>
      </trkpt>
      <trkpt lat="42.793721" lon="-7.829887">
        <ele>547.8</ele>
        <time>1970-01-01T00:03:07.000Z</time>
      </trkpt>
      <trkpt lat="42.793745" lon="-7.82992">
        <ele>547.8</ele>
        <time>1970-01-01T00:03:08.000Z</time>
      </trkpt>
      <trkpt lat="42.793755" lon="-7.829961">
        <ele>547.8</ele>
        <time>1970-01-01T00:03:09.000Z</time>
      </trkpt>
      <trkpt lat="42.793754" lon="-7.830003">
        <ele>547.8</ele>
        <time>1970-01-01T00:03:10.000Z</time>
      </trkpt>
      <trkpt lat="42.793747" lon="-7.830044">
        <ele>547.8</ele>
        <time>1970-01-01T00:03:11.000Z</time>
      </trkpt>
      <trkpt lat="42.793737" lon="-7.830087">
        <ele>547.7</ele>
        <time>1970-01-01T00:03:12.000Z</time>
      </trkpt>
      <trkpt lat="42.793727" lon="-7.830126">
        <ele>547.7</ele>
        <time>1970-01-01T00:03:13.000Z</time>
      </trkpt>
      <trkpt lat="42.793713" lon="-7.830166">
        <ele>547.7</ele>
        <time>1970-01-01T00:03:14.000Z</time>
      </trkpt>
      <trkpt lat="42.793702" lon="-7.830208">
        <ele>547.6</ele>
        <time>1970-01-01T00:03:15.000Z</time>
      </trkpt>
      <trkpt lat="42.793688" lon="-7.830252">
        <ele>547.6</ele>
        <time>1970-01-01T00:03:16.000Z</time>
      </trkpt>
      <trkpt lat="42.793669" lon="-7.830301">
        <ele>547.5</ele>
        <time>1970-01-01T00:03:17.000Z</time>
      </trkpt>
      <trkpt lat="42.79365" lon="-7.830351">
        <ele>547.4</ele>
        <time>1970-01-01T00:03:18.000Z</time>
      </trkpt>
      <trkpt lat="42.793633" lon="-7.830398">
        <ele>547.3</ele>
        <time>1970-01-01T00:03:19.000Z</time>
      </trkpt>
      <trkpt lat="42.793613" lon="-7.830447">
        <ele>547.2</ele>
        <time>1970-01-01T00:03:20.000Z</time>
      </trkpt>
      <trkpt lat="42.793593" lon="-7.830497">
        <ele>547.1</ele>
        <time>1970-01-01T00:03:21.000Z</time>
      </trkpt>
      <trkpt lat="42.793572" lon="-7.830548">
        <ele>547</ele>
        <time>1970-01-01T00:03:22.000Z</time>
      </trkpt>
      <trkpt lat="42.793553" lon="-7.830598">
        <ele>546.9</ele>
        <time>1970-01-01T00:03:23.000Z</time>
      </trkpt>
      <trkpt lat="42.793533" lon="-7.830648">
        <ele>546.8</ele>
        <time>1970-01-01T00:03:24.000Z</time>
      </trkpt>
      <trkpt lat="42.793513" lon="-7.830699">
        <ele>546.8</ele>
        <time>1970-01-01T00:03:25.000Z</time>
      </trkpt>
      <trkpt lat="42.793491" lon="-7.830751">
        <ele>546.7</ele>
        <time>1970-01-01T00:03:26.000Z</time>
      </trkpt>
      <trkpt lat="42.793471" lon="-7.830804">
        <ele>546.7</ele>
        <time>1970-01-01T00:03:27.000Z</time>
      </trkpt>
      <trkpt lat="42.79345" lon="-7.830854">
        <ele>546.7</ele>
        <time>1970-01-01T00:03:28.000Z</time>
      </trkpt>
      <trkpt lat="42.793428" lon="-7.830904">
        <ele>546.7</ele>
        <time>1970-01-01T00:03:29.000Z</time>
      </trkpt>
      <trkpt lat="42.793413" lon="-7.830948">
        <ele>546.6</ele>
        <time>1970-01-01T00:03:30.000Z</time>
      </trkpt>
      <trkpt lat="42.793397" lon="-7.830992">
        <ele>546.6</ele>
        <time>1970-01-01T00:03:31.000Z</time>
      </trkpt>
      <trkpt lat="42.793385" lon="-7.831034">
        <ele>546.6</ele>
        <time>1970-01-01T00:03:32.000Z</time>
      </trkpt>
      <trkpt lat="42.79337" lon="-7.831075">
        <ele>546.6</ele>
        <time>1970-01-01T00:03:33.000Z</time>
      </trkpt>
      <trkpt lat="42.793353" lon="-7.831114">
        <ele>546.6</ele>
        <time>1970-01-01T00:03:34.000Z</time>
      </trkpt>
      <trkpt lat="42.793336" lon="-7.831151">
        <ele>546.6</ele>
        <time>1970-01-01T00:03:35.000Z</time>
      </trkpt>
      <trkpt lat="42.79332" lon="-7.831187">
        <ele>546.7</ele>
        <time>1970-01-01T00:03:36.000Z</time>
      </trkpt>
      <trkpt lat="42.793306" lon="-7.831223">
        <ele>546.7</ele>
        <time>1970-01-01T00:03:37.000Z</time>
      </trkpt>
      <trkpt lat="42.79329" lon="-7.831259">
        <ele>546.7</ele>
        <time>1970-01-01T00:03:38.000Z</time>
      </trkpt>
      <trkpt lat="42.793274" lon="-7.831295">
        <ele>546.7</ele>
        <time>1970-01-01T00:03:39.000Z</time>
      </trkpt>
      <trkpt lat="42.79326" lon="-7.831329">
        <ele>546.8</ele>
        <time>1970-01-01T00:03:40.000Z</time>
      </trkpt>
      <trkpt lat="42.793248" lon="-7.831369">
        <ele>546.8</ele>
        <time>1970-01-01T00:03:41.000Z</time>
      </trkpt>
      <trkpt lat="42.793234" lon="-7.83141">
        <ele>546.8</ele>
        <time>1970-01-01T00:03:42.000Z</time>
      </trkpt>
      <trkpt lat="42.793218" lon="-7.831452">
        <ele>546.9</ele>
        <time>1970-01-01T00:03:43.000Z</time>
      </trkpt>
      <trkpt lat="42.793202" lon="-7.831492">
        <ele>547</ele>
        <time>1970-01-01T00:03:44.000Z</time>
      </trkpt>
      <trkpt lat="42.793187" lon="-7.831535">
        <ele>547.1</ele>
        <time>1970-01-01T00:03:45.000Z</time>
      </trkpt>
      <trkpt lat="42.793172" lon="-7.831577">
        <ele>547.1</ele>
        <time>1970-01-01T00:03:46.000Z</time>
      </trkpt>
      <trkpt lat="42.793156" lon="-7.83162">
        <ele>547.2</ele>
        <time>1970-01-01T00:03:47.000Z</time>
      </trkpt>
      <trkpt lat="42.793143" lon="-7.831656">
        <ele>547.3</ele>
        <time>1970-01-01T00:03:48.000Z</time>
      </trkpt>
      <trkpt lat="42.793117" lon="-7.831702">
        <ele>547.4</ele>
        <time>1970-01-01T00:03:49.000Z</time>
      </trkpt>
      <trkpt lat="42.793097" lon="-7.831742">
        <ele>547.4</ele>
        <time>1970-01-01T00:03:50.000Z</time>
      </trkpt>
      <trkpt lat="42.793073" lon="-7.831784">
        <ele>547.5</ele>
        <time>1970-01-01T00:03:51.000Z</time>
      </trkpt>
      <trkpt lat="42.793054" lon="-7.831824">
        <ele>547.6</ele>
        <time>1970-01-01T00:03:52.000Z</time>
      </trkpt>
      <trkpt lat="42.793037" lon="-7.831869">
        <ele>547.6</ele>
        <time>1970-01-01T00:03:53.000Z</time>
      </trkpt>
      <trkpt lat="42.79302" lon="-7.83191">
        <ele>547.7</ele>
        <time>1970-01-01T00:03:54.000Z</time>
      </trkpt>
      <trkpt lat="42.793004" lon="-7.83195">
        <ele>547.8</ele>
        <time>1970-01-01T00:03:55.000Z</time>
      </trkpt>
      <trkpt lat="42.792991" lon="-7.831989">
        <ele>547.9</ele>
        <time>1970-01-01T00:03:56.000Z</time>
      </trkpt>
      <trkpt lat="42.792974" lon="-7.83203">
        <ele>548</ele>
        <time>1970-01-01T00:03:57.000Z</time>
      </trkpt>
      <trkpt lat="42.79296" lon="-7.832069">
        <ele>548</ele>
        <time>1970-01-01T00:03:58.000Z</time>
      </trkpt>
      <trkpt lat="42.792944" lon="-7.832106">
        <ele>548.1</ele>
        <time>1970-01-01T00:03:59.000Z</time>
      </trkpt>
      <trkpt lat="42.792931" lon="-7.832148">
        <ele>548.2</ele>
        <time>1970-01-01T00:04:00.000Z</time>
      </trkpt>
      <trkpt lat="42.792911" lon="-7.832197">
        <ele>548.4</ele>
        <time>1970-01-01T00:04:01.000Z</time>
      </trkpt>
      <trkpt lat="42.792891" lon="-7.832247">
        <ele>548.4</ele>
        <time>1970-01-01T00:04:02.000Z</time>
      </trkpt>
      <trkpt lat="42.792873" lon="-7.832292">
        <ele>548.4</ele>
        <time>1970-01-01T00:04:03.000Z</time>
      </trkpt>
      <trkpt lat="42.792855" lon="-7.832335">
        <ele>548.4</ele>
        <time>1970-01-01T00:04:04.000Z</time>
      </trkpt>
      <trkpt lat="42.792836" lon="-7.832381">
        <ele>548.3</ele>
        <time>1970-01-01T00:04:05.000Z</time>
      </trkpt>
      <trkpt lat="42.792817" lon="-7.832425">
        <ele>548.4</ele>
        <time>1970-01-01T00:04:06.000Z</time>
      </trkpt>
      <trkpt lat="42.792797" lon="-7.832466">
        <ele>548.4</ele>
        <time>1970-01-01T00:04:07.000Z</time>
      </trkpt>
      <trkpt lat="42.792779" lon="-7.832511">
        <ele>548.4</ele>
        <time>1970-01-01T00:04:08.000Z</time>
      </trkpt>
      <trkpt lat="42.792764" lon="-7.832556">
        <ele>548.4</ele>
        <time>1970-01-01T00:04:09.000Z</time>
      </trkpt>
      <trkpt lat="42.792748" lon="-7.832598">
        <ele>548.4</ele>
        <time>1970-01-01T00:04:10.000Z</time>
      </trkpt>
      <trkpt lat="42.792732" lon="-7.832639">
        <ele>548.5</ele>
        <time>1970-01-01T00:04:11.000Z</time>
      </trkpt>
      <trkpt lat="42.792715" lon="-7.832678">
        <ele>548.5</ele>
        <time>1970-01-01T00:04:12.000Z</time>
      </trkpt>
      <trkpt lat="42.792701" lon="-7.832708">
        <ele>548.5</ele>
        <time>1970-01-01T00:04:13.000Z</time>
      </trkpt>
      <trkpt lat="42.792687" lon="-7.832746">
        <ele>548.6</ele>
        <time>1970-01-01T00:04:14.000Z</time>
      </trkpt>
      <trkpt lat="42.792676" lon="-7.832783">
        <ele>548.6</ele>
        <time>1970-01-01T00:04:15.000Z</time>
      </trkpt>
      <trkpt lat="42.792669" lon="-7.832823">
        <ele>548.6</ele>
        <time>1970-01-01T00:04:16.000Z</time>
      </trkpt>
      <trkpt lat="42.79266" lon="-7.83286">
        <ele>548.6</ele>
        <time>1970-01-01T00:04:17.000Z</time>
      </trkpt>
      <trkpt lat="42.792652" lon="-7.832898">
        <ele>548.6</ele>
        <time>1970-01-01T00:04:18.000Z</time>
      </trkpt>
      <trkpt lat="42.792644" lon="-7.832937">
        <ele>548.6</ele>
        <time>1970-01-01T00:04:19.000Z</time>
      </trkpt>
      <trkpt lat="42.792637" lon="-7.832975">
        <ele>548.6</ele>
        <time>1970-01-01T00:04:20.000Z</time>
      </trkpt>
      <trkpt lat="42.792633" lon="-7.83301">
        <ele>548.6</ele>
        <time>1970-01-01T00:04:21.000Z</time>
      </trkpt>
      <trkpt lat="42.792625" lon="-7.833046">
        <ele>548.6</ele>
        <time>1970-01-01T00:04:22.000Z</time>
      </trkpt>
      <trkpt lat="42.792617" lon="-7.833086">
        <ele>548.6</ele>
        <time>1970-01-01T00:04:23.000Z</time>
      </trkpt>
      <trkpt lat="42.792611" lon="-7.833127">
        <ele>548.5</ele>
        <time>1970-01-01T00:04:24.000Z</time>
      </trkpt>
      <trkpt lat="42.792607" lon="-7.833167">
        <ele>548.5</ele>
        <time>1970-01-01T00:04:25.000Z</time>
      </trkpt>
      <trkpt lat="42.792601" lon="-7.833211">
        <ele>548.5</ele>
        <time>1970-01-01T00:04:26.000Z</time>
      </trkpt>
      <trkpt lat="42.792598" lon="-7.833253">
        <ele>548.5</ele>
        <time>1970-01-01T00:04:27.000Z</time>
      </trkpt>
      <trkpt lat="42.792594" lon="-7.833294">
        <ele>548.5</ele>
        <time>1970-01-01T00:04:28.000Z</time>
      </trkpt>
      <trkpt lat="42.792587" lon="-7.833342">
        <ele>548.5</ele>
        <time>1970-01-01T00:04:29.000Z</time>
      </trkpt>
      <trkpt lat="42.792585" lon="-7.833386">
        <ele>548.5</ele>
        <time>1970-01-01T00:04:30.000Z</time>
      </trkpt>
      <trkpt lat="42.792584" lon="-7.833428">
        <ele>548.5</ele>
        <time>1970-01-01T00:04:31.000Z</time>
      </trkpt>
      <trkpt lat="42.792582" lon="-7.833472">
        <ele>548.6</ele>
        <time>1970-01-01T00:04:32.000Z</time>
      </trkpt>
      <trkpt lat="42.792578" lon="-7.833515">
        <ele>548.6</ele>
        <time>1970-01-01T00:04:33.000Z</time>
      </trkpt>
      <trkpt lat="42.792573" lon="-7.833553">
        <ele>548.6</ele>
        <time>1970-01-01T00:04:34.000Z</time>
      </trkpt>
      <trkpt lat="42.792574" lon="-7.833593">
        <ele>548.6</ele>
        <time>1970-01-01T00:04:35.000Z</time>
      </trkpt>
      <trkpt lat="42.792573" lon="-7.833632">
        <ele>548.6</ele>
        <time>1970-01-01T00:04:36.000Z</time>
      </trkpt>
      <trkpt lat="42.792573" lon="-7.833663">
        <ele>548.7</ele>
        <time>1970-01-01T00:04:37.000Z</time>
      </trkpt>
      <trkpt lat="42.79257" lon="-7.833698">
        <ele>548.7</ele>
        <time>1970-01-01T00:04:38.000Z</time>
      </trkpt>
      <trkpt lat="42.792572" lon="-7.833733">
        <ele>548.7</ele>
        <time>1970-01-01T00:04:39.000Z</time>
      </trkpt>
      <trkpt lat="42.792573" lon="-7.833765">
        <ele>548.7</ele>
        <time>1970-01-01T00:04:40.000Z</time>
      </trkpt>
      <trkpt lat="42.792574" lon="-7.833798">
        <ele>548.8</ele>
        <time>1970-01-01T00:04:41.000Z</time>
      </trkpt>
      <trkpt lat="42.792571" lon="-7.833833">
        <ele>548.8</ele>
        <time>1970-01-01T00:04:42.000Z</time>
      </trkpt>
      <trkpt lat="42.792567" lon="-7.833871">
        <ele>548.8</ele>
        <time>1970-01-01T00:04:43.000Z</time>
      </trkpt>
      <trkpt lat="42.792564" lon="-7.833907">
        <ele>548.8</ele>
        <time>1970-01-01T00:04:44.000Z</time>
      </trkpt>
      <trkpt lat="42.792561" lon="-7.833945">
        <ele>548.8</ele>
        <time>1970-01-01T00:04:45.000Z</time>
      </trkpt>
      <trkpt lat="42.792556" lon="-7.833984">
        <ele>548.8</ele>
        <time>1970-01-01T00:04:46.000Z</time>
      </trkpt>
      <trkpt lat="42.792556" lon="-7.834016">
        <ele>548.8</ele>
        <time>1970-01-01T00:04:47.000Z</time>
      </trkpt>
      <trkpt lat="42.792553" lon="-7.834053">
        <ele>548.8</ele>
        <time>1970-01-01T00:04:48.000Z</time>
      </trkpt>
      <trkpt lat="42.792549" lon="-7.834093">
        <ele>548.8</ele>
        <time>1970-01-01T00:04:49.000Z</time>
      </trkpt>
      <trkpt lat="42.792546" lon="-7.834132">
        <ele>548.8</ele>
        <time>1970-01-01T00:04:50.000Z</time>
      </trkpt>
      <trkpt lat="42.792542" lon="-7.834171">
        <ele>548.8</ele>
        <time>1970-01-01T00:04:51.000Z</time>
      </trkpt>
      <trkpt lat="42.792536" lon="-7.83421">
        <ele>548.9</ele>
        <time>1970-01-01T00:04:52.000Z</time>
      </trkpt>
      <trkpt lat="42.79253" lon="-7.834251">
        <ele>548.9</ele>
        <time>1970-01-01T00:04:53.000Z</time>
      </trkpt>
      <trkpt lat="42.792525" lon="-7.834294">
        <ele>548.9</ele>
        <time>1970-01-01T00:04:54.000Z</time>
      </trkpt>
      <trkpt lat="42.792523" lon="-7.834334">
        <ele>548.9</ele>
        <time>1970-01-01T00:04:55.000Z</time>
      </trkpt>
      <trkpt lat="42.792523" lon="-7.834379">
        <ele>548.9</ele>
        <time>1970-01-01T00:04:56.000Z</time>
      </trkpt>
      <trkpt lat="42.792522" lon="-7.834418">
        <ele>548.9</ele>
        <time>1970-01-01T00:04:57.000Z</time>
      </trkpt>
      <trkpt lat="42.792525" lon="-7.834454">
        <ele>548.9</ele>
        <time>1970-01-01T00:04:58.000Z</time>
      </trkpt>
      <trkpt lat="42.792528" lon="-7.83449">
        <ele>548.9</ele>
        <time>1970-01-01T00:04:59.000Z</time>
      </trkpt>
      <trkpt lat="42.792531" lon="-7.834534">
        <ele>548.9</ele>
        <time>1970-01-01T00:05:00.000Z</time>
      </trkpt>
      <trkpt lat="42.792537" lon="-7.834573">
        <ele>548.9</ele>
        <time>1970-01-01T00:05:01.000Z</time>
      </trkpt>
      <trkpt lat="42.792544" lon="-7.834614">
        <ele>548.9</ele>
        <time>1970-01-01T00:05:02.000Z</time>
      </trkpt>
      <trkpt lat="42.792553" lon="-7.834654">
        <ele>548.9</ele>
        <time>1970-01-01T00:05:03.000Z</time>
      </trkpt>
      <trkpt lat="42.79256" lon="-7.834697">
        <ele>548.9</ele>
        <time>1970-01-01T00:05:04.000Z</time>
      </trkpt>
      <trkpt lat="42.792567" lon="-7.834739">
        <ele>548.9</ele>
        <time>1970-01-01T00:05:05.000Z</time>
      </trkpt>
      <trkpt lat="42.792576" lon="-7.834783">
        <ele>548.9</ele>
        <time>1970-01-01T00:05:06.000Z</time>
      </trkpt>
      <trkpt lat="42.792592" lon="-7.834821">
        <ele>548.9</ele>
        <time>1970-01-01T00:05:07.000Z</time>
      </trkpt>
      <trkpt lat="42.792605" lon="-7.834864">
        <ele>548.9</ele>
        <time>1970-01-01T00:05:08.000Z</time>
      </trkpt>
      <trkpt lat="42.792616" lon="-7.834906">
        <ele>548.9</ele>
        <time>1970-01-01T00:05:09.000Z</time>
      </trkpt>
      <trkpt lat="42.792626" lon="-7.834962">
        <ele>548.9</ele>
        <time>1970-01-01T00:05:10.000Z</time>
      </trkpt>
      <trkpt lat="42.79264" lon="-7.835016">
        <ele>548.8</ele>
        <time>1970-01-01T00:05:11.000Z</time>
      </trkpt>
      <trkpt lat="42.792655" lon="-7.83507">
        <ele>548.8</ele>
        <time>1970-01-01T00:05:12.000Z</time>
      </trkpt>
      <trkpt lat="42.792664" lon="-7.835136">
        <ele>548.7</ele>
        <time>1970-01-01T00:05:13.000Z</time>
      </trkpt>
      <trkpt lat="42.792676" lon="-7.835198">
        <ele>548.6</ele>
        <time>1970-01-01T00:05:14.000Z</time>
      </trkpt>
      <trkpt lat="42.792689" lon="-7.835254">
        <ele>548.6</ele>
        <time>1970-01-01T00:05:15.000Z</time>
      </trkpt>
      <trkpt lat="42.7927" lon="-7.835308">
        <ele>548.5</ele>
        <time>1970-01-01T00:05:16.000Z</time>
      </trkpt>
      <trkpt lat="42.792712" lon="-7.835361">
        <ele>548.3</ele>
        <time>1970-01-01T00:05:17.000Z</time>
      </trkpt>
      <trkpt lat="42.792725" lon="-7.835409">
        <ele>548.2</ele>
        <time>1970-01-01T00:05:18.000Z</time>
      </trkpt>
      <trkpt lat="42.792737" lon="-7.835447">
        <ele>548.1</ele>
        <time>1970-01-01T00:05:19.000Z</time>
      </trkpt>
      <trkpt lat="42.792746" lon="-7.835481">
        <ele>548</ele>
        <time>1970-01-01T00:05:20.000Z</time>
      </trkpt>
      <trkpt lat="42.792754" lon="-7.83552">
        <ele>547.8</ele>
        <time>1970-01-01T00:05:21.000Z</time>
      </trkpt>
      <trkpt lat="42.792763" lon="-7.835555">
        <ele>547.6</ele>
        <time>1970-01-01T00:05:22.000Z</time>
      </trkpt>
      <trkpt lat="42.792772" lon="-7.83559">
        <ele>547.4</ele>
        <time>1970-01-01T00:05:23.000Z</time>
      </trkpt>
      <trkpt lat="42.792779" lon="-7.83563">
        <ele>547.3</ele>
        <time>1970-01-01T00:05:24.000Z</time>
      </trkpt>
      <trkpt lat="42.792787" lon="-7.83567">
        <ele>547.1</ele>
        <time>1970-01-01T00:05:25.000Z</time>
      </trkpt>
      <trkpt lat="42.792796" lon="-7.835716">
        <ele>546.9</ele>
        <time>1970-01-01T00:05:26.000Z</time>
      </trkpt>
      <trkpt lat="42.792809" lon="-7.835763">
        <ele>546.7</ele>
        <time>1970-01-01T00:05:27.000Z</time>
      </trkpt>
      <trkpt lat="42.79282" lon="-7.835815">
        <ele>546.4</ele>
        <time>1970-01-01T00:05:28.000Z</time>
      </trkpt>
      <trkpt lat="42.792832" lon="-7.835871">
        <ele>546.2</ele>
        <time>1970-01-01T00:05:29.000Z</time>
      </trkpt>
      <trkpt lat="42.792844" lon="-7.835925">
        <ele>545.9</ele>
        <time>1970-01-01T00:05:30.000Z</time>
      </trkpt>
      <trkpt lat="42.792853" lon="-7.835973">
        <ele>545.6</ele>
        <time>1970-01-01T00:05:31.000Z</time>
      </trkpt>
      <trkpt lat="42.792865" lon="-7.836017">
        <ele>545.3</ele>
        <time>1970-01-01T00:05:32.000Z</time>
      </trkpt>
      <trkpt lat="42.792878" lon="-7.836067">
        <ele>545</ele>
        <time>1970-01-01T00:05:33.000Z</time>
      </trkpt>
      <trkpt lat="42.792893" lon="-7.836116">
        <ele>544.7</ele>
        <time>1970-01-01T00:05:34.000Z</time>
      </trkpt>
      <trkpt lat="42.792905" lon="-7.83617">
        <ele>544.3</ele>
        <time>1970-01-01T00:05:35.000Z</time>
      </trkpt>
      <trkpt lat="42.792917" lon="-7.836225">
        <ele>544</ele>
        <time>1970-01-01T00:05:36.000Z</time>
      </trkpt>
      <trkpt lat="42.792929" lon="-7.836277">
        <ele>543.7</ele>
        <time>1970-01-01T00:05:37.000Z</time>
      </trkpt>
      <trkpt lat="42.79294" lon="-7.836321">
        <ele>543.5</ele>
        <time>1970-01-01T00:05:38.000Z</time>
      </trkpt>
      <trkpt lat="42.79295" lon="-7.836369">
        <ele>543.3</ele>
        <time>1970-01-01T00:05:39.000Z</time>
      </trkpt>
      <trkpt lat="42.792948" lon="-7.836424">
        <ele>543.1</ele>
        <time>1970-01-01T00:05:40.000Z</time>
      </trkpt>
      <trkpt lat="42.792933" lon="-7.836472">
        <ele>542.9</ele>
        <time>1970-01-01T00:05:41.000Z</time>
      </trkpt>
      <trkpt lat="42.792908" lon="-7.836502">
        <ele>542.8</ele>
        <time>1970-01-01T00:05:42.000Z</time>
      </trkpt>
      <trkpt lat="42.792874" lon="-7.836522">
        <ele>542.1</ele>
        <time>1970-01-01T00:05:43.000Z</time>
      </trkpt>
      <trkpt lat="42.792839" lon="-7.836531">
        <ele>541.9</ele>
        <time>1970-01-01T00:05:44.000Z</time>
      </trkpt>
      <trkpt lat="42.792798" lon="-7.836543">
        <ele>541.6</ele>
        <time>1970-01-01T00:05:45.000Z</time>
      </trkpt>
      <trkpt lat="42.792755" lon="-7.836553">
        <ele>541.6</ele>
        <time>1970-01-01T00:05:46.000Z</time>
      </trkpt>
      <trkpt lat="42.792709" lon="-7.836559">
        <ele>541.6</ele>
        <time>1970-01-01T00:05:47.000Z</time>
      </trkpt>
      <trkpt lat="42.792666" lon="-7.836561">
        <ele>541.6</ele>
        <time>1970-01-01T00:05:48.000Z</time>
      </trkpt>
      <trkpt lat="42.792631" lon="-7.836562">
        <ele>541.5</ele>
        <time>1970-01-01T00:05:49.000Z</time>
      </trkpt>
      <trkpt lat="42.792593" lon="-7.836566">
        <ele>541.4</ele>
        <time>1970-01-01T00:05:50.000Z</time>
      </trkpt>
      <trkpt lat="42.792559" lon="-7.836568">
        <ele>541.3</ele>
        <time>1970-01-01T00:05:51.000Z</time>
      </trkpt>
      <trkpt lat="42.792517" lon="-7.836569">
        <ele>541.2</ele>
        <time>1970-01-01T00:05:52.000Z</time>
      </trkpt>
      <trkpt lat="42.792478" lon="-7.836569">
        <ele>541.1</ele>
        <time>1970-01-01T00:05:53.000Z</time>
      </trkpt>
      <trkpt lat="42.792435" lon="-7.836571">
        <ele>541</ele>
        <time>1970-01-01T00:05:54.000Z</time>
      </trkpt>
      <trkpt lat="42.792393" lon="-7.836575">
        <ele>541</ele>
        <time>1970-01-01T00:05:55.000Z</time>
      </trkpt>
      <trkpt lat="42.792352" lon="-7.836581">
        <ele>540.9</ele>
        <time>1970-01-01T00:05:56.000Z</time>
      </trkpt>
      <trkpt lat="42.792311" lon="-7.836586">
        <ele>540.8</ele>
        <time>1970-01-01T00:05:57.000Z</time>
      </trkpt>
      <trkpt lat="42.792268" lon="-7.83659">
        <ele>540.8</ele>
        <time>1970-01-01T00:05:58.000Z</time>
      </trkpt>
      <trkpt lat="42.792229" lon="-7.836596">
        <ele>540.7</ele>
        <time>1970-01-01T00:05:59.000Z</time>
      </trkpt>
      <trkpt lat="42.792194" lon="-7.836598">
        <ele>540.6</ele>
        <time>1970-01-01T00:06:00.000Z</time>
      </trkpt>
      <trkpt lat="42.792155" lon="-7.836594">
        <ele>540.6</ele>
        <time>1970-01-01T00:06:01.000Z</time>
      </trkpt>
      <trkpt lat="42.792121" lon="-7.836591">
        <ele>540.5</ele>
        <time>1970-01-01T00:06:02.000Z</time>
      </trkpt>
      <trkpt lat="42.792085" lon="-7.836604">
        <ele>540.5</ele>
        <time>1970-01-01T00:06:03.000Z</time>
      </trkpt>
      <trkpt lat="42.792058" lon="-7.836605">
        <ele>540.5</ele>
        <time>1970-01-01T00:06:04.000Z</time>
      </trkpt>
      <trkpt lat="42.792033" lon="-7.836607">
        <ele>540.5</ele>
        <time>1970-01-01T00:06:05.000Z</time>
      </trkpt>
      <trkpt lat="42.79201" lon="-7.83661">
        <ele>540.5</ele>
        <time>1970-01-01T00:06:06.000Z</time>
      </trkpt>
      <trkpt lat="42.791987" lon="-7.836613">
        <ele>540.5</ele>
        <time>1970-01-01T00:06:07.000Z</time>
      </trkpt>
      <trkpt lat="42.791965" lon="-7.836611">
        <ele>540.4</ele>
        <time>1970-01-01T00:06:08.000Z</time>
      </trkpt>
      <trkpt lat="42.791946" lon="-7.836616">
        <ele>540.4</ele>
        <time>1970-01-01T00:06:09.000Z</time>
      </trkpt>
      <trkpt lat="42.791938" lon="-7.836644">
        <ele>539.5</ele>
        <time>1970-01-01T00:06:10.000Z</time>
      </trkpt>
      <trkpt lat="42.791935" lon="-7.836684">
        <ele>539</ele>
        <time>1970-01-01T00:06:11.000Z</time>
      </trkpt>
      <trkpt lat="42.791938" lon="-7.836736">
        <ele>538.4</ele>
        <time>1970-01-01T00:06:12.000Z</time>
      </trkpt>
      <trkpt lat="42.791944" lon="-7.836787">
        <ele>537.8</ele>
        <time>1970-01-01T00:06:13.000Z</time>
      </trkpt>
      <trkpt lat="42.791953" lon="-7.836844">
        <ele>537.2</ele>
        <time>1970-01-01T00:06:14.000Z</time>
      </trkpt>
      <trkpt lat="42.791967" lon="-7.836908">
        <ele>536.4</ele>
        <time>1970-01-01T00:06:15.000Z</time>
      </trkpt>
      <trkpt lat="42.791988" lon="-7.836975">
        <ele>536</ele>
        <time>1970-01-01T00:06:16.000Z</time>
      </trkpt>
      <trkpt lat="42.792009" lon="-7.837046">
        <ele>535.7</ele>
        <time>1970-01-01T00:06:17.000Z</time>
      </trkpt>
      <trkpt lat="42.792028" lon="-7.837122">
        <ele>535.3</ele>
        <time>1970-01-01T00:06:18.000Z</time>
      </trkpt>
      <trkpt lat="42.792041" lon="-7.837203">
        <ele>535</ele>
        <time>1970-01-01T00:06:19.000Z</time>
      </trkpt>
      <trkpt lat="42.792045" lon="-7.837282">
        <ele>534.7</ele>
        <time>1970-01-01T00:06:20.000Z</time>
      </trkpt>
      <trkpt lat="42.792036" lon="-7.837362">
        <ele>534.6</ele>
        <time>1970-01-01T00:06:21.000Z</time>
      </trkpt>
      <trkpt lat="42.792014" lon="-7.837437">
        <ele>534.6</ele>
        <time>1970-01-01T00:06:22.000Z</time>
      </trkpt>
      <trkpt lat="42.79198" lon="-7.837507">
        <ele>534.4</ele>
        <time>1970-01-01T00:06:23.000Z</time>
      </trkpt>
      <trkpt lat="42.791941" lon="-7.837567">
        <ele>534.2</ele>
        <time>1970-01-01T00:06:24.000Z</time>
      </trkpt>
      <trkpt lat="42.791896" lon="-7.837622">
        <ele>533.9</ele>
        <time>1970-01-01T00:06:25.000Z</time>
      </trkpt>
      <trkpt lat="42.791849" lon="-7.837667">
        <ele>533.6</ele>
        <time>1970-01-01T00:06:26.000Z</time>
      </trkpt>
      <trkpt lat="42.7918" lon="-7.837705">
        <ele>533.3</ele>
        <time>1970-01-01T00:06:27.000Z</time>
      </trkpt>
      <trkpt lat="42.791746" lon="-7.837738">
        <ele>532.9</ele>
        <time>1970-01-01T00:06:28.000Z</time>
      </trkpt>
      <trkpt lat="42.791693" lon="-7.837769">
        <ele>532.5</ele>
        <time>1970-01-01T00:06:29.000Z</time>
      </trkpt>
      <trkpt lat="42.791638" lon="-7.837801">
        <ele>532.1</ele>
        <time>1970-01-01T00:06:30.000Z</time>
      </trkpt>
      <trkpt lat="42.791586" lon="-7.837832">
        <ele>531.6</ele>
        <time>1970-01-01T00:06:31.000Z</time>
      </trkpt>
      <trkpt lat="42.791534" lon="-7.837863">
        <ele>531.2</ele>
        <time>1970-01-01T00:06:32.000Z</time>
      </trkpt>
      <trkpt lat="42.791481" lon="-7.837895">
        <ele>530.9</ele>
        <time>1970-01-01T00:06:33.000Z</time>
      </trkpt>
      <trkpt lat="42.791426" lon="-7.837927">
        <ele>530.6</ele>
        <time>1970-01-01T00:06:34.000Z</time>
      </trkpt>
      <trkpt lat="42.791371" lon="-7.837959">
        <ele>530.3</ele>
        <time>1970-01-01T00:06:35.000Z</time>
      </trkpt>
      <trkpt lat="42.791319" lon="-7.837991">
        <ele>529.8</ele>
        <time>1970-01-01T00:06:36.000Z</time>
      </trkpt>
      <trkpt lat="42.791268" lon="-7.838022">
        <ele>529.3</ele>
        <time>1970-01-01T00:06:37.000Z</time>
      </trkpt>
      <trkpt lat="42.791216" lon="-7.838053">
        <ele>528.9</ele>
        <time>1970-01-01T00:06:38.000Z</time>
      </trkpt>
      <trkpt lat="42.791168" lon="-7.838081">
        <ele>528.5</ele>
        <time>1970-01-01T00:06:39.000Z</time>
      </trkpt>
      <trkpt lat="42.79112" lon="-7.838104">
        <ele>528.1</ele>
        <time>1970-01-01T00:06:40.000Z</time>
      </trkpt>
      <trkpt lat="42.791071" lon="-7.838124">
        <ele>527.8</ele>
        <time>1970-01-01T00:06:41.000Z</time>
      </trkpt>
      <trkpt lat="42.79102" lon="-7.838144">
        <ele>527.4</ele>
        <time>1970-01-01T00:06:42.000Z</time>
      </trkpt>
      <trkpt lat="42.790969" lon="-7.838165">
        <ele>527</ele>
        <time>1970-01-01T00:06:43.000Z</time>
      </trkpt>
      <trkpt lat="42.790918" lon="-7.838183">
        <ele>526.7</ele>
        <time>1970-01-01T00:06:44.000Z</time>
      </trkpt>
      <trkpt lat="42.790869" lon="-7.838202">
        <ele>526.3</ele>
        <time>1970-01-01T00:06:45.000Z</time>
      </trkpt>
      <trkpt lat="42.790818" lon="-7.838224">
        <ele>526</ele>
        <time>1970-01-01T00:06:46.000Z</time>
      </trkpt>
      <trkpt lat="42.790766" lon="-7.838249">
        <ele>525.6</ele>
        <time>1970-01-01T00:06:47.000Z</time>
      </trkpt>
      <trkpt lat="42.790714" lon="-7.838272">
        <ele>525.2</ele>
        <time>1970-01-01T00:06:48.000Z</time>
      </trkpt>
      <trkpt lat="42.790662" lon="-7.838291">
        <ele>524.8</ele>
        <time>1970-01-01T00:06:49.000Z</time>
      </trkpt>
      <trkpt lat="42.790614" lon="-7.838314">
        <ele>524.5</ele>
        <time>1970-01-01T00:06:50.000Z</time>
      </trkpt>
      <trkpt lat="42.790566" lon="-7.838337">
        <ele>524</ele>
        <time>1970-01-01T00:06:51.000Z</time>
      </trkpt>
      <trkpt lat="42.79052" lon="-7.838362">
        <ele>523.5</ele>
        <time>1970-01-01T00:06:52.000Z</time>
      </trkpt>
      <trkpt lat="42.790477" lon="-7.838385">
        <ele>523.1</ele>
        <time>1970-01-01T00:06:53.000Z</time>
      </trkpt>
      <trkpt lat="42.790434" lon="-7.838413">
        <ele>522.6</ele>
        <time>1970-01-01T00:06:54.000Z</time>
      </trkpt>
      <trkpt lat="42.790396" lon="-7.838438">
        <ele>522.2</ele>
        <time>1970-01-01T00:06:55.000Z</time>
      </trkpt>
      <trkpt lat="42.790368" lon="-7.838465">
        <ele>520.9</ele>
        <time>1970-01-01T00:06:56.000Z</time>
      </trkpt>
      <trkpt lat="42.790358" lon="-7.838504">
        <ele>520.6</ele>
        <time>1970-01-01T00:06:57.000Z</time>
      </trkpt>
      <trkpt lat="42.790364" lon="-7.838549">
        <ele>520.3</ele>
        <time>1970-01-01T00:06:58.000Z</time>
      </trkpt>
      <trkpt lat="42.790377" lon="-7.838598">
        <ele>520</ele>
        <time>1970-01-01T00:06:59.000Z</time>
      </trkpt>
      <trkpt lat="42.790392" lon="-7.838653">
        <ele>519.6</ele>
        <time>1970-01-01T00:07:00.000Z</time>
      </trkpt>
      <trkpt lat="42.790406" lon="-7.838712">
        <ele>519.2</ele>
        <time>1970-01-01T00:07:01.000Z</time>
      </trkpt>
      <trkpt lat="42.790422" lon="-7.838775">
        <ele>518.6</ele>
        <time>1970-01-01T00:07:02.000Z</time>
      </trkpt>
      <trkpt lat="42.790438" lon="-7.838841">
        <ele>518.1</ele>
        <time>1970-01-01T00:07:03.000Z</time>
      </trkpt>
      <trkpt lat="42.790454" lon="-7.838908">
        <ele>517.7</ele>
        <time>1970-01-01T00:07:04.000Z</time>
      </trkpt>
      <trkpt lat="42.790471" lon="-7.838977">
        <ele>517.2</ele>
        <time>1970-01-01T00:07:05.000Z</time>
      </trkpt>
      <trkpt lat="42.790488" lon="-7.839048">
        <ele>516.9</ele>
        <time>1970-01-01T00:07:06.000Z</time>
      </trkpt>
      <trkpt lat="42.790506" lon="-7.83912">
        <ele>516.7</ele>
        <time>1970-01-01T00:07:07.000Z</time>
      </trkpt>
      <trkpt lat="42.790524" lon="-7.839193">
        <ele>516.4</ele>
        <time>1970-01-01T00:07:08.000Z</time>
      </trkpt>
      <trkpt lat="42.790542" lon="-7.839268">
        <ele>516.1</ele>
        <time>1970-01-01T00:07:09.000Z</time>
      </trkpt>
      <trkpt lat="42.79056" lon="-7.839344">
        <ele>515.8</ele>
        <time>1970-01-01T00:07:10.000Z</time>
      </trkpt>
      <trkpt lat="42.790578" lon="-7.83942">
        <ele>515.4</ele>
        <time>1970-01-01T00:07:11.000Z</time>
      </trkpt>
      <trkpt lat="42.790596" lon="-7.83949">
        <ele>515</ele>
        <time>1970-01-01T00:07:12.000Z</time>
      </trkpt>
      <trkpt lat="42.790613" lon="-7.839553">
        <ele>514.6</ele>
        <time>1970-01-01T00:07:13.000Z</time>
      </trkpt>
      <trkpt lat="42.790626" lon="-7.83961">
        <ele>514.3</ele>
        <time>1970-01-01T00:07:14.000Z</time>
      </trkpt>
      <trkpt lat="42.790637" lon="-7.839659">
        <ele>514</ele>
        <time>1970-01-01T00:07:15.000Z</time>
      </trkpt>
      <trkpt lat="42.790643" lon="-7.839706">
        <ele>513.7</ele>
        <time>1970-01-01T00:07:16.000Z</time>
      </trkpt>
      <trkpt lat="42.790636" lon="-7.839752">
        <ele>513.5</ele>
        <time>1970-01-01T00:07:17.000Z</time>
      </trkpt>
      <trkpt lat="42.790617" lon="-7.839791">
        <ele>513.3</ele>
        <time>1970-01-01T00:07:18.000Z</time>
      </trkpt>
      <trkpt lat="42.790588" lon="-7.839821">
        <ele>513.2</ele>
        <time>1970-01-01T00:07:19.000Z</time>
      </trkpt>
      <trkpt lat="42.790556" lon="-7.839846">
        <ele>513.2</ele>
        <time>1970-01-01T00:07:20.000Z</time>
      </trkpt>
      <trkpt lat="42.79052" lon="-7.839863">
        <ele>513.1</ele>
        <time>1970-01-01T00:07:21.000Z</time>
      </trkpt>
      <trkpt lat="42.790478" lon="-7.839877">
        <ele>513.1</ele>
        <time>1970-01-01T00:07:22.000Z</time>
      </trkpt>
      <trkpt lat="42.790435" lon="-7.839889">
        <ele>513.1</ele>
        <time>1970-01-01T00:07:23.000Z</time>
      </trkpt>
      <trkpt lat="42.790391" lon="-7.839903">
        <ele>513</ele>
        <time>1970-01-01T00:07:24.000Z</time>
      </trkpt>
      <trkpt lat="42.790348" lon="-7.839919">
        <ele>513</ele>
        <time>1970-01-01T00:07:25.000Z</time>
      </trkpt>
      <trkpt lat="42.790305" lon="-7.839934">
        <ele>512.9</ele>
        <time>1970-01-01T00:07:26.000Z</time>
      </trkpt>
      <trkpt lat="42.79026" lon="-7.839949">
        <ele>512.9</ele>
        <time>1970-01-01T00:07:27.000Z</time>
      </trkpt>
      <trkpt lat="42.790217" lon="-7.839962">
        <ele>512.8</ele>
        <time>1970-01-01T00:07:28.000Z</time>
      </trkpt>
      <trkpt lat="42.790173" lon="-7.839975">
        <ele>512.8</ele>
        <time>1970-01-01T00:07:29.000Z</time>
      </trkpt>
      <trkpt lat="42.790133" lon="-7.839992">
        <ele>512.7</ele>
        <time>1970-01-01T00:07:30.000Z</time>
      </trkpt>
      <trkpt lat="42.790092" lon="-7.840011">
        <ele>512.7</ele>
        <time>1970-01-01T00:07:31.000Z</time>
      </trkpt>
      <trkpt lat="42.790054" lon="-7.840027">
        <ele>512.6</ele>
        <time>1970-01-01T00:07:32.000Z</time>
      </trkpt>
      <trkpt lat="42.790018" lon="-7.840043">
        <ele>512.6</ele>
        <time>1970-01-01T00:07:33.000Z</time>
      </trkpt>
      <trkpt lat="42.78998" lon="-7.840061">
        <ele>512.6</ele>
        <time>1970-01-01T00:07:34.000Z</time>
      </trkpt>
      <trkpt lat="42.789941" lon="-7.840079">
        <ele>512.5</ele>
        <time>1970-01-01T00:07:35.000Z</time>
      </trkpt>
      <trkpt lat="42.789902" lon="-7.840094">
        <ele>512.5</ele>
        <time>1970-01-01T00:07:36.000Z</time>
      </trkpt>
      <trkpt lat="42.789863" lon="-7.840109">
        <ele>512.4</ele>
        <time>1970-01-01T00:07:37.000Z</time>
      </trkpt>
      <trkpt lat="42.789823" lon="-7.840127">
        <ele>512.3</ele>
        <time>1970-01-01T00:07:38.000Z</time>
      </trkpt>
      <trkpt lat="42.789783" lon="-7.840143">
        <ele>512.2</ele>
        <time>1970-01-01T00:07:39.000Z</time>
      </trkpt>
      <trkpt lat="42.789741" lon="-7.840159">
        <ele>512.1</ele>
        <time>1970-01-01T00:07:40.000Z</time>
      </trkpt>
      <trkpt lat="42.789703" lon="-7.840175">
        <ele>512</ele>
        <time>1970-01-01T00:07:41.000Z</time>
      </trkpt>
      <trkpt lat="42.789669" lon="-7.840193">
        <ele>512</ele>
        <time>1970-01-01T00:07:42.000Z</time>
      </trkpt>
      <trkpt lat="42.789638" lon="-7.840211">
        <ele>511.9</ele>
        <time>1970-01-01T00:07:43.000Z</time>
      </trkpt>
      <trkpt lat="42.78961" lon="-7.84023">
        <ele>511.8</ele>
        <time>1970-01-01T00:07:44.000Z</time>
      </trkpt>
      <trkpt lat="42.78959" lon="-7.840256">
        <ele>511.7</ele>
        <time>1970-01-01T00:07:45.000Z</time>
      </trkpt>
      <trkpt lat="42.789573" lon="-7.840287">
        <ele>511.3</ele>
        <time>1970-01-01T00:07:46.000Z</time>
      </trkpt>
      <trkpt lat="42.789557" lon="-7.840327">
        <ele>511.1</ele>
        <time>1970-01-01T00:07:47.000Z</time>
      </trkpt>
      <trkpt lat="42.789543" lon="-7.840375">
        <ele>510.9</ele>
        <time>1970-01-01T00:07:48.000Z</time>
      </trkpt>
      <trkpt lat="42.789529" lon="-7.840431">
        <ele>510.7</ele>
        <time>1970-01-01T00:07:49.000Z</time>
      </trkpt>
      <trkpt lat="42.78951" lon="-7.8405">
        <ele>510.4</ele>
        <time>1970-01-01T00:07:50.000Z</time>
      </trkpt>
      <trkpt lat="42.789491" lon="-7.840575">
        <ele>510.1</ele>
        <time>1970-01-01T00:07:51.000Z</time>
      </trkpt>
      <trkpt lat="42.78947" lon="-7.840658">
        <ele>509.8</ele>
        <time>1970-01-01T00:07:52.000Z</time>
      </trkpt>
      <trkpt lat="42.789445" lon="-7.840742">
        <ele>509.4</ele>
        <time>1970-01-01T00:07:53.000Z</time>
      </trkpt>
      <trkpt lat="42.789413" lon="-7.840828">
        <ele>509</ele>
        <time>1970-01-01T00:07:54.000Z</time>
      </trkpt>
      <trkpt lat="42.789368" lon="-7.840906">
        <ele>508.3</ele>
        <time>1970-01-01T00:07:55.000Z</time>
      </trkpt>
      <trkpt lat="42.789314" lon="-7.840979">
        <ele>508.1</ele>
        <time>1970-01-01T00:07:56.000Z</time>
      </trkpt>
      <trkpt lat="42.789257" lon="-7.841052">
        <ele>507.8</ele>
        <time>1970-01-01T00:07:57.000Z</time>
      </trkpt>
      <trkpt lat="42.789195" lon="-7.841124">
        <ele>507.6</ele>
        <time>1970-01-01T00:07:58.000Z</time>
      </trkpt>
      <trkpt lat="42.789131" lon="-7.841196">
        <ele>507.2</ele>
        <time>1970-01-01T00:07:59.000Z</time>
      </trkpt>
      <trkpt lat="42.789068" lon="-7.841269">
        <ele>506.8</ele>
        <time>1970-01-01T00:08:00.000Z</time>
      </trkpt>
      <trkpt lat="42.789004" lon="-7.841343">
        <ele>506.4</ele>
        <time>1970-01-01T00:08:01.000Z</time>
      </trkpt>
      <trkpt lat="42.788941" lon="-7.841416">
        <ele>506.1</ele>
        <time>1970-01-01T00:08:02.000Z</time>
      </trkpt>
      <trkpt lat="42.788876" lon="-7.841489">
        <ele>505.8</ele>
        <time>1970-01-01T00:08:03.000Z</time>
      </trkpt>
      <trkpt lat="42.788814" lon="-7.841562">
        <ele>505.3</ele>
        <time>1970-01-01T00:08:04.000Z</time>
      </trkpt>
      <trkpt lat="42.788751" lon="-7.841634">
        <ele>505</ele>
        <time>1970-01-01T00:08:05.000Z</time>
      </trkpt>
      <trkpt lat="42.788689" lon="-7.841704">
        <ele>504.7</ele>
        <time>1970-01-01T00:08:06.000Z</time>
      </trkpt>
      <trkpt lat="42.788627" lon="-7.841775">
        <ele>504.5</ele>
        <time>1970-01-01T00:08:07.000Z</time>
      </trkpt>
      <trkpt lat="42.788566" lon="-7.841846">
        <ele>504.2</ele>
        <time>1970-01-01T00:08:08.000Z</time>
      </trkpt>
      <trkpt lat="42.788504" lon="-7.841916">
        <ele>503.9</ele>
        <time>1970-01-01T00:08:09.000Z</time>
      </trkpt>
      <trkpt lat="42.788445" lon="-7.841984">
        <ele>503.7</ele>
        <time>1970-01-01T00:08:10.000Z</time>
      </trkpt>
      <trkpt lat="42.788388" lon="-7.842047">
        <ele>503.5</ele>
        <time>1970-01-01T00:08:11.000Z</time>
      </trkpt>
      <trkpt lat="42.788334" lon="-7.842108">
        <ele>503.3</ele>
        <time>1970-01-01T00:08:12.000Z</time>
      </trkpt>
      <trkpt lat="42.788283" lon="-7.842164">
        <ele>503.2</ele>
        <time>1970-01-01T00:08:13.000Z</time>
      </trkpt>
      <trkpt lat="42.788234" lon="-7.842219">
        <ele>503</ele>
        <time>1970-01-01T00:08:14.000Z</time>
      </trkpt>
      <trkpt lat="42.788187" lon="-7.842273">
        <ele>502.9</ele>
        <time>1970-01-01T00:08:15.000Z</time>
      </trkpt>
      <trkpt lat="42.788143" lon="-7.842328">
        <ele>502.8</ele>
        <time>1970-01-01T00:08:16.000Z</time>
      </trkpt>
      <trkpt lat="42.7881" lon="-7.842379">
        <ele>502.6</ele>
        <time>1970-01-01T00:08:17.000Z</time>
      </trkpt>
      <trkpt lat="42.788064" lon="-7.842423">
        <ele>502.5</ele>
        <time>1970-01-01T00:08:18.000Z</time>
      </trkpt>
      <trkpt lat="42.788035" lon="-7.842455">
        <ele>502.4</ele>
        <time>1970-01-01T00:08:19.000Z</time>
      </trkpt>
      <trkpt lat="42.788011" lon="-7.842482">
        <ele>502.3</ele>
        <time>1970-01-01T00:08:20.000Z</time>
      </trkpt>
      <trkpt lat="42.787989" lon="-7.842507">
        <ele>502.2</ele>
        <time>1970-01-01T00:08:21.000Z</time>
      </trkpt>
      <trkpt lat="42.787967" lon="-7.842529">
        <ele>502.1</ele>
        <time>1970-01-01T00:08:22.000Z</time>
      </trkpt>
      <trkpt lat="42.787947" lon="-7.842552">
        <ele>502</ele>
        <time>1970-01-01T00:08:23.000Z</time>
      </trkpt>
      <trkpt lat="42.787925" lon="-7.842576">
        <ele>501.9</ele>
        <time>1970-01-01T00:08:24.000Z</time>
      </trkpt>
      <trkpt lat="42.787902" lon="-7.842601">
        <ele>501.8</ele>
        <time>1970-01-01T00:08:25.000Z</time>
      </trkpt>
      <trkpt lat="42.787879" lon="-7.842625">
        <ele>501.6</ele>
        <time>1970-01-01T00:08:26.000Z</time>
      </trkpt>
      <trkpt lat="42.787854" lon="-7.842651">
        <ele>501.5</ele>
        <time>1970-01-01T00:08:27.000Z</time>
      </trkpt>
      <trkpt lat="42.787829" lon="-7.84268">
        <ele>501.3</ele>
        <time>1970-01-01T00:08:28.000Z</time>
      </trkpt>
      <trkpt lat="42.787805" lon="-7.84271">
        <ele>501.1</ele>
        <time>1970-01-01T00:08:29.000Z</time>
      </trkpt>
      <trkpt lat="42.787779" lon="-7.842742">
        <ele>500.9</ele>
        <time>1970-01-01T00:08:30.000Z</time>
      </trkpt>
      <trkpt lat="42.787751" lon="-7.842778">
        <ele>500.6</ele>
        <time>1970-01-01T00:08:31.000Z</time>
      </trkpt>
      <trkpt lat="42.787722" lon="-7.842819">
        <ele>500.3</ele>
        <time>1970-01-01T00:08:32.000Z</time>
      </trkpt>
      <trkpt lat="42.787693" lon="-7.842861">
        <ele>500.1</ele>
        <time>1970-01-01T00:08:33.000Z</time>
      </trkpt>
      <trkpt lat="42.787663" lon="-7.842908">
        <ele>500</ele>
        <time>1970-01-01T00:08:34.000Z</time>
      </trkpt>
      <trkpt lat="42.787635" lon="-7.842959">
        <ele>499.9</ele>
        <time>1970-01-01T00:08:35.000Z</time>
      </trkpt>
      <trkpt lat="42.787607" lon="-7.843016">
        <ele>499.7</ele>
        <time>1970-01-01T00:08:36.000Z</time>
      </trkpt>
      <trkpt lat="42.78758" lon="-7.843077">
        <ele>499.7</ele>
        <time>1970-01-01T00:08:37.000Z</time>
      </trkpt>
      <trkpt lat="42.787554" lon="-7.843139">
        <ele>499.7</ele>
        <time>1970-01-01T00:08:38.000Z</time>
      </trkpt>
      <trkpt lat="42.787528" lon="-7.843202">
        <ele>499.7</ele>
        <time>1970-01-01T00:08:39.000Z</time>
      </trkpt>
      <trkpt lat="42.787503" lon="-7.843263">
        <ele>499.7</ele>
        <time>1970-01-01T00:08:40.000Z</time>
      </trkpt>
      <trkpt lat="42.787478" lon="-7.843323">
        <ele>499.7</ele>
        <time>1970-01-01T00:08:41.000Z</time>
      </trkpt>
      <trkpt lat="42.787456" lon="-7.843382">
        <ele>499.7</ele>
        <time>1970-01-01T00:08:42.000Z</time>
      </trkpt>
      <trkpt lat="42.787434" lon="-7.843441">
        <ele>499.7</ele>
        <time>1970-01-01T00:08:43.000Z</time>
      </trkpt>
      <trkpt lat="42.787412" lon="-7.843501">
        <ele>499.7</ele>
        <time>1970-01-01T00:08:44.000Z</time>
      </trkpt>
      <trkpt lat="42.78739" lon="-7.843564">
        <ele>499.6</ele>
        <time>1970-01-01T00:08:45.000Z</time>
      </trkpt>
      <trkpt lat="42.787371" lon="-7.843631">
        <ele>499.6</ele>
        <time>1970-01-01T00:08:46.000Z</time>
      </trkpt>
      <trkpt lat="42.787354" lon="-7.843699">
        <ele>499.5</ele>
        <time>1970-01-01T00:08:47.000Z</time>
      </trkpt>
      <trkpt lat="42.78734" lon="-7.843761">
        <ele>499.4</ele>
        <time>1970-01-01T00:08:48.000Z</time>
      </trkpt>
      <trkpt lat="42.787328" lon="-7.843811">
        <ele>499.3</ele>
        <time>1970-01-01T00:08:49.000Z</time>
      </trkpt>
      <trkpt lat="42.787317" lon="-7.843854">
        <ele>499.2</ele>
        <time>1970-01-01T00:08:50.000Z</time>
      </trkpt>
      <trkpt lat="42.787308" lon="-7.843889">
        <ele>499.1</ele>
        <time>1970-01-01T00:08:51.000Z</time>
      </trkpt>
      <trkpt lat="42.787297" lon="-7.843923">
        <ele>499</ele>
        <time>1970-01-01T00:08:52.000Z</time>
      </trkpt>
      <trkpt lat="42.787285" lon="-7.843957">
        <ele>498.8</ele>
        <time>1970-01-01T00:08:53.000Z</time>
      </trkpt>
      <trkpt lat="42.787272" lon="-7.843994">
        <ele>498.7</ele>
        <time>1970-01-01T00:08:54.000Z</time>
      </trkpt>
      <trkpt lat="42.78726" lon="-7.844035">
        <ele>498.6</ele>
        <time>1970-01-01T00:08:55.000Z</time>
      </trkpt>
      <trkpt lat="42.787248" lon="-7.844079">
        <ele>498.3</ele>
        <time>1970-01-01T00:08:56.000Z</time>
      </trkpt>
      <trkpt lat="42.787237" lon="-7.844125">
        <ele>498</ele>
        <time>1970-01-01T00:08:57.000Z</time>
      </trkpt>
      <trkpt lat="42.78723" lon="-7.844168">
        <ele>497.8</ele>
        <time>1970-01-01T00:08:58.000Z</time>
      </trkpt>
      <trkpt lat="42.787225" lon="-7.84421">
        <ele>497.7</ele>
        <time>1970-01-01T00:08:59.000Z</time>
      </trkpt>
      <trkpt lat="42.787225" lon="-7.844248">
        <ele>497.5</ele>
        <time>1970-01-01T00:09:00.000Z</time>
      </trkpt>
      <trkpt lat="42.787226" lon="-7.84428">
        <ele>497.4</ele>
        <time>1970-01-01T00:09:01.000Z</time>
      </trkpt>
      <trkpt lat="42.787222" lon="-7.844319">
        <ele>497.2</ele>
        <time>1970-01-01T00:09:02.000Z</time>
      </trkpt>
      <trkpt lat="42.787209" lon="-7.844363">
        <ele>497</ele>
        <time>1970-01-01T00:09:03.000Z</time>
      </trkpt>
      <trkpt lat="42.787191" lon="-7.844408">
        <ele>497</ele>
        <time>1970-01-01T00:09:04.000Z</time>
      </trkpt>
      <trkpt lat="42.787167" lon="-7.844451">
        <ele>497.1</ele>
        <time>1970-01-01T00:09:05.000Z</time>
      </trkpt>
      <trkpt lat="42.787141" lon="-7.844488">
        <ele>497.2</ele>
        <time>1970-01-01T00:09:06.000Z</time>
      </trkpt>
      <trkpt lat="42.787114" lon="-7.844518">
        <ele>498</ele>
        <time>1970-01-01T00:09:07.000Z</time>
      </trkpt>
      <trkpt lat="42.78709" lon="-7.844545">
        <ele>498.8</ele>
        <time>1970-01-01T00:09:08.000Z</time>
      </trkpt>
      <trkpt lat="42.78707" lon="-7.844572">
        <ele>499.5</ele>
        <time>1970-01-01T00:09:09.000Z</time>
      </trkpt>
      <trkpt lat="42.787054" lon="-7.844598">
        <ele>500.2</ele>
        <time>1970-01-01T00:09:10.000Z</time>
      </trkpt>
      <trkpt lat="42.78704" lon="-7.844625">
        <ele>500.7</ele>
        <time>1970-01-01T00:09:11.000Z</time>
      </trkpt>
      <trkpt lat="42.787023" lon="-7.844647">
        <ele>501.2</ele>
        <time>1970-01-01T00:09:12.000Z</time>
      </trkpt>
      <trkpt lat="42.787002" lon="-7.844669">
        <ele>501.8</ele>
        <time>1970-01-01T00:09:13.000Z</time>
      </trkpt>
      <trkpt lat="42.786983" lon="-7.844687">
        <ele>502.1</ele>
        <time>1970-01-01T00:09:14.000Z</time>
      </trkpt>
      <trkpt lat="42.786959" lon="-7.844711">
        <ele>502.4</ele>
        <time>1970-01-01T00:09:15.000Z</time>
      </trkpt>
      <trkpt lat="42.786932" lon="-7.844738">
        <ele>502.6</ele>
        <time>1970-01-01T00:09:16.000Z</time>
      </trkpt>
      <trkpt lat="42.78691" lon="-7.844761">
        <ele>502.7</ele>
        <time>1970-01-01T00:09:17.000Z</time>
      </trkpt>
      <trkpt lat="42.786889" lon="-7.844784">
        <ele>502.8</ele>
        <time>1970-01-01T00:09:18.000Z</time>
      </trkpt>
      <trkpt lat="42.786869" lon="-7.844807">
        <ele>502.8</ele>
        <time>1970-01-01T00:09:19.000Z</time>
      </trkpt>
      <trkpt lat="42.786849" lon="-7.844827">
        <ele>502.7</ele>
        <time>1970-01-01T00:09:20.000Z</time>
      </trkpt>
      <trkpt lat="42.78683" lon="-7.844844">
        <ele>502.7</ele>
        <time>1970-01-01T00:09:21.000Z</time>
      </trkpt>
      <trkpt lat="42.786807" lon="-7.84486">
        <ele>502.5</ele>
        <time>1970-01-01T00:09:22.000Z</time>
      </trkpt>
      <trkpt lat="42.786786" lon="-7.844874">
        <ele>502.4</ele>
        <time>1970-01-01T00:09:23.000Z</time>
      </trkpt>
      <trkpt lat="42.786765" lon="-7.844888">
        <ele>502.2</ele>
        <time>1970-01-01T00:09:24.000Z</time>
      </trkpt>
      <trkpt lat="42.786742" lon="-7.844891">
        <ele>502</ele>
        <time>1970-01-01T00:09:25.000Z</time>
      </trkpt>
      <trkpt lat="42.786716" lon="-7.844882">
        <ele>501.7</ele>
        <time>1970-01-01T00:09:26.000Z</time>
      </trkpt>
      <trkpt lat="42.786698" lon="-7.844862">
        <ele>501.9</ele>
        <time>1970-01-01T00:09:27.000Z</time>
      </trkpt>
      <trkpt lat="42.786685" lon="-7.84483">
        <ele>501.6</ele>
        <time>1970-01-01T00:09:28.000Z</time>
      </trkpt>
      <trkpt lat="42.786676" lon="-7.844788">
        <ele>501.6</ele>
        <time>1970-01-01T00:09:29.000Z</time>
      </trkpt>
      <trkpt lat="42.786665" lon="-7.844758">
        <ele>501.6</ele>
        <time>1970-01-01T00:09:30.000Z</time>
      </trkpt>
      <trkpt lat="42.786653" lon="-7.844728">
        <ele>501.3</ele>
        <time>1970-01-01T00:09:31.000Z</time>
      </trkpt>
      <trkpt lat="42.786635" lon="-7.844709">
        <ele>501.3</ele>
        <time>1970-01-01T00:09:32.000Z</time>
      </trkpt>
      <trkpt lat="42.786606" lon="-7.844693">
        <ele>501.5</ele>
        <time>1970-01-01T00:09:33.000Z</time>
      </trkpt>
      <trkpt lat="42.786567" lon="-7.844676">
        <ele>501.7</ele>
        <time>1970-01-01T00:09:34.000Z</time>
      </trkpt>
      <trkpt lat="42.786525" lon="-7.844664">
        <ele>501.6</ele>
        <time>1970-01-01T00:09:35.000Z</time>
      </trkpt>
      <trkpt lat="42.786486" lon="-7.844651">
        <ele>502.1</ele>
        <time>1970-01-01T00:09:36.000Z</time>
      </trkpt>
      <trkpt lat="42.786448" lon="-7.844632">
        <ele>502.3</ele>
        <time>1970-01-01T00:09:37.000Z</time>
      </trkpt>
      <trkpt lat="42.786409" lon="-7.844613">
        <ele>502.2</ele>
        <time>1970-01-01T00:09:38.000Z</time>
      </trkpt>
      <trkpt lat="42.786369" lon="-7.844596">
        <ele>502.4</ele>
        <time>1970-01-01T00:09:39.000Z</time>
      </trkpt>
      <trkpt lat="42.786325" lon="-7.844571">
        <ele>502.5</ele>
        <time>1970-01-01T00:09:40.000Z</time>
      </trkpt>
      <trkpt lat="42.786285" lon="-7.844544">
        <ele>502.7</ele>
        <time>1970-01-01T00:09:41.000Z</time>
      </trkpt>
      <trkpt lat="42.78623" lon="-7.844523">
        <ele>502.8</ele>
        <time>1970-01-01T00:09:42.000Z</time>
      </trkpt>
      <trkpt lat="42.786184" lon="-7.844496">
        <ele>503</ele>
        <time>1970-01-01T00:09:43.000Z</time>
      </trkpt>
      <trkpt lat="42.786142" lon="-7.84446">
        <ele>502.9</ele>
        <time>1970-01-01T00:09:44.000Z</time>
      </trkpt>
      <trkpt lat="42.786104" lon="-7.844423">
        <ele>503.1</ele>
        <time>1970-01-01T00:09:45.000Z</time>
      </trkpt>
      <trkpt lat="42.786066" lon="-7.844378">
        <ele>503</ele>
        <time>1970-01-01T00:09:46.000Z</time>
      </trkpt>
      <trkpt lat="42.786034" lon="-7.844355">
        <ele>502.9</ele>
        <time>1970-01-01T00:09:47.000Z</time>
      </trkpt>
      <trkpt lat="42.786004" lon="-7.844321">
        <ele>502.8</ele>
        <time>1970-01-01T00:09:48.000Z</time>
      </trkpt>
      <trkpt lat="42.785976" lon="-7.844281">
        <ele>502.7</ele>
        <time>1970-01-01T00:09:49.000Z</time>
      </trkpt>
      <trkpt lat="42.785948" lon="-7.844247">
        <ele>502.9</ele>
        <time>1970-01-01T00:09:50.000Z</time>
      </trkpt>
      <trkpt lat="42.785923" lon="-7.844219">
        <ele>502.4</ele>
        <time>1970-01-01T00:09:51.000Z</time>
      </trkpt>
      <trkpt lat="42.785902" lon="-7.844196">
        <ele>502.7</ele>
        <time>1970-01-01T00:09:52.000Z</time>
      </trkpt>
      <trkpt lat="42.78588" lon="-7.844171">
        <ele>502.7</ele>
        <time>1970-01-01T00:09:53.000Z</time>
      </trkpt>
      <trkpt lat="42.785855" lon="-7.844133">
        <ele>502.7</ele>
        <time>1970-01-01T00:09:54.000Z</time>
      </trkpt>
      <trkpt lat="42.785843" lon="-7.8441">
        <ele>502.5</ele>
        <time>1970-01-01T00:09:55.000Z</time>
      </trkpt>
      <trkpt lat="42.785843" lon="-7.844076">
        <ele>502.5</ele>
        <time>1970-01-01T00:09:56.000Z</time>
      </trkpt>
      <trkpt lat="42.785843" lon="-7.844044">
        <ele>502.2</ele>
        <time>1970-01-01T00:09:57.000Z</time>
      </trkpt>
      <trkpt lat="42.785843" lon="-7.844">
        <ele>501.9</ele>
        <time>1970-01-01T00:09:58.000Z</time>
      </trkpt>
      <trkpt lat="42.785856" lon="-7.843958">
        <ele>501.7</ele>
        <time>1970-01-01T00:09:59.000Z</time>
      </trkpt>
      <trkpt lat="42.785864" lon="-7.843914">
        <ele>501.2</ele>
        <time>1970-01-01T00:10:00.000Z</time>
      </trkpt>
      <trkpt lat="42.785875" lon="-7.84387">
        <ele>501</ele>
        <time>1970-01-01T00:10:01.000Z</time>
      </trkpt>
      <trkpt lat="42.785903" lon="-7.843851">
        <ele>500.6</ele>
        <time>1970-01-01T00:10:02.000Z</time>
      </trkpt>
      <trkpt lat="42.785925" lon="-7.843835">
        <ele>500.4</ele>
        <time>1970-01-01T00:10:03.000Z</time>
      </trkpt>
      <trkpt lat="42.785943" lon="-7.843822">
        <ele>500.4</ele>
        <time>1970-01-01T00:10:04.000Z</time>
      </trkpt>
      <trkpt lat="42.78596" lon="-7.843813">
        <ele>500.2</ele>
        <time>1970-01-01T00:10:05.000Z</time>
      </trkpt>
      <trkpt lat="42.785994" lon="-7.843794">
        <ele>499.9</ele>
        <time>1970-01-01T00:10:06.000Z</time>
      </trkpt>
      <trkpt lat="42.786032" lon="-7.843766">
        <ele>499.6</ele>
        <time>1970-01-01T00:10:07.000Z</time>
      </trkpt>
      <trkpt lat="42.786053" lon="-7.843742">
        <ele>499.4</ele>
        <time>1970-01-01T00:10:08.000Z</time>
      </trkpt>
      <trkpt lat="42.786074" lon="-7.843723">
        <ele>499.3</ele>
        <time>1970-01-01T00:10:09.000Z</time>
      </trkpt>
      <trkpt lat="42.786096" lon="-7.843704">
        <ele>499.2</ele>
        <time>1970-01-01T00:10:10.000Z</time>
      </trkpt>
      <trkpt lat="42.786118" lon="-7.843677">
        <ele>499</ele>
        <time>1970-01-01T00:10:11.000Z</time>
      </trkpt>
      <trkpt lat="42.786139" lon="-7.843651">
        <ele>499</ele>
        <time>1970-01-01T00:10:12.000Z</time>
      </trkpt>
      <trkpt lat="42.786163" lon="-7.84363">
        <ele>498.8</ele>
        <time>1970-01-01T00:10:13.000Z</time>
      </trkpt>
      <trkpt lat="42.786188" lon="-7.843616">
        <ele>498.8</ele>
        <time>1970-01-01T00:10:14.000Z</time>
      </trkpt>
      <trkpt lat="42.78621" lon="-7.843596">
        <ele>498.7</ele>
        <time>1970-01-01T00:10:15.000Z</time>
      </trkpt>
      <trkpt lat="42.786233" lon="-7.84358">
        <ele>498.7</ele>
        <time>1970-01-01T00:10:16.000Z</time>
      </trkpt>
      <trkpt lat="42.786252" lon="-7.843562">
        <ele>498.7</ele>
        <time>1970-01-01T00:10:17.000Z</time>
      </trkpt>
      <trkpt lat="42.786272" lon="-7.843548">
        <ele>498.8</ele>
        <time>1970-01-01T00:10:18.000Z</time>
      </trkpt>
      <trkpt lat="42.786291" lon="-7.843534">
        <ele>498.8</ele>
        <time>1970-01-01T00:10:19.000Z</time>
      </trkpt>
      <trkpt lat="42.786301" lon="-7.843524">
        <ele>498.8</ele>
        <time>1970-01-01T00:10:20.000Z</time>
      </trkpt>
      <trkpt lat="42.786313" lon="-7.843514">
        <ele>498.8</ele>
        <time>1970-01-01T00:10:21.000Z</time>
      </trkpt>
      <trkpt lat="42.786333" lon="-7.843511">
        <ele>498.9</ele>
        <time>1970-01-01T00:10:22.000Z</time>
      </trkpt>
      <trkpt lat="42.786344" lon="-7.843503">
        <ele>498.9</ele>
        <time>1970-01-01T00:10:23.000Z</time>
      </trkpt>
      <trkpt lat="42.786356" lon="-7.843495">
        <ele>498.9</ele>
        <time>1970-01-01T00:10:24.000Z</time>
      </trkpt>
      <trkpt lat="42.786368" lon="-7.84349">
        <ele>499</ele>
        <time>1970-01-01T00:10:25.000Z</time>
      </trkpt>
      <trkpt lat="42.786375" lon="-7.843481">
        <ele>498.9</ele>
        <time>1970-01-01T00:10:26.000Z</time>
      </trkpt>
      <trkpt lat="42.786388" lon="-7.843473">
        <ele>498.9</ele>
        <time>1970-01-01T00:10:27.000Z</time>
      </trkpt>
      <trkpt lat="42.786398" lon="-7.843466">
        <ele>499</ele>
        <time>1970-01-01T00:10:28.000Z</time>
      </trkpt>
      <trkpt lat="42.786405" lon="-7.843458">
        <ele>499</ele>
        <time>1970-01-01T00:10:29.000Z</time>
      </trkpt>
      <trkpt lat="42.786408" lon="-7.843447">
        <ele>499</ele>
        <time>1970-01-01T00:10:30.000Z</time>
      </trkpt>
      <trkpt lat="42.78641" lon="-7.843438">
        <ele>499</ele>
        <time>1970-01-01T00:10:31.000Z</time>
      </trkpt>
      <trkpt lat="42.786412" lon="-7.84343">
        <ele>499</ele>
        <time>1970-01-01T00:10:32.000Z</time>
      </trkpt>
      <trkpt lat="42.786413" lon="-7.843422">
        <ele>499</ele>
        <time>1970-01-01T00:10:33.000Z</time>
      </trkpt>
      <trkpt lat="42.786358" lon="-7.843227">
        <ele>499</ele>
        <time>1970-01-01T00:10:49.000Z</time>
      </trkpt>
      <trkpt lat="42.786354" lon="-7.843216">
        <ele>499</ele>
        <time>1970-01-01T00:10:50.000Z</time>
      </trkpt>
      <trkpt lat="42.786351" lon="-7.843202">
        <ele>499</ele>
        <time>1970-01-01T00:10:51.000Z</time>
      </trkpt>
      <trkpt lat="42.786349" lon="-7.843187">
        <ele>499</ele>
        <time>1970-01-01T00:10:52.000Z</time>
      </trkpt>
      <trkpt lat="42.786346" lon="-7.843173">
        <ele>499</ele>
        <time>1970-01-01T00:10:53.000Z</time>
      </trkpt>
      <trkpt lat="42.786343" lon="-7.843156">
        <ele>499</ele>
        <time>1970-01-01T00:10:54.000Z</time>
      </trkpt>
      <trkpt lat="42.786336" lon="-7.843141">
        <ele>499</ele>
        <time>1970-01-01T00:10:55.000Z</time>
      </trkpt>
      <trkpt lat="42.78633" lon="-7.843125">
        <ele>499</ele>
        <time>1970-01-01T00:10:56.000Z</time>
      </trkpt>
      <trkpt lat="42.786322" lon="-7.843105">
        <ele>499</ele>
        <time>1970-01-01T00:10:57.000Z</time>
      </trkpt>
      <trkpt lat="42.786313" lon="-7.843086">
        <ele>499</ele>
        <time>1970-01-01T00:10:58.000Z</time>
      </trkpt>
      <trkpt lat="42.786303" lon="-7.843063">
        <ele>499</ele>
        <time>1970-01-01T00:10:59.000Z</time>
      </trkpt>
      <trkpt lat="42.786292" lon="-7.843038">
        <ele>499</ele>
        <time>1970-01-01T00:11:00.000Z</time>
      </trkpt>
      <trkpt lat="42.78628" lon="-7.843013">
        <ele>499</ele>
        <time>1970-01-01T00:11:01.000Z</time>
      </trkpt>
      <trkpt lat="42.786268" lon="-7.842985">
        <ele>499</ele>
        <time>1970-01-01T00:11:02.000Z</time>
      </trkpt>
      <trkpt lat="42.786256" lon="-7.84296">
        <ele>499.1</ele>
        <time>1970-01-01T00:11:03.000Z</time>
      </trkpt>
      <trkpt lat="42.786243" lon="-7.842933">
        <ele>499.1</ele>
        <time>1970-01-01T00:11:04.000Z</time>
      </trkpt>
      <trkpt lat="42.78623" lon="-7.842904">
        <ele>499.1</ele>
        <time>1970-01-01T00:11:05.000Z</time>
      </trkpt>
      <trkpt lat="42.786216" lon="-7.842873">
        <ele>499.1</ele>
        <time>1970-01-01T00:11:06.000Z</time>
      </trkpt>
      <trkpt lat="42.786203" lon="-7.842841">
        <ele>499.1</ele>
        <time>1970-01-01T00:11:07.000Z</time>
      </trkpt>
      <trkpt lat="42.786192" lon="-7.842807">
        <ele>499.1</ele>
        <time>1970-01-01T00:11:08.000Z</time>
      </trkpt>
      <trkpt lat="42.786181" lon="-7.842774">
        <ele>499.1</ele>
        <time>1970-01-01T00:11:09.000Z</time>
      </trkpt>
      <trkpt lat="42.786172" lon="-7.842739">
        <ele>499.1</ele>
        <time>1970-01-01T00:11:10.000Z</time>
      </trkpt>
      <trkpt lat="42.786163" lon="-7.842703">
        <ele>499.2</ele>
        <time>1970-01-01T00:11:11.000Z</time>
      </trkpt>
      <trkpt lat="42.786153" lon="-7.84267">
        <ele>499.2</ele>
        <time>1970-01-01T00:11:12.000Z</time>
      </trkpt>
      <trkpt lat="42.786145" lon="-7.842638">
        <ele>499.2</ele>
        <time>1970-01-01T00:11:13.000Z</time>
      </trkpt>
      <trkpt lat="42.786138" lon="-7.842607">
        <ele>499.3</ele>
        <time>1970-01-01T00:11:14.000Z</time>
      </trkpt>
      <trkpt lat="42.78613" lon="-7.842575">
        <ele>499.3</ele>
        <time>1970-01-01T00:11:15.000Z</time>
      </trkpt>
      <trkpt lat="42.786124" lon="-7.842541">
        <ele>499.3</ele>
        <time>1970-01-01T00:11:16.000Z</time>
      </trkpt>
      <trkpt lat="42.786119" lon="-7.842507">
        <ele>499.4</ele>
        <time>1970-01-01T00:11:17.000Z</time>
      </trkpt>
      <trkpt lat="42.786113" lon="-7.842472">
        <ele>499.4</ele>
        <time>1970-01-01T00:11:18.000Z</time>
      </trkpt>
      <trkpt lat="42.786109" lon="-7.842437">
        <ele>499.5</ele>
        <time>1970-01-01T00:11:19.000Z</time>
      </trkpt>
      <trkpt lat="42.786108" lon="-7.842404">
        <ele>499.5</ele>
        <time>1970-01-01T00:11:20.000Z</time>
      </trkpt>
      <trkpt lat="42.786108" lon="-7.842372">
        <ele>499.5</ele>
        <time>1970-01-01T00:11:21.000Z</time>
      </trkpt>
      <trkpt lat="42.786112" lon="-7.842338">
        <ele>499.4</ele>
        <time>1970-01-01T00:11:22.000Z</time>
      </trkpt>
      <trkpt lat="42.786118" lon="-7.842303">
        <ele>499.4</ele>
        <time>1970-01-01T00:11:23.000Z</time>
      </trkpt>
      <trkpt lat="42.786125" lon="-7.842271">
        <ele>499.4</ele>
        <time>1970-01-01T00:11:24.000Z</time>
      </trkpt>
      <trkpt lat="42.78613" lon="-7.84224">
        <ele>499.4</ele>
        <time>1970-01-01T00:11:25.000Z</time>
      </trkpt>
      <trkpt lat="42.786127" lon="-7.842209">
        <ele>499.4</ele>
        <time>1970-01-01T00:11:26.000Z</time>
      </trkpt>
      <trkpt lat="42.78613" lon="-7.84217">
        <ele>499.3</ele>
        <time>1970-01-01T00:11:27.000Z</time>
      </trkpt>
      <trkpt lat="42.786138" lon="-7.84213">
        <ele>499.3</ele>
        <time>1970-01-01T00:11:28.000Z</time>
      </trkpt>
      <trkpt lat="42.786139" lon="-7.842091">
        <ele>499.3</ele>
        <time>1970-01-01T00:11:29.000Z</time>
      </trkpt>
      <trkpt lat="42.78614" lon="-7.84205">
        <ele>499.3</ele>
        <time>1970-01-01T00:11:30.000Z</time>
      </trkpt>
      <trkpt lat="42.78614" lon="-7.842008">
        <ele>499.2</ele>
        <time>1970-01-01T00:11:31.000Z</time>
      </trkpt>
      <trkpt lat="42.786135" lon="-7.841982">
        <ele>499.2</ele>
        <time>1970-01-01T00:11:32.000Z</time>
      </trkpt>
      <trkpt lat="42.786125" lon="-7.841956">
        <ele>499.2</ele>
        <time>1970-01-01T00:11:33.000Z</time>
      </trkpt>
      <trkpt lat="42.786112" lon="-7.841924">
        <ele>499.2</ele>
        <time>1970-01-01T00:11:34.000Z</time>
      </trkpt>
      <trkpt lat="42.7861" lon="-7.841899">
        <ele>499.2</ele>
        <time>1970-01-01T00:11:35.000Z</time>
      </trkpt>
      <trkpt lat="42.786082" lon="-7.841885">
        <ele>499.2</ele>
        <time>1970-01-01T00:11:36.000Z</time>
      </trkpt>
      <trkpt lat="42.786068" lon="-7.841869">
        <ele>499.3</ele>
        <time>1970-01-01T00:11:37.000Z</time>
      </trkpt>
      <trkpt lat="42.786056" lon="-7.841871">
        <ele>499.3</ele>
        <time>1970-01-01T00:11:38.000Z</time>
      </trkpt>
      <trkpt lat="42.786043" lon="-7.841874">
        <ele>499.4</ele>
        <time>1970-01-01T00:11:39.000Z</time>
      </trkpt>
      <trkpt lat="42.786022" lon="-7.841885">
        <ele>499.4</ele>
        <time>1970-01-01T00:11:40.000Z</time>
      </trkpt>
      <trkpt lat="42.786008" lon="-7.841889">
        <ele>499.5</ele>
        <time>1970-01-01T00:11:41.000Z</time>
      </trkpt>
      <trkpt lat="42.785991" lon="-7.841892">
        <ele>499.5</ele>
        <time>1970-01-01T00:11:42.000Z</time>
      </trkpt>
      <trkpt lat="42.785972" lon="-7.841891">
        <ele>499.6</ele>
        <time>1970-01-01T00:11:43.000Z</time>
      </trkpt>
      <trkpt lat="42.785952" lon="-7.841896">
        <ele>499.7</ele>
        <time>1970-01-01T00:11:44.000Z</time>
      </trkpt>
      <trkpt lat="42.785935" lon="-7.841888">
        <ele>499.7</ele>
        <time>1970-01-01T00:11:45.000Z</time>
      </trkpt>
      <trkpt lat="42.785923" lon="-7.841875">
        <ele>499.7</ele>
        <time>1970-01-01T00:11:46.000Z</time>
      </trkpt>
      <trkpt lat="42.785908" lon="-7.841879">
        <ele>499.8</ele>
        <time>1970-01-01T00:11:47.000Z</time>
      </trkpt>
      <trkpt lat="42.785893" lon="-7.841881">
        <ele>499.8</ele>
        <time>1970-01-01T00:11:48.000Z</time>
      </trkpt>
      <trkpt lat="42.785877" lon="-7.84188">
        <ele>499.9</ele>
        <time>1970-01-01T00:11:49.000Z</time>
      </trkpt>
      <trkpt lat="42.785864" lon="-7.841878">
        <ele>499.9</ele>
        <time>1970-01-01T00:11:50.000Z</time>
      </trkpt>
      <trkpt lat="42.785848" lon="-7.841883">
        <ele>500</ele>
        <time>1970-01-01T00:11:51.000Z</time>
      </trkpt>
      <trkpt lat="42.785829" lon="-7.841887">
        <ele>500</ele>
        <time>1970-01-01T00:11:52.000Z</time>
      </trkpt>
      <trkpt lat="42.785809" lon="-7.841889">
        <ele>500.1</ele>
        <time>1970-01-01T00:11:53.000Z</time>
      </trkpt>
      <trkpt lat="42.785789" lon="-7.841891">
        <ele>500.1</ele>
        <time>1970-01-01T00:11:54.000Z</time>
      </trkpt>
      <trkpt lat="42.785771" lon="-7.841895">
        <ele>500.1</ele>
        <time>1970-01-01T00:11:55.000Z</time>
      </trkpt>
      <trkpt lat="42.785751" lon="-7.841899">
        <ele>500.2</ele>
        <time>1970-01-01T00:11:56.000Z</time>
      </trkpt>
      <trkpt lat="42.785726" lon="-7.841904">
        <ele>500.3</ele>
        <time>1970-01-01T00:11:57.000Z</time>
      </trkpt>
      <trkpt lat="42.785711" lon="-7.84191">
        <ele>500.2</ele>
        <time>1970-01-01T00:11:58.000Z</time>
      </trkpt>
      <trkpt lat="42.785695" lon="-7.841914">
        <ele>500.3</ele>
        <time>1970-01-01T00:11:59.000Z</time>
      </trkpt>
      <trkpt lat="42.785685" lon="-7.841925">
        <ele>500.3</ele>
        <time>1970-01-01T00:12:00.000Z</time>
      </trkpt>
      <trkpt lat="42.785675" lon="-7.841932">
        <ele>500.3</ele>
        <time>1970-01-01T00:12:01.000Z</time>
      </trkpt>
      <trkpt lat="42.785665" lon="-7.841939">
        <ele>500.4</ele>
        <time>1970-01-01T00:12:02.000Z</time>
      </trkpt>
      <trkpt lat="42.785655" lon="-7.841946">
        <ele>500.4</ele>
        <time>1970-01-01T00:12:03.000Z</time>
      </trkpt>
      <trkpt lat="42.785645" lon="-7.841953">
        <ele>500.3</ele>
        <time>1970-01-01T00:12:04.000Z</time>
      </trkpt>
      <trkpt lat="42.785632" lon="-7.841959">
        <ele>500.4</ele>
        <time>1970-01-01T00:12:05.000Z</time>
      </trkpt>
      <trkpt lat="42.78562" lon="-7.841965">
        <ele>500.4</ele>
        <time>1970-01-01T00:12:06.000Z</time>
      </trkpt>
      <trkpt lat="42.785608" lon="-7.841973">
        <ele>500.4</ele>
        <time>1970-01-01T00:12:07.000Z</time>
      </trkpt>
      <trkpt lat="42.785597" lon="-7.841979">
        <ele>500.5</ele>
        <time>1970-01-01T00:12:08.000Z</time>
      </trkpt>
      <trkpt lat="42.785587" lon="-7.841987">
        <ele>500.4</ele>
        <time>1970-01-01T00:12:09.000Z</time>
      </trkpt>
      <trkpt lat="42.785576" lon="-7.841994">
        <ele>500.4</ele>
        <time>1970-01-01T00:12:10.000Z</time>
      </trkpt>
      <trkpt lat="42.785561" lon="-7.842001">
        <ele>500.5</ele>
        <time>1970-01-01T00:12:11.000Z</time>
      </trkpt>
      <trkpt lat="42.785548" lon="-7.842007">
        <ele>500.5</ele>
        <time>1970-01-01T00:12:12.000Z</time>
      </trkpt>
      <trkpt lat="42.785536" lon="-7.842012">
        <ele>500.6</ele>
        <time>1970-01-01T00:12:13.000Z</time>
      </trkpt>
      <trkpt lat="42.785523" lon="-7.842019">
        <ele>500.5</ele>
        <time>1970-01-01T00:12:14.000Z</time>
      </trkpt>
      <trkpt lat="42.785512" lon="-7.842025">
        <ele>500.5</ele>
        <time>1970-01-01T00:12:15.000Z</time>
      </trkpt>
      <trkpt lat="42.785506" lon="-7.842035">
        <ele>500.6</ele>
        <time>1970-01-01T00:12:16.000Z</time>
      </trkpt>
      <trkpt lat="42.785498" lon="-7.842046">
        <ele>500.5</ele>
        <time>1970-01-01T00:12:17.000Z</time>
      </trkpt>
      <trkpt lat="42.785489" lon="-7.842056">
        <ele>500.6</ele>
        <time>1970-01-01T00:12:18.000Z</time>
      </trkpt>
      <trkpt lat="42.78548" lon="-7.842064">
        <ele>500.6</ele>
        <time>1970-01-01T00:12:19.000Z</time>
      </trkpt>
      <trkpt lat="42.785475" lon="-7.842071">
        <ele>500.6</ele>
        <time>1970-01-01T00:12:20.000Z</time>
      </trkpt>
      <trkpt lat="42.785467" lon="-7.842077">
        <ele>500.6</ele>
        <time>1970-01-01T00:12:21.000Z</time>
      </trkpt>
      <trkpt lat="42.785457" lon="-7.842083">
        <ele>500.6</ele>
        <time>1970-01-01T00:12:22.000Z</time>
      </trkpt>
      <trkpt lat="42.785447" lon="-7.842089">
        <ele>500.6</ele>
        <time>1970-01-01T00:12:23.000Z</time>
      </trkpt>
      <trkpt lat="42.785436" lon="-7.842094">
        <ele>500.7</ele>
        <time>1970-01-01T00:12:24.000Z</time>
      </trkpt>
      <trkpt lat="42.785425" lon="-7.842096">
        <ele>500.7</ele>
        <time>1970-01-01T00:12:25.000Z</time>
      </trkpt>
      <trkpt lat="42.785413" lon="-7.842098">
        <ele>500.7</ele>
        <time>1970-01-01T00:12:26.000Z</time>
      </trkpt>
      <trkpt lat="42.7854" lon="-7.842098">
        <ele>500.7</ele>
        <time>1970-01-01T00:12:27.000Z</time>
      </trkpt>
      <trkpt lat="42.785386" lon="-7.8421">
        <ele>500.7</ele>
        <time>1970-01-01T00:12:28.000Z</time>
      </trkpt>
      <trkpt lat="42.785369" lon="-7.842098">
        <ele>500.7</ele>
        <time>1970-01-01T00:12:29.000Z</time>
      </trkpt>
      <trkpt lat="42.78536" lon="-7.8421">
        <ele>500.7</ele>
        <time>1970-01-01T00:12:30.000Z</time>
      </trkpt>
      <trkpt lat="42.785349" lon="-7.8421">
        <ele>500.7</ele>
        <time>1970-01-01T00:12:31.000Z</time>
      </trkpt>
      <trkpt lat="42.785334" lon="-7.842099">
        <ele>500.7</ele>
        <time>1970-01-01T00:12:32.000Z</time>
      </trkpt>
      <trkpt lat="42.785317" lon="-7.842102">
        <ele>500.7</ele>
        <time>1970-01-01T00:12:33.000Z</time>
      </trkpt>
      <trkpt lat="42.785294" lon="-7.842096">
        <ele>500.7</ele>
        <time>1970-01-01T00:12:34.000Z</time>
      </trkpt>
      <trkpt lat="42.785276" lon="-7.842086">
        <ele>500.6</ele>
        <time>1970-01-01T00:12:35.000Z</time>
      </trkpt>
      <trkpt lat="42.785258" lon="-7.842081">
        <ele>500.7</ele>
        <time>1970-01-01T00:12:36.000Z</time>
      </trkpt>
      <trkpt lat="42.785238" lon="-7.842076">
        <ele>500.6</ele>
        <time>1970-01-01T00:12:37.000Z</time>
      </trkpt>
      <trkpt lat="42.78522" lon="-7.842067">
        <ele>500.7</ele>
        <time>1970-01-01T00:12:38.000Z</time>
      </trkpt>
      <trkpt lat="42.785201" lon="-7.84205">
        <ele>500.7</ele>
        <time>1970-01-01T00:12:39.000Z</time>
      </trkpt>
      <trkpt lat="42.785187" lon="-7.842034">
        <ele>500.6</ele>
        <time>1970-01-01T00:12:40.000Z</time>
      </trkpt>
      <trkpt lat="42.785169" lon="-7.842022">
        <ele>500.6</ele>
        <time>1970-01-01T00:12:41.000Z</time>
      </trkpt>
      <trkpt lat="42.785147" lon="-7.842009">
        <ele>500.6</ele>
        <time>1970-01-01T00:12:42.000Z</time>
      </trkpt>
      <trkpt lat="42.785125" lon="-7.842003">
        <ele>500.6</ele>
        <time>1970-01-01T00:12:43.000Z</time>
      </trkpt>
      <trkpt lat="42.785103" lon="-7.841994">
        <ele>500.5</ele>
        <time>1970-01-01T00:12:44.000Z</time>
      </trkpt>
      <trkpt lat="42.785083" lon="-7.841984">
        <ele>500.6</ele>
        <time>1970-01-01T00:12:45.000Z</time>
      </trkpt>
      <trkpt lat="42.785066" lon="-7.841979">
        <ele>500.6</ele>
        <time>1970-01-01T00:12:46.000Z</time>
      </trkpt>
      <trkpt lat="42.785047" lon="-7.841972">
        <ele>500.6</ele>
        <time>1970-01-01T00:12:47.000Z</time>
      </trkpt>
      <trkpt lat="42.785026" lon="-7.841963">
        <ele>500.5</ele>
        <time>1970-01-01T00:12:48.000Z</time>
      </trkpt>
      <trkpt lat="42.785003" lon="-7.841955">
        <ele>500.5</ele>
        <time>1970-01-01T00:12:49.000Z</time>
      </trkpt>
      <trkpt lat="42.784982" lon="-7.841947">
        <ele>500.5</ele>
        <time>1970-01-01T00:12:50.000Z</time>
      </trkpt>
      <trkpt lat="42.784965" lon="-7.841936">
        <ele>500.5</ele>
        <time>1970-01-01T00:12:51.000Z</time>
      </trkpt>
      <trkpt lat="42.78495" lon="-7.841921">
        <ele>500.5</ele>
        <time>1970-01-01T00:12:52.000Z</time>
      </trkpt>
      <trkpt lat="42.78493" lon="-7.841919">
        <ele>500.4</ele>
        <time>1970-01-01T00:12:53.000Z</time>
      </trkpt>
      <trkpt lat="42.784905" lon="-7.841916">
        <ele>500.5</ele>
        <time>1970-01-01T00:12:54.000Z</time>
      </trkpt>
      <trkpt lat="42.784881" lon="-7.841911">
        <ele>500.5</ele>
        <time>1970-01-01T00:12:55.000Z</time>
      </trkpt>
      <trkpt lat="42.784855" lon="-7.841905">
        <ele>500.5</ele>
        <time>1970-01-01T00:12:56.000Z</time>
      </trkpt>
      <trkpt lat="42.78483" lon="-7.8419">
        <ele>500.5</ele>
        <time>1970-01-01T00:12:57.000Z</time>
      </trkpt>
      <trkpt lat="42.784808" lon="-7.841896">
        <ele>500.6</ele>
        <time>1970-01-01T00:12:58.000Z</time>
      </trkpt>
      <trkpt lat="42.784789" lon="-7.841894">
        <ele>500.6</ele>
        <time>1970-01-01T00:12:59.000Z</time>
      </trkpt>
      <trkpt lat="42.784774" lon="-7.841891">
        <ele>500.6</ele>
        <time>1970-01-01T00:13:00.000Z</time>
      </trkpt>
      <trkpt lat="42.784759" lon="-7.841887">
        <ele>500.6</ele>
        <time>1970-01-01T00:13:01.000Z</time>
      </trkpt>
      <trkpt lat="42.78475" lon="-7.841889">
        <ele>500.7</ele>
        <time>1970-01-01T00:13:02.000Z</time>
      </trkpt>
      <trkpt lat="42.784738" lon="-7.841879">
        <ele>500.7</ele>
        <time>1970-01-01T00:13:03.000Z</time>
      </trkpt>
      <trkpt lat="42.784731" lon="-7.84187">
        <ele>500.6</ele>
        <time>1970-01-01T00:13:04.000Z</time>
      </trkpt>
      <trkpt lat="42.784729" lon="-7.841873">
        <ele>500.6</ele>
        <time>1970-01-01T00:13:05.000Z</time>
      </trkpt>
      <trkpt lat="42.784725" lon="-7.841874">
        <ele>500.6</ele>
        <time>1970-01-01T00:13:06.000Z</time>
      </trkpt>
      <trkpt lat="42.784722" lon="-7.841871">
        <ele>500.6</ele>
        <time>1970-01-01T00:13:07.000Z</time>
      </trkpt>
      <trkpt lat="42.78472" lon="-7.84187">
        <ele>500.6</ele>
        <time>1970-01-01T00:13:08.000Z</time>
      </trkpt>
      <trkpt lat="42.784718" lon="-7.841869">
        <ele>500.6</ele>
        <time>1970-01-01T00:13:09.000Z</time>
      </trkpt>
      <trkpt lat="42.784717" lon="-7.841869">
        <ele>500.6</ele>
        <time>1970-01-01T00:13:10.000Z</time>
      </trkpt>
      <trkpt lat="42.784714" lon="-7.841868">
        <ele>500.6</ele>
        <time>1970-01-01T00:13:11.000Z</time>
      </trkpt>
      <trkpt lat="42.784533" lon="-7.841863">
        <ele>500.9</ele>
        <time>1970-01-01T00:13:42.000Z</time>
      </trkpt>
      <trkpt lat="42.784514" lon="-7.841859">
        <ele>500.9</ele>
        <time>1970-01-01T00:13:43.000Z</time>
      </trkpt>
      <trkpt lat="42.784496" lon="-7.841859">
        <ele>500.9</ele>
        <time>1970-01-01T00:13:44.000Z</time>
      </trkpt>
      <trkpt lat="42.784474" lon="-7.84186">
        <ele>500.9</ele>
        <time>1970-01-01T00:13:45.000Z</time>
      </trkpt>
      <trkpt lat="42.784457" lon="-7.841863">
        <ele>500.9</ele>
        <time>1970-01-01T00:13:46.000Z</time>
      </trkpt>
      <trkpt lat="42.78444" lon="-7.841859">
        <ele>500.9</ele>
        <time>1970-01-01T00:13:47.000Z</time>
      </trkpt>
      <trkpt lat="42.784426" lon="-7.841856">
        <ele>500.9</ele>
        <time>1970-01-01T00:13:48.000Z</time>
      </trkpt>
      <trkpt lat="42.784407" lon="-7.841857">
        <ele>500.9</ele>
        <time>1970-01-01T00:13:49.000Z</time>
      </trkpt>
      <trkpt lat="42.784382" lon="-7.841855">
        <ele>500.9</ele>
        <time>1970-01-01T00:13:50.000Z</time>
      </trkpt>
      <trkpt lat="42.784358" lon="-7.841853">
        <ele>500.9</ele>
        <time>1970-01-01T00:13:51.000Z</time>
      </trkpt>
      <trkpt lat="42.784336" lon="-7.841848">
        <ele>501</ele>
        <time>1970-01-01T00:13:52.000Z</time>
      </trkpt>
      <trkpt lat="42.784321" lon="-7.841848">
        <ele>501</ele>
        <time>1970-01-01T00:13:53.000Z</time>
      </trkpt>
      <trkpt lat="42.784299" lon="-7.841844">
        <ele>501</ele>
        <time>1970-01-01T00:13:54.000Z</time>
      </trkpt>
      <trkpt lat="42.784269" lon="-7.841826">
        <ele>501</ele>
        <time>1970-01-01T00:13:55.000Z</time>
      </trkpt>
      <trkpt lat="42.78425" lon="-7.841816">
        <ele>501</ele>
        <time>1970-01-01T00:13:56.000Z</time>
      </trkpt>
      <trkpt lat="42.784224" lon="-7.841803">
        <ele>501</ele>
        <time>1970-01-01T00:13:57.000Z</time>
      </trkpt>
      <trkpt lat="42.784202" lon="-7.841794">
        <ele>501.1</ele>
        <time>1970-01-01T00:13:58.000Z</time>
      </trkpt>
      <trkpt lat="42.78418" lon="-7.841792">
        <ele>501</ele>
        <time>1970-01-01T00:13:59.000Z</time>
      </trkpt>
      <trkpt lat="42.784157" lon="-7.84179">
        <ele>501.1</ele>
        <time>1970-01-01T00:14:00.000Z</time>
      </trkpt>
      <trkpt lat="42.784136" lon="-7.841778">
        <ele>501.1</ele>
        <time>1970-01-01T00:14:01.000Z</time>
      </trkpt>
      <trkpt lat="42.784116" lon="-7.841765">
        <ele>501.2</ele>
        <time>1970-01-01T00:14:02.000Z</time>
      </trkpt>
      <trkpt lat="42.784098" lon="-7.841758">
        <ele>501.2</ele>
        <time>1970-01-01T00:14:03.000Z</time>
      </trkpt>
      <trkpt lat="42.78408" lon="-7.841746">
        <ele>501.1</ele>
        <time>1970-01-01T00:14:04.000Z</time>
      </trkpt>
      <trkpt lat="42.784061" lon="-7.841738">
        <ele>501.1</ele>
        <time>1970-01-01T00:14:05.000Z</time>
      </trkpt>
      <trkpt lat="42.784045" lon="-7.841726">
        <ele>501.1</ele>
        <time>1970-01-01T00:14:06.000Z</time>
      </trkpt>
      <trkpt lat="42.784033" lon="-7.841715">
        <ele>501.1</ele>
        <time>1970-01-01T00:14:07.000Z</time>
      </trkpt>
      <trkpt lat="42.784023" lon="-7.84171">
        <ele>501.2</ele>
        <time>1970-01-01T00:14:08.000Z</time>
      </trkpt>
      <trkpt lat="42.784012" lon="-7.841707">
        <ele>501.2</ele>
        <time>1970-01-01T00:14:09.000Z</time>
      </trkpt>
      <trkpt lat="42.783998" lon="-7.8417">
        <ele>501</ele>
        <time>1970-01-01T00:14:10.000Z</time>
      </trkpt>
      <trkpt lat="42.783984" lon="-7.841692">
        <ele>501</ele>
        <time>1970-01-01T00:14:11.000Z</time>
      </trkpt>
      <trkpt lat="42.783973" lon="-7.841682">
        <ele>501</ele>
        <time>1970-01-01T00:14:12.000Z</time>
      </trkpt>
      <trkpt lat="42.783961" lon="-7.841673">
        <ele>501</ele>
        <time>1970-01-01T00:14:13.000Z</time>
      </trkpt>
      <trkpt lat="42.783946" lon="-7.841668">
        <ele>501</ele>
        <time>1970-01-01T00:14:14.000Z</time>
      </trkpt>
      <trkpt lat="42.783931" lon="-7.841662">
        <ele>500.8</ele>
        <time>1970-01-01T00:14:15.000Z</time>
      </trkpt>
      <trkpt lat="42.783917" lon="-7.841657">
        <ele>500.8</ele>
        <time>1970-01-01T00:14:16.000Z</time>
      </trkpt>
      <trkpt lat="42.783903" lon="-7.841647">
        <ele>500.9</ele>
        <time>1970-01-01T00:14:17.000Z</time>
      </trkpt>
      <trkpt lat="42.783892" lon="-7.841633">
        <ele>500.9</ele>
        <time>1970-01-01T00:14:18.000Z</time>
      </trkpt>
      <trkpt lat="42.783879" lon="-7.84162">
        <ele>500.6</ele>
        <time>1970-01-01T00:14:19.000Z</time>
      </trkpt>
      <trkpt lat="42.783866" lon="-7.841614">
        <ele>500.7</ele>
        <time>1970-01-01T00:14:20.000Z</time>
      </trkpt>
      <trkpt lat="42.783851" lon="-7.841607">
        <ele>500.7</ele>
        <time>1970-01-01T00:14:21.000Z</time>
      </trkpt>
      <trkpt lat="42.783835" lon="-7.841601">
        <ele>500.7</ele>
        <time>1970-01-01T00:14:22.000Z</time>
      </trkpt>
      <trkpt lat="42.783827" lon="-7.841588">
        <ele>500.7</ele>
        <time>1970-01-01T00:14:23.000Z</time>
      </trkpt>
      <trkpt lat="42.783821" lon="-7.841569">
        <ele>500.5</ele>
        <time>1970-01-01T00:14:24.000Z</time>
      </trkpt>
      <trkpt lat="42.783811" lon="-7.841549">
        <ele>500.6</ele>
        <time>1970-01-01T00:14:25.000Z</time>
      </trkpt>
      <trkpt lat="42.7838" lon="-7.841527">
        <ele>500.3</ele>
        <time>1970-01-01T00:14:26.000Z</time>
      </trkpt>
      <trkpt lat="42.783789" lon="-7.841503">
        <ele>500.3</ele>
        <time>1970-01-01T00:14:27.000Z</time>
      </trkpt>
      <trkpt lat="42.783775" lon="-7.841477">
        <ele>500.2</ele>
        <time>1970-01-01T00:14:28.000Z</time>
      </trkpt>
      <trkpt lat="42.78376" lon="-7.841457">
        <ele>500.2</ele>
        <time>1970-01-01T00:14:29.000Z</time>
      </trkpt>
      <trkpt lat="42.783744" lon="-7.841422">
        <ele>500</ele>
        <time>1970-01-01T00:14:30.000Z</time>
      </trkpt>
      <trkpt lat="42.783726" lon="-7.841395">
        <ele>499.9</ele>
        <time>1970-01-01T00:14:31.000Z</time>
      </trkpt>
      <trkpt lat="42.783711" lon="-7.841373">
        <ele>499.9</ele>
        <time>1970-01-01T00:14:32.000Z</time>
      </trkpt>
      <trkpt lat="42.783692" lon="-7.841338">
        <ele>499.8</ele>
        <time>1970-01-01T00:14:33.000Z</time>
      </trkpt>
      <trkpt lat="42.78367" lon="-7.84131">
        <ele>499.7</ele>
        <time>1970-01-01T00:14:34.000Z</time>
      </trkpt>
      <trkpt lat="42.783645" lon="-7.841284">
        <ele>499.7</ele>
        <time>1970-01-01T00:14:35.000Z</time>
      </trkpt>
      <trkpt lat="42.783625" lon="-7.841279">
        <ele>499.7</ele>
        <time>1970-01-01T00:14:36.000Z</time>
      </trkpt>
      <trkpt lat="42.783599" lon="-7.841276">
        <ele>499.6</ele>
        <time>1970-01-01T00:14:37.000Z</time>
      </trkpt>
      <trkpt lat="42.783572" lon="-7.841258">
        <ele>499.7</ele>
        <time>1970-01-01T00:14:38.000Z</time>
      </trkpt>
      <trkpt lat="42.78355" lon="-7.841235">
        <ele>499.7</ele>
        <time>1970-01-01T00:14:39.000Z</time>
      </trkpt>
      <trkpt lat="42.783531" lon="-7.841219">
        <ele>499.6</ele>
        <time>1970-01-01T00:14:40.000Z</time>
      </trkpt>
      <trkpt lat="42.78351" lon="-7.841206">
        <ele>499.6</ele>
        <time>1970-01-01T00:14:41.000Z</time>
      </trkpt>
      <trkpt lat="42.783488" lon="-7.841192">
        <ele>499.6</ele>
        <time>1970-01-01T00:14:42.000Z</time>
      </trkpt>
      <trkpt lat="42.783467" lon="-7.841183">
        <ele>499.6</ele>
        <time>1970-01-01T00:14:43.000Z</time>
      </trkpt>
      <trkpt lat="42.783453" lon="-7.841176">
        <ele>499.6</ele>
        <time>1970-01-01T00:14:44.000Z</time>
      </trkpt>
      <trkpt lat="42.783442" lon="-7.841164">
        <ele>499.6</ele>
        <time>1970-01-01T00:14:45.000Z</time>
      </trkpt>
      <trkpt lat="42.783437" lon="-7.841158">
        <ele>499.6</ele>
        <time>1970-01-01T00:14:46.000Z</time>
      </trkpt>
      <trkpt lat="42.783429" lon="-7.84115">
        <ele>499.6</ele>
        <time>1970-01-01T00:14:47.000Z</time>
      </trkpt>
      <trkpt lat="42.783424" lon="-7.841146">
        <ele>499.5</ele>
        <time>1970-01-01T00:14:48.000Z</time>
      </trkpt>
      <trkpt lat="42.783422" lon="-7.841143">
        <ele>499.5</ele>
        <time>1970-01-01T00:14:49.000Z</time>
      </trkpt>
      <trkpt lat="42.78342" lon="-7.841141">
        <ele>499.5</ele>
        <time>1970-01-01T00:14:50.000Z</time>
      </trkpt>
      <trkpt lat="42.783418" lon="-7.841138">
        <ele>499.5</ele>
        <time>1970-01-01T00:14:51.000Z</time>
      </trkpt>
      <trkpt lat="42.783415" lon="-7.841136">
        <ele>499.5</ele>
        <time>1970-01-01T00:14:52.000Z</time>
      </trkpt>
      <trkpt lat="42.783412" lon="-7.841133">
        <ele>499.5</ele>
        <time>1970-01-01T00:14:53.000Z</time>
      </trkpt>
      <trkpt lat="42.783279" lon="-7.84107">
        <ele>499.4</ele>
        <time>1970-01-01T00:15:05.000Z</time>
      </trkpt>
      <trkpt lat="42.783263" lon="-7.841065">
        <ele>499.4</ele>
        <time>1970-01-01T00:15:06.000Z</time>
      </trkpt>
      <trkpt lat="42.783249" lon="-7.84107">
        <ele>499.4</ele>
        <time>1970-01-01T00:15:07.000Z</time>
      </trkpt>
      <trkpt lat="42.783241" lon="-7.841064">
        <ele>499.4</ele>
        <time>1970-01-01T00:15:08.000Z</time>
      </trkpt>
      <trkpt lat="42.783236" lon="-7.841058">
        <ele>499.4</ele>
        <time>1970-01-01T00:15:09.000Z</time>
      </trkpt>
      <trkpt lat="42.783232" lon="-7.841057">
        <ele>499.4</ele>
        <time>1970-01-01T00:15:10.000Z</time>
      </trkpt>
      <trkpt lat="42.783227" lon="-7.841057">
        <ele>499.4</ele>
        <time>1970-01-01T00:15:11.000Z</time>
      </trkpt>
      <trkpt lat="42.783218" lon="-7.841051">
        <ele>499.3</ele>
        <time>1970-01-01T00:15:12.000Z</time>
      </trkpt>
      <trkpt lat="42.783212" lon="-7.841048">
        <ele>499.3</ele>
        <time>1970-01-01T00:15:13.000Z</time>
      </trkpt>
      <trkpt lat="42.783206" lon="-7.841045">
        <ele>499.3</ele>
        <time>1970-01-01T00:15:14.000Z</time>
      </trkpt>
      <trkpt lat="42.7832" lon="-7.841043">
        <ele>499.3</ele>
        <time>1970-01-01T00:15:15.000Z</time>
      </trkpt>
      <trkpt lat="42.783192" lon="-7.84104">
        <ele>499.3</ele>
        <time>1970-01-01T00:15:16.000Z</time>
      </trkpt>
      <trkpt lat="42.783182" lon="-7.841039">
        <ele>499.3</ele>
        <time>1970-01-01T00:15:17.000Z</time>
      </trkpt>
      <trkpt lat="42.783175" lon="-7.841041">
        <ele>499.3</ele>
        <time>1970-01-01T00:15:18.000Z</time>
      </trkpt>
      <trkpt lat="42.783164" lon="-7.841039">
        <ele>499.3</ele>
        <time>1970-01-01T00:15:19.000Z</time>
      </trkpt>
      <trkpt lat="42.783156" lon="-7.841042">
        <ele>499.3</ele>
        <time>1970-01-01T00:15:20.000Z</time>
      </trkpt>
      <trkpt lat="42.783147" lon="-7.841042">
        <ele>499.3</ele>
        <time>1970-01-01T00:15:21.000Z</time>
      </trkpt>
      <trkpt lat="42.783139" lon="-7.841042">
        <ele>499.3</ele>
        <time>1970-01-01T00:15:22.000Z</time>
      </trkpt>
      <trkpt lat="42.783127" lon="-7.841049">
        <ele>499.3</ele>
        <time>1970-01-01T00:15:23.000Z</time>
      </trkpt>
      <trkpt lat="42.783118" lon="-7.84105">
        <ele>499.3</ele>
        <time>1970-01-01T00:15:24.000Z</time>
      </trkpt>
      <trkpt lat="42.783106" lon="-7.841048">
        <ele>499.3</ele>
        <time>1970-01-01T00:15:25.000Z</time>
      </trkpt>
      <trkpt lat="42.783099" lon="-7.841046">
        <ele>499.3</ele>
        <time>1970-01-01T00:15:26.000Z</time>
      </trkpt>
      <trkpt lat="42.783091" lon="-7.841044">
        <ele>499.3</ele>
        <time>1970-01-01T00:15:27.000Z</time>
      </trkpt>
      <trkpt lat="42.783083" lon="-7.841044">
        <ele>499.3</ele>
        <time>1970-01-01T00:15:28.000Z</time>
      </trkpt>
      <trkpt lat="42.783069" lon="-7.841046">
        <ele>499.3</ele>
        <time>1970-01-01T00:15:29.000Z</time>
      </trkpt>
      <trkpt lat="42.783054" lon="-7.841046">
        <ele>499.3</ele>
        <time>1970-01-01T00:15:30.000Z</time>
      </trkpt>
      <trkpt lat="42.78304" lon="-7.841045">
        <ele>499.3</ele>
        <time>1970-01-01T00:15:31.000Z</time>
      </trkpt>
      <trkpt lat="42.782967" lon="-7.841028">
        <ele>499.3</ele>
        <time>1970-01-01T00:15:36.000Z</time>
      </trkpt>
      <trkpt lat="42.782952" lon="-7.841026">
        <ele>499.3</ele>
        <time>1970-01-01T00:15:37.000Z</time>
      </trkpt>
      <trkpt lat="42.78294" lon="-7.84103">
        <ele>499.3</ele>
        <time>1970-01-01T00:15:38.000Z</time>
      </trkpt>
      <trkpt lat="42.782926" lon="-7.841031">
        <ele>499.3</ele>
        <time>1970-01-01T00:15:39.000Z</time>
      </trkpt>
      <trkpt lat="42.782918" lon="-7.84102">
        <ele>499.3</ele>
        <time>1970-01-01T00:15:40.000Z</time>
      </trkpt>
      <trkpt lat="42.78291" lon="-7.841016">
        <ele>499.3</ele>
        <time>1970-01-01T00:15:41.000Z</time>
      </trkpt>
      <trkpt lat="42.782901" lon="-7.841015">
        <ele>499.3</ele>
        <time>1970-01-01T00:15:42.000Z</time>
      </trkpt>
      <trkpt lat="42.782896" lon="-7.841012">
        <ele>499.3</ele>
        <time>1970-01-01T00:15:43.000Z</time>
      </trkpt>
      <trkpt lat="42.782889" lon="-7.841007">
        <ele>499.3</ele>
        <time>1970-01-01T00:15:44.000Z</time>
      </trkpt>
      <trkpt lat="42.782882" lon="-7.841006">
        <ele>499.3</ele>
        <time>1970-01-01T00:15:45.000Z</time>
      </trkpt>
      <trkpt lat="42.782874" lon="-7.841002">
        <ele>499.3</ele>
        <time>1970-01-01T00:15:46.000Z</time>
      </trkpt>
      <trkpt lat="42.782864" lon="-7.841001">
        <ele>499.3</ele>
        <time>1970-01-01T00:15:47.000Z</time>
      </trkpt>
      <trkpt lat="42.782857" lon="-7.840999">
        <ele>499.3</ele>
        <time>1970-01-01T00:15:48.000Z</time>
      </trkpt>
      <trkpt lat="42.782847" lon="-7.840993">
        <ele>499.3</ele>
        <time>1970-01-01T00:15:49.000Z</time>
      </trkpt>
      <trkpt lat="42.782839" lon="-7.84099">
        <ele>499.3</ele>
        <time>1970-01-01T00:15:50.000Z</time>
      </trkpt>
      <trkpt lat="42.782831" lon="-7.840989">
        <ele>499.3</ele>
        <time>1970-01-01T00:15:51.000Z</time>
      </trkpt>
      <trkpt lat="42.782818" lon="-7.840982">
        <ele>499.3</ele>
        <time>1970-01-01T00:15:52.000Z</time>
      </trkpt>
      <trkpt lat="42.782809" lon="-7.840974">
        <ele>499.2</ele>
        <time>1970-01-01T00:15:53.000Z</time>
      </trkpt>
      <trkpt lat="42.782805" lon="-7.840967">
        <ele>499.2</ele>
        <time>1970-01-01T00:15:54.000Z</time>
      </trkpt>
      <trkpt lat="42.782795" lon="-7.840963">
        <ele>499.2</ele>
        <time>1970-01-01T00:15:55.000Z</time>
      </trkpt>
      <trkpt lat="42.782791" lon="-7.84096">
        <ele>499.2</ele>
        <time>1970-01-01T00:15:56.000Z</time>
      </trkpt>
      <trkpt lat="42.782779" lon="-7.840956">
        <ele>499.2</ele>
        <time>1970-01-01T00:15:57.000Z</time>
      </trkpt>
      <trkpt lat="42.782772" lon="-7.840954">
        <ele>499.2</ele>
        <time>1970-01-01T00:15:58.000Z</time>
      </trkpt>
      <trkpt lat="42.782765" lon="-7.840957">
        <ele>499.2</ele>
        <time>1970-01-01T00:15:59.000Z</time>
      </trkpt>
      <trkpt lat="42.782757" lon="-7.840956">
        <ele>499.2</ele>
        <time>1970-01-01T00:16:00.000Z</time>
      </trkpt>
      <trkpt lat="42.782753" lon="-7.840953">
        <ele>499.2</ele>
        <time>1970-01-01T00:16:01.000Z</time>
      </trkpt>
      <trkpt lat="42.782749" lon="-7.840953">
        <ele>499.2</ele>
        <time>1970-01-01T00:16:02.000Z</time>
      </trkpt>
      <trkpt lat="42.782744" lon="-7.840951">
        <ele>499.2</ele>
        <time>1970-01-01T00:16:03.000Z</time>
      </trkpt>
      <trkpt lat="42.782738" lon="-7.840943">
        <ele>499.2</ele>
        <time>1970-01-01T00:16:04.000Z</time>
      </trkpt>
      <trkpt lat="42.782736" lon="-7.840939">
        <ele>499.2</ele>
        <time>1970-01-01T00:16:05.000Z</time>
      </trkpt>
      <trkpt lat="42.782732" lon="-7.840936">
        <ele>499.2</ele>
        <time>1970-01-01T00:16:06.000Z</time>
      </trkpt>
      <trkpt lat="42.782728" lon="-7.840934">
        <ele>499.2</ele>
        <time>1970-01-01T00:16:07.000Z</time>
      </trkpt>
      <trkpt lat="42.782725" lon="-7.840928">
        <ele>499.1</ele>
        <time>1970-01-01T00:16:08.000Z</time>
      </trkpt>
      <trkpt lat="42.782718" lon="-7.840923">
        <ele>499.1</ele>
        <time>1970-01-01T00:16:09.000Z</time>
      </trkpt>
      <trkpt lat="42.782595" lon="-7.840792">
        <ele>499</ele>
        <time>1970-01-01T00:16:23.000Z</time>
      </trkpt>
      <trkpt lat="42.782581" lon="-7.840772">
        <ele>499</ele>
        <time>1970-01-01T00:16:24.000Z</time>
      </trkpt>
      <trkpt lat="42.782564" lon="-7.840755">
        <ele>499</ele>
        <time>1970-01-01T00:16:25.000Z</time>
      </trkpt>
      <trkpt lat="42.782547" lon="-7.840736">
        <ele>499</ele>
        <time>1970-01-01T00:16:26.000Z</time>
      </trkpt>
      <trkpt lat="42.782532" lon="-7.840718">
        <ele>499</ele>
        <time>1970-01-01T00:16:27.000Z</time>
      </trkpt>
      <trkpt lat="42.782515" lon="-7.840704">
        <ele>499</ele>
        <time>1970-01-01T00:16:28.000Z</time>
      </trkpt>
      <trkpt lat="42.782498" lon="-7.840689">
        <ele>499</ele>
        <time>1970-01-01T00:16:29.000Z</time>
      </trkpt>
      <trkpt lat="42.782487" lon="-7.840669">
        <ele>499</ele>
        <time>1970-01-01T00:16:30.000Z</time>
      </trkpt>
      <trkpt lat="42.782481" lon="-7.840639">
        <ele>499</ele>
        <time>1970-01-01T00:16:31.000Z</time>
      </trkpt>
      <trkpt lat="42.782477" lon="-7.840623">
        <ele>498.9</ele>
        <time>1970-01-01T00:16:32.000Z</time>
      </trkpt>
      <trkpt lat="42.782475" lon="-7.840603">
        <ele>498.9</ele>
        <time>1970-01-01T00:16:33.000Z</time>
      </trkpt>
      <trkpt lat="42.782473" lon="-7.840588">
        <ele>498.9</ele>
        <time>1970-01-01T00:16:34.000Z</time>
      </trkpt>
      <trkpt lat="42.782472" lon="-7.840568">
        <ele>498.9</ele>
        <time>1970-01-01T00:16:35.000Z</time>
      </trkpt>
      <trkpt lat="42.782472" lon="-7.840549">
        <ele>498.9</ele>
        <time>1970-01-01T00:16:36.000Z</time>
      </trkpt>
      <trkpt lat="42.782472" lon="-7.840527">
        <ele>498.9</ele>
        <time>1970-01-01T00:16:37.000Z</time>
      </trkpt>
      <trkpt lat="42.782472" lon="-7.84051">
        <ele>498.9</ele>
        <time>1970-01-01T00:16:38.000Z</time>
      </trkpt>
      <trkpt lat="42.782474" lon="-7.840489">
        <ele>498.8</ele>
        <time>1970-01-01T00:16:39.000Z</time>
      </trkpt>
      <trkpt lat="42.782477" lon="-7.840465">
        <ele>498.8</ele>
        <time>1970-01-01T00:16:40.000Z</time>
      </trkpt>
      <trkpt lat="42.782481" lon="-7.84044">
        <ele>498.8</ele>
        <time>1970-01-01T00:16:41.000Z</time>
      </trkpt>
      <trkpt lat="42.782484" lon="-7.840412">
        <ele>498.7</ele>
        <time>1970-01-01T00:16:42.000Z</time>
      </trkpt>
      <trkpt lat="42.782483" lon="-7.840383">
        <ele>498.7</ele>
        <time>1970-01-01T00:16:43.000Z</time>
      </trkpt>
      <trkpt lat="42.782478" lon="-7.840357">
        <ele>498.7</ele>
        <time>1970-01-01T00:16:44.000Z</time>
      </trkpt>
      <trkpt lat="42.78247" lon="-7.840331">
        <ele>498.6</ele>
        <time>1970-01-01T00:16:45.000Z</time>
      </trkpt>
      <trkpt lat="42.782454" lon="-7.840313">
        <ele>498.7</ele>
        <time>1970-01-01T00:16:46.000Z</time>
      </trkpt>
      <trkpt lat="42.782433" lon="-7.8403">
        <ele>498.7</ele>
        <time>1970-01-01T00:16:47.000Z</time>
      </trkpt>
      <trkpt lat="42.782408" lon="-7.840296">
        <ele>498.7</ele>
        <time>1970-01-01T00:16:48.000Z</time>
      </trkpt>
      <trkpt lat="42.782386" lon="-7.840295">
        <ele>498.7</ele>
        <time>1970-01-01T00:16:49.000Z</time>
      </trkpt>
      <trkpt lat="42.782366" lon="-7.840299">
        <ele>498.7</ele>
        <time>1970-01-01T00:16:50.000Z</time>
      </trkpt>
      <trkpt lat="42.782344" lon="-7.840305">
        <ele>498.8</ele>
        <time>1970-01-01T00:16:51.000Z</time>
      </trkpt>
      <trkpt lat="42.782326" lon="-7.840312">
        <ele>498.8</ele>
        <time>1970-01-01T00:16:52.000Z</time>
      </trkpt>
      <trkpt lat="42.782315" lon="-7.840316">
        <ele>498.8</ele>
        <time>1970-01-01T00:16:53.000Z</time>
      </trkpt>
      <trkpt lat="42.782297" lon="-7.840319">
        <ele>498.8</ele>
        <time>1970-01-01T00:16:54.000Z</time>
      </trkpt>
      <trkpt lat="42.782267" lon="-7.840325">
        <ele>498.9</ele>
        <time>1970-01-01T00:16:55.000Z</time>
      </trkpt>
      <trkpt lat="42.78224" lon="-7.840329">
        <ele>498.9</ele>
        <time>1970-01-01T00:16:56.000Z</time>
      </trkpt>
      <trkpt lat="42.782212" lon="-7.840325">
        <ele>498.9</ele>
        <time>1970-01-01T00:16:57.000Z</time>
      </trkpt>
      <trkpt lat="42.782185" lon="-7.840322">
        <ele>499</ele>
        <time>1970-01-01T00:16:58.000Z</time>
      </trkpt>
      <trkpt lat="42.782152" lon="-7.840322">
        <ele>499</ele>
        <time>1970-01-01T00:16:59.000Z</time>
      </trkpt>
      <trkpt lat="42.782125" lon="-7.840316">
        <ele>499.1</ele>
        <time>1970-01-01T00:17:00.000Z</time>
      </trkpt>
      <trkpt lat="42.782099" lon="-7.840311">
        <ele>499.1</ele>
        <time>1970-01-01T00:17:01.000Z</time>
      </trkpt>
      <trkpt lat="42.782074" lon="-7.840311">
        <ele>499.2</ele>
        <time>1970-01-01T00:17:02.000Z</time>
      </trkpt>
      <trkpt lat="42.782047" lon="-7.840306">
        <ele>499.2</ele>
        <time>1970-01-01T00:17:03.000Z</time>
      </trkpt>
      <trkpt lat="42.782024" lon="-7.840301">
        <ele>499.2</ele>
        <time>1970-01-01T00:17:04.000Z</time>
      </trkpt>
      <trkpt lat="42.781995" lon="-7.840289">
        <ele>499.3</ele>
        <time>1970-01-01T00:17:05.000Z</time>
      </trkpt>
      <trkpt lat="42.781978" lon="-7.840279">
        <ele>499.4</ele>
        <time>1970-01-01T00:17:06.000Z</time>
      </trkpt>
      <trkpt lat="42.781953" lon="-7.840267">
        <ele>499.3</ele>
        <time>1970-01-01T00:17:07.000Z</time>
      </trkpt>
      <trkpt lat="42.78193" lon="-7.840259">
        <ele>499.4</ele>
        <time>1970-01-01T00:17:08.000Z</time>
      </trkpt>
      <trkpt lat="42.781906" lon="-7.840254">
        <ele>499.5</ele>
        <time>1970-01-01T00:17:09.000Z</time>
      </trkpt>
      <trkpt lat="42.781879" lon="-7.840238">
        <ele>499.5</ele>
        <time>1970-01-01T00:17:10.000Z</time>
      </trkpt>
      <trkpt lat="42.781849" lon="-7.840228">
        <ele>499.6</ele>
        <time>1970-01-01T00:17:11.000Z</time>
      </trkpt>
      <trkpt lat="42.781823" lon="-7.840222">
        <ele>499.7</ele>
        <time>1970-01-01T00:17:12.000Z</time>
      </trkpt>
      <trkpt lat="42.781793" lon="-7.840213">
        <ele>499.7</ele>
        <time>1970-01-01T00:17:13.000Z</time>
      </trkpt>
      <trkpt lat="42.78176" lon="-7.840198">
        <ele>499.8</ele>
        <time>1970-01-01T00:17:14.000Z</time>
      </trkpt>
      <trkpt lat="42.781725" lon="-7.840172">
        <ele>499.8</ele>
        <time>1970-01-01T00:17:15.000Z</time>
      </trkpt>
      <trkpt lat="42.781693" lon="-7.840144">
        <ele>499.8</ele>
        <time>1970-01-01T00:17:16.000Z</time>
      </trkpt>
      <trkpt lat="42.781672" lon="-7.840125">
        <ele>499.8</ele>
        <time>1970-01-01T00:17:17.000Z</time>
      </trkpt>
      <trkpt lat="42.781649" lon="-7.840102">
        <ele>499.9</ele>
        <time>1970-01-01T00:17:18.000Z</time>
      </trkpt>
      <trkpt lat="42.781624" lon="-7.840084">
        <ele>499.9</ele>
        <time>1970-01-01T00:17:19.000Z</time>
      </trkpt>
      <trkpt lat="42.781595" lon="-7.840064">
        <ele>499.9</ele>
        <time>1970-01-01T00:17:20.000Z</time>
      </trkpt>
      <trkpt lat="42.781568" lon="-7.840036">
        <ele>499.9</ele>
        <time>1970-01-01T00:17:21.000Z</time>
      </trkpt>
      <trkpt lat="42.781532" lon="-7.840024">
        <ele>499.8</ele>
        <time>1970-01-01T00:17:22.000Z</time>
      </trkpt>
      <trkpt lat="42.781499" lon="-7.840012">
        <ele>499.8</ele>
        <time>1970-01-01T00:17:23.000Z</time>
      </trkpt>
      <trkpt lat="42.781469" lon="-7.839996">
        <ele>499.8</ele>
        <time>1970-01-01T00:17:24.000Z</time>
      </trkpt>
      <trkpt lat="42.781438" lon="-7.839965">
        <ele>499.8</ele>
        <time>1970-01-01T00:17:25.000Z</time>
      </trkpt>
      <trkpt lat="42.781416" lon="-7.839949">
        <ele>499.7</ele>
        <time>1970-01-01T00:17:26.000Z</time>
      </trkpt>
      <trkpt lat="42.781376" lon="-7.839918">
        <ele>499.6</ele>
        <time>1970-01-01T00:17:27.000Z</time>
      </trkpt>
      <trkpt lat="42.781351" lon="-7.839907">
        <ele>499.6</ele>
        <time>1970-01-01T00:17:28.000Z</time>
      </trkpt>
      <trkpt lat="42.781322" lon="-7.839875">
        <ele>499.5</ele>
        <time>1970-01-01T00:17:29.000Z</time>
      </trkpt>
      <trkpt lat="42.781283" lon="-7.839847">
        <ele>499.4</ele>
        <time>1970-01-01T00:17:30.000Z</time>
      </trkpt>
      <trkpt lat="42.781243" lon="-7.839826">
        <ele>499.3</ele>
        <time>1970-01-01T00:17:31.000Z</time>
      </trkpt>
      <trkpt lat="42.781217" lon="-7.839804">
        <ele>499.1</ele>
        <time>1970-01-01T00:17:32.000Z</time>
      </trkpt>
      <trkpt lat="42.781208" lon="-7.839777">
        <ele>499.1</ele>
        <time>1970-01-01T00:17:33.000Z</time>
      </trkpt>
      <trkpt lat="42.781211" lon="-7.839744">
        <ele>499.1</ele>
        <time>1970-01-01T00:17:34.000Z</time>
      </trkpt>
      <trkpt lat="42.781224" lon="-7.839715">
        <ele>499</ele>
        <time>1970-01-01T00:17:35.000Z</time>
      </trkpt>
      <trkpt lat="42.781239" lon="-7.839689">
        <ele>499.1</ele>
        <time>1970-01-01T00:17:36.000Z</time>
      </trkpt>
      <trkpt lat="42.78126" lon="-7.839656">
        <ele>499.1</ele>
        <time>1970-01-01T00:17:37.000Z</time>
      </trkpt>
      <trkpt lat="42.781278" lon="-7.839622">
        <ele>499.1</ele>
        <time>1970-01-01T00:17:38.000Z</time>
      </trkpt>
      <trkpt lat="42.781298" lon="-7.839583">
        <ele>499.2</ele>
        <time>1970-01-01T00:17:39.000Z</time>
      </trkpt>
      <trkpt lat="42.781321" lon="-7.839548">
        <ele>499.1</ele>
        <time>1970-01-01T00:17:40.000Z</time>
      </trkpt>
      <trkpt lat="42.781345" lon="-7.839521">
        <ele>499.2</ele>
        <time>1970-01-01T00:17:41.000Z</time>
      </trkpt>
      <trkpt lat="42.781373" lon="-7.8395">
        <ele>499.3</ele>
        <time>1970-01-01T00:17:42.000Z</time>
      </trkpt>
      <trkpt lat="42.781405" lon="-7.839477">
        <ele>499.4</ele>
        <time>1970-01-01T00:17:43.000Z</time>
      </trkpt>
      <trkpt lat="42.781435" lon="-7.83945">
        <ele>499.5</ele>
        <time>1970-01-01T00:17:44.000Z</time>
      </trkpt>
      <trkpt lat="42.781469" lon="-7.839423">
        <ele>499.6</ele>
        <time>1970-01-01T00:17:45.000Z</time>
      </trkpt>
      <trkpt lat="42.781505" lon="-7.839398">
        <ele>499.6</ele>
        <time>1970-01-01T00:17:46.000Z</time>
      </trkpt>
      <trkpt lat="42.781543" lon="-7.839375">
        <ele>499.6</ele>
        <time>1970-01-01T00:17:47.000Z</time>
      </trkpt>
      <trkpt lat="42.781585" lon="-7.839354">
        <ele>499.7</ele>
        <time>1970-01-01T00:17:48.000Z</time>
      </trkpt>
      <trkpt lat="42.781626" lon="-7.839331">
        <ele>499.7</ele>
        <time>1970-01-01T00:17:49.000Z</time>
      </trkpt>
      <trkpt lat="42.781672" lon="-7.839313">
        <ele>499.7</ele>
        <time>1970-01-01T00:17:50.000Z</time>
      </trkpt>
      <trkpt lat="42.781703" lon="-7.839291">
        <ele>499.7</ele>
        <time>1970-01-01T00:17:51.000Z</time>
      </trkpt>
      <trkpt lat="42.78172" lon="-7.839258">
        <ele>499.7</ele>
        <time>1970-01-01T00:17:52.000Z</time>
      </trkpt>
      <trkpt lat="42.781733" lon="-7.839214">
        <ele>499.8</ele>
        <time>1970-01-01T00:17:53.000Z</time>
      </trkpt>
      <trkpt lat="42.781742" lon="-7.839167">
        <ele>499.8</ele>
        <time>1970-01-01T00:17:54.000Z</time>
      </trkpt>
      <trkpt lat="42.781751" lon="-7.839123">
        <ele>499.8</ele>
        <time>1970-01-01T00:17:55.000Z</time>
      </trkpt>
      <trkpt lat="42.781765" lon="-7.839085">
        <ele>499.9</ele>
        <time>1970-01-01T00:17:56.000Z</time>
      </trkpt>
      <trkpt lat="42.78178" lon="-7.839054">
        <ele>499.9</ele>
        <time>1970-01-01T00:17:57.000Z</time>
      </trkpt>
      <trkpt lat="42.781793" lon="-7.839016">
        <ele>500</ele>
        <time>1970-01-01T00:17:58.000Z</time>
      </trkpt>
      <trkpt lat="42.781808" lon="-7.838978">
        <ele>500</ele>
        <time>1970-01-01T00:17:59.000Z</time>
      </trkpt>
      <trkpt lat="42.781818" lon="-7.838943">
        <ele>500.1</ele>
        <time>1970-01-01T00:18:00.000Z</time>
      </trkpt>
      <trkpt lat="42.781837" lon="-7.838906">
        <ele>500.2</ele>
        <time>1970-01-01T00:18:01.000Z</time>
      </trkpt>
      <trkpt lat="42.781861" lon="-7.838866">
        <ele>500.3</ele>
        <time>1970-01-01T00:18:02.000Z</time>
      </trkpt>
      <trkpt lat="42.78188" lon="-7.838825">
        <ele>500.4</ele>
        <time>1970-01-01T00:18:03.000Z</time>
      </trkpt>
      <trkpt lat="42.781898" lon="-7.838779">
        <ele>500.6</ele>
        <time>1970-01-01T00:18:04.000Z</time>
      </trkpt>
      <trkpt lat="42.781917" lon="-7.838738">
        <ele>500.8</ele>
        <time>1970-01-01T00:18:05.000Z</time>
      </trkpt>
      <trkpt lat="42.781939" lon="-7.838689">
        <ele>500.9</ele>
        <time>1970-01-01T00:18:06.000Z</time>
      </trkpt>
      <trkpt lat="42.781959" lon="-7.838637">
        <ele>501.1</ele>
        <time>1970-01-01T00:18:07.000Z</time>
      </trkpt>
      <trkpt lat="42.781977" lon="-7.838589">
        <ele>501.3</ele>
        <time>1970-01-01T00:18:08.000Z</time>
      </trkpt>
      <trkpt lat="42.781994" lon="-7.838545">
        <ele>501.4</ele>
        <time>1970-01-01T00:18:09.000Z</time>
      </trkpt>
      <trkpt lat="42.782013" lon="-7.838503">
        <ele>501.6</ele>
        <time>1970-01-01T00:18:10.000Z</time>
      </trkpt>
      <trkpt lat="42.782031" lon="-7.838458">
        <ele>501.8</ele>
        <time>1970-01-01T00:18:11.000Z</time>
      </trkpt>
      <trkpt lat="42.782048" lon="-7.838417">
        <ele>501.9</ele>
        <time>1970-01-01T00:18:12.000Z</time>
      </trkpt>
      <trkpt lat="42.782064" lon="-7.838376">
        <ele>502.1</ele>
        <time>1970-01-01T00:18:13.000Z</time>
      </trkpt>
      <trkpt lat="42.782079" lon="-7.838334">
        <ele>502.2</ele>
        <time>1970-01-01T00:18:14.000Z</time>
      </trkpt>
      <trkpt lat="42.782091" lon="-7.838292">
        <ele>502.4</ele>
        <time>1970-01-01T00:18:15.000Z</time>
      </trkpt>
      <trkpt lat="42.782105" lon="-7.838251">
        <ele>502.5</ele>
        <time>1970-01-01T00:18:16.000Z</time>
      </trkpt>
      <trkpt lat="42.782116" lon="-7.838213">
        <ele>502.7</ele>
        <time>1970-01-01T00:18:17.000Z</time>
      </trkpt>
      <trkpt lat="42.782127" lon="-7.838174">
        <ele>502.9</ele>
        <time>1970-01-01T00:18:18.000Z</time>
      </trkpt>
      <trkpt lat="42.782139" lon="-7.838134">
        <ele>503</ele>
        <time>1970-01-01T00:18:19.000Z</time>
      </trkpt>
      <trkpt lat="42.782143" lon="-7.838095">
        <ele>503.1</ele>
        <time>1970-01-01T00:18:20.000Z</time>
      </trkpt>
      <trkpt lat="42.782149" lon="-7.838056">
        <ele>503.2</ele>
        <time>1970-01-01T00:18:21.000Z</time>
      </trkpt>
      <trkpt lat="42.782155" lon="-7.838021">
        <ele>503.4</ele>
        <time>1970-01-01T00:18:22.000Z</time>
      </trkpt>
      <trkpt lat="42.78216" lon="-7.837984">
        <ele>503.5</ele>
        <time>1970-01-01T00:18:23.000Z</time>
      </trkpt>
      <trkpt lat="42.782163" lon="-7.837946">
        <ele>503.6</ele>
        <time>1970-01-01T00:18:24.000Z</time>
      </trkpt>
      <trkpt lat="42.782169" lon="-7.837909">
        <ele>503.6</ele>
        <time>1970-01-01T00:18:25.000Z</time>
      </trkpt>
      <trkpt lat="42.782174" lon="-7.837871">
        <ele>503.7</ele>
        <time>1970-01-01T00:18:26.000Z</time>
      </trkpt>
      <trkpt lat="42.782183" lon="-7.83783">
        <ele>503.8</ele>
        <time>1970-01-01T00:18:27.000Z</time>
      </trkpt>
      <trkpt lat="42.782201" lon="-7.837792">
        <ele>503.8</ele>
        <time>1970-01-01T00:18:28.000Z</time>
      </trkpt>
      <trkpt lat="42.782226" lon="-7.837757">
        <ele>503.8</ele>
        <time>1970-01-01T00:18:29.000Z</time>
      </trkpt>
      <trkpt lat="42.782254" lon="-7.837726">
        <ele>503.9</ele>
        <time>1970-01-01T00:18:30.000Z</time>
      </trkpt>
      <trkpt lat="42.782284" lon="-7.837694">
        <ele>503.9</ele>
        <time>1970-01-01T00:18:31.000Z</time>
      </trkpt>
      <trkpt lat="42.78231" lon="-7.837665">
        <ele>503.9</ele>
        <time>1970-01-01T00:18:32.000Z</time>
      </trkpt>
      <trkpt lat="42.782336" lon="-7.837632">
        <ele>503.8</ele>
        <time>1970-01-01T00:18:33.000Z</time>
      </trkpt>
      <trkpt lat="42.782359" lon="-7.837606">
        <ele>503.8</ele>
        <time>1970-01-01T00:18:34.000Z</time>
      </trkpt>
      <trkpt lat="42.782381" lon="-7.837585">
        <ele>503.8</ele>
        <time>1970-01-01T00:18:35.000Z</time>
      </trkpt>
      <trkpt lat="42.782404" lon="-7.837562">
        <ele>503.8</ele>
        <time>1970-01-01T00:18:36.000Z</time>
      </trkpt>
      <trkpt lat="42.782424" lon="-7.837535">
        <ele>503.8</ele>
        <time>1970-01-01T00:18:37.000Z</time>
      </trkpt>
      <trkpt lat="42.782444" lon="-7.837513">
        <ele>503.8</ele>
        <time>1970-01-01T00:18:38.000Z</time>
      </trkpt>
      <trkpt lat="42.782457" lon="-7.837493">
        <ele>503.8</ele>
        <time>1970-01-01T00:18:39.000Z</time>
      </trkpt>
      <trkpt lat="42.782469" lon="-7.837473">
        <ele>503.7</ele>
        <time>1970-01-01T00:18:40.000Z</time>
      </trkpt>
      <trkpt lat="42.782477" lon="-7.837448">
        <ele>503.7</ele>
        <time>1970-01-01T00:18:41.000Z</time>
      </trkpt>
      <trkpt lat="42.782488" lon="-7.837425">
        <ele>503.7</ele>
        <time>1970-01-01T00:18:42.000Z</time>
      </trkpt>
      <trkpt lat="42.782499" lon="-7.837399">
        <ele>503.7</ele>
        <time>1970-01-01T00:18:43.000Z</time>
      </trkpt>
      <trkpt lat="42.782518" lon="-7.837372">
        <ele>503.7</ele>
        <time>1970-01-01T00:18:44.000Z</time>
      </trkpt>
      <trkpt lat="42.782539" lon="-7.837348">
        <ele>503.7</ele>
        <time>1970-01-01T00:18:45.000Z</time>
      </trkpt>
      <trkpt lat="42.78257" lon="-7.837321">
        <ele>503.6</ele>
        <time>1970-01-01T00:18:46.000Z</time>
      </trkpt>
      <trkpt lat="42.782609" lon="-7.837299">
        <ele>503.6</ele>
        <time>1970-01-01T00:18:47.000Z</time>
      </trkpt>
      <trkpt lat="42.782644" lon="-7.837276">
        <ele>503.6</ele>
        <time>1970-01-01T00:18:48.000Z</time>
      </trkpt>
      <trkpt lat="42.782672" lon="-7.837263">
        <ele>503.6</ele>
        <time>1970-01-01T00:18:49.000Z</time>
      </trkpt>
      <trkpt lat="42.7827" lon="-7.837247">
        <ele>503.6</ele>
        <time>1970-01-01T00:18:50.000Z</time>
      </trkpt>
      <trkpt lat="42.782731" lon="-7.837228">
        <ele>503.6</ele>
        <time>1970-01-01T00:18:51.000Z</time>
      </trkpt>
      <trkpt lat="42.782759" lon="-7.837206">
        <ele>503.6</ele>
        <time>1970-01-01T00:18:52.000Z</time>
      </trkpt>
      <trkpt lat="42.782791" lon="-7.837188">
        <ele>503.6</ele>
        <time>1970-01-01T00:18:53.000Z</time>
      </trkpt>
      <trkpt lat="42.782826" lon="-7.837177">
        <ele>503.6</ele>
        <time>1970-01-01T00:18:54.000Z</time>
      </trkpt>
      <trkpt lat="42.782853" lon="-7.837163">
        <ele>503.6</ele>
        <time>1970-01-01T00:18:55.000Z</time>
      </trkpt>
      <trkpt lat="42.782886" lon="-7.837145">
        <ele>503.6</ele>
        <time>1970-01-01T00:18:56.000Z</time>
      </trkpt>
      <trkpt lat="42.782919" lon="-7.837128">
        <ele>503.6</ele>
        <time>1970-01-01T00:18:57.000Z</time>
      </trkpt>
      <trkpt lat="42.782944" lon="-7.83711">
        <ele>503.7</ele>
        <time>1970-01-01T00:18:58.000Z</time>
      </trkpt>
      <trkpt lat="42.78297" lon="-7.837098">
        <ele>503.7</ele>
        <time>1970-01-01T00:18:59.000Z</time>
      </trkpt>
      <trkpt lat="42.783008" lon="-7.837085">
        <ele>503.8</ele>
        <time>1970-01-01T00:19:00.000Z</time>
      </trkpt>
      <trkpt lat="42.783047" lon="-7.837071">
        <ele>503.8</ele>
        <time>1970-01-01T00:19:01.000Z</time>
      </trkpt>
      <trkpt lat="42.783068" lon="-7.837061">
        <ele>503.8</ele>
        <time>1970-01-01T00:19:02.000Z</time>
      </trkpt>
      <trkpt lat="42.783096" lon="-7.837054">
        <ele>503.9</ele>
        <time>1970-01-01T00:19:03.000Z</time>
      </trkpt>
      <trkpt lat="42.783123" lon="-7.837049">
        <ele>503.9</ele>
        <time>1970-01-01T00:19:04.000Z</time>
      </trkpt>
      <trkpt lat="42.783147" lon="-7.837041">
        <ele>504</ele>
        <time>1970-01-01T00:19:05.000Z</time>
      </trkpt>
      <trkpt lat="42.783177" lon="-7.837024">
        <ele>504</ele>
        <time>1970-01-01T00:19:06.000Z</time>
      </trkpt>
      <trkpt lat="42.783209" lon="-7.837005">
        <ele>504</ele>
        <time>1970-01-01T00:19:07.000Z</time>
      </trkpt>
      <trkpt lat="42.783246" lon="-7.836987">
        <ele>504.1</ele>
        <time>1970-01-01T00:19:08.000Z</time>
      </trkpt>
      <trkpt lat="42.783287" lon="-7.836971">
        <ele>504.1</ele>
        <time>1970-01-01T00:19:09.000Z</time>
      </trkpt>
      <trkpt lat="42.783314" lon="-7.836967">
        <ele>504.1</ele>
        <time>1970-01-01T00:19:10.000Z</time>
      </trkpt>
      <trkpt lat="42.783341" lon="-7.836957">
        <ele>504.1</ele>
        <time>1970-01-01T00:19:11.000Z</time>
      </trkpt>
      <trkpt lat="42.783363" lon="-7.836942">
        <ele>504.1</ele>
        <time>1970-01-01T00:19:12.000Z</time>
      </trkpt>
      <trkpt lat="42.783383" lon="-7.836925">
        <ele>504.1</ele>
        <time>1970-01-01T00:19:13.000Z</time>
      </trkpt>
      <trkpt lat="42.783404" lon="-7.8369">
        <ele>504.1</ele>
        <time>1970-01-01T00:19:14.000Z</time>
      </trkpt>
      <trkpt lat="42.783425" lon="-7.836878">
        <ele>504.1</ele>
        <time>1970-01-01T00:19:15.000Z</time>
      </trkpt>
      <trkpt lat="42.783446" lon="-7.836874">
        <ele>504.1</ele>
        <time>1970-01-01T00:19:16.000Z</time>
      </trkpt>
      <trkpt lat="42.783468" lon="-7.836859">
        <ele>504.1</ele>
        <time>1970-01-01T00:19:17.000Z</time>
      </trkpt>
      <trkpt lat="42.78349" lon="-7.836844">
        <ele>504.1</ele>
        <time>1970-01-01T00:19:18.000Z</time>
      </trkpt>
      <trkpt lat="42.78353" lon="-7.836829">
        <ele>504</ele>
        <time>1970-01-01T00:19:19.000Z</time>
      </trkpt>
      <trkpt lat="42.783572" lon="-7.836813">
        <ele>504</ele>
        <time>1970-01-01T00:19:20.000Z</time>
      </trkpt>
      <trkpt lat="42.783616" lon="-7.836791">
        <ele>504</ele>
        <time>1970-01-01T00:19:21.000Z</time>
      </trkpt>
      <trkpt lat="42.783644" lon="-7.836773">
        <ele>504.1</ele>
        <time>1970-01-01T00:19:22.000Z</time>
      </trkpt>
      <trkpt lat="42.783665" lon="-7.836767">
        <ele>504.1</ele>
        <time>1970-01-01T00:19:23.000Z</time>
      </trkpt>
      <trkpt lat="42.783687" lon="-7.836762">
        <ele>504.1</ele>
        <time>1970-01-01T00:19:24.000Z</time>
      </trkpt>
      <trkpt lat="42.783709" lon="-7.836761">
        <ele>504.1</ele>
        <time>1970-01-01T00:19:25.000Z</time>
      </trkpt>
      <trkpt lat="42.78373" lon="-7.83675">
        <ele>504.2</ele>
        <time>1970-01-01T00:19:26.000Z</time>
      </trkpt>
      <trkpt lat="42.783759" lon="-7.836736">
        <ele>504.2</ele>
        <time>1970-01-01T00:19:27.000Z</time>
      </trkpt>
      <trkpt lat="42.783774" lon="-7.836727">
        <ele>504.2</ele>
        <time>1970-01-01T00:19:28.000Z</time>
      </trkpt>
      <trkpt lat="42.783781" lon="-7.836717">
        <ele>504.3</ele>
        <time>1970-01-01T00:19:29.000Z</time>
      </trkpt>
      <trkpt lat="42.783802" lon="-7.836702">
        <ele>504.3</ele>
        <time>1970-01-01T00:19:30.000Z</time>
      </trkpt>
      <trkpt lat="42.783821" lon="-7.836683">
        <ele>504.4</ele>
        <time>1970-01-01T00:19:31.000Z</time>
      </trkpt>
      <trkpt lat="42.783824" lon="-7.836667">
        <ele>504.4</ele>
        <time>1970-01-01T00:19:32.000Z</time>
      </trkpt>
      <trkpt lat="42.783848" lon="-7.83665">
        <ele>504.4</ele>
        <time>1970-01-01T00:19:33.000Z</time>
      </trkpt>
      <trkpt lat="42.783867" lon="-7.83664">
        <ele>504.5</ele>
        <time>1970-01-01T00:19:34.000Z</time>
      </trkpt>
      <trkpt lat="42.783891" lon="-7.836629">
        <ele>504.5</ele>
        <time>1970-01-01T00:19:35.000Z</time>
      </trkpt>
      <trkpt lat="42.783927" lon="-7.836614">
        <ele>504.6</ele>
        <time>1970-01-01T00:19:36.000Z</time>
      </trkpt>
      <trkpt lat="42.783963" lon="-7.836593">
        <ele>504.7</ele>
        <time>1970-01-01T00:19:37.000Z</time>
      </trkpt>
      <trkpt lat="42.784001" lon="-7.836574">
        <ele>504.8</ele>
        <time>1970-01-01T00:19:38.000Z</time>
      </trkpt>
      <trkpt lat="42.784038" lon="-7.83656">
        <ele>504.9</ele>
        <time>1970-01-01T00:19:39.000Z</time>
      </trkpt>
      <trkpt lat="42.784081" lon="-7.836547">
        <ele>505</ele>
        <time>1970-01-01T00:19:40.000Z</time>
      </trkpt>
      <trkpt lat="42.784109" lon="-7.836532">
        <ele>505</ele>
        <time>1970-01-01T00:19:41.000Z</time>
      </trkpt>
      <trkpt lat="42.784121" lon="-7.83652">
        <ele>505.1</ele>
        <time>1970-01-01T00:19:42.000Z</time>
      </trkpt>
      <trkpt lat="42.784157" lon="-7.836505">
        <ele>505.1</ele>
        <time>1970-01-01T00:19:43.000Z</time>
      </trkpt>
      <trkpt lat="42.784191" lon="-7.8365">
        <ele>505.2</ele>
        <time>1970-01-01T00:19:44.000Z</time>
      </trkpt>
      <trkpt lat="42.78423" lon="-7.83649">
        <ele>505.3</ele>
        <time>1970-01-01T00:19:45.000Z</time>
      </trkpt>
      <trkpt lat="42.784265" lon="-7.836477">
        <ele>505.4</ele>
        <time>1970-01-01T00:19:46.000Z</time>
      </trkpt>
      <trkpt lat="42.784297" lon="-7.836465">
        <ele>505.4</ele>
        <time>1970-01-01T00:19:47.000Z</time>
      </trkpt>
      <trkpt lat="42.78432" lon="-7.836448">
        <ele>505.4</ele>
        <time>1970-01-01T00:19:48.000Z</time>
      </trkpt>
      <trkpt lat="42.784356" lon="-7.836432">
        <ele>505.5</ele>
        <time>1970-01-01T00:19:49.000Z</time>
      </trkpt>
      <trkpt lat="42.7844" lon="-7.836416">
        <ele>505.6</ele>
        <time>1970-01-01T00:19:50.000Z</time>
      </trkpt>
      <trkpt lat="42.784414" lon="-7.836414">
        <ele>505.6</ele>
        <time>1970-01-01T00:19:51.000Z</time>
      </trkpt>
      <trkpt lat="42.78444" lon="-7.836415">
        <ele>505.6</ele>
        <time>1970-01-01T00:19:52.000Z</time>
      </trkpt>
      <trkpt lat="42.784479" lon="-7.836399">
        <ele>505.7</ele>
        <time>1970-01-01T00:19:53.000Z</time>
      </trkpt>
      <trkpt lat="42.784496" lon="-7.836377">
        <ele>505.7</ele>
        <time>1970-01-01T00:19:54.000Z</time>
      </trkpt>
      <trkpt lat="42.784526" lon="-7.836347">
        <ele>505.8</ele>
        <time>1970-01-01T00:19:55.000Z</time>
      </trkpt>
      <trkpt lat="42.784564" lon="-7.836323">
        <ele>505.9</ele>
        <time>1970-01-01T00:19:56.000Z</time>
      </trkpt>
      <trkpt lat="42.784588" lon="-7.836298">
        <ele>506</ele>
        <time>1970-01-01T00:19:57.000Z</time>
      </trkpt>
      <trkpt lat="42.784608" lon="-7.836279">
        <ele>506.1</ele>
        <time>1970-01-01T00:19:58.000Z</time>
      </trkpt>
      <trkpt lat="42.784631" lon="-7.836259">
        <ele>506.2</ele>
        <time>1970-01-01T00:19:59.000Z</time>
      </trkpt>
      <trkpt lat="42.784647" lon="-7.83624">
        <ele>506.3</ele>
        <time>1970-01-01T00:20:00.000Z</time>
      </trkpt>
      <trkpt lat="42.784666" lon="-7.836216">
        <ele>506.3</ele>
        <time>1970-01-01T00:20:01.000Z</time>
      </trkpt>
      <trkpt lat="42.784693" lon="-7.836198">
        <ele>506.4</ele>
        <time>1970-01-01T00:20:02.000Z</time>
      </trkpt>
      <trkpt lat="42.784726" lon="-7.83618">
        <ele>506.6</ele>
        <time>1970-01-01T00:20:03.000Z</time>
      </trkpt>
      <trkpt lat="42.784758" lon="-7.836163">
        <ele>506.7</ele>
        <time>1970-01-01T00:20:04.000Z</time>
      </trkpt>
      <trkpt lat="42.784785" lon="-7.836149">
        <ele>506.8</ele>
        <time>1970-01-01T00:20:05.000Z</time>
      </trkpt>
      <trkpt lat="42.784801" lon="-7.836135">
        <ele>506.8</ele>
        <time>1970-01-01T00:20:06.000Z</time>
      </trkpt>
      <trkpt lat="42.78482" lon="-7.836118">
        <ele>506.9</ele>
        <time>1970-01-01T00:20:07.000Z</time>
      </trkpt>
      <trkpt lat="42.784844" lon="-7.8361">
        <ele>506.9</ele>
        <time>1970-01-01T00:20:08.000Z</time>
      </trkpt>
      <trkpt lat="42.784861" lon="-7.836086">
        <ele>507</ele>
        <time>1970-01-01T00:20:09.000Z</time>
      </trkpt>
      <trkpt lat="42.784884" lon="-7.83607">
        <ele>507.1</ele>
        <time>1970-01-01T00:20:10.000Z</time>
      </trkpt>
      <trkpt lat="42.784908" lon="-7.836062">
        <ele>507.1</ele>
        <time>1970-01-01T00:20:11.000Z</time>
      </trkpt>
      <trkpt lat="42.784941" lon="-7.836044">
        <ele>507.2</ele>
        <time>1970-01-01T00:20:12.000Z</time>
      </trkpt>
      <trkpt lat="42.784974" lon="-7.836029">
        <ele>507.3</ele>
        <time>1970-01-01T00:20:13.000Z</time>
      </trkpt>
      <trkpt lat="42.785011" lon="-7.836013">
        <ele>507.4</ele>
        <time>1970-01-01T00:20:14.000Z</time>
      </trkpt>
      <trkpt lat="42.785043" lon="-7.835995">
        <ele>507.5</ele>
        <time>1970-01-01T00:20:15.000Z</time>
      </trkpt>
      <trkpt lat="42.785077" lon="-7.835972">
        <ele>507.6</ele>
        <time>1970-01-01T00:20:16.000Z</time>
      </trkpt>
      <trkpt lat="42.785108" lon="-7.835951">
        <ele>507.7</ele>
        <time>1970-01-01T00:20:17.000Z</time>
      </trkpt>
      <trkpt lat="42.785148" lon="-7.835921">
        <ele>508</ele>
        <time>1970-01-01T00:20:18.000Z</time>
      </trkpt>
      <trkpt lat="42.785181" lon="-7.835896">
        <ele>508.1</ele>
        <time>1970-01-01T00:20:19.000Z</time>
      </trkpt>
      <trkpt lat="42.785212" lon="-7.83588">
        <ele>508.3</ele>
        <time>1970-01-01T00:20:20.000Z</time>
      </trkpt>
      <trkpt lat="42.785251" lon="-7.835862">
        <ele>508.5</ele>
        <time>1970-01-01T00:20:21.000Z</time>
      </trkpt>
      <trkpt lat="42.785289" lon="-7.835836">
        <ele>508.7</ele>
        <time>1970-01-01T00:20:22.000Z</time>
      </trkpt>
      <trkpt lat="42.785319" lon="-7.835816">
        <ele>508.8</ele>
        <time>1970-01-01T00:20:23.000Z</time>
      </trkpt>
      <trkpt lat="42.785352" lon="-7.835788">
        <ele>509</ele>
        <time>1970-01-01T00:20:24.000Z</time>
      </trkpt>
      <trkpt lat="42.785389" lon="-7.835761">
        <ele>509.2</ele>
        <time>1970-01-01T00:20:25.000Z</time>
      </trkpt>
      <trkpt lat="42.785427" lon="-7.835738">
        <ele>509.4</ele>
        <time>1970-01-01T00:20:26.000Z</time>
      </trkpt>
      <trkpt lat="42.785466" lon="-7.835713">
        <ele>509.5</ele>
        <time>1970-01-01T00:20:27.000Z</time>
      </trkpt>
      <trkpt lat="42.7855" lon="-7.835688">
        <ele>509.7</ele>
        <time>1970-01-01T00:20:28.000Z</time>
      </trkpt>
      <trkpt lat="42.785535" lon="-7.835663">
        <ele>509.8</ele>
        <time>1970-01-01T00:20:29.000Z</time>
      </trkpt>
      <trkpt lat="42.785571" lon="-7.835649">
        <ele>509.9</ele>
        <time>1970-01-01T00:20:30.000Z</time>
      </trkpt>
      <trkpt lat="42.785607" lon="-7.835632">
        <ele>510</ele>
        <time>1970-01-01T00:20:31.000Z</time>
      </trkpt>
      <trkpt lat="42.785645" lon="-7.835613">
        <ele>510.1</ele>
        <time>1970-01-01T00:20:32.000Z</time>
      </trkpt>
      <trkpt lat="42.785675" lon="-7.835587">
        <ele>510.2</ele>
        <time>1970-01-01T00:20:33.000Z</time>
      </trkpt>
      <trkpt lat="42.785709" lon="-7.83556">
        <ele>510.3</ele>
        <time>1970-01-01T00:20:34.000Z</time>
      </trkpt>
      <trkpt lat="42.785746" lon="-7.835535">
        <ele>510.4</ele>
        <time>1970-01-01T00:20:35.000Z</time>
      </trkpt>
      <trkpt lat="42.785775" lon="-7.835515">
        <ele>510.4</ele>
        <time>1970-01-01T00:20:36.000Z</time>
      </trkpt>
      <trkpt lat="42.785804" lon="-7.835499">
        <ele>510.5</ele>
        <time>1970-01-01T00:20:37.000Z</time>
      </trkpt>
      <trkpt lat="42.785832" lon="-7.835481">
        <ele>510.5</ele>
        <time>1970-01-01T00:20:38.000Z</time>
      </trkpt>
      <trkpt lat="42.785864" lon="-7.835457">
        <ele>510.6</ele>
        <time>1970-01-01T00:20:39.000Z</time>
      </trkpt>
      <trkpt lat="42.785886" lon="-7.835436">
        <ele>510.6</ele>
        <time>1970-01-01T00:20:40.000Z</time>
      </trkpt>
      <trkpt lat="42.785909" lon="-7.835409">
        <ele>510.7</ele>
        <time>1970-01-01T00:20:41.000Z</time>
      </trkpt>
      <trkpt lat="42.785938" lon="-7.835382">
        <ele>510.8</ele>
        <time>1970-01-01T00:20:42.000Z</time>
      </trkpt>
      <trkpt lat="42.785972" lon="-7.835353">
        <ele>510.9</ele>
        <time>1970-01-01T00:20:43.000Z</time>
      </trkpt>
      <trkpt lat="42.786003" lon="-7.835324">
        <ele>511.1</ele>
        <time>1970-01-01T00:20:44.000Z</time>
      </trkpt>
      <trkpt lat="42.786022" lon="-7.835305">
        <ele>511.2</ele>
        <time>1970-01-01T00:20:45.000Z</time>
      </trkpt>
      <trkpt lat="42.786047" lon="-7.835285">
        <ele>511.3</ele>
        <time>1970-01-01T00:20:46.000Z</time>
      </trkpt>
      <trkpt lat="42.786076" lon="-7.835261">
        <ele>511.4</ele>
        <time>1970-01-01T00:20:47.000Z</time>
      </trkpt>
      <trkpt lat="42.786102" lon="-7.835236">
        <ele>511.5</ele>
        <time>1970-01-01T00:20:48.000Z</time>
      </trkpt>
      <trkpt lat="42.786126" lon="-7.835216">
        <ele>511.6</ele>
        <time>1970-01-01T00:20:49.000Z</time>
      </trkpt>
      <trkpt lat="42.786157" lon="-7.835191">
        <ele>511.8</ele>
        <time>1970-01-01T00:20:50.000Z</time>
      </trkpt>
      <trkpt lat="42.786182" lon="-7.835161">
        <ele>511.9</ele>
        <time>1970-01-01T00:20:51.000Z</time>
      </trkpt>
      <trkpt lat="42.78621" lon="-7.835134">
        <ele>512</ele>
        <time>1970-01-01T00:20:52.000Z</time>
      </trkpt>
      <trkpt lat="42.786234" lon="-7.835114">
        <ele>512.2</ele>
        <time>1970-01-01T00:20:53.000Z</time>
      </trkpt>
      <trkpt lat="42.78626" lon="-7.835085">
        <ele>512.3</ele>
        <time>1970-01-01T00:20:54.000Z</time>
      </trkpt>
      <trkpt lat="42.78629" lon="-7.835063">
        <ele>512.4</ele>
        <time>1970-01-01T00:20:55.000Z</time>
      </trkpt>
      <trkpt lat="42.786312" lon="-7.835038">
        <ele>512.5</ele>
        <time>1970-01-01T00:20:56.000Z</time>
      </trkpt>
      <trkpt lat="42.786349" lon="-7.835008">
        <ele>512.7</ele>
        <time>1970-01-01T00:20:57.000Z</time>
      </trkpt>
      <trkpt lat="42.786377" lon="-7.834981">
        <ele>512.8</ele>
        <time>1970-01-01T00:20:58.000Z</time>
      </trkpt>
      <trkpt lat="42.786402" lon="-7.834956">
        <ele>512.9</ele>
        <time>1970-01-01T00:20:59.000Z</time>
      </trkpt>
      <trkpt lat="42.786431" lon="-7.834918">
        <ele>513</ele>
        <time>1970-01-01T00:21:00.000Z</time>
      </trkpt>
      <trkpt lat="42.786444" lon="-7.834882">
        <ele>513.2</ele>
        <time>1970-01-01T00:21:01.000Z</time>
      </trkpt>
      <trkpt lat="42.786443" lon="-7.834848">
        <ele>513.3</ele>
        <time>1970-01-01T00:21:02.000Z</time>
      </trkpt>
      <trkpt lat="42.786433" lon="-7.834821">
        <ele>513.4</ele>
        <time>1970-01-01T00:21:03.000Z</time>
      </trkpt>
      <trkpt lat="42.786415" lon="-7.834799">
        <ele>513.5</ele>
        <time>1970-01-01T00:21:04.000Z</time>
      </trkpt>
      <trkpt lat="42.786398" lon="-7.834778">
        <ele>513.6</ele>
        <time>1970-01-01T00:21:05.000Z</time>
      </trkpt>
      <trkpt lat="42.78638" lon="-7.834753">
        <ele>514.4</ele>
        <time>1970-01-01T00:21:06.000Z</time>
      </trkpt>
      <trkpt lat="42.786359" lon="-7.834725">
        <ele>514.4</ele>
        <time>1970-01-01T00:21:07.000Z</time>
      </trkpt>
      <trkpt lat="42.786336" lon="-7.834698">
        <ele>514.4</ele>
        <time>1970-01-01T00:21:08.000Z</time>
      </trkpt>
      <trkpt lat="42.786313" lon="-7.83466">
        <ele>514.3</ele>
        <time>1970-01-01T00:21:09.000Z</time>
      </trkpt>
      <trkpt lat="42.786287" lon="-7.834619">
        <ele>514.3</ele>
        <time>1970-01-01T00:21:10.000Z</time>
      </trkpt>
      <trkpt lat="42.786258" lon="-7.834576">
        <ele>514.2</ele>
        <time>1970-01-01T00:21:11.000Z</time>
      </trkpt>
      <trkpt lat="42.786228" lon="-7.834532">
        <ele>514.1</ele>
        <time>1970-01-01T00:21:12.000Z</time>
      </trkpt>
      <trkpt lat="42.786192" lon="-7.834489">
        <ele>514</ele>
        <time>1970-01-01T00:21:13.000Z</time>
      </trkpt>
      <trkpt lat="42.786153" lon="-7.834451">
        <ele>513.9</ele>
        <time>1970-01-01T00:21:14.000Z</time>
      </trkpt>
      <trkpt lat="42.78611" lon="-7.834411">
        <ele>513.8</ele>
        <time>1970-01-01T00:21:15.000Z</time>
      </trkpt>
      <trkpt lat="42.78607" lon="-7.834361">
        <ele>513.8</ele>
        <time>1970-01-01T00:21:16.000Z</time>
      </trkpt>
      <trkpt lat="42.786025" lon="-7.834312">
        <ele>513.6</ele>
        <time>1970-01-01T00:21:17.000Z</time>
      </trkpt>
      <trkpt lat="42.78598" lon="-7.834259">
        <ele>513.5</ele>
        <time>1970-01-01T00:21:18.000Z</time>
      </trkpt>
      <trkpt lat="42.785934" lon="-7.834206">
        <ele>513.3</ele>
        <time>1970-01-01T00:21:19.000Z</time>
      </trkpt>
      <trkpt lat="42.785886" lon="-7.834153">
        <ele>513.1</ele>
        <time>1970-01-01T00:21:20.000Z</time>
      </trkpt>
      <trkpt lat="42.785837" lon="-7.834103">
        <ele>512.9</ele>
        <time>1970-01-01T00:21:21.000Z</time>
      </trkpt>
      <trkpt lat="42.785784" lon="-7.834057">
        <ele>512.6</ele>
        <time>1970-01-01T00:21:22.000Z</time>
      </trkpt>
      <trkpt lat="42.785727" lon="-7.83402">
        <ele>512.3</ele>
        <time>1970-01-01T00:21:23.000Z</time>
      </trkpt>
      <trkpt lat="42.785669" lon="-7.834003">
        <ele>512</ele>
        <time>1970-01-01T00:21:24.000Z</time>
      </trkpt>
      <trkpt lat="42.785606" lon="-7.833982">
        <ele>511.6</ele>
        <time>1970-01-01T00:21:25.000Z</time>
      </trkpt>
      <trkpt lat="42.785541" lon="-7.833961">
        <ele>511.2</ele>
        <time>1970-01-01T00:21:26.000Z</time>
      </trkpt>
      <trkpt lat="42.785473" lon="-7.833944">
        <ele>510.9</ele>
        <time>1970-01-01T00:21:27.000Z</time>
      </trkpt>
      <trkpt lat="42.785404" lon="-7.833927">
        <ele>510.4</ele>
        <time>1970-01-01T00:21:28.000Z</time>
      </trkpt>
      <trkpt lat="42.785334" lon="-7.833912">
        <ele>510</ele>
        <time>1970-01-01T00:21:29.000Z</time>
      </trkpt>
      <trkpt lat="42.785263" lon="-7.833897">
        <ele>509.6</ele>
        <time>1970-01-01T00:21:30.000Z</time>
      </trkpt>
      <trkpt lat="42.785191" lon="-7.83388">
        <ele>509.3</ele>
        <time>1970-01-01T00:21:31.000Z</time>
      </trkpt>
      <trkpt lat="42.785121" lon="-7.833861">
        <ele>509</ele>
        <time>1970-01-01T00:21:32.000Z</time>
      </trkpt>
      <trkpt lat="42.785049" lon="-7.833845">
        <ele>508.7</ele>
        <time>1970-01-01T00:21:33.000Z</time>
      </trkpt>
      <trkpt lat="42.784979" lon="-7.833829">
        <ele>508.6</ele>
        <time>1970-01-01T00:21:34.000Z</time>
      </trkpt>
      <trkpt lat="42.784907" lon="-7.83381">
        <ele>508.4</ele>
        <time>1970-01-01T00:21:35.000Z</time>
      </trkpt>
      <trkpt lat="42.784837" lon="-7.833789">
        <ele>508.4</ele>
        <time>1970-01-01T00:21:36.000Z</time>
      </trkpt>
      <trkpt lat="42.784767" lon="-7.833762">
        <ele>508.3</ele>
        <time>1970-01-01T00:21:37.000Z</time>
      </trkpt>
      <trkpt lat="42.784699" lon="-7.833728">
        <ele>508.3</ele>
        <time>1970-01-01T00:21:38.000Z</time>
      </trkpt>
      <trkpt lat="42.784634" lon="-7.833689">
        <ele>508.3</ele>
        <time>1970-01-01T00:21:39.000Z</time>
      </trkpt>
      <trkpt lat="42.78457" lon="-7.833647">
        <ele>508.2</ele>
        <time>1970-01-01T00:21:40.000Z</time>
      </trkpt>
      <trkpt lat="42.784507" lon="-7.833599">
        <ele>508</ele>
        <time>1970-01-01T00:21:41.000Z</time>
      </trkpt>
      <trkpt lat="42.784442" lon="-7.833548">
        <ele>507.8</ele>
        <time>1970-01-01T00:21:42.000Z</time>
      </trkpt>
      <trkpt lat="42.784377" lon="-7.833486">
        <ele>507.4</ele>
        <time>1970-01-01T00:21:43.000Z</time>
      </trkpt>
      <trkpt lat="42.784309" lon="-7.833418">
        <ele>506.9</ele>
        <time>1970-01-01T00:21:44.000Z</time>
      </trkpt>
      <trkpt lat="42.784244" lon="-7.83335">
        <ele>506.5</ele>
        <time>1970-01-01T00:21:45.000Z</time>
      </trkpt>
      <trkpt lat="42.784173" lon="-7.833275">
        <ele>506</ele>
        <time>1970-01-01T00:21:46.000Z</time>
      </trkpt>
      <trkpt lat="42.7841" lon="-7.833198">
        <ele>505.4</ele>
        <time>1970-01-01T00:21:47.000Z</time>
      </trkpt>
      <trkpt lat="42.784033" lon="-7.833115">
        <ele>505</ele>
        <time>1970-01-01T00:21:48.000Z</time>
      </trkpt>
      <trkpt lat="42.783976" lon="-7.833023">
        <ele>504.5</ele>
        <time>1970-01-01T00:21:49.000Z</time>
      </trkpt>
      <trkpt lat="42.783929" lon="-7.83292">
        <ele>503.7</ele>
        <time>1970-01-01T00:21:50.000Z</time>
      </trkpt>
      <trkpt lat="42.783897" lon="-7.832812">
        <ele>503.5</ele>
        <time>1970-01-01T00:21:51.000Z</time>
      </trkpt>
      <trkpt lat="42.783876" lon="-7.832704">
        <ele>503.2</ele>
        <time>1970-01-01T00:21:52.000Z</time>
      </trkpt>
      <trkpt lat="42.783851" lon="-7.832609">
        <ele>503</ele>
        <time>1970-01-01T00:21:53.000Z</time>
      </trkpt>
      <trkpt lat="42.783816" lon="-7.832531">
        <ele>502.7</ele>
        <time>1970-01-01T00:21:54.000Z</time>
      </trkpt>
      <trkpt lat="42.783767" lon="-7.832465">
        <ele>502.3</ele>
        <time>1970-01-01T00:21:55.000Z</time>
      </trkpt>
      <trkpt lat="42.783711" lon="-7.83242">
        <ele>502</ele>
        <time>1970-01-01T00:21:56.000Z</time>
      </trkpt>
      <trkpt lat="42.783657" lon="-7.832398">
        <ele>501.7</ele>
        <time>1970-01-01T00:21:57.000Z</time>
      </trkpt>
      <trkpt lat="42.7836" lon="-7.832381">
        <ele>501.5</ele>
        <time>1970-01-01T00:21:58.000Z</time>
      </trkpt>
      <trkpt lat="42.783541" lon="-7.832364">
        <ele>501.3</ele>
        <time>1970-01-01T00:21:59.000Z</time>
      </trkpt>
      <trkpt lat="42.783483" lon="-7.832333">
        <ele>501.2</ele>
        <time>1970-01-01T00:22:00.000Z</time>
      </trkpt>
      <trkpt lat="42.783434" lon="-7.832284">
        <ele>501.1</ele>
        <time>1970-01-01T00:22:01.000Z</time>
      </trkpt>
      <trkpt lat="42.78339" lon="-7.832221">
        <ele>501.1</ele>
        <time>1970-01-01T00:22:02.000Z</time>
      </trkpt>
      <trkpt lat="42.78335" lon="-7.83215">
        <ele>501.1</ele>
        <time>1970-01-01T00:22:03.000Z</time>
      </trkpt>
      <trkpt lat="42.783314" lon="-7.832075">
        <ele>501.1</ele>
        <time>1970-01-01T00:22:04.000Z</time>
      </trkpt>
      <trkpt lat="42.78327" lon="-7.831994">
        <ele>501.1</ele>
        <time>1970-01-01T00:22:05.000Z</time>
      </trkpt>
      <trkpt lat="42.78323" lon="-7.831916">
        <ele>501.1</ele>
        <time>1970-01-01T00:22:06.000Z</time>
      </trkpt>
      <trkpt lat="42.78319" lon="-7.831832">
        <ele>501.2</ele>
        <time>1970-01-01T00:22:07.000Z</time>
      </trkpt>
      <trkpt lat="42.783151" lon="-7.831757">
        <ele>501.3</ele>
        <time>1970-01-01T00:22:08.000Z</time>
      </trkpt>
      <trkpt lat="42.783112" lon="-7.831678">
        <ele>501.4</ele>
        <time>1970-01-01T00:22:09.000Z</time>
      </trkpt>
      <trkpt lat="42.783075" lon="-7.831607">
        <ele>501.5</ele>
        <time>1970-01-01T00:22:10.000Z</time>
      </trkpt>
      <trkpt lat="42.78304" lon="-7.831542">
        <ele>501.6</ele>
        <time>1970-01-01T00:22:11.000Z</time>
      </trkpt>
      <trkpt lat="42.783008" lon="-7.831488">
        <ele>501.7</ele>
        <time>1970-01-01T00:22:12.000Z</time>
      </trkpt>
      <trkpt lat="42.782975" lon="-7.83144">
        <ele>501.9</ele>
        <time>1970-01-01T00:22:13.000Z</time>
      </trkpt>
      <trkpt lat="42.782939" lon="-7.831394">
        <ele>502</ele>
        <time>1970-01-01T00:22:14.000Z</time>
      </trkpt>
      <trkpt lat="42.782906" lon="-7.831346">
        <ele>502.1</ele>
        <time>1970-01-01T00:22:15.000Z</time>
      </trkpt>
      <trkpt lat="42.782873" lon="-7.8313">
        <ele>502.3</ele>
        <time>1970-01-01T00:22:16.000Z</time>
      </trkpt>
      <trkpt lat="42.782844" lon="-7.831267">
        <ele>502.4</ele>
        <time>1970-01-01T00:22:17.000Z</time>
      </trkpt>
      <trkpt lat="42.782812" lon="-7.831229">
        <ele>502.5</ele>
        <time>1970-01-01T00:22:18.000Z</time>
      </trkpt>
      <trkpt lat="42.782779" lon="-7.831188">
        <ele>502.6</ele>
        <time>1970-01-01T00:22:19.000Z</time>
      </trkpt>
      <trkpt lat="42.782743" lon="-7.831156">
        <ele>502.8</ele>
        <time>1970-01-01T00:22:20.000Z</time>
      </trkpt>
      <trkpt lat="42.78271" lon="-7.831129">
        <ele>502.9</ele>
        <time>1970-01-01T00:22:21.000Z</time>
      </trkpt>
      <trkpt lat="42.782682" lon="-7.831109">
        <ele>503.1</ele>
        <time>1970-01-01T00:22:22.000Z</time>
      </trkpt>
      <trkpt lat="42.782652" lon="-7.831084">
        <ele>503.2</ele>
        <time>1970-01-01T00:22:23.000Z</time>
      </trkpt>
      <trkpt lat="42.782623" lon="-7.831063">
        <ele>503.4</ele>
        <time>1970-01-01T00:22:24.000Z</time>
      </trkpt>
      <trkpt lat="42.782592" lon="-7.831045">
        <ele>503.6</ele>
        <time>1970-01-01T00:22:25.000Z</time>
      </trkpt>
      <trkpt lat="42.782565" lon="-7.831028">
        <ele>503.8</ele>
        <time>1970-01-01T00:22:26.000Z</time>
      </trkpt>
      <trkpt lat="42.782539" lon="-7.831016">
        <ele>504</ele>
        <time>1970-01-01T00:22:27.000Z</time>
      </trkpt>
      <trkpt lat="42.782509" lon="-7.831007">
        <ele>504.3</ele>
        <time>1970-01-01T00:22:28.000Z</time>
      </trkpt>
      <trkpt lat="42.782483" lon="-7.831006">
        <ele>504.5</ele>
        <time>1970-01-01T00:22:29.000Z</time>
      </trkpt>
      <trkpt lat="42.782459" lon="-7.83101">
        <ele>504.7</ele>
        <time>1970-01-01T00:22:30.000Z</time>
      </trkpt>
      <trkpt lat="42.782436" lon="-7.831017">
        <ele>505</ele>
        <time>1970-01-01T00:22:31.000Z</time>
      </trkpt>
      <trkpt lat="42.782409" lon="-7.831039">
        <ele>505.3</ele>
        <time>1970-01-01T00:22:32.000Z</time>
      </trkpt>
      <trkpt lat="42.782385" lon="-7.831063">
        <ele>505.6</ele>
        <time>1970-01-01T00:22:33.000Z</time>
      </trkpt>
      <trkpt lat="42.782363" lon="-7.831085">
        <ele>505.9</ele>
        <time>1970-01-01T00:22:34.000Z</time>
      </trkpt>
      <trkpt lat="42.782348" lon="-7.831106">
        <ele>506.1</ele>
        <time>1970-01-01T00:22:35.000Z</time>
      </trkpt>
      <trkpt lat="42.782325" lon="-7.831122">
        <ele>506.4</ele>
        <time>1970-01-01T00:22:36.000Z</time>
      </trkpt>
      <trkpt lat="42.782303" lon="-7.83114">
        <ele>506.6</ele>
        <time>1970-01-01T00:22:37.000Z</time>
      </trkpt>
      <trkpt lat="42.782271" lon="-7.831156">
        <ele>507</ele>
        <time>1970-01-01T00:22:38.000Z</time>
      </trkpt>
      <trkpt lat="42.782248" lon="-7.831176">
        <ele>507.3</ele>
        <time>1970-01-01T00:22:39.000Z</time>
      </trkpt>
      <trkpt lat="42.782226" lon="-7.831193">
        <ele>507.5</ele>
        <time>1970-01-01T00:22:40.000Z</time>
      </trkpt>
      <trkpt lat="42.782207" lon="-7.831217">
        <ele>507.8</ele>
        <time>1970-01-01T00:22:41.000Z</time>
      </trkpt>
      <trkpt lat="42.782181" lon="-7.831242">
        <ele>508.1</ele>
        <time>1970-01-01T00:22:42.000Z</time>
      </trkpt>
      <trkpt lat="42.782154" lon="-7.831273">
        <ele>508.4</ele>
        <time>1970-01-01T00:22:43.000Z</time>
      </trkpt>
      <trkpt lat="42.782134" lon="-7.831299">
        <ele>508.7</ele>
        <time>1970-01-01T00:22:44.000Z</time>
      </trkpt>
      <trkpt lat="42.782104" lon="-7.831335">
        <ele>509</ele>
        <time>1970-01-01T00:22:45.000Z</time>
      </trkpt>
      <trkpt lat="42.782079" lon="-7.831365">
        <ele>509.3</ele>
        <time>1970-01-01T00:22:46.000Z</time>
      </trkpt>
      <trkpt lat="42.782053" lon="-7.831388">
        <ele>509.6</ele>
        <time>1970-01-01T00:22:47.000Z</time>
      </trkpt>
      <trkpt lat="42.782028" lon="-7.831411">
        <ele>509.9</ele>
        <time>1970-01-01T00:22:48.000Z</time>
      </trkpt>
      <trkpt lat="42.782008" lon="-7.831433">
        <ele>510.1</ele>
        <time>1970-01-01T00:22:49.000Z</time>
      </trkpt>
      <trkpt lat="42.781986" lon="-7.831469">
        <ele>510.4</ele>
        <time>1970-01-01T00:22:50.000Z</time>
      </trkpt>
      <trkpt lat="42.781956" lon="-7.831512">
        <ele>510.8</ele>
        <time>1970-01-01T00:22:51.000Z</time>
      </trkpt>
      <trkpt lat="42.78193" lon="-7.83155">
        <ele>511.1</ele>
        <time>1970-01-01T00:22:52.000Z</time>
      </trkpt>
      <trkpt lat="42.781898" lon="-7.83159">
        <ele>511.3</ele>
        <time>1970-01-01T00:22:53.000Z</time>
      </trkpt>
      <trkpt lat="42.781868" lon="-7.831624">
        <ele>511.6</ele>
        <time>1970-01-01T00:22:54.000Z</time>
      </trkpt>
      <trkpt lat="42.781831" lon="-7.831656">
        <ele>511.9</ele>
        <time>1970-01-01T00:22:55.000Z</time>
      </trkpt>
      <trkpt lat="42.781797" lon="-7.831686">
        <ele>512.3</ele>
        <time>1970-01-01T00:22:56.000Z</time>
      </trkpt>
      <trkpt lat="42.781767" lon="-7.831716">
        <ele>512.4</ele>
        <time>1970-01-01T00:22:57.000Z</time>
      </trkpt>
      <trkpt lat="42.781739" lon="-7.831737">
        <ele>512.6</ele>
        <time>1970-01-01T00:22:58.000Z</time>
      </trkpt>
      <trkpt lat="42.781712" lon="-7.831763">
        <ele>512.6</ele>
        <time>1970-01-01T00:22:59.000Z</time>
      </trkpt>
      <trkpt lat="42.781681" lon="-7.831792">
        <ele>512.7</ele>
        <time>1970-01-01T00:23:00.000Z</time>
      </trkpt>
      <trkpt lat="42.781651" lon="-7.831816">
        <ele>512.8</ele>
        <time>1970-01-01T00:23:01.000Z</time>
      </trkpt>
      <trkpt lat="42.781623" lon="-7.831838">
        <ele>512.9</ele>
        <time>1970-01-01T00:23:02.000Z</time>
      </trkpt>
      <trkpt lat="42.781595" lon="-7.831857">
        <ele>513</ele>
        <time>1970-01-01T00:23:03.000Z</time>
      </trkpt>
      <trkpt lat="42.781566" lon="-7.831879">
        <ele>513</ele>
        <time>1970-01-01T00:23:04.000Z</time>
      </trkpt>
      <trkpt lat="42.781537" lon="-7.831908">
        <ele>513.1</ele>
        <time>1970-01-01T00:23:05.000Z</time>
      </trkpt>
      <trkpt lat="42.781506" lon="-7.831944">
        <ele>513.2</ele>
        <time>1970-01-01T00:23:06.000Z</time>
      </trkpt>
      <trkpt lat="42.781477" lon="-7.831979">
        <ele>513.3</ele>
        <time>1970-01-01T00:23:07.000Z</time>
      </trkpt>
      <trkpt lat="42.781448" lon="-7.832017">
        <ele>513.5</ele>
        <time>1970-01-01T00:23:08.000Z</time>
      </trkpt>
      <trkpt lat="42.781418" lon="-7.832046">
        <ele>513.6</ele>
        <time>1970-01-01T00:23:09.000Z</time>
      </trkpt>
      <trkpt lat="42.781387" lon="-7.832082">
        <ele>513.7</ele>
        <time>1970-01-01T00:23:10.000Z</time>
      </trkpt>
      <trkpt lat="42.781354" lon="-7.832122">
        <ele>513.7</ele>
        <time>1970-01-01T00:23:11.000Z</time>
      </trkpt>
      <trkpt lat="42.781321" lon="-7.832163">
        <ele>513.8</ele>
        <time>1970-01-01T00:23:12.000Z</time>
      </trkpt>
      <trkpt lat="42.781291" lon="-7.832199">
        <ele>513.8</ele>
        <time>1970-01-01T00:23:13.000Z</time>
      </trkpt>
      <trkpt lat="42.781265" lon="-7.832231">
        <ele>513.8</ele>
        <time>1970-01-01T00:23:14.000Z</time>
      </trkpt>
      <trkpt lat="42.781237" lon="-7.832265">
        <ele>513.8</ele>
        <time>1970-01-01T00:23:15.000Z</time>
      </trkpt>
      <trkpt lat="42.781209" lon="-7.832297">
        <ele>513.7</ele>
        <time>1970-01-01T00:23:16.000Z</time>
      </trkpt>
      <trkpt lat="42.781179" lon="-7.832329">
        <ele>513.7</ele>
        <time>1970-01-01T00:23:17.000Z</time>
      </trkpt>
      <trkpt lat="42.781153" lon="-7.832361">
        <ele>513.7</ele>
        <time>1970-01-01T00:23:18.000Z</time>
      </trkpt>
      <trkpt lat="42.781124" lon="-7.832392">
        <ele>513.6</ele>
        <time>1970-01-01T00:23:19.000Z</time>
      </trkpt>
      <trkpt lat="42.781098" lon="-7.832425">
        <ele>513.5</ele>
        <time>1970-01-01T00:23:20.000Z</time>
      </trkpt>
      <trkpt lat="42.781073" lon="-7.832459">
        <ele>513.4</ele>
        <time>1970-01-01T00:23:21.000Z</time>
      </trkpt>
      <trkpt lat="42.781046" lon="-7.832498">
        <ele>513.3</ele>
        <time>1970-01-01T00:23:22.000Z</time>
      </trkpt>
      <trkpt lat="42.781013" lon="-7.83254">
        <ele>513.2</ele>
        <time>1970-01-01T00:23:23.000Z</time>
      </trkpt>
      <trkpt lat="42.780975" lon="-7.832586">
        <ele>513</ele>
        <time>1970-01-01T00:23:24.000Z</time>
      </trkpt>
      <trkpt lat="42.780937" lon="-7.832627">
        <ele>512.8</ele>
        <time>1970-01-01T00:23:25.000Z</time>
      </trkpt>
      <trkpt lat="42.780901" lon="-7.832673">
        <ele>512.7</ele>
        <time>1970-01-01T00:23:26.000Z</time>
      </trkpt>
      <trkpt lat="42.780855" lon="-7.832727">
        <ele>512.3</ele>
        <time>1970-01-01T00:23:27.000Z</time>
      </trkpt>
      <trkpt lat="42.780811" lon="-7.832781">
        <ele>511.8</ele>
        <time>1970-01-01T00:23:28.000Z</time>
      </trkpt>
      <trkpt lat="42.780762" lon="-7.832827">
        <ele>511.4</ele>
        <time>1970-01-01T00:23:29.000Z</time>
      </trkpt>
      <trkpt lat="42.780708" lon="-7.832863">
        <ele>511</ele>
        <time>1970-01-01T00:23:30.000Z</time>
      </trkpt>
      <trkpt lat="42.780645" lon="-7.832897">
        <ele>510.7</ele>
        <time>1970-01-01T00:23:31.000Z</time>
      </trkpt>
      <trkpt lat="42.780579" lon="-7.832914">
        <ele>510.4</ele>
        <time>1970-01-01T00:23:32.000Z</time>
      </trkpt>
      <trkpt lat="42.780512" lon="-7.832921">
        <ele>510.1</ele>
        <time>1970-01-01T00:23:33.000Z</time>
      </trkpt>
      <trkpt lat="42.780446" lon="-7.832925">
        <ele>509.9</ele>
        <time>1970-01-01T00:23:34.000Z</time>
      </trkpt>
      <trkpt lat="42.780382" lon="-7.832935">
        <ele>509.6</ele>
        <time>1970-01-01T00:23:35.000Z</time>
      </trkpt>
      <trkpt lat="42.78033" lon="-7.832939">
        <ele>509.4</ele>
        <time>1970-01-01T00:23:36.000Z</time>
      </trkpt>
      <trkpt lat="42.780282" lon="-7.832939">
        <ele>509.2</ele>
        <time>1970-01-01T00:23:37.000Z</time>
      </trkpt>
      <trkpt lat="42.780232" lon="-7.832935">
        <ele>509</ele>
        <time>1970-01-01T00:23:38.000Z</time>
      </trkpt>
      <trkpt lat="42.780186" lon="-7.832929">
        <ele>508.8</ele>
        <time>1970-01-01T00:23:39.000Z</time>
      </trkpt>
      <trkpt lat="42.780148" lon="-7.832924">
        <ele>508.6</ele>
        <time>1970-01-01T00:23:40.000Z</time>
      </trkpt>
      <trkpt lat="42.780098" lon="-7.832922">
        <ele>508.4</ele>
        <time>1970-01-01T00:23:41.000Z</time>
      </trkpt>
      <trkpt lat="42.780047" lon="-7.832924">
        <ele>508.1</ele>
        <time>1970-01-01T00:23:42.000Z</time>
      </trkpt>
      <trkpt lat="42.77999" lon="-7.832934">
        <ele>507.9</ele>
        <time>1970-01-01T00:23:43.000Z</time>
      </trkpt>
      <trkpt lat="42.779936" lon="-7.832938">
        <ele>507.7</ele>
        <time>1970-01-01T00:23:44.000Z</time>
      </trkpt>
      <trkpt lat="42.779881" lon="-7.832934">
        <ele>507.5</ele>
        <time>1970-01-01T00:23:45.000Z</time>
      </trkpt>
      <trkpt lat="42.779828" lon="-7.832923">
        <ele>507.3</ele>
        <time>1970-01-01T00:23:46.000Z</time>
      </trkpt>
      <trkpt lat="42.779774" lon="-7.832911">
        <ele>507.2</ele>
        <time>1970-01-01T00:23:47.000Z</time>
      </trkpt>
      <trkpt lat="42.779725" lon="-7.832893">
        <ele>507.1</ele>
        <time>1970-01-01T00:23:48.000Z</time>
      </trkpt>
      <trkpt lat="42.779681" lon="-7.832873">
        <ele>507</ele>
        <time>1970-01-01T00:23:49.000Z</time>
      </trkpt>
      <trkpt lat="42.779633" lon="-7.832855">
        <ele>506.9</ele>
        <time>1970-01-01T00:23:50.000Z</time>
      </trkpt>
      <trkpt lat="42.779589" lon="-7.832847">
        <ele>506.8</ele>
        <time>1970-01-01T00:23:51.000Z</time>
      </trkpt>
      <trkpt lat="42.779538" lon="-7.832823">
        <ele>506.7</ele>
        <time>1970-01-01T00:23:52.000Z</time>
      </trkpt>
      <trkpt lat="42.779482" lon="-7.832773">
        <ele>506.7</ele>
        <time>1970-01-01T00:23:53.000Z</time>
      </trkpt>
      <trkpt lat="42.779425" lon="-7.832732">
        <ele>506.6</ele>
        <time>1970-01-01T00:23:54.000Z</time>
      </trkpt>
      <trkpt lat="42.779365" lon="-7.832686">
        <ele>506.6</ele>
        <time>1970-01-01T00:23:55.000Z</time>
      </trkpt>
      <trkpt lat="42.779311" lon="-7.832646">
        <ele>506.5</ele>
        <time>1970-01-01T00:23:56.000Z</time>
      </trkpt>
      <trkpt lat="42.779248" lon="-7.832581">
        <ele>506.5</ele>
        <time>1970-01-01T00:23:57.000Z</time>
      </trkpt>
      <trkpt lat="42.779188" lon="-7.832516">
        <ele>506.6</ele>
        <time>1970-01-01T00:23:58.000Z</time>
      </trkpt>
      <trkpt lat="42.779137" lon="-7.832453">
        <ele>506.7</ele>
        <time>1970-01-01T00:23:59.000Z</time>
      </trkpt>
      <trkpt lat="42.779092" lon="-7.832404">
        <ele>506.8</ele>
        <time>1970-01-01T00:24:00.000Z</time>
      </trkpt>
      <trkpt lat="42.779058" lon="-7.832362">
        <ele>506.9</ele>
        <time>1970-01-01T00:24:01.000Z</time>
      </trkpt>
      <trkpt lat="42.779024" lon="-7.832311">
        <ele>507.1</ele>
        <time>1970-01-01T00:24:02.000Z</time>
      </trkpt>
      <trkpt lat="42.778989" lon="-7.83226">
        <ele>507.3</ele>
        <time>1970-01-01T00:24:03.000Z</time>
      </trkpt>
      <trkpt lat="42.778951" lon="-7.832208">
        <ele>507.5</ele>
        <time>1970-01-01T00:24:04.000Z</time>
      </trkpt>
      <trkpt lat="42.778909" lon="-7.832152">
        <ele>507.9</ele>
        <time>1970-01-01T00:24:05.000Z</time>
      </trkpt>
      <trkpt lat="42.778873" lon="-7.832103">
        <ele>508.3</ele>
        <time>1970-01-01T00:24:06.000Z</time>
      </trkpt>
      <trkpt lat="42.778836" lon="-7.83206">
        <ele>508.8</ele>
        <time>1970-01-01T00:24:07.000Z</time>
      </trkpt>
      <trkpt lat="42.778804" lon="-7.832021">
        <ele>509.2</ele>
        <time>1970-01-01T00:24:08.000Z</time>
      </trkpt>
      <trkpt lat="42.778776" lon="-7.831978">
        <ele>509.7</ele>
        <time>1970-01-01T00:24:09.000Z</time>
      </trkpt>
      <trkpt lat="42.778746" lon="-7.831939">
        <ele>510.2</ele>
        <time>1970-01-01T00:24:10.000Z</time>
      </trkpt>
      <trkpt lat="42.778719" lon="-7.831898">
        <ele>510.7</ele>
        <time>1970-01-01T00:24:11.000Z</time>
      </trkpt>
      <trkpt lat="42.778702" lon="-7.831867">
        <ele>511.1</ele>
        <time>1970-01-01T00:24:12.000Z</time>
      </trkpt>
      <trkpt lat="42.778685" lon="-7.83184">
        <ele>511.5</ele>
        <time>1970-01-01T00:24:13.000Z</time>
      </trkpt>
      <trkpt lat="42.778665" lon="-7.83182">
        <ele>511.9</ele>
        <time>1970-01-01T00:24:14.000Z</time>
      </trkpt>
      <trkpt lat="42.778646" lon="-7.831811">
        <ele>512.2</ele>
        <time>1970-01-01T00:24:15.000Z</time>
      </trkpt>
      <trkpt lat="42.778626" lon="-7.831791">
        <ele>512.5</ele>
        <time>1970-01-01T00:24:16.000Z</time>
      </trkpt>
      <trkpt lat="42.778605" lon="-7.831775">
        <ele>512.9</ele>
        <time>1970-01-01T00:24:17.000Z</time>
      </trkpt>
      <trkpt lat="42.778581" lon="-7.831751">
        <ele>513.3</ele>
        <time>1970-01-01T00:24:18.000Z</time>
      </trkpt>
      <trkpt lat="42.778559" lon="-7.831733">
        <ele>513.7</ele>
        <time>1970-01-01T00:24:19.000Z</time>
      </trkpt>
      <trkpt lat="42.778531" lon="-7.831716">
        <ele>514.2</ele>
        <time>1970-01-01T00:24:20.000Z</time>
      </trkpt>
      <trkpt lat="42.778513" lon="-7.831703">
        <ele>514.4</ele>
        <time>1970-01-01T00:24:21.000Z</time>
      </trkpt>
      <trkpt lat="42.778491" lon="-7.831681">
        <ele>514.7</ele>
        <time>1970-01-01T00:24:22.000Z</time>
      </trkpt>
      <trkpt lat="42.778473" lon="-7.831667">
        <ele>514.9</ele>
        <time>1970-01-01T00:24:23.000Z</time>
      </trkpt>
      <trkpt lat="42.778449" lon="-7.83166">
        <ele>515.1</ele>
        <time>1970-01-01T00:24:24.000Z</time>
      </trkpt>
      <trkpt lat="42.778424" lon="-7.831655">
        <ele>515.4</ele>
        <time>1970-01-01T00:24:25.000Z</time>
      </trkpt>
      <trkpt lat="42.778397" lon="-7.831649">
        <ele>515.6</ele>
        <time>1970-01-01T00:24:26.000Z</time>
      </trkpt>
      <trkpt lat="42.77837" lon="-7.83164">
        <ele>516</ele>
        <time>1970-01-01T00:24:27.000Z</time>
      </trkpt>
      <trkpt lat="42.778348" lon="-7.831637">
        <ele>516.3</ele>
        <time>1970-01-01T00:24:28.000Z</time>
      </trkpt>
      <trkpt lat="42.778319" lon="-7.831632">
        <ele>516.7</ele>
        <time>1970-01-01T00:24:29.000Z</time>
      </trkpt>
      <trkpt lat="42.778288" lon="-7.831627">
        <ele>517</ele>
        <time>1970-01-01T00:24:30.000Z</time>
      </trkpt>
      <trkpt lat="42.778256" lon="-7.831616">
        <ele>517.3</ele>
        <time>1970-01-01T00:24:31.000Z</time>
      </trkpt>
      <trkpt lat="42.778224" lon="-7.831604">
        <ele>517.7</ele>
        <time>1970-01-01T00:24:32.000Z</time>
      </trkpt>
      <trkpt lat="42.778189" lon="-7.831586">
        <ele>518</ele>
        <time>1970-01-01T00:24:33.000Z</time>
      </trkpt>
      <trkpt lat="42.77816" lon="-7.83157">
        <ele>518.3</ele>
        <time>1970-01-01T00:24:34.000Z</time>
      </trkpt>
      <trkpt lat="42.778133" lon="-7.831549">
        <ele>518.5</ele>
        <time>1970-01-01T00:24:35.000Z</time>
      </trkpt>
      <trkpt lat="42.778104" lon="-7.831528">
        <ele>518.7</ele>
        <time>1970-01-01T00:24:36.000Z</time>
      </trkpt>
      <trkpt lat="42.778074" lon="-7.831508">
        <ele>518.9</ele>
        <time>1970-01-01T00:24:37.000Z</time>
      </trkpt>
      <trkpt lat="42.778042" lon="-7.831494">
        <ele>519.2</ele>
        <time>1970-01-01T00:24:38.000Z</time>
      </trkpt>
      <trkpt lat="42.77801" lon="-7.831478">
        <ele>519.4</ele>
        <time>1970-01-01T00:24:39.000Z</time>
      </trkpt>
      <trkpt lat="42.777973" lon="-7.831454">
        <ele>519.6</ele>
        <time>1970-01-01T00:24:40.000Z</time>
      </trkpt>
      <trkpt lat="42.777938" lon="-7.831433">
        <ele>519.9</ele>
        <time>1970-01-01T00:24:41.000Z</time>
      </trkpt>
      <trkpt lat="42.777901" lon="-7.831409">
        <ele>520.1</ele>
        <time>1970-01-01T00:24:42.000Z</time>
      </trkpt>
      <trkpt lat="42.777864" lon="-7.831386">
        <ele>520.4</ele>
        <time>1970-01-01T00:24:43.000Z</time>
      </trkpt>
      <trkpt lat="42.777826" lon="-7.831361">
        <ele>520.5</ele>
        <time>1970-01-01T00:24:44.000Z</time>
      </trkpt>
      <trkpt lat="42.777789" lon="-7.831334">
        <ele>520.7</ele>
        <time>1970-01-01T00:24:45.000Z</time>
      </trkpt>
      <trkpt lat="42.777758" lon="-7.831305">
        <ele>520.9</ele>
        <time>1970-01-01T00:24:46.000Z</time>
      </trkpt>
      <trkpt lat="42.777732" lon="-7.831277">
        <ele>521.1</ele>
        <time>1970-01-01T00:24:47.000Z</time>
      </trkpt>
      <trkpt lat="42.777705" lon="-7.831246">
        <ele>521.2</ele>
        <time>1970-01-01T00:24:48.000Z</time>
      </trkpt>
      <trkpt lat="42.777682" lon="-7.831221">
        <ele>521.3</ele>
        <time>1970-01-01T00:24:49.000Z</time>
      </trkpt>
      <trkpt lat="42.77766" lon="-7.831194">
        <ele>521.5</ele>
        <time>1970-01-01T00:24:50.000Z</time>
      </trkpt>
      <trkpt lat="42.777635" lon="-7.831163">
        <ele>521.6</ele>
        <time>1970-01-01T00:24:51.000Z</time>
      </trkpt>
      <trkpt lat="42.77761" lon="-7.83113">
        <ele>521.8</ele>
        <time>1970-01-01T00:24:52.000Z</time>
      </trkpt>
      <trkpt lat="42.777583" lon="-7.831097">
        <ele>522</ele>
        <time>1970-01-01T00:24:53.000Z</time>
      </trkpt>
      <trkpt lat="42.777557" lon="-7.831068">
        <ele>522.3</ele>
        <time>1970-01-01T00:24:54.000Z</time>
      </trkpt>
      <trkpt lat="42.777532" lon="-7.831036">
        <ele>522.4</ele>
        <time>1970-01-01T00:24:55.000Z</time>
      </trkpt>
      <trkpt lat="42.777509" lon="-7.831005">
        <ele>522.6</ele>
        <time>1970-01-01T00:24:56.000Z</time>
      </trkpt>
      <trkpt lat="42.777486" lon="-7.830973">
        <ele>522.8</ele>
        <time>1970-01-01T00:24:57.000Z</time>
      </trkpt>
      <trkpt lat="42.777464" lon="-7.830939">
        <ele>522.9</ele>
        <time>1970-01-01T00:24:58.000Z</time>
      </trkpt>
      <trkpt lat="42.777443" lon="-7.830902">
        <ele>523.1</ele>
        <time>1970-01-01T00:24:59.000Z</time>
      </trkpt>
      <trkpt lat="42.77742" lon="-7.830866">
        <ele>523.2</ele>
        <time>1970-01-01T00:25:00.000Z</time>
      </trkpt>
      <trkpt lat="42.777399" lon="-7.830831">
        <ele>523.4</ele>
        <time>1970-01-01T00:25:01.000Z</time>
      </trkpt>
      <trkpt lat="42.777379" lon="-7.830795">
        <ele>523.5</ele>
        <time>1970-01-01T00:25:02.000Z</time>
      </trkpt>
      <trkpt lat="42.777359" lon="-7.83076">
        <ele>523.6</ele>
        <time>1970-01-01T00:25:03.000Z</time>
      </trkpt>
      <trkpt lat="42.777338" lon="-7.830725">
        <ele>523.7</ele>
        <time>1970-01-01T00:25:04.000Z</time>
      </trkpt>
      <trkpt lat="42.777317" lon="-7.83069">
        <ele>523.7</ele>
        <time>1970-01-01T00:25:05.000Z</time>
      </trkpt>
      <trkpt lat="42.777298" lon="-7.830662">
        <ele>523.8</ele>
        <time>1970-01-01T00:25:06.000Z</time>
      </trkpt>
      <trkpt lat="42.777278" lon="-7.830636">
        <ele>523.9</ele>
        <time>1970-01-01T00:25:07.000Z</time>
      </trkpt>
      <trkpt lat="42.777255" lon="-7.830609">
        <ele>524</ele>
        <time>1970-01-01T00:25:08.000Z</time>
      </trkpt>
      <trkpt lat="42.777228" lon="-7.830586">
        <ele>524</ele>
        <time>1970-01-01T00:25:09.000Z</time>
      </trkpt>
      <trkpt lat="42.777197" lon="-7.830569">
        <ele>524.1</ele>
        <time>1970-01-01T00:25:10.000Z</time>
      </trkpt>
      <trkpt lat="42.777165" lon="-7.830559">
        <ele>524.1</ele>
        <time>1970-01-01T00:25:11.000Z</time>
      </trkpt>
      <trkpt lat="42.777131" lon="-7.830558">
        <ele>524.1</ele>
        <time>1970-01-01T00:25:12.000Z</time>
      </trkpt>
      <trkpt lat="42.777097" lon="-7.830561">
        <ele>524</ele>
        <time>1970-01-01T00:25:13.000Z</time>
      </trkpt>
      <trkpt lat="42.777062" lon="-7.830565">
        <ele>524</ele>
        <time>1970-01-01T00:25:14.000Z</time>
      </trkpt>
      <trkpt lat="42.777026" lon="-7.830571">
        <ele>523.9</ele>
        <time>1970-01-01T00:25:15.000Z</time>
      </trkpt>
      <trkpt lat="42.776992" lon="-7.83058">
        <ele>523.8</ele>
        <time>1970-01-01T00:25:16.000Z</time>
      </trkpt>
      <trkpt lat="42.776959" lon="-7.830587">
        <ele>523.8</ele>
        <time>1970-01-01T00:25:17.000Z</time>
      </trkpt>
      <trkpt lat="42.776923" lon="-7.830588">
        <ele>523.7</ele>
        <time>1970-01-01T00:25:18.000Z</time>
      </trkpt>
      <trkpt lat="42.776885" lon="-7.830587">
        <ele>523.7</ele>
        <time>1970-01-01T00:25:19.000Z</time>
      </trkpt>
      <trkpt lat="42.776844" lon="-7.830589">
        <ele>523.6</ele>
        <time>1970-01-01T00:25:20.000Z</time>
      </trkpt>
      <trkpt lat="42.776803" lon="-7.830592">
        <ele>523.5</ele>
        <time>1970-01-01T00:25:21.000Z</time>
      </trkpt>
      <trkpt lat="42.776761" lon="-7.830593">
        <ele>523.4</ele>
        <time>1970-01-01T00:25:22.000Z</time>
      </trkpt>
      <trkpt lat="42.776718" lon="-7.830593">
        <ele>523.3</ele>
        <time>1970-01-01T00:25:23.000Z</time>
      </trkpt>
      <trkpt lat="42.776674" lon="-7.830593">
        <ele>523.2</ele>
        <time>1970-01-01T00:25:24.000Z</time>
      </trkpt>
      <trkpt lat="42.776628" lon="-7.830593">
        <ele>523.1</ele>
        <time>1970-01-01T00:25:25.000Z</time>
      </trkpt>
      <trkpt lat="42.776581" lon="-7.830595">
        <ele>523</ele>
        <time>1970-01-01T00:25:26.000Z</time>
      </trkpt>
      <trkpt lat="42.776534" lon="-7.830596">
        <ele>522.9</ele>
        <time>1970-01-01T00:25:27.000Z</time>
      </trkpt>
      <trkpt lat="42.776485" lon="-7.830595">
        <ele>522.8</ele>
        <time>1970-01-01T00:25:28.000Z</time>
      </trkpt>
      <trkpt lat="42.776434" lon="-7.830592">
        <ele>522.7</ele>
        <time>1970-01-01T00:25:29.000Z</time>
      </trkpt>
      <trkpt lat="42.77638" lon="-7.830592">
        <ele>522.5</ele>
        <time>1970-01-01T00:25:30.000Z</time>
      </trkpt>
      <trkpt lat="42.776325" lon="-7.830593">
        <ele>522.4</ele>
        <time>1970-01-01T00:25:31.000Z</time>
      </trkpt>
      <trkpt lat="42.776268" lon="-7.830594">
        <ele>522.2</ele>
        <time>1970-01-01T00:25:32.000Z</time>
      </trkpt>
      <trkpt lat="42.776211" lon="-7.830594">
        <ele>522.1</ele>
        <time>1970-01-01T00:25:33.000Z</time>
      </trkpt>
      <trkpt lat="42.776154" lon="-7.830595">
        <ele>521.9</ele>
        <time>1970-01-01T00:25:34.000Z</time>
      </trkpt>
      <trkpt lat="42.776099" lon="-7.830596">
        <ele>521.8</ele>
        <time>1970-01-01T00:25:35.000Z</time>
      </trkpt>
      <trkpt lat="42.776044" lon="-7.830595">
        <ele>521.6</ele>
        <time>1970-01-01T00:25:36.000Z</time>
      </trkpt>
      <trkpt lat="42.775988" lon="-7.830594">
        <ele>521.5</ele>
        <time>1970-01-01T00:25:37.000Z</time>
      </trkpt>
      <trkpt lat="42.775934" lon="-7.830595">
        <ele>521.2</ele>
        <time>1970-01-01T00:25:38.000Z</time>
      </trkpt>
      <trkpt lat="42.77588" lon="-7.830599">
        <ele>521</ele>
        <time>1970-01-01T00:25:39.000Z</time>
      </trkpt>
      <trkpt lat="42.775828" lon="-7.830602">
        <ele>520.9</ele>
        <time>1970-01-01T00:25:40.000Z</time>
      </trkpt>
      <trkpt lat="42.775776" lon="-7.830602">
        <ele>520.7</ele>
        <time>1970-01-01T00:25:41.000Z</time>
      </trkpt>
      <trkpt lat="42.775725" lon="-7.830603">
        <ele>520.6</ele>
        <time>1970-01-01T00:25:42.000Z</time>
      </trkpt>
      <trkpt lat="42.775675" lon="-7.830605">
        <ele>520.4</ele>
        <time>1970-01-01T00:25:43.000Z</time>
      </trkpt>
      <trkpt lat="42.775627" lon="-7.830606">
        <ele>520.3</ele>
        <time>1970-01-01T00:25:44.000Z</time>
      </trkpt>
      <trkpt lat="42.775579" lon="-7.830607">
        <ele>520.2</ele>
        <time>1970-01-01T00:25:45.000Z</time>
      </trkpt>
      <trkpt lat="42.775531" lon="-7.83061">
        <ele>520.1</ele>
        <time>1970-01-01T00:25:46.000Z</time>
      </trkpt>
      <trkpt lat="42.775483" lon="-7.83061">
        <ele>520.1</ele>
        <time>1970-01-01T00:25:47.000Z</time>
      </trkpt>
      <trkpt lat="42.775438" lon="-7.83061">
        <ele>520</ele>
        <time>1970-01-01T00:25:48.000Z</time>
      </trkpt>
      <trkpt lat="42.775392" lon="-7.83061">
        <ele>519.9</ele>
        <time>1970-01-01T00:25:49.000Z</time>
      </trkpt>
      <trkpt lat="42.775343" lon="-7.83061">
        <ele>519.8</ele>
        <time>1970-01-01T00:25:50.000Z</time>
      </trkpt>
      <trkpt lat="42.775288" lon="-7.830608">
        <ele>519.7</ele>
        <time>1970-01-01T00:25:51.000Z</time>
      </trkpt>
      <trkpt lat="42.775233" lon="-7.830608">
        <ele>519.7</ele>
        <time>1970-01-01T00:25:52.000Z</time>
      </trkpt>
      <trkpt lat="42.77518" lon="-7.83061">
        <ele>519.7</ele>
        <time>1970-01-01T00:25:53.000Z</time>
      </trkpt>
      <trkpt lat="42.775128" lon="-7.830612">
        <ele>519.6</ele>
        <time>1970-01-01T00:25:54.000Z</time>
      </trkpt>
      <trkpt lat="42.775075" lon="-7.830616">
        <ele>519.6</ele>
        <time>1970-01-01T00:25:55.000Z</time>
      </trkpt>
      <trkpt lat="42.775023" lon="-7.83062">
        <ele>519.6</ele>
        <time>1970-01-01T00:25:56.000Z</time>
      </trkpt>
      <trkpt lat="42.774976" lon="-7.830622">
        <ele>519.6</ele>
        <time>1970-01-01T00:25:57.000Z</time>
      </trkpt>
      <trkpt lat="42.77493" lon="-7.830624">
        <ele>519.7</ele>
        <time>1970-01-01T00:25:58.000Z</time>
      </trkpt>
      <trkpt lat="42.774881" lon="-7.830629">
        <ele>519.8</ele>
        <time>1970-01-01T00:25:59.000Z</time>
      </trkpt>
      <trkpt lat="42.774834" lon="-7.830639">
        <ele>519.8</ele>
        <time>1970-01-01T00:26:00.000Z</time>
      </trkpt>
      <trkpt lat="42.774789" lon="-7.830653">
        <ele>519.9</ele>
        <time>1970-01-01T00:26:01.000Z</time>
      </trkpt>
      <trkpt lat="42.774745" lon="-7.83067">
        <ele>519.9</ele>
        <time>1970-01-01T00:26:02.000Z</time>
      </trkpt>
      <trkpt lat="42.774701" lon="-7.830686">
        <ele>520</ele>
        <time>1970-01-01T00:26:03.000Z</time>
      </trkpt>
      <trkpt lat="42.77466" lon="-7.8307">
        <ele>520</ele>
        <time>1970-01-01T00:26:04.000Z</time>
      </trkpt>
      <trkpt lat="42.774622" lon="-7.830712">
        <ele>520.1</ele>
        <time>1970-01-01T00:26:05.000Z</time>
      </trkpt>
      <trkpt lat="42.774584" lon="-7.830726">
        <ele>520.1</ele>
        <time>1970-01-01T00:26:06.000Z</time>
      </trkpt>
      <trkpt lat="42.774545" lon="-7.830742">
        <ele>520.1</ele>
        <time>1970-01-01T00:26:07.000Z</time>
      </trkpt>
      <trkpt lat="42.774503" lon="-7.830759">
        <ele>520.2</ele>
        <time>1970-01-01T00:26:08.000Z</time>
      </trkpt>
      <trkpt lat="42.774459" lon="-7.830779">
        <ele>520.2</ele>
        <time>1970-01-01T00:26:09.000Z</time>
      </trkpt>
      <trkpt lat="42.774414" lon="-7.830803">
        <ele>520.3</ele>
        <time>1970-01-01T00:26:10.000Z</time>
      </trkpt>
      <trkpt lat="42.774371" lon="-7.830825">
        <ele>520.3</ele>
        <time>1970-01-01T00:26:11.000Z</time>
      </trkpt>
      <trkpt lat="42.774328" lon="-7.830843">
        <ele>520.3</ele>
        <time>1970-01-01T00:26:12.000Z</time>
      </trkpt>
      <trkpt lat="42.774286" lon="-7.830859">
        <ele>520.3</ele>
        <time>1970-01-01T00:26:13.000Z</time>
      </trkpt>
      <trkpt lat="42.774245" lon="-7.830875">
        <ele>520.3</ele>
        <time>1970-01-01T00:26:14.000Z</time>
      </trkpt>
      <trkpt lat="42.774206" lon="-7.830891">
        <ele>520.4</ele>
        <time>1970-01-01T00:26:15.000Z</time>
      </trkpt>
      <trkpt lat="42.774168" lon="-7.830907">
        <ele>520.4</ele>
        <time>1970-01-01T00:26:16.000Z</time>
      </trkpt>
      <trkpt lat="42.774131" lon="-7.830922">
        <ele>520.4</ele>
        <time>1970-01-01T00:26:17.000Z</time>
      </trkpt>
      <trkpt lat="42.774096" lon="-7.830936">
        <ele>520.4</ele>
        <time>1970-01-01T00:26:18.000Z</time>
      </trkpt>
      <trkpt lat="42.77406" lon="-7.830949">
        <ele>520.4</ele>
        <time>1970-01-01T00:26:19.000Z</time>
      </trkpt>
      <trkpt lat="42.774023" lon="-7.830965">
        <ele>520.3</ele>
        <time>1970-01-01T00:26:20.000Z</time>
      </trkpt>
      <trkpt lat="42.773986" lon="-7.830983">
        <ele>520.3</ele>
        <time>1970-01-01T00:26:21.000Z</time>
      </trkpt>
      <trkpt lat="42.77395" lon="-7.830997">
        <ele>520.3</ele>
        <time>1970-01-01T00:26:22.000Z</time>
      </trkpt>
      <trkpt lat="42.773915" lon="-7.831009">
        <ele>520.3</ele>
        <time>1970-01-01T00:26:23.000Z</time>
      </trkpt>
      <trkpt lat="42.773876" lon="-7.831019">
        <ele>520.3</ele>
        <time>1970-01-01T00:26:24.000Z</time>
      </trkpt>
      <trkpt lat="42.773836" lon="-7.831027">
        <ele>520.2</ele>
        <time>1970-01-01T00:26:25.000Z</time>
      </trkpt>
      <trkpt lat="42.773797" lon="-7.831036">
        <ele>520.1</ele>
        <time>1970-01-01T00:26:26.000Z</time>
      </trkpt>
      <trkpt lat="42.773757" lon="-7.831049">
        <ele>520</ele>
        <time>1970-01-01T00:26:27.000Z</time>
      </trkpt>
      <trkpt lat="42.773716" lon="-7.831059">
        <ele>519.9</ele>
        <time>1970-01-01T00:26:28.000Z</time>
      </trkpt>
      <trkpt lat="42.773675" lon="-7.831068">
        <ele>519.8</ele>
        <time>1970-01-01T00:26:29.000Z</time>
      </trkpt>
      <trkpt lat="42.773632" lon="-7.831074">
        <ele>519.7</ele>
        <time>1970-01-01T00:26:30.000Z</time>
      </trkpt>
      <trkpt lat="42.773589" lon="-7.831079">
        <ele>519.5</ele>
        <time>1970-01-01T00:26:31.000Z</time>
      </trkpt>
      <trkpt lat="42.773544" lon="-7.831082">
        <ele>519.4</ele>
        <time>1970-01-01T00:26:32.000Z</time>
      </trkpt>
      <trkpt lat="42.773498" lon="-7.831086">
        <ele>519.3</ele>
        <time>1970-01-01T00:26:33.000Z</time>
      </trkpt>
      <trkpt lat="42.773452" lon="-7.83109">
        <ele>519.2</ele>
        <time>1970-01-01T00:26:34.000Z</time>
      </trkpt>
      <trkpt lat="42.773403" lon="-7.831092">
        <ele>519</ele>
        <time>1970-01-01T00:26:35.000Z</time>
      </trkpt>
      <trkpt lat="42.773354" lon="-7.831093">
        <ele>518.9</ele>
        <time>1970-01-01T00:26:36.000Z</time>
      </trkpt>
      <trkpt lat="42.773303" lon="-7.831094">
        <ele>518.7</ele>
        <time>1970-01-01T00:26:37.000Z</time>
      </trkpt>
      <trkpt lat="42.773252" lon="-7.831097">
        <ele>518.5</ele>
        <time>1970-01-01T00:26:38.000Z</time>
      </trkpt>
      <trkpt lat="42.7732" lon="-7.831101">
        <ele>518.2</ele>
        <time>1970-01-01T00:26:39.000Z</time>
      </trkpt>
      <trkpt lat="42.773145" lon="-7.831104">
        <ele>518</ele>
        <time>1970-01-01T00:26:40.000Z</time>
      </trkpt>
      <trkpt lat="42.773091" lon="-7.831105">
        <ele>517.8</ele>
        <time>1970-01-01T00:26:41.000Z</time>
      </trkpt>
      <trkpt lat="42.773036" lon="-7.831106">
        <ele>517.5</ele>
        <time>1970-01-01T00:26:42.000Z</time>
      </trkpt>
      <trkpt lat="42.772982" lon="-7.831109">
        <ele>517.2</ele>
        <time>1970-01-01T00:26:43.000Z</time>
      </trkpt>
      <trkpt lat="42.772927" lon="-7.831115">
        <ele>517</ele>
        <time>1970-01-01T00:26:44.000Z</time>
      </trkpt>
      <trkpt lat="42.772871" lon="-7.831118">
        <ele>516.8</ele>
        <time>1970-01-01T00:26:45.000Z</time>
      </trkpt>
      <trkpt lat="42.772815" lon="-7.83112">
        <ele>516.6</ele>
        <time>1970-01-01T00:26:46.000Z</time>
      </trkpt>
      <trkpt lat="42.772759" lon="-7.831127">
        <ele>516.4</ele>
        <time>1970-01-01T00:26:47.000Z</time>
      </trkpt>
      <trkpt lat="42.772704" lon="-7.83114">
        <ele>516.3</ele>
        <time>1970-01-01T00:26:48.000Z</time>
      </trkpt>
      <trkpt lat="42.772648" lon="-7.831159">
        <ele>516.1</ele>
        <time>1970-01-01T00:26:49.000Z</time>
      </trkpt>
      <trkpt lat="42.772592" lon="-7.831179">
        <ele>516</ele>
        <time>1970-01-01T00:26:50.000Z</time>
      </trkpt>
      <trkpt lat="42.772533" lon="-7.831199">
        <ele>515.8</ele>
        <time>1970-01-01T00:26:51.000Z</time>
      </trkpt>
      <trkpt lat="42.772474" lon="-7.831217">
        <ele>515.7</ele>
        <time>1970-01-01T00:26:52.000Z</time>
      </trkpt>
      <trkpt lat="42.772415" lon="-7.831234">
        <ele>515.5</ele>
        <time>1970-01-01T00:26:53.000Z</time>
      </trkpt>
      <trkpt lat="42.772356" lon="-7.831255">
        <ele>515.2</ele>
        <time>1970-01-01T00:26:54.000Z</time>
      </trkpt>
      <trkpt lat="42.772299" lon="-7.831282">
        <ele>514.9</ele>
        <time>1970-01-01T00:26:55.000Z</time>
      </trkpt>
      <trkpt lat="42.772243" lon="-7.831309">
        <ele>514.7</ele>
        <time>1970-01-01T00:26:56.000Z</time>
      </trkpt>
      <trkpt lat="42.772192" lon="-7.831343">
        <ele>514.6</ele>
        <time>1970-01-01T00:26:57.000Z</time>
      </trkpt>
      <trkpt lat="42.772142" lon="-7.831377">
        <ele>514.4</ele>
        <time>1970-01-01T00:26:58.000Z</time>
      </trkpt>
      <trkpt lat="42.772097" lon="-7.831409">
        <ele>514.3</ele>
        <time>1970-01-01T00:26:59.000Z</time>
      </trkpt>
      <trkpt lat="42.772053" lon="-7.831449">
        <ele>514.2</ele>
        <time>1970-01-01T00:27:00.000Z</time>
      </trkpt>
      <trkpt lat="42.772006" lon="-7.83149">
        <ele>514.2</ele>
        <time>1970-01-01T00:27:01.000Z</time>
      </trkpt>
      <trkpt lat="42.771961" lon="-7.831526">
        <ele>514.1</ele>
        <time>1970-01-01T00:27:02.000Z</time>
      </trkpt>
      <trkpt lat="42.771915" lon="-7.831565">
        <ele>514.1</ele>
        <time>1970-01-01T00:27:03.000Z</time>
      </trkpt>
      <trkpt lat="42.771874" lon="-7.831595">
        <ele>514.1</ele>
        <time>1970-01-01T00:27:04.000Z</time>
      </trkpt>
      <trkpt lat="42.771837" lon="-7.831625">
        <ele>514</ele>
        <time>1970-01-01T00:27:05.000Z</time>
      </trkpt>
      <trkpt lat="42.771807" lon="-7.831658">
        <ele>514</ele>
        <time>1970-01-01T00:27:06.000Z</time>
      </trkpt>
      <trkpt lat="42.771788" lon="-7.831697">
        <ele>513.9</ele>
        <time>1970-01-01T00:27:07.000Z</time>
      </trkpt>
      <trkpt lat="42.771776" lon="-7.831737">
        <ele>513.6</ele>
        <time>1970-01-01T00:27:08.000Z</time>
      </trkpt>
      <trkpt lat="42.771769" lon="-7.831788">
        <ele>513.3</ele>
        <time>1970-01-01T00:27:09.000Z</time>
      </trkpt>
      <trkpt lat="42.771767" lon="-7.831837">
        <ele>513</ele>
        <time>1970-01-01T00:27:10.000Z</time>
      </trkpt>
      <trkpt lat="42.771766" lon="-7.831889">
        <ele>512.6</ele>
        <time>1970-01-01T00:27:11.000Z</time>
      </trkpt>
      <trkpt lat="42.771772" lon="-7.831938">
        <ele>512.3</ele>
        <time>1970-01-01T00:27:12.000Z</time>
      </trkpt>
      <trkpt lat="42.771781" lon="-7.83199">
        <ele>512</ele>
        <time>1970-01-01T00:27:13.000Z</time>
      </trkpt>
      <trkpt lat="42.771791" lon="-7.832043">
        <ele>511.7</ele>
        <time>1970-01-01T00:27:14.000Z</time>
      </trkpt>
      <trkpt lat="42.771805" lon="-7.832097">
        <ele>511.5</ele>
        <time>1970-01-01T00:27:15.000Z</time>
      </trkpt>
      <trkpt lat="42.771819" lon="-7.832148">
        <ele>511.3</ele>
        <time>1970-01-01T00:27:16.000Z</time>
      </trkpt>
      <trkpt lat="42.771827" lon="-7.8322">
        <ele>511.1</ele>
        <time>1970-01-01T00:27:17.000Z</time>
      </trkpt>
      <trkpt lat="42.771828" lon="-7.832253">
        <ele>511</ele>
        <time>1970-01-01T00:27:18.000Z</time>
      </trkpt>
      <trkpt lat="42.771825" lon="-7.832307">
        <ele>511</ele>
        <time>1970-01-01T00:27:19.000Z</time>
      </trkpt>
      <trkpt lat="42.771819" lon="-7.83236">
        <ele>511</ele>
        <time>1970-01-01T00:27:20.000Z</time>
      </trkpt>
      <trkpt lat="42.771812" lon="-7.832413">
        <ele>510.9</ele>
        <time>1970-01-01T00:27:21.000Z</time>
      </trkpt>
      <trkpt lat="42.771804" lon="-7.832463">
        <ele>511</ele>
        <time>1970-01-01T00:27:22.000Z</time>
      </trkpt>
      <trkpt lat="42.771796" lon="-7.832517">
        <ele>511</ele>
        <time>1970-01-01T00:27:23.000Z</time>
      </trkpt>
      <trkpt lat="42.771787" lon="-7.832574">
        <ele>511.1</ele>
        <time>1970-01-01T00:27:24.000Z</time>
      </trkpt>
      <trkpt lat="42.771777" lon="-7.832633">
        <ele>511.1</ele>
        <time>1970-01-01T00:27:25.000Z</time>
      </trkpt>
      <trkpt lat="42.771769" lon="-7.832689">
        <ele>511.2</ele>
        <time>1970-01-01T00:27:26.000Z</time>
      </trkpt>
      <trkpt lat="42.77176" lon="-7.832745">
        <ele>511.3</ele>
        <time>1970-01-01T00:27:27.000Z</time>
      </trkpt>
      <trkpt lat="42.771752" lon="-7.832797">
        <ele>511.3</ele>
        <time>1970-01-01T00:27:28.000Z</time>
      </trkpt>
      <trkpt lat="42.771745" lon="-7.83285">
        <ele>511.3</ele>
        <time>1970-01-01T00:27:29.000Z</time>
      </trkpt>
      <trkpt lat="42.771738" lon="-7.832905">
        <ele>511.3</ele>
        <time>1970-01-01T00:27:30.000Z</time>
      </trkpt>
      <trkpt lat="42.77173" lon="-7.832961">
        <ele>511.3</ele>
        <time>1970-01-01T00:27:31.000Z</time>
      </trkpt>
      <trkpt lat="42.77172" lon="-7.833016">
        <ele>511.2</ele>
        <time>1970-01-01T00:27:32.000Z</time>
      </trkpt>
      <trkpt lat="42.77171" lon="-7.83307">
        <ele>511.2</ele>
        <time>1970-01-01T00:27:33.000Z</time>
      </trkpt>
      <trkpt lat="42.771699" lon="-7.833125">
        <ele>511.1</ele>
        <time>1970-01-01T00:27:34.000Z</time>
      </trkpt>
      <trkpt lat="42.771688" lon="-7.833181">
        <ele>511</ele>
        <time>1970-01-01T00:27:35.000Z</time>
      </trkpt>
      <trkpt lat="42.771674" lon="-7.833238">
        <ele>511</ele>
        <time>1970-01-01T00:27:36.000Z</time>
      </trkpt>
      <trkpt lat="42.771661" lon="-7.833297">
        <ele>510.9</ele>
        <time>1970-01-01T00:27:37.000Z</time>
      </trkpt>
      <trkpt lat="42.771647" lon="-7.833358">
        <ele>510.8</ele>
        <time>1970-01-01T00:27:38.000Z</time>
      </trkpt>
      <trkpt lat="42.771632" lon="-7.83342">
        <ele>510.7</ele>
        <time>1970-01-01T00:27:39.000Z</time>
      </trkpt>
      <trkpt lat="42.771616" lon="-7.833485">
        <ele>510.7</ele>
        <time>1970-01-01T00:27:40.000Z</time>
      </trkpt>
      <trkpt lat="42.771599" lon="-7.833552">
        <ele>510.7</ele>
        <time>1970-01-01T00:27:41.000Z</time>
      </trkpt>
      <trkpt lat="42.771583" lon="-7.833622">
        <ele>510.8</ele>
        <time>1970-01-01T00:27:42.000Z</time>
      </trkpt>
      <trkpt lat="42.771567" lon="-7.833692">
        <ele>510.8</ele>
        <time>1970-01-01T00:27:43.000Z</time>
      </trkpt>
      <trkpt lat="42.771551" lon="-7.833762">
        <ele>510.8</ele>
        <time>1970-01-01T00:27:44.000Z</time>
      </trkpt>
      <trkpt lat="42.771535" lon="-7.833827">
        <ele>510.7</ele>
        <time>1970-01-01T00:27:45.000Z</time>
      </trkpt>
      <trkpt lat="42.771519" lon="-7.833889">
        <ele>510.6</ele>
        <time>1970-01-01T00:27:46.000Z</time>
      </trkpt>
      <trkpt lat="42.771505" lon="-7.833951">
        <ele>510.5</ele>
        <time>1970-01-01T00:27:47.000Z</time>
      </trkpt>
      <trkpt lat="42.771491" lon="-7.834013">
        <ele>510.4</ele>
        <time>1970-01-01T00:27:48.000Z</time>
      </trkpt>
      <trkpt lat="42.771476" lon="-7.834075">
        <ele>510.2</ele>
        <time>1970-01-01T00:27:49.000Z</time>
      </trkpt>
      <trkpt lat="42.77146" lon="-7.834137">
        <ele>510</ele>
        <time>1970-01-01T00:27:50.000Z</time>
      </trkpt>
      <trkpt lat="42.771446" lon="-7.834197">
        <ele>509.9</ele>
        <time>1970-01-01T00:27:51.000Z</time>
      </trkpt>
      <trkpt lat="42.771431" lon="-7.834255">
        <ele>509.7</ele>
        <time>1970-01-01T00:27:52.000Z</time>
      </trkpt>
      <trkpt lat="42.771418" lon="-7.834311">
        <ele>509.6</ele>
        <time>1970-01-01T00:27:53.000Z</time>
      </trkpt>
      <trkpt lat="42.771405" lon="-7.834367">
        <ele>509.4</ele>
        <time>1970-01-01T00:27:54.000Z</time>
      </trkpt>
      <trkpt lat="42.771392" lon="-7.834424">
        <ele>509.4</ele>
        <time>1970-01-01T00:27:55.000Z</time>
      </trkpt>
      <trkpt lat="42.771378" lon="-7.834484">
        <ele>509.3</ele>
        <time>1970-01-01T00:27:56.000Z</time>
      </trkpt>
      <trkpt lat="42.771363" lon="-7.834543">
        <ele>509.3</ele>
        <time>1970-01-01T00:27:57.000Z</time>
      </trkpt>
      <trkpt lat="42.771346" lon="-7.834601">
        <ele>509.2</ele>
        <time>1970-01-01T00:27:58.000Z</time>
      </trkpt>
      <trkpt lat="42.771328" lon="-7.83466">
        <ele>509.1</ele>
        <time>1970-01-01T00:27:59.000Z</time>
      </trkpt>
      <trkpt lat="42.771311" lon="-7.834719">
        <ele>509</ele>
        <time>1970-01-01T00:28:00.000Z</time>
      </trkpt>
      <trkpt lat="42.771296" lon="-7.834777">
        <ele>508.9</ele>
        <time>1970-01-01T00:28:01.000Z</time>
      </trkpt>
      <trkpt lat="42.771282" lon="-7.834834">
        <ele>508.8</ele>
        <time>1970-01-01T00:28:02.000Z</time>
      </trkpt>
      <trkpt lat="42.771269" lon="-7.834893">
        <ele>508.7</ele>
        <time>1970-01-01T00:28:03.000Z</time>
      </trkpt>
      <trkpt lat="42.77126" lon="-7.834952">
        <ele>508.6</ele>
        <time>1970-01-01T00:28:04.000Z</time>
      </trkpt>
      <trkpt lat="42.771257" lon="-7.835013">
        <ele>508.5</ele>
        <time>1970-01-01T00:28:05.000Z</time>
      </trkpt>
      <trkpt lat="42.771256" lon="-7.835073">
        <ele>508.4</ele>
        <time>1970-01-01T00:28:06.000Z</time>
      </trkpt>
      <trkpt lat="42.771251" lon="-7.835133">
        <ele>508.3</ele>
        <time>1970-01-01T00:28:07.000Z</time>
      </trkpt>
      <trkpt lat="42.77124" lon="-7.835194">
        <ele>508.1</ele>
        <time>1970-01-01T00:28:08.000Z</time>
      </trkpt>
      <trkpt lat="42.771226" lon="-7.835258">
        <ele>508</ele>
        <time>1970-01-01T00:28:09.000Z</time>
      </trkpt>
      <trkpt lat="42.77121" lon="-7.83532">
        <ele>507.9</ele>
        <time>1970-01-01T00:28:10.000Z</time>
      </trkpt>
      <trkpt lat="42.771193" lon="-7.83538">
        <ele>507.8</ele>
        <time>1970-01-01T00:28:11.000Z</time>
      </trkpt>
      <trkpt lat="42.771179" lon="-7.835439">
        <ele>507.6</ele>
        <time>1970-01-01T00:28:12.000Z</time>
      </trkpt>
      <trkpt lat="42.771162" lon="-7.835498">
        <ele>507.4</ele>
        <time>1970-01-01T00:28:13.000Z</time>
      </trkpt>
      <trkpt lat="42.77114" lon="-7.835555">
        <ele>507.2</ele>
        <time>1970-01-01T00:28:14.000Z</time>
      </trkpt>
      <trkpt lat="42.77112" lon="-7.835609">
        <ele>507</ele>
        <time>1970-01-01T00:28:15.000Z</time>
      </trkpt>
      <trkpt lat="42.771098" lon="-7.835662">
        <ele>506.8</ele>
        <time>1970-01-01T00:28:16.000Z</time>
      </trkpt>
      <trkpt lat="42.771077" lon="-7.835716">
        <ele>506.6</ele>
        <time>1970-01-01T00:28:17.000Z</time>
      </trkpt>
      <trkpt lat="42.771057" lon="-7.835773">
        <ele>506.5</ele>
        <time>1970-01-01T00:28:18.000Z</time>
      </trkpt>
      <trkpt lat="42.771035" lon="-7.83583">
        <ele>506.3</ele>
        <time>1970-01-01T00:28:19.000Z</time>
      </trkpt>
      <trkpt lat="42.771013" lon="-7.835886">
        <ele>506.2</ele>
        <time>1970-01-01T00:28:20.000Z</time>
      </trkpt>
      <trkpt lat="42.770991" lon="-7.835942">
        <ele>506.1</ele>
        <time>1970-01-01T00:28:21.000Z</time>
      </trkpt>
      <trkpt lat="42.770962" lon="-7.835998">
        <ele>506</ele>
        <time>1970-01-01T00:28:22.000Z</time>
      </trkpt>
      <trkpt lat="42.770931" lon="-7.836047">
        <ele>505.9</ele>
        <time>1970-01-01T00:28:23.000Z</time>
      </trkpt>
      <trkpt lat="42.770895" lon="-7.836084">
        <ele>506.3</ele>
        <time>1970-01-01T00:28:24.000Z</time>
      </trkpt>
      <trkpt lat="42.770859" lon="-7.836106">
        <ele>506.6</ele>
        <time>1970-01-01T00:28:25.000Z</time>
      </trkpt>
      <trkpt lat="42.770828" lon="-7.836125">
        <ele>506.9</ele>
        <time>1970-01-01T00:28:26.000Z</time>
      </trkpt>
      <trkpt lat="42.770798" lon="-7.836151">
        <ele>507.2</ele>
        <time>1970-01-01T00:28:27.000Z</time>
      </trkpt>
      <trkpt lat="42.770769" lon="-7.836175">
        <ele>507.5</ele>
        <time>1970-01-01T00:28:28.000Z</time>
      </trkpt>
      <trkpt lat="42.770738" lon="-7.836199">
        <ele>507.7</ele>
        <time>1970-01-01T00:28:29.000Z</time>
      </trkpt>
      <trkpt lat="42.770708" lon="-7.836223">
        <ele>508</ele>
        <time>1970-01-01T00:28:30.000Z</time>
      </trkpt>
      <trkpt lat="42.77068" lon="-7.836231">
        <ele>508.2</ele>
        <time>1970-01-01T00:28:31.000Z</time>
      </trkpt>
      <trkpt lat="42.770656" lon="-7.836239">
        <ele>508.4</ele>
        <time>1970-01-01T00:28:32.000Z</time>
      </trkpt>
      <trkpt lat="42.770638" lon="-7.836247">
        <ele>508.6</ele>
        <time>1970-01-01T00:28:33.000Z</time>
      </trkpt>
      <trkpt lat="42.770611" lon="-7.836247">
        <ele>508.8</ele>
        <time>1970-01-01T00:28:34.000Z</time>
      </trkpt>
      <trkpt lat="42.770581" lon="-7.836257">
        <ele>509.1</ele>
        <time>1970-01-01T00:28:35.000Z</time>
      </trkpt>
      <trkpt lat="42.770543" lon="-7.836268">
        <ele>509.4</ele>
        <time>1970-01-01T00:28:36.000Z</time>
      </trkpt>
      <trkpt lat="42.770507" lon="-7.83628">
        <ele>509.7</ele>
        <time>1970-01-01T00:28:37.000Z</time>
      </trkpt>
      <trkpt lat="42.770473" lon="-7.836294">
        <ele>510</ele>
        <time>1970-01-01T00:28:38.000Z</time>
      </trkpt>
      <trkpt lat="42.770439" lon="-7.836327">
        <ele>510.3</ele>
        <time>1970-01-01T00:28:39.000Z</time>
      </trkpt>
      <trkpt lat="42.770399" lon="-7.836347">
        <ele>510.6</ele>
        <time>1970-01-01T00:28:40.000Z</time>
      </trkpt>
      <trkpt lat="42.770366" lon="-7.836383">
        <ele>510.9</ele>
        <time>1970-01-01T00:28:41.000Z</time>
      </trkpt>
      <trkpt lat="42.770322" lon="-7.836419">
        <ele>511.2</ele>
        <time>1970-01-01T00:28:42.000Z</time>
      </trkpt>
      <trkpt lat="42.770272" lon="-7.836462">
        <ele>511.5</ele>
        <time>1970-01-01T00:28:43.000Z</time>
      </trkpt>
      <trkpt lat="42.770215" lon="-7.83649">
        <ele>511.6</ele>
        <time>1970-01-01T00:28:44.000Z</time>
      </trkpt>
      <trkpt lat="42.770161" lon="-7.836515">
        <ele>511.7</ele>
        <time>1970-01-01T00:28:45.000Z</time>
      </trkpt>
      <trkpt lat="42.770107" lon="-7.836527">
        <ele>511.7</ele>
        <time>1970-01-01T00:28:46.000Z</time>
      </trkpt>
      <trkpt lat="42.770056" lon="-7.836541">
        <ele>511.7</ele>
        <time>1970-01-01T00:28:47.000Z</time>
      </trkpt>
      <trkpt lat="42.770002" lon="-7.836567">
        <ele>511.5</ele>
        <time>1970-01-01T00:28:48.000Z</time>
      </trkpt>
      <trkpt lat="42.769962" lon="-7.836568">
        <ele>511.4</ele>
        <time>1970-01-01T00:28:49.000Z</time>
      </trkpt>
      <trkpt lat="42.769933" lon="-7.836558">
        <ele>511.3</ele>
        <time>1970-01-01T00:28:50.000Z</time>
      </trkpt>
      <trkpt lat="42.769899" lon="-7.836545">
        <ele>511.1</ele>
        <time>1970-01-01T00:28:51.000Z</time>
      </trkpt>
      <trkpt lat="42.769869" lon="-7.836535">
        <ele>511</ele>
        <time>1970-01-01T00:28:52.000Z</time>
      </trkpt>
      <trkpt lat="42.769838" lon="-7.836519">
        <ele>510.8</ele>
        <time>1970-01-01T00:28:53.000Z</time>
      </trkpt>
      <trkpt lat="42.769814" lon="-7.836501">
        <ele>510.7</ele>
        <time>1970-01-01T00:28:54.000Z</time>
      </trkpt>
      <trkpt lat="42.769798" lon="-7.836474">
        <ele>510.6</ele>
        <time>1970-01-01T00:28:55.000Z</time>
      </trkpt>
      <trkpt lat="42.769788" lon="-7.836446">
        <ele>510.5</ele>
        <time>1970-01-01T00:28:56.000Z</time>
      </trkpt>
      <trkpt lat="42.769787" lon="-7.836411">
        <ele>510.3</ele>
        <time>1970-01-01T00:28:57.000Z</time>
      </trkpt>
      <trkpt lat="42.769776" lon="-7.836375">
        <ele>509.7</ele>
        <time>1970-01-01T00:28:58.000Z</time>
      </trkpt>
      <trkpt lat="42.76977" lon="-7.836336">
        <ele>509.6</ele>
        <time>1970-01-01T00:28:59.000Z</time>
      </trkpt>
      <trkpt lat="42.76976" lon="-7.8363">
        <ele>509.5</ele>
        <time>1970-01-01T00:29:00.000Z</time>
      </trkpt>
      <trkpt lat="42.769758" lon="-7.836274">
        <ele>509.5</ele>
        <time>1970-01-01T00:29:01.000Z</time>
      </trkpt>
      <trkpt lat="42.769755" lon="-7.836245">
        <ele>509.4</ele>
        <time>1970-01-01T00:29:02.000Z</time>
      </trkpt>
      <trkpt lat="42.769745" lon="-7.836219">
        <ele>509.3</ele>
        <time>1970-01-01T00:29:03.000Z</time>
      </trkpt>
      <trkpt lat="42.769732" lon="-7.836202">
        <ele>509.3</ele>
        <time>1970-01-01T00:29:04.000Z</time>
      </trkpt>
      <trkpt lat="42.769723" lon="-7.836178">
        <ele>509.2</ele>
        <time>1970-01-01T00:29:05.000Z</time>
      </trkpt>
      <trkpt lat="42.769717" lon="-7.836155">
        <ele>509.1</ele>
        <time>1970-01-01T00:29:06.000Z</time>
      </trkpt>
      <trkpt lat="42.76971" lon="-7.83614">
        <ele>509.1</ele>
        <time>1970-01-01T00:29:07.000Z</time>
      </trkpt>
      <trkpt lat="42.769691" lon="-7.836105">
        <ele>509</ele>
        <time>1970-01-01T00:29:08.000Z</time>
      </trkpt>
      <trkpt lat="42.769676" lon="-7.836078">
        <ele>508.9</ele>
        <time>1970-01-01T00:29:09.000Z</time>
      </trkpt>
      <trkpt lat="42.769658" lon="-7.836043">
        <ele>508.8</ele>
        <time>1970-01-01T00:29:10.000Z</time>
      </trkpt>
      <trkpt lat="42.769639" lon="-7.836005">
        <ele>508.7</ele>
        <time>1970-01-01T00:29:11.000Z</time>
      </trkpt>
      <trkpt lat="42.769624" lon="-7.83597">
        <ele>508.7</ele>
        <time>1970-01-01T00:29:12.000Z</time>
      </trkpt>
      <trkpt lat="42.769606" lon="-7.835917">
        <ele>508.6</ele>
        <time>1970-01-01T00:29:13.000Z</time>
      </trkpt>
      <trkpt lat="42.769594" lon="-7.835872">
        <ele>508.6</ele>
        <time>1970-01-01T00:29:14.000Z</time>
      </trkpt>
      <trkpt lat="42.769574" lon="-7.835832">
        <ele>508.6</ele>
        <time>1970-01-01T00:29:15.000Z</time>
      </trkpt>
      <trkpt lat="42.769554" lon="-7.835794">
        <ele>508.6</ele>
        <time>1970-01-01T00:29:16.000Z</time>
      </trkpt>
      <trkpt lat="42.769536" lon="-7.835747">
        <ele>508.8</ele>
        <time>1970-01-01T00:29:17.000Z</time>
      </trkpt>
      <trkpt lat="42.769519" lon="-7.835704">
        <ele>508.9</ele>
        <time>1970-01-01T00:29:18.000Z</time>
      </trkpt>
      <trkpt lat="42.769506" lon="-7.835663">
        <ele>509</ele>
        <time>1970-01-01T00:29:19.000Z</time>
      </trkpt>
      <trkpt lat="42.769493" lon="-7.835633">
        <ele>509.1</ele>
        <time>1970-01-01T00:29:20.000Z</time>
      </trkpt>
      <trkpt lat="42.769478" lon="-7.835614">
        <ele>509.2</ele>
        <time>1970-01-01T00:29:21.000Z</time>
      </trkpt>
      <trkpt lat="42.769471" lon="-7.835592">
        <ele>509.3</ele>
        <time>1970-01-01T00:29:22.000Z</time>
      </trkpt>
      <trkpt lat="42.769458" lon="-7.835566">
        <ele>509.4</ele>
        <time>1970-01-01T00:29:23.000Z</time>
      </trkpt>
      <trkpt lat="42.769441" lon="-7.835541">
        <ele>509.5</ele>
        <time>1970-01-01T00:29:24.000Z</time>
      </trkpt>
      <trkpt lat="42.769422" lon="-7.835522">
        <ele>509.6</ele>
        <time>1970-01-01T00:29:25.000Z</time>
      </trkpt>
      <trkpt lat="42.769399" lon="-7.835507">
        <ele>509.8</ele>
        <time>1970-01-01T00:29:26.000Z</time>
      </trkpt>
      <trkpt lat="42.769379" lon="-7.835487">
        <ele>509.9</ele>
        <time>1970-01-01T00:29:27.000Z</time>
      </trkpt>
      <trkpt lat="42.76937" lon="-7.835475">
        <ele>510</ele>
        <time>1970-01-01T00:29:28.000Z</time>
      </trkpt>
      <trkpt lat="42.769355" lon="-7.835449">
        <ele>510.2</ele>
        <time>1970-01-01T00:29:29.000Z</time>
      </trkpt>
      <trkpt lat="42.769346" lon="-7.835417">
        <ele>510.4</ele>
        <time>1970-01-01T00:29:30.000Z</time>
      </trkpt>
      <trkpt lat="42.769331" lon="-7.835393">
        <ele>510.6</ele>
        <time>1970-01-01T00:29:31.000Z</time>
      </trkpt>
      <trkpt lat="42.769314" lon="-7.835377">
        <ele>510.8</ele>
        <time>1970-01-01T00:29:32.000Z</time>
      </trkpt>
      <trkpt lat="42.769293" lon="-7.835358">
        <ele>511</ele>
        <time>1970-01-01T00:29:33.000Z</time>
      </trkpt>
      <trkpt lat="42.769275" lon="-7.835344">
        <ele>511.1</ele>
        <time>1970-01-01T00:29:34.000Z</time>
      </trkpt>
      <trkpt lat="42.769253" lon="-7.835326">
        <ele>511.3</ele>
        <time>1970-01-01T00:29:35.000Z</time>
      </trkpt>
      <trkpt lat="42.769231" lon="-7.835309">
        <ele>511.5</ele>
        <time>1970-01-01T00:29:36.000Z</time>
      </trkpt>
      <trkpt lat="42.769208" lon="-7.835292">
        <ele>511.8</ele>
        <time>1970-01-01T00:29:37.000Z</time>
      </trkpt>
      <trkpt lat="42.769183" lon="-7.835284">
        <ele>512</ele>
        <time>1970-01-01T00:29:38.000Z</time>
      </trkpt>
      <trkpt lat="42.769159" lon="-7.835278">
        <ele>512.3</ele>
        <time>1970-01-01T00:29:39.000Z</time>
      </trkpt>
      <trkpt lat="42.769134" lon="-7.835277">
        <ele>512.5</ele>
        <time>1970-01-01T00:29:40.000Z</time>
      </trkpt>
      <trkpt lat="42.769111" lon="-7.835272">
        <ele>512.6</ele>
        <time>1970-01-01T00:29:41.000Z</time>
      </trkpt>
      <trkpt lat="42.769089" lon="-7.83527">
        <ele>512.8</ele>
        <time>1970-01-01T00:29:42.000Z</time>
      </trkpt>
      <trkpt lat="42.769061" lon="-7.835253">
        <ele>513</ele>
        <time>1970-01-01T00:29:43.000Z</time>
      </trkpt>
      <trkpt lat="42.769041" lon="-7.835235">
        <ele>513.1</ele>
        <time>1970-01-01T00:29:44.000Z</time>
      </trkpt>
      <trkpt lat="42.769025" lon="-7.835222">
        <ele>513.3</ele>
        <time>1970-01-01T00:29:45.000Z</time>
      </trkpt>
      <trkpt lat="42.768999" lon="-7.835211">
        <ele>513.5</ele>
        <time>1970-01-01T00:29:46.000Z</time>
      </trkpt>
      <trkpt lat="42.768973" lon="-7.835209">
        <ele>513.8</ele>
        <time>1970-01-01T00:29:47.000Z</time>
      </trkpt>
      <trkpt lat="42.768954" lon="-7.835204">
        <ele>513.9</ele>
        <time>1970-01-01T00:29:48.000Z</time>
      </trkpt>
      <trkpt lat="42.768923" lon="-7.835193">
        <ele>514.1</ele>
        <time>1970-01-01T00:29:49.000Z</time>
      </trkpt>
      <trkpt lat="42.768893" lon="-7.835188">
        <ele>514.3</ele>
        <time>1970-01-01T00:29:50.000Z</time>
      </trkpt>
      <trkpt lat="42.768868" lon="-7.835186">
        <ele>514.5</ele>
        <time>1970-01-01T00:29:51.000Z</time>
      </trkpt>
      <trkpt lat="42.768849" lon="-7.83518">
        <ele>514.6</ele>
        <time>1970-01-01T00:29:52.000Z</time>
      </trkpt>
      <trkpt lat="42.768828" lon="-7.835175">
        <ele>514.8</ele>
        <time>1970-01-01T00:29:53.000Z</time>
      </trkpt>
      <trkpt lat="42.768806" lon="-7.835166">
        <ele>514.9</ele>
        <time>1970-01-01T00:29:54.000Z</time>
      </trkpt>
      <trkpt lat="42.768782" lon="-7.835165">
        <ele>515.1</ele>
        <time>1970-01-01T00:29:55.000Z</time>
      </trkpt>
      <trkpt lat="42.768755" lon="-7.83516">
        <ele>515.2</ele>
        <time>1970-01-01T00:29:56.000Z</time>
      </trkpt>
      <trkpt lat="42.768728" lon="-7.835147">
        <ele>515.4</ele>
        <time>1970-01-01T00:29:57.000Z</time>
      </trkpt>
      <trkpt lat="42.768707" lon="-7.835133">
        <ele>515.6</ele>
        <time>1970-01-01T00:29:58.000Z</time>
      </trkpt>
      <trkpt lat="42.768686" lon="-7.835121">
        <ele>515.8</ele>
        <time>1970-01-01T00:29:59.000Z</time>
      </trkpt>
      <trkpt lat="42.768666" lon="-7.835111">
        <ele>515.9</ele>
        <time>1970-01-01T00:30:00.000Z</time>
      </trkpt>
      <trkpt lat="42.768639" lon="-7.835102">
        <ele>516.1</ele>
        <time>1970-01-01T00:30:01.000Z</time>
      </trkpt>
      <trkpt lat="42.768622" lon="-7.835093">
        <ele>516.3</ele>
        <time>1970-01-01T00:30:02.000Z</time>
      </trkpt>
      <trkpt lat="42.768604" lon="-7.835085">
        <ele>516.4</ele>
        <time>1970-01-01T00:30:03.000Z</time>
      </trkpt>
      <trkpt lat="42.768588" lon="-7.835072">
        <ele>516.6</ele>
        <time>1970-01-01T00:30:04.000Z</time>
      </trkpt>
      <trkpt lat="42.768569" lon="-7.835058">
        <ele>516.7</ele>
        <time>1970-01-01T00:30:05.000Z</time>
      </trkpt>
      <trkpt lat="42.768546" lon="-7.835042">
        <ele>516.9</ele>
        <time>1970-01-01T00:30:06.000Z</time>
      </trkpt>
      <trkpt lat="42.768521" lon="-7.835029">
        <ele>517.2</ele>
        <time>1970-01-01T00:30:07.000Z</time>
      </trkpt>
      <trkpt lat="42.768498" lon="-7.835017">
        <ele>517.3</ele>
        <time>1970-01-01T00:30:08.000Z</time>
      </trkpt>
      <trkpt lat="42.768474" lon="-7.835002">
        <ele>517.6</ele>
        <time>1970-01-01T00:30:09.000Z</time>
      </trkpt>
      <trkpt lat="42.768441" lon="-7.834976">
        <ele>517.9</ele>
        <time>1970-01-01T00:30:10.000Z</time>
      </trkpt>
      <trkpt lat="42.76842" lon="-7.834956">
        <ele>518</ele>
        <time>1970-01-01T00:30:11.000Z</time>
      </trkpt>
      <trkpt lat="42.7684" lon="-7.834939">
        <ele>518.2</ele>
        <time>1970-01-01T00:30:12.000Z</time>
      </trkpt>
      <trkpt lat="42.768381" lon="-7.834929">
        <ele>518.4</ele>
        <time>1970-01-01T00:30:13.000Z</time>
      </trkpt>
      <trkpt lat="42.76836" lon="-7.834907">
        <ele>518.5</ele>
        <time>1970-01-01T00:30:14.000Z</time>
      </trkpt>
      <trkpt lat="42.76834" lon="-7.834878">
        <ele>518.7</ele>
        <time>1970-01-01T00:30:15.000Z</time>
      </trkpt>
      <trkpt lat="42.768322" lon="-7.834852">
        <ele>518.8</ele>
        <time>1970-01-01T00:30:16.000Z</time>
      </trkpt>
      <trkpt lat="42.768303" lon="-7.834816">
        <ele>519</ele>
        <time>1970-01-01T00:30:17.000Z</time>
      </trkpt>
      <trkpt lat="42.768289" lon="-7.834783">
        <ele>519.1</ele>
        <time>1970-01-01T00:30:18.000Z</time>
      </trkpt>
      <trkpt lat="42.768273" lon="-7.834746">
        <ele>519.3</ele>
        <time>1970-01-01T00:30:19.000Z</time>
      </trkpt>
      <trkpt lat="42.768265" lon="-7.834712">
        <ele>519.4</ele>
        <time>1970-01-01T00:30:20.000Z</time>
      </trkpt>
      <trkpt lat="42.768255" lon="-7.834681">
        <ele>519.5</ele>
        <time>1970-01-01T00:30:21.000Z</time>
      </trkpt>
      <trkpt lat="42.768244" lon="-7.834656">
        <ele>519.6</ele>
        <time>1970-01-01T00:30:22.000Z</time>
      </trkpt>
      <trkpt lat="42.768228" lon="-7.834634">
        <ele>519.6</ele>
        <time>1970-01-01T00:30:23.000Z</time>
      </trkpt>
      <trkpt lat="42.768216" lon="-7.834617">
        <ele>519.6</ele>
        <time>1970-01-01T00:30:24.000Z</time>
      </trkpt>
      <trkpt lat="42.768206" lon="-7.834598">
        <ele>519.7</ele>
        <time>1970-01-01T00:30:25.000Z</time>
      </trkpt>
      <trkpt lat="42.768183" lon="-7.834574">
        <ele>519.7</ele>
        <time>1970-01-01T00:30:26.000Z</time>
      </trkpt>
      <trkpt lat="42.768158" lon="-7.834561">
        <ele>519.7</ele>
        <time>1970-01-01T00:30:27.000Z</time>
      </trkpt>
      <trkpt lat="42.768125" lon="-7.834548">
        <ele>519.7</ele>
        <time>1970-01-01T00:30:28.000Z</time>
      </trkpt>
      <trkpt lat="42.768093" lon="-7.834539">
        <ele>519.7</ele>
        <time>1970-01-01T00:30:29.000Z</time>
      </trkpt>
      <trkpt lat="42.768058" lon="-7.834536">
        <ele>519.7</ele>
        <time>1970-01-01T00:30:30.000Z</time>
      </trkpt>
      <trkpt lat="42.768027" lon="-7.834536">
        <ele>519.6</ele>
        <time>1970-01-01T00:30:31.000Z</time>
      </trkpt>
      <trkpt lat="42.767992" lon="-7.834536">
        <ele>519.6</ele>
        <time>1970-01-01T00:30:32.000Z</time>
      </trkpt>
      <trkpt lat="42.767952" lon="-7.834537">
        <ele>519.6</ele>
        <time>1970-01-01T00:30:33.000Z</time>
      </trkpt>
      <trkpt lat="42.767919" lon="-7.834539">
        <ele>519.6</ele>
        <time>1970-01-01T00:30:34.000Z</time>
      </trkpt>
      <trkpt lat="42.767885" lon="-7.834545">
        <ele>519.6</ele>
        <time>1970-01-01T00:30:35.000Z</time>
      </trkpt>
      <trkpt lat="42.767852" lon="-7.834552">
        <ele>519.6</ele>
        <time>1970-01-01T00:30:36.000Z</time>
      </trkpt>
      <trkpt lat="42.767819" lon="-7.834557">
        <ele>519.6</ele>
        <time>1970-01-01T00:30:37.000Z</time>
      </trkpt>
      <trkpt lat="42.767788" lon="-7.83456">
        <ele>519.6</ele>
        <time>1970-01-01T00:30:38.000Z</time>
      </trkpt>
      <trkpt lat="42.767755" lon="-7.834563">
        <ele>519.6</ele>
        <time>1970-01-01T00:30:39.000Z</time>
      </trkpt>
      <trkpt lat="42.767722" lon="-7.834567">
        <ele>519.6</ele>
        <time>1970-01-01T00:30:40.000Z</time>
      </trkpt>
      <trkpt lat="42.767687" lon="-7.83457">
        <ele>519.6</ele>
        <time>1970-01-01T00:30:41.000Z</time>
      </trkpt>
      <trkpt lat="42.767651" lon="-7.834573">
        <ele>519.6</ele>
        <time>1970-01-01T00:30:42.000Z</time>
      </trkpt>
      <trkpt lat="42.767612" lon="-7.834586">
        <ele>519.6</ele>
        <time>1970-01-01T00:30:43.000Z</time>
      </trkpt>
      <trkpt lat="42.767575" lon="-7.834596">
        <ele>519.6</ele>
        <time>1970-01-01T00:30:44.000Z</time>
      </trkpt>
      <trkpt lat="42.767541" lon="-7.834603">
        <ele>519.6</ele>
        <time>1970-01-01T00:30:45.000Z</time>
      </trkpt>
      <trkpt lat="42.767505" lon="-7.834611">
        <ele>519.7</ele>
        <time>1970-01-01T00:30:46.000Z</time>
      </trkpt>
      <trkpt lat="42.767469" lon="-7.834619">
        <ele>519.7</ele>
        <time>1970-01-01T00:30:47.000Z</time>
      </trkpt>
      <trkpt lat="42.767431" lon="-7.834627">
        <ele>519.8</ele>
        <time>1970-01-01T00:30:48.000Z</time>
      </trkpt>
      <trkpt lat="42.767395" lon="-7.834637">
        <ele>519.8</ele>
        <time>1970-01-01T00:30:49.000Z</time>
      </trkpt>
      <trkpt lat="42.767359" lon="-7.834646">
        <ele>519.8</ele>
        <time>1970-01-01T00:30:50.000Z</time>
      </trkpt>
      <trkpt lat="42.767323" lon="-7.834656">
        <ele>519.9</ele>
        <time>1970-01-01T00:30:51.000Z</time>
      </trkpt>
      <trkpt lat="42.767288" lon="-7.834662">
        <ele>519.9</ele>
        <time>1970-01-01T00:30:52.000Z</time>
      </trkpt>
      <trkpt lat="42.767254" lon="-7.834658">
        <ele>520</ele>
        <time>1970-01-01T00:30:53.000Z</time>
      </trkpt>
      <trkpt lat="42.76722" lon="-7.834643">
        <ele>520</ele>
        <time>1970-01-01T00:30:54.000Z</time>
      </trkpt>
      <trkpt lat="42.76719" lon="-7.834616">
        <ele>520.1</ele>
        <time>1970-01-01T00:30:55.000Z</time>
      </trkpt>
      <trkpt lat="42.767165" lon="-7.834582">
        <ele>520.1</ele>
        <time>1970-01-01T00:30:56.000Z</time>
      </trkpt>
      <trkpt lat="42.767141" lon="-7.834543">
        <ele>520.2</ele>
        <time>1970-01-01T00:30:57.000Z</time>
      </trkpt>
      <trkpt lat="42.767117" lon="-7.834508">
        <ele>520.2</ele>
        <time>1970-01-01T00:30:58.000Z</time>
      </trkpt>
      <trkpt lat="42.767069" lon="-7.834482">
        <ele>520.3</ele>
        <time>1970-01-01T00:30:59.000Z</time>
      </trkpt>
      <trkpt lat="42.767033" lon="-7.834448">
        <ele>520.4</ele>
        <time>1970-01-01T00:31:00.000Z</time>
      </trkpt>
      <trkpt lat="42.767005" lon="-7.834411">
        <ele>520.4</ele>
        <time>1970-01-01T00:31:01.000Z</time>
      </trkpt>
      <trkpt lat="42.766982" lon="-7.834375">
        <ele>520.4</ele>
        <time>1970-01-01T00:31:02.000Z</time>
      </trkpt>
      <trkpt lat="42.76696" lon="-7.834342">
        <ele>520.5</ele>
        <time>1970-01-01T00:31:03.000Z</time>
      </trkpt>
      <trkpt lat="42.766937" lon="-7.834305">
        <ele>520.5</ele>
        <time>1970-01-01T00:31:04.000Z</time>
      </trkpt>
      <trkpt lat="42.766913" lon="-7.834276">
        <ele>520.5</ele>
        <time>1970-01-01T00:31:05.000Z</time>
      </trkpt>
      <trkpt lat="42.76689" lon="-7.834245">
        <ele>520.5</ele>
        <time>1970-01-01T00:31:06.000Z</time>
      </trkpt>
      <trkpt lat="42.766867" lon="-7.834212">
        <ele>520.5</ele>
        <time>1970-01-01T00:31:07.000Z</time>
      </trkpt>
      <trkpt lat="42.766844" lon="-7.834179">
        <ele>520.5</ele>
        <time>1970-01-01T00:31:08.000Z</time>
      </trkpt>
      <trkpt lat="42.766822" lon="-7.834146">
        <ele>520.5</ele>
        <time>1970-01-01T00:31:09.000Z</time>
      </trkpt>
      <trkpt lat="42.766799" lon="-7.834113">
        <ele>520.5</ele>
        <time>1970-01-01T00:31:10.000Z</time>
      </trkpt>
      <trkpt lat="42.766773" lon="-7.834083">
        <ele>520.5</ele>
        <time>1970-01-01T00:31:11.000Z</time>
      </trkpt>
      <trkpt lat="42.766747" lon="-7.834054">
        <ele>520.5</ele>
        <time>1970-01-01T00:31:12.000Z</time>
      </trkpt>
      <trkpt lat="42.766721" lon="-7.834026">
        <ele>520.4</ele>
        <time>1970-01-01T00:31:13.000Z</time>
      </trkpt>
      <trkpt lat="42.766695" lon="-7.834">
        <ele>520.4</ele>
        <time>1970-01-01T00:31:14.000Z</time>
      </trkpt>
      <trkpt lat="42.766668" lon="-7.833973">
        <ele>520.4</ele>
        <time>1970-01-01T00:31:15.000Z</time>
      </trkpt>
      <trkpt lat="42.766643" lon="-7.833944">
        <ele>520.3</ele>
        <time>1970-01-01T00:31:16.000Z</time>
      </trkpt>
      <trkpt lat="42.76662" lon="-7.833916">
        <ele>520.3</ele>
        <time>1970-01-01T00:31:17.000Z</time>
      </trkpt>
      <trkpt lat="42.766591" lon="-7.833884">
        <ele>520.3</ele>
        <time>1970-01-01T00:31:18.000Z</time>
      </trkpt>
      <trkpt lat="42.766567" lon="-7.833852">
        <ele>520.3</ele>
        <time>1970-01-01T00:31:19.000Z</time>
      </trkpt>
      <trkpt lat="42.766544" lon="-7.833823">
        <ele>520.4</ele>
        <time>1970-01-01T00:31:20.000Z</time>
      </trkpt>
      <trkpt lat="42.766521" lon="-7.833793">
        <ele>520.4</ele>
        <time>1970-01-01T00:31:21.000Z</time>
      </trkpt>
      <trkpt lat="42.766497" lon="-7.833764">
        <ele>520.4</ele>
        <time>1970-01-01T00:31:22.000Z</time>
      </trkpt>
      <trkpt lat="42.766481" lon="-7.833742">
        <ele>520.4</ele>
        <time>1970-01-01T00:31:23.000Z</time>
      </trkpt>
      <trkpt lat="42.766459" lon="-7.833715">
        <ele>520.5</ele>
        <time>1970-01-01T00:31:24.000Z</time>
      </trkpt>
      <trkpt lat="42.766436" lon="-7.833689">
        <ele>520.5</ele>
        <time>1970-01-01T00:31:25.000Z</time>
      </trkpt>
      <trkpt lat="42.766413" lon="-7.833661">
        <ele>520.5</ele>
        <time>1970-01-01T00:31:26.000Z</time>
      </trkpt>
      <trkpt lat="42.766384" lon="-7.833636">
        <ele>520.6</ele>
        <time>1970-01-01T00:31:27.000Z</time>
      </trkpt>
      <trkpt lat="42.76636" lon="-7.833603">
        <ele>520.6</ele>
        <time>1970-01-01T00:31:28.000Z</time>
      </trkpt>
      <trkpt lat="42.766337" lon="-7.833576">
        <ele>520.7</ele>
        <time>1970-01-01T00:31:29.000Z</time>
      </trkpt>
      <trkpt lat="42.766319" lon="-7.833548">
        <ele>520.7</ele>
        <time>1970-01-01T00:31:30.000Z</time>
      </trkpt>
      <trkpt lat="42.7663" lon="-7.833522">
        <ele>520.7</ele>
        <time>1970-01-01T00:31:31.000Z</time>
      </trkpt>
      <trkpt lat="42.766276" lon="-7.833495">
        <ele>520.7</ele>
        <time>1970-01-01T00:31:32.000Z</time>
      </trkpt>
      <trkpt lat="42.766251" lon="-7.833471">
        <ele>520.7</ele>
        <time>1970-01-01T00:31:33.000Z</time>
      </trkpt>
      <trkpt lat="42.766227" lon="-7.833444">
        <ele>520.7</ele>
        <time>1970-01-01T00:31:34.000Z</time>
      </trkpt>
      <trkpt lat="42.766203" lon="-7.833416">
        <ele>520.8</ele>
        <time>1970-01-01T00:31:35.000Z</time>
      </trkpt>
      <trkpt lat="42.766181" lon="-7.833392">
        <ele>520.8</ele>
        <time>1970-01-01T00:31:36.000Z</time>
      </trkpt>
      <trkpt lat="42.766152" lon="-7.833369">
        <ele>520.8</ele>
        <time>1970-01-01T00:31:37.000Z</time>
      </trkpt>
      <trkpt lat="42.766119" lon="-7.833356">
        <ele>520.8</ele>
        <time>1970-01-01T00:31:38.000Z</time>
      </trkpt>
      <trkpt lat="42.766083" lon="-7.833345">
        <ele>520.8</ele>
        <time>1970-01-01T00:31:39.000Z</time>
      </trkpt>
      <trkpt lat="42.766046" lon="-7.833336">
        <ele>520.8</ele>
        <time>1970-01-01T00:31:40.000Z</time>
      </trkpt>
      <trkpt lat="42.766008" lon="-7.833328">
        <ele>520.8</ele>
        <time>1970-01-01T00:31:41.000Z</time>
      </trkpt>
      <trkpt lat="42.765971" lon="-7.833319">
        <ele>520.9</ele>
        <time>1970-01-01T00:31:42.000Z</time>
      </trkpt>
      <trkpt lat="42.765936" lon="-7.833313">
        <ele>520.9</ele>
        <time>1970-01-01T00:31:43.000Z</time>
      </trkpt>
      <trkpt lat="42.7659" lon="-7.833307">
        <ele>520.9</ele>
        <time>1970-01-01T00:31:44.000Z</time>
      </trkpt>
      <trkpt lat="42.765864" lon="-7.833301">
        <ele>521</ele>
        <time>1970-01-01T00:31:45.000Z</time>
      </trkpt>
      <trkpt lat="42.765829" lon="-7.833295">
        <ele>521</ele>
        <time>1970-01-01T00:31:46.000Z</time>
      </trkpt>
      <trkpt lat="42.765793" lon="-7.833289">
        <ele>521</ele>
        <time>1970-01-01T00:31:47.000Z</time>
      </trkpt>
      <trkpt lat="42.765758" lon="-7.833285">
        <ele>521</ele>
        <time>1970-01-01T00:31:48.000Z</time>
      </trkpt>
      <trkpt lat="42.765724" lon="-7.833289">
        <ele>521.1</ele>
        <time>1970-01-01T00:31:49.000Z</time>
      </trkpt>
      <trkpt lat="42.765692" lon="-7.833305">
        <ele>521.1</ele>
        <time>1970-01-01T00:31:50.000Z</time>
      </trkpt>
      <trkpt lat="42.765662" lon="-7.833333">
        <ele>521.3</ele>
        <time>1970-01-01T00:31:51.000Z</time>
      </trkpt>
      <trkpt lat="42.765635" lon="-7.833369">
        <ele>521.4</ele>
        <time>1970-01-01T00:31:52.000Z</time>
      </trkpt>
      <trkpt lat="42.765606" lon="-7.833407">
        <ele>521.5</ele>
        <time>1970-01-01T00:31:53.000Z</time>
      </trkpt>
      <trkpt lat="42.765576" lon="-7.833444">
        <ele>521.6</ele>
        <time>1970-01-01T00:31:54.000Z</time>
      </trkpt>
      <trkpt lat="42.765544" lon="-7.833479">
        <ele>521.7</ele>
        <time>1970-01-01T00:31:55.000Z</time>
      </trkpt>
      <trkpt lat="42.765512" lon="-7.833512">
        <ele>521.9</ele>
        <time>1970-01-01T00:31:56.000Z</time>
      </trkpt>
      <trkpt lat="42.76548" lon="-7.833545">
        <ele>521.9</ele>
        <time>1970-01-01T00:31:57.000Z</time>
      </trkpt>
      <trkpt lat="42.765445" lon="-7.83358">
        <ele>522</ele>
        <time>1970-01-01T00:31:58.000Z</time>
      </trkpt>
      <trkpt lat="42.76541" lon="-7.833614">
        <ele>522</ele>
        <time>1970-01-01T00:31:59.000Z</time>
      </trkpt>
      <trkpt lat="42.765372" lon="-7.833647">
        <ele>522.1</ele>
        <time>1970-01-01T00:32:00.000Z</time>
      </trkpt>
      <trkpt lat="42.765333" lon="-7.833681">
        <ele>522.1</ele>
        <time>1970-01-01T00:32:01.000Z</time>
      </trkpt>
      <trkpt lat="42.765296" lon="-7.833712">
        <ele>522</ele>
        <time>1970-01-01T00:32:02.000Z</time>
      </trkpt>
      <trkpt lat="42.765258" lon="-7.833741">
        <ele>522</ele>
        <time>1970-01-01T00:32:03.000Z</time>
      </trkpt>
      <trkpt lat="42.765223" lon="-7.833767">
        <ele>521.9</ele>
        <time>1970-01-01T00:32:04.000Z</time>
      </trkpt>
      <trkpt lat="42.765189" lon="-7.83379">
        <ele>521.8</ele>
        <time>1970-01-01T00:32:05.000Z</time>
      </trkpt>
      <trkpt lat="42.765151" lon="-7.833815">
        <ele>521.8</ele>
        <time>1970-01-01T00:32:06.000Z</time>
      </trkpt>
      <trkpt lat="42.765112" lon="-7.83384">
        <ele>521.7</ele>
        <time>1970-01-01T00:32:07.000Z</time>
      </trkpt>
      <trkpt lat="42.765074" lon="-7.833868">
        <ele>521.6</ele>
        <time>1970-01-01T00:32:08.000Z</time>
      </trkpt>
      <trkpt lat="42.765036" lon="-7.833898">
        <ele>521.5</ele>
        <time>1970-01-01T00:32:09.000Z</time>
      </trkpt>
      <trkpt lat="42.764999" lon="-7.833927">
        <ele>521.5</ele>
        <time>1970-01-01T00:32:10.000Z</time>
      </trkpt>
      <trkpt lat="42.76496" lon="-7.833954">
        <ele>521.5</ele>
        <time>1970-01-01T00:32:11.000Z</time>
      </trkpt>
      <trkpt lat="42.764922" lon="-7.833981">
        <ele>521.5</ele>
        <time>1970-01-01T00:32:12.000Z</time>
      </trkpt>
      <trkpt lat="42.764884" lon="-7.834007">
        <ele>521.5</ele>
        <time>1970-01-01T00:32:13.000Z</time>
      </trkpt>
      <trkpt lat="42.764847" lon="-7.834032">
        <ele>521.5</ele>
        <time>1970-01-01T00:32:14.000Z</time>
      </trkpt>
      <trkpt lat="42.764811" lon="-7.834059">
        <ele>521.5</ele>
        <time>1970-01-01T00:32:15.000Z</time>
      </trkpt>
      <trkpt lat="42.764777" lon="-7.834086">
        <ele>521.5</ele>
        <time>1970-01-01T00:32:16.000Z</time>
      </trkpt>
      <trkpt lat="42.764742" lon="-7.834118">
        <ele>521.5</ele>
        <time>1970-01-01T00:32:17.000Z</time>
      </trkpt>
      <trkpt lat="42.764708" lon="-7.834155">
        <ele>521.5</ele>
        <time>1970-01-01T00:32:18.000Z</time>
      </trkpt>
      <trkpt lat="42.764674" lon="-7.834191">
        <ele>521.5</ele>
        <time>1970-01-01T00:32:19.000Z</time>
      </trkpt>
      <trkpt lat="42.764638" lon="-7.834223">
        <ele>521.4</ele>
        <time>1970-01-01T00:32:20.000Z</time>
      </trkpt>
      <trkpt lat="42.764599" lon="-7.834247">
        <ele>521.4</ele>
        <time>1970-01-01T00:32:21.000Z</time>
      </trkpt>
      <trkpt lat="42.764558" lon="-7.834259">
        <ele>521.4</ele>
        <time>1970-01-01T00:32:22.000Z</time>
      </trkpt>
      <trkpt lat="42.764518" lon="-7.834269">
        <ele>521.3</ele>
        <time>1970-01-01T00:32:23.000Z</time>
      </trkpt>
      <trkpt lat="42.764479" lon="-7.834278">
        <ele>521.2</ele>
        <time>1970-01-01T00:32:24.000Z</time>
      </trkpt>
      <trkpt lat="42.764442" lon="-7.834288">
        <ele>521.2</ele>
        <time>1970-01-01T00:32:25.000Z</time>
      </trkpt>
      <trkpt lat="42.764404" lon="-7.834298">
        <ele>521.1</ele>
        <time>1970-01-01T00:32:26.000Z</time>
      </trkpt>
      <trkpt lat="42.764366" lon="-7.834308">
        <ele>521</ele>
        <time>1970-01-01T00:32:27.000Z</time>
      </trkpt>
      <trkpt lat="42.764328" lon="-7.834317">
        <ele>521</ele>
        <time>1970-01-01T00:32:28.000Z</time>
      </trkpt>
      <trkpt lat="42.764291" lon="-7.834327">
        <ele>521</ele>
        <time>1970-01-01T00:32:29.000Z</time>
      </trkpt>
      <trkpt lat="42.764256" lon="-7.834334">
        <ele>521</ele>
        <time>1970-01-01T00:32:30.000Z</time>
      </trkpt>
      <trkpt lat="42.764219" lon="-7.834344">
        <ele>521</ele>
        <time>1970-01-01T00:32:31.000Z</time>
      </trkpt>
      <trkpt lat="42.764181" lon="-7.834355">
        <ele>521</ele>
        <time>1970-01-01T00:32:32.000Z</time>
      </trkpt>
      <trkpt lat="42.764143" lon="-7.834368">
        <ele>521.1</ele>
        <time>1970-01-01T00:32:33.000Z</time>
      </trkpt>
      <trkpt lat="42.764105" lon="-7.83438">
        <ele>521.2</ele>
        <time>1970-01-01T00:32:34.000Z</time>
      </trkpt>
      <trkpt lat="42.764066" lon="-7.834389">
        <ele>521.3</ele>
        <time>1970-01-01T00:32:35.000Z</time>
      </trkpt>
      <trkpt lat="42.764028" lon="-7.834397">
        <ele>521.4</ele>
        <time>1970-01-01T00:32:36.000Z</time>
      </trkpt>
      <trkpt lat="42.76399" lon="-7.834407">
        <ele>521.4</ele>
        <time>1970-01-01T00:32:37.000Z</time>
      </trkpt>
      <trkpt lat="42.763952" lon="-7.834414">
        <ele>521.5</ele>
        <time>1970-01-01T00:32:38.000Z</time>
      </trkpt>
      <trkpt lat="42.763915" lon="-7.834425">
        <ele>521.6</ele>
        <time>1970-01-01T00:32:39.000Z</time>
      </trkpt>
      <trkpt lat="42.763878" lon="-7.834435">
        <ele>521.6</ele>
        <time>1970-01-01T00:32:40.000Z</time>
      </trkpt>
      <trkpt lat="42.76384" lon="-7.834444">
        <ele>521.6</ele>
        <time>1970-01-01T00:32:41.000Z</time>
      </trkpt>
      <trkpt lat="42.763802" lon="-7.834451">
        <ele>521.7</ele>
        <time>1970-01-01T00:32:42.000Z</time>
      </trkpt>
      <trkpt lat="42.763764" lon="-7.834458">
        <ele>521.7</ele>
        <time>1970-01-01T00:32:43.000Z</time>
      </trkpt>
      <trkpt lat="42.763726" lon="-7.834467">
        <ele>521.8</ele>
        <time>1970-01-01T00:32:44.000Z</time>
      </trkpt>
      <trkpt lat="42.763688" lon="-7.834477">
        <ele>521.8</ele>
        <time>1970-01-01T00:32:45.000Z</time>
      </trkpt>
      <trkpt lat="42.76365" lon="-7.834487">
        <ele>521.9</ele>
        <time>1970-01-01T00:32:46.000Z</time>
      </trkpt>
      <trkpt lat="42.76361" lon="-7.834496">
        <ele>522</ele>
        <time>1970-01-01T00:32:47.000Z</time>
      </trkpt>
      <trkpt lat="42.763571" lon="-7.834504">
        <ele>522.1</ele>
        <time>1970-01-01T00:32:48.000Z</time>
      </trkpt>
      <trkpt lat="42.763533" lon="-7.83451">
        <ele>522.2</ele>
        <time>1970-01-01T00:32:49.000Z</time>
      </trkpt>
      <trkpt lat="42.763495" lon="-7.834515">
        <ele>522.4</ele>
        <time>1970-01-01T00:32:50.000Z</time>
      </trkpt>
      <trkpt lat="42.763461" lon="-7.83452">
        <ele>522.5</ele>
        <time>1970-01-01T00:32:51.000Z</time>
      </trkpt>
      <trkpt lat="42.763426" lon="-7.834523">
        <ele>522.7</ele>
        <time>1970-01-01T00:32:52.000Z</time>
      </trkpt>
      <trkpt lat="42.76339" lon="-7.834529">
        <ele>522.8</ele>
        <time>1970-01-01T00:32:53.000Z</time>
      </trkpt>
      <trkpt lat="42.763356" lon="-7.834534">
        <ele>522.9</ele>
        <time>1970-01-01T00:32:54.000Z</time>
      </trkpt>
      <trkpt lat="42.763328" lon="-7.834547">
        <ele>523</ele>
        <time>1970-01-01T00:32:55.000Z</time>
      </trkpt>
      <trkpt lat="42.76331" lon="-7.834572">
        <ele>523</ele>
        <time>1970-01-01T00:32:56.000Z</time>
      </trkpt>
      <trkpt lat="42.763295" lon="-7.834601">
        <ele>523.6</ele>
        <time>1970-01-01T00:32:57.000Z</time>
      </trkpt>
      <trkpt lat="42.763281" lon="-7.83463">
        <ele>523.8</ele>
        <time>1970-01-01T00:32:58.000Z</time>
      </trkpt>
      <trkpt lat="42.763262" lon="-7.834659">
        <ele>523.9</ele>
        <time>1970-01-01T00:32:59.000Z</time>
      </trkpt>
      <trkpt lat="42.763245" lon="-7.83468">
        <ele>524.1</ele>
        <time>1970-01-01T00:33:00.000Z</time>
      </trkpt>
      <trkpt lat="42.763227" lon="-7.834699">
        <ele>524.2</ele>
        <time>1970-01-01T00:33:01.000Z</time>
      </trkpt>
      <trkpt lat="42.763205" lon="-7.834714">
        <ele>524.3</ele>
        <time>1970-01-01T00:33:02.000Z</time>
      </trkpt>
      <trkpt lat="42.763182" lon="-7.834734">
        <ele>524.4</ele>
        <time>1970-01-01T00:33:03.000Z</time>
      </trkpt>
      <trkpt lat="42.763158" lon="-7.834763">
        <ele>524.5</ele>
        <time>1970-01-01T00:33:04.000Z</time>
      </trkpt>
      <trkpt lat="42.76313" lon="-7.834799">
        <ele>524.5</ele>
        <time>1970-01-01T00:33:05.000Z</time>
      </trkpt>
      <trkpt lat="42.763098" lon="-7.834837">
        <ele>524.5</ele>
        <time>1970-01-01T00:33:06.000Z</time>
      </trkpt>
      <trkpt lat="42.763067" lon="-7.83487">
        <ele>524.5</ele>
        <time>1970-01-01T00:33:07.000Z</time>
      </trkpt>
      <trkpt lat="42.763028" lon="-7.834897">
        <ele>524.5</ele>
        <time>1970-01-01T00:33:08.000Z</time>
      </trkpt>
      <trkpt lat="42.762983" lon="-7.834921">
        <ele>524.4</ele>
        <time>1970-01-01T00:33:09.000Z</time>
      </trkpt>
      <trkpt lat="42.76293" lon="-7.83494">
        <ele>524.3</ele>
        <time>1970-01-01T00:33:10.000Z</time>
      </trkpt>
      <trkpt lat="42.762879" lon="-7.834954">
        <ele>524.1</ele>
        <time>1970-01-01T00:33:11.000Z</time>
      </trkpt>
      <trkpt lat="42.762827" lon="-7.834964">
        <ele>523.8</ele>
        <time>1970-01-01T00:33:12.000Z</time>
      </trkpt>
      <trkpt lat="42.762775" lon="-7.834972">
        <ele>523.5</ele>
        <time>1970-01-01T00:33:13.000Z</time>
      </trkpt>
      <trkpt lat="42.762728" lon="-7.834978">
        <ele>523.3</ele>
        <time>1970-01-01T00:33:14.000Z</time>
      </trkpt>
      <trkpt lat="42.762683" lon="-7.834977">
        <ele>523.1</ele>
        <time>1970-01-01T00:33:15.000Z</time>
      </trkpt>
      <trkpt lat="42.762642" lon="-7.834959">
        <ele>522.9</ele>
        <time>1970-01-01T00:33:16.000Z</time>
      </trkpt>
      <trkpt lat="42.762606" lon="-7.834922">
        <ele>522.7</ele>
        <time>1970-01-01T00:33:17.000Z</time>
      </trkpt>
      <trkpt lat="42.762574" lon="-7.83488">
        <ele>522.6</ele>
        <time>1970-01-01T00:33:18.000Z</time>
      </trkpt>
      <trkpt lat="42.762543" lon="-7.834839">
        <ele>522.5</ele>
        <time>1970-01-01T00:33:19.000Z</time>
      </trkpt>
      <trkpt lat="42.762509" lon="-7.834804">
        <ele>522.5</ele>
        <time>1970-01-01T00:33:20.000Z</time>
      </trkpt>
      <trkpt lat="42.762471" lon="-7.834774">
        <ele>522.5</ele>
        <time>1970-01-01T00:33:21.000Z</time>
      </trkpt>
      <trkpt lat="42.76243" lon="-7.834749">
        <ele>522.6</ele>
        <time>1970-01-01T00:33:22.000Z</time>
      </trkpt>
      <trkpt lat="42.76239" lon="-7.834727">
        <ele>522.6</ele>
        <time>1970-01-01T00:33:23.000Z</time>
      </trkpt>
      <trkpt lat="42.762347" lon="-7.834707">
        <ele>522.7</ele>
        <time>1970-01-01T00:33:24.000Z</time>
      </trkpt>
      <trkpt lat="42.762308" lon="-7.83468">
        <ele>522.7</ele>
        <time>1970-01-01T00:33:25.000Z</time>
      </trkpt>
      <trkpt lat="42.762271" lon="-7.834647">
        <ele>522.8</ele>
        <time>1970-01-01T00:33:26.000Z</time>
      </trkpt>
      <trkpt lat="42.762232" lon="-7.834614">
        <ele>522.9</ele>
        <time>1970-01-01T00:33:27.000Z</time>
      </trkpt>
      <trkpt lat="42.762192" lon="-7.834588">
        <ele>522.9</ele>
        <time>1970-01-01T00:33:28.000Z</time>
      </trkpt>
      <trkpt lat="42.762148" lon="-7.834578">
        <ele>523</ele>
        <time>1970-01-01T00:33:29.000Z</time>
      </trkpt>
      <trkpt lat="42.762099" lon="-7.834587">
        <ele>523</ele>
        <time>1970-01-01T00:33:30.000Z</time>
      </trkpt>
      <trkpt lat="42.762051" lon="-7.834606">
        <ele>522.9</ele>
        <time>1970-01-01T00:33:31.000Z</time>
      </trkpt>
      <trkpt lat="42.762" lon="-7.834628">
        <ele>522.9</ele>
        <time>1970-01-01T00:33:32.000Z</time>
      </trkpt>
      <trkpt lat="42.761949" lon="-7.834656">
        <ele>522.9</ele>
        <time>1970-01-01T00:33:33.000Z</time>
      </trkpt>
      <trkpt lat="42.7619" lon="-7.834688">
        <ele>522.9</ele>
        <time>1970-01-01T00:33:34.000Z</time>
      </trkpt>
      <trkpt lat="42.761853" lon="-7.834724">
        <ele>522.9</ele>
        <time>1970-01-01T00:33:35.000Z</time>
      </trkpt>
      <trkpt lat="42.761807" lon="-7.834762">
        <ele>522.8</ele>
        <time>1970-01-01T00:33:36.000Z</time>
      </trkpt>
      <trkpt lat="42.76176" lon="-7.834801">
        <ele>522.7</ele>
        <time>1970-01-01T00:33:37.000Z</time>
      </trkpt>
      <trkpt lat="42.761715" lon="-7.834841">
        <ele>522.7</ele>
        <time>1970-01-01T00:33:38.000Z</time>
      </trkpt>
      <trkpt lat="42.76167" lon="-7.83488">
        <ele>522.5</ele>
        <time>1970-01-01T00:33:39.000Z</time>
      </trkpt>
      <trkpt lat="42.761625" lon="-7.83492">
        <ele>522.4</ele>
        <time>1970-01-01T00:33:40.000Z</time>
      </trkpt>
      <trkpt lat="42.761579" lon="-7.834962">
        <ele>522.3</ele>
        <time>1970-01-01T00:33:41.000Z</time>
      </trkpt>
      <trkpt lat="42.761534" lon="-7.835007">
        <ele>522.2</ele>
        <time>1970-01-01T00:33:42.000Z</time>
      </trkpt>
      <trkpt lat="42.76149" lon="-7.835056">
        <ele>522.1</ele>
        <time>1970-01-01T00:33:43.000Z</time>
      </trkpt>
      <trkpt lat="42.761444" lon="-7.835105">
        <ele>522</ele>
        <time>1970-01-01T00:33:44.000Z</time>
      </trkpt>
      <trkpt lat="42.761394" lon="-7.835153">
        <ele>521.9</ele>
        <time>1970-01-01T00:33:45.000Z</time>
      </trkpt>
      <trkpt lat="42.761338" lon="-7.835202">
        <ele>521.8</ele>
        <time>1970-01-01T00:33:46.000Z</time>
      </trkpt>
      <trkpt lat="42.761275" lon="-7.835249">
        <ele>521.7</ele>
        <time>1970-01-01T00:33:47.000Z</time>
      </trkpt>
      <trkpt lat="42.761207" lon="-7.835297">
        <ele>521.6</ele>
        <time>1970-01-01T00:33:48.000Z</time>
      </trkpt>
      <trkpt lat="42.761137" lon="-7.835344">
        <ele>521.3</ele>
        <time>1970-01-01T00:33:49.000Z</time>
      </trkpt>
      <trkpt lat="42.761071" lon="-7.835391">
        <ele>520.9</ele>
        <time>1970-01-01T00:33:50.000Z</time>
      </trkpt>
      <trkpt lat="42.761014" lon="-7.835445">
        <ele>520.5</ele>
        <time>1970-01-01T00:33:51.000Z</time>
      </trkpt>
      <trkpt lat="42.760969" lon="-7.83551">
        <ele>520.1</ele>
        <time>1970-01-01T00:33:52.000Z</time>
      </trkpt>
      <trkpt lat="42.760937" lon="-7.835576">
        <ele>519.8</ele>
        <time>1970-01-01T00:33:53.000Z</time>
      </trkpt>
      <trkpt lat="42.76091" lon="-7.83565">
        <ele>519.7</ele>
        <time>1970-01-01T00:33:54.000Z</time>
      </trkpt>
      <trkpt lat="42.760886" lon="-7.83573">
        <ele>519.6</ele>
        <time>1970-01-01T00:33:55.000Z</time>
      </trkpt>
      <trkpt lat="42.760865" lon="-7.835808">
        <ele>519.4</ele>
        <time>1970-01-01T00:33:56.000Z</time>
      </trkpt>
      <trkpt lat="42.760847" lon="-7.835887">
        <ele>519.3</ele>
        <time>1970-01-01T00:33:57.000Z</time>
      </trkpt>
      <trkpt lat="42.760828" lon="-7.835966">
        <ele>519.2</ele>
        <time>1970-01-01T00:33:58.000Z</time>
      </trkpt>
      <trkpt lat="42.760809" lon="-7.836041">
        <ele>519.3</ele>
        <time>1970-01-01T00:33:59.000Z</time>
      </trkpt>
      <trkpt lat="42.760792" lon="-7.83611">
        <ele>519.5</ele>
        <time>1970-01-01T00:34:00.000Z</time>
      </trkpt>
      <trkpt lat="42.760774" lon="-7.836177">
        <ele>519.7</ele>
        <time>1970-01-01T00:34:01.000Z</time>
      </trkpt>
      <trkpt lat="42.760755" lon="-7.836241">
        <ele>519.8</ele>
        <time>1970-01-01T00:34:02.000Z</time>
      </trkpt>
      <trkpt lat="42.760737" lon="-7.836304">
        <ele>520</ele>
        <time>1970-01-01T00:34:03.000Z</time>
      </trkpt>
      <trkpt lat="42.760719" lon="-7.836365">
        <ele>520.3</ele>
        <time>1970-01-01T00:34:04.000Z</time>
      </trkpt>
      <trkpt lat="42.760699" lon="-7.836422">
        <ele>520.5</ele>
        <time>1970-01-01T00:34:05.000Z</time>
      </trkpt>
      <trkpt lat="42.760677" lon="-7.836474">
        <ele>520.7</ele>
        <time>1970-01-01T00:34:06.000Z</time>
      </trkpt>
      <trkpt lat="42.760653" lon="-7.836524">
        <ele>521</ele>
        <time>1970-01-01T00:34:07.000Z</time>
      </trkpt>
      <trkpt lat="42.76063" lon="-7.836572">
        <ele>521.4</ele>
        <time>1970-01-01T00:34:08.000Z</time>
      </trkpt>
      <trkpt lat="42.760606" lon="-7.836617">
        <ele>521.7</ele>
        <time>1970-01-01T00:34:09.000Z</time>
      </trkpt>
      <trkpt lat="42.76058" lon="-7.836658">
        <ele>522</ele>
        <time>1970-01-01T00:34:10.000Z</time>
      </trkpt>
      <trkpt lat="42.760555" lon="-7.836696">
        <ele>522.3</ele>
        <time>1970-01-01T00:34:11.000Z</time>
      </trkpt>
      <trkpt lat="42.760531" lon="-7.836732">
        <ele>522.5</ele>
        <time>1970-01-01T00:34:12.000Z</time>
      </trkpt>
      <trkpt lat="42.760507" lon="-7.836766">
        <ele>522.8</ele>
        <time>1970-01-01T00:34:13.000Z</time>
      </trkpt>
      <trkpt lat="42.760482" lon="-7.836797">
        <ele>523.1</ele>
        <time>1970-01-01T00:34:14.000Z</time>
      </trkpt>
      <trkpt lat="42.760457" lon="-7.836826">
        <ele>523.4</ele>
        <time>1970-01-01T00:34:15.000Z</time>
      </trkpt>
      <trkpt lat="42.760434" lon="-7.836853">
        <ele>523.6</ele>
        <time>1970-01-01T00:34:16.000Z</time>
      </trkpt>
      <trkpt lat="42.760413" lon="-7.836874">
        <ele>523.9</ele>
        <time>1970-01-01T00:34:17.000Z</time>
      </trkpt>
      <trkpt lat="42.760396" lon="-7.836899">
        <ele>524.1</ele>
        <time>1970-01-01T00:34:18.000Z</time>
      </trkpt>
      <trkpt lat="42.760374" lon="-7.836923">
        <ele>524.4</ele>
        <time>1970-01-01T00:34:19.000Z</time>
      </trkpt>
      <trkpt lat="42.760354" lon="-7.836949">
        <ele>524.7</ele>
        <time>1970-01-01T00:34:20.000Z</time>
      </trkpt>
      <trkpt lat="42.760332" lon="-7.836974">
        <ele>524.9</ele>
        <time>1970-01-01T00:34:21.000Z</time>
      </trkpt>
      <trkpt lat="42.760309" lon="-7.836996">
        <ele>525.2</ele>
        <time>1970-01-01T00:34:22.000Z</time>
      </trkpt>
      <trkpt lat="42.760282" lon="-7.837016">
        <ele>525.5</ele>
        <time>1970-01-01T00:34:23.000Z</time>
      </trkpt>
      <trkpt lat="42.760256" lon="-7.83703">
        <ele>525.8</ele>
        <time>1970-01-01T00:34:24.000Z</time>
      </trkpt>
      <trkpt lat="42.760229" lon="-7.837039">
        <ele>526.1</ele>
        <time>1970-01-01T00:34:25.000Z</time>
      </trkpt>
      <trkpt lat="42.760202" lon="-7.837045">
        <ele>526.4</ele>
        <time>1970-01-01T00:34:26.000Z</time>
      </trkpt>
      <trkpt lat="42.760175" lon="-7.837046">
        <ele>526.7</ele>
        <time>1970-01-01T00:34:27.000Z</time>
      </trkpt>
      <trkpt lat="42.76015" lon="-7.837046">
        <ele>527</ele>
        <time>1970-01-01T00:34:28.000Z</time>
      </trkpt>
      <trkpt lat="42.760121" lon="-7.837049">
        <ele>527.4</ele>
        <time>1970-01-01T00:34:29.000Z</time>
      </trkpt>
      <trkpt lat="42.760095" lon="-7.837048">
        <ele>527.8</ele>
        <time>1970-01-01T00:34:30.000Z</time>
      </trkpt>
      <trkpt lat="42.760069" lon="-7.837043">
        <ele>528.1</ele>
        <time>1970-01-01T00:34:31.000Z</time>
      </trkpt>
      <trkpt lat="42.760045" lon="-7.837032">
        <ele>528.5</ele>
        <time>1970-01-01T00:34:32.000Z</time>
      </trkpt>
      <trkpt lat="42.760018" lon="-7.837022">
        <ele>528.9</ele>
        <time>1970-01-01T00:34:33.000Z</time>
      </trkpt>
      <trkpt lat="42.759989" lon="-7.837015">
        <ele>529.2</ele>
        <time>1970-01-01T00:34:34.000Z</time>
      </trkpt>
      <trkpt lat="42.759962" lon="-7.837008">
        <ele>529.6</ele>
        <time>1970-01-01T00:34:35.000Z</time>
      </trkpt>
      <trkpt lat="42.759933" lon="-7.837001">
        <ele>529.9</ele>
        <time>1970-01-01T00:34:36.000Z</time>
      </trkpt>
      <trkpt lat="42.759906" lon="-7.836997">
        <ele>530.2</ele>
        <time>1970-01-01T00:34:37.000Z</time>
      </trkpt>
      <trkpt lat="42.759877" lon="-7.836991">
        <ele>530.4</ele>
        <time>1970-01-01T00:34:38.000Z</time>
      </trkpt>
      <trkpt lat="42.759849" lon="-7.836983">
        <ele>530.6</ele>
        <time>1970-01-01T00:34:39.000Z</time>
      </trkpt>
      <trkpt lat="42.759816" lon="-7.836976">
        <ele>530.8</ele>
        <time>1970-01-01T00:34:40.000Z</time>
      </trkpt>
      <trkpt lat="42.759778" lon="-7.836971">
        <ele>531</ele>
        <time>1970-01-01T00:34:41.000Z</time>
      </trkpt>
      <trkpt lat="42.75974" lon="-7.836968">
        <ele>531.1</ele>
        <time>1970-01-01T00:34:42.000Z</time>
      </trkpt>
      <trkpt lat="42.759698" lon="-7.836968">
        <ele>531.2</ele>
        <time>1970-01-01T00:34:43.000Z</time>
      </trkpt>
      <trkpt lat="42.759662" lon="-7.836963">
        <ele>531.2</ele>
        <time>1970-01-01T00:34:44.000Z</time>
      </trkpt>
      <trkpt lat="42.759627" lon="-7.836953">
        <ele>531.3</ele>
        <time>1970-01-01T00:34:45.000Z</time>
      </trkpt>
      <trkpt lat="42.759591" lon="-7.836941">
        <ele>531.3</ele>
        <time>1970-01-01T00:34:46.000Z</time>
      </trkpt>
      <trkpt lat="42.759555" lon="-7.836929">
        <ele>531.3</ele>
        <time>1970-01-01T00:34:47.000Z</time>
      </trkpt>
      <trkpt lat="42.759516" lon="-7.836916">
        <ele>531.4</ele>
        <time>1970-01-01T00:34:48.000Z</time>
      </trkpt>
      <trkpt lat="42.759473" lon="-7.836906">
        <ele>531.4</ele>
        <time>1970-01-01T00:34:49.000Z</time>
      </trkpt>
      <trkpt lat="42.759428" lon="-7.836898">
        <ele>531.5</ele>
        <time>1970-01-01T00:34:50.000Z</time>
      </trkpt>
      <trkpt lat="42.759387" lon="-7.836886">
        <ele>531.6</ele>
        <time>1970-01-01T00:34:51.000Z</time>
      </trkpt>
      <trkpt lat="42.759346" lon="-7.836872">
        <ele>531.6</ele>
        <time>1970-01-01T00:34:52.000Z</time>
      </trkpt>
      <trkpt lat="42.759305" lon="-7.836856">
        <ele>531.7</ele>
        <time>1970-01-01T00:34:53.000Z</time>
      </trkpt>
      <trkpt lat="42.759265" lon="-7.836837">
        <ele>531.8</ele>
        <time>1970-01-01T00:34:54.000Z</time>
      </trkpt>
      <trkpt lat="42.759228" lon="-7.836818">
        <ele>531.8</ele>
        <time>1970-01-01T00:34:55.000Z</time>
      </trkpt>
      <trkpt lat="42.759189" lon="-7.836799">
        <ele>531.9</ele>
        <time>1970-01-01T00:34:56.000Z</time>
      </trkpt>
      <trkpt lat="42.759151" lon="-7.836782">
        <ele>531.9</ele>
        <time>1970-01-01T00:34:57.000Z</time>
      </trkpt>
      <trkpt lat="42.759112" lon="-7.836768">
        <ele>531.9</ele>
        <time>1970-01-01T00:34:58.000Z</time>
      </trkpt>
      <trkpt lat="42.759072" lon="-7.83676">
        <ele>532</ele>
        <time>1970-01-01T00:34:59.000Z</time>
      </trkpt>
      <trkpt lat="42.75903" lon="-7.836754">
        <ele>532</ele>
        <time>1970-01-01T00:35:00.000Z</time>
      </trkpt>
      <trkpt lat="42.75899" lon="-7.836751">
        <ele>532</ele>
        <time>1970-01-01T00:35:01.000Z</time>
      </trkpt>
      <trkpt lat="42.758949" lon="-7.836753">
        <ele>532</ele>
        <time>1970-01-01T00:35:02.000Z</time>
      </trkpt>
      <trkpt lat="42.758909" lon="-7.836762">
        <ele>532</ele>
        <time>1970-01-01T00:35:03.000Z</time>
      </trkpt>
      <trkpt lat="42.758869" lon="-7.836775">
        <ele>532.1</ele>
        <time>1970-01-01T00:35:04.000Z</time>
      </trkpt>
      <trkpt lat="42.75883" lon="-7.83679">
        <ele>532.1</ele>
        <time>1970-01-01T00:35:05.000Z</time>
      </trkpt>
      <trkpt lat="42.758791" lon="-7.836804">
        <ele>532.2</ele>
        <time>1970-01-01T00:35:06.000Z</time>
      </trkpt>
      <trkpt lat="42.758752" lon="-7.836818">
        <ele>532.3</ele>
        <time>1970-01-01T00:35:07.000Z</time>
      </trkpt>
      <trkpt lat="42.758713" lon="-7.836831">
        <ele>532.4</ele>
        <time>1970-01-01T00:35:08.000Z</time>
      </trkpt>
      <trkpt lat="42.758674" lon="-7.836848">
        <ele>532.5</ele>
        <time>1970-01-01T00:35:09.000Z</time>
      </trkpt>
      <trkpt lat="42.758636" lon="-7.836864">
        <ele>532.5</ele>
        <time>1970-01-01T00:35:10.000Z</time>
      </trkpt>
      <trkpt lat="42.758597" lon="-7.836879">
        <ele>532.6</ele>
        <time>1970-01-01T00:35:11.000Z</time>
      </trkpt>
      <trkpt lat="42.758559" lon="-7.836896">
        <ele>532.7</ele>
        <time>1970-01-01T00:35:12.000Z</time>
      </trkpt>
      <trkpt lat="42.758522" lon="-7.836912">
        <ele>532.7</ele>
        <time>1970-01-01T00:35:13.000Z</time>
      </trkpt>
      <trkpt lat="42.758484" lon="-7.83693">
        <ele>532.8</ele>
        <time>1970-01-01T00:35:14.000Z</time>
      </trkpt>
      <trkpt lat="42.758447" lon="-7.836945">
        <ele>532.8</ele>
        <time>1970-01-01T00:35:15.000Z</time>
      </trkpt>
      <trkpt lat="42.758409" lon="-7.836961">
        <ele>532.9</ele>
        <time>1970-01-01T00:35:16.000Z</time>
      </trkpt>
      <trkpt lat="42.75837" lon="-7.836974">
        <ele>532.9</ele>
        <time>1970-01-01T00:35:17.000Z</time>
      </trkpt>
      <trkpt lat="42.758331" lon="-7.836985">
        <ele>533</ele>
        <time>1970-01-01T00:35:18.000Z</time>
      </trkpt>
      <trkpt lat="42.758291" lon="-7.836995">
        <ele>533.1</ele>
        <time>1970-01-01T00:35:19.000Z</time>
      </trkpt>
      <trkpt lat="42.758252" lon="-7.837006">
        <ele>533.2</ele>
        <time>1970-01-01T00:35:20.000Z</time>
      </trkpt>
      <trkpt lat="42.758213" lon="-7.837016">
        <ele>533.3</ele>
        <time>1970-01-01T00:35:21.000Z</time>
      </trkpt>
      <trkpt lat="42.758173" lon="-7.837024">
        <ele>533.4</ele>
        <time>1970-01-01T00:35:22.000Z</time>
      </trkpt>
      <trkpt lat="42.758135" lon="-7.83703">
        <ele>533.5</ele>
        <time>1970-01-01T00:35:23.000Z</time>
      </trkpt>
      <trkpt lat="42.758098" lon="-7.837031">
        <ele>533.5</ele>
        <time>1970-01-01T00:35:24.000Z</time>
      </trkpt>
      <trkpt lat="42.75806" lon="-7.83703">
        <ele>533.6</ele>
        <time>1970-01-01T00:35:25.000Z</time>
      </trkpt>
      <trkpt lat="42.758022" lon="-7.837031">
        <ele>533.8</ele>
        <time>1970-01-01T00:35:26.000Z</time>
      </trkpt>
      <trkpt lat="42.757984" lon="-7.83703">
        <ele>534</ele>
        <time>1970-01-01T00:35:27.000Z</time>
      </trkpt>
      <trkpt lat="42.757946" lon="-7.837035">
        <ele>534.2</ele>
        <time>1970-01-01T00:35:28.000Z</time>
      </trkpt>
      <trkpt lat="42.757907" lon="-7.837043">
        <ele>534.3</ele>
        <time>1970-01-01T00:35:29.000Z</time>
      </trkpt>
      <trkpt lat="42.757871" lon="-7.837059">
        <ele>534.5</ele>
        <time>1970-01-01T00:35:30.000Z</time>
      </trkpt>
      <trkpt lat="42.757836" lon="-7.837082">
        <ele>534.7</ele>
        <time>1970-01-01T00:35:31.000Z</time>
      </trkpt>
      <trkpt lat="42.757805" lon="-7.837111">
        <ele>534.8</ele>
        <time>1970-01-01T00:35:32.000Z</time>
      </trkpt>
      <trkpt lat="42.757776" lon="-7.837146">
        <ele>535</ele>
        <time>1970-01-01T00:35:33.000Z</time>
      </trkpt>
      <trkpt lat="42.757749" lon="-7.837184">
        <ele>535.1</ele>
        <time>1970-01-01T00:35:34.000Z</time>
      </trkpt>
      <trkpt lat="42.757724" lon="-7.837222">
        <ele>535.3</ele>
        <time>1970-01-01T00:35:35.000Z</time>
      </trkpt>
      <trkpt lat="42.757697" lon="-7.83726">
        <ele>535.4</ele>
        <time>1970-01-01T00:35:36.000Z</time>
      </trkpt>
      <trkpt lat="42.75767" lon="-7.837298">
        <ele>535.6</ele>
        <time>1970-01-01T00:35:37.000Z</time>
      </trkpt>
      <trkpt lat="42.757643" lon="-7.837335">
        <ele>535.7</ele>
        <time>1970-01-01T00:35:38.000Z</time>
      </trkpt>
      <trkpt lat="42.757614" lon="-7.837369">
        <ele>535.8</ele>
        <time>1970-01-01T00:35:39.000Z</time>
      </trkpt>
      <trkpt lat="42.757586" lon="-7.837402">
        <ele>535.9</ele>
        <time>1970-01-01T00:35:40.000Z</time>
      </trkpt>
      <trkpt lat="42.757555" lon="-7.837432">
        <ele>536.1</ele>
        <time>1970-01-01T00:35:41.000Z</time>
      </trkpt>
      <trkpt lat="42.757526" lon="-7.837463">
        <ele>536.3</ele>
        <time>1970-01-01T00:35:42.000Z</time>
      </trkpt>
      <trkpt lat="42.757497" lon="-7.837491">
        <ele>536.5</ele>
        <time>1970-01-01T00:35:43.000Z</time>
      </trkpt>
      <trkpt lat="42.757468" lon="-7.837516">
        <ele>536.6</ele>
        <time>1970-01-01T00:35:44.000Z</time>
      </trkpt>
      <trkpt lat="42.75744" lon="-7.837539">
        <ele>536.7</ele>
        <time>1970-01-01T00:35:45.000Z</time>
      </trkpt>
      <trkpt lat="42.757413" lon="-7.837564">
        <ele>536.9</ele>
        <time>1970-01-01T00:35:46.000Z</time>
      </trkpt>
      <trkpt lat="42.757385" lon="-7.837588">
        <ele>537</ele>
        <time>1970-01-01T00:35:47.000Z</time>
      </trkpt>
      <trkpt lat="42.757357" lon="-7.837609">
        <ele>537.1</ele>
        <time>1970-01-01T00:35:48.000Z</time>
      </trkpt>
      <trkpt lat="42.757327" lon="-7.837622">
        <ele>537.3</ele>
        <time>1970-01-01T00:35:49.000Z</time>
      </trkpt>
      <trkpt lat="42.757307" lon="-7.83761">
        <ele>537.4</ele>
        <time>1970-01-01T00:35:50.000Z</time>
      </trkpt>
      <trkpt lat="42.757287" lon="-7.837588">
        <ele>537.5</ele>
        <time>1970-01-01T00:35:51.000Z</time>
      </trkpt>
      <trkpt lat="42.757272" lon="-7.837557">
        <ele>537.8</ele>
        <time>1970-01-01T00:35:52.000Z</time>
      </trkpt>
      <trkpt lat="42.757251" lon="-7.837529">
        <ele>537.8</ele>
        <time>1970-01-01T00:35:53.000Z</time>
      </trkpt>
      <trkpt lat="42.757222" lon="-7.837505">
        <ele>537.7</ele>
        <time>1970-01-01T00:35:54.000Z</time>
      </trkpt>
      <trkpt lat="42.757198" lon="-7.837478">
        <ele>537.6</ele>
        <time>1970-01-01T00:35:55.000Z</time>
      </trkpt>
      <trkpt lat="42.75717" lon="-7.837452">
        <ele>537.6</ele>
        <time>1970-01-01T00:35:56.000Z</time>
      </trkpt>
      <trkpt lat="42.757138" lon="-7.837432">
        <ele>537.5</ele>
        <time>1970-01-01T00:35:57.000Z</time>
      </trkpt>
      <trkpt lat="42.757106" lon="-7.83742">
        <ele>537.4</ele>
        <time>1970-01-01T00:35:58.000Z</time>
      </trkpt>
      <trkpt lat="42.757075" lon="-7.837417">
        <ele>537.3</ele>
        <time>1970-01-01T00:35:59.000Z</time>
      </trkpt>
      <trkpt lat="42.757043" lon="-7.837413">
        <ele>537.3</ele>
        <time>1970-01-01T00:36:00.000Z</time>
      </trkpt>
      <trkpt lat="42.757017" lon="-7.837405">
        <ele>537.2</ele>
        <time>1970-01-01T00:36:01.000Z</time>
      </trkpt>
      <trkpt lat="42.756996" lon="-7.837403">
        <ele>537.1</ele>
        <time>1970-01-01T00:36:02.000Z</time>
      </trkpt>
      <trkpt lat="42.756974" lon="-7.83741">
        <ele>537.1</ele>
        <time>1970-01-01T00:36:03.000Z</time>
      </trkpt>
      <trkpt lat="42.756949" lon="-7.83742">
        <ele>537</ele>
        <time>1970-01-01T00:36:04.000Z</time>
      </trkpt>
      <trkpt lat="42.756927" lon="-7.83743">
        <ele>537.2</ele>
        <time>1970-01-01T00:36:05.000Z</time>
      </trkpt>
      <trkpt lat="42.756905" lon="-7.837444">
        <ele>537.3</ele>
        <time>1970-01-01T00:36:06.000Z</time>
      </trkpt>
      <trkpt lat="42.756884" lon="-7.83746">
        <ele>537.4</ele>
        <time>1970-01-01T00:36:07.000Z</time>
      </trkpt>
      <trkpt lat="42.756864" lon="-7.837478">
        <ele>537.5</ele>
        <time>1970-01-01T00:36:08.000Z</time>
      </trkpt>
      <trkpt lat="42.756843" lon="-7.837493">
        <ele>537.6</ele>
        <time>1970-01-01T00:36:09.000Z</time>
      </trkpt>
      <trkpt lat="42.756823" lon="-7.83751">
        <ele>537.7</ele>
        <time>1970-01-01T00:36:10.000Z</time>
      </trkpt>
      <trkpt lat="42.756801" lon="-7.837527">
        <ele>537.9</ele>
        <time>1970-01-01T00:36:11.000Z</time>
      </trkpt>
      <trkpt lat="42.756781" lon="-7.837545">
        <ele>538.1</ele>
        <time>1970-01-01T00:36:12.000Z</time>
      </trkpt>
      <trkpt lat="42.756758" lon="-7.837562">
        <ele>538.3</ele>
        <time>1970-01-01T00:36:13.000Z</time>
      </trkpt>
      <trkpt lat="42.756739" lon="-7.837577">
        <ele>538.4</ele>
        <time>1970-01-01T00:36:14.000Z</time>
      </trkpt>
      <trkpt lat="42.756721" lon="-7.837589">
        <ele>538.6</ele>
        <time>1970-01-01T00:36:15.000Z</time>
      </trkpt>
      <trkpt lat="42.756706" lon="-7.837601">
        <ele>538.7</ele>
        <time>1970-01-01T00:36:16.000Z</time>
      </trkpt>
      <trkpt lat="42.75669" lon="-7.837609">
        <ele>538.9</ele>
        <time>1970-01-01T00:36:17.000Z</time>
      </trkpt>
      <trkpt lat="42.756655" lon="-7.837628">
        <ele>539.2</ele>
        <time>1970-01-01T00:36:18.000Z</time>
      </trkpt>
      <trkpt lat="42.756655" lon="-7.837628">
        <ele>539.2</ele>
        <time>1970-01-01T00:36:19.000Z</time>
      </trkpt>
      <trkpt lat="42.756636" lon="-7.837642">
        <ele>539.3</ele>
        <time>1970-01-01T00:36:20.000Z</time>
      </trkpt>
      <trkpt lat="42.756615" lon="-7.837656">
        <ele>539.5</ele>
        <time>1970-01-01T00:36:21.000Z</time>
      </trkpt>
      <trkpt lat="42.756591" lon="-7.837669">
        <ele>539.7</ele>
        <time>1970-01-01T00:36:22.000Z</time>
      </trkpt>
      <trkpt lat="42.756572" lon="-7.837678">
        <ele>539.9</ele>
        <time>1970-01-01T00:36:23.000Z</time>
      </trkpt>
      <trkpt lat="42.756553" lon="-7.837684">
        <ele>540.1</ele>
        <time>1970-01-01T00:36:24.000Z</time>
      </trkpt>
      <trkpt lat="42.756533" lon="-7.837687">
        <ele>540.2</ele>
        <time>1970-01-01T00:36:25.000Z</time>
      </trkpt>
      <trkpt lat="42.756512" lon="-7.837688">
        <ele>540.5</ele>
        <time>1970-01-01T00:36:26.000Z</time>
      </trkpt>
      <trkpt lat="42.756491" lon="-7.837694">
        <ele>540.8</ele>
        <time>1970-01-01T00:36:27.000Z</time>
      </trkpt>
      <trkpt lat="42.756475" lon="-7.837694">
        <ele>541</ele>
        <time>1970-01-01T00:36:28.000Z</time>
      </trkpt>
      <trkpt lat="42.756457" lon="-7.837696">
        <ele>541.3</ele>
        <time>1970-01-01T00:36:29.000Z</time>
      </trkpt>
      <trkpt lat="42.756445" lon="-7.837691">
        <ele>541.4</ele>
        <time>1970-01-01T00:36:30.000Z</time>
      </trkpt>
      <trkpt lat="42.756433" lon="-7.837682">
        <ele>541.6</ele>
        <time>1970-01-01T00:36:31.000Z</time>
      </trkpt>
      <trkpt lat="42.756419" lon="-7.837675">
        <ele>541.8</ele>
        <time>1970-01-01T00:36:32.000Z</time>
      </trkpt>
      <trkpt lat="42.756406" lon="-7.837665">
        <ele>542</ele>
        <time>1970-01-01T00:36:33.000Z</time>
      </trkpt>
      <trkpt lat="42.756391" lon="-7.83765">
        <ele>542.2</ele>
        <time>1970-01-01T00:36:34.000Z</time>
      </trkpt>
      <trkpt lat="42.756373" lon="-7.837633">
        <ele>542.5</ele>
        <time>1970-01-01T00:36:35.000Z</time>
      </trkpt>
      <trkpt lat="42.756353" lon="-7.837608">
        <ele>542.8</ele>
        <time>1970-01-01T00:36:36.000Z</time>
      </trkpt>
      <trkpt lat="42.756335" lon="-7.837589">
        <ele>543</ele>
        <time>1970-01-01T00:36:37.000Z</time>
      </trkpt>
      <trkpt lat="42.756314" lon="-7.837573">
        <ele>543.3</ele>
        <time>1970-01-01T00:36:38.000Z</time>
      </trkpt>
      <trkpt lat="42.756295" lon="-7.837554">
        <ele>543.5</ele>
        <time>1970-01-01T00:36:39.000Z</time>
      </trkpt>
      <trkpt lat="42.756264" lon="-7.837513">
        <ele>544</ele>
        <time>1970-01-01T00:36:40.000Z</time>
      </trkpt>
      <trkpt lat="42.756264" lon="-7.837513">
        <ele>544</ele>
        <time>1970-01-01T00:36:41.000Z</time>
      </trkpt>
      <trkpt lat="42.75625" lon="-7.837497">
        <ele>544.2</ele>
        <time>1970-01-01T00:36:42.000Z</time>
      </trkpt>
      <trkpt lat="42.756226" lon="-7.837463">
        <ele>544.7</ele>
        <time>1970-01-01T00:36:43.000Z</time>
      </trkpt>
      <trkpt lat="42.756226" lon="-7.837463">
        <ele>544.7</ele>
        <time>1970-01-01T00:36:44.000Z</time>
      </trkpt>
      <trkpt lat="42.756214" lon="-7.837447">
        <ele>544.9</ele>
        <time>1970-01-01T00:36:45.000Z</time>
      </trkpt>
      <trkpt lat="42.756198" lon="-7.837436">
        <ele>545.2</ele>
        <time>1970-01-01T00:36:46.000Z</time>
      </trkpt>
      <trkpt lat="42.756182" lon="-7.837428">
        <ele>545.4</ele>
        <time>1970-01-01T00:36:47.000Z</time>
      </trkpt>
      <trkpt lat="42.756168" lon="-7.837421">
        <ele>545.6</ele>
        <time>1970-01-01T00:36:48.000Z</time>
      </trkpt>
      <trkpt lat="42.75615" lon="-7.837412">
        <ele>545.9</ele>
        <time>1970-01-01T00:36:49.000Z</time>
      </trkpt>
      <trkpt lat="42.756135" lon="-7.837407">
        <ele>546.1</ele>
        <time>1970-01-01T00:36:50.000Z</time>
      </trkpt>
      <trkpt lat="42.756119" lon="-7.837406">
        <ele>546.4</ele>
        <time>1970-01-01T00:36:51.000Z</time>
      </trkpt>
      <trkpt lat="42.756102" lon="-7.837405">
        <ele>546.8</ele>
        <time>1970-01-01T00:36:52.000Z</time>
      </trkpt>
      <trkpt lat="42.756084" lon="-7.837397">
        <ele>547.1</ele>
        <time>1970-01-01T00:36:53.000Z</time>
      </trkpt>
      <trkpt lat="42.756069" lon="-7.83739">
        <ele>547.4</ele>
        <time>1970-01-01T00:36:54.000Z</time>
      </trkpt>
      <trkpt lat="42.756055" lon="-7.837385">
        <ele>547.6</ele>
        <time>1970-01-01T00:36:55.000Z</time>
      </trkpt>
      <trkpt lat="42.756042" lon="-7.837384">
        <ele>547.9</ele>
        <time>1970-01-01T00:36:56.000Z</time>
      </trkpt>
      <trkpt lat="42.75603" lon="-7.837378">
        <ele>548.1</ele>
        <time>1970-01-01T00:36:57.000Z</time>
      </trkpt>
      <trkpt lat="42.75602" lon="-7.837372">
        <ele>548.3</ele>
        <time>1970-01-01T00:36:58.000Z</time>
      </trkpt>
      <trkpt lat="42.755991" lon="-7.837365">
        <ele>548.9</ele>
        <time>1970-01-01T00:36:59.000Z</time>
      </trkpt>
      <trkpt lat="42.755991" lon="-7.837365">
        <ele>548.9</ele>
        <time>1970-01-01T00:37:00.000Z</time>
      </trkpt>
      <trkpt lat="42.75598" lon="-7.837362">
        <ele>549.1</ele>
        <time>1970-01-01T00:37:01.000Z</time>
      </trkpt>
      <trkpt lat="42.755969" lon="-7.837355">
        <ele>549.3</ele>
        <time>1970-01-01T00:37:02.000Z</time>
      </trkpt>
      <trkpt lat="42.755961" lon="-7.837349">
        <ele>549.5</ele>
        <time>1970-01-01T00:37:03.000Z</time>
      </trkpt>
      <trkpt lat="42.75595" lon="-7.837344">
        <ele>549.7</ele>
        <time>1970-01-01T00:37:04.000Z</time>
      </trkpt>
      <trkpt lat="42.755937" lon="-7.837339">
        <ele>550</ele>
        <time>1970-01-01T00:37:05.000Z</time>
      </trkpt>
      <trkpt lat="42.75591" lon="-7.837323">
        <ele>550.6</ele>
        <time>1970-01-01T00:37:06.000Z</time>
      </trkpt>
      <trkpt lat="42.75591" lon="-7.837323">
        <ele>550.6</ele>
        <time>1970-01-01T00:37:07.000Z</time>
      </trkpt>
      <trkpt lat="42.755879" lon="-7.837313">
        <ele>551.2</ele>
        <time>1970-01-01T00:37:08.000Z</time>
      </trkpt>
      <trkpt lat="42.755879" lon="-7.837313">
        <ele>551.2</ele>
        <time>1970-01-01T00:37:09.000Z</time>
      </trkpt>
      <trkpt lat="42.755864" lon="-7.837304">
        <ele>551.5</ele>
        <time>1970-01-01T00:37:10.000Z</time>
      </trkpt>
      <trkpt lat="42.755851" lon="-7.837299">
        <ele>551.8</ele>
        <time>1970-01-01T00:37:11.000Z</time>
      </trkpt>
      <trkpt lat="42.755841" lon="-7.837291">
        <ele>552</ele>
        <time>1970-01-01T00:37:12.000Z</time>
      </trkpt>
      <trkpt lat="42.755813" lon="-7.837276">
        <ele>552.5</ele>
        <time>1970-01-01T00:37:13.000Z</time>
      </trkpt>
      <trkpt lat="42.755813" lon="-7.837276">
        <ele>552.5</ele>
        <time>1970-01-01T00:37:14.000Z</time>
      </trkpt>
      <trkpt lat="42.7558" lon="-7.837266">
        <ele>552.7</ele>
        <time>1970-01-01T00:37:15.000Z</time>
      </trkpt>
      <trkpt lat="42.75577" lon="-7.837239">
        <ele>553.3</ele>
        <time>1970-01-01T00:37:16.000Z</time>
      </trkpt>
      <trkpt lat="42.75577" lon="-7.837239">
        <ele>553.3</ele>
        <time>1970-01-01T00:37:17.000Z</time>
      </trkpt>
      <trkpt lat="42.755751" lon="-7.83722">
        <ele>553.6</ele>
        <time>1970-01-01T00:37:18.000Z</time>
      </trkpt>
      <trkpt lat="42.755718" lon="-7.837216">
        <ele>554.1</ele>
        <time>1970-01-01T00:37:19.000Z</time>
      </trkpt>
      <trkpt lat="42.755702" lon="-7.837208">
        <ele>554.3</ele>
        <time>1970-01-01T00:37:20.000Z</time>
      </trkpt>
      <trkpt lat="42.755702" lon="-7.837208">
        <ele>554.3</ele>
        <time>1970-01-01T00:37:21.000Z</time>
      </trkpt>
      <trkpt lat="42.75569" lon="-7.837202">
        <ele>554.5</ele>
        <time>1970-01-01T00:37:22.000Z</time>
      </trkpt>
      <trkpt lat="42.755671" lon="-7.837203">
        <ele>554.8</ele>
        <time>1970-01-01T00:37:23.000Z</time>
      </trkpt>
      <trkpt lat="42.755648" lon="-7.83718">
        <ele>555.2</ele>
        <time>1970-01-01T00:37:24.000Z</time>
      </trkpt>
      <trkpt lat="42.755648" lon="-7.83718">
        <ele>555.2</ele>
        <time>1970-01-01T00:37:25.000Z</time>
      </trkpt>
      <trkpt lat="42.755633" lon="-7.83718">
        <ele>555.4</ele>
        <time>1970-01-01T00:37:26.000Z</time>
      </trkpt>
      <trkpt lat="42.75562" lon="-7.837181">
        <ele>555.5</ele>
        <time>1970-01-01T00:37:27.000Z</time>
      </trkpt>
      <trkpt lat="42.755593" lon="-7.83719">
        <ele>555.9</ele>
        <time>1970-01-01T00:37:28.000Z</time>
      </trkpt>
      <trkpt lat="42.755593" lon="-7.83719">
        <ele>555.9</ele>
        <time>1970-01-01T00:37:29.000Z</time>
      </trkpt>
      <trkpt lat="42.755584" lon="-7.837186">
        <ele>556</ele>
        <time>1970-01-01T00:37:30.000Z</time>
      </trkpt>
      <trkpt lat="42.75557" lon="-7.837183">
        <ele>556.1</ele>
        <time>1970-01-01T00:37:31.000Z</time>
      </trkpt>
      <trkpt lat="42.755559" lon="-7.837184">
        <ele>556.3</ele>
        <time>1970-01-01T00:37:32.000Z</time>
      </trkpt>
      <trkpt lat="42.755549" lon="-7.837178">
        <ele>556.4</ele>
        <time>1970-01-01T00:37:33.000Z</time>
      </trkpt>
      <trkpt lat="42.755517" lon="-7.837177">
        <ele>556.8</ele>
        <time>1970-01-01T00:37:34.000Z</time>
      </trkpt>
      <trkpt lat="42.755517" lon="-7.837177">
        <ele>556.8</ele>
        <time>1970-01-01T00:37:35.000Z</time>
      </trkpt>
      <trkpt lat="42.755492" lon="-7.837187">
        <ele>557.2</ele>
        <time>1970-01-01T00:37:36.000Z</time>
      </trkpt>
      <trkpt lat="42.755477" lon="-7.837194">
        <ele>557.4</ele>
        <time>1970-01-01T00:37:37.000Z</time>
      </trkpt>
      <trkpt lat="42.755477" lon="-7.837194">
        <ele>557.4</ele>
        <time>1970-01-01T00:37:38.000Z</time>
      </trkpt>
      <trkpt lat="42.755449" lon="-7.837197">
        <ele>557.8</ele>
        <time>1970-01-01T00:37:39.000Z</time>
      </trkpt>
      <trkpt lat="42.755449" lon="-7.837197">
        <ele>557.8</ele>
        <time>1970-01-01T00:37:40.000Z</time>
      </trkpt>
      <trkpt lat="42.755433" lon="-7.837191">
        <ele>558</ele>
        <time>1970-01-01T00:37:41.000Z</time>
      </trkpt>
      <trkpt lat="42.755417" lon="-7.837191">
        <ele>558.2</ele>
        <time>1970-01-01T00:37:42.000Z</time>
      </trkpt>
      <trkpt lat="42.755402" lon="-7.837191">
        <ele>558.5</ele>
        <time>1970-01-01T00:37:43.000Z</time>
      </trkpt>
      <trkpt lat="42.755386" lon="-7.837195">
        <ele>558.7</ele>
        <time>1970-01-01T00:37:44.000Z</time>
      </trkpt>
      <trkpt lat="42.755368" lon="-7.837199">
        <ele>559</ele>
        <time>1970-01-01T00:37:45.000Z</time>
      </trkpt>
      <trkpt lat="42.755368" lon="-7.837199">
        <ele>559</ele>
        <time>1970-01-01T00:37:46.000Z</time>
      </trkpt>
      <trkpt lat="42.755352" lon="-7.837211">
        <ele>559.3</ele>
        <time>1970-01-01T00:37:47.000Z</time>
      </trkpt>
      <trkpt lat="42.755347" lon="-7.837216">
        <ele>559.4</ele>
        <time>1970-01-01T00:37:48.000Z</time>
      </trkpt>
      <trkpt lat="42.75533" lon="-7.83722">
        <ele>559.7</ele>
        <time>1970-01-01T00:37:49.000Z</time>
      </trkpt>
      <trkpt lat="42.75533" lon="-7.83722">
        <ele>559.7</ele>
        <time>1970-01-01T00:37:50.000Z</time>
      </trkpt>
      <trkpt lat="42.755301" lon="-7.837238">
        <ele>560.2</ele>
        <time>1970-01-01T00:37:51.000Z</time>
      </trkpt>
      <trkpt lat="42.755301" lon="-7.837238">
        <ele>560.2</ele>
        <time>1970-01-01T00:37:52.000Z</time>
      </trkpt>
      <trkpt lat="42.755285" lon="-7.837248">
        <ele>560.5</ele>
        <time>1970-01-01T00:37:53.000Z</time>
      </trkpt>
      <trkpt lat="42.755256" lon="-7.83727">
        <ele>561.2</ele>
        <time>1970-01-01T00:37:54.000Z</time>
      </trkpt>
      <trkpt lat="42.755246" lon="-7.83728">
        <ele>561.4</ele>
        <time>1970-01-01T00:37:55.000Z</time>
      </trkpt>
      <trkpt lat="42.755246" lon="-7.83728">
        <ele>561.4</ele>
        <time>1970-01-01T00:37:56.000Z</time>
      </trkpt>
      <trkpt lat="42.755218" lon="-7.837304">
        <ele>562</ele>
        <time>1970-01-01T00:37:57.000Z</time>
      </trkpt>
      <trkpt lat="42.755218" lon="-7.837304">
        <ele>562</ele>
        <time>1970-01-01T00:37:58.000Z</time>
      </trkpt>
      <trkpt lat="42.755204" lon="-7.83731">
        <ele>562.3</ele>
        <time>1970-01-01T00:37:59.000Z</time>
      </trkpt>
      <trkpt lat="42.755188" lon="-7.837327">
        <ele>562.6</ele>
        <time>1970-01-01T00:38:00.000Z</time>
      </trkpt>
      <trkpt lat="42.755179" lon="-7.837331">
        <ele>562.8</ele>
        <time>1970-01-01T00:38:01.000Z</time>
      </trkpt>
      <trkpt lat="42.755179" lon="-7.837331">
        <ele>562.8</ele>
        <time>1970-01-01T00:38:02.000Z</time>
      </trkpt>
      <trkpt lat="42.75516" lon="-7.837359">
        <ele>563.3</ele>
        <time>1970-01-01T00:38:03.000Z</time>
      </trkpt>
      <trkpt lat="42.75515" lon="-7.83737">
        <ele>563.5</ele>
        <time>1970-01-01T00:38:04.000Z</time>
      </trkpt>
      <trkpt lat="42.75515" lon="-7.83737">
        <ele>563.5</ele>
        <time>1970-01-01T00:38:05.000Z</time>
      </trkpt>
      <trkpt lat="42.755132" lon="-7.837376">
        <ele>563.9</ele>
        <time>1970-01-01T00:38:06.000Z</time>
      </trkpt>
      <trkpt lat="42.755114" lon="-7.8374">
        <ele>564.4</ele>
        <time>1970-01-01T00:38:07.000Z</time>
      </trkpt>
      <trkpt lat="42.755104" lon="-7.837409">
        <ele>564.6</ele>
        <time>1970-01-01T00:38:08.000Z</time>
      </trkpt>
      <trkpt lat="42.755097" lon="-7.837419">
        <ele>564.8</ele>
        <time>1970-01-01T00:38:09.000Z</time>
      </trkpt>
      <trkpt lat="42.755097" lon="-7.837419">
        <ele>564.8</ele>
        <time>1970-01-01T00:38:10.000Z</time>
      </trkpt>
      <trkpt lat="42.755079" lon="-7.837456">
        <ele>565.3</ele>
        <time>1970-01-01T00:38:11.000Z</time>
      </trkpt>
      <trkpt lat="42.75507" lon="-7.837472">
        <ele>565.6</ele>
        <time>1970-01-01T00:38:12.000Z</time>
      </trkpt>
      <trkpt lat="42.75507" lon="-7.837472">
        <ele>565.6</ele>
        <time>1970-01-01T00:38:13.000Z</time>
      </trkpt>
      <trkpt lat="42.75505" lon="-7.8375">
        <ele>566</ele>
        <time>1970-01-01T00:38:14.000Z</time>
      </trkpt>
      <trkpt lat="42.755041" lon="-7.837512">
        <ele>566.2</ele>
        <time>1970-01-01T00:38:15.000Z</time>
      </trkpt>
      <trkpt lat="42.75503" lon="-7.837526">
        <ele>566.5</ele>
        <time>1970-01-01T00:38:16.000Z</time>
      </trkpt>
      <trkpt lat="42.75503" lon="-7.837526">
        <ele>566.5</ele>
        <time>1970-01-01T00:38:17.000Z</time>
      </trkpt>
      <trkpt lat="42.755012" lon="-7.837558">
        <ele>566.9</ele>
        <time>1970-01-01T00:38:18.000Z</time>
      </trkpt>
      <trkpt lat="42.755012" lon="-7.837558">
        <ele>566.9</ele>
        <time>1970-01-01T00:38:19.000Z</time>
      </trkpt>
      <trkpt lat="42.755004" lon="-7.837577">
        <ele>567.2</ele>
        <time>1970-01-01T00:38:20.000Z</time>
      </trkpt>
      <trkpt lat="42.754988" lon="-7.837613">
        <ele>567.7</ele>
        <time>1970-01-01T00:38:21.000Z</time>
      </trkpt>
      <trkpt lat="42.754983" lon="-7.837632">
        <ele>568</ele>
        <time>1970-01-01T00:38:22.000Z</time>
      </trkpt>
      <trkpt lat="42.754983" lon="-7.837632">
        <ele>568</ele>
        <time>1970-01-01T00:38:23.000Z</time>
      </trkpt>
      <trkpt lat="42.754968" lon="-7.837667">
        <ele>568.4</ele>
        <time>1970-01-01T00:38:24.000Z</time>
      </trkpt>
      <trkpt lat="42.754968" lon="-7.837667">
        <ele>568.4</ele>
        <time>1970-01-01T00:38:25.000Z</time>
      </trkpt>
      <trkpt lat="42.754953" lon="-7.837705">
        <ele>568.8</ele>
        <time>1970-01-01T00:38:26.000Z</time>
      </trkpt>
      <trkpt lat="42.754942" lon="-7.837722">
        <ele>569.1</ele>
        <time>1970-01-01T00:38:27.000Z</time>
      </trkpt>
      <trkpt lat="42.754932" lon="-7.837739">
        <ele>569.3</ele>
        <time>1970-01-01T00:38:28.000Z</time>
      </trkpt>
      <trkpt lat="42.754925" lon="-7.837756">
        <ele>569.5</ele>
        <time>1970-01-01T00:38:29.000Z</time>
      </trkpt>
      <trkpt lat="42.754917" lon="-7.837774">
        <ele>569.7</ele>
        <time>1970-01-01T00:38:30.000Z</time>
      </trkpt>
      <trkpt lat="42.754917" lon="-7.837774">
        <ele>569.7</ele>
        <time>1970-01-01T00:38:31.000Z</time>
      </trkpt>
      <trkpt lat="42.754898" lon="-7.837807">
        <ele>570.1</ele>
        <time>1970-01-01T00:38:32.000Z</time>
      </trkpt>
      <trkpt lat="42.754889" lon="-7.837824">
        <ele>570.2</ele>
        <time>1970-01-01T00:38:33.000Z</time>
      </trkpt>
      <trkpt lat="42.754877" lon="-7.837843">
        <ele>570.4</ele>
        <time>1970-01-01T00:38:34.000Z</time>
      </trkpt>
      <trkpt lat="42.754864" lon="-7.837864">
        <ele>570.6</ele>
        <time>1970-01-01T00:38:35.000Z</time>
      </trkpt>
      <trkpt lat="42.754856" lon="-7.837891">
        <ele>570.8</ele>
        <time>1970-01-01T00:38:36.000Z</time>
      </trkpt>
      <trkpt lat="42.754845" lon="-7.837915">
        <ele>571</ele>
        <time>1970-01-01T00:38:37.000Z</time>
      </trkpt>
      <trkpt lat="42.754833" lon="-7.837939">
        <ele>571.1</ele>
        <time>1970-01-01T00:38:38.000Z</time>
      </trkpt>
      <trkpt lat="42.754822" lon="-7.837964">
        <ele>571.3</ele>
        <time>1970-01-01T00:38:39.000Z</time>
      </trkpt>
      <trkpt lat="42.754811" lon="-7.837987">
        <ele>571.4</ele>
        <time>1970-01-01T00:38:40.000Z</time>
      </trkpt>
      <trkpt lat="42.7548" lon="-7.838008">
        <ele>571.5</ele>
        <time>1970-01-01T00:38:41.000Z</time>
      </trkpt>
      <trkpt lat="42.754789" lon="-7.838029">
        <ele>571.6</ele>
        <time>1970-01-01T00:38:42.000Z</time>
      </trkpt>
      <trkpt lat="42.754774" lon="-7.838043">
        <ele>571.7</ele>
        <time>1970-01-01T00:38:43.000Z</time>
      </trkpt>
      <trkpt lat="42.754759" lon="-7.838069">
        <ele>571.8</ele>
        <time>1970-01-01T00:38:44.000Z</time>
      </trkpt>
      <trkpt lat="42.75475" lon="-7.838084">
        <ele>571.9</ele>
        <time>1970-01-01T00:38:45.000Z</time>
      </trkpt>
      <trkpt lat="42.754741" lon="-7.838098">
        <ele>571.9</ele>
        <time>1970-01-01T00:38:46.000Z</time>
      </trkpt>
      <trkpt lat="42.754732" lon="-7.838113">
        <ele>572</ele>
        <time>1970-01-01T00:38:47.000Z</time>
      </trkpt>
      <trkpt lat="42.754723" lon="-7.838127">
        <ele>572.1</ele>
        <time>1970-01-01T00:38:48.000Z</time>
      </trkpt>
      <trkpt lat="42.754714" lon="-7.838142">
        <ele>572.1</ele>
        <time>1970-01-01T00:38:49.000Z</time>
      </trkpt>
      <trkpt lat="42.754705" lon="-7.838156">
        <ele>572.2</ele>
        <time>1970-01-01T00:38:50.000Z</time>
      </trkpt>
      <trkpt lat="42.75469" lon="-7.838172">
        <ele>572.3</ele>
        <time>1970-01-01T00:38:51.000Z</time>
      </trkpt>
      <trkpt lat="42.754672" lon="-7.838194">
        <ele>572.4</ele>
        <time>1970-01-01T00:38:52.000Z</time>
      </trkpt>
      <trkpt lat="42.754657" lon="-7.838215">
        <ele>572.5</ele>
        <time>1970-01-01T00:38:53.000Z</time>
      </trkpt>
      <trkpt lat="42.754643" lon="-7.838233">
        <ele>572.6</ele>
        <time>1970-01-01T00:38:54.000Z</time>
      </trkpt>
      <trkpt lat="42.754632" lon="-7.838247">
        <ele>572.6</ele>
        <time>1970-01-01T00:38:55.000Z</time>
      </trkpt>
      <trkpt lat="42.754619" lon="-7.838261">
        <ele>572.7</ele>
        <time>1970-01-01T00:38:56.000Z</time>
      </trkpt>
      <trkpt lat="42.754607" lon="-7.838275">
        <ele>572.8</ele>
        <time>1970-01-01T00:38:57.000Z</time>
      </trkpt>
      <trkpt lat="42.754595" lon="-7.838291">
        <ele>572.9</ele>
        <time>1970-01-01T00:38:58.000Z</time>
      </trkpt>
      <trkpt lat="42.754585" lon="-7.838302">
        <ele>573</ele>
        <time>1970-01-01T00:38:59.000Z</time>
      </trkpt>
      <trkpt lat="42.75457" lon="-7.838317">
        <ele>573.1</ele>
        <time>1970-01-01T00:39:00.000Z</time>
      </trkpt>
      <trkpt lat="42.754557" lon="-7.838334">
        <ele>573.2</ele>
        <time>1970-01-01T00:39:01.000Z</time>
      </trkpt>
      <trkpt lat="42.754548" lon="-7.838353">
        <ele>573.3</ele>
        <time>1970-01-01T00:39:02.000Z</time>
      </trkpt>
      <trkpt lat="42.754537" lon="-7.83837">
        <ele>573.4</ele>
        <time>1970-01-01T00:39:03.000Z</time>
      </trkpt>
      <trkpt lat="42.754524" lon="-7.838391">
        <ele>573.5</ele>
        <time>1970-01-01T00:39:04.000Z</time>
      </trkpt>
      <trkpt lat="42.754513" lon="-7.838416">
        <ele>573.6</ele>
        <time>1970-01-01T00:39:05.000Z</time>
      </trkpt>
      <trkpt lat="42.754503" lon="-7.838432">
        <ele>573.7</ele>
        <time>1970-01-01T00:39:06.000Z</time>
      </trkpt>
      <trkpt lat="42.754486" lon="-7.838451">
        <ele>573.8</ele>
        <time>1970-01-01T00:39:07.000Z</time>
      </trkpt>
      <trkpt lat="42.754467" lon="-7.838473">
        <ele>574</ele>
        <time>1970-01-01T00:39:08.000Z</time>
      </trkpt>
      <trkpt lat="42.754445" lon="-7.838502">
        <ele>574.1</ele>
        <time>1970-01-01T00:39:09.000Z</time>
      </trkpt>
      <trkpt lat="42.75443" lon="-7.838521">
        <ele>574.2</ele>
        <time>1970-01-01T00:39:10.000Z</time>
      </trkpt>
      <trkpt lat="42.754413" lon="-7.83854">
        <ele>574.3</ele>
        <time>1970-01-01T00:39:11.000Z</time>
      </trkpt>
      <trkpt lat="42.754403" lon="-7.83854">
        <ele>574.3</ele>
        <time>1970-01-01T00:39:12.000Z</time>
      </trkpt>
      <trkpt lat="42.754393" lon="-7.838541">
        <ele>574.4</ele>
        <time>1970-01-01T00:39:13.000Z</time>
      </trkpt>
      <trkpt lat="42.754376" lon="-7.838549">
        <ele>574.4</ele>
        <time>1970-01-01T00:39:14.000Z</time>
      </trkpt>
      <trkpt lat="42.754359" lon="-7.838555">
        <ele>574.5</ele>
        <time>1970-01-01T00:39:15.000Z</time>
      </trkpt>
      <trkpt lat="42.754339" lon="-7.838571">
        <ele>574.6</ele>
        <time>1970-01-01T00:39:16.000Z</time>
      </trkpt>
      <trkpt lat="42.754317" lon="-7.838594">
        <ele>574.7</ele>
        <time>1970-01-01T00:39:17.000Z</time>
      </trkpt>
      <trkpt lat="42.7543" lon="-7.838612">
        <ele>574.8</ele>
        <time>1970-01-01T00:39:18.000Z</time>
      </trkpt>
      <trkpt lat="42.754284" lon="-7.838629">
        <ele>574.9</ele>
        <time>1970-01-01T00:39:19.000Z</time>
      </trkpt>
      <trkpt lat="42.754272" lon="-7.838643">
        <ele>574.9</ele>
        <time>1970-01-01T00:39:20.000Z</time>
      </trkpt>
      <trkpt lat="42.754257" lon="-7.838664">
        <ele>575</ele>
        <time>1970-01-01T00:39:21.000Z</time>
      </trkpt>
      <trkpt lat="42.754241" lon="-7.838681">
        <ele>575.1</ele>
        <time>1970-01-01T00:39:22.000Z</time>
      </trkpt>
      <trkpt lat="42.754214" lon="-7.838699">
        <ele>575.2</ele>
        <time>1970-01-01T00:39:23.000Z</time>
      </trkpt>
      <trkpt lat="42.754195" lon="-7.838717">
        <ele>575.3</ele>
        <time>1970-01-01T00:39:24.000Z</time>
      </trkpt>
      <trkpt lat="42.754178" lon="-7.838732">
        <ele>575.3</ele>
        <time>1970-01-01T00:39:25.000Z</time>
      </trkpt>
      <trkpt lat="42.754165" lon="-7.838749">
        <ele>575.4</ele>
        <time>1970-01-01T00:39:26.000Z</time>
      </trkpt>
      <trkpt lat="42.754145" lon="-7.838774">
        <ele>575.5</ele>
        <time>1970-01-01T00:39:27.000Z</time>
      </trkpt>
      <trkpt lat="42.754125" lon="-7.838792">
        <ele>575.6</ele>
        <time>1970-01-01T00:39:28.000Z</time>
      </trkpt>
      <trkpt lat="42.754105" lon="-7.838808">
        <ele>575.7</ele>
        <time>1970-01-01T00:39:29.000Z</time>
      </trkpt>
      <trkpt lat="42.754094" lon="-7.838822">
        <ele>575.7</ele>
        <time>1970-01-01T00:39:30.000Z</time>
      </trkpt>
      <trkpt lat="42.754077" lon="-7.838833">
        <ele>575.8</ele>
        <time>1970-01-01T00:39:31.000Z</time>
      </trkpt>
      <trkpt lat="42.754057" lon="-7.838838">
        <ele>575.9</ele>
        <time>1970-01-01T00:39:32.000Z</time>
      </trkpt>
      <trkpt lat="42.754039" lon="-7.838842">
        <ele>575.9</ele>
        <time>1970-01-01T00:39:33.000Z</time>
      </trkpt>
      <trkpt lat="42.754023" lon="-7.838852">
        <ele>576</ele>
        <time>1970-01-01T00:39:34.000Z</time>
      </trkpt>
      <trkpt lat="42.754011" lon="-7.838859">
        <ele>576.1</ele>
        <time>1970-01-01T00:39:35.000Z</time>
      </trkpt>
      <trkpt lat="42.753996" lon="-7.838871">
        <ele>576.2</ele>
        <time>1970-01-01T00:39:36.000Z</time>
      </trkpt>
      <trkpt lat="42.753976" lon="-7.838883">
        <ele>576.3</ele>
        <time>1970-01-01T00:39:37.000Z</time>
      </trkpt>
      <trkpt lat="42.753949" lon="-7.838898">
        <ele>576.4</ele>
        <time>1970-01-01T00:39:38.000Z</time>
      </trkpt>
      <trkpt lat="42.753929" lon="-7.838921">
        <ele>576.6</ele>
        <time>1970-01-01T00:39:39.000Z</time>
      </trkpt>
      <trkpt lat="42.753912" lon="-7.838953">
        <ele>576.8</ele>
        <time>1970-01-01T00:39:40.000Z</time>
      </trkpt>
      <trkpt lat="42.753898" lon="-7.838968">
        <ele>576.9</ele>
        <time>1970-01-01T00:39:41.000Z</time>
      </trkpt>
      <trkpt lat="42.753881" lon="-7.83898">
        <ele>577</ele>
        <time>1970-01-01T00:39:42.000Z</time>
      </trkpt>
      <trkpt lat="42.753859" lon="-7.839001">
        <ele>577.3</ele>
        <time>1970-01-01T00:39:43.000Z</time>
      </trkpt>
      <trkpt lat="42.753838" lon="-7.839024">
        <ele>577.5</ele>
        <time>1970-01-01T00:39:44.000Z</time>
      </trkpt>
      <trkpt lat="42.753826" lon="-7.839037">
        <ele>577.7</ele>
        <time>1970-01-01T00:39:45.000Z</time>
      </trkpt>
      <trkpt lat="42.753792" lon="-7.839061">
        <ele>578.1</ele>
        <time>1970-01-01T00:39:46.000Z</time>
      </trkpt>
      <trkpt lat="42.753764" lon="-7.839078">
        <ele>578.5</ele>
        <time>1970-01-01T00:39:47.000Z</time>
      </trkpt>
      <trkpt lat="42.753745" lon="-7.839088">
        <ele>578.7</ele>
        <time>1970-01-01T00:39:48.000Z</time>
      </trkpt>
      <trkpt lat="42.753724" lon="-7.839106">
        <ele>579</ele>
        <time>1970-01-01T00:39:49.000Z</time>
      </trkpt>
      <trkpt lat="42.753705" lon="-7.83912">
        <ele>579.3</ele>
        <time>1970-01-01T00:39:50.000Z</time>
      </trkpt>
      <trkpt lat="42.75369" lon="-7.839129">
        <ele>579.6</ele>
        <time>1970-01-01T00:39:51.000Z</time>
      </trkpt>
      <trkpt lat="42.753677" lon="-7.839138">
        <ele>579.8</ele>
        <time>1970-01-01T00:39:52.000Z</time>
      </trkpt>
      <trkpt lat="42.753661" lon="-7.839146">
        <ele>580</ele>
        <time>1970-01-01T00:39:53.000Z</time>
      </trkpt>
      <trkpt lat="42.753646" lon="-7.839157">
        <ele>580.3</ele>
        <time>1970-01-01T00:39:54.000Z</time>
      </trkpt>
      <trkpt lat="42.753632" lon="-7.839169">
        <ele>580.5</ele>
        <time>1970-01-01T00:39:55.000Z</time>
      </trkpt>
      <trkpt lat="42.753617" lon="-7.83918">
        <ele>580.7</ele>
        <time>1970-01-01T00:39:56.000Z</time>
      </trkpt>
      <trkpt lat="42.753602" lon="-7.83919">
        <ele>581</ele>
        <time>1970-01-01T00:39:57.000Z</time>
      </trkpt>
      <trkpt lat="42.753587" lon="-7.839199">
        <ele>581.2</ele>
        <time>1970-01-01T00:39:58.000Z</time>
      </trkpt>
      <trkpt lat="42.753568" lon="-7.839204">
        <ele>581.5</ele>
        <time>1970-01-01T00:39:59.000Z</time>
      </trkpt>
      <trkpt lat="42.753553" lon="-7.839211">
        <ele>581.7</ele>
        <time>1970-01-01T00:40:00.000Z</time>
      </trkpt>
      <trkpt lat="42.753539" lon="-7.839219">
        <ele>582</ele>
        <time>1970-01-01T00:40:01.000Z</time>
      </trkpt>
      <trkpt lat="42.753519" lon="-7.839227">
        <ele>582.3</ele>
        <time>1970-01-01T00:40:02.000Z</time>
      </trkpt>
      <trkpt lat="42.753504" lon="-7.839231">
        <ele>582.6</ele>
        <time>1970-01-01T00:40:03.000Z</time>
      </trkpt>
      <trkpt lat="42.753489" lon="-7.839228">
        <ele>582.8</ele>
        <time>1970-01-01T00:40:04.000Z</time>
      </trkpt>
      <trkpt lat="42.753472" lon="-7.839226">
        <ele>583.1</ele>
        <time>1970-01-01T00:40:05.000Z</time>
      </trkpt>
      <trkpt lat="42.753458" lon="-7.839232">
        <ele>583.4</ele>
        <time>1970-01-01T00:40:06.000Z</time>
      </trkpt>
      <trkpt lat="42.753447" lon="-7.839239">
        <ele>583.6</ele>
        <time>1970-01-01T00:40:07.000Z</time>
      </trkpt>
      <trkpt lat="42.753441" lon="-7.839242">
        <ele>583.7</ele>
        <time>1970-01-01T00:40:08.000Z</time>
      </trkpt>
      <trkpt lat="42.753429" lon="-7.839248">
        <ele>584</ele>
        <time>1970-01-01T00:40:09.000Z</time>
      </trkpt>
      <trkpt lat="42.753422" lon="-7.839255">
        <ele>584.1</ele>
        <time>1970-01-01T00:40:10.000Z</time>
      </trkpt>
      <trkpt lat="42.753411" lon="-7.83926">
        <ele>584.3</ele>
        <time>1970-01-01T00:40:11.000Z</time>
      </trkpt>
      <trkpt lat="42.753401" lon="-7.839269">
        <ele>584.5</ele>
        <time>1970-01-01T00:40:12.000Z</time>
      </trkpt>
      <trkpt lat="42.753385" lon="-7.839274">
        <ele>584.8</ele>
        <time>1970-01-01T00:40:13.000Z</time>
      </trkpt>
      <trkpt lat="42.753364" lon="-7.839281">
        <ele>585.2</ele>
        <time>1970-01-01T00:40:14.000Z</time>
      </trkpt>
      <trkpt lat="42.753344" lon="-7.839288">
        <ele>585.6</ele>
        <time>1970-01-01T00:40:15.000Z</time>
      </trkpt>
      <trkpt lat="42.753333" lon="-7.839297">
        <ele>585.8</ele>
        <time>1970-01-01T00:40:16.000Z</time>
      </trkpt>
      <trkpt lat="42.753322" lon="-7.839296">
        <ele>586</ele>
        <time>1970-01-01T00:40:17.000Z</time>
      </trkpt>
      <trkpt lat="42.753302" lon="-7.839301">
        <ele>586.4</ele>
        <time>1970-01-01T00:40:18.000Z</time>
      </trkpt>
      <trkpt lat="42.753285" lon="-7.839304">
        <ele>586.6</ele>
        <time>1970-01-01T00:40:19.000Z</time>
      </trkpt>
      <trkpt lat="42.75327" lon="-7.839306">
        <ele>586.9</ele>
        <time>1970-01-01T00:40:20.000Z</time>
      </trkpt>
      <trkpt lat="42.753253" lon="-7.839311">
        <ele>587.1</ele>
        <time>1970-01-01T00:40:21.000Z</time>
      </trkpt>
      <trkpt lat="42.753234" lon="-7.839311">
        <ele>587.5</ele>
        <time>1970-01-01T00:40:22.000Z</time>
      </trkpt>
      <trkpt lat="42.753222" lon="-7.839309">
        <ele>587.7</ele>
        <time>1970-01-01T00:40:23.000Z</time>
      </trkpt>
      <trkpt lat="42.753211" lon="-7.83931">
        <ele>587.9</ele>
        <time>1970-01-01T00:40:24.000Z</time>
      </trkpt>
      <trkpt lat="42.753196" lon="-7.839312">
        <ele>588.2</ele>
        <time>1970-01-01T00:40:25.000Z</time>
      </trkpt>
      <trkpt lat="42.753181" lon="-7.839316">
        <ele>588.5</ele>
        <time>1970-01-01T00:40:26.000Z</time>
      </trkpt>
      <trkpt lat="42.753163" lon="-7.839316">
        <ele>588.8</ele>
        <time>1970-01-01T00:40:27.000Z</time>
      </trkpt>
      <trkpt lat="42.753146" lon="-7.839323">
        <ele>589.1</ele>
        <time>1970-01-01T00:40:28.000Z</time>
      </trkpt>
      <trkpt lat="42.753136" lon="-7.839336">
        <ele>589.3</ele>
        <time>1970-01-01T00:40:29.000Z</time>
      </trkpt>
      <trkpt lat="42.753123" lon="-7.839339">
        <ele>589.6</ele>
        <time>1970-01-01T00:40:30.000Z</time>
      </trkpt>
      <trkpt lat="42.753109" lon="-7.839335">
        <ele>589.8</ele>
        <time>1970-01-01T00:40:31.000Z</time>
      </trkpt>
      <trkpt lat="42.753093" lon="-7.839334">
        <ele>590.1</ele>
        <time>1970-01-01T00:40:32.000Z</time>
      </trkpt>
      <trkpt lat="42.753081" lon="-7.839335">
        <ele>590.3</ele>
        <time>1970-01-01T00:40:33.000Z</time>
      </trkpt>
      <trkpt lat="42.753066" lon="-7.839335">
        <ele>590.6</ele>
        <time>1970-01-01T00:40:34.000Z</time>
      </trkpt>
      <trkpt lat="42.753049" lon="-7.839338">
        <ele>590.9</ele>
        <time>1970-01-01T00:40:35.000Z</time>
      </trkpt>
      <trkpt lat="42.753035" lon="-7.83934">
        <ele>591.1</ele>
        <time>1970-01-01T00:40:36.000Z</time>
      </trkpt>
      <trkpt lat="42.753008" lon="-7.839345">
        <ele>591.5</ele>
        <time>1970-01-01T00:40:37.000Z</time>
      </trkpt>
      <trkpt lat="42.752996" lon="-7.83934">
        <ele>591.7</ele>
        <time>1970-01-01T00:40:38.000Z</time>
      </trkpt>
      <trkpt lat="42.75298" lon="-7.839344">
        <ele>591.9</ele>
        <time>1970-01-01T00:40:39.000Z</time>
      </trkpt>
      <trkpt lat="42.752968" lon="-7.83935">
        <ele>592.1</ele>
        <time>1970-01-01T00:40:40.000Z</time>
      </trkpt>
      <trkpt lat="42.752957" lon="-7.839358">
        <ele>592.3</ele>
        <time>1970-01-01T00:40:41.000Z</time>
      </trkpt>
      <trkpt lat="42.752946" lon="-7.839363">
        <ele>592.5</ele>
        <time>1970-01-01T00:40:42.000Z</time>
      </trkpt>
      <trkpt lat="42.75293" lon="-7.839365">
        <ele>592.7</ele>
        <time>1970-01-01T00:40:43.000Z</time>
      </trkpt>
      <trkpt lat="42.752914" lon="-7.839367">
        <ele>593</ele>
        <time>1970-01-01T00:40:44.000Z</time>
      </trkpt>
      <trkpt lat="42.7529" lon="-7.839368">
        <ele>593.2</ele>
        <time>1970-01-01T00:40:45.000Z</time>
      </trkpt>
      <trkpt lat="42.752885" lon="-7.83937">
        <ele>593.5</ele>
        <time>1970-01-01T00:40:46.000Z</time>
      </trkpt>
      <trkpt lat="42.752872" lon="-7.839374">
        <ele>593.7</ele>
        <time>1970-01-01T00:40:47.000Z</time>
      </trkpt>
      <trkpt lat="42.752858" lon="-7.839376">
        <ele>593.9</ele>
        <time>1970-01-01T00:40:48.000Z</time>
      </trkpt>
      <trkpt lat="42.752844" lon="-7.839383">
        <ele>594.1</ele>
        <time>1970-01-01T00:40:49.000Z</time>
      </trkpt>
      <trkpt lat="42.752826" lon="-7.839389">
        <ele>594.4</ele>
        <time>1970-01-01T00:40:50.000Z</time>
      </trkpt>
      <trkpt lat="42.752811" lon="-7.839397">
        <ele>594.7</ele>
        <time>1970-01-01T00:40:51.000Z</time>
      </trkpt>
      <trkpt lat="42.752795" lon="-7.839404">
        <ele>595</ele>
        <time>1970-01-01T00:40:52.000Z</time>
      </trkpt>
      <trkpt lat="42.752781" lon="-7.839407">
        <ele>595.2</ele>
        <time>1970-01-01T00:40:53.000Z</time>
      </trkpt>
      <trkpt lat="42.752767" lon="-7.839411">
        <ele>595.5</ele>
        <time>1970-01-01T00:40:54.000Z</time>
      </trkpt>
      <trkpt lat="42.752752" lon="-7.839418">
        <ele>595.7</ele>
        <time>1970-01-01T00:40:55.000Z</time>
      </trkpt>
      <trkpt lat="42.752735" lon="-7.839425">
        <ele>596</ele>
        <time>1970-01-01T00:40:56.000Z</time>
      </trkpt>
      <trkpt lat="42.752722" lon="-7.839429">
        <ele>596.2</ele>
        <time>1970-01-01T00:40:57.000Z</time>
      </trkpt>
      <trkpt lat="42.752707" lon="-7.839431">
        <ele>596.5</ele>
        <time>1970-01-01T00:40:58.000Z</time>
      </trkpt>
      <trkpt lat="42.75269" lon="-7.839433">
        <ele>596.7</ele>
        <time>1970-01-01T00:40:59.000Z</time>
      </trkpt>
      <trkpt lat="42.752671" lon="-7.839439">
        <ele>597</ele>
        <time>1970-01-01T00:41:00.000Z</time>
      </trkpt>
      <trkpt lat="42.752654" lon="-7.839446">
        <ele>597.3</ele>
        <time>1970-01-01T00:41:01.000Z</time>
      </trkpt>
      <trkpt lat="42.752637" lon="-7.839454">
        <ele>597.6</ele>
        <time>1970-01-01T00:41:02.000Z</time>
      </trkpt>
      <trkpt lat="42.752621" lon="-7.839462">
        <ele>597.8</ele>
        <time>1970-01-01T00:41:03.000Z</time>
      </trkpt>
      <trkpt lat="42.752606" lon="-7.839471">
        <ele>598.1</ele>
        <time>1970-01-01T00:41:04.000Z</time>
      </trkpt>
      <trkpt lat="42.75259" lon="-7.839478">
        <ele>598.3</ele>
        <time>1970-01-01T00:41:05.000Z</time>
      </trkpt>
      <trkpt lat="42.752576" lon="-7.839486">
        <ele>598.5</ele>
        <time>1970-01-01T00:41:06.000Z</time>
      </trkpt>
      <trkpt lat="42.752562" lon="-7.839493">
        <ele>598.7</ele>
        <time>1970-01-01T00:41:07.000Z</time>
      </trkpt>
      <trkpt lat="42.752547" lon="-7.8395">
        <ele>599</ele>
        <time>1970-01-01T00:41:08.000Z</time>
      </trkpt>
      <trkpt lat="42.752531" lon="-7.839506">
        <ele>599.2</ele>
        <time>1970-01-01T00:41:09.000Z</time>
      </trkpt>
      <trkpt lat="42.752518" lon="-7.839514">
        <ele>599.4</ele>
        <time>1970-01-01T00:41:10.000Z</time>
      </trkpt>
      <trkpt lat="42.752506" lon="-7.83952">
        <ele>599.6</ele>
        <time>1970-01-01T00:41:11.000Z</time>
      </trkpt>
      <trkpt lat="42.752493" lon="-7.839524">
        <ele>599.8</ele>
        <time>1970-01-01T00:41:12.000Z</time>
      </trkpt>
      <trkpt lat="42.752482" lon="-7.839533">
        <ele>599.9</ele>
        <time>1970-01-01T00:41:13.000Z</time>
      </trkpt>
      <trkpt lat="42.752472" lon="-7.839544">
        <ele>600.1</ele>
        <time>1970-01-01T00:41:14.000Z</time>
      </trkpt>
      <trkpt lat="42.752461" lon="-7.839554">
        <ele>600.3</ele>
        <time>1970-01-01T00:41:15.000Z</time>
      </trkpt>
      <trkpt lat="42.752449" lon="-7.839563">
        <ele>600.5</ele>
        <time>1970-01-01T00:41:16.000Z</time>
      </trkpt>
      <trkpt lat="42.752439" lon="-7.839575">
        <ele>600.7</ele>
        <time>1970-01-01T00:41:17.000Z</time>
      </trkpt>
      <trkpt lat="42.752426" lon="-7.839586">
        <ele>600.9</ele>
        <time>1970-01-01T00:41:18.000Z</time>
      </trkpt>
      <trkpt lat="42.752413" lon="-7.839596">
        <ele>601.1</ele>
        <time>1970-01-01T00:41:19.000Z</time>
      </trkpt>
      <trkpt lat="42.752402" lon="-7.839607">
        <ele>601.2</ele>
        <time>1970-01-01T00:41:20.000Z</time>
      </trkpt>
      <trkpt lat="42.752391" lon="-7.839619">
        <ele>601.4</ele>
        <time>1970-01-01T00:41:21.000Z</time>
      </trkpt>
      <trkpt lat="42.752382" lon="-7.839632">
        <ele>601.6</ele>
        <time>1970-01-01T00:41:22.000Z</time>
      </trkpt>
      <trkpt lat="42.752374" lon="-7.839646">
        <ele>601.7</ele>
        <time>1970-01-01T00:41:23.000Z</time>
      </trkpt>
      <trkpt lat="42.752365" lon="-7.839658">
        <ele>601.9</ele>
        <time>1970-01-01T00:41:24.000Z</time>
      </trkpt>
      <trkpt lat="42.752355" lon="-7.839668">
        <ele>602</ele>
        <time>1970-01-01T00:41:25.000Z</time>
      </trkpt>
      <trkpt lat="42.752344" lon="-7.839683">
        <ele>602.2</ele>
        <time>1970-01-01T00:41:26.000Z</time>
      </trkpt>
      <trkpt lat="42.752335" lon="-7.839697">
        <ele>602.4</ele>
        <time>1970-01-01T00:41:27.000Z</time>
      </trkpt>
      <trkpt lat="42.752327" lon="-7.83971">
        <ele>602.6</ele>
        <time>1970-01-01T00:41:28.000Z</time>
      </trkpt>
      <trkpt lat="42.752319" lon="-7.839724">
        <ele>602.7</ele>
        <time>1970-01-01T00:41:29.000Z</time>
      </trkpt>
      <trkpt lat="42.752311" lon="-7.839739">
        <ele>602.9</ele>
        <time>1970-01-01T00:41:30.000Z</time>
      </trkpt>
      <trkpt lat="42.752303" lon="-7.839756">
        <ele>603.1</ele>
        <time>1970-01-01T00:41:31.000Z</time>
      </trkpt>
      <trkpt lat="42.752293" lon="-7.839769">
        <ele>603.3</ele>
        <time>1970-01-01T00:41:32.000Z</time>
      </trkpt>
      <trkpt lat="42.752282" lon="-7.839782">
        <ele>603.5</ele>
        <time>1970-01-01T00:41:33.000Z</time>
      </trkpt>
      <trkpt lat="42.752271" lon="-7.839799">
        <ele>603.7</ele>
        <time>1970-01-01T00:41:34.000Z</time>
      </trkpt>
      <trkpt lat="42.752261" lon="-7.839811">
        <ele>603.8</ele>
        <time>1970-01-01T00:41:35.000Z</time>
      </trkpt>
      <trkpt lat="42.75225" lon="-7.839826">
        <ele>604</ele>
        <time>1970-01-01T00:41:36.000Z</time>
      </trkpt>
      <trkpt lat="42.752238" lon="-7.839837">
        <ele>604.1</ele>
        <time>1970-01-01T00:41:37.000Z</time>
      </trkpt>
      <trkpt lat="42.752224" lon="-7.839852">
        <ele>604.3</ele>
        <time>1970-01-01T00:41:38.000Z</time>
      </trkpt>
      <trkpt lat="42.752209" lon="-7.83987">
        <ele>604.5</ele>
        <time>1970-01-01T00:41:39.000Z</time>
      </trkpt>
      <trkpt lat="42.752194" lon="-7.839882">
        <ele>604.6</ele>
        <time>1970-01-01T00:41:40.000Z</time>
      </trkpt>
      <trkpt lat="42.752177" lon="-7.839897">
        <ele>604.7</ele>
        <time>1970-01-01T00:41:41.000Z</time>
      </trkpt>
      <trkpt lat="42.752161" lon="-7.839913">
        <ele>604.8</ele>
        <time>1970-01-01T00:41:42.000Z</time>
      </trkpt>
      <trkpt lat="42.752146" lon="-7.83993">
        <ele>604.9</ele>
        <time>1970-01-01T00:41:43.000Z</time>
      </trkpt>
      <trkpt lat="42.752128" lon="-7.839944">
        <ele>605.1</ele>
        <time>1970-01-01T00:41:44.000Z</time>
      </trkpt>
      <trkpt lat="42.752111" lon="-7.839956">
        <ele>605.1</ele>
        <time>1970-01-01T00:41:45.000Z</time>
      </trkpt>
      <trkpt lat="42.752092" lon="-7.839965">
        <ele>605.2</ele>
        <time>1970-01-01T00:41:46.000Z</time>
      </trkpt>
      <trkpt lat="42.752075" lon="-7.839976">
        <ele>605.3</ele>
        <time>1970-01-01T00:41:47.000Z</time>
      </trkpt>
      <trkpt lat="42.752058" lon="-7.83999">
        <ele>605.4</ele>
        <time>1970-01-01T00:41:48.000Z</time>
      </trkpt>
      <trkpt lat="42.752041" lon="-7.840002">
        <ele>605.5</ele>
        <time>1970-01-01T00:41:49.000Z</time>
      </trkpt>
      <trkpt lat="42.752025" lon="-7.840011">
        <ele>605.5</ele>
        <time>1970-01-01T00:41:50.000Z</time>
      </trkpt>
      <trkpt lat="42.752007" lon="-7.840021">
        <ele>605.6</ele>
        <time>1970-01-01T00:41:51.000Z</time>
      </trkpt>
      <trkpt lat="42.751989" lon="-7.84003">
        <ele>605.7</ele>
        <time>1970-01-01T00:41:52.000Z</time>
      </trkpt>
      <trkpt lat="42.751972" lon="-7.84004">
        <ele>605.8</ele>
        <time>1970-01-01T00:41:53.000Z</time>
      </trkpt>
      <trkpt lat="42.751955" lon="-7.84005">
        <ele>605.9</ele>
        <time>1970-01-01T00:41:54.000Z</time>
      </trkpt>
      <trkpt lat="42.75194" lon="-7.840059">
        <ele>606</ele>
        <time>1970-01-01T00:41:55.000Z</time>
      </trkpt>
      <trkpt lat="42.751927" lon="-7.840067">
        <ele>606</ele>
        <time>1970-01-01T00:41:56.000Z</time>
      </trkpt>
      <trkpt lat="42.751907" lon="-7.840079">
        <ele>606.1</ele>
        <time>1970-01-01T00:41:57.000Z</time>
      </trkpt>
      <trkpt lat="42.751887" lon="-7.840088">
        <ele>606.2</ele>
        <time>1970-01-01T00:41:58.000Z</time>
      </trkpt>
      <trkpt lat="42.751868" lon="-7.840096">
        <ele>606.3</ele>
        <time>1970-01-01T00:41:59.000Z</time>
      </trkpt>
      <trkpt lat="42.751846" lon="-7.840105">
        <ele>606.5</ele>
        <time>1970-01-01T00:42:00.000Z</time>
      </trkpt>
      <trkpt lat="42.751825" lon="-7.840115">
        <ele>606.6</ele>
        <time>1970-01-01T00:42:01.000Z</time>
      </trkpt>
      <trkpt lat="42.751807" lon="-7.840122">
        <ele>606.7</ele>
        <time>1970-01-01T00:42:02.000Z</time>
      </trkpt>
      <trkpt lat="42.751791" lon="-7.84013">
        <ele>606.8</ele>
        <time>1970-01-01T00:42:03.000Z</time>
      </trkpt>
      <trkpt lat="42.751771" lon="-7.840137">
        <ele>606.9</ele>
        <time>1970-01-01T00:42:04.000Z</time>
      </trkpt>
      <trkpt lat="42.751749" lon="-7.840142">
        <ele>607.1</ele>
        <time>1970-01-01T00:42:05.000Z</time>
      </trkpt>
      <trkpt lat="42.751729" lon="-7.840147">
        <ele>607.2</ele>
        <time>1970-01-01T00:42:06.000Z</time>
      </trkpt>
      <trkpt lat="42.751707" lon="-7.840155">
        <ele>607.3</ele>
        <time>1970-01-01T00:42:07.000Z</time>
      </trkpt>
      <trkpt lat="42.751687" lon="-7.840165">
        <ele>607.4</ele>
        <time>1970-01-01T00:42:08.000Z</time>
      </trkpt>
      <trkpt lat="42.751666" lon="-7.84017">
        <ele>607.5</ele>
        <time>1970-01-01T00:42:09.000Z</time>
      </trkpt>
      <trkpt lat="42.75164" lon="-7.840174">
        <ele>607.7</ele>
        <time>1970-01-01T00:42:10.000Z</time>
      </trkpt>
      <trkpt lat="42.751615" lon="-7.840184">
        <ele>607.8</ele>
        <time>1970-01-01T00:42:11.000Z</time>
      </trkpt>
      <trkpt lat="42.75159" lon="-7.840192">
        <ele>608</ele>
        <time>1970-01-01T00:42:12.000Z</time>
      </trkpt>
      <trkpt lat="42.751562" lon="-7.840202">
        <ele>608.1</ele>
        <time>1970-01-01T00:42:13.000Z</time>
      </trkpt>
      <trkpt lat="42.751538" lon="-7.840204">
        <ele>608.3</ele>
        <time>1970-01-01T00:42:14.000Z</time>
      </trkpt>
      <trkpt lat="42.751514" lon="-7.840208">
        <ele>608.4</ele>
        <time>1970-01-01T00:42:15.000Z</time>
      </trkpt>
      <trkpt lat="42.751489" lon="-7.840213">
        <ele>608.5</ele>
        <time>1970-01-01T00:42:16.000Z</time>
      </trkpt>
      <trkpt lat="42.751463" lon="-7.840219">
        <ele>608.7</ele>
        <time>1970-01-01T00:42:17.000Z</time>
      </trkpt>
      <trkpt lat="42.751434" lon="-7.840227">
        <ele>608.8</ele>
        <time>1970-01-01T00:42:18.000Z</time>
      </trkpt>
      <trkpt lat="42.751405" lon="-7.840235">
        <ele>609</ele>
        <time>1970-01-01T00:42:19.000Z</time>
      </trkpt>
      <trkpt lat="42.751378" lon="-7.840238">
        <ele>609.1</ele>
        <time>1970-01-01T00:42:20.000Z</time>
      </trkpt>
      <trkpt lat="42.751355" lon="-7.84024">
        <ele>609.2</ele>
        <time>1970-01-01T00:42:21.000Z</time>
      </trkpt>
      <trkpt lat="42.751333" lon="-7.840238">
        <ele>609.4</ele>
        <time>1970-01-01T00:42:22.000Z</time>
      </trkpt>
      <trkpt lat="42.751311" lon="-7.840245">
        <ele>609.5</ele>
        <time>1970-01-01T00:42:23.000Z</time>
      </trkpt>
      <trkpt lat="42.751289" lon="-7.840251">
        <ele>609.6</ele>
        <time>1970-01-01T00:42:24.000Z</time>
      </trkpt>
      <trkpt lat="42.751264" lon="-7.840257">
        <ele>609.7</ele>
        <time>1970-01-01T00:42:25.000Z</time>
      </trkpt>
      <trkpt lat="42.751242" lon="-7.840263">
        <ele>609.8</ele>
        <time>1970-01-01T00:42:26.000Z</time>
      </trkpt>
      <trkpt lat="42.75122" lon="-7.840268">
        <ele>609.9</ele>
        <time>1970-01-01T00:42:27.000Z</time>
      </trkpt>
      <trkpt lat="42.751199" lon="-7.840276">
        <ele>610</ele>
        <time>1970-01-01T00:42:28.000Z</time>
      </trkpt>
      <trkpt lat="42.751178" lon="-7.840283">
        <ele>610.2</ele>
        <time>1970-01-01T00:42:29.000Z</time>
      </trkpt>
      <trkpt lat="42.751156" lon="-7.840286">
        <ele>610.3</ele>
        <time>1970-01-01T00:42:30.000Z</time>
      </trkpt>
      <trkpt lat="42.751136" lon="-7.840289">
        <ele>610.4</ele>
        <time>1970-01-01T00:42:31.000Z</time>
      </trkpt>
      <trkpt lat="42.751116" lon="-7.840291">
        <ele>610.6</ele>
        <time>1970-01-01T00:42:32.000Z</time>
      </trkpt>
      <trkpt lat="42.751094" lon="-7.840294">
        <ele>610.7</ele>
        <time>1970-01-01T00:42:33.000Z</time>
      </trkpt>
      <trkpt lat="42.751072" lon="-7.840302">
        <ele>610.9</ele>
        <time>1970-01-01T00:42:34.000Z</time>
      </trkpt>
      <trkpt lat="42.751053" lon="-7.84031">
        <ele>611</ele>
        <time>1970-01-01T00:42:35.000Z</time>
      </trkpt>
      <trkpt lat="42.751034" lon="-7.840314">
        <ele>611.1</ele>
        <time>1970-01-01T00:42:36.000Z</time>
      </trkpt>
      <trkpt lat="42.751014" lon="-7.840322">
        <ele>611.3</ele>
        <time>1970-01-01T00:42:37.000Z</time>
      </trkpt>
      <trkpt lat="42.750993" lon="-7.840328">
        <ele>611.4</ele>
        <time>1970-01-01T00:42:38.000Z</time>
      </trkpt>
      <trkpt lat="42.750973" lon="-7.840334">
        <ele>611.6</ele>
        <time>1970-01-01T00:42:39.000Z</time>
      </trkpt>
      <trkpt lat="42.750952" lon="-7.840335">
        <ele>611.7</ele>
        <time>1970-01-01T00:42:40.000Z</time>
      </trkpt>
      <trkpt lat="42.750938" lon="-7.840336">
        <ele>611.8</ele>
        <time>1970-01-01T00:42:41.000Z</time>
      </trkpt>
      <trkpt lat="42.750922" lon="-7.840338">
        <ele>611.9</ele>
        <time>1970-01-01T00:42:42.000Z</time>
      </trkpt>
      <trkpt lat="42.750902" lon="-7.840339">
        <ele>612.1</ele>
        <time>1970-01-01T00:42:43.000Z</time>
      </trkpt>
      <trkpt lat="42.750879" lon="-7.840343">
        <ele>612.2</ele>
        <time>1970-01-01T00:42:44.000Z</time>
      </trkpt>
      <trkpt lat="42.750862" lon="-7.84035">
        <ele>612.3</ele>
        <time>1970-01-01T00:42:45.000Z</time>
      </trkpt>
      <trkpt lat="42.750843" lon="-7.840358">
        <ele>612.5</ele>
        <time>1970-01-01T00:42:46.000Z</time>
      </trkpt>
      <trkpt lat="42.75082" lon="-7.84037">
        <ele>612.6</ele>
        <time>1970-01-01T00:42:47.000Z</time>
      </trkpt>
      <trkpt lat="42.750797" lon="-7.840381">
        <ele>612.8</ele>
        <time>1970-01-01T00:42:48.000Z</time>
      </trkpt>
      <trkpt lat="42.750774" lon="-7.840394">
        <ele>612.9</ele>
        <time>1970-01-01T00:42:49.000Z</time>
      </trkpt>
      <trkpt lat="42.750756" lon="-7.840407">
        <ele>613.1</ele>
        <time>1970-01-01T00:42:50.000Z</time>
      </trkpt>
      <trkpt lat="42.750738" lon="-7.840419">
        <ele>613.2</ele>
        <time>1970-01-01T00:42:51.000Z</time>
      </trkpt>
      <trkpt lat="42.750718" lon="-7.840431">
        <ele>613.4</ele>
        <time>1970-01-01T00:42:52.000Z</time>
      </trkpt>
      <trkpt lat="42.750699" lon="-7.840439">
        <ele>613.5</ele>
        <time>1970-01-01T00:42:53.000Z</time>
      </trkpt>
      <trkpt lat="42.750679" lon="-7.840449">
        <ele>613.7</ele>
        <time>1970-01-01T00:42:54.000Z</time>
      </trkpt>
      <trkpt lat="42.75066" lon="-7.840462">
        <ele>613.9</ele>
        <time>1970-01-01T00:42:55.000Z</time>
      </trkpt>
      <trkpt lat="42.750639" lon="-7.840472">
        <ele>614.1</ele>
        <time>1970-01-01T00:42:56.000Z</time>
      </trkpt>
      <trkpt lat="42.750617" lon="-7.840476">
        <ele>614.2</ele>
        <time>1970-01-01T00:42:57.000Z</time>
      </trkpt>
      <trkpt lat="42.750597" lon="-7.840484">
        <ele>614.4</ele>
        <time>1970-01-01T00:42:58.000Z</time>
      </trkpt>
      <trkpt lat="42.750571" lon="-7.840491">
        <ele>614.6</ele>
        <time>1970-01-01T00:42:59.000Z</time>
      </trkpt>
      <trkpt lat="42.750545" lon="-7.840497">
        <ele>614.8</ele>
        <time>1970-01-01T00:43:00.000Z</time>
      </trkpt>
      <trkpt lat="42.750528" lon="-7.840509">
        <ele>615</ele>
        <time>1970-01-01T00:43:01.000Z</time>
      </trkpt>
      <trkpt lat="42.750505" lon="-7.84052">
        <ele>615.1</ele>
        <time>1970-01-01T00:43:02.000Z</time>
      </trkpt>
      <trkpt lat="42.750486" lon="-7.840529">
        <ele>615.3</ele>
        <time>1970-01-01T00:43:03.000Z</time>
      </trkpt>
      <trkpt lat="42.750467" lon="-7.84054">
        <ele>615.4</ele>
        <time>1970-01-01T00:43:04.000Z</time>
      </trkpt>
      <trkpt lat="42.750444" lon="-7.840552">
        <ele>615.6</ele>
        <time>1970-01-01T00:43:05.000Z</time>
      </trkpt>
      <trkpt lat="42.750424" lon="-7.840565">
        <ele>615.7</ele>
        <time>1970-01-01T00:43:06.000Z</time>
      </trkpt>
      <trkpt lat="42.750403" lon="-7.840577">
        <ele>615.9</ele>
        <time>1970-01-01T00:43:07.000Z</time>
      </trkpt>
      <trkpt lat="42.750383" lon="-7.84059">
        <ele>616</ele>
        <time>1970-01-01T00:43:08.000Z</time>
      </trkpt>
      <trkpt lat="42.750361" lon="-7.840606">
        <ele>616.2</ele>
        <time>1970-01-01T00:43:09.000Z</time>
      </trkpt>
      <trkpt lat="42.75034" lon="-7.840622">
        <ele>616.3</ele>
        <time>1970-01-01T00:43:10.000Z</time>
      </trkpt>
      <trkpt lat="42.75032" lon="-7.840638">
        <ele>616.5</ele>
        <time>1970-01-01T00:43:11.000Z</time>
      </trkpt>
      <trkpt lat="42.7503" lon="-7.840656">
        <ele>616.6</ele>
        <time>1970-01-01T00:43:12.000Z</time>
      </trkpt>
      <trkpt lat="42.750283" lon="-7.840674">
        <ele>616.7</ele>
        <time>1970-01-01T00:43:13.000Z</time>
      </trkpt>
      <trkpt lat="42.750266" lon="-7.840688">
        <ele>616.9</ele>
        <time>1970-01-01T00:43:14.000Z</time>
      </trkpt>
      <trkpt lat="42.750248" lon="-7.840699">
        <ele>617</ele>
        <time>1970-01-01T00:43:15.000Z</time>
      </trkpt>
      <trkpt lat="42.75023" lon="-7.840719">
        <ele>617.1</ele>
        <time>1970-01-01T00:43:16.000Z</time>
      </trkpt>
      <trkpt lat="42.750209" lon="-7.840739">
        <ele>617.2</ele>
        <time>1970-01-01T00:43:17.000Z</time>
      </trkpt>
      <trkpt lat="42.750187" lon="-7.84076">
        <ele>617.3</ele>
        <time>1970-01-01T00:43:18.000Z</time>
      </trkpt>
      <trkpt lat="42.750165" lon="-7.840784">
        <ele>617.4</ele>
        <time>1970-01-01T00:43:19.000Z</time>
      </trkpt>
      <trkpt lat="42.75014" lon="-7.840808">
        <ele>617.6</ele>
        <time>1970-01-01T00:43:20.000Z</time>
      </trkpt>
      <trkpt lat="42.75011" lon="-7.840833">
        <ele>617.7</ele>
        <time>1970-01-01T00:43:21.000Z</time>
      </trkpt>
      <trkpt lat="42.750079" lon="-7.840862">
        <ele>617.8</ele>
        <time>1970-01-01T00:43:22.000Z</time>
      </trkpt>
      <trkpt lat="42.75005" lon="-7.840884">
        <ele>617.9</ele>
        <time>1970-01-01T00:43:23.000Z</time>
      </trkpt>
      <trkpt lat="42.750021" lon="-7.840909">
        <ele>618.1</ele>
        <time>1970-01-01T00:43:24.000Z</time>
      </trkpt>
      <trkpt lat="42.749992" lon="-7.840935">
        <ele>618.2</ele>
        <time>1970-01-01T00:43:25.000Z</time>
      </trkpt>
      <trkpt lat="42.749966" lon="-7.84096">
        <ele>618.3</ele>
        <time>1970-01-01T00:43:26.000Z</time>
      </trkpt>
      <trkpt lat="42.74994" lon="-7.840986">
        <ele>618.4</ele>
        <time>1970-01-01T00:43:27.000Z</time>
      </trkpt>
      <trkpt lat="42.749916" lon="-7.841014">
        <ele>618.6</ele>
        <time>1970-01-01T00:43:28.000Z</time>
      </trkpt>
      <trkpt lat="42.749892" lon="-7.841037">
        <ele>618.7</ele>
        <time>1970-01-01T00:43:29.000Z</time>
      </trkpt>
      <trkpt lat="42.749864" lon="-7.841063">
        <ele>618.8</ele>
        <time>1970-01-01T00:43:30.000Z</time>
      </trkpt>
      <trkpt lat="42.749839" lon="-7.841088">
        <ele>619</ele>
        <time>1970-01-01T00:43:31.000Z</time>
      </trkpt>
      <trkpt lat="42.749809" lon="-7.841107">
        <ele>619.1</ele>
        <time>1970-01-01T00:43:32.000Z</time>
      </trkpt>
      <trkpt lat="42.749782" lon="-7.841128">
        <ele>619.2</ele>
        <time>1970-01-01T00:43:33.000Z</time>
      </trkpt>
      <trkpt lat="42.749759" lon="-7.841149">
        <ele>619.3</ele>
        <time>1970-01-01T00:43:34.000Z</time>
      </trkpt>
      <trkpt lat="42.749734" lon="-7.841166">
        <ele>619.5</ele>
        <time>1970-01-01T00:43:35.000Z</time>
      </trkpt>
      <trkpt lat="42.749713" lon="-7.84118">
        <ele>619.5</ele>
        <time>1970-01-01T00:43:36.000Z</time>
      </trkpt>
      <trkpt lat="42.74969" lon="-7.841196">
        <ele>619.6</ele>
        <time>1970-01-01T00:43:37.000Z</time>
      </trkpt>
      <trkpt lat="42.74967" lon="-7.841213">
        <ele>619.7</ele>
        <time>1970-01-01T00:43:38.000Z</time>
      </trkpt>
      <trkpt lat="42.749649" lon="-7.841227">
        <ele>619.8</ele>
        <time>1970-01-01T00:43:39.000Z</time>
      </trkpt>
      <trkpt lat="42.749622" lon="-7.84124">
        <ele>620</ele>
        <time>1970-01-01T00:43:40.000Z</time>
      </trkpt>
      <trkpt lat="42.749598" lon="-7.841255">
        <ele>620.1</ele>
        <time>1970-01-01T00:43:41.000Z</time>
      </trkpt>
      <trkpt lat="42.749579" lon="-7.841267">
        <ele>620.1</ele>
        <time>1970-01-01T00:43:42.000Z</time>
      </trkpt>
      <trkpt lat="42.74956" lon="-7.841277">
        <ele>620.2</ele>
        <time>1970-01-01T00:43:43.000Z</time>
      </trkpt>
      <trkpt lat="42.749532" lon="-7.841291">
        <ele>620.4</ele>
        <time>1970-01-01T00:43:44.000Z</time>
      </trkpt>
      <trkpt lat="42.749503" lon="-7.841311">
        <ele>620.5</ele>
        <time>1970-01-01T00:43:45.000Z</time>
      </trkpt>
      <trkpt lat="42.749476" lon="-7.84134">
        <ele>620.7</ele>
        <time>1970-01-01T00:43:46.000Z</time>
      </trkpt>
      <trkpt lat="42.74945" lon="-7.841357">
        <ele>620.8</ele>
        <time>1970-01-01T00:43:47.000Z</time>
      </trkpt>
      <trkpt lat="42.749428" lon="-7.841376">
        <ele>620.9</ele>
        <time>1970-01-01T00:43:48.000Z</time>
      </trkpt>
      <trkpt lat="42.749407" lon="-7.841396">
        <ele>621</ele>
        <time>1970-01-01T00:43:49.000Z</time>
      </trkpt>
      <trkpt lat="42.749379" lon="-7.841425">
        <ele>621.1</ele>
        <time>1970-01-01T00:43:50.000Z</time>
      </trkpt>
      <trkpt lat="42.749356" lon="-7.841451">
        <ele>621.2</ele>
        <time>1970-01-01T00:43:51.000Z</time>
      </trkpt>
      <trkpt lat="42.749336" lon="-7.841472">
        <ele>621.3</ele>
        <time>1970-01-01T00:43:52.000Z</time>
      </trkpt>
      <trkpt lat="42.749313" lon="-7.84149">
        <ele>621.4</ele>
        <time>1970-01-01T00:43:53.000Z</time>
      </trkpt>
      <trkpt lat="42.749291" lon="-7.841508">
        <ele>621.5</ele>
        <time>1970-01-01T00:43:54.000Z</time>
      </trkpt>
      <trkpt lat="42.749269" lon="-7.841529">
        <ele>621.5</ele>
        <time>1970-01-01T00:43:55.000Z</time>
      </trkpt>
      <trkpt lat="42.749252" lon="-7.841551">
        <ele>621.6</ele>
        <time>1970-01-01T00:43:56.000Z</time>
      </trkpt>
      <trkpt lat="42.749234" lon="-7.841575">
        <ele>621.7</ele>
        <time>1970-01-01T00:43:57.000Z</time>
      </trkpt>
      <trkpt lat="42.749217" lon="-7.841596">
        <ele>621.7</ele>
        <time>1970-01-01T00:43:58.000Z</time>
      </trkpt>
      <trkpt lat="42.749199" lon="-7.841619">
        <ele>621.8</ele>
        <time>1970-01-01T00:43:59.000Z</time>
      </trkpt>
      <trkpt lat="42.74918" lon="-7.841643">
        <ele>621.9</ele>
        <time>1970-01-01T00:44:00.000Z</time>
      </trkpt>
      <trkpt lat="42.749162" lon="-7.841663">
        <ele>622</ele>
        <time>1970-01-01T00:44:01.000Z</time>
      </trkpt>
      <trkpt lat="42.749142" lon="-7.841687">
        <ele>622.1</ele>
        <time>1970-01-01T00:44:02.000Z</time>
      </trkpt>
      <trkpt lat="42.749123" lon="-7.84171">
        <ele>622.1</ele>
        <time>1970-01-01T00:44:03.000Z</time>
      </trkpt>
      <trkpt lat="42.749104" lon="-7.841729">
        <ele>622.2</ele>
        <time>1970-01-01T00:44:04.000Z</time>
      </trkpt>
      <trkpt lat="42.749084" lon="-7.841751">
        <ele>622.3</ele>
        <time>1970-01-01T00:44:05.000Z</time>
      </trkpt>
      <trkpt lat="42.749065" lon="-7.841776">
        <ele>622.4</ele>
        <time>1970-01-01T00:44:06.000Z</time>
      </trkpt>
      <trkpt lat="42.749046" lon="-7.841798">
        <ele>622.5</ele>
        <time>1970-01-01T00:44:07.000Z</time>
      </trkpt>
      <trkpt lat="42.74903" lon="-7.841821">
        <ele>622.6</ele>
        <time>1970-01-01T00:44:08.000Z</time>
      </trkpt>
      <trkpt lat="42.749012" lon="-7.841842">
        <ele>622.8</ele>
        <time>1970-01-01T00:44:09.000Z</time>
      </trkpt>
      <trkpt lat="42.748995" lon="-7.841865">
        <ele>622.9</ele>
        <time>1970-01-01T00:44:10.000Z</time>
      </trkpt>
      <trkpt lat="42.748982" lon="-7.841887">
        <ele>623</ele>
        <time>1970-01-01T00:44:11.000Z</time>
      </trkpt>
      <trkpt lat="42.748967" lon="-7.841908">
        <ele>623.1</ele>
        <time>1970-01-01T00:44:12.000Z</time>
      </trkpt>
      <trkpt lat="42.748951" lon="-7.841929">
        <ele>623.2</ele>
        <time>1970-01-01T00:44:13.000Z</time>
      </trkpt>
      <trkpt lat="42.748936" lon="-7.841949">
        <ele>623.3</ele>
        <time>1970-01-01T00:44:14.000Z</time>
      </trkpt>
      <trkpt lat="42.748919" lon="-7.84197">
        <ele>623.4</ele>
        <time>1970-01-01T00:44:15.000Z</time>
      </trkpt>
      <trkpt lat="42.748902" lon="-7.841991">
        <ele>623.5</ele>
        <time>1970-01-01T00:44:16.000Z</time>
      </trkpt>
      <trkpt lat="42.748882" lon="-7.842011">
        <ele>623.6</ele>
        <time>1970-01-01T00:44:17.000Z</time>
      </trkpt>
      <trkpt lat="42.748861" lon="-7.842031">
        <ele>623.7</ele>
        <time>1970-01-01T00:44:18.000Z</time>
      </trkpt>
      <trkpt lat="42.74884" lon="-7.842051">
        <ele>623.8</ele>
        <time>1970-01-01T00:44:19.000Z</time>
      </trkpt>
      <trkpt lat="42.74882" lon="-7.84207">
        <ele>624</ele>
        <time>1970-01-01T00:44:20.000Z</time>
      </trkpt>
      <trkpt lat="42.748798" lon="-7.842091">
        <ele>624.1</ele>
        <time>1970-01-01T00:44:21.000Z</time>
      </trkpt>
      <trkpt lat="42.748776" lon="-7.842111">
        <ele>624.2</ele>
        <time>1970-01-01T00:44:22.000Z</time>
      </trkpt>
      <trkpt lat="42.748754" lon="-7.84213">
        <ele>624.3</ele>
        <time>1970-01-01T00:44:23.000Z</time>
      </trkpt>
      <trkpt lat="42.748732" lon="-7.842146">
        <ele>624.5</ele>
        <time>1970-01-01T00:44:24.000Z</time>
      </trkpt>
      <trkpt lat="42.74871" lon="-7.84216">
        <ele>624.6</ele>
        <time>1970-01-01T00:44:25.000Z</time>
      </trkpt>
      <trkpt lat="42.748686" lon="-7.842172">
        <ele>624.7</ele>
        <time>1970-01-01T00:44:26.000Z</time>
      </trkpt>
      <trkpt lat="42.748664" lon="-7.842184">
        <ele>624.8</ele>
        <time>1970-01-01T00:44:27.000Z</time>
      </trkpt>
      <trkpt lat="42.74864" lon="-7.842195">
        <ele>624.9</ele>
        <time>1970-01-01T00:44:28.000Z</time>
      </trkpt>
      <trkpt lat="42.748616" lon="-7.842205">
        <ele>625</ele>
        <time>1970-01-01T00:44:29.000Z</time>
      </trkpt>
      <trkpt lat="42.748591" lon="-7.84221">
        <ele>625.1</ele>
        <time>1970-01-01T00:44:30.000Z</time>
      </trkpt>
      <trkpt lat="42.748569" lon="-7.842217">
        <ele>625.2</ele>
        <time>1970-01-01T00:44:31.000Z</time>
      </trkpt>
      <trkpt lat="42.748545" lon="-7.842229">
        <ele>625.3</ele>
        <time>1970-01-01T00:44:32.000Z</time>
      </trkpt>
      <trkpt lat="42.748525" lon="-7.842238">
        <ele>625.4</ele>
        <time>1970-01-01T00:44:33.000Z</time>
      </trkpt>
      <trkpt lat="42.748501" lon="-7.842245">
        <ele>625.5</ele>
        <time>1970-01-01T00:44:34.000Z</time>
      </trkpt>
      <trkpt lat="42.748475" lon="-7.842253">
        <ele>625.7</ele>
        <time>1970-01-01T00:44:35.000Z</time>
      </trkpt>
      <trkpt lat="42.748452" lon="-7.842258">
        <ele>625.8</ele>
        <time>1970-01-01T00:44:36.000Z</time>
      </trkpt>
      <trkpt lat="42.748429" lon="-7.842269">
        <ele>625.9</ele>
        <time>1970-01-01T00:44:37.000Z</time>
      </trkpt>
      <trkpt lat="42.748407" lon="-7.842283">
        <ele>626</ele>
        <time>1970-01-01T00:44:38.000Z</time>
      </trkpt>
      <trkpt lat="42.748383" lon="-7.842296">
        <ele>626.2</ele>
        <time>1970-01-01T00:44:39.000Z</time>
      </trkpt>
      <trkpt lat="42.74836" lon="-7.842311">
        <ele>626.3</ele>
        <time>1970-01-01T00:44:40.000Z</time>
      </trkpt>
      <trkpt lat="42.748338" lon="-7.842325">
        <ele>626.4</ele>
        <time>1970-01-01T00:44:41.000Z</time>
      </trkpt>
      <trkpt lat="42.748318" lon="-7.842337">
        <ele>626.5</ele>
        <time>1970-01-01T00:44:42.000Z</time>
      </trkpt>
      <trkpt lat="42.7483" lon="-7.842347">
        <ele>626.6</ele>
        <time>1970-01-01T00:44:43.000Z</time>
      </trkpt>
      <trkpt lat="42.748282" lon="-7.842356">
        <ele>626.7</ele>
        <time>1970-01-01T00:44:44.000Z</time>
      </trkpt>
      <trkpt lat="42.748264" lon="-7.842368">
        <ele>626.8</ele>
        <time>1970-01-01T00:44:45.000Z</time>
      </trkpt>
      <trkpt lat="42.748245" lon="-7.842378">
        <ele>626.9</ele>
        <time>1970-01-01T00:44:46.000Z</time>
      </trkpt>
      <trkpt lat="42.748226" lon="-7.842388">
        <ele>627.1</ele>
        <time>1970-01-01T00:44:47.000Z</time>
      </trkpt>
      <trkpt lat="42.748205" lon="-7.8424">
        <ele>627.2</ele>
        <time>1970-01-01T00:44:48.000Z</time>
      </trkpt>
      <trkpt lat="42.748184" lon="-7.842411">
        <ele>627.3</ele>
        <time>1970-01-01T00:44:49.000Z</time>
      </trkpt>
      <trkpt lat="42.748166" lon="-7.842417">
        <ele>627.4</ele>
        <time>1970-01-01T00:44:50.000Z</time>
      </trkpt>
      <trkpt lat="42.748147" lon="-7.842425">
        <ele>627.6</ele>
        <time>1970-01-01T00:44:51.000Z</time>
      </trkpt>
      <trkpt lat="42.748123" lon="-7.842433">
        <ele>627.7</ele>
        <time>1970-01-01T00:44:52.000Z</time>
      </trkpt>
      <trkpt lat="42.7481" lon="-7.842441">
        <ele>627.8</ele>
        <time>1970-01-01T00:44:53.000Z</time>
      </trkpt>
      <trkpt lat="42.748082" lon="-7.84245">
        <ele>627.9</ele>
        <time>1970-01-01T00:44:54.000Z</time>
      </trkpt>
      <trkpt lat="42.748067" lon="-7.842456">
        <ele>628</ele>
        <time>1970-01-01T00:44:55.000Z</time>
      </trkpt>
      <trkpt lat="42.748049" lon="-7.842461">
        <ele>628.1</ele>
        <time>1970-01-01T00:44:56.000Z</time>
      </trkpt>
      <trkpt lat="42.748029" lon="-7.842468">
        <ele>628.3</ele>
        <time>1970-01-01T00:44:57.000Z</time>
      </trkpt>
      <trkpt lat="42.74801" lon="-7.842475">
        <ele>628.4</ele>
        <time>1970-01-01T00:44:58.000Z</time>
      </trkpt>
      <trkpt lat="42.747988" lon="-7.842482">
        <ele>628.5</ele>
        <time>1970-01-01T00:44:59.000Z</time>
      </trkpt>
      <trkpt lat="42.747968" lon="-7.842488">
        <ele>628.6</ele>
        <time>1970-01-01T00:45:00.000Z</time>
      </trkpt>
      <trkpt lat="42.747938" lon="-7.842491">
        <ele>628.7</ele>
        <time>1970-01-01T00:45:01.000Z</time>
      </trkpt>
      <trkpt lat="42.747909" lon="-7.8425">
        <ele>628.8</ele>
        <time>1970-01-01T00:45:02.000Z</time>
      </trkpt>
      <trkpt lat="42.747881" lon="-7.842499">
        <ele>628.9</ele>
        <time>1970-01-01T00:45:03.000Z</time>
      </trkpt>
      <trkpt lat="42.747858" lon="-7.842501">
        <ele>629</ele>
        <time>1970-01-01T00:45:04.000Z</time>
      </trkpt>
      <trkpt lat="42.747837" lon="-7.842505">
        <ele>629</ele>
        <time>1970-01-01T00:45:05.000Z</time>
      </trkpt>
      <trkpt lat="42.747817" lon="-7.842509">
        <ele>629.1</ele>
        <time>1970-01-01T00:45:06.000Z</time>
      </trkpt>
      <trkpt lat="42.747788" lon="-7.842514">
        <ele>629.2</ele>
        <time>1970-01-01T00:45:07.000Z</time>
      </trkpt>
      <trkpt lat="42.747762" lon="-7.842516">
        <ele>629.3</ele>
        <time>1970-01-01T00:45:08.000Z</time>
      </trkpt>
      <trkpt lat="42.747736" lon="-7.842521">
        <ele>629.3</ele>
        <time>1970-01-01T00:45:09.000Z</time>
      </trkpt>
      <trkpt lat="42.747718" lon="-7.842526">
        <ele>629.4</ele>
        <time>1970-01-01T00:45:10.000Z</time>
      </trkpt>
      <trkpt lat="42.7477" lon="-7.84253">
        <ele>629.5</ele>
        <time>1970-01-01T00:45:11.000Z</time>
      </trkpt>
      <trkpt lat="42.74768" lon="-7.842529">
        <ele>629.5</ele>
        <time>1970-01-01T00:45:12.000Z</time>
      </trkpt>
      <trkpt lat="42.74766" lon="-7.842528">
        <ele>629.6</ele>
        <time>1970-01-01T00:45:13.000Z</time>
      </trkpt>
      <trkpt lat="42.747633" lon="-7.842533">
        <ele>629.7</ele>
        <time>1970-01-01T00:45:14.000Z</time>
      </trkpt>
      <trkpt lat="42.747614" lon="-7.842534">
        <ele>629.8</ele>
        <time>1970-01-01T00:45:15.000Z</time>
      </trkpt>
      <trkpt lat="42.747595" lon="-7.84253">
        <ele>629.8</ele>
        <time>1970-01-01T00:45:16.000Z</time>
      </trkpt>
      <trkpt lat="42.747578" lon="-7.84253">
        <ele>629.9</ele>
        <time>1970-01-01T00:45:17.000Z</time>
      </trkpt>
      <trkpt lat="42.747557" lon="-7.84253">
        <ele>629.9</ele>
        <time>1970-01-01T00:45:18.000Z</time>
      </trkpt>
      <trkpt lat="42.747531" lon="-7.842532">
        <ele>630</ele>
        <time>1970-01-01T00:45:19.000Z</time>
      </trkpt>
      <trkpt lat="42.747505" lon="-7.842531">
        <ele>630.1</ele>
        <time>1970-01-01T00:45:20.000Z</time>
      </trkpt>
      <trkpt lat="42.747479" lon="-7.842529">
        <ele>630.2</ele>
        <time>1970-01-01T00:45:21.000Z</time>
      </trkpt>
      <trkpt lat="42.74746" lon="-7.842524">
        <ele>630.3</ele>
        <time>1970-01-01T00:45:22.000Z</time>
      </trkpt>
      <trkpt lat="42.747436" lon="-7.842522">
        <ele>630.3</ele>
        <time>1970-01-01T00:45:23.000Z</time>
      </trkpt>
      <trkpt lat="42.747403" lon="-7.842526">
        <ele>630.5</ele>
        <time>1970-01-01T00:45:24.000Z</time>
      </trkpt>
      <trkpt lat="42.747378" lon="-7.842534">
        <ele>630.6</ele>
        <time>1970-01-01T00:45:25.000Z</time>
      </trkpt>
      <trkpt lat="42.747349" lon="-7.842547">
        <ele>630.7</ele>
        <time>1970-01-01T00:45:26.000Z</time>
      </trkpt>
      <trkpt lat="42.74732" lon="-7.842563">
        <ele>630.8</ele>
        <time>1970-01-01T00:45:27.000Z</time>
      </trkpt>
      <trkpt lat="42.747298" lon="-7.842579">
        <ele>630.9</ele>
        <time>1970-01-01T00:45:28.000Z</time>
      </trkpt>
      <trkpt lat="42.747275" lon="-7.842592">
        <ele>631</ele>
        <time>1970-01-01T00:45:29.000Z</time>
      </trkpt>
      <trkpt lat="42.747249" lon="-7.842599">
        <ele>631.1</ele>
        <time>1970-01-01T00:45:30.000Z</time>
      </trkpt>
      <trkpt lat="42.747224" lon="-7.84261">
        <ele>631.2</ele>
        <time>1970-01-01T00:45:31.000Z</time>
      </trkpt>
      <trkpt lat="42.7472" lon="-7.842626">
        <ele>631.3</ele>
        <time>1970-01-01T00:45:32.000Z</time>
      </trkpt>
      <trkpt lat="42.747176" lon="-7.842642">
        <ele>631.5</ele>
        <time>1970-01-01T00:45:33.000Z</time>
      </trkpt>
      <trkpt lat="42.747146" lon="-7.842661">
        <ele>631.7</ele>
        <time>1970-01-01T00:45:34.000Z</time>
      </trkpt>
      <trkpt lat="42.747119" lon="-7.84268">
        <ele>631.9</ele>
        <time>1970-01-01T00:45:35.000Z</time>
      </trkpt>
      <trkpt lat="42.747092" lon="-7.842699">
        <ele>632.1</ele>
        <time>1970-01-01T00:45:36.000Z</time>
      </trkpt>
      <trkpt lat="42.747065" lon="-7.842709">
        <ele>632.2</ele>
        <time>1970-01-01T00:45:37.000Z</time>
      </trkpt>
      <trkpt lat="42.747037" lon="-7.842718">
        <ele>632.4</ele>
        <time>1970-01-01T00:45:38.000Z</time>
      </trkpt>
      <trkpt lat="42.747011" lon="-7.842723">
        <ele>632.6</ele>
        <time>1970-01-01T00:45:39.000Z</time>
      </trkpt>
      <trkpt lat="42.746985" lon="-7.842721">
        <ele>632.7</ele>
        <time>1970-01-01T00:45:40.000Z</time>
      </trkpt>
      <trkpt lat="42.746958" lon="-7.842718">
        <ele>632.9</ele>
        <time>1970-01-01T00:45:41.000Z</time>
      </trkpt>
      <trkpt lat="42.746934" lon="-7.842712">
        <ele>633.1</ele>
        <time>1970-01-01T00:45:42.000Z</time>
      </trkpt>
      <trkpt lat="42.746913" lon="-7.842702">
        <ele>633.2</ele>
        <time>1970-01-01T00:45:43.000Z</time>
      </trkpt>
      <trkpt lat="42.746895" lon="-7.842689">
        <ele>633.4</ele>
        <time>1970-01-01T00:45:44.000Z</time>
      </trkpt>
      <trkpt lat="42.746885" lon="-7.842668">
        <ele>633.5</ele>
        <time>1970-01-01T00:45:45.000Z</time>
      </trkpt>
      <trkpt lat="42.746866" lon="-7.842651">
        <ele>633.7</ele>
        <time>1970-01-01T00:45:46.000Z</time>
      </trkpt>
      <trkpt lat="42.74685" lon="-7.842635">
        <ele>633.8</ele>
        <time>1970-01-01T00:45:47.000Z</time>
      </trkpt>
      <trkpt lat="42.746834" lon="-7.84262">
        <ele>633.9</ele>
        <time>1970-01-01T00:45:48.000Z</time>
      </trkpt>
      <trkpt lat="42.746817" lon="-7.842607">
        <ele>634</ele>
        <time>1970-01-01T00:45:49.000Z</time>
      </trkpt>
      <trkpt lat="42.746798" lon="-7.842597">
        <ele>634.1</ele>
        <time>1970-01-01T00:45:50.000Z</time>
      </trkpt>
      <trkpt lat="42.746767" lon="-7.842582">
        <ele>634.2</ele>
        <time>1970-01-01T00:45:51.000Z</time>
      </trkpt>
      <trkpt lat="42.746745" lon="-7.842566">
        <ele>634.3</ele>
        <time>1970-01-01T00:45:52.000Z</time>
      </trkpt>
      <trkpt lat="42.746724" lon="-7.842547">
        <ele>634.4</ele>
        <time>1970-01-01T00:45:53.000Z</time>
      </trkpt>
      <trkpt lat="42.746688" lon="-7.842529">
        <ele>634.6</ele>
        <time>1970-01-01T00:45:54.000Z</time>
      </trkpt>
      <trkpt lat="42.746642" lon="-7.842508">
        <ele>634.7</ele>
        <time>1970-01-01T00:45:55.000Z</time>
      </trkpt>
      <trkpt lat="42.7466" lon="-7.842493">
        <ele>634.8</ele>
        <time>1970-01-01T00:45:56.000Z</time>
      </trkpt>
      <trkpt lat="42.746546" lon="-7.842493">
        <ele>634.8</ele>
        <time>1970-01-01T00:45:57.000Z</time>
      </trkpt>
      <trkpt lat="42.746496" lon="-7.842489">
        <ele>634.7</ele>
        <time>1970-01-01T00:45:58.000Z</time>
      </trkpt>
      <trkpt lat="42.746455" lon="-7.842489">
        <ele>634.7</ele>
        <time>1970-01-01T00:45:59.000Z</time>
      </trkpt>
      <trkpt lat="42.746416" lon="-7.842498">
        <ele>634.6</ele>
        <time>1970-01-01T00:46:00.000Z</time>
      </trkpt>
      <trkpt lat="42.746378" lon="-7.842518">
        <ele>634.5</ele>
        <time>1970-01-01T00:46:01.000Z</time>
      </trkpt>
      <trkpt lat="42.746342" lon="-7.842543">
        <ele>634.3</ele>
        <time>1970-01-01T00:46:02.000Z</time>
      </trkpt>
      <trkpt lat="42.746304" lon="-7.842566">
        <ele>633.9</ele>
        <time>1970-01-01T00:46:03.000Z</time>
      </trkpt>
      <trkpt lat="42.746277" lon="-7.842591">
        <ele>633.7</ele>
        <time>1970-01-01T00:46:04.000Z</time>
      </trkpt>
      <trkpt lat="42.746252" lon="-7.842614">
        <ele>633.6</ele>
        <time>1970-01-01T00:46:05.000Z</time>
      </trkpt>
      <trkpt lat="42.746229" lon="-7.84264">
        <ele>633.6</ele>
        <time>1970-01-01T00:46:06.000Z</time>
      </trkpt>
      <trkpt lat="42.746206" lon="-7.842669">
        <ele>633.5</ele>
        <time>1970-01-01T00:46:07.000Z</time>
      </trkpt>
      <trkpt lat="42.746181" lon="-7.8427">
        <ele>633.5</ele>
        <time>1970-01-01T00:46:08.000Z</time>
      </trkpt>
      <trkpt lat="42.746154" lon="-7.84273">
        <ele>633.5</ele>
        <time>1970-01-01T00:46:09.000Z</time>
      </trkpt>
      <trkpt lat="42.746124" lon="-7.842761">
        <ele>633.6</ele>
        <time>1970-01-01T00:46:10.000Z</time>
      </trkpt>
      <trkpt lat="42.746095" lon="-7.842794">
        <ele>633.6</ele>
        <time>1970-01-01T00:46:11.000Z</time>
      </trkpt>
      <trkpt lat="42.746067" lon="-7.84283">
        <ele>633.7</ele>
        <time>1970-01-01T00:46:12.000Z</time>
      </trkpt>
      <trkpt lat="42.746039" lon="-7.842867">
        <ele>633.7</ele>
        <time>1970-01-01T00:46:13.000Z</time>
      </trkpt>
      <trkpt lat="42.746014" lon="-7.842909">
        <ele>633.8</ele>
        <time>1970-01-01T00:46:14.000Z</time>
      </trkpt>
      <trkpt lat="42.745995" lon="-7.842957">
        <ele>633.8</ele>
        <time>1970-01-01T00:46:15.000Z</time>
      </trkpt>
      <trkpt lat="42.74598" lon="-7.843008">
        <ele>633.9</ele>
        <time>1970-01-01T00:46:16.000Z</time>
      </trkpt>
      <trkpt lat="42.745966" lon="-7.843059">
        <ele>634</ele>
        <time>1970-01-01T00:46:17.000Z</time>
      </trkpt>
      <trkpt lat="42.745954" lon="-7.843111">
        <ele>634.1</ele>
        <time>1970-01-01T00:46:18.000Z</time>
      </trkpt>
      <trkpt lat="42.745943" lon="-7.843163">
        <ele>634.2</ele>
        <time>1970-01-01T00:46:19.000Z</time>
      </trkpt>
      <trkpt lat="42.745932" lon="-7.843214">
        <ele>634.3</ele>
        <time>1970-01-01T00:46:20.000Z</time>
      </trkpt>
      <trkpt lat="42.745922" lon="-7.843262">
        <ele>634.4</ele>
        <time>1970-01-01T00:46:21.000Z</time>
      </trkpt>
      <trkpt lat="42.74591" lon="-7.843302">
        <ele>634.5</ele>
        <time>1970-01-01T00:46:22.000Z</time>
      </trkpt>
      <trkpt lat="42.7459" lon="-7.843338">
        <ele>634.7</ele>
        <time>1970-01-01T00:46:23.000Z</time>
      </trkpt>
      <trkpt lat="42.745894" lon="-7.843376">
        <ele>634.8</ele>
        <time>1970-01-01T00:46:24.000Z</time>
      </trkpt>
      <trkpt lat="42.745887" lon="-7.843415">
        <ele>634.9</ele>
        <time>1970-01-01T00:46:25.000Z</time>
      </trkpt>
      <trkpt lat="42.745879" lon="-7.843455">
        <ele>635.1</ele>
        <time>1970-01-01T00:46:26.000Z</time>
      </trkpt>
      <trkpt lat="42.745869" lon="-7.843496">
        <ele>635.3</ele>
        <time>1970-01-01T00:46:27.000Z</time>
      </trkpt>
      <trkpt lat="42.745858" lon="-7.843537">
        <ele>635.5</ele>
        <time>1970-01-01T00:46:28.000Z</time>
      </trkpt>
      <trkpt lat="42.745846" lon="-7.843577">
        <ele>635.6</ele>
        <time>1970-01-01T00:46:29.000Z</time>
      </trkpt>
      <trkpt lat="42.74583" lon="-7.843615">
        <ele>635.8</ele>
        <time>1970-01-01T00:46:30.000Z</time>
      </trkpt>
      <trkpt lat="42.745814" lon="-7.843654">
        <ele>636</ele>
        <time>1970-01-01T00:46:31.000Z</time>
      </trkpt>
      <trkpt lat="42.745798" lon="-7.843695">
        <ele>636.2</ele>
        <time>1970-01-01T00:46:32.000Z</time>
      </trkpt>
      <trkpt lat="42.745784" lon="-7.843736">
        <ele>636.4</ele>
        <time>1970-01-01T00:46:33.000Z</time>
      </trkpt>
      <trkpt lat="42.745768" lon="-7.843776">
        <ele>636.5</ele>
        <time>1970-01-01T00:46:34.000Z</time>
      </trkpt>
      <trkpt lat="42.745752" lon="-7.843813">
        <ele>636.7</ele>
        <time>1970-01-01T00:46:35.000Z</time>
      </trkpt>
      <trkpt lat="42.745737" lon="-7.84385">
        <ele>636.8</ele>
        <time>1970-01-01T00:46:36.000Z</time>
      </trkpt>
      <trkpt lat="42.74572" lon="-7.843892">
        <ele>636.9</ele>
        <time>1970-01-01T00:46:37.000Z</time>
      </trkpt>
      <trkpt lat="42.745704" lon="-7.843933">
        <ele>637</ele>
        <time>1970-01-01T00:46:38.000Z</time>
      </trkpt>
      <trkpt lat="42.745687" lon="-7.843976">
        <ele>637.1</ele>
        <time>1970-01-01T00:46:39.000Z</time>
      </trkpt>
      <trkpt lat="42.745671" lon="-7.844015">
        <ele>637.2</ele>
        <time>1970-01-01T00:46:40.000Z</time>
      </trkpt>
      <trkpt lat="42.745657" lon="-7.844057">
        <ele>637.2</ele>
        <time>1970-01-01T00:46:41.000Z</time>
      </trkpt>
      <trkpt lat="42.745641" lon="-7.844098">
        <ele>637.2</ele>
        <time>1970-01-01T00:46:42.000Z</time>
      </trkpt>
      <trkpt lat="42.745627" lon="-7.84414">
        <ele>637.2</ele>
        <time>1970-01-01T00:46:43.000Z</time>
      </trkpt>
      <trkpt lat="42.745614" lon="-7.844182">
        <ele>637.2</ele>
        <time>1970-01-01T00:46:44.000Z</time>
      </trkpt>
      <trkpt lat="42.745607" lon="-7.844231">
        <ele>637.2</ele>
        <time>1970-01-01T00:46:45.000Z</time>
      </trkpt>
      <trkpt lat="42.745596" lon="-7.844273">
        <ele>637.2</ele>
        <time>1970-01-01T00:46:46.000Z</time>
      </trkpt>
      <trkpt lat="42.745585" lon="-7.844309">
        <ele>637.1</ele>
        <time>1970-01-01T00:46:47.000Z</time>
      </trkpt>
      <trkpt lat="42.745574" lon="-7.844344">
        <ele>637.1</ele>
        <time>1970-01-01T00:46:48.000Z</time>
      </trkpt>
      <trkpt lat="42.745558" lon="-7.844379">
        <ele>637.1</ele>
        <time>1970-01-01T00:46:49.000Z</time>
      </trkpt>
      <trkpt lat="42.745542" lon="-7.844423">
        <ele>637</ele>
        <time>1970-01-01T00:46:50.000Z</time>
      </trkpt>
      <trkpt lat="42.745525" lon="-7.844477">
        <ele>636.9</ele>
        <time>1970-01-01T00:46:51.000Z</time>
      </trkpt>
      <trkpt lat="42.745504" lon="-7.844536">
        <ele>636.8</ele>
        <time>1970-01-01T00:46:52.000Z</time>
      </trkpt>
      <trkpt lat="42.745479" lon="-7.844593">
        <ele>636.6</ele>
        <time>1970-01-01T00:46:53.000Z</time>
      </trkpt>
      <trkpt lat="42.745444" lon="-7.844651">
        <ele>636.5</ele>
        <time>1970-01-01T00:46:54.000Z</time>
      </trkpt>
      <trkpt lat="42.745405" lon="-7.844699">
        <ele>636.3</ele>
        <time>1970-01-01T00:46:55.000Z</time>
      </trkpt>
      <trkpt lat="42.745365" lon="-7.844741">
        <ele>636.2</ele>
        <time>1970-01-01T00:46:56.000Z</time>
      </trkpt>
      <trkpt lat="42.74532" lon="-7.844772">
        <ele>636</ele>
        <time>1970-01-01T00:46:57.000Z</time>
      </trkpt>
      <trkpt lat="42.745276" lon="-7.844786">
        <ele>636.1</ele>
        <time>1970-01-01T00:46:58.000Z</time>
      </trkpt>
      <trkpt lat="42.745236" lon="-7.84479">
        <ele>636.2</ele>
        <time>1970-01-01T00:46:59.000Z</time>
      </trkpt>
      <trkpt lat="42.745199" lon="-7.844786">
        <ele>636.4</ele>
        <time>1970-01-01T00:47:00.000Z</time>
      </trkpt>
      <trkpt lat="42.745165" lon="-7.844781">
        <ele>636.5</ele>
        <time>1970-01-01T00:47:01.000Z</time>
      </trkpt>
      <trkpt lat="42.745133" lon="-7.844773">
        <ele>636.7</ele>
        <time>1970-01-01T00:47:02.000Z</time>
      </trkpt>
      <trkpt lat="42.745101" lon="-7.844768">
        <ele>636.8</ele>
        <time>1970-01-01T00:47:03.000Z</time>
      </trkpt>
      <trkpt lat="42.745071" lon="-7.844765">
        <ele>637</ele>
        <time>1970-01-01T00:47:04.000Z</time>
      </trkpt>
      <trkpt lat="42.745041" lon="-7.844762">
        <ele>637.1</ele>
        <time>1970-01-01T00:47:05.000Z</time>
      </trkpt>
      <trkpt lat="42.745012" lon="-7.844761">
        <ele>637.3</ele>
        <time>1970-01-01T00:47:06.000Z</time>
      </trkpt>
      <trkpt lat="42.744983" lon="-7.844759">
        <ele>637.4</ele>
        <time>1970-01-01T00:47:07.000Z</time>
      </trkpt>
      <trkpt lat="42.744953" lon="-7.844757">
        <ele>637.6</ele>
        <time>1970-01-01T00:47:08.000Z</time>
      </trkpt>
      <trkpt lat="42.744926" lon="-7.844757">
        <ele>637.8</ele>
        <time>1970-01-01T00:47:09.000Z</time>
      </trkpt>
      <trkpt lat="42.744895" lon="-7.84476">
        <ele>638</ele>
        <time>1970-01-01T00:47:10.000Z</time>
      </trkpt>
      <trkpt lat="42.744862" lon="-7.844766">
        <ele>638.2</ele>
        <time>1970-01-01T00:47:12.000Z</time>
      </trkpt>
      <trkpt lat="42.744803" lon="-7.844779">
        <ele>638.6</ele>
        <time>1970-01-01T00:47:14.000Z</time>
      </trkpt>
      <trkpt lat="42.744756" lon="-7.844812">
        <ele>639</ele>
        <time>1970-01-01T00:47:15.000Z</time>
      </trkpt>
      <trkpt lat="42.744739" lon="-7.844839">
        <ele>639.2</ele>
        <time>1970-01-01T00:47:17.000Z</time>
      </trkpt>
      <trkpt lat="42.744717" lon="-7.844913">
        <ele>639.4</ele>
        <time>1970-01-01T00:47:19.000Z</time>
      </trkpt>
      <trkpt lat="42.744694" lon="-7.845005">
        <ele>639.2</ele>
        <time>1970-01-01T00:47:20.000Z</time>
      </trkpt>
      <trkpt lat="42.744681" lon="-7.845058">
        <ele>639.1</ele>
        <time>1970-01-01T00:47:22.000Z</time>
      </trkpt>
      <trkpt lat="42.744653" lon="-7.845169">
        <ele>638.8</ele>
        <time>1970-01-01T00:47:24.000Z</time>
      </trkpt>
      <trkpt lat="42.744624" lon="-7.845284">
        <ele>638.5</ele>
        <time>1970-01-01T00:47:25.000Z</time>
      </trkpt>
      <trkpt lat="42.744609" lon="-7.84534">
        <ele>638.3</ele>
        <time>1970-01-01T00:47:27.000Z</time>
      </trkpt>
      <trkpt lat="42.744576" lon="-7.845458">
        <ele>637.9</ele>
        <time>1970-01-01T00:47:28.000Z</time>
      </trkpt>
      <trkpt lat="42.744561" lon="-7.845517">
        <ele>637.7</ele>
        <time>1970-01-01T00:47:30.000Z</time>
      </trkpt>
      <trkpt lat="42.744535" lon="-7.845637">
        <ele>637.1</ele>
        <time>1970-01-01T00:47:31.000Z</time>
      </trkpt>
      <trkpt lat="42.744525" lon="-7.845698">
        <ele>636.9</ele>
        <time>1970-01-01T00:47:33.000Z</time>
      </trkpt>
      <trkpt lat="42.744507" lon="-7.845835">
        <ele>636.3</ele>
        <time>1970-01-01T00:47:35.000Z</time>
      </trkpt>
      <trkpt lat="42.744486" lon="-7.845996">
        <ele>635.5</ele>
        <time>1970-01-01T00:47:36.000Z</time>
      </trkpt>
      <trkpt lat="42.744473" lon="-7.846087">
        <ele>635.1</ele>
        <time>1970-01-01T00:47:37.000Z</time>
      </trkpt>
      <trkpt lat="42.744461" lon="-7.84618">
        <ele>634.5</ele>
        <time>1970-01-01T00:47:38.000Z</time>
      </trkpt>
      <trkpt lat="42.744461" lon="-7.846276">
        <ele>633.8</ele>
        <time>1970-01-01T00:47:40.000Z</time>
      </trkpt>
      <trkpt lat="42.744517" lon="-7.846452">
        <ele>632.6</ele>
        <time>1970-01-01T00:47:42.000Z</time>
      </trkpt>
      <trkpt lat="42.744608" lon="-7.846596">
        <ele>631.7</ele>
        <time>1970-01-01T00:47:44.000Z</time>
      </trkpt>
      <trkpt lat="42.744661" lon="-7.846761">
        <ele>630.9</ele>
        <time>1970-01-01T00:47:45.000Z</time>
      </trkpt>
      <trkpt lat="42.744668" lon="-7.846847">
        <ele>630.5</ele>
        <time>1970-01-01T00:47:46.000Z</time>
      </trkpt>
      <trkpt lat="42.744668" lon="-7.846931">
        <ele>630.7</ele>
        <time>1970-01-01T00:47:47.000Z</time>
      </trkpt>
      <trkpt lat="42.744662" lon="-7.847014">
        <ele>630.9</ele>
        <time>1970-01-01T00:47:49.000Z</time>
      </trkpt>
      <trkpt lat="42.744639" lon="-7.847173">
        <ele>631.5</ele>
        <time>1970-01-01T00:47:51.000Z</time>
      </trkpt>
      <trkpt lat="42.744634" lon="-7.847305">
        <ele>632</ele>
        <time>1970-01-01T00:47:53.000Z</time>
      </trkpt>
      <trkpt lat="42.744634" lon="-7.847436">
        <ele>632.3</ele>
        <time>1970-01-01T00:47:55.000Z</time>
      </trkpt>
      <trkpt lat="42.744656" lon="-7.847562">
        <ele>632.8</ele>
        <time>1970-01-01T00:47:56.000Z</time>
      </trkpt>
      <trkpt lat="42.744672" lon="-7.847626">
        <ele>633</ele>
        <time>1970-01-01T00:47:57.000Z</time>
      </trkpt>
      <trkpt lat="42.744685" lon="-7.847692">
        <ele>633.2</ele>
        <time>1970-01-01T00:47:59.000Z</time>
      </trkpt>
      <trkpt lat="42.744714" lon="-7.847832">
        <ele>633.6</ele>
        <time>1970-01-01T00:48:00.000Z</time>
      </trkpt>
      <trkpt lat="42.744729" lon="-7.847902">
        <ele>633.9</ele>
        <time>1970-01-01T00:48:01.000Z</time>
      </trkpt>
      <trkpt lat="42.744743" lon="-7.847972">
        <ele>634.1</ele>
        <time>1970-01-01T00:48:02.000Z</time>
      </trkpt>
      <trkpt lat="42.744752" lon="-7.848043">
        <ele>634.3</ele>
        <time>1970-01-01T00:48:04.000Z</time>
      </trkpt>
      <trkpt lat="42.744765" lon="-7.848186">
        <ele>634.7</ele>
        <time>1970-01-01T00:48:05.000Z</time>
      </trkpt>
      <trkpt lat="42.744775" lon="-7.848249">
        <ele>634.9</ele>
        <time>1970-01-01T00:48:07.000Z</time>
      </trkpt>
      <trkpt lat="42.744803" lon="-7.848361">
        <ele>635.2</ele>
        <time>1970-01-01T00:48:09.000Z</time>
      </trkpt>
      <trkpt lat="42.744837" lon="-7.848457">
        <ele>635.5</ele>
        <time>1970-01-01T00:48:11.000Z</time>
      </trkpt>
      <trkpt lat="42.744889" lon="-7.84857">
        <ele>635.7</ele>
        <time>1970-01-01T00:48:12.000Z</time>
      </trkpt>
      <trkpt lat="42.744925" lon="-7.84862">
        <ele>635.8</ele>
        <time>1970-01-01T00:48:13.000Z</time>
      </trkpt>
      <trkpt lat="42.744963" lon="-7.848674">
        <ele>635.9</ele>
        <time>1970-01-01T00:48:15.000Z</time>
      </trkpt>
      <trkpt lat="42.745041" lon="-7.848793">
        <ele>636</ele>
        <time>1970-01-01T00:48:17.000Z</time>
      </trkpt>
      <trkpt lat="42.745084" lon="-7.848854">
        <ele>636</ele>
        <time>1970-01-01T00:48:18.000Z</time>
      </trkpt>
      <trkpt lat="42.745164" lon="-7.848967">
        <ele>636</ele>
        <time>1970-01-01T00:48:20.000Z</time>
      </trkpt>
      <trkpt lat="42.745235" lon="-7.849052">
        <ele>636</ele>
        <time>1970-01-01T00:48:21.000Z</time>
      </trkpt>
      <trkpt lat="42.745258" lon="-7.849103">
        <ele>636</ele>
        <time>1970-01-01T00:48:23.000Z</time>
      </trkpt>
      <trkpt lat="42.745285" lon="-7.849214">
        <ele>636</ele>
        <time>1970-01-01T00:48:24.000Z</time>
      </trkpt>
      <trkpt lat="42.745296" lon="-7.849262">
        <ele>636.1</ele>
        <time>1970-01-01T00:48:26.000Z</time>
      </trkpt>
      <trkpt lat="42.745305" lon="-7.849313">
        <ele>636.1</ele>
        <time>1970-01-01T00:48:27.000Z</time>
      </trkpt>
      <trkpt lat="42.745313" lon="-7.849368">
        <ele>636.2</ele>
        <time>1970-01-01T00:48:28.000Z</time>
      </trkpt>
      <trkpt lat="42.745319" lon="-7.849417">
        <ele>636.2</ele>
        <time>1970-01-01T00:48:29.000Z</time>
      </trkpt>
      <trkpt lat="42.745324" lon="-7.849473">
        <ele>636.3</ele>
        <time>1970-01-01T00:48:30.000Z</time>
      </trkpt>
      <trkpt lat="42.745335" lon="-7.849529">
        <ele>636.4</ele>
        <time>1970-01-01T00:48:31.000Z</time>
      </trkpt>
      <trkpt lat="42.74535" lon="-7.849591">
        <ele>636.5</ele>
        <time>1970-01-01T00:48:32.000Z</time>
      </trkpt>
      <trkpt lat="42.745362" lon="-7.849656">
        <ele>636.6</ele>
        <time>1970-01-01T00:48:33.000Z</time>
      </trkpt>
      <trkpt lat="42.745377" lon="-7.849714">
        <ele>636.7</ele>
        <time>1970-01-01T00:48:34.000Z</time>
      </trkpt>
      <trkpt lat="42.745391" lon="-7.849759">
        <ele>636.8</ele>
        <time>1970-01-01T00:48:35.000Z</time>
      </trkpt>
      <trkpt lat="42.745402" lon="-7.849806">
        <ele>636.9</ele>
        <time>1970-01-01T00:48:36.000Z</time>
      </trkpt>
      <trkpt lat="42.74542" lon="-7.849865">
        <ele>637</ele>
        <time>1970-01-01T00:48:37.000Z</time>
      </trkpt>
      <trkpt lat="42.745438" lon="-7.849922">
        <ele>637.1</ele>
        <time>1970-01-01T00:48:38.000Z</time>
      </trkpt>
      <trkpt lat="42.745454" lon="-7.849989">
        <ele>637.3</ele>
        <time>1970-01-01T00:48:39.000Z</time>
      </trkpt>
      <trkpt lat="42.745474" lon="-7.850053">
        <ele>637.4</ele>
        <time>1970-01-01T00:48:40.000Z</time>
      </trkpt>
      <trkpt lat="42.745498" lon="-7.850133">
        <ele>637.5</ele>
        <time>1970-01-01T00:48:41.000Z</time>
      </trkpt>
      <trkpt lat="42.745522" lon="-7.850213">
        <ele>637.6</ele>
        <time>1970-01-01T00:48:42.000Z</time>
      </trkpt>
      <trkpt lat="42.74555" lon="-7.850283">
        <ele>637.6</ele>
        <time>1970-01-01T00:48:43.000Z</time>
      </trkpt>
      <trkpt lat="42.745581" lon="-7.850344">
        <ele>637.7</ele>
        <time>1970-01-01T00:48:44.000Z</time>
      </trkpt>
      <trkpt lat="42.74561" lon="-7.850415">
        <ele>637.7</ele>
        <time>1970-01-01T00:48:45.000Z</time>
      </trkpt>
      <trkpt lat="42.745631" lon="-7.850491">
        <ele>637.7</ele>
        <time>1970-01-01T00:48:46.000Z</time>
      </trkpt>
      <trkpt lat="42.745645" lon="-7.850568">
        <ele>637.6</ele>
        <time>1970-01-01T00:48:47.000Z</time>
      </trkpt>
      <trkpt lat="42.74565" lon="-7.85065">
        <ele>637.5</ele>
        <time>1970-01-01T00:48:48.000Z</time>
      </trkpt>
      <trkpt lat="42.745644" lon="-7.850733">
        <ele>637.2</ele>
        <time>1970-01-01T00:48:49.000Z</time>
      </trkpt>
      <trkpt lat="42.745631" lon="-7.850835">
        <ele>636.9</ele>
        <time>1970-01-01T00:48:50.000Z</time>
      </trkpt>
      <trkpt lat="42.745623" lon="-7.85095">
        <ele>636.5</ele>
        <time>1970-01-01T00:48:51.000Z</time>
      </trkpt>
      <trkpt lat="42.745613" lon="-7.851071">
        <ele>635.9</ele>
        <time>1970-01-01T00:48:52.000Z</time>
      </trkpt>
      <trkpt lat="42.745605" lon="-7.851199">
        <ele>635.4</ele>
        <time>1970-01-01T00:48:53.000Z</time>
      </trkpt>
      <trkpt lat="42.745594" lon="-7.851329">
        <ele>634.9</ele>
        <time>1970-01-01T00:48:54.000Z</time>
      </trkpt>
      <trkpt lat="42.745583" lon="-7.851461">
        <ele>634.3</ele>
        <time>1970-01-01T00:48:55.000Z</time>
      </trkpt>
      <trkpt lat="42.745575" lon="-7.851595">
        <ele>633.7</ele>
        <time>1970-01-01T00:48:56.000Z</time>
      </trkpt>
      <trkpt lat="42.745568" lon="-7.851729">
        <ele>633.4</ele>
        <time>1970-01-01T00:48:57.000Z</time>
      </trkpt>
      <trkpt lat="42.745557" lon="-7.851862">
        <ele>633.1</ele>
        <time>1970-01-01T00:48:58.000Z</time>
      </trkpt>
      <trkpt lat="42.745549" lon="-7.851994">
        <ele>632.8</ele>
        <time>1970-01-01T00:48:59.000Z</time>
      </trkpt>
      <trkpt lat="42.745543" lon="-7.852122">
        <ele>632.7</ele>
        <time>1970-01-01T00:49:00.000Z</time>
      </trkpt>
      <trkpt lat="42.74554" lon="-7.852247">
        <ele>632.6</ele>
        <time>1970-01-01T00:49:01.000Z</time>
      </trkpt>
      <trkpt lat="42.74554" lon="-7.852368">
        <ele>632.5</ele>
        <time>1970-01-01T00:49:02.000Z</time>
      </trkpt>
      <trkpt lat="42.74554" lon="-7.852485">
        <ele>632.4</ele>
        <time>1970-01-01T00:49:03.000Z</time>
      </trkpt>
      <trkpt lat="42.74554" lon="-7.852598">
        <ele>632.5</ele>
        <time>1970-01-01T00:49:04.000Z</time>
      </trkpt>
      <trkpt lat="42.745539" lon="-7.852707">
        <ele>632.5</ele>
        <time>1970-01-01T00:49:05.000Z</time>
      </trkpt>
      <trkpt lat="42.745527" lon="-7.85281">
        <ele>632.6</ele>
        <time>1970-01-01T00:49:06.000Z</time>
      </trkpt>
      <trkpt lat="42.745497" lon="-7.852902">
        <ele>632.8</ele>
        <time>1970-01-01T00:49:07.000Z</time>
      </trkpt>
      <trkpt lat="42.745455" lon="-7.852977">
        <ele>633.1</ele>
        <time>1970-01-01T00:49:08.000Z</time>
      </trkpt>
      <trkpt lat="42.745407" lon="-7.853037">
        <ele>633.6</ele>
        <time>1970-01-01T00:49:09.000Z</time>
      </trkpt>
      <trkpt lat="42.745362" lon="-7.853088">
        <ele>634</ele>
        <time>1970-01-01T00:49:10.000Z</time>
      </trkpt>
      <trkpt lat="42.74532" lon="-7.853132">
        <ele>634.4</ele>
        <time>1970-01-01T00:49:11.000Z</time>
      </trkpt>
      <trkpt lat="42.745283" lon="-7.853173">
        <ele>634.8</ele>
        <time>1970-01-01T00:49:12.000Z</time>
      </trkpt>
      <trkpt lat="42.74525" lon="-7.85321">
        <ele>635.3</ele>
        <time>1970-01-01T00:49:13.000Z</time>
      </trkpt>
      <trkpt lat="42.745219" lon="-7.853247">
        <ele>635.6</ele>
        <time>1970-01-01T00:49:14.000Z</time>
      </trkpt>
      <trkpt lat="42.74519" lon="-7.853283">
        <ele>635.9</ele>
        <time>1970-01-01T00:49:15.000Z</time>
      </trkpt>
      <trkpt lat="42.745159" lon="-7.853314">
        <ele>636.1</ele>
        <time>1970-01-01T00:49:16.000Z</time>
      </trkpt>
      <trkpt lat="42.745127" lon="-7.853346">
        <ele>636.4</ele>
        <time>1970-01-01T00:49:17.000Z</time>
      </trkpt>
      <trkpt lat="42.745095" lon="-7.85338">
        <ele>636.8</ele>
        <time>1970-01-01T00:49:18.000Z</time>
      </trkpt>
      <trkpt lat="42.745064" lon="-7.853418">
        <ele>637.1</ele>
        <time>1970-01-01T00:49:19.000Z</time>
      </trkpt>
      <trkpt lat="42.745035" lon="-7.853459">
        <ele>637.5</ele>
        <time>1970-01-01T00:49:20.000Z</time>
      </trkpt>
      <trkpt lat="42.745008" lon="-7.853503">
        <ele>637.5</ele>
        <time>1970-01-01T00:49:21.000Z</time>
      </trkpt>
      <trkpt lat="42.744988" lon="-7.853549">
        <ele>637.3</ele>
        <time>1970-01-01T00:49:22.000Z</time>
      </trkpt>
      <trkpt lat="42.744973" lon="-7.8536">
        <ele>637.2</ele>
        <time>1970-01-01T00:49:23.000Z</time>
      </trkpt>
      <trkpt lat="42.74496" lon="-7.853647">
        <ele>637.1</ele>
        <time>1970-01-01T00:49:24.000Z</time>
      </trkpt>
      <trkpt lat="42.744948" lon="-7.853696">
        <ele>637</ele>
        <time>1970-01-01T00:49:25.000Z</time>
      </trkpt>
      <trkpt lat="42.744936" lon="-7.853748">
        <ele>636.8</ele>
        <time>1970-01-01T00:49:26.000Z</time>
      </trkpt>
      <trkpt lat="42.744928" lon="-7.853793">
        <ele>636.7</ele>
        <time>1970-01-01T00:49:27.000Z</time>
      </trkpt>
      <trkpt lat="42.744926" lon="-7.853833">
        <ele>636.6</ele>
        <time>1970-01-01T00:49:28.000Z</time>
      </trkpt>
      <trkpt lat="42.744925" lon="-7.853872">
        <ele>636.6</ele>
        <time>1970-01-01T00:49:29.000Z</time>
      </trkpt>
      <trkpt lat="42.744925" lon="-7.85391">
        <ele>636.5</ele>
        <time>1970-01-01T00:49:30.000Z</time>
      </trkpt>
      <trkpt lat="42.744921" lon="-7.853948">
        <ele>636.4</ele>
        <time>1970-01-01T00:49:31.000Z</time>
      </trkpt>
      <trkpt lat="42.744926" lon="-7.854006">
        <ele>636.3</ele>
        <time>1970-01-01T00:49:32.000Z</time>
      </trkpt>
      <trkpt lat="42.744929" lon="-7.854058">
        <ele>636.2</ele>
        <time>1970-01-01T00:49:33.000Z</time>
      </trkpt>
      <trkpt lat="42.744936" lon="-7.854119">
        <ele>636</ele>
        <time>1970-01-01T00:49:34.000Z</time>
      </trkpt>
      <trkpt lat="42.744943" lon="-7.854187">
        <ele>635.9</ele>
        <time>1970-01-01T00:49:35.000Z</time>
      </trkpt>
      <trkpt lat="42.744958" lon="-7.854253">
        <ele>635.7</ele>
        <time>1970-01-01T00:49:36.000Z</time>
      </trkpt>
      <trkpt lat="42.744973" lon="-7.854318">
        <ele>635.6</ele>
        <time>1970-01-01T00:49:37.000Z</time>
      </trkpt>
      <trkpt lat="42.744988" lon="-7.854377">
        <ele>635.4</ele>
        <time>1970-01-01T00:49:38.000Z</time>
      </trkpt>
      <trkpt lat="42.744997" lon="-7.854438">
        <ele>635.3</ele>
        <time>1970-01-01T00:49:39.000Z</time>
      </trkpt>
      <trkpt lat="42.74499" lon="-7.854507">
        <ele>635.2</ele>
        <time>1970-01-01T00:49:40.000Z</time>
      </trkpt>
      <trkpt lat="42.744982" lon="-7.854572">
        <ele>635</ele>
        <time>1970-01-01T00:49:41.000Z</time>
      </trkpt>
      <trkpt lat="42.744977" lon="-7.854636">
        <ele>634.9</ele>
        <time>1970-01-01T00:49:42.000Z</time>
      </trkpt>
      <trkpt lat="42.744971" lon="-7.854695">
        <ele>634.7</ele>
        <time>1970-01-01T00:49:43.000Z</time>
      </trkpt>
      <trkpt lat="42.744965" lon="-7.854761">
        <ele>634.5</ele>
        <time>1970-01-01T00:49:44.000Z</time>
      </trkpt>
      <trkpt lat="42.744971" lon="-7.85483">
        <ele>634.3</ele>
        <time>1970-01-01T00:49:45.000Z</time>
      </trkpt>
      <trkpt lat="42.744978" lon="-7.854889">
        <ele>634.1</ele>
        <time>1970-01-01T00:49:46.000Z</time>
      </trkpt>
      <trkpt lat="42.744992" lon="-7.854953">
        <ele>633.6</ele>
        <time>1970-01-01T00:49:47.000Z</time>
      </trkpt>
      <trkpt lat="42.745004" lon="-7.855012">
        <ele>633.3</ele>
        <time>1970-01-01T00:49:48.000Z</time>
      </trkpt>
      <trkpt lat="42.745013" lon="-7.855065">
        <ele>633.1</ele>
        <time>1970-01-01T00:49:49.000Z</time>
      </trkpt>
      <trkpt lat="42.745021" lon="-7.855116">
        <ele>632.8</ele>
        <time>1970-01-01T00:49:50.000Z</time>
      </trkpt>
      <trkpt lat="42.745029" lon="-7.855166">
        <ele>632.6</ele>
        <time>1970-01-01T00:49:51.000Z</time>
      </trkpt>
      <trkpt lat="42.745037" lon="-7.855221">
        <ele>632.3</ele>
        <time>1970-01-01T00:49:52.000Z</time>
      </trkpt>
      <trkpt lat="42.745046" lon="-7.855283">
        <ele>632</ele>
        <time>1970-01-01T00:49:53.000Z</time>
      </trkpt>
      <trkpt lat="42.745052" lon="-7.855354">
        <ele>631.6</ele>
        <time>1970-01-01T00:49:54.000Z</time>
      </trkpt>
      <trkpt lat="42.745048" lon="-7.855418">
        <ele>631.3</ele>
        <time>1970-01-01T00:49:55.000Z</time>
      </trkpt>
      <trkpt lat="42.745042" lon="-7.855487">
        <ele>631.2</ele>
        <time>1970-01-01T00:49:56.000Z</time>
      </trkpt>
      <trkpt lat="42.74503" lon="-7.855549">
        <ele>631.3</ele>
        <time>1970-01-01T00:49:57.000Z</time>
      </trkpt>
      <trkpt lat="42.745" lon="-7.855602">
        <ele>631.5</ele>
        <time>1970-01-01T00:49:58.000Z</time>
      </trkpt>
      <trkpt lat="42.744961" lon="-7.855635">
        <ele>631.7</ele>
        <time>1970-01-01T00:49:59.000Z</time>
      </trkpt>
      <trkpt lat="42.744918" lon="-7.855649">
        <ele>631.9</ele>
        <time>1970-01-01T00:50:00.000Z</time>
      </trkpt>
      <trkpt lat="42.74487" lon="-7.855657">
        <ele>632</ele>
        <time>1970-01-01T00:50:01.000Z</time>
      </trkpt>
      <trkpt lat="42.744818" lon="-7.855661">
        <ele>632.2</ele>
        <time>1970-01-01T00:50:02.000Z</time>
      </trkpt>
      <trkpt lat="42.744764" lon="-7.855671">
        <ele>632.5</ele>
        <time>1970-01-01T00:50:03.000Z</time>
      </trkpt>
      <trkpt lat="42.744714" lon="-7.855687">
        <ele>632.8</ele>
        <time>1970-01-01T00:50:04.000Z</time>
      </trkpt>
      <trkpt lat="42.744668" lon="-7.8557">
        <ele>633</ele>
        <time>1970-01-01T00:50:05.000Z</time>
      </trkpt>
      <trkpt lat="42.744631" lon="-7.855721">
        <ele>633.2</ele>
        <time>1970-01-01T00:50:06.000Z</time>
      </trkpt>
      <trkpt lat="42.744598" lon="-7.855749">
        <ele>633.4</ele>
        <time>1970-01-01T00:50:07.000Z</time>
      </trkpt>
      <trkpt lat="42.744564" lon="-7.855781">
        <ele>633.6</ele>
        <time>1970-01-01T00:50:08.000Z</time>
      </trkpt>
      <trkpt lat="42.744523" lon="-7.855804">
        <ele>633.8</ele>
        <time>1970-01-01T00:50:09.000Z</time>
      </trkpt>
      <trkpt lat="42.744479" lon="-7.855824">
        <ele>634.1</ele>
        <time>1970-01-01T00:50:10.000Z</time>
      </trkpt>
      <trkpt lat="42.744437" lon="-7.855851">
        <ele>634.2</ele>
        <time>1970-01-01T00:50:11.000Z</time>
      </trkpt>
      <trkpt lat="42.744398" lon="-7.855886">
        <ele>634.2</ele>
        <time>1970-01-01T00:50:12.000Z</time>
      </trkpt>
      <trkpt lat="42.744365" lon="-7.855922">
        <ele>634.3</ele>
        <time>1970-01-01T00:50:13.000Z</time>
      </trkpt>
      <trkpt lat="42.744337" lon="-7.855962">
        <ele>634.3</ele>
        <time>1970-01-01T00:50:14.000Z</time>
      </trkpt>
      <trkpt lat="42.744312" lon="-7.856">
        <ele>634.4</ele>
        <time>1970-01-01T00:50:15.000Z</time>
      </trkpt>
      <trkpt lat="42.744287" lon="-7.85604">
        <ele>634.5</ele>
        <time>1970-01-01T00:50:16.000Z</time>
      </trkpt>
      <trkpt lat="42.744263" lon="-7.856081">
        <ele>634.7</ele>
        <time>1970-01-01T00:50:17.000Z</time>
      </trkpt>
      <trkpt lat="42.744242" lon="-7.856123">
        <ele>634.8</ele>
        <time>1970-01-01T00:50:18.000Z</time>
      </trkpt>
      <trkpt lat="42.744225" lon="-7.856166">
        <ele>635</ele>
        <time>1970-01-01T00:50:19.000Z</time>
      </trkpt>
      <trkpt lat="42.744208" lon="-7.856209">
        <ele>635.1</ele>
        <time>1970-01-01T00:50:20.000Z</time>
      </trkpt>
      <trkpt lat="42.744191" lon="-7.856252">
        <ele>635.3</ele>
        <time>1970-01-01T00:50:21.000Z</time>
      </trkpt>
      <trkpt lat="42.744173" lon="-7.856293">
        <ele>635.5</ele>
        <time>1970-01-01T00:50:22.000Z</time>
      </trkpt>
      <trkpt lat="42.744157" lon="-7.856334">
        <ele>635.7</ele>
        <time>1970-01-01T00:50:23.000Z</time>
      </trkpt>
      <trkpt lat="42.744141" lon="-7.856375">
        <ele>635.9</ele>
        <time>1970-01-01T00:50:24.000Z</time>
      </trkpt>
      <trkpt lat="42.744124" lon="-7.856417">
        <ele>636.1</ele>
        <time>1970-01-01T00:50:25.000Z</time>
      </trkpt>
      <trkpt lat="42.744105" lon="-7.856457">
        <ele>636.3</ele>
        <time>1970-01-01T00:50:26.000Z</time>
      </trkpt>
      <trkpt lat="42.744086" lon="-7.856497">
        <ele>636.5</ele>
        <time>1970-01-01T00:50:27.000Z</time>
      </trkpt>
      <trkpt lat="42.744067" lon="-7.856539">
        <ele>636.6</ele>
        <time>1970-01-01T00:50:28.000Z</time>
      </trkpt>
      <trkpt lat="42.744048" lon="-7.856583">
        <ele>636.8</ele>
        <time>1970-01-01T00:50:29.000Z</time>
      </trkpt>
      <trkpt lat="42.744031" lon="-7.856625">
        <ele>636.9</ele>
        <time>1970-01-01T00:50:30.000Z</time>
      </trkpt>
      <trkpt lat="42.744014" lon="-7.856668">
        <ele>637.1</ele>
        <time>1970-01-01T00:50:31.000Z</time>
      </trkpt>
      <trkpt lat="42.743999" lon="-7.856713">
        <ele>637.3</ele>
        <time>1970-01-01T00:50:32.000Z</time>
      </trkpt>
      <trkpt lat="42.743987" lon="-7.856756">
        <ele>637.4</ele>
        <time>1970-01-01T00:50:33.000Z</time>
      </trkpt>
      <trkpt lat="42.743977" lon="-7.8568">
        <ele>637.6</ele>
        <time>1970-01-01T00:50:34.000Z</time>
      </trkpt>
      <trkpt lat="42.743969" lon="-7.856844">
        <ele>637.8</ele>
        <time>1970-01-01T00:50:35.000Z</time>
      </trkpt>
      <trkpt lat="42.743963" lon="-7.856887">
        <ele>638</ele>
        <time>1970-01-01T00:50:36.000Z</time>
      </trkpt>
      <trkpt lat="42.74396" lon="-7.856929">
        <ele>638.2</ele>
        <time>1970-01-01T00:50:37.000Z</time>
      </trkpt>
      <trkpt lat="42.743959" lon="-7.856972">
        <ele>638.4</ele>
        <time>1970-01-01T00:50:38.000Z</time>
      </trkpt>
      <trkpt lat="42.743958" lon="-7.857013">
        <ele>638.6</ele>
        <time>1970-01-01T00:50:39.000Z</time>
      </trkpt>
      <trkpt lat="42.743957" lon="-7.857051">
        <ele>638.7</ele>
        <time>1970-01-01T00:50:40.000Z</time>
      </trkpt>
      <trkpt lat="42.743955" lon="-7.857087">
        <ele>638.9</ele>
        <time>1970-01-01T00:50:41.000Z</time>
      </trkpt>
      <trkpt lat="42.743952" lon="-7.857122">
        <ele>639.1</ele>
        <time>1970-01-01T00:50:42.000Z</time>
      </trkpt>
      <trkpt lat="42.743948" lon="-7.857159">
        <ele>639.3</ele>
        <time>1970-01-01T00:50:43.000Z</time>
      </trkpt>
      <trkpt lat="42.743944" lon="-7.857197">
        <ele>639.5</ele>
        <time>1970-01-01T00:50:44.000Z</time>
      </trkpt>
      <trkpt lat="42.743939" lon="-7.857237">
        <ele>639.7</ele>
        <time>1970-01-01T00:50:45.000Z</time>
      </trkpt>
      <trkpt lat="42.743933" lon="-7.857277">
        <ele>639.9</ele>
        <time>1970-01-01T00:50:46.000Z</time>
      </trkpt>
      <trkpt lat="42.743927" lon="-7.857318">
        <ele>640.1</ele>
        <time>1970-01-01T00:50:47.000Z</time>
      </trkpt>
      <trkpt lat="42.74392" lon="-7.857358">
        <ele>640.3</ele>
        <time>1970-01-01T00:50:48.000Z</time>
      </trkpt>
      <trkpt lat="42.743911" lon="-7.857398">
        <ele>640.5</ele>
        <time>1970-01-01T00:50:49.000Z</time>
      </trkpt>
      <trkpt lat="42.743903" lon="-7.857438">
        <ele>640.7</ele>
        <time>1970-01-01T00:50:50.000Z</time>
      </trkpt>
      <trkpt lat="42.743893" lon="-7.85748">
        <ele>640.9</ele>
        <time>1970-01-01T00:50:51.000Z</time>
      </trkpt>
      <trkpt lat="42.743883" lon="-7.85752">
        <ele>641.1</ele>
        <time>1970-01-01T00:50:52.000Z</time>
      </trkpt>
      <trkpt lat="42.743873" lon="-7.857561">
        <ele>641.3</ele>
        <time>1970-01-01T00:50:53.000Z</time>
      </trkpt>
      <trkpt lat="42.743863" lon="-7.857602">
        <ele>641.5</ele>
        <time>1970-01-01T00:50:54.000Z</time>
      </trkpt>
      <trkpt lat="42.743853" lon="-7.857643">
        <ele>641.7</ele>
        <time>1970-01-01T00:50:55.000Z</time>
      </trkpt>
      <trkpt lat="42.743843" lon="-7.857682">
        <ele>641.9</ele>
        <time>1970-01-01T00:50:56.000Z</time>
      </trkpt>
      <trkpt lat="42.743834" lon="-7.857719">
        <ele>642.1</ele>
        <time>1970-01-01T00:50:57.000Z</time>
      </trkpt>
      <trkpt lat="42.743825" lon="-7.857755">
        <ele>642.3</ele>
        <time>1970-01-01T00:50:58.000Z</time>
      </trkpt>
      <trkpt lat="42.743816" lon="-7.857789">
        <ele>642.5</ele>
        <time>1970-01-01T00:50:59.000Z</time>
      </trkpt>
      <trkpt lat="42.743806" lon="-7.857823">
        <ele>642.6</ele>
        <time>1970-01-01T00:51:00.000Z</time>
      </trkpt>
      <trkpt lat="42.743792" lon="-7.857859">
        <ele>642.8</ele>
        <time>1970-01-01T00:51:01.000Z</time>
      </trkpt>
      <trkpt lat="42.743779" lon="-7.857896">
        <ele>642.9</ele>
        <time>1970-01-01T00:51:02.000Z</time>
      </trkpt>
      <trkpt lat="42.743766" lon="-7.857932">
        <ele>643.1</ele>
        <time>1970-01-01T00:51:03.000Z</time>
      </trkpt>
      <trkpt lat="42.743754" lon="-7.857968">
        <ele>643.2</ele>
        <time>1970-01-01T00:51:04.000Z</time>
      </trkpt>
      <trkpt lat="42.743744" lon="-7.858003">
        <ele>643.3</ele>
        <time>1970-01-01T00:51:05.000Z</time>
      </trkpt>
      <trkpt lat="42.743735" lon="-7.85804">
        <ele>643.4</ele>
        <time>1970-01-01T00:51:06.000Z</time>
      </trkpt>
      <trkpt lat="42.743723" lon="-7.858072">
        <ele>643.5</ele>
        <time>1970-01-01T00:51:07.000Z</time>
      </trkpt>
      <trkpt lat="42.743711" lon="-7.858104">
        <ele>643.6</ele>
        <time>1970-01-01T00:51:08.000Z</time>
      </trkpt>
      <trkpt lat="42.743699" lon="-7.858139">
        <ele>643.8</ele>
        <time>1970-01-01T00:51:09.000Z</time>
      </trkpt>
      <trkpt lat="42.74369" lon="-7.858177">
        <ele>643.9</ele>
        <time>1970-01-01T00:51:10.000Z</time>
      </trkpt>
      <trkpt lat="42.743682" lon="-7.858217">
        <ele>644</ele>
        <time>1970-01-01T00:51:11.000Z</time>
      </trkpt>
      <trkpt lat="42.743671" lon="-7.858257">
        <ele>644.2</ele>
        <time>1970-01-01T00:51:12.000Z</time>
      </trkpt>
      <trkpt lat="42.74366" lon="-7.858293">
        <ele>644.3</ele>
        <time>1970-01-01T00:51:13.000Z</time>
      </trkpt>
      <trkpt lat="42.743649" lon="-7.858333">
        <ele>644.5</ele>
        <time>1970-01-01T00:51:14.000Z</time>
      </trkpt>
      <trkpt lat="42.743644" lon="-7.858373">
        <ele>644.6</ele>
        <time>1970-01-01T00:51:15.000Z</time>
      </trkpt>
      <trkpt lat="42.743646" lon="-7.858417">
        <ele>644.8</ele>
        <time>1970-01-01T00:51:16.000Z</time>
      </trkpt>
      <trkpt lat="42.743644" lon="-7.858464">
        <ele>644.9</ele>
        <time>1970-01-01T00:51:17.000Z</time>
      </trkpt>
      <trkpt lat="42.743638" lon="-7.858503">
        <ele>645.1</ele>
        <time>1970-01-01T00:51:18.000Z</time>
      </trkpt>
      <trkpt lat="42.743629" lon="-7.858586">
        <ele>645.3</ele>
        <time>1970-01-01T00:51:20.000Z</time>
      </trkpt>
      <trkpt lat="42.743625" lon="-7.858622">
        <ele>645.4</ele>
        <time>1970-01-01T00:51:21.000Z</time>
      </trkpt>
      <trkpt lat="42.743617" lon="-7.858662">
        <ele>645.5</ele>
        <time>1970-01-01T00:51:22.000Z</time>
      </trkpt>
      <trkpt lat="42.743608" lon="-7.858699">
        <ele>645.6</ele>
        <time>1970-01-01T00:51:23.000Z</time>
      </trkpt>
      <trkpt lat="42.743605" lon="-7.85874">
        <ele>645.6</ele>
        <time>1970-01-01T00:51:24.000Z</time>
      </trkpt>
      <trkpt lat="42.743608" lon="-7.858766">
        <ele>645.7</ele>
        <time>1970-01-01T00:51:25.000Z</time>
      </trkpt>
      <trkpt lat="42.743611" lon="-7.858813">
        <ele>645.8</ele>
        <time>1970-01-01T00:51:26.000Z</time>
      </trkpt>
      <trkpt lat="42.743616" lon="-7.858854">
        <ele>645.9</ele>
        <time>1970-01-01T00:51:27.000Z</time>
      </trkpt>
      <trkpt lat="42.743623" lon="-7.8589">
        <ele>646</ele>
        <time>1970-01-01T00:51:28.000Z</time>
      </trkpt>
      <trkpt lat="42.743622" lon="-7.858944">
        <ele>646.1</ele>
        <time>1970-01-01T00:51:29.000Z</time>
      </trkpt>
      <trkpt lat="42.74362" lon="-7.858996">
        <ele>646.3</ele>
        <time>1970-01-01T00:51:30.000Z</time>
      </trkpt>
      <trkpt lat="42.743617" lon="-7.859055">
        <ele>646.4</ele>
        <time>1970-01-01T00:51:31.000Z</time>
      </trkpt>
      <trkpt lat="42.743612" lon="-7.859101">
        <ele>646.6</ele>
        <time>1970-01-01T00:51:32.000Z</time>
      </trkpt>
      <trkpt lat="42.743611" lon="-7.859148">
        <ele>646.7</ele>
        <time>1970-01-01T00:51:33.000Z</time>
      </trkpt>
      <trkpt lat="42.743607" lon="-7.859192">
        <ele>646.8</ele>
        <time>1970-01-01T00:51:34.000Z</time>
      </trkpt>
      <trkpt lat="42.7436" lon="-7.859239">
        <ele>647</ele>
        <time>1970-01-01T00:51:35.000Z</time>
      </trkpt>
      <trkpt lat="42.743595" lon="-7.859285">
        <ele>647.1</ele>
        <time>1970-01-01T00:51:36.000Z</time>
      </trkpt>
      <trkpt lat="42.74359" lon="-7.859327">
        <ele>647.3</ele>
        <time>1970-01-01T00:51:37.000Z</time>
      </trkpt>
      <trkpt lat="42.743582" lon="-7.859362">
        <ele>647.4</ele>
        <time>1970-01-01T00:51:38.000Z</time>
      </trkpt>
      <trkpt lat="42.743574" lon="-7.859402">
        <ele>647.5</ele>
        <time>1970-01-01T00:51:39.000Z</time>
      </trkpt>
      <trkpt lat="42.743567" lon="-7.859444">
        <ele>647.7</ele>
        <time>1970-01-01T00:51:40.000Z</time>
      </trkpt>
      <trkpt lat="42.743559" lon="-7.859485">
        <ele>647.8</ele>
        <time>1970-01-01T00:51:41.000Z</time>
      </trkpt>
      <trkpt lat="42.743552" lon="-7.859528">
        <ele>648</ele>
        <time>1970-01-01T00:51:42.000Z</time>
      </trkpt>
      <trkpt lat="42.743539" lon="-7.859567">
        <ele>648.2</ele>
        <time>1970-01-01T00:51:43.000Z</time>
      </trkpt>
      <trkpt lat="42.743527" lon="-7.859609">
        <ele>648.4</ele>
        <time>1970-01-01T00:51:44.000Z</time>
      </trkpt>
      <trkpt lat="42.743514" lon="-7.859655">
        <ele>648.5</ele>
        <time>1970-01-01T00:51:45.000Z</time>
      </trkpt>
      <trkpt lat="42.743503" lon="-7.859701">
        <ele>648.7</ele>
        <time>1970-01-01T00:51:46.000Z</time>
      </trkpt>
      <trkpt lat="42.743488" lon="-7.859743">
        <ele>648.9</ele>
        <time>1970-01-01T00:51:47.000Z</time>
      </trkpt>
      <trkpt lat="42.74348" lon="-7.859786">
        <ele>649.1</ele>
        <time>1970-01-01T00:51:48.000Z</time>
      </trkpt>
      <trkpt lat="42.743469" lon="-7.859835">
        <ele>649.3</ele>
        <time>1970-01-01T00:51:49.000Z</time>
      </trkpt>
      <trkpt lat="42.743457" lon="-7.859872">
        <ele>649.4</ele>
        <time>1970-01-01T00:51:50.000Z</time>
      </trkpt>
      <trkpt lat="42.743446" lon="-7.85991">
        <ele>649.6</ele>
        <time>1970-01-01T00:51:51.000Z</time>
      </trkpt>
      <trkpt lat="42.743435" lon="-7.859948">
        <ele>649.8</ele>
        <time>1970-01-01T00:51:52.000Z</time>
      </trkpt>
      <trkpt lat="42.743423" lon="-7.859987">
        <ele>649.9</ele>
        <time>1970-01-01T00:51:53.000Z</time>
      </trkpt>
      <trkpt lat="42.74341" lon="-7.860025">
        <ele>650.1</ele>
        <time>1970-01-01T00:51:54.000Z</time>
      </trkpt>
      <trkpt lat="42.743398" lon="-7.860065">
        <ele>650.3</ele>
        <time>1970-01-01T00:51:55.000Z</time>
      </trkpt>
      <trkpt lat="42.743384" lon="-7.860104">
        <ele>650.4</ele>
        <time>1970-01-01T00:51:56.000Z</time>
      </trkpt>
      <trkpt lat="42.743372" lon="-7.860146">
        <ele>650.6</ele>
        <time>1970-01-01T00:51:57.000Z</time>
      </trkpt>
      <trkpt lat="42.743358" lon="-7.860187">
        <ele>650.7</ele>
        <time>1970-01-01T00:51:58.000Z</time>
      </trkpt>
      <trkpt lat="42.743343" lon="-7.860228">
        <ele>650.9</ele>
        <time>1970-01-01T00:51:59.000Z</time>
      </trkpt>
      <trkpt lat="42.743328" lon="-7.860267">
        <ele>651</ele>
        <time>1970-01-01T00:52:00.000Z</time>
      </trkpt>
      <trkpt lat="42.743315" lon="-7.860299">
        <ele>651.2</ele>
        <time>1970-01-01T00:52:01.000Z</time>
      </trkpt>
      <trkpt lat="42.743302" lon="-7.860337">
        <ele>651.3</ele>
        <time>1970-01-01T00:52:02.000Z</time>
      </trkpt>
      <trkpt lat="42.743291" lon="-7.860376">
        <ele>651.4</ele>
        <time>1970-01-01T00:52:03.000Z</time>
      </trkpt>
      <trkpt lat="42.743279" lon="-7.860413">
        <ele>651.6</ele>
        <time>1970-01-01T00:52:04.000Z</time>
      </trkpt>
      <trkpt lat="42.743264" lon="-7.860453">
        <ele>651.7</ele>
        <time>1970-01-01T00:52:05.000Z</time>
      </trkpt>
      <trkpt lat="42.743247" lon="-7.860496">
        <ele>651.8</ele>
        <time>1970-01-01T00:52:06.000Z</time>
      </trkpt>
      <trkpt lat="42.74323" lon="-7.860541">
        <ele>652</ele>
        <time>1970-01-01T00:52:07.000Z</time>
      </trkpt>
      <trkpt lat="42.743211" lon="-7.860586">
        <ele>652.1</ele>
        <time>1970-01-01T00:52:08.000Z</time>
      </trkpt>
      <trkpt lat="42.74319" lon="-7.860635">
        <ele>652.2</ele>
        <time>1970-01-01T00:52:09.000Z</time>
      </trkpt>
      <trkpt lat="42.743169" lon="-7.860687">
        <ele>652.3</ele>
        <time>1970-01-01T00:52:10.000Z</time>
      </trkpt>
      <trkpt lat="42.743149" lon="-7.860738">
        <ele>652.4</ele>
        <time>1970-01-01T00:52:11.000Z</time>
      </trkpt>
      <trkpt lat="42.743125" lon="-7.86079">
        <ele>652.5</ele>
        <time>1970-01-01T00:52:12.000Z</time>
      </trkpt>
      <trkpt lat="42.743104" lon="-7.860841">
        <ele>652.6</ele>
        <time>1970-01-01T00:52:13.000Z</time>
      </trkpt>
      <trkpt lat="42.743081" lon="-7.860893">
        <ele>652.6</ele>
        <time>1970-01-01T00:52:14.000Z</time>
      </trkpt>
      <trkpt lat="42.743057" lon="-7.860943">
        <ele>652.7</ele>
        <time>1970-01-01T00:52:15.000Z</time>
      </trkpt>
      <trkpt lat="42.743033" lon="-7.860994">
        <ele>652.7</ele>
        <time>1970-01-01T00:52:16.000Z</time>
      </trkpt>
      <trkpt lat="42.743009" lon="-7.861045">
        <ele>652.7</ele>
        <time>1970-01-01T00:52:17.000Z</time>
      </trkpt>
      <trkpt lat="42.742985" lon="-7.861097">
        <ele>652.7</ele>
        <time>1970-01-01T00:52:18.000Z</time>
      </trkpt>
      <trkpt lat="42.74296" lon="-7.86115">
        <ele>652.7</ele>
        <time>1970-01-01T00:52:19.000Z</time>
      </trkpt>
      <trkpt lat="42.742936" lon="-7.861196">
        <ele>652.8</ele>
        <time>1970-01-01T00:52:20.000Z</time>
      </trkpt>
      <trkpt lat="42.742909" lon="-7.861241">
        <ele>652.8</ele>
        <time>1970-01-01T00:52:21.000Z</time>
      </trkpt>
      <trkpt lat="42.742885" lon="-7.861289">
        <ele>652.7</ele>
        <time>1970-01-01T00:52:22.000Z</time>
      </trkpt>
      <trkpt lat="42.742862" lon="-7.861335">
        <ele>652.7</ele>
        <time>1970-01-01T00:52:23.000Z</time>
      </trkpt>
      <trkpt lat="42.742842" lon="-7.861383">
        <ele>652.7</ele>
        <time>1970-01-01T00:52:24.000Z</time>
      </trkpt>
      <trkpt lat="42.74282" lon="-7.861436">
        <ele>652.6</ele>
        <time>1970-01-01T00:52:25.000Z</time>
      </trkpt>
      <trkpt lat="42.742797" lon="-7.861486">
        <ele>652.6</ele>
        <time>1970-01-01T00:52:26.000Z</time>
      </trkpt>
      <trkpt lat="42.742774" lon="-7.861536">
        <ele>652.6</ele>
        <time>1970-01-01T00:52:27.000Z</time>
      </trkpt>
      <trkpt lat="42.742751" lon="-7.861581">
        <ele>652.5</ele>
        <time>1970-01-01T00:52:28.000Z</time>
      </trkpt>
      <trkpt lat="42.742729" lon="-7.861623">
        <ele>652.5</ele>
        <time>1970-01-01T00:52:29.000Z</time>
      </trkpt>
      <trkpt lat="42.742708" lon="-7.86167">
        <ele>652.5</ele>
        <time>1970-01-01T00:52:30.000Z</time>
      </trkpt>
      <trkpt lat="42.742689" lon="-7.861721">
        <ele>652.4</ele>
        <time>1970-01-01T00:52:31.000Z</time>
      </trkpt>
      <trkpt lat="42.742672" lon="-7.861775">
        <ele>652.4</ele>
        <time>1970-01-01T00:52:32.000Z</time>
      </trkpt>
      <trkpt lat="42.742654" lon="-7.861825">
        <ele>652.4</ele>
        <time>1970-01-01T00:52:33.000Z</time>
      </trkpt>
      <trkpt lat="42.742635" lon="-7.861872">
        <ele>652.4</ele>
        <time>1970-01-01T00:52:34.000Z</time>
      </trkpt>
      <trkpt lat="42.742613" lon="-7.861918">
        <ele>652.4</ele>
        <time>1970-01-01T00:52:35.000Z</time>
      </trkpt>
      <trkpt lat="42.742593" lon="-7.861965">
        <ele>652.4</ele>
        <time>1970-01-01T00:52:36.000Z</time>
      </trkpt>
      <trkpt lat="42.742575" lon="-7.862007">
        <ele>652.4</ele>
        <time>1970-01-01T00:52:37.000Z</time>
      </trkpt>
      <trkpt lat="42.742558" lon="-7.86205">
        <ele>652.4</ele>
        <time>1970-01-01T00:52:38.000Z</time>
      </trkpt>
      <trkpt lat="42.742541" lon="-7.862092">
        <ele>652.4</ele>
        <time>1970-01-01T00:52:39.000Z</time>
      </trkpt>
      <trkpt lat="42.742525" lon="-7.862138">
        <ele>652.4</ele>
        <time>1970-01-01T00:52:40.000Z</time>
      </trkpt>
      <trkpt lat="42.742508" lon="-7.862184">
        <ele>652.4</ele>
        <time>1970-01-01T00:52:41.000Z</time>
      </trkpt>
      <trkpt lat="42.742489" lon="-7.862231">
        <ele>652.4</ele>
        <time>1970-01-01T00:52:42.000Z</time>
      </trkpt>
      <trkpt lat="42.742469" lon="-7.862279">
        <ele>652.4</ele>
        <time>1970-01-01T00:52:43.000Z</time>
      </trkpt>
      <trkpt lat="42.742447" lon="-7.862327">
        <ele>652.5</ele>
        <time>1970-01-01T00:52:44.000Z</time>
      </trkpt>
      <trkpt lat="42.742427" lon="-7.862375">
        <ele>652.5</ele>
        <time>1970-01-01T00:52:45.000Z</time>
      </trkpt>
      <trkpt lat="42.742406" lon="-7.862424">
        <ele>652.6</ele>
        <time>1970-01-01T00:52:46.000Z</time>
      </trkpt>
      <trkpt lat="42.742385" lon="-7.862472">
        <ele>652.6</ele>
        <time>1970-01-01T00:52:47.000Z</time>
      </trkpt>
      <trkpt lat="42.742363" lon="-7.86252">
        <ele>652.7</ele>
        <time>1970-01-01T00:52:48.000Z</time>
      </trkpt>
      <trkpt lat="42.742343" lon="-7.862568">
        <ele>652.8</ele>
        <time>1970-01-01T00:52:49.000Z</time>
      </trkpt>
      <trkpt lat="42.742323" lon="-7.862615">
        <ele>652.9</ele>
        <time>1970-01-01T00:52:50.000Z</time>
      </trkpt>
      <trkpt lat="42.742303" lon="-7.86266">
        <ele>653</ele>
        <time>1970-01-01T00:52:51.000Z</time>
      </trkpt>
      <trkpt lat="42.742283" lon="-7.862703">
        <ele>653.1</ele>
        <time>1970-01-01T00:52:52.000Z</time>
      </trkpt>
      <trkpt lat="42.742262" lon="-7.862746">
        <ele>653.2</ele>
        <time>1970-01-01T00:52:53.000Z</time>
      </trkpt>
      <trkpt lat="42.742241" lon="-7.862788">
        <ele>653.3</ele>
        <time>1970-01-01T00:52:54.000Z</time>
      </trkpt>
      <trkpt lat="42.742218" lon="-7.862831">
        <ele>653.5</ele>
        <time>1970-01-01T00:52:55.000Z</time>
      </trkpt>
      <trkpt lat="42.742196" lon="-7.862873">
        <ele>653.6</ele>
        <time>1970-01-01T00:52:56.000Z</time>
      </trkpt>
      <trkpt lat="42.742173" lon="-7.862915">
        <ele>653.7</ele>
        <time>1970-01-01T00:52:57.000Z</time>
      </trkpt>
      <trkpt lat="42.742149" lon="-7.862954">
        <ele>653.8</ele>
        <time>1970-01-01T00:52:58.000Z</time>
      </trkpt>
      <trkpt lat="42.742125" lon="-7.862991">
        <ele>653.9</ele>
        <time>1970-01-01T00:52:59.000Z</time>
      </trkpt>
      <trkpt lat="42.742101" lon="-7.863029">
        <ele>654</ele>
        <time>1970-01-01T00:53:00.000Z</time>
      </trkpt>
      <trkpt lat="42.742078" lon="-7.863064">
        <ele>654.1</ele>
        <time>1970-01-01T00:53:01.000Z</time>
      </trkpt>
      <trkpt lat="42.742052" lon="-7.863098">
        <ele>654.3</ele>
        <time>1970-01-01T00:53:02.000Z</time>
      </trkpt>
      <trkpt lat="42.742026" lon="-7.863129">
        <ele>654.4</ele>
        <time>1970-01-01T00:53:03.000Z</time>
      </trkpt>
      <trkpt lat="42.742001" lon="-7.86316">
        <ele>654.6</ele>
        <time>1970-01-01T00:53:04.000Z</time>
      </trkpt>
      <trkpt lat="42.741975" lon="-7.86319">
        <ele>654.7</ele>
        <time>1970-01-01T00:53:05.000Z</time>
      </trkpt>
      <trkpt lat="42.741951" lon="-7.86322">
        <ele>655</ele>
        <time>1970-01-01T00:53:06.000Z</time>
      </trkpt>
      <trkpt lat="42.741926" lon="-7.863247">
        <ele>655</ele>
        <time>1970-01-01T00:53:07.000Z</time>
      </trkpt>
      <trkpt lat="42.741899" lon="-7.863271">
        <ele>655</ele>
        <time>1970-01-01T00:53:08.000Z</time>
      </trkpt>
      <trkpt lat="42.741872" lon="-7.863291">
        <ele>654.9</ele>
        <time>1970-01-01T00:53:09.000Z</time>
      </trkpt>
      <trkpt lat="42.741846" lon="-7.863312">
        <ele>654.9</ele>
        <time>1970-01-01T00:53:10.000Z</time>
      </trkpt>
      <trkpt lat="42.741824" lon="-7.863331">
        <ele>654.9</ele>
        <time>1970-01-01T00:53:11.000Z</time>
      </trkpt>
      <trkpt lat="42.741801" lon="-7.863348">
        <ele>654.9</ele>
        <time>1970-01-01T00:53:12.000Z</time>
      </trkpt>
      <trkpt lat="42.741778" lon="-7.863364">
        <ele>654.8</ele>
        <time>1970-01-01T00:53:13.000Z</time>
      </trkpt>
      <trkpt lat="42.741757" lon="-7.863385">
        <ele>654.8</ele>
        <time>1970-01-01T00:53:14.000Z</time>
      </trkpt>
      <trkpt lat="42.741737" lon="-7.863406">
        <ele>654.8</ele>
        <time>1970-01-01T00:53:15.000Z</time>
      </trkpt>
      <trkpt lat="42.741716" lon="-7.863423">
        <ele>654.8</ele>
        <time>1970-01-01T00:53:16.000Z</time>
      </trkpt>
      <trkpt lat="42.741695" lon="-7.863438">
        <ele>654.8</ele>
        <time>1970-01-01T00:53:17.000Z</time>
      </trkpt>
      <trkpt lat="42.741673" lon="-7.863455">
        <ele>654.8</ele>
        <time>1970-01-01T00:53:18.000Z</time>
      </trkpt>
      <trkpt lat="42.74165" lon="-7.863471">
        <ele>654.8</ele>
        <time>1970-01-01T00:53:19.000Z</time>
      </trkpt>
      <trkpt lat="42.741627" lon="-7.863485">
        <ele>654.8</ele>
        <time>1970-01-01T00:53:20.000Z</time>
      </trkpt>
      <trkpt lat="42.741602" lon="-7.863494">
        <ele>654.9</ele>
        <time>1970-01-01T00:53:21.000Z</time>
      </trkpt>
      <trkpt lat="42.741577" lon="-7.8635">
        <ele>655</ele>
        <time>1970-01-01T00:53:22.000Z</time>
      </trkpt>
      <trkpt lat="42.741553" lon="-7.863505">
        <ele>655.2</ele>
        <time>1970-01-01T00:53:23.000Z</time>
      </trkpt>
      <trkpt lat="42.741531" lon="-7.863513">
        <ele>655.3</ele>
        <time>1970-01-01T00:53:24.000Z</time>
      </trkpt>
      <trkpt lat="42.741509" lon="-7.86352">
        <ele>655.4</ele>
        <time>1970-01-01T00:53:25.000Z</time>
      </trkpt>
      <trkpt lat="42.741487" lon="-7.863526">
        <ele>655.5</ele>
        <time>1970-01-01T00:53:26.000Z</time>
      </trkpt>
      <trkpt lat="42.741465" lon="-7.863528">
        <ele>655.6</ele>
        <time>1970-01-01T00:53:27.000Z</time>
      </trkpt>
      <trkpt lat="42.741442" lon="-7.863528">
        <ele>655.8</ele>
        <time>1970-01-01T00:53:28.000Z</time>
      </trkpt>
      <trkpt lat="42.741417" lon="-7.863525">
        <ele>656.1</ele>
        <time>1970-01-01T00:53:29.000Z</time>
      </trkpt>
      <trkpt lat="42.741393" lon="-7.863525">
        <ele>656.4</ele>
        <time>1970-01-01T00:53:30.000Z</time>
      </trkpt>
      <trkpt lat="42.741371" lon="-7.863524">
        <ele>656.6</ele>
        <time>1970-01-01T00:53:31.000Z</time>
      </trkpt>
      <trkpt lat="42.741349" lon="-7.863525">
        <ele>656.7</ele>
        <time>1970-01-01T00:53:32.000Z</time>
      </trkpt>
      <trkpt lat="42.741326" lon="-7.863526">
        <ele>656.8</ele>
        <time>1970-01-01T00:53:33.000Z</time>
      </trkpt>
      <trkpt lat="42.741305" lon="-7.863526">
        <ele>656.9</ele>
        <time>1970-01-01T00:53:34.000Z</time>
      </trkpt>
      <trkpt lat="42.741283" lon="-7.863524">
        <ele>657.1</ele>
        <time>1970-01-01T00:53:35.000Z</time>
      </trkpt>
      <trkpt lat="42.74126" lon="-7.863523">
        <ele>657.3</ele>
        <time>1970-01-01T00:53:36.000Z</time>
      </trkpt>
      <trkpt lat="42.741237" lon="-7.863523">
        <ele>657.5</ele>
        <time>1970-01-01T00:53:37.000Z</time>
      </trkpt>
      <trkpt lat="42.741215" lon="-7.863525">
        <ele>657.7</ele>
        <time>1970-01-01T00:53:38.000Z</time>
      </trkpt>
      <trkpt lat="42.741192" lon="-7.863526">
        <ele>657.8</ele>
        <time>1970-01-01T00:53:39.000Z</time>
      </trkpt>
      <trkpt lat="42.741169" lon="-7.86353">
        <ele>658</ele>
        <time>1970-01-01T00:53:40.000Z</time>
      </trkpt>
      <trkpt lat="42.741147" lon="-7.863532">
        <ele>658.1</ele>
        <time>1970-01-01T00:53:41.000Z</time>
      </trkpt>
      <trkpt lat="42.741123" lon="-7.863534">
        <ele>658.3</ele>
        <time>1970-01-01T00:53:42.000Z</time>
      </trkpt>
      <trkpt lat="42.741099" lon="-7.86354">
        <ele>658.5</ele>
        <time>1970-01-01T00:53:43.000Z</time>
      </trkpt>
      <trkpt lat="42.741075" lon="-7.863543">
        <ele>658.6</ele>
        <time>1970-01-01T00:53:44.000Z</time>
      </trkpt>
      <trkpt lat="42.741053" lon="-7.863547">
        <ele>658.8</ele>
        <time>1970-01-01T00:53:45.000Z</time>
      </trkpt>
      <trkpt lat="42.741033" lon="-7.863551">
        <ele>659</ele>
        <time>1970-01-01T00:53:46.000Z</time>
      </trkpt>
      <trkpt lat="42.741011" lon="-7.863554">
        <ele>659.1</ele>
        <time>1970-01-01T00:53:47.000Z</time>
      </trkpt>
      <trkpt lat="42.74099" lon="-7.863557">
        <ele>659.2</ele>
        <time>1970-01-01T00:53:48.000Z</time>
      </trkpt>
      <trkpt lat="42.740968" lon="-7.863559">
        <ele>659.4</ele>
        <time>1970-01-01T00:53:49.000Z</time>
      </trkpt>
      <trkpt lat="42.740947" lon="-7.863565">
        <ele>659.6</ele>
        <time>1970-01-01T00:53:50.000Z</time>
      </trkpt>
      <trkpt lat="42.740925" lon="-7.86357">
        <ele>659.9</ele>
        <time>1970-01-01T00:53:51.000Z</time>
      </trkpt>
      <trkpt lat="42.740905" lon="-7.863573">
        <ele>660.1</ele>
        <time>1970-01-01T00:53:52.000Z</time>
      </trkpt>
      <trkpt lat="42.740885" lon="-7.863575">
        <ele>660.3</ele>
        <time>1970-01-01T00:53:53.000Z</time>
      </trkpt>
      <trkpt lat="42.740866" lon="-7.863579">
        <ele>660.4</ele>
        <time>1970-01-01T00:53:54.000Z</time>
      </trkpt>
      <trkpt lat="42.740847" lon="-7.863585">
        <ele>660.6</ele>
        <time>1970-01-01T00:53:55.000Z</time>
      </trkpt>
      <trkpt lat="42.740827" lon="-7.863592">
        <ele>660.8</ele>
        <time>1970-01-01T00:53:56.000Z</time>
      </trkpt>
      <trkpt lat="42.740808" lon="-7.863596">
        <ele>661</ele>
        <time>1970-01-01T00:53:57.000Z</time>
      </trkpt>
      <trkpt lat="42.740788" lon="-7.863598">
        <ele>661.3</ele>
        <time>1970-01-01T00:53:58.000Z</time>
      </trkpt>
      <trkpt lat="42.740768" lon="-7.8636">
        <ele>661.5</ele>
        <time>1970-01-01T00:53:59.000Z</time>
      </trkpt>
      <trkpt lat="42.740748" lon="-7.863597">
        <ele>661.8</ele>
        <time>1970-01-01T00:54:00.000Z</time>
      </trkpt>
      <trkpt lat="42.740728" lon="-7.863589">
        <ele>662.1</ele>
        <time>1970-01-01T00:54:01.000Z</time>
      </trkpt>
      <trkpt lat="42.740709" lon="-7.863586">
        <ele>662.3</ele>
        <time>1970-01-01T00:54:02.000Z</time>
      </trkpt>
      <trkpt lat="42.740689" lon="-7.863584">
        <ele>662.4</ele>
        <time>1970-01-01T00:54:03.000Z</time>
      </trkpt>
      <trkpt lat="42.740669" lon="-7.863582">
        <ele>662.6</ele>
        <time>1970-01-01T00:54:04.000Z</time>
      </trkpt>
      <trkpt lat="42.74065" lon="-7.863583">
        <ele>662.7</ele>
        <time>1970-01-01T00:54:05.000Z</time>
      </trkpt>
      <trkpt lat="42.74063" lon="-7.863585">
        <ele>663</ele>
        <time>1970-01-01T00:54:06.000Z</time>
      </trkpt>
      <trkpt lat="42.740613" lon="-7.863593">
        <ele>663.2</ele>
        <time>1970-01-01T00:54:07.000Z</time>
      </trkpt>
      <trkpt lat="42.740596" lon="-7.863601">
        <ele>663.5</ele>
        <time>1970-01-01T00:54:08.000Z</time>
      </trkpt>
      <trkpt lat="42.740577" lon="-7.863606">
        <ele>663.7</ele>
        <time>1970-01-01T00:54:09.000Z</time>
      </trkpt>
      <trkpt lat="42.740558" lon="-7.863611">
        <ele>664</ele>
        <time>1970-01-01T00:54:10.000Z</time>
      </trkpt>
      <trkpt lat="42.74054" lon="-7.863617">
        <ele>664.2</ele>
        <time>1970-01-01T00:54:11.000Z</time>
      </trkpt>
      <trkpt lat="42.740522" lon="-7.863622">
        <ele>664.4</ele>
        <time>1970-01-01T00:54:12.000Z</time>
      </trkpt>
      <trkpt lat="42.740503" lon="-7.863626">
        <ele>664.5</ele>
        <time>1970-01-01T00:54:13.000Z</time>
      </trkpt>
      <trkpt lat="42.740486" lon="-7.863634">
        <ele>664.7</ele>
        <time>1970-01-01T00:54:14.000Z</time>
      </trkpt>
      <trkpt lat="42.740467" lon="-7.863641">
        <ele>664.9</ele>
        <time>1970-01-01T00:54:15.000Z</time>
      </trkpt>
      <trkpt lat="42.740449" lon="-7.863646">
        <ele>665</ele>
        <time>1970-01-01T00:54:16.000Z</time>
      </trkpt>
      <trkpt lat="42.74043" lon="-7.863652">
        <ele>665.2</ele>
        <time>1970-01-01T00:54:17.000Z</time>
      </trkpt>
      <trkpt lat="42.740411" lon="-7.863658">
        <ele>665.3</ele>
        <time>1970-01-01T00:54:18.000Z</time>
      </trkpt>
      <trkpt lat="42.740392" lon="-7.863664">
        <ele>665.4</ele>
        <time>1970-01-01T00:54:19.000Z</time>
      </trkpt>
      <trkpt lat="42.740375" lon="-7.863672">
        <ele>665.6</ele>
        <time>1970-01-01T00:54:20.000Z</time>
      </trkpt>
      <trkpt lat="42.740358" lon="-7.863681">
        <ele>665.7</ele>
        <time>1970-01-01T00:54:21.000Z</time>
      </trkpt>
      <trkpt lat="42.740343" lon="-7.863693">
        <ele>665.9</ele>
        <time>1970-01-01T00:54:22.000Z</time>
      </trkpt>
      <trkpt lat="42.740325" lon="-7.863703">
        <ele>666.1</ele>
        <time>1970-01-01T00:54:23.000Z</time>
      </trkpt>
      <trkpt lat="42.740308" lon="-7.863713">
        <ele>666.2</ele>
        <time>1970-01-01T00:54:24.000Z</time>
      </trkpt>
      <trkpt lat="42.74029" lon="-7.863721">
        <ele>666.4</ele>
        <time>1970-01-01T00:54:25.000Z</time>
      </trkpt>
      <trkpt lat="42.740274" lon="-7.863727">
        <ele>666.5</ele>
        <time>1970-01-01T00:54:26.000Z</time>
      </trkpt>
      <trkpt lat="42.740257" lon="-7.863733">
        <ele>666.7</ele>
        <time>1970-01-01T00:54:27.000Z</time>
      </trkpt>
      <trkpt lat="42.740242" lon="-7.863744">
        <ele>666.8</ele>
        <time>1970-01-01T00:54:28.000Z</time>
      </trkpt>
      <trkpt lat="42.740224" lon="-7.863756">
        <ele>667</ele>
        <time>1970-01-01T00:54:29.000Z</time>
      </trkpt>
      <trkpt lat="42.740206" lon="-7.863765">
        <ele>667.2</ele>
        <time>1970-01-01T00:54:30.000Z</time>
      </trkpt>
      <trkpt lat="42.740189" lon="-7.863772">
        <ele>667.3</ele>
        <time>1970-01-01T00:54:31.000Z</time>
      </trkpt>
      <trkpt lat="42.74017" lon="-7.863779">
        <ele>667.4</ele>
        <time>1970-01-01T00:54:32.000Z</time>
      </trkpt>
      <trkpt lat="42.740153" lon="-7.863788">
        <ele>667.5</ele>
        <time>1970-01-01T00:54:33.000Z</time>
      </trkpt>
      <trkpt lat="42.740135" lon="-7.863797">
        <ele>667.7</ele>
        <time>1970-01-01T00:54:34.000Z</time>
      </trkpt>
      <trkpt lat="42.740116" lon="-7.863803">
        <ele>667.8</ele>
        <time>1970-01-01T00:54:35.000Z</time>
      </trkpt>
      <trkpt lat="42.740096" lon="-7.863801">
        <ele>667.9</ele>
        <time>1970-01-01T00:54:36.000Z</time>
      </trkpt>
      <trkpt lat="42.740077" lon="-7.863797">
        <ele>668.1</ele>
        <time>1970-01-01T00:54:37.000Z</time>
      </trkpt>
      <trkpt lat="42.740056" lon="-7.863793">
        <ele>668.2</ele>
        <time>1970-01-01T00:54:38.000Z</time>
      </trkpt>
      <trkpt lat="42.740037" lon="-7.863789">
        <ele>668.4</ele>
        <time>1970-01-01T00:54:39.000Z</time>
      </trkpt>
      <trkpt lat="42.740016" lon="-7.863783">
        <ele>668.6</ele>
        <time>1970-01-01T00:54:40.000Z</time>
      </trkpt>
      <trkpt lat="42.739996" lon="-7.863776">
        <ele>668.8</ele>
        <time>1970-01-01T00:54:41.000Z</time>
      </trkpt>
      <trkpt lat="42.739978" lon="-7.863768">
        <ele>669</ele>
        <time>1970-01-01T00:54:42.000Z</time>
      </trkpt>
      <trkpt lat="42.739961" lon="-7.863756">
        <ele>669.1</ele>
        <time>1970-01-01T00:54:43.000Z</time>
      </trkpt>
      <trkpt lat="42.739943" lon="-7.863744">
        <ele>669.3</ele>
        <time>1970-01-01T00:54:44.000Z</time>
      </trkpt>
      <trkpt lat="42.739924" lon="-7.863732">
        <ele>669.4</ele>
        <time>1970-01-01T00:54:45.000Z</time>
      </trkpt>
      <trkpt lat="42.739906" lon="-7.863718">
        <ele>669.6</ele>
        <time>1970-01-01T00:54:46.000Z</time>
      </trkpt>
      <trkpt lat="42.73989" lon="-7.863702">
        <ele>669.7</ele>
        <time>1970-01-01T00:54:47.000Z</time>
      </trkpt>
      <trkpt lat="42.739872" lon="-7.863687">
        <ele>669.9</ele>
        <time>1970-01-01T00:54:48.000Z</time>
      </trkpt>
      <trkpt lat="42.739857" lon="-7.863668">
        <ele>670.1</ele>
        <time>1970-01-01T00:54:49.000Z</time>
      </trkpt>
      <trkpt lat="42.739841" lon="-7.86365">
        <ele>670.3</ele>
        <time>1970-01-01T00:54:50.000Z</time>
      </trkpt>
      <trkpt lat="42.739827" lon="-7.863631">
        <ele>670.5</ele>
        <time>1970-01-01T00:54:51.000Z</time>
      </trkpt>
      <trkpt lat="42.739812" lon="-7.863614">
        <ele>670.6</ele>
        <time>1970-01-01T00:54:52.000Z</time>
      </trkpt>
      <trkpt lat="42.739793" lon="-7.863599">
        <ele>670.8</ele>
        <time>1970-01-01T00:54:53.000Z</time>
      </trkpt>
      <trkpt lat="42.739775" lon="-7.863585">
        <ele>670.9</ele>
        <time>1970-01-01T00:54:54.000Z</time>
      </trkpt>
      <trkpt lat="42.739758" lon="-7.863568">
        <ele>671.1</ele>
        <time>1970-01-01T00:54:55.000Z</time>
      </trkpt>
      <trkpt lat="42.73974" lon="-7.863551">
        <ele>671.3</ele>
        <time>1970-01-01T00:54:56.000Z</time>
      </trkpt>
      <trkpt lat="42.739723" lon="-7.863534">
        <ele>671.5</ele>
        <time>1970-01-01T00:54:57.000Z</time>
      </trkpt>
      <trkpt lat="42.739706" lon="-7.863518">
        <ele>671.7</ele>
        <time>1970-01-01T00:54:58.000Z</time>
      </trkpt>
      <trkpt lat="42.739691" lon="-7.8635">
        <ele>671.9</ele>
        <time>1970-01-01T00:54:59.000Z</time>
      </trkpt>
      <trkpt lat="42.739674" lon="-7.863483">
        <ele>672</ele>
        <time>1970-01-01T00:55:00.000Z</time>
      </trkpt>
      <trkpt lat="42.739656" lon="-7.863467">
        <ele>672.2</ele>
        <time>1970-01-01T00:55:01.000Z</time>
      </trkpt>
      <trkpt lat="42.739636" lon="-7.863453">
        <ele>672.3</ele>
        <time>1970-01-01T00:55:02.000Z</time>
      </trkpt>
      <trkpt lat="42.739617" lon="-7.863437">
        <ele>672.5</ele>
        <time>1970-01-01T00:55:03.000Z</time>
      </trkpt>
      <trkpt lat="42.739599" lon="-7.863418">
        <ele>672.6</ele>
        <time>1970-01-01T00:55:04.000Z</time>
      </trkpt>
      <trkpt lat="42.739583" lon="-7.863397">
        <ele>672.8</ele>
        <time>1970-01-01T00:55:05.000Z</time>
      </trkpt>
      <trkpt lat="42.739569" lon="-7.863375">
        <ele>673</ele>
        <time>1970-01-01T00:55:06.000Z</time>
      </trkpt>
      <trkpt lat="42.739554" lon="-7.863351">
        <ele>673.3</ele>
        <time>1970-01-01T00:55:07.000Z</time>
      </trkpt>
      <trkpt lat="42.739537" lon="-7.863329">
        <ele>673.5</ele>
        <time>1970-01-01T00:55:08.000Z</time>
      </trkpt>
      <trkpt lat="42.73952" lon="-7.863307">
        <ele>673.9</ele>
        <time>1970-01-01T00:55:09.000Z</time>
      </trkpt>
      <trkpt lat="42.739503" lon="-7.863285">
        <ele>674.2</ele>
        <time>1970-01-01T00:55:10.000Z</time>
      </trkpt>
      <trkpt lat="42.739486" lon="-7.863262">
        <ele>674.5</ele>
        <time>1970-01-01T00:55:11.000Z</time>
      </trkpt>
      <trkpt lat="42.73947" lon="-7.863239">
        <ele>674.8</ele>
        <time>1970-01-01T00:55:12.000Z</time>
      </trkpt>
      <trkpt lat="42.739454" lon="-7.863216">
        <ele>675</ele>
        <time>1970-01-01T00:55:13.000Z</time>
      </trkpt>
      <trkpt lat="42.739437" lon="-7.863195">
        <ele>675.2</ele>
        <time>1970-01-01T00:55:14.000Z</time>
      </trkpt>
      <trkpt lat="42.73942" lon="-7.863174">
        <ele>675.4</ele>
        <time>1970-01-01T00:55:15.000Z</time>
      </trkpt>
      <trkpt lat="42.739403" lon="-7.863152">
        <ele>675.7</ele>
        <time>1970-01-01T00:55:16.000Z</time>
      </trkpt>
      <trkpt lat="42.739386" lon="-7.86313">
        <ele>675.9</ele>
        <time>1970-01-01T00:55:17.000Z</time>
      </trkpt>
      <trkpt lat="42.739368" lon="-7.863111">
        <ele>676</ele>
        <time>1970-01-01T00:55:18.000Z</time>
      </trkpt>
      <trkpt lat="42.739348" lon="-7.863094">
        <ele>676.2</ele>
        <time>1970-01-01T00:55:19.000Z</time>
      </trkpt>
      <trkpt lat="42.739333" lon="-7.863072">
        <ele>676.4</ele>
        <time>1970-01-01T00:55:20.000Z</time>
      </trkpt>
      <trkpt lat="42.739319" lon="-7.863049">
        <ele>676.7</ele>
        <time>1970-01-01T00:55:21.000Z</time>
      </trkpt>
      <trkpt lat="42.739305" lon="-7.863025">
        <ele>677</ele>
        <time>1970-01-01T00:55:22.000Z</time>
      </trkpt>
      <trkpt lat="42.739291" lon="-7.863001">
        <ele>677.3</ele>
        <time>1970-01-01T00:55:23.000Z</time>
      </trkpt>
      <trkpt lat="42.739275" lon="-7.862977">
        <ele>677.7</ele>
        <time>1970-01-01T00:55:24.000Z</time>
      </trkpt>
      <trkpt lat="42.73926" lon="-7.862951">
        <ele>677.9</ele>
        <time>1970-01-01T00:55:25.000Z</time>
      </trkpt>
      <trkpt lat="42.739243" lon="-7.862926">
        <ele>678.2</ele>
        <time>1970-01-01T00:55:26.000Z</time>
      </trkpt>
      <trkpt lat="42.739225" lon="-7.8629">
        <ele>678.4</ele>
        <time>1970-01-01T00:55:27.000Z</time>
      </trkpt>
      <trkpt lat="42.739207" lon="-7.862873">
        <ele>678.8</ele>
        <time>1970-01-01T00:55:28.000Z</time>
      </trkpt>
      <trkpt lat="42.739189" lon="-7.862845">
        <ele>679.2</ele>
        <time>1970-01-01T00:55:29.000Z</time>
      </trkpt>
      <trkpt lat="42.739172" lon="-7.862816">
        <ele>679.5</ele>
        <time>1970-01-01T00:55:30.000Z</time>
      </trkpt>
      <trkpt lat="42.739157" lon="-7.862785">
        <ele>679.9</ele>
        <time>1970-01-01T00:55:31.000Z</time>
      </trkpt>
      <trkpt lat="42.739143" lon="-7.862753">
        <ele>680.2</ele>
        <time>1970-01-01T00:55:32.000Z</time>
      </trkpt>
      <trkpt lat="42.739129" lon="-7.862721">
        <ele>680.6</ele>
        <time>1970-01-01T00:55:33.000Z</time>
      </trkpt>
      <trkpt lat="42.739117" lon="-7.862688">
        <ele>680.9</ele>
        <time>1970-01-01T00:55:34.000Z</time>
      </trkpt>
      <trkpt lat="42.739107" lon="-7.862652">
        <ele>681.1</ele>
        <time>1970-01-01T00:55:35.000Z</time>
      </trkpt>
      <trkpt lat="42.739097" lon="-7.862616">
        <ele>681.3</ele>
        <time>1970-01-01T00:55:36.000Z</time>
      </trkpt>
      <trkpt lat="42.739087" lon="-7.862579">
        <ele>681.6</ele>
        <time>1970-01-01T00:55:37.000Z</time>
      </trkpt>
      <trkpt lat="42.739079" lon="-7.862541">
        <ele>681.9</ele>
        <time>1970-01-01T00:55:38.000Z</time>
      </trkpt>
      <trkpt lat="42.739073" lon="-7.862502">
        <ele>682.2</ele>
        <time>1970-01-01T00:55:39.000Z</time>
      </trkpt>
      <trkpt lat="42.739069" lon="-7.862463">
        <ele>682.5</ele>
        <time>1970-01-01T00:55:40.000Z</time>
      </trkpt>
      <trkpt lat="42.739066" lon="-7.862425">
        <ele>682.6</ele>
        <time>1970-01-01T00:55:41.000Z</time>
      </trkpt>
      <trkpt lat="42.739062" lon="-7.862386">
        <ele>682.8</ele>
        <time>1970-01-01T00:55:42.000Z</time>
      </trkpt>
      <trkpt lat="42.739057" lon="-7.862345">
        <ele>683</ele>
        <time>1970-01-01T00:55:43.000Z</time>
      </trkpt>
      <trkpt lat="42.739053" lon="-7.862306">
        <ele>683.2</ele>
        <time>1970-01-01T00:55:44.000Z</time>
      </trkpt>
      <trkpt lat="42.739049" lon="-7.862265">
        <ele>683.5</ele>
        <time>1970-01-01T00:55:45.000Z</time>
      </trkpt>
      <trkpt lat="42.739046" lon="-7.862226">
        <ele>683.7</ele>
        <time>1970-01-01T00:55:46.000Z</time>
      </trkpt>
      <trkpt lat="42.739041" lon="-7.862188">
        <ele>683.8</ele>
        <time>1970-01-01T00:55:47.000Z</time>
      </trkpt>
      <trkpt lat="42.739037" lon="-7.862149">
        <ele>683.9</ele>
        <time>1970-01-01T00:55:48.000Z</time>
      </trkpt>
      <trkpt lat="42.739034" lon="-7.862111">
        <ele>684</ele>
        <time>1970-01-01T00:55:49.000Z</time>
      </trkpt>
      <trkpt lat="42.739032" lon="-7.86207">
        <ele>684.2</ele>
        <time>1970-01-01T00:55:50.000Z</time>
      </trkpt>
      <trkpt lat="42.739027" lon="-7.86203">
        <ele>684.4</ele>
        <time>1970-01-01T00:55:51.000Z</time>
      </trkpt>
      <trkpt lat="42.739023" lon="-7.861989">
        <ele>684.5</ele>
        <time>1970-01-01T00:55:52.000Z</time>
      </trkpt>
      <trkpt lat="42.739021" lon="-7.86195">
        <ele>684.7</ele>
        <time>1970-01-01T00:55:53.000Z</time>
      </trkpt>
      <trkpt lat="42.739019" lon="-7.861911">
        <ele>684.8</ele>
        <time>1970-01-01T00:55:54.000Z</time>
      </trkpt>
      <trkpt lat="42.739016" lon="-7.861872">
        <ele>685</ele>
        <time>1970-01-01T00:55:55.000Z</time>
      </trkpt>
      <trkpt lat="42.739015" lon="-7.861833">
        <ele>685.2</ele>
        <time>1970-01-01T00:55:56.000Z</time>
      </trkpt>
      <trkpt lat="42.739012" lon="-7.861794">
        <ele>685.4</ele>
        <time>1970-01-01T00:55:57.000Z</time>
      </trkpt>
      <trkpt lat="42.739009" lon="-7.861755">
        <ele>685.5</ele>
        <time>1970-01-01T00:55:58.000Z</time>
      </trkpt>
      <trkpt lat="42.739005" lon="-7.861717">
        <ele>685.7</ele>
        <time>1970-01-01T00:55:59.000Z</time>
      </trkpt>
      <trkpt lat="42.739001" lon="-7.861677">
        <ele>685.8</ele>
        <time>1970-01-01T00:56:00.000Z</time>
      </trkpt>
      <trkpt lat="42.738993" lon="-7.861637">
        <ele>685.9</ele>
        <time>1970-01-01T00:56:01.000Z</time>
      </trkpt>
      <trkpt lat="42.738984" lon="-7.861599">
        <ele>686.1</ele>
        <time>1970-01-01T00:56:02.000Z</time>
      </trkpt>
      <trkpt lat="42.738973" lon="-7.861564">
        <ele>686.3</ele>
        <time>1970-01-01T00:56:03.000Z</time>
      </trkpt>
      <trkpt lat="42.738961" lon="-7.86153">
        <ele>686.4</ele>
        <time>1970-01-01T00:56:04.000Z</time>
      </trkpt>
      <trkpt lat="42.738946" lon="-7.861498">
        <ele>686.5</ele>
        <time>1970-01-01T00:56:05.000Z</time>
      </trkpt>
      <trkpt lat="42.738931" lon="-7.86147">
        <ele>686.6</ele>
        <time>1970-01-01T00:56:06.000Z</time>
      </trkpt>
      <trkpt lat="42.738914" lon="-7.861444">
        <ele>686.6</ele>
        <time>1970-01-01T00:56:07.000Z</time>
      </trkpt>
      <trkpt lat="42.738899" lon="-7.86142">
        <ele>686.7</ele>
        <time>1970-01-01T00:56:08.000Z</time>
      </trkpt>
      <trkpt lat="42.738884" lon="-7.861396">
        <ele>686.7</ele>
        <time>1970-01-01T00:56:09.000Z</time>
      </trkpt>
      <trkpt lat="42.73887" lon="-7.861373">
        <ele>686.8</ele>
        <time>1970-01-01T00:56:10.000Z</time>
      </trkpt>
      <trkpt lat="42.738854" lon="-7.861349">
        <ele>686.8</ele>
        <time>1970-01-01T00:56:11.000Z</time>
      </trkpt>
      <trkpt lat="42.738838" lon="-7.86133">
        <ele>686.8</ele>
        <time>1970-01-01T00:56:12.000Z</time>
      </trkpt>
      <trkpt lat="42.738821" lon="-7.861315">
        <ele>686.8</ele>
        <time>1970-01-01T00:56:13.000Z</time>
      </trkpt>
      <trkpt lat="42.738803" lon="-7.861299">
        <ele>686.9</ele>
        <time>1970-01-01T00:56:14.000Z</time>
      </trkpt>
      <trkpt lat="42.738786" lon="-7.86128">
        <ele>686.9</ele>
        <time>1970-01-01T00:56:15.000Z</time>
      </trkpt>
      <trkpt lat="42.738768" lon="-7.861263">
        <ele>686.9</ele>
        <time>1970-01-01T00:56:16.000Z</time>
      </trkpt>
      <trkpt lat="42.738752" lon="-7.861249">
        <ele>686.9</ele>
        <time>1970-01-01T00:56:17.000Z</time>
      </trkpt>
      <trkpt lat="42.738734" lon="-7.861234">
        <ele>686.9</ele>
        <time>1970-01-01T00:56:18.000Z</time>
      </trkpt>
      <trkpt lat="42.738717" lon="-7.861215">
        <ele>686.9</ele>
        <time>1970-01-01T00:56:19.000Z</time>
      </trkpt>
      <trkpt lat="42.738699" lon="-7.861197">
        <ele>686.9</ele>
        <time>1970-01-01T00:56:20.000Z</time>
      </trkpt>
      <trkpt lat="42.73868" lon="-7.861182">
        <ele>687</ele>
        <time>1970-01-01T00:56:21.000Z</time>
      </trkpt>
      <trkpt lat="42.738662" lon="-7.861165">
        <ele>687</ele>
        <time>1970-01-01T00:56:22.000Z</time>
      </trkpt>
      <trkpt lat="42.738645" lon="-7.861151">
        <ele>687</ele>
        <time>1970-01-01T00:56:23.000Z</time>
      </trkpt>
      <trkpt lat="42.738628" lon="-7.861135">
        <ele>687</ele>
        <time>1970-01-01T00:56:24.000Z</time>
      </trkpt>
      <trkpt lat="42.738612" lon="-7.861118">
        <ele>687</ele>
        <time>1970-01-01T00:56:25.000Z</time>
      </trkpt>
      <trkpt lat="42.738595" lon="-7.861103">
        <ele>687</ele>
        <time>1970-01-01T00:56:26.000Z</time>
      </trkpt>
      <trkpt lat="42.738581" lon="-7.86109">
        <ele>687.1</ele>
        <time>1970-01-01T00:56:27.000Z</time>
      </trkpt>
      <trkpt lat="42.738566" lon="-7.861078">
        <ele>687.1</ele>
        <time>1970-01-01T00:56:28.000Z</time>
      </trkpt>
      <trkpt lat="42.738551" lon="-7.861062">
        <ele>687.1</ele>
        <time>1970-01-01T00:56:29.000Z</time>
      </trkpt>
      <trkpt lat="42.738537" lon="-7.861046">
        <ele>687.2</ele>
        <time>1970-01-01T00:56:30.000Z</time>
      </trkpt>
      <trkpt lat="42.738521" lon="-7.861032">
        <ele>687.3</ele>
        <time>1970-01-01T00:56:31.000Z</time>
      </trkpt>
      <trkpt lat="42.738504" lon="-7.861019">
        <ele>687.4</ele>
        <time>1970-01-01T00:56:32.000Z</time>
      </trkpt>
      <trkpt lat="42.738488" lon="-7.861007">
        <ele>687.4</ele>
        <time>1970-01-01T00:56:33.000Z</time>
      </trkpt>
      <trkpt lat="42.738473" lon="-7.860993">
        <ele>687.5</ele>
        <time>1970-01-01T00:56:34.000Z</time>
      </trkpt>
      <trkpt lat="42.738458" lon="-7.860977">
        <ele>687.6</ele>
        <time>1970-01-01T00:56:35.000Z</time>
      </trkpt>
      <trkpt lat="42.738443" lon="-7.86096">
        <ele>687.7</ele>
        <time>1970-01-01T00:56:36.000Z</time>
      </trkpt>
      <trkpt lat="42.738429" lon="-7.860942">
        <ele>687.8</ele>
        <time>1970-01-01T00:56:37.000Z</time>
      </trkpt>
      <trkpt lat="42.738413" lon="-7.860927">
        <ele>687.8</ele>
        <time>1970-01-01T00:56:38.000Z</time>
      </trkpt>
      <trkpt lat="42.738399" lon="-7.860914">
        <ele>687.9</ele>
        <time>1970-01-01T00:56:39.000Z</time>
      </trkpt>
      <trkpt lat="42.738384" lon="-7.860899">
        <ele>688</ele>
        <time>1970-01-01T00:56:40.000Z</time>
      </trkpt>
      <trkpt lat="42.738369" lon="-7.860882">
        <ele>688.1</ele>
        <time>1970-01-01T00:56:41.000Z</time>
      </trkpt>
      <trkpt lat="42.738352" lon="-7.860865">
        <ele>688.3</ele>
        <time>1970-01-01T00:56:42.000Z</time>
      </trkpt>
      <trkpt lat="42.738342" lon="-7.860847">
        <ele>688.4</ele>
        <time>1970-01-01T00:56:43.000Z</time>
      </trkpt>
      <trkpt lat="42.738333" lon="-7.860833">
        <ele>688.5</ele>
        <time>1970-01-01T00:56:44.000Z</time>
      </trkpt>
      <trkpt lat="42.738321" lon="-7.86082">
        <ele>688.6</ele>
        <time>1970-01-01T00:56:45.000Z</time>
      </trkpt>
      <trkpt lat="42.738307" lon="-7.860808">
        <ele>688.7</ele>
        <time>1970-01-01T00:56:46.000Z</time>
      </trkpt>
      <trkpt lat="42.738291" lon="-7.860795">
        <ele>688.8</ele>
        <time>1970-01-01T00:56:47.000Z</time>
      </trkpt>
      <trkpt lat="42.738276" lon="-7.860779">
        <ele>688.9</ele>
        <time>1970-01-01T00:56:48.000Z</time>
      </trkpt>
      <trkpt lat="42.738262" lon="-7.860762">
        <ele>689.2</ele>
        <time>1970-01-01T00:56:49.000Z</time>
      </trkpt>
      <trkpt lat="42.738246" lon="-7.860748">
        <ele>689.3</ele>
        <time>1970-01-01T00:56:50.000Z</time>
      </trkpt>
      <trkpt lat="42.738231" lon="-7.860735">
        <ele>689.5</ele>
        <time>1970-01-01T00:56:51.000Z</time>
      </trkpt>
      <trkpt lat="42.738214" lon="-7.860723">
        <ele>689.6</ele>
        <time>1970-01-01T00:56:52.000Z</time>
      </trkpt>
      <trkpt lat="42.738195" lon="-7.860711">
        <ele>689.9</ele>
        <time>1970-01-01T00:56:53.000Z</time>
      </trkpt>
      <trkpt lat="42.738177" lon="-7.860691">
        <ele>690.1</ele>
        <time>1970-01-01T00:56:54.000Z</time>
      </trkpt>
      <trkpt lat="42.738157" lon="-7.860672">
        <ele>690.5</ele>
        <time>1970-01-01T00:56:55.000Z</time>
      </trkpt>
      <trkpt lat="42.738137" lon="-7.860654">
        <ele>690.7</ele>
        <time>1970-01-01T00:56:56.000Z</time>
      </trkpt>
      <trkpt lat="42.738116" lon="-7.860636">
        <ele>691.1</ele>
        <time>1970-01-01T00:56:57.000Z</time>
      </trkpt>
      <trkpt lat="42.738097" lon="-7.860618">
        <ele>691.4</ele>
        <time>1970-01-01T00:56:58.000Z</time>
      </trkpt>
      <trkpt lat="42.738082" lon="-7.860593">
        <ele>691.7</ele>
        <time>1970-01-01T00:56:59.000Z</time>
      </trkpt>
      <trkpt lat="42.738069" lon="-7.860564">
        <ele>692.1</ele>
        <time>1970-01-01T00:57:00.000Z</time>
      </trkpt>
      <trkpt lat="42.738049" lon="-7.860541">
        <ele>692.3</ele>
        <time>1970-01-01T00:57:01.000Z</time>
      </trkpt>
      <trkpt lat="42.738027" lon="-7.860518">
        <ele>692.7</ele>
        <time>1970-01-01T00:57:02.000Z</time>
      </trkpt>
      <trkpt lat="42.738007" lon="-7.860497">
        <ele>693</ele>
        <time>1970-01-01T00:57:03.000Z</time>
      </trkpt>
      <trkpt lat="42.737987" lon="-7.860472">
        <ele>693.3</ele>
        <time>1970-01-01T00:57:04.000Z</time>
      </trkpt>
      <trkpt lat="42.737962" lon="-7.86045">
        <ele>693.6</ele>
        <time>1970-01-01T00:57:05.000Z</time>
      </trkpt>
      <trkpt lat="42.737936" lon="-7.860425">
        <ele>693.9</ele>
        <time>1970-01-01T00:57:06.000Z</time>
      </trkpt>
      <trkpt lat="42.73791" lon="-7.860401">
        <ele>694.2</ele>
        <time>1970-01-01T00:57:07.000Z</time>
      </trkpt>
      <trkpt lat="42.737887" lon="-7.860375">
        <ele>694.5</ele>
        <time>1970-01-01T00:57:08.000Z</time>
      </trkpt>
      <trkpt lat="42.737863" lon="-7.860352">
        <ele>694.8</ele>
        <time>1970-01-01T00:57:09.000Z</time>
      </trkpt>
      <trkpt lat="42.737839" lon="-7.860322">
        <ele>695.1</ele>
        <time>1970-01-01T00:57:10.000Z</time>
      </trkpt>
      <trkpt lat="42.737817" lon="-7.860289">
        <ele>695.4</ele>
        <time>1970-01-01T00:57:11.000Z</time>
      </trkpt>
      <trkpt lat="42.737794" lon="-7.860255">
        <ele>695.7</ele>
        <time>1970-01-01T00:57:12.000Z</time>
      </trkpt>
      <trkpt lat="42.737765" lon="-7.86022">
        <ele>696</ele>
        <time>1970-01-01T00:57:13.000Z</time>
      </trkpt>
      <trkpt lat="42.737738" lon="-7.860184">
        <ele>696.4</ele>
        <time>1970-01-01T00:57:14.000Z</time>
      </trkpt>
      <trkpt lat="42.737709" lon="-7.860149">
        <ele>696.8</ele>
        <time>1970-01-01T00:57:15.000Z</time>
      </trkpt>
      <trkpt lat="42.737677" lon="-7.860113">
        <ele>697.2</ele>
        <time>1970-01-01T00:57:16.000Z</time>
      </trkpt>
      <trkpt lat="42.737646" lon="-7.860083">
        <ele>697.6</ele>
        <time>1970-01-01T00:57:17.000Z</time>
      </trkpt>
      <trkpt lat="42.737615" lon="-7.860051">
        <ele>698</ele>
        <time>1970-01-01T00:57:18.000Z</time>
      </trkpt>
      <trkpt lat="42.737588" lon="-7.860021">
        <ele>698.4</ele>
        <time>1970-01-01T00:57:19.000Z</time>
      </trkpt>
      <trkpt lat="42.737556" lon="-7.85999">
        <ele>698.8</ele>
        <time>1970-01-01T00:57:20.000Z</time>
      </trkpt>
      <trkpt lat="42.737524" lon="-7.859965">
        <ele>699.2</ele>
        <time>1970-01-01T00:57:21.000Z</time>
      </trkpt>
      <trkpt lat="42.737492" lon="-7.859942">
        <ele>699.5</ele>
        <time>1970-01-01T00:57:22.000Z</time>
      </trkpt>
      <trkpt lat="42.737458" lon="-7.859924">
        <ele>700</ele>
        <time>1970-01-01T00:57:23.000Z</time>
      </trkpt>
      <trkpt lat="42.737425" lon="-7.859906">
        <ele>700.4</ele>
        <time>1970-01-01T00:57:24.000Z</time>
      </trkpt>
      <trkpt lat="42.737391" lon="-7.859891">
        <ele>700.8</ele>
        <time>1970-01-01T00:57:25.000Z</time>
      </trkpt>
      <trkpt lat="42.737357" lon="-7.859876">
        <ele>701.2</ele>
        <time>1970-01-01T00:57:26.000Z</time>
      </trkpt>
      <trkpt lat="42.737319" lon="-7.859861">
        <ele>701.6</ele>
        <time>1970-01-01T00:57:27.000Z</time>
      </trkpt>
      <trkpt lat="42.73728" lon="-7.859848">
        <ele>701.8</ele>
        <time>1970-01-01T00:57:28.000Z</time>
      </trkpt>
      <trkpt lat="42.737241" lon="-7.859836">
        <ele>701.9</ele>
        <time>1970-01-01T00:57:29.000Z</time>
      </trkpt>
      <trkpt lat="42.737202" lon="-7.859825">
        <ele>702.1</ele>
        <time>1970-01-01T00:57:30.000Z</time>
      </trkpt>
      <trkpt lat="42.737162" lon="-7.859811">
        <ele>702.1</ele>
        <time>1970-01-01T00:57:31.000Z</time>
      </trkpt>
      <trkpt lat="42.737122" lon="-7.859805">
        <ele>702.2</ele>
        <time>1970-01-01T00:57:32.000Z</time>
      </trkpt>
      <trkpt lat="42.737082" lon="-7.859797">
        <ele>702.3</ele>
        <time>1970-01-01T00:57:33.000Z</time>
      </trkpt>
      <trkpt lat="42.737044" lon="-7.859794">
        <ele>702.4</ele>
        <time>1970-01-01T00:57:34.000Z</time>
      </trkpt>
      <trkpt lat="42.737007" lon="-7.859796">
        <ele>702.4</ele>
        <time>1970-01-01T00:57:35.000Z</time>
      </trkpt>
      <trkpt lat="42.736971" lon="-7.859805">
        <ele>702.4</ele>
        <time>1970-01-01T00:57:36.000Z</time>
      </trkpt>
      <trkpt lat="42.736935" lon="-7.859813">
        <ele>702.4</ele>
        <time>1970-01-01T00:57:37.000Z</time>
      </trkpt>
      <trkpt lat="42.736899" lon="-7.85982">
        <ele>702.5</ele>
        <time>1970-01-01T00:57:38.000Z</time>
      </trkpt>
      <trkpt lat="42.736864" lon="-7.859832">
        <ele>702.5</ele>
        <time>1970-01-01T00:57:39.000Z</time>
      </trkpt>
      <trkpt lat="42.736831" lon="-7.859845">
        <ele>702.5</ele>
        <time>1970-01-01T00:57:40.000Z</time>
      </trkpt>
      <trkpt lat="42.736797" lon="-7.859857">
        <ele>702.6</ele>
        <time>1970-01-01T00:57:41.000Z</time>
      </trkpt>
      <trkpt lat="42.736765" lon="-7.859869">
        <ele>702.6</ele>
        <time>1970-01-01T00:57:42.000Z</time>
      </trkpt>
      <trkpt lat="42.736735" lon="-7.859883">
        <ele>702.6</ele>
        <time>1970-01-01T00:57:43.000Z</time>
      </trkpt>
      <trkpt lat="42.736708" lon="-7.859899">
        <ele>702.7</ele>
        <time>1970-01-01T00:57:44.000Z</time>
      </trkpt>
      <trkpt lat="42.736679" lon="-7.859913">
        <ele>702.7</ele>
        <time>1970-01-01T00:57:45.000Z</time>
      </trkpt>
      <trkpt lat="42.736651" lon="-7.859928">
        <ele>702.7</ele>
        <time>1970-01-01T00:57:46.000Z</time>
      </trkpt>
      <trkpt lat="42.736625" lon="-7.859941">
        <ele>702.8</ele>
        <time>1970-01-01T00:57:47.000Z</time>
      </trkpt>
      <trkpt lat="42.736598" lon="-7.859956">
        <ele>702.9</ele>
        <time>1970-01-01T00:57:48.000Z</time>
      </trkpt>
      <trkpt lat="42.736571" lon="-7.859973">
        <ele>703</ele>
        <time>1970-01-01T00:57:49.000Z</time>
      </trkpt>
      <trkpt lat="42.736544" lon="-7.85999">
        <ele>703.1</ele>
        <time>1970-01-01T00:57:50.000Z</time>
      </trkpt>
      <trkpt lat="42.736514" lon="-7.860008">
        <ele>703.2</ele>
        <time>1970-01-01T00:57:51.000Z</time>
      </trkpt>
      <trkpt lat="42.736484" lon="-7.860023">
        <ele>703.4</ele>
        <time>1970-01-01T00:57:52.000Z</time>
      </trkpt>
      <trkpt lat="42.736453" lon="-7.860039">
        <ele>703.6</ele>
        <time>1970-01-01T00:57:53.000Z</time>
      </trkpt>
      <trkpt lat="42.736421" lon="-7.860055">
        <ele>703.8</ele>
        <time>1970-01-01T00:57:54.000Z</time>
      </trkpt>
      <trkpt lat="42.736391" lon="-7.86007">
        <ele>704</ele>
        <time>1970-01-01T00:57:55.000Z</time>
      </trkpt>
      <trkpt lat="42.736362" lon="-7.860086">
        <ele>704.3</ele>
        <time>1970-01-01T00:57:56.000Z</time>
      </trkpt>
      <trkpt lat="42.736334" lon="-7.860103">
        <ele>704.5</ele>
        <time>1970-01-01T00:57:57.000Z</time>
      </trkpt>
      <trkpt lat="42.736307" lon="-7.860119">
        <ele>704.7</ele>
        <time>1970-01-01T00:57:58.000Z</time>
      </trkpt>
      <trkpt lat="42.736281" lon="-7.860134">
        <ele>704.9</ele>
        <time>1970-01-01T00:57:59.000Z</time>
      </trkpt>
      <trkpt lat="42.736255" lon="-7.86015">
        <ele>705.1</ele>
        <time>1970-01-01T00:58:00.000Z</time>
      </trkpt>
      <trkpt lat="42.736227" lon="-7.860167">
        <ele>705.3</ele>
        <time>1970-01-01T00:58:01.000Z</time>
      </trkpt>
      <trkpt lat="42.736198" lon="-7.860184">
        <ele>705.5</ele>
        <time>1970-01-01T00:58:02.000Z</time>
      </trkpt>
      <trkpt lat="42.736171" lon="-7.860201">
        <ele>705.7</ele>
        <time>1970-01-01T00:58:03.000Z</time>
      </trkpt>
      <trkpt lat="42.736145" lon="-7.860219">
        <ele>705.8</ele>
        <time>1970-01-01T00:58:04.000Z</time>
      </trkpt>
      <trkpt lat="42.736119" lon="-7.860236">
        <ele>705.9</ele>
        <time>1970-01-01T00:58:05.000Z</time>
      </trkpt>
      <trkpt lat="42.736094" lon="-7.860253">
        <ele>706</ele>
        <time>1970-01-01T00:58:06.000Z</time>
      </trkpt>
      <trkpt lat="42.736065" lon="-7.860266">
        <ele>706.2</ele>
        <time>1970-01-01T00:58:07.000Z</time>
      </trkpt>
      <trkpt lat="42.736037" lon="-7.860281">
        <ele>706.3</ele>
        <time>1970-01-01T00:58:08.000Z</time>
      </trkpt>
      <trkpt lat="42.736011" lon="-7.860294">
        <ele>706.4</ele>
        <time>1970-01-01T00:58:09.000Z</time>
      </trkpt>
      <trkpt lat="42.735984" lon="-7.860307">
        <ele>706.5</ele>
        <time>1970-01-01T00:58:10.000Z</time>
      </trkpt>
      <trkpt lat="42.735959" lon="-7.86032">
        <ele>706.6</ele>
        <time>1970-01-01T00:58:11.000Z</time>
      </trkpt>
      <trkpt lat="42.735935" lon="-7.860333">
        <ele>706.7</ele>
        <time>1970-01-01T00:58:12.000Z</time>
      </trkpt>
      <trkpt lat="42.73591" lon="-7.860345">
        <ele>706.9</ele>
        <time>1970-01-01T00:58:13.000Z</time>
      </trkpt>
      <trkpt lat="42.735887" lon="-7.860359">
        <ele>707</ele>
        <time>1970-01-01T00:58:14.000Z</time>
      </trkpt>
      <trkpt lat="42.735862" lon="-7.860372">
        <ele>707.2</ele>
        <time>1970-01-01T00:58:15.000Z</time>
      </trkpt>
      <trkpt lat="42.735836" lon="-7.860381">
        <ele>707.3</ele>
        <time>1970-01-01T00:58:16.000Z</time>
      </trkpt>
      <trkpt lat="42.735813" lon="-7.860391">
        <ele>707.5</ele>
        <time>1970-01-01T00:58:17.000Z</time>
      </trkpt>
      <trkpt lat="42.735791" lon="-7.860404">
        <ele>707.7</ele>
        <time>1970-01-01T00:58:18.000Z</time>
      </trkpt>
      <trkpt lat="42.73577" lon="-7.860419">
        <ele>707.9</ele>
        <time>1970-01-01T00:58:19.000Z</time>
      </trkpt>
      <trkpt lat="42.735749" lon="-7.860432">
        <ele>708.1</ele>
        <time>1970-01-01T00:58:20.000Z</time>
      </trkpt>
      <trkpt lat="42.735728" lon="-7.860443">
        <ele>708.2</ele>
        <time>1970-01-01T00:58:21.000Z</time>
      </trkpt>
      <trkpt lat="42.735706" lon="-7.860457">
        <ele>708.4</ele>
        <time>1970-01-01T00:58:22.000Z</time>
      </trkpt>
      <trkpt lat="42.735682" lon="-7.860474">
        <ele>708.6</ele>
        <time>1970-01-01T00:58:23.000Z</time>
      </trkpt>
      <trkpt lat="42.735659" lon="-7.860488">
        <ele>708.8</ele>
        <time>1970-01-01T00:58:24.000Z</time>
      </trkpt>
      <trkpt lat="42.735636" lon="-7.860502">
        <ele>709</ele>
        <time>1970-01-01T00:58:25.000Z</time>
      </trkpt>
      <trkpt lat="42.735616" lon="-7.860515">
        <ele>709.1</ele>
        <time>1970-01-01T00:58:26.000Z</time>
      </trkpt>
      <trkpt lat="42.735595" lon="-7.860529">
        <ele>709.3</ele>
        <time>1970-01-01T00:58:27.000Z</time>
      </trkpt>
      <trkpt lat="42.735574" lon="-7.860542">
        <ele>709.4</ele>
        <time>1970-01-01T00:58:28.000Z</time>
      </trkpt>
      <trkpt lat="42.735553" lon="-7.860557">
        <ele>709.5</ele>
        <time>1970-01-01T00:58:29.000Z</time>
      </trkpt>
      <trkpt lat="42.73553" lon="-7.86057">
        <ele>709.6</ele>
        <time>1970-01-01T00:58:30.000Z</time>
      </trkpt>
      <trkpt lat="42.735507" lon="-7.860582">
        <ele>709.8</ele>
        <time>1970-01-01T00:58:31.000Z</time>
      </trkpt>
      <trkpt lat="42.735486" lon="-7.860596">
        <ele>709.9</ele>
        <time>1970-01-01T00:58:32.000Z</time>
      </trkpt>
      <trkpt lat="42.735466" lon="-7.860609">
        <ele>710</ele>
        <time>1970-01-01T00:58:33.000Z</time>
      </trkpt>
      <trkpt lat="42.735446" lon="-7.860623">
        <ele>710.2</ele>
        <time>1970-01-01T00:58:34.000Z</time>
      </trkpt>
      <trkpt lat="42.735425" lon="-7.860637">
        <ele>710.3</ele>
        <time>1970-01-01T00:58:35.000Z</time>
      </trkpt>
      <trkpt lat="42.735402" lon="-7.860645">
        <ele>710.4</ele>
        <time>1970-01-01T00:58:36.000Z</time>
      </trkpt>
      <trkpt lat="42.735382" lon="-7.860655">
        <ele>710.5</ele>
        <time>1970-01-01T00:58:37.000Z</time>
      </trkpt>
      <trkpt lat="42.73536" lon="-7.860662">
        <ele>710.6</ele>
        <time>1970-01-01T00:58:38.000Z</time>
      </trkpt>
      <trkpt lat="42.735336" lon="-7.860666">
        <ele>710.7</ele>
        <time>1970-01-01T00:58:39.000Z</time>
      </trkpt>
      <trkpt lat="42.735315" lon="-7.860675">
        <ele>710.7</ele>
        <time>1970-01-01T00:58:40.000Z</time>
      </trkpt>
      <trkpt lat="42.735292" lon="-7.860683">
        <ele>710.8</ele>
        <time>1970-01-01T00:58:41.000Z</time>
      </trkpt>
      <trkpt lat="42.735267" lon="-7.86069">
        <ele>710.9</ele>
        <time>1970-01-01T00:58:42.000Z</time>
      </trkpt>
      <trkpt lat="42.735245" lon="-7.8607">
        <ele>711.1</ele>
        <time>1970-01-01T00:58:43.000Z</time>
      </trkpt>
      <trkpt lat="42.735221" lon="-7.860709">
        <ele>711.2</ele>
        <time>1970-01-01T00:58:44.000Z</time>
      </trkpt>
      <trkpt lat="42.735198" lon="-7.86072">
        <ele>711.4</ele>
        <time>1970-01-01T00:58:45.000Z</time>
      </trkpt>
      <trkpt lat="42.735175" lon="-7.860728">
        <ele>711.5</ele>
        <time>1970-01-01T00:58:46.000Z</time>
      </trkpt>
      <trkpt lat="42.735151" lon="-7.860733">
        <ele>711.7</ele>
        <time>1970-01-01T00:58:47.000Z</time>
      </trkpt>
      <trkpt lat="42.735125" lon="-7.860738">
        <ele>711.8</ele>
        <time>1970-01-01T00:58:48.000Z</time>
      </trkpt>
      <trkpt lat="42.735102" lon="-7.860745">
        <ele>712</ele>
        <time>1970-01-01T00:58:49.000Z</time>
      </trkpt>
      <trkpt lat="42.735078" lon="-7.860752">
        <ele>712.1</ele>
        <time>1970-01-01T00:58:50.000Z</time>
      </trkpt>
      <trkpt lat="42.735051" lon="-7.86076">
        <ele>712.3</ele>
        <time>1970-01-01T00:58:51.000Z</time>
      </trkpt>
      <trkpt lat="42.735025" lon="-7.860768">
        <ele>712.5</ele>
        <time>1970-01-01T00:58:52.000Z</time>
      </trkpt>
      <trkpt lat="42.734999" lon="-7.860776">
        <ele>712.6</ele>
        <time>1970-01-01T00:58:53.000Z</time>
      </trkpt>
      <trkpt lat="42.734973" lon="-7.860783">
        <ele>712.7</ele>
        <time>1970-01-01T00:58:54.000Z</time>
      </trkpt>
      <trkpt lat="42.734946" lon="-7.86079">
        <ele>712.9</ele>
        <time>1970-01-01T00:58:55.000Z</time>
      </trkpt>
      <trkpt lat="42.73492" lon="-7.860798">
        <ele>713</ele>
        <time>1970-01-01T00:58:56.000Z</time>
      </trkpt>
      <trkpt lat="42.734893" lon="-7.860805">
        <ele>713.1</ele>
        <time>1970-01-01T00:58:57.000Z</time>
      </trkpt>
      <trkpt lat="42.734865" lon="-7.860813">
        <ele>713.3</ele>
        <time>1970-01-01T00:58:58.000Z</time>
      </trkpt>
      <trkpt lat="42.734836" lon="-7.860817">
        <ele>713.4</ele>
        <time>1970-01-01T00:58:59.000Z</time>
      </trkpt>
      <trkpt lat="42.734809" lon="-7.860821">
        <ele>713.6</ele>
        <time>1970-01-01T00:59:00.000Z</time>
      </trkpt>
      <trkpt lat="42.734782" lon="-7.860825">
        <ele>713.7</ele>
        <time>1970-01-01T00:59:01.000Z</time>
      </trkpt>
      <trkpt lat="42.734756" lon="-7.860829">
        <ele>713.9</ele>
        <time>1970-01-01T00:59:02.000Z</time>
      </trkpt>
      <trkpt lat="42.734731" lon="-7.860834">
        <ele>713.9</ele>
        <time>1970-01-01T00:59:03.000Z</time>
      </trkpt>
      <trkpt lat="42.734706" lon="-7.860842">
        <ele>714</ele>
        <time>1970-01-01T00:59:04.000Z</time>
      </trkpt>
      <trkpt lat="42.734681" lon="-7.860849">
        <ele>714.1</ele>
        <time>1970-01-01T00:59:05.000Z</time>
      </trkpt>
      <trkpt lat="42.734658" lon="-7.860857">
        <ele>714.1</ele>
        <time>1970-01-01T00:59:06.000Z</time>
      </trkpt>
      <trkpt lat="42.734632" lon="-7.860865">
        <ele>714.2</ele>
        <time>1970-01-01T00:59:07.000Z</time>
      </trkpt>
      <trkpt lat="42.734606" lon="-7.860873">
        <ele>714.3</ele>
        <time>1970-01-01T00:59:08.000Z</time>
      </trkpt>
      <trkpt lat="42.734581" lon="-7.860879">
        <ele>714.4</ele>
        <time>1970-01-01T00:59:09.000Z</time>
      </trkpt>
      <trkpt lat="42.734555" lon="-7.860885">
        <ele>714.5</ele>
        <time>1970-01-01T00:59:10.000Z</time>
      </trkpt>
      <trkpt lat="42.73453" lon="-7.860892">
        <ele>714.6</ele>
        <time>1970-01-01T00:59:11.000Z</time>
      </trkpt>
      <trkpt lat="42.734504" lon="-7.860898">
        <ele>714.7</ele>
        <time>1970-01-01T00:59:12.000Z</time>
      </trkpt>
      <trkpt lat="42.734479" lon="-7.860903">
        <ele>714.8</ele>
        <time>1970-01-01T00:59:13.000Z</time>
      </trkpt>
      <trkpt lat="42.734454" lon="-7.860909">
        <ele>714.9</ele>
        <time>1970-01-01T00:59:14.000Z</time>
      </trkpt>
      <trkpt lat="42.734431" lon="-7.860918">
        <ele>714.9</ele>
        <time>1970-01-01T00:59:15.000Z</time>
      </trkpt>
      <trkpt lat="42.734407" lon="-7.860927">
        <ele>715.1</ele>
        <time>1970-01-01T00:59:16.000Z</time>
      </trkpt>
      <trkpt lat="42.734383" lon="-7.860935">
        <ele>715.2</ele>
        <time>1970-01-01T00:59:17.000Z</time>
      </trkpt>
      <trkpt lat="42.73436" lon="-7.860943">
        <ele>715.4</ele>
        <time>1970-01-01T00:59:18.000Z</time>
      </trkpt>
      <trkpt lat="42.734335" lon="-7.860948">
        <ele>715.5</ele>
        <time>1970-01-01T00:59:19.000Z</time>
      </trkpt>
      <trkpt lat="42.734311" lon="-7.860952">
        <ele>715.6</ele>
        <time>1970-01-01T00:59:20.000Z</time>
      </trkpt>
      <trkpt lat="42.734289" lon="-7.860957">
        <ele>715.7</ele>
        <time>1970-01-01T00:59:21.000Z</time>
      </trkpt>
      <trkpt lat="42.734267" lon="-7.860965">
        <ele>715.8</ele>
        <time>1970-01-01T00:59:22.000Z</time>
      </trkpt>
      <trkpt lat="42.734245" lon="-7.860972">
        <ele>715.8</ele>
        <time>1970-01-01T00:59:23.000Z</time>
      </trkpt>
      <trkpt lat="42.734223" lon="-7.860978">
        <ele>715.9</ele>
        <time>1970-01-01T00:59:24.000Z</time>
      </trkpt>
      <trkpt lat="42.734202" lon="-7.860984">
        <ele>716</ele>
        <time>1970-01-01T00:59:25.000Z</time>
      </trkpt>
      <trkpt lat="42.734181" lon="-7.860989">
        <ele>716.1</ele>
        <time>1970-01-01T00:59:26.000Z</time>
      </trkpt>
      <trkpt lat="42.73416" lon="-7.860993">
        <ele>716.2</ele>
        <time>1970-01-01T00:59:27.000Z</time>
      </trkpt>
      <trkpt lat="42.734138" lon="-7.860996">
        <ele>716.3</ele>
        <time>1970-01-01T00:59:28.000Z</time>
      </trkpt>
      <trkpt lat="42.734117" lon="-7.861">
        <ele>716.4</ele>
        <time>1970-01-01T00:59:29.000Z</time>
      </trkpt>
      <trkpt lat="42.734096" lon="-7.861005">
        <ele>716.5</ele>
        <time>1970-01-01T00:59:30.000Z</time>
      </trkpt>
      <trkpt lat="42.734076" lon="-7.861013">
        <ele>716.6</ele>
        <time>1970-01-01T00:59:31.000Z</time>
      </trkpt>
      <trkpt lat="42.734056" lon="-7.86102">
        <ele>716.7</ele>
        <time>1970-01-01T00:59:32.000Z</time>
      </trkpt>
      <trkpt lat="42.734037" lon="-7.861025">
        <ele>716.8</ele>
        <time>1970-01-01T00:59:33.000Z</time>
      </trkpt>
      <trkpt lat="42.734018" lon="-7.861029">
        <ele>716.9</ele>
        <time>1970-01-01T00:59:34.000Z</time>
      </trkpt>
      <trkpt lat="42.733997" lon="-7.861035">
        <ele>717</ele>
        <time>1970-01-01T00:59:35.000Z</time>
      </trkpt>
      <trkpt lat="42.733977" lon="-7.861041">
        <ele>717.1</ele>
        <time>1970-01-01T00:59:36.000Z</time>
      </trkpt>
      <trkpt lat="42.733956" lon="-7.861045">
        <ele>717.3</ele>
        <time>1970-01-01T00:59:37.000Z</time>
      </trkpt>
      <trkpt lat="42.733935" lon="-7.861049">
        <ele>717.5</ele>
        <time>1970-01-01T00:59:38.000Z</time>
      </trkpt>
      <trkpt lat="42.733915" lon="-7.861054">
        <ele>717.7</ele>
        <time>1970-01-01T00:59:39.000Z</time>
      </trkpt>
      <trkpt lat="42.733894" lon="-7.861058">
        <ele>717.8</ele>
        <time>1970-01-01T00:59:40.000Z</time>
      </trkpt>
      <trkpt lat="42.733873" lon="-7.861063">
        <ele>718</ele>
        <time>1970-01-01T00:59:41.000Z</time>
      </trkpt>
      <trkpt lat="42.733854" lon="-7.861066">
        <ele>718.1</ele>
        <time>1970-01-01T00:59:42.000Z</time>
      </trkpt>
      <trkpt lat="42.733835" lon="-7.861067">
        <ele>718.2</ele>
        <time>1970-01-01T00:59:43.000Z</time>
      </trkpt>
      <trkpt lat="42.733817" lon="-7.861069">
        <ele>718.3</ele>
        <time>1970-01-01T00:59:44.000Z</time>
      </trkpt>
      <trkpt lat="42.733799" lon="-7.861068">
        <ele>718.4</ele>
        <time>1970-01-01T00:59:45.000Z</time>
      </trkpt>
      <trkpt lat="42.733779" lon="-7.861069">
        <ele>718.6</ele>
        <time>1970-01-01T00:59:46.000Z</time>
      </trkpt>
      <trkpt lat="42.73376" lon="-7.86107">
        <ele>718.7</ele>
        <time>1970-01-01T00:59:47.000Z</time>
      </trkpt>
      <trkpt lat="42.73374" lon="-7.861073">
        <ele>718.9</ele>
        <time>1970-01-01T00:59:48.000Z</time>
      </trkpt>
      <trkpt lat="42.73372" lon="-7.861076">
        <ele>719</ele>
        <time>1970-01-01T00:59:49.000Z</time>
      </trkpt>
      <trkpt lat="42.733701" lon="-7.861076">
        <ele>719.1</ele>
        <time>1970-01-01T00:59:50.000Z</time>
      </trkpt>
      <trkpt lat="42.733681" lon="-7.861076">
        <ele>719.2</ele>
        <time>1970-01-01T00:59:51.000Z</time>
      </trkpt>
      <trkpt lat="42.733662" lon="-7.861077">
        <ele>719.4</ele>
        <time>1970-01-01T00:59:52.000Z</time>
      </trkpt>
      <trkpt lat="42.733642" lon="-7.86108">
        <ele>719.5</ele>
        <time>1970-01-01T00:59:53.000Z</time>
      </trkpt>
      <trkpt lat="42.733621" lon="-7.861081">
        <ele>719.6</ele>
        <time>1970-01-01T00:59:54.000Z</time>
      </trkpt>
      <trkpt lat="42.7336" lon="-7.861079">
        <ele>719.8</ele>
        <time>1970-01-01T00:59:55.000Z</time>
      </trkpt>
      <trkpt lat="42.733581" lon="-7.861078">
        <ele>719.9</ele>
        <time>1970-01-01T00:59:56.000Z</time>
      </trkpt>
      <trkpt lat="42.733562" lon="-7.86108">
        <ele>720.1</ele>
        <time>1970-01-01T00:59:57.000Z</time>
      </trkpt>
      <trkpt lat="42.733544" lon="-7.86108">
        <ele>720.2</ele>
        <time>1970-01-01T00:59:58.000Z</time>
      </trkpt>
      <trkpt lat="42.733526" lon="-7.861079">
        <ele>720.3</ele>
        <time>1970-01-01T00:59:59.000Z</time>
      </trkpt>
      <trkpt lat="42.733508" lon="-7.861077">
        <ele>720.4</ele>
        <time>1970-01-01T01:00:00.000Z</time>
      </trkpt>
      <trkpt lat="42.73349" lon="-7.861075">
        <ele>720.5</ele>
        <time>1970-01-01T01:00:01.000Z</time>
      </trkpt>
      <trkpt lat="42.733472" lon="-7.861071">
        <ele>720.6</ele>
        <time>1970-01-01T01:00:02.000Z</time>
      </trkpt>
      <trkpt lat="42.733453" lon="-7.861068">
        <ele>720.7</ele>
        <time>1970-01-01T01:00:03.000Z</time>
      </trkpt>
      <trkpt lat="42.733434" lon="-7.861067">
        <ele>720.8</ele>
        <time>1970-01-01T01:00:04.000Z</time>
      </trkpt>
      <trkpt lat="42.733414" lon="-7.861065">
        <ele>720.9</ele>
        <time>1970-01-01T01:00:05.000Z</time>
      </trkpt>
      <trkpt lat="42.733397" lon="-7.861066">
        <ele>721</ele>
        <time>1970-01-01T01:00:06.000Z</time>
      </trkpt>
      <trkpt lat="42.733379" lon="-7.861067">
        <ele>721.1</ele>
        <time>1970-01-01T01:00:07.000Z</time>
      </trkpt>
      <trkpt lat="42.733362" lon="-7.861069">
        <ele>721.2</ele>
        <time>1970-01-01T01:00:08.000Z</time>
      </trkpt>
      <trkpt lat="42.733346" lon="-7.861072">
        <ele>721.4</ele>
        <time>1970-01-01T01:00:09.000Z</time>
      </trkpt>
      <trkpt lat="42.733329" lon="-7.861072">
        <ele>721.7</ele>
        <time>1970-01-01T01:00:10.000Z</time>
      </trkpt>
      <trkpt lat="42.733312" lon="-7.861074">
        <ele>721.9</ele>
        <time>1970-01-01T01:00:11.000Z</time>
      </trkpt>
      <trkpt lat="42.733294" lon="-7.861078">
        <ele>722.1</ele>
        <time>1970-01-01T01:00:12.000Z</time>
      </trkpt>
      <trkpt lat="42.733277" lon="-7.861083">
        <ele>722.4</ele>
        <time>1970-01-01T01:00:13.000Z</time>
      </trkpt>
      <trkpt lat="42.733258" lon="-7.861084">
        <ele>722.6</ele>
        <time>1970-01-01T01:00:14.000Z</time>
      </trkpt>
      <trkpt lat="42.73324" lon="-7.861085">
        <ele>722.8</ele>
        <time>1970-01-01T01:00:15.000Z</time>
      </trkpt>
      <trkpt lat="42.733222" lon="-7.861085">
        <ele>723</ele>
        <time>1970-01-01T01:00:16.000Z</time>
      </trkpt>
      <trkpt lat="42.733205" lon="-7.861087">
        <ele>723.2</ele>
        <time>1970-01-01T01:00:17.000Z</time>
      </trkpt>
      <trkpt lat="42.733187" lon="-7.861089">
        <ele>723.3</ele>
        <time>1970-01-01T01:00:18.000Z</time>
      </trkpt>
      <trkpt lat="42.733171" lon="-7.86109">
        <ele>723.4</ele>
        <time>1970-01-01T01:00:19.000Z</time>
      </trkpt>
      <trkpt lat="42.733156" lon="-7.861089">
        <ele>723.6</ele>
        <time>1970-01-01T01:00:20.000Z</time>
      </trkpt>
      <trkpt lat="42.73314" lon="-7.861089">
        <ele>723.7</ele>
        <time>1970-01-01T01:00:21.000Z</time>
      </trkpt>
      <trkpt lat="42.733123" lon="-7.861093">
        <ele>723.8</ele>
        <time>1970-01-01T01:00:22.000Z</time>
      </trkpt>
      <trkpt lat="42.733106" lon="-7.861098">
        <ele>723.9</ele>
        <time>1970-01-01T01:00:23.000Z</time>
      </trkpt>
      <trkpt lat="42.733089" lon="-7.861104">
        <ele>724</ele>
        <time>1970-01-01T01:00:24.000Z</time>
      </trkpt>
      <trkpt lat="42.733072" lon="-7.86111">
        <ele>724.2</ele>
        <time>1970-01-01T01:00:25.000Z</time>
      </trkpt>
      <trkpt lat="42.733055" lon="-7.861114">
        <ele>724.4</ele>
        <time>1970-01-01T01:00:26.000Z</time>
      </trkpt>
      <trkpt lat="42.733038" lon="-7.861118">
        <ele>724.6</ele>
        <time>1970-01-01T01:00:27.000Z</time>
      </trkpt>
      <trkpt lat="42.733021" lon="-7.861122">
        <ele>724.7</ele>
        <time>1970-01-01T01:00:28.000Z</time>
      </trkpt>
      <trkpt lat="42.733003" lon="-7.861123">
        <ele>724.8</ele>
        <time>1970-01-01T01:00:29.000Z</time>
      </trkpt>
      <trkpt lat="42.732985" lon="-7.861125">
        <ele>724.9</ele>
        <time>1970-01-01T01:00:30.000Z</time>
      </trkpt>
      <trkpt lat="42.732967" lon="-7.861129">
        <ele>724.9</ele>
        <time>1970-01-01T01:00:31.000Z</time>
      </trkpt>
      <trkpt lat="42.732949" lon="-7.861133">
        <ele>725</ele>
        <time>1970-01-01T01:00:32.000Z</time>
      </trkpt>
      <trkpt lat="42.732932" lon="-7.861134">
        <ele>725</ele>
        <time>1970-01-01T01:00:33.000Z</time>
      </trkpt>
      <trkpt lat="42.732915" lon="-7.861135">
        <ele>725.1</ele>
        <time>1970-01-01T01:00:34.000Z</time>
      </trkpt>
      <trkpt lat="42.732899" lon="-7.861137">
        <ele>725.1</ele>
        <time>1970-01-01T01:00:35.000Z</time>
      </trkpt>
      <trkpt lat="42.732883" lon="-7.861138">
        <ele>725.2</ele>
        <time>1970-01-01T01:00:36.000Z</time>
      </trkpt>
      <trkpt lat="42.732865" lon="-7.861141">
        <ele>725.3</ele>
        <time>1970-01-01T01:00:37.000Z</time>
      </trkpt>
      <trkpt lat="42.732848" lon="-7.861143">
        <ele>725.3</ele>
        <time>1970-01-01T01:00:38.000Z</time>
      </trkpt>
      <trkpt lat="42.732831" lon="-7.861145">
        <ele>725.5</ele>
        <time>1970-01-01T01:00:39.000Z</time>
      </trkpt>
      <trkpt lat="42.732815" lon="-7.861149">
        <ele>725.7</ele>
        <time>1970-01-01T01:00:40.000Z</time>
      </trkpt>
      <trkpt lat="42.732795" lon="-7.861152">
        <ele>725.9</ele>
        <time>1970-01-01T01:00:41.000Z</time>
      </trkpt>
      <trkpt lat="42.732779" lon="-7.861154">
        <ele>726.2</ele>
        <time>1970-01-01T01:00:42.000Z</time>
      </trkpt>
      <trkpt lat="42.732761" lon="-7.861155">
        <ele>726.4</ele>
        <time>1970-01-01T01:00:43.000Z</time>
      </trkpt>
      <trkpt lat="42.732741" lon="-7.861157">
        <ele>726.7</ele>
        <time>1970-01-01T01:00:44.000Z</time>
      </trkpt>
      <trkpt lat="42.732724" lon="-7.861162">
        <ele>726.9</ele>
        <time>1970-01-01T01:00:45.000Z</time>
      </trkpt>
      <trkpt lat="42.732706" lon="-7.861167">
        <ele>727.1</ele>
        <time>1970-01-01T01:00:46.000Z</time>
      </trkpt>
      <trkpt lat="42.732692" lon="-7.861171">
        <ele>727.3</ele>
        <time>1970-01-01T01:00:47.000Z</time>
      </trkpt>
      <trkpt lat="42.732677" lon="-7.861174">
        <ele>727.5</ele>
        <time>1970-01-01T01:00:48.000Z</time>
      </trkpt>
      <trkpt lat="42.732662" lon="-7.861179">
        <ele>727.7</ele>
        <time>1970-01-01T01:00:49.000Z</time>
      </trkpt>
      <trkpt lat="42.732646" lon="-7.86118">
        <ele>728</ele>
        <time>1970-01-01T01:00:50.000Z</time>
      </trkpt>
      <trkpt lat="42.732629" lon="-7.861186">
        <ele>728.3</ele>
        <time>1970-01-01T01:00:51.000Z</time>
      </trkpt>
      <trkpt lat="42.732609" lon="-7.861189">
        <ele>728.6</ele>
        <time>1970-01-01T01:00:52.000Z</time>
      </trkpt>
      <trkpt lat="42.732592" lon="-7.861198">
        <ele>728.9</ele>
        <time>1970-01-01T01:00:53.000Z</time>
      </trkpt>
      <trkpt lat="42.732572" lon="-7.861204">
        <ele>729.2</ele>
        <time>1970-01-01T01:00:54.000Z</time>
      </trkpt>
      <trkpt lat="42.732555" lon="-7.86121">
        <ele>729.4</ele>
        <time>1970-01-01T01:00:55.000Z</time>
      </trkpt>
      <trkpt lat="42.732539" lon="-7.861218">
        <ele>729.7</ele>
        <time>1970-01-01T01:00:56.000Z</time>
      </trkpt>
      <trkpt lat="42.732525" lon="-7.861222">
        <ele>729.9</ele>
        <time>1970-01-01T01:00:57.000Z</time>
      </trkpt>
      <trkpt lat="42.732509" lon="-7.861227">
        <ele>730.1</ele>
        <time>1970-01-01T01:00:58.000Z</time>
      </trkpt>
      <trkpt lat="42.732491" lon="-7.861236">
        <ele>730.4</ele>
        <time>1970-01-01T01:00:59.000Z</time>
      </trkpt>
      <trkpt lat="42.732473" lon="-7.861245">
        <ele>730.7</ele>
        <time>1970-01-01T01:01:00.000Z</time>
      </trkpt>
      <trkpt lat="42.732449" lon="-7.861254">
        <ele>731.1</ele>
        <time>1970-01-01T01:01:01.000Z</time>
      </trkpt>
      <trkpt lat="42.732431" lon="-7.861258">
        <ele>731.4</ele>
        <time>1970-01-01T01:01:02.000Z</time>
      </trkpt>
      <trkpt lat="42.732411" lon="-7.861264">
        <ele>731.7</ele>
        <time>1970-01-01T01:01:03.000Z</time>
      </trkpt>
      <trkpt lat="42.732392" lon="-7.861273">
        <ele>732</ele>
        <time>1970-01-01T01:01:04.000Z</time>
      </trkpt>
      <trkpt lat="42.732378" lon="-7.861284">
        <ele>732.2</ele>
        <time>1970-01-01T01:01:05.000Z</time>
      </trkpt>
      <trkpt lat="42.732358" lon="-7.861293">
        <ele>732.6</ele>
        <time>1970-01-01T01:01:06.000Z</time>
      </trkpt>
      <trkpt lat="42.732337" lon="-7.861301">
        <ele>732.9</ele>
        <time>1970-01-01T01:01:07.000Z</time>
      </trkpt>
      <trkpt lat="42.732314" lon="-7.861314">
        <ele>733.4</ele>
        <time>1970-01-01T01:01:08.000Z</time>
      </trkpt>
      <trkpt lat="42.732295" lon="-7.861328">
        <ele>733.8</ele>
        <time>1970-01-01T01:01:09.000Z</time>
      </trkpt>
      <trkpt lat="42.732275" lon="-7.86134">
        <ele>734.3</ele>
        <time>1970-01-01T01:01:10.000Z</time>
      </trkpt>
      <trkpt lat="42.732259" lon="-7.861354">
        <ele>734.6</ele>
        <time>1970-01-01T01:01:11.000Z</time>
      </trkpt>
      <trkpt lat="42.732243" lon="-7.861367">
        <ele>734.9</ele>
        <time>1970-01-01T01:01:12.000Z</time>
      </trkpt>
      <trkpt lat="42.732226" lon="-7.861386">
        <ele>735.3</ele>
        <time>1970-01-01T01:01:13.000Z</time>
      </trkpt>
      <trkpt lat="42.732202" lon="-7.861403">
        <ele>735.8</ele>
        <time>1970-01-01T01:01:14.000Z</time>
      </trkpt>
      <trkpt lat="42.732181" lon="-7.861419">
        <ele>736.3</ele>
        <time>1970-01-01T01:01:15.000Z</time>
      </trkpt>
      <trkpt lat="42.732159" lon="-7.861431">
        <ele>736.7</ele>
        <time>1970-01-01T01:01:16.000Z</time>
      </trkpt>
      <trkpt lat="42.732139" lon="-7.861438">
        <ele>737.1</ele>
        <time>1970-01-01T01:01:17.000Z</time>
      </trkpt>
      <trkpt lat="42.732121" lon="-7.861446">
        <ele>737.4</ele>
        <time>1970-01-01T01:01:18.000Z</time>
      </trkpt>
      <trkpt lat="42.732101" lon="-7.861451">
        <ele>737.9</ele>
        <time>1970-01-01T01:01:19.000Z</time>
      </trkpt>
      <trkpt lat="42.732078" lon="-7.861451">
        <ele>738.4</ele>
        <time>1970-01-01T01:01:20.000Z</time>
      </trkpt>
      <trkpt lat="42.732058" lon="-7.861464">
        <ele>739</ele>
        <time>1970-01-01T01:01:21.000Z</time>
      </trkpt>
      <trkpt lat="42.732039" lon="-7.861482">
        <ele>739.3</ele>
        <time>1970-01-01T01:01:22.000Z</time>
      </trkpt>
      <trkpt lat="42.732019" lon="-7.861501">
        <ele>739.6</ele>
        <time>1970-01-01T01:01:23.000Z</time>
      </trkpt>
      <trkpt lat="42.731999" lon="-7.861516">
        <ele>739.8</ele>
        <time>1970-01-01T01:01:24.000Z</time>
      </trkpt>
      <trkpt lat="42.731977" lon="-7.861534">
        <ele>740.1</ele>
        <time>1970-01-01T01:01:25.000Z</time>
      </trkpt>
      <trkpt lat="42.731958" lon="-7.861548">
        <ele>740.3</ele>
        <time>1970-01-01T01:01:26.000Z</time>
      </trkpt>
      <trkpt lat="42.731938" lon="-7.861562">
        <ele>740.6</ele>
        <time>1970-01-01T01:01:27.000Z</time>
      </trkpt>
      <trkpt lat="42.731919" lon="-7.861574">
        <ele>740.8</ele>
        <time>1970-01-01T01:01:28.000Z</time>
      </trkpt>
      <trkpt lat="42.7319" lon="-7.861586">
        <ele>741.2</ele>
        <time>1970-01-01T01:01:29.000Z</time>
      </trkpt>
      <trkpt lat="42.731881" lon="-7.861591">
        <ele>741.6</ele>
        <time>1970-01-01T01:01:30.000Z</time>
      </trkpt>
      <trkpt lat="42.731863" lon="-7.8616">
        <ele>741.9</ele>
        <time>1970-01-01T01:01:31.000Z</time>
      </trkpt>
      <trkpt lat="42.731844" lon="-7.86161">
        <ele>742.3</ele>
        <time>1970-01-01T01:01:32.000Z</time>
      </trkpt>
      <trkpt lat="42.731824" lon="-7.861618">
        <ele>742.6</ele>
        <time>1970-01-01T01:01:33.000Z</time>
      </trkpt>
      <trkpt lat="42.731805" lon="-7.861629">
        <ele>742.8</ele>
        <time>1970-01-01T01:01:34.000Z</time>
      </trkpt>
      <trkpt lat="42.731786" lon="-7.861636">
        <ele>743.1</ele>
        <time>1970-01-01T01:01:35.000Z</time>
      </trkpt>
      <trkpt lat="42.731766" lon="-7.861644">
        <ele>743.3</ele>
        <time>1970-01-01T01:01:36.000Z</time>
      </trkpt>
      <trkpt lat="42.731752" lon="-7.861681">
        <ele>743.8</ele>
        <time>1970-01-01T01:01:37.000Z</time>
      </trkpt>
      <trkpt lat="42.731734" lon="-7.861703">
        <ele>744.1</ele>
        <time>1970-01-01T01:01:38.000Z</time>
      </trkpt>
      <trkpt lat="42.731715" lon="-7.86172">
        <ele>744.4</ele>
        <time>1970-01-01T01:01:39.000Z</time>
      </trkpt>
      <trkpt lat="42.7317" lon="-7.861742">
        <ele>744.9</ele>
        <time>1970-01-01T01:01:40.000Z</time>
      </trkpt>
      <trkpt lat="42.731681" lon="-7.86176">
        <ele>745.3</ele>
        <time>1970-01-01T01:01:41.000Z</time>
      </trkpt>
      <trkpt lat="42.731663" lon="-7.861779">
        <ele>745.8</ele>
        <time>1970-01-01T01:01:42.000Z</time>
      </trkpt>
      <trkpt lat="42.731644" lon="-7.861799">
        <ele>746.3</ele>
        <time>1970-01-01T01:01:43.000Z</time>
      </trkpt>
      <trkpt lat="42.731624" lon="-7.861815">
        <ele>746.8</ele>
        <time>1970-01-01T01:01:44.000Z</time>
      </trkpt>
      <trkpt lat="42.731606" lon="-7.861829">
        <ele>747.2</ele>
        <time>1970-01-01T01:01:45.000Z</time>
      </trkpt>
      <trkpt lat="42.731585" lon="-7.86184">
        <ele>747.7</ele>
        <time>1970-01-01T01:01:46.000Z</time>
      </trkpt>
      <trkpt lat="42.731566" lon="-7.861851">
        <ele>748</ele>
        <time>1970-01-01T01:01:47.000Z</time>
      </trkpt>
      <trkpt lat="42.731545" lon="-7.86186">
        <ele>748.3</ele>
        <time>1970-01-01T01:01:48.000Z</time>
      </trkpt>
      <trkpt lat="42.731525" lon="-7.861869">
        <ele>748.6</ele>
        <time>1970-01-01T01:01:49.000Z</time>
      </trkpt>
      <trkpt lat="42.731506" lon="-7.861875">
        <ele>748.9</ele>
        <time>1970-01-01T01:01:50.000Z</time>
      </trkpt>
      <trkpt lat="42.731487" lon="-7.86188">
        <ele>749.2</ele>
        <time>1970-01-01T01:01:51.000Z</time>
      </trkpt>
      <trkpt lat="42.731468" lon="-7.861883">
        <ele>749.4</ele>
        <time>1970-01-01T01:01:52.000Z</time>
      </trkpt>
      <trkpt lat="42.731448" lon="-7.861885">
        <ele>749.7</ele>
        <time>1970-01-01T01:01:53.000Z</time>
      </trkpt>
      <trkpt lat="42.731427" lon="-7.861886">
        <ele>750</ele>
        <time>1970-01-01T01:01:54.000Z</time>
      </trkpt>
      <trkpt lat="42.731405" lon="-7.861884">
        <ele>750.2</ele>
        <time>1970-01-01T01:01:55.000Z</time>
      </trkpt>
      <trkpt lat="42.731385" lon="-7.861883">
        <ele>750.4</ele>
        <time>1970-01-01T01:01:56.000Z</time>
      </trkpt>
      <trkpt lat="42.731367" lon="-7.86188">
        <ele>750.6</ele>
        <time>1970-01-01T01:01:57.000Z</time>
      </trkpt>
      <trkpt lat="42.731345" lon="-7.86188">
        <ele>750.7</ele>
        <time>1970-01-01T01:01:58.000Z</time>
      </trkpt>
      <trkpt lat="42.731326" lon="-7.861877">
        <ele>750.8</ele>
        <time>1970-01-01T01:01:59.000Z</time>
      </trkpt>
      <trkpt lat="42.731306" lon="-7.861873">
        <ele>750.9</ele>
        <time>1970-01-01T01:02:00.000Z</time>
      </trkpt>
      <trkpt lat="42.731287" lon="-7.861868">
        <ele>751</ele>
        <time>1970-01-01T01:02:01.000Z</time>
      </trkpt>
      <trkpt lat="42.73127" lon="-7.861864">
        <ele>751</ele>
        <time>1970-01-01T01:02:02.000Z</time>
      </trkpt>
      <trkpt lat="42.731253" lon="-7.861858">
        <ele>751.2</ele>
        <time>1970-01-01T01:02:03.000Z</time>
      </trkpt>
      <trkpt lat="42.731238" lon="-7.861852">
        <ele>751.3</ele>
        <time>1970-01-01T01:02:04.000Z</time>
      </trkpt>
      <trkpt lat="42.731221" lon="-7.861843">
        <ele>751.4</ele>
        <time>1970-01-01T01:02:05.000Z</time>
      </trkpt>
      <trkpt lat="42.731207" lon="-7.86183">
        <ele>751.6</ele>
        <time>1970-01-01T01:02:06.000Z</time>
      </trkpt>
      <trkpt lat="42.73119" lon="-7.861818">
        <ele>751.7</ele>
        <time>1970-01-01T01:02:07.000Z</time>
      </trkpt>
      <trkpt lat="42.731173" lon="-7.861808">
        <ele>752</ele>
        <time>1970-01-01T01:02:08.000Z</time>
      </trkpt>
      <trkpt lat="42.731155" lon="-7.8618">
        <ele>752.3</ele>
        <time>1970-01-01T01:02:09.000Z</time>
      </trkpt>
      <trkpt lat="42.731136" lon="-7.861793">
        <ele>752.6</ele>
        <time>1970-01-01T01:02:10.000Z</time>
      </trkpt>
      <trkpt lat="42.731117" lon="-7.861785">
        <ele>753</ele>
        <time>1970-01-01T01:02:11.000Z</time>
      </trkpt>
      <trkpt lat="42.731097" lon="-7.861777">
        <ele>753.3</ele>
        <time>1970-01-01T01:02:12.000Z</time>
      </trkpt>
      <trkpt lat="42.731078" lon="-7.86177">
        <ele>753.5</ele>
        <time>1970-01-01T01:02:13.000Z</time>
      </trkpt>
      <trkpt lat="42.731058" lon="-7.861762">
        <ele>753.8</ele>
        <time>1970-01-01T01:02:14.000Z</time>
      </trkpt>
      <trkpt lat="42.731039" lon="-7.861755">
        <ele>754</ele>
        <time>1970-01-01T01:02:15.000Z</time>
      </trkpt>
      <trkpt lat="42.73102" lon="-7.86175">
        <ele>754.1</ele>
        <time>1970-01-01T01:02:16.000Z</time>
      </trkpt>
      <trkpt lat="42.731002" lon="-7.861743">
        <ele>754.1</ele>
        <time>1970-01-01T01:02:17.000Z</time>
      </trkpt>
      <trkpt lat="42.730983" lon="-7.861737">
        <ele>754.1</ele>
        <time>1970-01-01T01:02:18.000Z</time>
      </trkpt>
      <trkpt lat="42.730969" lon="-7.861731">
        <ele>754</ele>
        <time>1970-01-01T01:02:19.000Z</time>
      </trkpt>
      <trkpt lat="42.730952" lon="-7.861725">
        <ele>754.1</ele>
        <time>1970-01-01T01:02:20.000Z</time>
      </trkpt>
      <trkpt lat="42.730933" lon="-7.861725">
        <ele>754.2</ele>
        <time>1970-01-01T01:02:21.000Z</time>
      </trkpt>
      <trkpt lat="42.730915" lon="-7.861726">
        <ele>754.3</ele>
        <time>1970-01-01T01:02:22.000Z</time>
      </trkpt>
      <trkpt lat="42.730896" lon="-7.861725">
        <ele>754.4</ele>
        <time>1970-01-01T01:02:23.000Z</time>
      </trkpt>
      <trkpt lat="42.730876" lon="-7.86172">
        <ele>754.4</ele>
        <time>1970-01-01T01:02:24.000Z</time>
      </trkpt>
      <trkpt lat="42.730856" lon="-7.861715">
        <ele>754.4</ele>
        <time>1970-01-01T01:02:25.000Z</time>
      </trkpt>
      <trkpt lat="42.730835" lon="-7.86171">
        <ele>754.3</ele>
        <time>1970-01-01T01:02:26.000Z</time>
      </trkpt>
      <trkpt lat="42.730815" lon="-7.861705">
        <ele>754.3</ele>
        <time>1970-01-01T01:02:27.000Z</time>
      </trkpt>
      <trkpt lat="42.730795" lon="-7.861699">
        <ele>754.3</ele>
        <time>1970-01-01T01:02:28.000Z</time>
      </trkpt>
      <trkpt lat="42.730775" lon="-7.861694">
        <ele>754.4</ele>
        <time>1970-01-01T01:02:29.000Z</time>
      </trkpt>
      <trkpt lat="42.730755" lon="-7.861688">
        <ele>754.4</ele>
        <time>1970-01-01T01:02:30.000Z</time>
      </trkpt>
      <trkpt lat="42.730736" lon="-7.861685">
        <ele>754.4</ele>
        <time>1970-01-01T01:02:31.000Z</time>
      </trkpt>
      <trkpt lat="42.730716" lon="-7.861681">
        <ele>754.3</ele>
        <time>1970-01-01T01:02:32.000Z</time>
      </trkpt>
      <trkpt lat="42.730697" lon="-7.861676">
        <ele>754.3</ele>
        <time>1970-01-01T01:02:33.000Z</time>
      </trkpt>
      <trkpt lat="42.730677" lon="-7.861673">
        <ele>754.2</ele>
        <time>1970-01-01T01:02:34.000Z</time>
      </trkpt>
      <trkpt lat="42.730658" lon="-7.86167">
        <ele>754.1</ele>
        <time>1970-01-01T01:02:35.000Z</time>
      </trkpt>
      <trkpt lat="42.730638" lon="-7.861667">
        <ele>754</ele>
        <time>1970-01-01T01:02:36.000Z</time>
      </trkpt>
      <trkpt lat="42.73062" lon="-7.861664">
        <ele>753.9</ele>
        <time>1970-01-01T01:02:37.000Z</time>
      </trkpt>
      <trkpt lat="42.7306" lon="-7.861658">
        <ele>753.9</ele>
        <time>1970-01-01T01:02:38.000Z</time>
      </trkpt>
      <trkpt lat="42.730582" lon="-7.861654">
        <ele>753.8</ele>
        <time>1970-01-01T01:02:39.000Z</time>
      </trkpt>
      <trkpt lat="42.730564" lon="-7.86165">
        <ele>753.9</ele>
        <time>1970-01-01T01:02:40.000Z</time>
      </trkpt>
      <trkpt lat="42.730545" lon="-7.861645">
        <ele>753.9</ele>
        <time>1970-01-01T01:02:41.000Z</time>
      </trkpt>
      <trkpt lat="42.730526" lon="-7.86164">
        <ele>753.9</ele>
        <time>1970-01-01T01:02:42.000Z</time>
      </trkpt>
      <trkpt lat="42.730507" lon="-7.861636">
        <ele>754</ele>
        <time>1970-01-01T01:02:43.000Z</time>
      </trkpt>
      <trkpt lat="42.730487" lon="-7.861632">
        <ele>754.1</ele>
        <time>1970-01-01T01:02:44.000Z</time>
      </trkpt>
      <trkpt lat="42.730468" lon="-7.861627">
        <ele>754.2</ele>
        <time>1970-01-01T01:02:45.000Z</time>
      </trkpt>
      <trkpt lat="42.73045" lon="-7.861623">
        <ele>754.2</ele>
        <time>1970-01-01T01:02:46.000Z</time>
      </trkpt>
      <trkpt lat="42.730432" lon="-7.861619">
        <ele>754.3</ele>
        <time>1970-01-01T01:02:47.000Z</time>
      </trkpt>
      <trkpt lat="42.730413" lon="-7.861616">
        <ele>754.3</ele>
        <time>1970-01-01T01:02:48.000Z</time>
      </trkpt>
      <trkpt lat="42.730394" lon="-7.861616">
        <ele>754.2</ele>
        <time>1970-01-01T01:02:49.000Z</time>
      </trkpt>
      <trkpt lat="42.730376" lon="-7.861614">
        <ele>754.2</ele>
        <time>1970-01-01T01:02:50.000Z</time>
      </trkpt>
      <trkpt lat="42.730357" lon="-7.861611">
        <ele>754.2</ele>
        <time>1970-01-01T01:02:51.000Z</time>
      </trkpt>
      <trkpt lat="42.73034" lon="-7.861609">
        <ele>754.3</ele>
        <time>1970-01-01T01:02:52.000Z</time>
      </trkpt>
      <trkpt lat="42.730322" lon="-7.861606">
        <ele>754.4</ele>
        <time>1970-01-01T01:02:53.000Z</time>
      </trkpt>
      <trkpt lat="42.730304" lon="-7.861604">
        <ele>754.6</ele>
        <time>1970-01-01T01:02:54.000Z</time>
      </trkpt>
      <trkpt lat="42.730287" lon="-7.861602">
        <ele>754.7</ele>
        <time>1970-01-01T01:02:55.000Z</time>
      </trkpt>
      <trkpt lat="42.730268" lon="-7.861598">
        <ele>754.9</ele>
        <time>1970-01-01T01:02:56.000Z</time>
      </trkpt>
      <trkpt lat="42.730251" lon="-7.861595">
        <ele>755.2</ele>
        <time>1970-01-01T01:02:57.000Z</time>
      </trkpt>
      <trkpt lat="42.730233" lon="-7.861593">
        <ele>755.5</ele>
        <time>1970-01-01T01:02:58.000Z</time>
      </trkpt>
      <trkpt lat="42.730215" lon="-7.861591">
        <ele>755.8</ele>
        <time>1970-01-01T01:02:59.000Z</time>
      </trkpt>
      <trkpt lat="42.730196" lon="-7.86159">
        <ele>756.1</ele>
        <time>1970-01-01T01:03:00.000Z</time>
      </trkpt>
      <trkpt lat="42.730178" lon="-7.861588">
        <ele>756.2</ele>
        <time>1970-01-01T01:03:01.000Z</time>
      </trkpt>
      <trkpt lat="42.730159" lon="-7.861585">
        <ele>756.4</ele>
        <time>1970-01-01T01:03:02.000Z</time>
      </trkpt>
      <trkpt lat="42.73014" lon="-7.861583">
        <ele>756.5</ele>
        <time>1970-01-01T01:03:03.000Z</time>
      </trkpt>
      <trkpt lat="42.73012" lon="-7.861582">
        <ele>756.6</ele>
        <time>1970-01-01T01:03:04.000Z</time>
      </trkpt>
      <trkpt lat="42.730102" lon="-7.861584">
        <ele>756.9</ele>
        <time>1970-01-01T01:03:05.000Z</time>
      </trkpt>
      <trkpt lat="42.730082" lon="-7.861585">
        <ele>757.4</ele>
        <time>1970-01-01T01:03:06.000Z</time>
      </trkpt>
      <trkpt lat="42.730064" lon="-7.861581">
        <ele>757.8</ele>
        <time>1970-01-01T01:03:07.000Z</time>
      </trkpt>
      <trkpt lat="42.730047" lon="-7.861575">
        <ele>758.2</ele>
        <time>1970-01-01T01:03:08.000Z</time>
      </trkpt>
      <trkpt lat="42.730031" lon="-7.861566">
        <ele>758.6</ele>
        <time>1970-01-01T01:03:09.000Z</time>
      </trkpt>
      <trkpt lat="42.730013" lon="-7.861558">
        <ele>758.8</ele>
        <time>1970-01-01T01:03:10.000Z</time>
      </trkpt>
      <trkpt lat="42.729996" lon="-7.861553">
        <ele>759</ele>
        <time>1970-01-01T01:03:11.000Z</time>
      </trkpt>
      <trkpt lat="42.729978" lon="-7.861552">
        <ele>759.2</ele>
        <time>1970-01-01T01:03:12.000Z</time>
      </trkpt>
      <trkpt lat="42.72996" lon="-7.861552">
        <ele>759.5</ele>
        <time>1970-01-01T01:03:13.000Z</time>
      </trkpt>
      <trkpt lat="42.729944" lon="-7.861547">
        <ele>759.7</ele>
        <time>1970-01-01T01:03:14.000Z</time>
      </trkpt>
      <trkpt lat="42.729928" lon="-7.861541">
        <ele>760.1</ele>
        <time>1970-01-01T01:03:15.000Z</time>
      </trkpt>
      <trkpt lat="42.729911" lon="-7.861533">
        <ele>760.5</ele>
        <time>1970-01-01T01:03:16.000Z</time>
      </trkpt>
      <trkpt lat="42.729893" lon="-7.861529">
        <ele>761</ele>
        <time>1970-01-01T01:03:17.000Z</time>
      </trkpt>
      <trkpt lat="42.729875" lon="-7.861525">
        <ele>761.4</ele>
        <time>1970-01-01T01:03:18.000Z</time>
      </trkpt>
      <trkpt lat="42.729856" lon="-7.861521">
        <ele>761.8</ele>
        <time>1970-01-01T01:03:19.000Z</time>
      </trkpt>
      <trkpt lat="42.729841" lon="-7.86152">
        <ele>762</ele>
        <time>1970-01-01T01:03:20.000Z</time>
      </trkpt>
      <trkpt lat="42.729824" lon="-7.861519">
        <ele>762.3</ele>
        <time>1970-01-01T01:03:21.000Z</time>
      </trkpt>
      <trkpt lat="42.729806" lon="-7.861518">
        <ele>762.6</ele>
        <time>1970-01-01T01:03:22.000Z</time>
      </trkpt>
      <trkpt lat="42.729787" lon="-7.861515">
        <ele>763</ele>
        <time>1970-01-01T01:03:23.000Z</time>
      </trkpt>
      <trkpt lat="42.729768" lon="-7.861514">
        <ele>763.3</ele>
        <time>1970-01-01T01:03:24.000Z</time>
      </trkpt>
      <trkpt lat="42.729748" lon="-7.86151">
        <ele>763.6</ele>
        <time>1970-01-01T01:03:25.000Z</time>
      </trkpt>
      <trkpt lat="42.72973" lon="-7.861509">
        <ele>763.9</ele>
        <time>1970-01-01T01:03:26.000Z</time>
      </trkpt>
      <trkpt lat="42.729713" lon="-7.861509">
        <ele>764.2</ele>
        <time>1970-01-01T01:03:27.000Z</time>
      </trkpt>
      <trkpt lat="42.729693" lon="-7.861507">
        <ele>764.6</ele>
        <time>1970-01-01T01:03:28.000Z</time>
      </trkpt>
      <trkpt lat="42.729674" lon="-7.861506">
        <ele>764.9</ele>
        <time>1970-01-01T01:03:29.000Z</time>
      </trkpt>
      <trkpt lat="42.729654" lon="-7.861504">
        <ele>765.4</ele>
        <time>1970-01-01T01:03:30.000Z</time>
      </trkpt>
      <trkpt lat="42.729635" lon="-7.861506">
        <ele>765.8</ele>
        <time>1970-01-01T01:03:31.000Z</time>
      </trkpt>
      <trkpt lat="42.729617" lon="-7.86151">
        <ele>766.1</ele>
        <time>1970-01-01T01:03:32.000Z</time>
      </trkpt>
      <trkpt lat="42.729599" lon="-7.861519">
        <ele>766.5</ele>
        <time>1970-01-01T01:03:33.000Z</time>
      </trkpt>
      <trkpt lat="42.729582" lon="-7.861529">
        <ele>766.9</ele>
        <time>1970-01-01T01:03:34.000Z</time>
      </trkpt>
      <trkpt lat="42.729566" lon="-7.861539">
        <ele>767.2</ele>
        <time>1970-01-01T01:03:35.000Z</time>
      </trkpt>
      <trkpt lat="42.72955" lon="-7.861551">
        <ele>767.6</ele>
        <time>1970-01-01T01:03:36.000Z</time>
      </trkpt>
      <trkpt lat="42.729534" lon="-7.861563">
        <ele>767.8</ele>
        <time>1970-01-01T01:03:37.000Z</time>
      </trkpt>
      <trkpt lat="42.72952" lon="-7.861577">
        <ele>768.1</ele>
        <time>1970-01-01T01:03:38.000Z</time>
      </trkpt>
      <trkpt lat="42.729505" lon="-7.861592">
        <ele>768.3</ele>
        <time>1970-01-01T01:03:39.000Z</time>
      </trkpt>
      <trkpt lat="42.729491" lon="-7.861608">
        <ele>768.6</ele>
        <time>1970-01-01T01:03:40.000Z</time>
      </trkpt>
      <trkpt lat="42.729481" lon="-7.861626">
        <ele>768.9</ele>
        <time>1970-01-01T01:03:41.000Z</time>
      </trkpt>
      <trkpt lat="42.729472" lon="-7.861645">
        <ele>769.2</ele>
        <time>1970-01-01T01:03:42.000Z</time>
      </trkpt>
      <trkpt lat="42.729462" lon="-7.861665">
        <ele>769.5</ele>
        <time>1970-01-01T01:03:43.000Z</time>
      </trkpt>
      <trkpt lat="42.729455" lon="-7.861683">
        <ele>769.8</ele>
        <time>1970-01-01T01:03:44.000Z</time>
      </trkpt>
      <trkpt lat="42.72945" lon="-7.861702">
        <ele>770.1</ele>
        <time>1970-01-01T01:03:45.000Z</time>
      </trkpt>
      <trkpt lat="42.729445" lon="-7.861719">
        <ele>770.3</ele>
        <time>1970-01-01T01:03:46.000Z</time>
      </trkpt>
      <trkpt lat="42.729439" lon="-7.861738">
        <ele>770.6</ele>
        <time>1970-01-01T01:03:47.000Z</time>
      </trkpt>
      <trkpt lat="42.729433" lon="-7.861756">
        <ele>770.8</ele>
        <time>1970-01-01T01:03:48.000Z</time>
      </trkpt>
      <trkpt lat="42.72943" lon="-7.861776">
        <ele>771.1</ele>
        <time>1970-01-01T01:03:49.000Z</time>
      </trkpt>
      <trkpt lat="42.729427" lon="-7.861798">
        <ele>771.3</ele>
        <time>1970-01-01T01:03:50.000Z</time>
      </trkpt>
      <trkpt lat="42.729424" lon="-7.861819">
        <ele>771.6</ele>
        <time>1970-01-01T01:03:51.000Z</time>
      </trkpt>
      <trkpt lat="42.729423" lon="-7.861845">
        <ele>771.9</ele>
        <time>1970-01-01T01:03:52.000Z</time>
      </trkpt>
      <trkpt lat="42.729423" lon="-7.861866">
        <ele>772.2</ele>
        <time>1970-01-01T01:03:53.000Z</time>
      </trkpt>
      <trkpt lat="42.729426" lon="-7.86189">
        <ele>772.5</ele>
        <time>1970-01-01T01:03:54.000Z</time>
      </trkpt>
      <trkpt lat="42.729427" lon="-7.861912">
        <ele>772.7</ele>
        <time>1970-01-01T01:03:55.000Z</time>
      </trkpt>
      <trkpt lat="42.729427" lon="-7.861932">
        <ele>773</ele>
        <time>1970-01-01T01:03:56.000Z</time>
      </trkpt>
      <trkpt lat="42.729427" lon="-7.861955">
        <ele>773.3</ele>
        <time>1970-01-01T01:03:57.000Z</time>
      </trkpt>
      <trkpt lat="42.729428" lon="-7.861977">
        <ele>773.5</ele>
        <time>1970-01-01T01:03:58.000Z</time>
      </trkpt>
      <trkpt lat="42.729429" lon="-7.862001">
        <ele>773.8</ele>
        <time>1970-01-01T01:03:59.000Z</time>
      </trkpt>
      <trkpt lat="42.729431" lon="-7.862025">
        <ele>774.1</ele>
        <time>1970-01-01T01:04:00.000Z</time>
      </trkpt>
      <trkpt lat="42.729431" lon="-7.862051">
        <ele>774.3</ele>
        <time>1970-01-01T01:04:01.000Z</time>
      </trkpt>
      <trkpt lat="42.729429" lon="-7.862077">
        <ele>774.6</ele>
        <time>1970-01-01T01:04:02.000Z</time>
      </trkpt>
      <trkpt lat="42.729432" lon="-7.862103">
        <ele>774.8</ele>
        <time>1970-01-01T01:04:03.000Z</time>
      </trkpt>
      <trkpt lat="42.729429" lon="-7.862132">
        <ele>775</ele>
        <time>1970-01-01T01:04:04.000Z</time>
      </trkpt>
      <trkpt lat="42.729429" lon="-7.862158">
        <ele>775.4</ele>
        <time>1970-01-01T01:04:05.000Z</time>
      </trkpt>
      <trkpt lat="42.729426" lon="-7.862185">
        <ele>775.8</ele>
        <time>1970-01-01T01:04:06.000Z</time>
      </trkpt>
      <trkpt lat="42.729425" lon="-7.862212">
        <ele>776.1</ele>
        <time>1970-01-01T01:04:07.000Z</time>
      </trkpt>
      <trkpt lat="42.729422" lon="-7.862239">
        <ele>776.5</ele>
        <time>1970-01-01T01:04:08.000Z</time>
      </trkpt>
      <trkpt lat="42.729416" lon="-7.862259">
        <ele>776.8</ele>
        <time>1970-01-01T01:04:09.000Z</time>
      </trkpt>
      <trkpt lat="42.729408" lon="-7.862284">
        <ele>777</ele>
        <time>1970-01-01T01:04:10.000Z</time>
      </trkpt>
      <trkpt lat="42.729401" lon="-7.862312">
        <ele>777.3</ele>
        <time>1970-01-01T01:04:11.000Z</time>
      </trkpt>
      <trkpt lat="42.729396" lon="-7.86234">
        <ele>777.5</ele>
        <time>1970-01-01T01:04:12.000Z</time>
      </trkpt>
      <trkpt lat="42.729389" lon="-7.862367">
        <ele>777.8</ele>
        <time>1970-01-01T01:04:13.000Z</time>
      </trkpt>
      <trkpt lat="42.72938" lon="-7.862387">
        <ele>778</ele>
        <time>1970-01-01T01:04:14.000Z</time>
      </trkpt>
      <trkpt lat="42.729372" lon="-7.862406">
        <ele>778.2</ele>
        <time>1970-01-01T01:04:15.000Z</time>
      </trkpt>
      <trkpt lat="42.729362" lon="-7.862429">
        <ele>778.4</ele>
        <time>1970-01-01T01:04:16.000Z</time>
      </trkpt>
      <trkpt lat="42.729354" lon="-7.862453">
        <ele>778.6</ele>
        <time>1970-01-01T01:04:17.000Z</time>
      </trkpt>
      <trkpt lat="42.729344" lon="-7.862476">
        <ele>778.9</ele>
        <time>1970-01-01T01:04:18.000Z</time>
      </trkpt>
      <trkpt lat="42.729337" lon="-7.862502">
        <ele>779.2</ele>
        <time>1970-01-01T01:04:19.000Z</time>
      </trkpt>
      <trkpt lat="42.729328" lon="-7.862529">
        <ele>779.5</ele>
        <time>1970-01-01T01:04:20.000Z</time>
      </trkpt>
      <trkpt lat="42.72932" lon="-7.862553">
        <ele>779.8</ele>
        <time>1970-01-01T01:04:21.000Z</time>
      </trkpt>
      <trkpt lat="42.729313" lon="-7.862574">
        <ele>780</ele>
        <time>1970-01-01T01:04:22.000Z</time>
      </trkpt>
      <trkpt lat="42.729306" lon="-7.862595">
        <ele>780.1</ele>
        <time>1970-01-01T01:04:23.000Z</time>
      </trkpt>
      <trkpt lat="42.729298" lon="-7.862618">
        <ele>780.2</ele>
        <time>1970-01-01T01:04:24.000Z</time>
      </trkpt>
      <trkpt lat="42.729287" lon="-7.862642">
        <ele>780.4</ele>
        <time>1970-01-01T01:04:25.000Z</time>
      </trkpt>
      <trkpt lat="42.729277" lon="-7.862667">
        <ele>780.5</ele>
        <time>1970-01-01T01:04:26.000Z</time>
      </trkpt>
      <trkpt lat="42.72927" lon="-7.862692">
        <ele>780.7</ele>
        <time>1970-01-01T01:04:27.000Z</time>
      </trkpt>
      <trkpt lat="42.72926" lon="-7.862717">
        <ele>780.8</ele>
        <time>1970-01-01T01:04:28.000Z</time>
      </trkpt>
      <trkpt lat="42.729247" lon="-7.862747">
        <ele>781</ele>
        <time>1970-01-01T01:04:29.000Z</time>
      </trkpt>
      <trkpt lat="42.729234" lon="-7.862783">
        <ele>781.3</ele>
        <time>1970-01-01T01:04:30.000Z</time>
      </trkpt>
      <trkpt lat="42.729218" lon="-7.862824">
        <ele>781.5</ele>
        <time>1970-01-01T01:04:31.000Z</time>
      </trkpt>
      <trkpt lat="42.729204" lon="-7.862864">
        <ele>781.8</ele>
        <time>1970-01-01T01:04:32.000Z</time>
      </trkpt>
      <trkpt lat="42.729192" lon="-7.862899">
        <ele>782</ele>
        <time>1970-01-01T01:04:33.000Z</time>
      </trkpt>
      <trkpt lat="42.729181" lon="-7.862934">
        <ele>782.2</ele>
        <time>1970-01-01T01:04:34.000Z</time>
      </trkpt>
      <trkpt lat="42.72917" lon="-7.862966">
        <ele>782.4</ele>
        <time>1970-01-01T01:04:35.000Z</time>
      </trkpt>
      <trkpt lat="42.729153" lon="-7.862989">
        <ele>782.5</ele>
        <time>1970-01-01T01:04:36.000Z</time>
      </trkpt>
      <trkpt lat="42.729139" lon="-7.863021">
        <ele>782.7</ele>
        <time>1970-01-01T01:04:37.000Z</time>
      </trkpt>
      <trkpt lat="42.729125" lon="-7.863063">
        <ele>782.9</ele>
        <time>1970-01-01T01:04:38.000Z</time>
      </trkpt>
      <trkpt lat="42.729109" lon="-7.863098">
        <ele>783.1</ele>
        <time>1970-01-01T01:04:39.000Z</time>
      </trkpt>
      <trkpt lat="42.729092" lon="-7.863134">
        <ele>783.3</ele>
        <time>1970-01-01T01:04:40.000Z</time>
      </trkpt>
      <trkpt lat="42.729078" lon="-7.863168">
        <ele>783.5</ele>
        <time>1970-01-01T01:04:41.000Z</time>
      </trkpt>
      <trkpt lat="42.729064" lon="-7.863204">
        <ele>783.7</ele>
        <time>1970-01-01T01:04:42.000Z</time>
      </trkpt>
      <trkpt lat="42.729051" lon="-7.863232">
        <ele>783.8</ele>
        <time>1970-01-01T01:04:43.000Z</time>
      </trkpt>
      <trkpt lat="42.729037" lon="-7.863258">
        <ele>783.9</ele>
        <time>1970-01-01T01:04:44.000Z</time>
      </trkpt>
      <trkpt lat="42.729022" lon="-7.863279">
        <ele>784</ele>
        <time>1970-01-01T01:04:45.000Z</time>
      </trkpt>
      <trkpt lat="42.729008" lon="-7.863311">
        <ele>784.1</ele>
        <time>1970-01-01T01:04:46.000Z</time>
      </trkpt>
      <trkpt lat="42.728992" lon="-7.863345">
        <ele>784.2</ele>
        <time>1970-01-01T01:04:47.000Z</time>
      </trkpt>
      <trkpt lat="42.728976" lon="-7.863376">
        <ele>784.4</ele>
        <time>1970-01-01T01:04:48.000Z</time>
      </trkpt>
      <trkpt lat="42.728965" lon="-7.863408">
        <ele>784.5</ele>
        <time>1970-01-01T01:04:49.000Z</time>
      </trkpt>
      <trkpt lat="42.728952" lon="-7.863435">
        <ele>784.5</ele>
        <time>1970-01-01T01:04:50.000Z</time>
      </trkpt>
      <trkpt lat="42.728939" lon="-7.863463">
        <ele>784.6</ele>
        <time>1970-01-01T01:04:51.000Z</time>
      </trkpt>
      <trkpt lat="42.728926" lon="-7.863492">
        <ele>784.7</ele>
        <time>1970-01-01T01:04:52.000Z</time>
      </trkpt>
      <trkpt lat="42.728912" lon="-7.863519">
        <ele>784.8</ele>
        <time>1970-01-01T01:04:53.000Z</time>
      </trkpt>
      <trkpt lat="42.728899" lon="-7.863545">
        <ele>784.8</ele>
        <time>1970-01-01T01:04:54.000Z</time>
      </trkpt>
      <trkpt lat="42.728885" lon="-7.863568">
        <ele>784.9</ele>
        <time>1970-01-01T01:04:55.000Z</time>
      </trkpt>
      <trkpt lat="42.728872" lon="-7.863596">
        <ele>785</ele>
        <time>1970-01-01T01:04:56.000Z</time>
      </trkpt>
      <trkpt lat="42.728856" lon="-7.86362">
        <ele>785.1</ele>
        <time>1970-01-01T01:04:57.000Z</time>
      </trkpt>
      <trkpt lat="42.72884" lon="-7.863649">
        <ele>785.2</ele>
        <time>1970-01-01T01:04:58.000Z</time>
      </trkpt>
      <trkpt lat="42.728825" lon="-7.863675">
        <ele>785.3</ele>
        <time>1970-01-01T01:04:59.000Z</time>
      </trkpt>
      <trkpt lat="42.728811" lon="-7.863698">
        <ele>785.5</ele>
        <time>1970-01-01T01:05:00.000Z</time>
      </trkpt>
      <trkpt lat="42.728797" lon="-7.863722">
        <ele>785.6</ele>
        <time>1970-01-01T01:05:01.000Z</time>
      </trkpt>
      <trkpt lat="42.728784" lon="-7.863751">
        <ele>785.7</ele>
        <time>1970-01-01T01:05:02.000Z</time>
      </trkpt>
      <trkpt lat="42.728771" lon="-7.863782">
        <ele>785.8</ele>
        <time>1970-01-01T01:05:03.000Z</time>
      </trkpt>
      <trkpt lat="42.728759" lon="-7.863812">
        <ele>785.9</ele>
        <time>1970-01-01T01:05:04.000Z</time>
      </trkpt>
      <trkpt lat="42.728746" lon="-7.863837">
        <ele>786</ele>
        <time>1970-01-01T01:05:05.000Z</time>
      </trkpt>
      <trkpt lat="42.728737" lon="-7.863865">
        <ele>786</ele>
        <time>1970-01-01T01:05:06.000Z</time>
      </trkpt>
      <trkpt lat="42.728727" lon="-7.863895">
        <ele>786.1</ele>
        <time>1970-01-01T01:05:07.000Z</time>
      </trkpt>
      <trkpt lat="42.728719" lon="-7.863927">
        <ele>786.2</ele>
        <time>1970-01-01T01:05:08.000Z</time>
      </trkpt>
      <trkpt lat="42.728711" lon="-7.863958">
        <ele>786.3</ele>
        <time>1970-01-01T01:05:09.000Z</time>
      </trkpt>
      <trkpt lat="42.728696" lon="-7.863985">
        <ele>786.3</ele>
        <time>1970-01-01T01:05:10.000Z</time>
      </trkpt>
      <trkpt lat="42.728685" lon="-7.864004">
        <ele>786.3</ele>
        <time>1970-01-01T01:05:11.000Z</time>
      </trkpt>
      <trkpt lat="42.728673" lon="-7.864026">
        <ele>786.4</ele>
        <time>1970-01-01T01:05:12.000Z</time>
      </trkpt>
      <trkpt lat="42.728665" lon="-7.864052">
        <ele>786.4</ele>
        <time>1970-01-01T01:05:13.000Z</time>
      </trkpt>
      <trkpt lat="42.728653" lon="-7.864083">
        <ele>786.5</ele>
        <time>1970-01-01T01:05:14.000Z</time>
      </trkpt>
      <trkpt lat="42.728639" lon="-7.864108">
        <ele>786.5</ele>
        <time>1970-01-01T01:05:15.000Z</time>
      </trkpt>
      <trkpt lat="42.728625" lon="-7.864133">
        <ele>786.6</ele>
        <time>1970-01-01T01:05:16.000Z</time>
      </trkpt>
      <trkpt lat="42.728611" lon="-7.864159">
        <ele>786.6</ele>
        <time>1970-01-01T01:05:17.000Z</time>
      </trkpt>
      <trkpt lat="42.728598" lon="-7.864187">
        <ele>786.6</ele>
        <time>1970-01-01T01:05:18.000Z</time>
      </trkpt>
      <trkpt lat="42.728584" lon="-7.864205">
        <ele>786.5</ele>
        <time>1970-01-01T01:05:19.000Z</time>
      </trkpt>
      <trkpt lat="42.728568" lon="-7.864223">
        <ele>786.5</ele>
        <time>1970-01-01T01:05:20.000Z</time>
      </trkpt>
      <trkpt lat="42.728551" lon="-7.864237">
        <ele>786.5</ele>
        <time>1970-01-01T01:05:21.000Z</time>
      </trkpt>
      <trkpt lat="42.728541" lon="-7.86427">
        <ele>786.5</ele>
        <time>1970-01-01T01:05:22.000Z</time>
      </trkpt>
      <trkpt lat="42.728531" lon="-7.864285">
        <ele>786.4</ele>
        <time>1970-01-01T01:05:23.000Z</time>
      </trkpt>
      <trkpt lat="42.728518" lon="-7.864303">
        <ele>786.4</ele>
        <time>1970-01-01T01:05:24.000Z</time>
      </trkpt>
      <trkpt lat="42.728502" lon="-7.864319">
        <ele>786.4</ele>
        <time>1970-01-01T01:05:25.000Z</time>
      </trkpt>
      <trkpt lat="42.72849" lon="-7.864334">
        <ele>786.4</ele>
        <time>1970-01-01T01:05:26.000Z</time>
      </trkpt>
      <trkpt lat="42.728476" lon="-7.864345">
        <ele>786.4</ele>
        <time>1970-01-01T01:05:27.000Z</time>
      </trkpt>
      <trkpt lat="42.728452" lon="-7.864364">
        <ele>786.4</ele>
        <time>1970-01-01T01:05:28.000Z</time>
      </trkpt>
      <trkpt lat="42.72843" lon="-7.864376">
        <ele>786.5</ele>
        <time>1970-01-01T01:05:29.000Z</time>
      </trkpt>
      <trkpt lat="42.728402" lon="-7.86439">
        <ele>786.5</ele>
        <time>1970-01-01T01:05:30.000Z</time>
      </trkpt>
      <trkpt lat="42.728375" lon="-7.864397">
        <ele>786.4</ele>
        <time>1970-01-01T01:05:31.000Z</time>
      </trkpt>
      <trkpt lat="42.728353" lon="-7.864399">
        <ele>786.4</ele>
        <time>1970-01-01T01:05:32.000Z</time>
      </trkpt>
      <trkpt lat="42.728326" lon="-7.864402">
        <ele>786.4</ele>
        <time>1970-01-01T01:05:33.000Z</time>
      </trkpt>
      <trkpt lat="42.728294" lon="-7.864405">
        <ele>786.4</ele>
        <time>1970-01-01T01:05:34.000Z</time>
      </trkpt>
      <trkpt lat="42.728266" lon="-7.864411">
        <ele>786.4</ele>
        <time>1970-01-01T01:05:35.000Z</time>
      </trkpt>
      <trkpt lat="42.728239" lon="-7.864415">
        <ele>786.4</ele>
        <time>1970-01-01T01:05:36.000Z</time>
      </trkpt>
      <trkpt lat="42.728213" lon="-7.864419">
        <ele>786.5</ele>
        <time>1970-01-01T01:05:37.000Z</time>
      </trkpt>
      <trkpt lat="42.728185" lon="-7.86442">
        <ele>786.5</ele>
        <time>1970-01-01T01:05:38.000Z</time>
      </trkpt>
      <trkpt lat="42.728159" lon="-7.864417">
        <ele>786.6</ele>
        <time>1970-01-01T01:05:39.000Z</time>
      </trkpt>
      <trkpt lat="42.728131" lon="-7.864416">
        <ele>786.6</ele>
        <time>1970-01-01T01:05:40.000Z</time>
      </trkpt>
      <trkpt lat="42.728101" lon="-7.864415">
        <ele>786.7</ele>
        <time>1970-01-01T01:05:41.000Z</time>
      </trkpt>
      <trkpt lat="42.728071" lon="-7.864414">
        <ele>786.8</ele>
        <time>1970-01-01T01:05:42.000Z</time>
      </trkpt>
      <trkpt lat="42.728037" lon="-7.86441">
        <ele>786.9</ele>
        <time>1970-01-01T01:05:43.000Z</time>
      </trkpt>
      <trkpt lat="42.728001" lon="-7.864409">
        <ele>787.1</ele>
        <time>1970-01-01T01:05:44.000Z</time>
      </trkpt>
      <trkpt lat="42.727968" lon="-7.864407">
        <ele>787.2</ele>
        <time>1970-01-01T01:05:45.000Z</time>
      </trkpt>
      <trkpt lat="42.727932" lon="-7.864407">
        <ele>787.3</ele>
        <time>1970-01-01T01:05:46.000Z</time>
      </trkpt>
      <trkpt lat="42.727901" lon="-7.864405">
        <ele>787.5</ele>
        <time>1970-01-01T01:05:47.000Z</time>
      </trkpt>
      <trkpt lat="42.727869" lon="-7.8644">
        <ele>787.6</ele>
        <time>1970-01-01T01:05:48.000Z</time>
      </trkpt>
      <trkpt lat="42.727839" lon="-7.864393">
        <ele>787.8</ele>
        <time>1970-01-01T01:05:49.000Z</time>
      </trkpt>
      <trkpt lat="42.727807" lon="-7.864384">
        <ele>787.9</ele>
        <time>1970-01-01T01:05:50.000Z</time>
      </trkpt>
      <trkpt lat="42.727773" lon="-7.86438">
        <ele>788.1</ele>
        <time>1970-01-01T01:05:51.000Z</time>
      </trkpt>
      <trkpt lat="42.72774" lon="-7.864376">
        <ele>788.3</ele>
        <time>1970-01-01T01:05:52.000Z</time>
      </trkpt>
      <trkpt lat="42.727694" lon="-7.864376">
        <ele>788.5</ele>
        <time>1970-01-01T01:05:53.000Z</time>
      </trkpt>
      <trkpt lat="42.727652" lon="-7.864379">
        <ele>788.6</ele>
        <time>1970-01-01T01:05:54.000Z</time>
      </trkpt>
      <trkpt lat="42.727607" lon="-7.864382">
        <ele>788.8</ele>
        <time>1970-01-01T01:05:55.000Z</time>
      </trkpt>
      <trkpt lat="42.727567" lon="-7.86438">
        <ele>788.9</ele>
        <time>1970-01-01T01:05:56.000Z</time>
      </trkpt>
      <trkpt lat="42.72753" lon="-7.864371">
        <ele>789.1</ele>
        <time>1970-01-01T01:05:57.000Z</time>
      </trkpt>
      <trkpt lat="42.727492" lon="-7.864363">
        <ele>789.3</ele>
        <time>1970-01-01T01:05:58.000Z</time>
      </trkpt>
      <trkpt lat="42.727462" lon="-7.864358">
        <ele>789.4</ele>
        <time>1970-01-01T01:05:59.000Z</time>
      </trkpt>
      <trkpt lat="42.727422" lon="-7.864357">
        <ele>789.5</ele>
        <time>1970-01-01T01:06:00.000Z</time>
      </trkpt>
      <trkpt lat="42.727381" lon="-7.864353">
        <ele>789.7</ele>
        <time>1970-01-01T01:06:01.000Z</time>
      </trkpt>
      <trkpt lat="42.727354" lon="-7.864349">
        <ele>789.8</ele>
        <time>1970-01-01T01:06:02.000Z</time>
      </trkpt>
      <trkpt lat="42.727314" lon="-7.86435">
        <ele>789.9</ele>
        <time>1970-01-01T01:06:03.000Z</time>
      </trkpt>
      <trkpt lat="42.727267" lon="-7.864357">
        <ele>790</ele>
        <time>1970-01-01T01:06:04.000Z</time>
      </trkpt>
      <trkpt lat="42.727224" lon="-7.864361">
        <ele>790.2</ele>
        <time>1970-01-01T01:06:05.000Z</time>
      </trkpt>
      <trkpt lat="42.72718" lon="-7.864361">
        <ele>790.4</ele>
        <time>1970-01-01T01:06:06.000Z</time>
      </trkpt>
      <trkpt lat="42.727137" lon="-7.864356">
        <ele>790.5</ele>
        <time>1970-01-01T01:06:07.000Z</time>
      </trkpt>
      <trkpt lat="42.727089" lon="-7.86435">
        <ele>790.6</ele>
        <time>1970-01-01T01:06:08.000Z</time>
      </trkpt>
      <trkpt lat="42.727044" lon="-7.864346">
        <ele>790.7</ele>
        <time>1970-01-01T01:06:09.000Z</time>
      </trkpt>
      <trkpt lat="42.727007" lon="-7.86434">
        <ele>790.9</ele>
        <time>1970-01-01T01:06:10.000Z</time>
      </trkpt>
      <trkpt lat="42.726966" lon="-7.864342">
        <ele>791.1</ele>
        <time>1970-01-01T01:06:11.000Z</time>
      </trkpt>
      <trkpt lat="42.726922" lon="-7.864339">
        <ele>791.3</ele>
        <time>1970-01-01T01:06:12.000Z</time>
      </trkpt>
      <trkpt lat="42.726875" lon="-7.864336">
        <ele>791.4</ele>
        <time>1970-01-01T01:06:13.000Z</time>
      </trkpt>
      <trkpt lat="42.726835" lon="-7.864339">
        <ele>791.5</ele>
        <time>1970-01-01T01:06:14.000Z</time>
      </trkpt>
      <trkpt lat="42.726794" lon="-7.864336">
        <ele>791.7</ele>
        <time>1970-01-01T01:06:15.000Z</time>
      </trkpt>
      <trkpt lat="42.72676" lon="-7.86433">
        <ele>791.9</ele>
        <time>1970-01-01T01:06:16.000Z</time>
      </trkpt>
      <trkpt lat="42.726721" lon="-7.86434">
        <ele>792.1</ele>
        <time>1970-01-01T01:06:17.000Z</time>
      </trkpt>
      <trkpt lat="42.726683" lon="-7.864346">
        <ele>792.3</ele>
        <time>1970-01-01T01:06:18.000Z</time>
      </trkpt>
      <trkpt lat="42.726643" lon="-7.864344">
        <ele>792.5</ele>
        <time>1970-01-01T01:06:19.000Z</time>
      </trkpt>
      <trkpt lat="42.726606" lon="-7.864349">
        <ele>792.7</ele>
        <time>1970-01-01T01:06:20.000Z</time>
      </trkpt>
      <trkpt lat="42.726568" lon="-7.864342">
        <ele>792.9</ele>
        <time>1970-01-01T01:06:21.000Z</time>
      </trkpt>
      <trkpt lat="42.726538" lon="-7.864337">
        <ele>793</ele>
        <time>1970-01-01T01:06:22.000Z</time>
      </trkpt>
      <trkpt lat="42.726501" lon="-7.864329">
        <ele>793.1</ele>
        <time>1970-01-01T01:06:23.000Z</time>
      </trkpt>
      <trkpt lat="42.726469" lon="-7.86432">
        <ele>793.2</ele>
        <time>1970-01-01T01:06:24.000Z</time>
      </trkpt>
      <trkpt lat="42.726429" lon="-7.864313">
        <ele>793.4</ele>
        <time>1970-01-01T01:06:25.000Z</time>
      </trkpt>
      <trkpt lat="42.726392" lon="-7.864313">
        <ele>793.8</ele>
        <time>1970-01-01T01:06:26.000Z</time>
      </trkpt>
      <trkpt lat="42.72636" lon="-7.864306">
        <ele>794</ele>
        <time>1970-01-01T01:06:27.000Z</time>
      </trkpt>
      <trkpt lat="42.726335" lon="-7.864304">
        <ele>794.1</ele>
        <time>1970-01-01T01:06:28.000Z</time>
      </trkpt>
      <trkpt lat="42.726299" lon="-7.864294">
        <ele>794.1</ele>
        <time>1970-01-01T01:06:29.000Z</time>
      </trkpt>
      <trkpt lat="42.726266" lon="-7.864277">
        <ele>794.2</ele>
        <time>1970-01-01T01:06:30.000Z</time>
      </trkpt>
      <trkpt lat="42.726234" lon="-7.864269">
        <ele>794.4</ele>
        <time>1970-01-01T01:06:31.000Z</time>
      </trkpt>
      <trkpt lat="42.726189" lon="-7.864273">
        <ele>794.8</ele>
        <time>1970-01-01T01:06:32.000Z</time>
      </trkpt>
      <trkpt lat="42.726149" lon="-7.864272">
        <ele>795.2</ele>
        <time>1970-01-01T01:06:33.000Z</time>
      </trkpt>
      <trkpt lat="42.726113" lon="-7.86427">
        <ele>795.6</ele>
        <time>1970-01-01T01:06:34.000Z</time>
      </trkpt>
      <trkpt lat="42.72608" lon="-7.86427">
        <ele>795.8</ele>
        <time>1970-01-01T01:06:35.000Z</time>
      </trkpt>
      <trkpt lat="42.726044" lon="-7.86427">
        <ele>796.2</ele>
        <time>1970-01-01T01:06:36.000Z</time>
      </trkpt>
      <trkpt lat="42.725999" lon="-7.864268">
        <ele>796.7</ele>
        <time>1970-01-01T01:06:37.000Z</time>
      </trkpt>
      <trkpt lat="42.725973" lon="-7.864281">
        <ele>796.7</ele>
        <time>1970-01-01T01:06:38.000Z</time>
      </trkpt>
      <trkpt lat="42.725949" lon="-7.864293">
        <ele>796.6</ele>
        <time>1970-01-01T01:06:39.000Z</time>
      </trkpt>
      <trkpt lat="42.725921" lon="-7.864312">
        <ele>796.3</ele>
        <time>1970-01-01T01:06:40.000Z</time>
      </trkpt>
      <trkpt lat="42.725893" lon="-7.864325">
        <ele>796.1</ele>
        <time>1970-01-01T01:06:41.000Z</time>
      </trkpt>
      <trkpt lat="42.725856" lon="-7.864337">
        <ele>795.7</ele>
        <time>1970-01-01T01:06:42.000Z</time>
      </trkpt>
      <trkpt lat="42.725824" lon="-7.864353">
        <ele>795.4</ele>
        <time>1970-01-01T01:06:43.000Z</time>
      </trkpt>
      <trkpt lat="42.725817" lon="-7.864369">
        <ele>795.3</ele>
        <time>1970-01-01T01:06:44.000Z</time>
      </trkpt>
      <trkpt lat="42.725815" lon="-7.864408">
        <ele>794.8</ele>
        <time>1970-01-01T01:06:45.000Z</time>
      </trkpt>
      <trkpt lat="42.725802" lon="-7.864444">
        <ele>794.3</ele>
        <time>1970-01-01T01:06:46.000Z</time>
      </trkpt>
      <trkpt lat="42.725803" lon="-7.864489">
        <ele>793.6</ele>
        <time>1970-01-01T01:06:47.000Z</time>
      </trkpt>
      <trkpt lat="42.725802" lon="-7.864509">
        <ele>793.4</ele>
        <time>1970-01-01T01:06:48.000Z</time>
      </trkpt>
      <trkpt lat="42.725811" lon="-7.864549">
        <ele>793</ele>
        <time>1970-01-01T01:06:49.000Z</time>
      </trkpt>
      <trkpt lat="42.725835" lon="-7.864589">
        <ele>792.5</ele>
        <time>1970-01-01T01:06:50.000Z</time>
      </trkpt>
      <trkpt lat="42.725854" lon="-7.864616">
        <ele>792</ele>
        <time>1970-01-01T01:06:51.000Z</time>
      </trkpt>
      <trkpt lat="42.725889" lon="-7.864643">
        <ele>791.2</ele>
        <time>1970-01-01T01:06:52.000Z</time>
      </trkpt>
      <trkpt lat="42.725906" lon="-7.864666">
        <ele>790.8</ele>
        <time>1970-01-01T01:06:53.000Z</time>
      </trkpt>
      <trkpt lat="42.725923" lon="-7.864679">
        <ele>790.5</ele>
        <time>1970-01-01T01:06:54.000Z</time>
      </trkpt>
      <trkpt lat="42.72595" lon="-7.86473">
        <ele>789.7</ele>
        <time>1970-01-01T01:06:55.000Z</time>
      </trkpt>
      <trkpt lat="42.725983" lon="-7.864744">
        <ele>789.3</ele>
        <time>1970-01-01T01:06:56.000Z</time>
      </trkpt>
      <trkpt lat="42.726015" lon="-7.864778">
        <ele>788.7</ele>
        <time>1970-01-01T01:06:57.000Z</time>
      </trkpt>
      <trkpt lat="42.726052" lon="-7.864816">
        <ele>788.2</ele>
        <time>1970-01-01T01:06:58.000Z</time>
      </trkpt>
      <trkpt lat="42.72608" lon="-7.864842">
        <ele>787.8</ele>
        <time>1970-01-01T01:06:59.000Z</time>
      </trkpt>
      <trkpt lat="42.726119" lon="-7.864894">
        <ele>787.2</ele>
        <time>1970-01-01T01:07:00.000Z</time>
      </trkpt>
      <trkpt lat="42.726158" lon="-7.864966">
        <ele>786.4</ele>
        <time>1970-01-01T01:07:01.000Z</time>
      </trkpt>
      <trkpt lat="42.7262" lon="-7.865037">
        <ele>785.7</ele>
        <time>1970-01-01T01:07:02.000Z</time>
      </trkpt>
      <trkpt lat="42.72624" lon="-7.86512">
        <ele>785</ele>
        <time>1970-01-01T01:07:03.000Z</time>
      </trkpt>
      <trkpt lat="42.726268" lon="-7.865206">
        <ele>784.7</ele>
        <time>1970-01-01T01:07:04.000Z</time>
      </trkpt>
      <trkpt lat="42.726297" lon="-7.865285">
        <ele>784.4</ele>
        <time>1970-01-01T01:07:05.000Z</time>
      </trkpt>
      <trkpt lat="42.72632" lon="-7.865394">
        <ele>783.7</ele>
        <time>1970-01-01T01:07:06.000Z</time>
      </trkpt>
      <trkpt lat="42.726337" lon="-7.865505">
        <ele>783.1</ele>
        <time>1970-01-01T01:07:07.000Z</time>
      </trkpt>
      <trkpt lat="42.726358" lon="-7.865594">
        <ele>782.7</ele>
        <time>1970-01-01T01:07:08.000Z</time>
      </trkpt>
      <trkpt lat="42.726381" lon="-7.865695">
        <ele>782.3</ele>
        <time>1970-01-01T01:07:09.000Z</time>
      </trkpt>
      <trkpt lat="42.726393" lon="-7.865762">
        <ele>781.9</ele>
        <time>1970-01-01T01:07:10.000Z</time>
      </trkpt>
      <trkpt lat="42.726407" lon="-7.865833">
        <ele>781.2</ele>
        <time>1970-01-01T01:07:11.000Z</time>
      </trkpt>
      <trkpt lat="42.726427" lon="-7.865894">
        <ele>781</ele>
        <time>1970-01-01T01:07:12.000Z</time>
      </trkpt>
      <trkpt lat="42.726458" lon="-7.865944">
        <ele>780.6</ele>
        <time>1970-01-01T01:07:13.000Z</time>
      </trkpt>
      <trkpt lat="42.726483" lon="-7.865992">
        <ele>780.2</ele>
        <time>1970-01-01T01:07:14.000Z</time>
      </trkpt>
      <trkpt lat="42.726514" lon="-7.866039">
        <ele>779.7</ele>
        <time>1970-01-01T01:07:15.000Z</time>
      </trkpt>
      <trkpt lat="42.726547" lon="-7.866085">
        <ele>779.3</ele>
        <time>1970-01-01T01:07:16.000Z</time>
      </trkpt>
      <trkpt lat="42.726579" lon="-7.866135">
        <ele>778.7</ele>
        <time>1970-01-01T01:07:17.000Z</time>
      </trkpt>
      <trkpt lat="42.726628" lon="-7.866182">
        <ele>778</ele>
        <time>1970-01-01T01:07:18.000Z</time>
      </trkpt>
      <trkpt lat="42.726669" lon="-7.866215">
        <ele>777.6</ele>
        <time>1970-01-01T01:07:19.000Z</time>
      </trkpt>
      <trkpt lat="42.726721" lon="-7.866263">
        <ele>776.9</ele>
        <time>1970-01-01T01:07:20.000Z</time>
      </trkpt>
      <trkpt lat="42.726785" lon="-7.866325">
        <ele>776.4</ele>
        <time>1970-01-01T01:07:21.000Z</time>
      </trkpt>
      <trkpt lat="42.726839" lon="-7.866361">
        <ele>775.9</ele>
        <time>1970-01-01T01:07:22.000Z</time>
      </trkpt>
      <trkpt lat="42.726889" lon="-7.866391">
        <ele>775.4</ele>
        <time>1970-01-01T01:07:23.000Z</time>
      </trkpt>
      <trkpt lat="42.726944" lon="-7.866424">
        <ele>774.9</ele>
        <time>1970-01-01T01:07:24.000Z</time>
      </trkpt>
      <trkpt lat="42.727013" lon="-7.866476">
        <ele>774.3</ele>
        <time>1970-01-01T01:07:25.000Z</time>
      </trkpt>
      <trkpt lat="42.727073" lon="-7.866522">
        <ele>773.8</ele>
        <time>1970-01-01T01:07:26.000Z</time>
      </trkpt>
      <trkpt lat="42.727131" lon="-7.866572">
        <ele>773.2</ele>
        <time>1970-01-01T01:07:27.000Z</time>
      </trkpt>
      <trkpt lat="42.727186" lon="-7.866634">
        <ele>772.5</ele>
        <time>1970-01-01T01:07:28.000Z</time>
      </trkpt>
      <trkpt lat="42.727236" lon="-7.8667">
        <ele>771.7</ele>
        <time>1970-01-01T01:07:29.000Z</time>
      </trkpt>
      <trkpt lat="42.727278" lon="-7.866765">
        <ele>770.7</ele>
        <time>1970-01-01T01:07:30.000Z</time>
      </trkpt>
      <trkpt lat="42.727319" lon="-7.866839">
        <ele>769.6</ele>
        <time>1970-01-01T01:07:31.000Z</time>
      </trkpt>
      <trkpt lat="42.727347" lon="-7.866916">
        <ele>768.6</ele>
        <time>1970-01-01T01:07:32.000Z</time>
      </trkpt>
      <trkpt lat="42.72737" lon="-7.867001">
        <ele>767.6</ele>
        <time>1970-01-01T01:07:33.000Z</time>
      </trkpt>
      <trkpt lat="42.727385" lon="-7.86709">
        <ele>766.7</ele>
        <time>1970-01-01T01:07:34.000Z</time>
      </trkpt>
      <trkpt lat="42.727394" lon="-7.867177">
        <ele>766.1</ele>
        <time>1970-01-01T01:07:35.000Z</time>
      </trkpt>
      <trkpt lat="42.727399" lon="-7.867264">
        <ele>765.9</ele>
        <time>1970-01-01T01:07:36.000Z</time>
      </trkpt>
      <trkpt lat="42.727408" lon="-7.867355">
        <ele>765.5</ele>
        <time>1970-01-01T01:07:37.000Z</time>
      </trkpt>
      <trkpt lat="42.727411" lon="-7.867427">
        <ele>765.3</ele>
        <time>1970-01-01T01:07:38.000Z</time>
      </trkpt>
      <trkpt lat="42.727416" lon="-7.867512">
        <ele>765</ele>
        <time>1970-01-01T01:07:39.000Z</time>
      </trkpt>
      <trkpt lat="42.727419" lon="-7.867589">
        <ele>764.5</ele>
        <time>1970-01-01T01:07:40.000Z</time>
      </trkpt>
      <trkpt lat="42.727421" lon="-7.867661">
        <ele>763.6</ele>
        <time>1970-01-01T01:07:41.000Z</time>
      </trkpt>
      <trkpt lat="42.727428" lon="-7.867738">
        <ele>763</ele>
        <time>1970-01-01T01:07:42.000Z</time>
      </trkpt>
      <trkpt lat="42.727432" lon="-7.867818">
        <ele>762.4</ele>
        <time>1970-01-01T01:07:43.000Z</time>
      </trkpt>
      <trkpt lat="42.727433" lon="-7.8679">
        <ele>761.7</ele>
        <time>1970-01-01T01:07:44.000Z</time>
      </trkpt>
      <trkpt lat="42.727433" lon="-7.867986">
        <ele>761.7</ele>
        <time>1970-01-01T01:07:45.000Z</time>
      </trkpt>
      <trkpt lat="42.727426" lon="-7.868067">
        <ele>761.2</ele>
        <time>1970-01-01T01:07:46.000Z</time>
      </trkpt>
      <trkpt lat="42.727425" lon="-7.868148">
        <ele>760.5</ele>
        <time>1970-01-01T01:07:47.000Z</time>
      </trkpt>
      <trkpt lat="42.727419" lon="-7.868226">
        <ele>759.9</ele>
        <time>1970-01-01T01:07:48.000Z</time>
      </trkpt>
      <trkpt lat="42.72741" lon="-7.868302">
        <ele>759.5</ele>
        <time>1970-01-01T01:07:49.000Z</time>
      </trkpt>
      <trkpt lat="42.727397" lon="-7.868376">
        <ele>759.3</ele>
        <time>1970-01-01T01:07:50.000Z</time>
      </trkpt>
      <trkpt lat="42.727378" lon="-7.86845">
        <ele>759</ele>
        <time>1970-01-01T01:07:51.000Z</time>
      </trkpt>
      <trkpt lat="42.727349" lon="-7.868519">
        <ele>759</ele>
        <time>1970-01-01T01:07:52.000Z</time>
      </trkpt>
      <trkpt lat="42.727322" lon="-7.868592">
        <ele>759.1</ele>
        <time>1970-01-01T01:07:53.000Z</time>
      </trkpt>
      <trkpt lat="42.727291" lon="-7.868666">
        <ele>759.1</ele>
        <time>1970-01-01T01:07:54.000Z</time>
      </trkpt>
      <trkpt lat="42.727257" lon="-7.868737">
        <ele>759.4</ele>
        <time>1970-01-01T01:07:55.000Z</time>
      </trkpt>
      <trkpt lat="42.727223" lon="-7.868804">
        <ele>759.8</ele>
        <time>1970-01-01T01:07:56.000Z</time>
      </trkpt>
      <trkpt lat="42.727189" lon="-7.868866">
        <ele>760.3</ele>
        <time>1970-01-01T01:07:57.000Z</time>
      </trkpt>
      <trkpt lat="42.727155" lon="-7.868925">
        <ele>760.7</ele>
        <time>1970-01-01T01:07:58.000Z</time>
      </trkpt>
      <trkpt lat="42.727121" lon="-7.868985">
        <ele>761.1</ele>
        <time>1970-01-01T01:07:59.000Z</time>
      </trkpt>
      <trkpt lat="42.727088" lon="-7.869044">
        <ele>761.4</ele>
        <time>1970-01-01T01:08:00.000Z</time>
      </trkpt>
      <trkpt lat="42.727057" lon="-7.869103">
        <ele>761.8</ele>
        <time>1970-01-01T01:08:01.000Z</time>
      </trkpt>
      <trkpt lat="42.727028" lon="-7.869162">
        <ele>762.3</ele>
        <time>1970-01-01T01:08:02.000Z</time>
      </trkpt>
      <trkpt lat="42.726998" lon="-7.869218">
        <ele>762.3</ele>
        <time>1970-01-01T01:08:03.000Z</time>
      </trkpt>
      <trkpt lat="42.72697" lon="-7.869273">
        <ele>762.4</ele>
        <time>1970-01-01T01:08:04.000Z</time>
      </trkpt>
      <trkpt lat="42.726941" lon="-7.869328">
        <ele>762.6</ele>
        <time>1970-01-01T01:08:05.000Z</time>
      </trkpt>
      <trkpt lat="42.726912" lon="-7.86938">
        <ele>762.9</ele>
        <time>1970-01-01T01:08:06.000Z</time>
      </trkpt>
      <trkpt lat="42.726883" lon="-7.869428">
        <ele>763.1</ele>
        <time>1970-01-01T01:08:07.000Z</time>
      </trkpt>
      <trkpt lat="42.726853" lon="-7.869471">
        <ele>763.4</ele>
        <time>1970-01-01T01:08:08.000Z</time>
      </trkpt>
      <trkpt lat="42.726821" lon="-7.869521">
        <ele>763.7</ele>
        <time>1970-01-01T01:08:09.000Z</time>
      </trkpt>
      <trkpt lat="42.726788" lon="-7.869574">
        <ele>763.8</ele>
        <time>1970-01-01T01:08:10.000Z</time>
      </trkpt>
      <trkpt lat="42.726754" lon="-7.869629">
        <ele>764</ele>
        <time>1970-01-01T01:08:11.000Z</time>
      </trkpt>
      <trkpt lat="42.726719" lon="-7.869686">
        <ele>764.3</ele>
        <time>1970-01-01T01:08:12.000Z</time>
      </trkpt>
      <trkpt lat="42.726685" lon="-7.869742">
        <ele>764.7</ele>
        <time>1970-01-01T01:08:13.000Z</time>
      </trkpt>
      <trkpt lat="42.726649" lon="-7.8698">
        <ele>765.2</ele>
        <time>1970-01-01T01:08:14.000Z</time>
      </trkpt>
      <trkpt lat="42.72661" lon="-7.869851">
        <ele>765.7</ele>
        <time>1970-01-01T01:08:15.000Z</time>
      </trkpt>
      <trkpt lat="42.726581" lon="-7.869928">
        <ele>766.1</ele>
        <time>1970-01-01T01:08:16.000Z</time>
      </trkpt>
      <trkpt lat="42.726551" lon="-7.870005">
        <ele>766.5</ele>
        <time>1970-01-01T01:08:17.000Z</time>
      </trkpt>
      <trkpt lat="42.726524" lon="-7.870086">
        <ele>766.9</ele>
        <time>1970-01-01T01:08:18.000Z</time>
      </trkpt>
      <trkpt lat="42.726497" lon="-7.870169">
        <ele>767</ele>
        <time>1970-01-01T01:08:19.000Z</time>
      </trkpt>
      <trkpt lat="42.726468" lon="-7.870253">
        <ele>767</ele>
        <time>1970-01-01T01:08:20.000Z</time>
      </trkpt>
      <trkpt lat="42.726441" lon="-7.87032">
        <ele>766.9</ele>
        <time>1970-01-01T01:08:21.000Z</time>
      </trkpt>
      <trkpt lat="42.726421" lon="-7.870395">
        <ele>766.7</ele>
        <time>1970-01-01T01:08:22.000Z</time>
      </trkpt>
      <trkpt lat="42.726406" lon="-7.870475">
        <ele>766.5</ele>
        <time>1970-01-01T01:08:23.000Z</time>
      </trkpt>
      <trkpt lat="42.72639" lon="-7.870562">
        <ele>766</ele>
        <time>1970-01-01T01:08:24.000Z</time>
      </trkpt>
      <trkpt lat="42.726375" lon="-7.870647">
        <ele>765.7</ele>
        <time>1970-01-01T01:08:25.000Z</time>
      </trkpt>
      <trkpt lat="42.72636" lon="-7.870728">
        <ele>764.7</ele>
        <time>1970-01-01T01:08:26.000Z</time>
      </trkpt>
      <trkpt lat="42.726346" lon="-7.87081">
        <ele>764</ele>
        <time>1970-01-01T01:08:27.000Z</time>
      </trkpt>
      <trkpt lat="42.726327" lon="-7.870884">
        <ele>763.4</ele>
        <time>1970-01-01T01:08:28.000Z</time>
      </trkpt>
      <trkpt lat="42.726311" lon="-7.870959">
        <ele>762.5</ele>
        <time>1970-01-01T01:08:29.000Z</time>
      </trkpt>
      <trkpt lat="42.726294" lon="-7.871043">
        <ele>761.6</ele>
        <time>1970-01-01T01:08:30.000Z</time>
      </trkpt>
      <trkpt lat="42.726274" lon="-7.871127">
        <ele>760.8</ele>
        <time>1970-01-01T01:08:31.000Z</time>
      </trkpt>
      <trkpt lat="42.726246" lon="-7.871207">
        <ele>759.8</ele>
        <time>1970-01-01T01:08:32.000Z</time>
      </trkpt>
      <trkpt lat="42.726221" lon="-7.871285">
        <ele>758.7</ele>
        <time>1970-01-01T01:08:33.000Z</time>
      </trkpt>
      <trkpt lat="42.726194" lon="-7.87136">
        <ele>757.2</ele>
        <time>1970-01-01T01:08:34.000Z</time>
      </trkpt>
      <trkpt lat="42.726164" lon="-7.871435">
        <ele>756.2</ele>
        <time>1970-01-01T01:08:35.000Z</time>
      </trkpt>
      <trkpt lat="42.726132" lon="-7.871513">
        <ele>755.1</ele>
        <time>1970-01-01T01:08:36.000Z</time>
      </trkpt>
      <trkpt lat="42.726105" lon="-7.871591">
        <ele>754.1</ele>
        <time>1970-01-01T01:08:37.000Z</time>
      </trkpt>
      <trkpt lat="42.72608" lon="-7.871665">
        <ele>753.2</ele>
        <time>1970-01-01T01:08:38.000Z</time>
      </trkpt>
      <trkpt lat="42.726069" lon="-7.871743">
        <ele>751.9</ele>
        <time>1970-01-01T01:08:39.000Z</time>
      </trkpt>
      <trkpt lat="42.726061" lon="-7.871819">
        <ele>751.1</ele>
        <time>1970-01-01T01:08:40.000Z</time>
      </trkpt>
      <trkpt lat="42.726064" lon="-7.871891">
        <ele>750.4</ele>
        <time>1970-01-01T01:08:41.000Z</time>
      </trkpt>
      <trkpt lat="42.726078" lon="-7.871953">
        <ele>749.9</ele>
        <time>1970-01-01T01:08:42.000Z</time>
      </trkpt>
      <trkpt lat="42.726104" lon="-7.872009">
        <ele>749.1</ele>
        <time>1970-01-01T01:08:43.000Z</time>
      </trkpt>
      <trkpt lat="42.726146" lon="-7.872059">
        <ele>748.8</ele>
        <time>1970-01-01T01:08:44.000Z</time>
      </trkpt>
      <trkpt lat="42.726198" lon="-7.872098">
        <ele>749.1</ele>
        <time>1970-01-01T01:08:45.000Z</time>
      </trkpt>
      <trkpt lat="42.726255" lon="-7.872123">
        <ele>749.1</ele>
        <time>1970-01-01T01:08:46.000Z</time>
      </trkpt>
      <trkpt lat="42.72631" lon="-7.872136">
        <ele>749.4</ele>
        <time>1970-01-01T01:08:47.000Z</time>
      </trkpt>
      <trkpt lat="42.726365" lon="-7.87214">
        <ele>750</ele>
        <time>1970-01-01T01:08:48.000Z</time>
      </trkpt>
      <trkpt lat="42.726423" lon="-7.872139">
        <ele>750.4</ele>
        <time>1970-01-01T01:08:49.000Z</time>
      </trkpt>
      <trkpt lat="42.726479" lon="-7.87214">
        <ele>750.8</ele>
        <time>1970-01-01T01:08:50.000Z</time>
      </trkpt>
      <trkpt lat="42.726527" lon="-7.872141">
        <ele>751.2</ele>
        <time>1970-01-01T01:08:51.000Z</time>
      </trkpt>
      <trkpt lat="42.72657" lon="-7.872151">
        <ele>751.4</ele>
        <time>1970-01-01T01:08:52.000Z</time>
      </trkpt>
      <trkpt lat="42.72661" lon="-7.872171">
        <ele>751.3</ele>
        <time>1970-01-01T01:08:53.000Z</time>
      </trkpt>
      <trkpt lat="42.726647" lon="-7.872196">
        <ele>750.9</ele>
        <time>1970-01-01T01:08:54.000Z</time>
      </trkpt>
      <trkpt lat="42.726678" lon="-7.87223">
        <ele>750.5</ele>
        <time>1970-01-01T01:08:55.000Z</time>
      </trkpt>
      <trkpt lat="42.726702" lon="-7.872279">
        <ele>750</ele>
        <time>1970-01-01T01:08:56.000Z</time>
      </trkpt>
      <trkpt lat="42.726717" lon="-7.872334">
        <ele>749.5</ele>
        <time>1970-01-01T01:08:57.000Z</time>
      </trkpt>
      <trkpt lat="42.726718" lon="-7.872393">
        <ele>749</ele>
        <time>1970-01-01T01:08:58.000Z</time>
      </trkpt>
      <trkpt lat="42.726698" lon="-7.872449">
        <ele>748.2</ele>
        <time>1970-01-01T01:08:59.000Z</time>
      </trkpt>
      <trkpt lat="42.726672" lon="-7.872504">
        <ele>748.2</ele>
        <time>1970-01-01T01:09:00.000Z</time>
      </trkpt>
      <trkpt lat="42.726642" lon="-7.872563">
        <ele>747.8</ele>
        <time>1970-01-01T01:09:01.000Z</time>
      </trkpt>
      <trkpt lat="42.726623" lon="-7.872619">
        <ele>747.2</ele>
        <time>1970-01-01T01:09:02.000Z</time>
      </trkpt>
      <trkpt lat="42.726606" lon="-7.872664">
        <ele>746.9</ele>
        <time>1970-01-01T01:09:03.000Z</time>
      </trkpt>
      <trkpt lat="42.726599" lon="-7.872703">
        <ele>746.7</ele>
        <time>1970-01-01T01:09:04.000Z</time>
      </trkpt>
      <trkpt lat="42.7266" lon="-7.872731">
        <ele>746.6</ele>
        <time>1970-01-01T01:09:05.000Z</time>
      </trkpt>
      <trkpt lat="42.726594" lon="-7.872751">
        <ele>746.5</ele>
        <time>1970-01-01T01:09:06.000Z</time>
      </trkpt>
      <trkpt lat="42.726593" lon="-7.87277">
        <ele>746.4</ele>
        <time>1970-01-01T01:09:07.000Z</time>
      </trkpt>
      <trkpt lat="42.726586" lon="-7.872791">
        <ele>746.3</ele>
        <time>1970-01-01T01:09:08.000Z</time>
      </trkpt>
      <trkpt lat="42.726586" lon="-7.872817">
        <ele>746.2</ele>
        <time>1970-01-01T01:09:09.000Z</time>
      </trkpt>
      <trkpt lat="42.726588" lon="-7.872836">
        <ele>746.1</ele>
        <time>1970-01-01T01:09:10.000Z</time>
      </trkpt>
      <trkpt lat="42.726589" lon="-7.872859">
        <ele>746</ele>
        <time>1970-01-01T01:09:11.000Z</time>
      </trkpt>
      <trkpt lat="42.726595" lon="-7.872892">
        <ele>745.9</ele>
        <time>1970-01-01T01:09:12.000Z</time>
      </trkpt>
      <trkpt lat="42.726595" lon="-7.872919">
        <ele>745.9</ele>
        <time>1970-01-01T01:09:13.000Z</time>
      </trkpt>
      <trkpt lat="42.726599" lon="-7.872952">
        <ele>745.8</ele>
        <time>1970-01-01T01:09:14.000Z</time>
      </trkpt>
      <trkpt lat="42.726601" lon="-7.872985">
        <ele>745.7</ele>
        <time>1970-01-01T01:09:15.000Z</time>
      </trkpt>
      <trkpt lat="42.726604" lon="-7.873021">
        <ele>745.6</ele>
        <time>1970-01-01T01:09:16.000Z</time>
      </trkpt>
      <trkpt lat="42.726609" lon="-7.873051">
        <ele>745.5</ele>
        <time>1970-01-01T01:09:17.000Z</time>
      </trkpt>
      <trkpt lat="42.726614" lon="-7.873076">
        <ele>745.4</ele>
        <time>1970-01-01T01:09:18.000Z</time>
      </trkpt>
      <trkpt lat="42.726625" lon="-7.873108">
        <ele>745.3</ele>
        <time>1970-01-01T01:09:19.000Z</time>
      </trkpt>
      <trkpt lat="42.726632" lon="-7.873141">
        <ele>745.1</ele>
        <time>1970-01-01T01:09:20.000Z</time>
      </trkpt>
      <trkpt lat="42.726644" lon="-7.873181">
        <ele>745</ele>
        <time>1970-01-01T01:09:21.000Z</time>
      </trkpt>
      <trkpt lat="42.726657" lon="-7.873231">
        <ele>744.8</ele>
        <time>1970-01-01T01:09:22.000Z</time>
      </trkpt>
      <trkpt lat="42.726673" lon="-7.873281">
        <ele>744.7</ele>
        <time>1970-01-01T01:09:23.000Z</time>
      </trkpt>
      <trkpt lat="42.72669" lon="-7.873334">
        <ele>744.4</ele>
        <time>1970-01-01T01:09:24.000Z</time>
      </trkpt>
      <trkpt lat="42.72671" lon="-7.873387">
        <ele>744.2</ele>
        <time>1970-01-01T01:09:25.000Z</time>
      </trkpt>
      <trkpt lat="42.726735" lon="-7.873431">
        <ele>744</ele>
        <time>1970-01-01T01:09:26.000Z</time>
      </trkpt>
      <trkpt lat="42.72675" lon="-7.873482">
        <ele>743.7</ele>
        <time>1970-01-01T01:09:27.000Z</time>
      </trkpt>
      <trkpt lat="42.726772" lon="-7.873536">
        <ele>743.5</ele>
        <time>1970-01-01T01:09:28.000Z</time>
      </trkpt>
      <trkpt lat="42.726795" lon="-7.873595">
        <ele>743.1</ele>
        <time>1970-01-01T01:09:29.000Z</time>
      </trkpt>
      <trkpt lat="42.726819" lon="-7.873655">
        <ele>742.7</ele>
        <time>1970-01-01T01:09:30.000Z</time>
      </trkpt>
      <trkpt lat="42.726846" lon="-7.873719">
        <ele>742.2</ele>
        <time>1970-01-01T01:09:31.000Z</time>
      </trkpt>
      <trkpt lat="42.726874" lon="-7.873787">
        <ele>741.7</ele>
        <time>1970-01-01T01:09:32.000Z</time>
      </trkpt>
      <trkpt lat="42.7269" lon="-7.873848">
        <ele>741.2</ele>
        <time>1970-01-01T01:09:33.000Z</time>
      </trkpt>
      <trkpt lat="42.726925" lon="-7.873909">
        <ele>740.9</ele>
        <time>1970-01-01T01:09:34.000Z</time>
      </trkpt>
      <trkpt lat="42.72695" lon="-7.873974">
        <ele>740.6</ele>
        <time>1970-01-01T01:09:35.000Z</time>
      </trkpt>
      <trkpt lat="42.726972" lon="-7.874039">
        <ele>740.2</ele>
        <time>1970-01-01T01:09:36.000Z</time>
      </trkpt>
      <trkpt lat="42.726994" lon="-7.874109">
        <ele>739.9</ele>
        <time>1970-01-01T01:09:37.000Z</time>
      </trkpt>
      <trkpt lat="42.72701" lon="-7.874177">
        <ele>739.7</ele>
        <time>1970-01-01T01:09:38.000Z</time>
      </trkpt>
      <trkpt lat="42.72703" lon="-7.874238">
        <ele>739.6</ele>
        <time>1970-01-01T01:09:39.000Z</time>
      </trkpt>
      <trkpt lat="42.727051" lon="-7.874297">
        <ele>739.5</ele>
        <time>1970-01-01T01:09:40.000Z</time>
      </trkpt>
      <trkpt lat="42.727076" lon="-7.874362">
        <ele>739.3</ele>
        <time>1970-01-01T01:09:41.000Z</time>
      </trkpt>
      <trkpt lat="42.727101" lon="-7.874416">
        <ele>739.2</ele>
        <time>1970-01-01T01:09:42.000Z</time>
      </trkpt>
      <trkpt lat="42.727125" lon="-7.874473">
        <ele>739.2</ele>
        <time>1970-01-01T01:09:43.000Z</time>
      </trkpt>
      <trkpt lat="42.727148" lon="-7.874535">
        <ele>739.2</ele>
        <time>1970-01-01T01:09:44.000Z</time>
      </trkpt>
      <trkpt lat="42.727173" lon="-7.874602">
        <ele>739.1</ele>
        <time>1970-01-01T01:09:45.000Z</time>
      </trkpt>
      <trkpt lat="42.727199" lon="-7.874673">
        <ele>739</ele>
        <time>1970-01-01T01:09:46.000Z</time>
      </trkpt>
      <trkpt lat="42.727226" lon="-7.874744">
        <ele>738.9</ele>
        <time>1970-01-01T01:09:47.000Z</time>
      </trkpt>
      <trkpt lat="42.727253" lon="-7.874813">
        <ele>738.9</ele>
        <time>1970-01-01T01:09:48.000Z</time>
      </trkpt>
      <trkpt lat="42.727282" lon="-7.874876">
        <ele>738.7</ele>
        <time>1970-01-01T01:09:49.000Z</time>
      </trkpt>
      <trkpt lat="42.727313" lon="-7.874941">
        <ele>738.7</ele>
        <time>1970-01-01T01:09:50.000Z</time>
      </trkpt>
      <trkpt lat="42.727346" lon="-7.875006">
        <ele>738.9</ele>
        <time>1970-01-01T01:09:51.000Z</time>
      </trkpt>
      <trkpt lat="42.727379" lon="-7.875049">
        <ele>739.1</ele>
        <time>1970-01-01T01:09:52.000Z</time>
      </trkpt>
      <trkpt lat="42.727414" lon="-7.875083">
        <ele>739.2</ele>
        <time>1970-01-01T01:09:53.000Z</time>
      </trkpt>
      <trkpt lat="42.727454" lon="-7.875112">
        <ele>739.5</ele>
        <time>1970-01-01T01:09:54.000Z</time>
      </trkpt>
      <trkpt lat="42.727491" lon="-7.875156">
        <ele>739.8</ele>
        <time>1970-01-01T01:09:55.000Z</time>
      </trkpt>
      <trkpt lat="42.727525" lon="-7.875192">
        <ele>739.6</ele>
        <time>1970-01-01T01:09:56.000Z</time>
      </trkpt>
      <trkpt lat="42.727559" lon="-7.875226">
        <ele>739.4</ele>
        <time>1970-01-01T01:09:57.000Z</time>
      </trkpt>
      <trkpt lat="42.727594" lon="-7.875255">
        <ele>739</ele>
        <time>1970-01-01T01:09:58.000Z</time>
      </trkpt>
      <trkpt lat="42.727628" lon="-7.875274">
        <ele>738.6</ele>
        <time>1970-01-01T01:09:59.000Z</time>
      </trkpt>
      <trkpt lat="42.727661" lon="-7.875304">
        <ele>738.4</ele>
        <time>1970-01-01T01:10:00.000Z</time>
      </trkpt>
      <trkpt lat="42.727693" lon="-7.875327">
        <ele>738.1</ele>
        <time>1970-01-01T01:10:01.000Z</time>
      </trkpt>
      <trkpt lat="42.727726" lon="-7.875342">
        <ele>737.7</ele>
        <time>1970-01-01T01:10:02.000Z</time>
      </trkpt>
      <trkpt lat="42.727758" lon="-7.875362">
        <ele>737.3</ele>
        <time>1970-01-01T01:10:03.000Z</time>
      </trkpt>
      <trkpt lat="42.727791" lon="-7.875385">
        <ele>736.9</ele>
        <time>1970-01-01T01:10:04.000Z</time>
      </trkpt>
      <trkpt lat="42.727823" lon="-7.875404">
        <ele>736.6</ele>
        <time>1970-01-01T01:10:05.000Z</time>
      </trkpt>
      <trkpt lat="42.727855" lon="-7.875428">
        <ele>736.3</ele>
        <time>1970-01-01T01:10:06.000Z</time>
      </trkpt>
      <trkpt lat="42.727888" lon="-7.875451">
        <ele>735.8</ele>
        <time>1970-01-01T01:10:07.000Z</time>
      </trkpt>
      <trkpt lat="42.727918" lon="-7.875478">
        <ele>735.4</ele>
        <time>1970-01-01T01:10:08.000Z</time>
      </trkpt>
      <trkpt lat="42.727948" lon="-7.875501">
        <ele>735.2</ele>
        <time>1970-01-01T01:10:09.000Z</time>
      </trkpt>
      <trkpt lat="42.727979" lon="-7.875522">
        <ele>735</ele>
        <time>1970-01-01T01:10:10.000Z</time>
      </trkpt>
      <trkpt lat="42.72801" lon="-7.875543">
        <ele>734.8</ele>
        <time>1970-01-01T01:10:11.000Z</time>
      </trkpt>
      <trkpt lat="42.728041" lon="-7.875563">
        <ele>734.7</ele>
        <time>1970-01-01T01:10:12.000Z</time>
      </trkpt>
      <trkpt lat="42.728072" lon="-7.875583">
        <ele>734.5</ele>
        <time>1970-01-01T01:10:13.000Z</time>
      </trkpt>
      <trkpt lat="42.728101" lon="-7.875606">
        <ele>734.2</ele>
        <time>1970-01-01T01:10:14.000Z</time>
      </trkpt>
      <trkpt lat="42.728131" lon="-7.875634">
        <ele>733.8</ele>
        <time>1970-01-01T01:10:15.000Z</time>
      </trkpt>
      <trkpt lat="42.72816" lon="-7.875662">
        <ele>733.8</ele>
        <time>1970-01-01T01:10:16.000Z</time>
      </trkpt>
      <trkpt lat="42.728189" lon="-7.875687">
        <ele>733.9</ele>
        <time>1970-01-01T01:10:17.000Z</time>
      </trkpt>
      <trkpt lat="42.728219" lon="-7.875716">
        <ele>733.9</ele>
        <time>1970-01-01T01:10:18.000Z</time>
      </trkpt>
      <trkpt lat="42.728249" lon="-7.875735">
        <ele>733.6</ele>
        <time>1970-01-01T01:10:19.000Z</time>
      </trkpt>
      <trkpt lat="42.728278" lon="-7.875756">
        <ele>733.3</ele>
        <time>1970-01-01T01:10:20.000Z</time>
      </trkpt>
      <trkpt lat="42.728302" lon="-7.875773">
        <ele>733.3</ele>
        <time>1970-01-01T01:10:21.000Z</time>
      </trkpt>
      <trkpt lat="42.728332" lon="-7.875798">
        <ele>733.2</ele>
        <time>1970-01-01T01:10:22.000Z</time>
      </trkpt>
      <trkpt lat="42.728364" lon="-7.875822">
        <ele>733.1</ele>
        <time>1970-01-01T01:10:23.000Z</time>
      </trkpt>
      <trkpt lat="42.728394" lon="-7.875841">
        <ele>732.9</ele>
        <time>1970-01-01T01:10:24.000Z</time>
      </trkpt>
      <trkpt lat="42.728423" lon="-7.875863">
        <ele>732.7</ele>
        <time>1970-01-01T01:10:25.000Z</time>
      </trkpt>
      <trkpt lat="42.728457" lon="-7.875891">
        <ele>732.7</ele>
        <time>1970-01-01T01:10:26.000Z</time>
      </trkpt>
      <trkpt lat="42.728494" lon="-7.875921">
        <ele>732.7</ele>
        <time>1970-01-01T01:10:27.000Z</time>
      </trkpt>
      <trkpt lat="42.728532" lon="-7.875947">
        <ele>732.7</ele>
        <time>1970-01-01T01:10:28.000Z</time>
      </trkpt>
      <trkpt lat="42.72857" lon="-7.875976">
        <ele>732.7</ele>
        <time>1970-01-01T01:10:29.000Z</time>
      </trkpt>
      <trkpt lat="42.728608" lon="-7.876007">
        <ele>732.8</ele>
        <time>1970-01-01T01:10:30.000Z</time>
      </trkpt>
      <trkpt lat="42.728646" lon="-7.876043">
        <ele>733</ele>
        <time>1970-01-01T01:10:31.000Z</time>
      </trkpt>
      <trkpt lat="42.728699" lon="-7.876106">
        <ele>733.7</ele>
        <time>1970-01-01T01:10:32.000Z</time>
      </trkpt>
      <trkpt lat="42.728753" lon="-7.87615">
        <ele>733.9</ele>
        <time>1970-01-01T01:10:33.000Z</time>
      </trkpt>
      <trkpt lat="42.728807" lon="-7.876203">
        <ele>734.3</ele>
        <time>1970-01-01T01:10:34.000Z</time>
      </trkpt>
      <trkpt lat="42.728854" lon="-7.876249">
        <ele>734.7</ele>
        <time>1970-01-01T01:10:35.000Z</time>
      </trkpt>
      <trkpt lat="42.728901" lon="-7.876297">
        <ele>734.8</ele>
        <time>1970-01-01T01:10:36.000Z</time>
      </trkpt>
      <trkpt lat="42.728948" lon="-7.876344">
        <ele>735.3</ele>
        <time>1970-01-01T01:10:37.000Z</time>
      </trkpt>
      <trkpt lat="42.728996" lon="-7.876391">
        <ele>735.9</ele>
        <time>1970-01-01T01:10:38.000Z</time>
      </trkpt>
      <trkpt lat="42.729046" lon="-7.87644">
        <ele>736.4</ele>
        <time>1970-01-01T01:10:39.000Z</time>
      </trkpt>
      <trkpt lat="42.729096" lon="-7.876489">
        <ele>736.2</ele>
        <time>1970-01-01T01:10:40.000Z</time>
      </trkpt>
      <trkpt lat="42.729144" lon="-7.876539">
        <ele>736.4</ele>
        <time>1970-01-01T01:10:41.000Z</time>
      </trkpt>
      <trkpt lat="42.729195" lon="-7.876589">
        <ele>736.6</ele>
        <time>1970-01-01T01:10:42.000Z</time>
      </trkpt>
      <trkpt lat="42.729243" lon="-7.87664">
        <ele>736.5</ele>
        <time>1970-01-01T01:10:43.000Z</time>
      </trkpt>
      <trkpt lat="42.729288" lon="-7.876695">
        <ele>736.8</ele>
        <time>1970-01-01T01:10:44.000Z</time>
      </trkpt>
      <trkpt lat="42.729331" lon="-7.876747">
        <ele>737.2</ele>
        <time>1970-01-01T01:10:45.000Z</time>
      </trkpt>
      <trkpt lat="42.72937" lon="-7.876788">
        <ele>737.4</ele>
        <time>1970-01-01T01:10:46.000Z</time>
      </trkpt>
      <trkpt lat="42.729416" lon="-7.876827">
        <ele>737.3</ele>
        <time>1970-01-01T01:10:47.000Z</time>
      </trkpt>
      <trkpt lat="42.729465" lon="-7.876876">
        <ele>737.1</ele>
        <time>1970-01-01T01:10:48.000Z</time>
      </trkpt>
      <trkpt lat="42.729518" lon="-7.876924">
        <ele>737.3</ele>
        <time>1970-01-01T01:10:49.000Z</time>
      </trkpt>
      <trkpt lat="42.729565" lon="-7.87697">
        <ele>737.5</ele>
        <time>1970-01-01T01:10:50.000Z</time>
      </trkpt>
      <trkpt lat="42.729608" lon="-7.877025">
        <ele>737.6</ele>
        <time>1970-01-01T01:10:51.000Z</time>
      </trkpt>
      <trkpt lat="42.729646" lon="-7.877078">
        <ele>737.5</ele>
        <time>1970-01-01T01:10:52.000Z</time>
      </trkpt>
      <trkpt lat="42.729687" lon="-7.877126">
        <ele>737.5</ele>
        <time>1970-01-01T01:10:53.000Z</time>
      </trkpt>
      <trkpt lat="42.72974" lon="-7.877174">
        <ele>737.5</ele>
        <time>1970-01-01T01:10:54.000Z</time>
      </trkpt>
      <trkpt lat="42.729792" lon="-7.877224">
        <ele>737.5</ele>
        <time>1970-01-01T01:10:55.000Z</time>
      </trkpt>
      <trkpt lat="42.729839" lon="-7.877274">
        <ele>737.5</ele>
        <time>1970-01-01T01:10:56.000Z</time>
      </trkpt>
      <trkpt lat="42.729888" lon="-7.877325">
        <ele>737.5</ele>
        <time>1970-01-01T01:10:57.000Z</time>
      </trkpt>
      <trkpt lat="42.729939" lon="-7.877373">
        <ele>737.3</ele>
        <time>1970-01-01T01:10:58.000Z</time>
      </trkpt>
      <trkpt lat="42.729985" lon="-7.877413">
        <ele>736.8</ele>
        <time>1970-01-01T01:10:59.000Z</time>
      </trkpt>
      <trkpt lat="42.730032" lon="-7.877451">
        <ele>736.6</ele>
        <time>1970-01-01T01:11:00.000Z</time>
      </trkpt>
      <trkpt lat="42.730077" lon="-7.877486">
        <ele>736.3</ele>
        <time>1970-01-01T01:11:01.000Z</time>
      </trkpt>
      <trkpt lat="42.730116" lon="-7.877507">
        <ele>735.7</ele>
        <time>1970-01-01T01:11:02.000Z</time>
      </trkpt>
      <trkpt lat="42.730149" lon="-7.877535">
        <ele>735.3</ele>
        <time>1970-01-01T01:11:03.000Z</time>
      </trkpt>
      <trkpt lat="42.730173" lon="-7.877557">
        <ele>735.2</ele>
        <time>1970-01-01T01:11:04.000Z</time>
      </trkpt>
      <trkpt lat="42.730209" lon="-7.877582">
        <ele>735.1</ele>
        <time>1970-01-01T01:11:05.000Z</time>
      </trkpt>
      <trkpt lat="42.730254" lon="-7.877602">
        <ele>734.8</ele>
        <time>1970-01-01T01:11:06.000Z</time>
      </trkpt>
      <trkpt lat="42.730294" lon="-7.877639">
        <ele>734.5</ele>
        <time>1970-01-01T01:11:07.000Z</time>
      </trkpt>
      <trkpt lat="42.730334" lon="-7.8777">
        <ele>733.9</ele>
        <time>1970-01-01T01:11:08.000Z</time>
      </trkpt>
      <trkpt lat="42.730459" lon="-7.877831">
        <ele>732.6</ele>
        <time>1970-01-01T01:11:09.000Z</time>
      </trkpt>
      <trkpt lat="42.730487" lon="-7.877901">
        <ele>732.3</ele>
        <time>1970-01-01T01:11:10.000Z</time>
      </trkpt>
      <trkpt lat="42.730508" lon="-7.877963">
        <ele>732.4</ele>
        <time>1970-01-01T01:11:11.000Z</time>
      </trkpt>
      <trkpt lat="42.730528" lon="-7.878041">
        <ele>732.5</ele>
        <time>1970-01-01T01:11:12.000Z</time>
      </trkpt>
      <trkpt lat="42.730553" lon="-7.878089">
        <ele>732.4</ele>
        <time>1970-01-01T01:11:13.000Z</time>
      </trkpt>
      <trkpt lat="42.730576" lon="-7.878161">
        <ele>731.9</ele>
        <time>1970-01-01T01:11:14.000Z</time>
      </trkpt>
      <trkpt lat="42.730618" lon="-7.878265">
        <ele>731.1</ele>
        <time>1970-01-01T01:11:15.000Z</time>
      </trkpt>
      <trkpt lat="42.730667" lon="-7.878388">
        <ele>730.6</ele>
        <time>1970-01-01T01:11:16.000Z</time>
      </trkpt>
      <trkpt lat="42.730714" lon="-7.878524">
        <ele>729.4</ele>
        <time>1970-01-01T01:11:17.000Z</time>
      </trkpt>
      <trkpt lat="42.730746" lon="-7.878625">
        <ele>728.8</ele>
        <time>1970-01-01T01:11:18.000Z</time>
      </trkpt>
      <trkpt lat="42.73077" lon="-7.878698">
        <ele>728.4</ele>
        <time>1970-01-01T01:11:19.000Z</time>
      </trkpt>
      <trkpt lat="42.730788" lon="-7.878773">
        <ele>727.7</ele>
        <time>1970-01-01T01:11:20.000Z</time>
      </trkpt>
      <trkpt lat="42.730805" lon="-7.878874">
        <ele>726.5</ele>
        <time>1970-01-01T01:11:21.000Z</time>
      </trkpt>
      <trkpt lat="42.730812" lon="-7.878947">
        <ele>725.9</ele>
        <time>1970-01-01T01:11:22.000Z</time>
      </trkpt>
      <trkpt lat="42.730815" lon="-7.879018">
        <ele>725.9</ele>
        <time>1970-01-01T01:11:23.000Z</time>
      </trkpt>
      <trkpt lat="42.730813" lon="-7.879096">
        <ele>725.2</ele>
        <time>1970-01-01T01:11:24.000Z</time>
      </trkpt>
      <trkpt lat="42.730806" lon="-7.87914">
        <ele>724.6</ele>
        <time>1970-01-01T01:11:25.000Z</time>
      </trkpt>
      <trkpt lat="42.730796" lon="-7.879183">
        <ele>724.6</ele>
        <time>1970-01-01T01:11:26.000Z</time>
      </trkpt>
      <trkpt lat="42.730786" lon="-7.879209">
        <ele>724.7</ele>
        <time>1970-01-01T01:11:27.000Z</time>
      </trkpt>
      <trkpt lat="42.730779" lon="-7.879239">
        <ele>725.4</ele>
        <time>1970-01-01T01:11:28.000Z</time>
      </trkpt>
      <trkpt lat="42.730771" lon="-7.879258">
        <ele>725.5</ele>
        <time>1970-01-01T01:11:29.000Z</time>
      </trkpt>
      <trkpt lat="42.730761" lon="-7.879281">
        <ele>725.5</ele>
        <time>1970-01-01T01:11:30.000Z</time>
      </trkpt>
      <trkpt lat="42.730748" lon="-7.879304">
        <ele>726.2</ele>
        <time>1970-01-01T01:11:31.000Z</time>
      </trkpt>
      <trkpt lat="42.730741" lon="-7.879332">
        <ele>726.3</ele>
        <time>1970-01-01T01:11:32.000Z</time>
      </trkpt>
      <trkpt lat="42.730732" lon="-7.879348">
        <ele>726.2</ele>
        <time>1970-01-01T01:11:33.000Z</time>
      </trkpt>
      <trkpt lat="42.730727" lon="-7.879374">
        <ele>726.3</ele>
        <time>1970-01-01T01:11:34.000Z</time>
      </trkpt>
      <trkpt lat="42.730717" lon="-7.879423">
        <ele>726.3</ele>
        <time>1970-01-01T01:11:35.000Z</time>
      </trkpt>
      <trkpt lat="42.730705" lon="-7.87946">
        <ele>726.9</ele>
        <time>1970-01-01T01:11:36.000Z</time>
      </trkpt>
      <trkpt lat="42.730688" lon="-7.879491">
        <ele>726.9</ele>
        <time>1970-01-01T01:11:37.000Z</time>
      </trkpt>
      <trkpt lat="42.730672" lon="-7.879509">
        <ele>727.7</ele>
        <time>1970-01-01T01:11:38.000Z</time>
      </trkpt>
      <trkpt lat="42.730651" lon="-7.879527">
        <ele>728.4</ele>
        <time>1970-01-01T01:11:39.000Z</time>
      </trkpt>
      <trkpt lat="42.730636" lon="-7.879542">
        <ele>728.4</ele>
        <time>1970-01-01T01:11:40.000Z</time>
      </trkpt>
      <trkpt lat="42.730622" lon="-7.879569">
        <ele>729.2</ele>
        <time>1970-01-01T01:11:41.000Z</time>
      </trkpt>
      <trkpt lat="42.730607" lon="-7.879599">
        <ele>729.2</ele>
        <time>1970-01-01T01:11:42.000Z</time>
      </trkpt>
      <trkpt lat="42.730588" lon="-7.879613">
        <ele>729.9</ele>
        <time>1970-01-01T01:11:43.000Z</time>
      </trkpt>
      <trkpt lat="42.730569" lon="-7.879623">
        <ele>730</ele>
        <time>1970-01-01T01:11:44.000Z</time>
      </trkpt>
      <trkpt lat="42.730555" lon="-7.879653">
        <ele>730.7</ele>
        <time>1970-01-01T01:11:45.000Z</time>
      </trkpt>
      <trkpt lat="42.730539" lon="-7.879685">
        <ele>730.7</ele>
        <time>1970-01-01T01:11:46.000Z</time>
      </trkpt>
      <trkpt lat="42.730531" lon="-7.879722">
        <ele>730.7</ele>
        <time>1970-01-01T01:11:47.000Z</time>
      </trkpt>
      <trkpt lat="42.730527" lon="-7.879763">
        <ele>731.3</ele>
        <time>1970-01-01T01:11:48.000Z</time>
      </trkpt>
      <trkpt lat="42.730515" lon="-7.879793">
        <ele>731.2</ele>
        <time>1970-01-01T01:11:49.000Z</time>
      </trkpt>
      <trkpt lat="42.730505" lon="-7.87982">
        <ele>731.1</ele>
        <time>1970-01-01T01:11:50.000Z</time>
      </trkpt>
      <trkpt lat="42.730492" lon="-7.879853">
        <ele>731.8</ele>
        <time>1970-01-01T01:11:51.000Z</time>
      </trkpt>
      <trkpt lat="42.73048" lon="-7.879876">
        <ele>731.7</ele>
        <time>1970-01-01T01:11:52.000Z</time>
      </trkpt>
      <trkpt lat="42.730463" lon="-7.879889">
        <ele>732.3</ele>
        <time>1970-01-01T01:11:53.000Z</time>
      </trkpt>
      <trkpt lat="42.730439" lon="-7.879905">
        <ele>732.2</ele>
        <time>1970-01-01T01:11:54.000Z</time>
      </trkpt>
      <trkpt lat="42.730423" lon="-7.879922">
        <ele>732.8</ele>
        <time>1970-01-01T01:11:55.000Z</time>
      </trkpt>
      <trkpt lat="42.730412" lon="-7.879943">
        <ele>732.9</ele>
        <time>1970-01-01T01:11:56.000Z</time>
      </trkpt>
      <trkpt lat="42.730401" lon="-7.879968">
        <ele>733.3</ele>
        <time>1970-01-01T01:11:57.000Z</time>
      </trkpt>
      <trkpt lat="42.730384" lon="-7.879999">
        <ele>733.1</ele>
        <time>1970-01-01T01:11:58.000Z</time>
      </trkpt>
      <trkpt lat="42.730365" lon="-7.880035">
        <ele>733.6</ele>
        <time>1970-01-01T01:11:59.000Z</time>
      </trkpt>
      <trkpt lat="42.730346" lon="-7.880074">
        <ele>733.4</ele>
        <time>1970-01-01T01:12:00.000Z</time>
      </trkpt>
      <trkpt lat="42.730328" lon="-7.880111">
        <ele>734.1</ele>
        <time>1970-01-01T01:12:01.000Z</time>
      </trkpt>
      <trkpt lat="42.730304" lon="-7.880148">
        <ele>734.5</ele>
        <time>1970-01-01T01:12:02.000Z</time>
      </trkpt>
      <trkpt lat="42.730284" lon="-7.880179">
        <ele>734.4</ele>
        <time>1970-01-01T01:12:03.000Z</time>
      </trkpt>
      <trkpt lat="42.730264" lon="-7.88021">
        <ele>734.9</ele>
        <time>1970-01-01T01:12:04.000Z</time>
      </trkpt>
      <trkpt lat="42.730245" lon="-7.880243">
        <ele>735</ele>
        <time>1970-01-01T01:12:05.000Z</time>
      </trkpt>
      <trkpt lat="42.730227" lon="-7.880274">
        <ele>735.5</ele>
        <time>1970-01-01T01:12:06.000Z</time>
      </trkpt>
      <trkpt lat="42.730209" lon="-7.880309">
        <ele>735.9</ele>
        <time>1970-01-01T01:12:07.000Z</time>
      </trkpt>
      <trkpt lat="42.730191" lon="-7.880343">
        <ele>735.8</ele>
        <time>1970-01-01T01:12:08.000Z</time>
      </trkpt>
      <trkpt lat="42.730178" lon="-7.880374">
        <ele>736.2</ele>
        <time>1970-01-01T01:12:09.000Z</time>
      </trkpt>
      <trkpt lat="42.730163" lon="-7.8804">
        <ele>736.2</ele>
        <time>1970-01-01T01:12:10.000Z</time>
      </trkpt>
      <trkpt lat="42.730146" lon="-7.880415">
        <ele>736.7</ele>
        <time>1970-01-01T01:12:11.000Z</time>
      </trkpt>
      <trkpt lat="42.730126" lon="-7.880423">
        <ele>736.5</ele>
        <time>1970-01-01T01:12:12.000Z</time>
      </trkpt>
      <trkpt lat="42.730106" lon="-7.880437">
        <ele>737</ele>
        <time>1970-01-01T01:12:13.000Z</time>
      </trkpt>
      <trkpt lat="42.730091" lon="-7.880438">
        <ele>737.1</ele>
        <time>1970-01-01T01:12:14.000Z</time>
      </trkpt>
      <trkpt lat="42.730065" lon="-7.880454">
        <ele>737.5</ele>
        <time>1970-01-01T01:12:15.000Z</time>
      </trkpt>
      <trkpt lat="42.730043" lon="-7.880485">
        <ele>737.8</ele>
        <time>1970-01-01T01:12:16.000Z</time>
      </trkpt>
      <trkpt lat="42.730019" lon="-7.880527">
        <ele>738</ele>
        <time>1970-01-01T01:12:17.000Z</time>
      </trkpt>
      <trkpt lat="42.729997" lon="-7.880573">
        <ele>737.8</ele>
        <time>1970-01-01T01:12:18.000Z</time>
      </trkpt>
      <trkpt lat="42.729979" lon="-7.88063">
        <ele>738.1</ele>
        <time>1970-01-01T01:12:19.000Z</time>
      </trkpt>
      <trkpt lat="42.729962" lon="-7.880685">
        <ele>737.6</ele>
        <time>1970-01-01T01:12:20.000Z</time>
      </trkpt>
      <trkpt lat="42.729944" lon="-7.880747">
        <ele>737.8</ele>
        <time>1970-01-01T01:12:21.000Z</time>
      </trkpt>
      <trkpt lat="42.729927" lon="-7.880807">
        <ele>737.9</ele>
        <time>1970-01-01T01:12:22.000Z</time>
      </trkpt>
      <trkpt lat="42.729913" lon="-7.880871">
        <ele>737.7</ele>
        <time>1970-01-01T01:12:23.000Z</time>
      </trkpt>
      <trkpt lat="42.729905" lon="-7.880949">
        <ele>737.5</ele>
        <time>1970-01-01T01:12:24.000Z</time>
      </trkpt>
      <trkpt lat="42.729902" lon="-7.881028">
        <ele>737.3</ele>
        <time>1970-01-01T01:12:25.000Z</time>
      </trkpt>
      <trkpt lat="42.729904" lon="-7.881108">
        <ele>737.1</ele>
        <time>1970-01-01T01:12:26.000Z</time>
      </trkpt>
      <trkpt lat="42.729912" lon="-7.881179">
        <ele>737.1</ele>
        <time>1970-01-01T01:12:27.000Z</time>
      </trkpt>
      <trkpt lat="42.729925" lon="-7.881244">
        <ele>737.1</ele>
        <time>1970-01-01T01:12:28.000Z</time>
      </trkpt>
      <trkpt lat="42.729938" lon="-7.881306">
        <ele>736.6</ele>
        <time>1970-01-01T01:12:29.000Z</time>
      </trkpt>
      <trkpt lat="42.729955" lon="-7.881372">
        <ele>736.7</ele>
        <time>1970-01-01T01:12:30.000Z</time>
      </trkpt>
      <trkpt lat="42.729977" lon="-7.881435">
        <ele>736.2</ele>
        <time>1970-01-01T01:12:31.000Z</time>
      </trkpt>
      <trkpt lat="42.729997" lon="-7.881493">
        <ele>735.7</ele>
        <time>1970-01-01T01:12:32.000Z</time>
      </trkpt>
      <trkpt lat="42.730018" lon="-7.881552">
        <ele>735.8</ele>
        <time>1970-01-01T01:12:33.000Z</time>
      </trkpt>
      <trkpt lat="42.730038" lon="-7.881619">
        <ele>735.3</ele>
        <time>1970-01-01T01:12:34.000Z</time>
      </trkpt>
      <trkpt lat="42.730058" lon="-7.88168">
        <ele>734.9</ele>
        <time>1970-01-01T01:12:35.000Z</time>
      </trkpt>
      <trkpt lat="42.730075" lon="-7.88174">
        <ele>735</ele>
        <time>1970-01-01T01:12:36.000Z</time>
      </trkpt>
      <trkpt lat="42.730092" lon="-7.881793">
        <ele>734.9</ele>
        <time>1970-01-01T01:12:37.000Z</time>
      </trkpt>
      <trkpt lat="42.730107" lon="-7.881845">
        <ele>735</ele>
        <time>1970-01-01T01:12:38.000Z</time>
      </trkpt>
      <trkpt lat="42.73012" lon="-7.881907">
        <ele>734.9</ele>
        <time>1970-01-01T01:12:39.000Z</time>
      </trkpt>
      <trkpt lat="42.73013" lon="-7.881969">
        <ele>735.2</ele>
        <time>1970-01-01T01:12:40.000Z</time>
      </trkpt>
      <trkpt lat="42.730139" lon="-7.88203">
        <ele>735.4</ele>
        <time>1970-01-01T01:12:41.000Z</time>
      </trkpt>
      <trkpt lat="42.730146" lon="-7.882096">
        <ele>735.7</ele>
        <time>1970-01-01T01:12:42.000Z</time>
      </trkpt>
      <trkpt lat="42.730151" lon="-7.882168">
        <ele>735.5</ele>
        <time>1970-01-01T01:12:43.000Z</time>
      </trkpt>
      <trkpt lat="42.730155" lon="-7.882245">
        <ele>735.7</ele>
        <time>1970-01-01T01:12:44.000Z</time>
      </trkpt>
      <trkpt lat="42.730156" lon="-7.882328">
        <ele>735.9</ele>
        <time>1970-01-01T01:12:45.000Z</time>
      </trkpt>
      <trkpt lat="42.730155" lon="-7.882414">
        <ele>736.1</ele>
        <time>1970-01-01T01:12:46.000Z</time>
      </trkpt>
      <trkpt lat="42.730152" lon="-7.8825">
        <ele>736.3</ele>
        <time>1970-01-01T01:12:47.000Z</time>
      </trkpt>
      <trkpt lat="42.730146" lon="-7.882586">
        <ele>736.3</ele>
        <time>1970-01-01T01:12:48.000Z</time>
      </trkpt>
      <trkpt lat="42.730136" lon="-7.882671">
        <ele>736.1</ele>
        <time>1970-01-01T01:12:49.000Z</time>
      </trkpt>
      <trkpt lat="42.73014" lon="-7.882742">
        <ele>736.2</ele>
        <time>1970-01-01T01:12:50.000Z</time>
      </trkpt>
      <trkpt lat="42.730142" lon="-7.882806">
        <ele>736.3</ele>
        <time>1970-01-01T01:12:51.000Z</time>
      </trkpt>
      <trkpt lat="42.73014" lon="-7.882868">
        <ele>736.4</ele>
        <time>1970-01-01T01:12:52.000Z</time>
      </trkpt>
      <trkpt lat="42.730119" lon="-7.882925">
        <ele>736.3</ele>
        <time>1970-01-01T01:12:53.000Z</time>
      </trkpt>
      <trkpt lat="42.730102" lon="-7.88298">
        <ele>736.3</ele>
        <time>1970-01-01T01:12:54.000Z</time>
      </trkpt>
      <trkpt lat="42.730095" lon="-7.883043">
        <ele>736.3</ele>
        <time>1970-01-01T01:12:55.000Z</time>
      </trkpt>
      <trkpt lat="42.73008" lon="-7.883117">
        <ele>736.4</ele>
        <time>1970-01-01T01:12:56.000Z</time>
      </trkpt>
      <trkpt lat="42.73007" lon="-7.883182">
        <ele>736.5</ele>
        <time>1970-01-01T01:12:57.000Z</time>
      </trkpt>
      <trkpt lat="42.730051" lon="-7.88325">
        <ele>736.5</ele>
        <time>1970-01-01T01:12:58.000Z</time>
      </trkpt>
      <trkpt lat="42.730033" lon="-7.883334">
        <ele>736.5</ele>
        <time>1970-01-01T01:12:59.000Z</time>
      </trkpt>
      <trkpt lat="42.730015" lon="-7.883419">
        <ele>736.6</ele>
        <time>1970-01-01T01:13:00.000Z</time>
      </trkpt>
      <trkpt lat="42.729991" lon="-7.883512">
        <ele>736.8</ele>
        <time>1970-01-01T01:13:01.000Z</time>
      </trkpt>
      <trkpt lat="42.729966" lon="-7.883599">
        <ele>736.8</ele>
        <time>1970-01-01T01:13:02.000Z</time>
      </trkpt>
      <trkpt lat="42.729949" lon="-7.883676">
        <ele>736.8</ele>
        <time>1970-01-01T01:13:03.000Z</time>
      </trkpt>
      <trkpt lat="42.729939" lon="-7.883738">
        <ele>736.8</ele>
        <time>1970-01-01T01:13:04.000Z</time>
      </trkpt>
      <trkpt lat="42.729934" lon="-7.883788">
        <ele>736.7</ele>
        <time>1970-01-01T01:13:05.000Z</time>
      </trkpt>
      <trkpt lat="42.729928" lon="-7.883835">
        <ele>736.6</ele>
        <time>1970-01-01T01:13:06.000Z</time>
      </trkpt>
      <trkpt lat="42.729917" lon="-7.883899">
        <ele>736.5</ele>
        <time>1970-01-01T01:13:07.000Z</time>
      </trkpt>
      <trkpt lat="42.729904" lon="-7.883945">
        <ele>736.4</ele>
        <time>1970-01-01T01:13:08.000Z</time>
      </trkpt>
      <trkpt lat="42.729899" lon="-7.883987">
        <ele>736.4</ele>
        <time>1970-01-01T01:13:09.000Z</time>
      </trkpt>
      <trkpt lat="42.729893" lon="-7.884029">
        <ele>736.4</ele>
        <time>1970-01-01T01:13:10.000Z</time>
      </trkpt>
      <trkpt lat="42.729876" lon="-7.884063">
        <ele>736.4</ele>
        <time>1970-01-01T01:13:11.000Z</time>
      </trkpt>
      <trkpt lat="42.729844" lon="-7.884091">
        <ele>736.4</ele>
        <time>1970-01-01T01:13:12.000Z</time>
      </trkpt>
      <trkpt lat="42.729814" lon="-7.884127">
        <ele>736.4</ele>
        <time>1970-01-01T01:13:13.000Z</time>
      </trkpt>
      <trkpt lat="42.729793" lon="-7.884156">
        <ele>736.6</ele>
        <time>1970-01-01T01:13:14.000Z</time>
      </trkpt>
      <trkpt lat="42.729783" lon="-7.884183">
        <ele>736.8</ele>
        <time>1970-01-01T01:13:15.000Z</time>
      </trkpt>
      <trkpt lat="42.729782" lon="-7.884204">
        <ele>736.9</ele>
        <time>1970-01-01T01:13:16.000Z</time>
      </trkpt>
      <trkpt lat="42.729775" lon="-7.884224">
        <ele>737.1</ele>
        <time>1970-01-01T01:13:17.000Z</time>
      </trkpt>
      <trkpt lat="42.729767" lon="-7.884258">
        <ele>737.2</ele>
        <time>1970-01-01T01:13:18.000Z</time>
      </trkpt>
      <trkpt lat="42.729756" lon="-7.884295">
        <ele>737.4</ele>
        <time>1970-01-01T01:13:19.000Z</time>
      </trkpt>
      <trkpt lat="42.729747" lon="-7.884334">
        <ele>737.5</ele>
        <time>1970-01-01T01:13:20.000Z</time>
      </trkpt>
      <trkpt lat="42.729737" lon="-7.88437">
        <ele>737.6</ele>
        <time>1970-01-01T01:13:21.000Z</time>
      </trkpt>
      <trkpt lat="42.729718" lon="-7.884422">
        <ele>737.9</ele>
        <time>1970-01-01T01:13:22.000Z</time>
      </trkpt>
      <trkpt lat="42.729707" lon="-7.884461">
        <ele>738.1</ele>
        <time>1970-01-01T01:13:23.000Z</time>
      </trkpt>
      <trkpt lat="42.729693" lon="-7.884508">
        <ele>738.5</ele>
        <time>1970-01-01T01:13:24.000Z</time>
      </trkpt>
      <trkpt lat="42.729674" lon="-7.884554">
        <ele>738.7</ele>
        <time>1970-01-01T01:13:25.000Z</time>
      </trkpt>
      <trkpt lat="42.72966" lon="-7.884605">
        <ele>738.8</ele>
        <time>1970-01-01T01:13:26.000Z</time>
      </trkpt>
      <trkpt lat="42.729639" lon="-7.88466">
        <ele>739.1</ele>
        <time>1970-01-01T01:13:27.000Z</time>
      </trkpt>
      <trkpt lat="42.729623" lon="-7.884704">
        <ele>739</ele>
        <time>1970-01-01T01:13:28.000Z</time>
      </trkpt>
      <trkpt lat="42.729612" lon="-7.884752">
        <ele>739.1</ele>
        <time>1970-01-01T01:13:29.000Z</time>
      </trkpt>
      <trkpt lat="42.729589" lon="-7.88479">
        <ele>739.1</ele>
        <time>1970-01-01T01:13:30.000Z</time>
      </trkpt>
      <trkpt lat="42.729586" lon="-7.884825">
        <ele>739</ele>
        <time>1970-01-01T01:13:31.000Z</time>
      </trkpt>
      <trkpt lat="42.729566" lon="-7.884878">
        <ele>739.2</ele>
        <time>1970-01-01T01:13:32.000Z</time>
      </trkpt>
      <trkpt lat="42.72955" lon="-7.884913">
        <ele>739.3</ele>
        <time>1970-01-01T01:13:33.000Z</time>
      </trkpt>
      <trkpt lat="42.72952" lon="-7.884956">
        <ele>739.2</ele>
        <time>1970-01-01T01:13:34.000Z</time>
      </trkpt>
      <trkpt lat="42.729501" lon="-7.88499">
        <ele>739.4</ele>
        <time>1970-01-01T01:13:35.000Z</time>
      </trkpt>
      <trkpt lat="42.729486" lon="-7.885021">
        <ele>739.5</ele>
        <time>1970-01-01T01:13:36.000Z</time>
      </trkpt>
      <trkpt lat="42.729473" lon="-7.885048">
        <ele>739.5</ele>
        <time>1970-01-01T01:13:37.000Z</time>
      </trkpt>
      <trkpt lat="42.729466" lon="-7.885083">
        <ele>739.3</ele>
        <time>1970-01-01T01:13:38.000Z</time>
      </trkpt>
      <trkpt lat="42.729454" lon="-7.885126">
        <ele>739.5</ele>
        <time>1970-01-01T01:13:39.000Z</time>
      </trkpt>
      <trkpt lat="42.729454" lon="-7.885154">
        <ele>739.2</ele>
        <time>1970-01-01T01:13:40.000Z</time>
      </trkpt>
      <trkpt lat="42.729452" lon="-7.885182">
        <ele>739</ele>
        <time>1970-01-01T01:13:41.000Z</time>
      </trkpt>
      <trkpt lat="42.729447" lon="-7.885215">
        <ele>739</ele>
        <time>1970-01-01T01:13:42.000Z</time>
      </trkpt>
      <trkpt lat="42.729446" lon="-7.885235">
        <ele>738.7</ele>
        <time>1970-01-01T01:13:43.000Z</time>
      </trkpt>
      <trkpt lat="42.729445" lon="-7.885256">
        <ele>738.7</ele>
        <time>1970-01-01T01:13:44.000Z</time>
      </trkpt>
      <trkpt lat="42.72945" lon="-7.885278">
        <ele>738.5</ele>
        <time>1970-01-01T01:13:45.000Z</time>
      </trkpt>
      <trkpt lat="42.729448" lon="-7.885299">
        <ele>738.5</ele>
        <time>1970-01-01T01:13:46.000Z</time>
      </trkpt>
      <trkpt lat="42.729447" lon="-7.885328">
        <ele>738.2</ele>
        <time>1970-01-01T01:13:47.000Z</time>
      </trkpt>
      <trkpt lat="42.72945" lon="-7.885346">
        <ele>738.2</ele>
        <time>1970-01-01T01:13:48.000Z</time>
      </trkpt>
      <trkpt lat="42.729459" lon="-7.885368">
        <ele>737.8</ele>
        <time>1970-01-01T01:13:49.000Z</time>
      </trkpt>
      <trkpt lat="42.729467" lon="-7.885391">
        <ele>737.8</ele>
        <time>1970-01-01T01:13:50.000Z</time>
      </trkpt>
      <trkpt lat="42.729475" lon="-7.88541">
        <ele>737.7</ele>
        <time>1970-01-01T01:13:51.000Z</time>
      </trkpt>
      <trkpt lat="42.729483" lon="-7.885421">
        <ele>737.7</ele>
        <time>1970-01-01T01:13:52.000Z</time>
      </trkpt>
      <trkpt lat="42.72948" lon="-7.885423">
        <ele>737.7</ele>
        <time>1970-01-01T01:13:53.000Z</time>
      </trkpt>
      <trkpt lat="42.729487" lon="-7.885438">
        <ele>737.6</ele>
        <time>1970-01-01T01:13:54.000Z</time>
      </trkpt>
      <trkpt lat="42.729494" lon="-7.885449">
        <ele>737.5</ele>
        <time>1970-01-01T01:13:55.000Z</time>
      </trkpt>
      <trkpt lat="42.729493" lon="-7.885458">
        <ele>737.5</ele>
        <time>1970-01-01T01:13:56.000Z</time>
      </trkpt>
      <trkpt lat="42.7295" lon="-7.88549">
        <ele>737.5</ele>
        <time>1970-01-01T01:13:57.000Z</time>
      </trkpt>
      <trkpt lat="42.729509" lon="-7.885518">
        <ele>737.5</ele>
        <time>1970-01-01T01:13:58.000Z</time>
      </trkpt>
      <trkpt lat="42.729519" lon="-7.885536">
        <ele>737.4</ele>
        <time>1970-01-01T01:13:59.000Z</time>
      </trkpt>
      <trkpt lat="42.729525" lon="-7.885548">
        <ele>737.4</ele>
        <time>1970-01-01T01:14:00.000Z</time>
      </trkpt>
      <trkpt lat="42.729531" lon="-7.885575">
        <ele>737.6</ele>
        <time>1970-01-01T01:14:01.000Z</time>
      </trkpt>
      <trkpt lat="42.729539" lon="-7.885607">
        <ele>737.6</ele>
        <time>1970-01-01T01:14:02.000Z</time>
      </trkpt>
      <trkpt lat="42.729542" lon="-7.885627">
        <ele>737.8</ele>
        <time>1970-01-01T01:14:03.000Z</time>
      </trkpt>
      <trkpt lat="42.729547" lon="-7.885646">
        <ele>737.8</ele>
        <time>1970-01-01T01:14:04.000Z</time>
      </trkpt>
      <trkpt lat="42.729557" lon="-7.885681">
        <ele>737.9</ele>
        <time>1970-01-01T01:14:05.000Z</time>
      </trkpt>
      <trkpt lat="42.729558" lon="-7.885699">
        <ele>738.1</ele>
        <time>1970-01-01T01:14:06.000Z</time>
      </trkpt>
      <trkpt lat="42.729562" lon="-7.885716">
        <ele>738.1</ele>
        <time>1970-01-01T01:14:07.000Z</time>
      </trkpt>
      <trkpt lat="42.729565" lon="-7.885738">
        <ele>738.4</ele>
        <time>1970-01-01T01:14:08.000Z</time>
      </trkpt>
      <trkpt lat="42.729572" lon="-7.885756">
        <ele>738.4</ele>
        <time>1970-01-01T01:14:09.000Z</time>
      </trkpt>
      <trkpt lat="42.729578" lon="-7.88578">
        <ele>738.4</ele>
        <time>1970-01-01T01:14:10.000Z</time>
      </trkpt>
      <trkpt lat="42.729582" lon="-7.8858">
        <ele>738.6</ele>
        <time>1970-01-01T01:14:11.000Z</time>
      </trkpt>
      <trkpt lat="42.729586" lon="-7.885817">
        <ele>738.6</ele>
        <time>1970-01-01T01:14:12.000Z</time>
      </trkpt>
      <trkpt lat="42.729592" lon="-7.885831">
        <ele>738.8</ele>
        <time>1970-01-01T01:14:13.000Z</time>
      </trkpt>
      <trkpt lat="42.729599" lon="-7.885843">
        <ele>738.8</ele>
        <time>1970-01-01T01:14:14.000Z</time>
      </trkpt>
      <trkpt lat="42.7296" lon="-7.885856">
        <ele>738.8</ele>
        <time>1970-01-01T01:14:15.000Z</time>
      </trkpt>
      <trkpt lat="42.729606" lon="-7.88588">
        <ele>739.1</ele>
        <time>1970-01-01T01:14:16.000Z</time>
      </trkpt>
      <trkpt lat="42.729609" lon="-7.885906">
        <ele>739.1</ele>
        <time>1970-01-01T01:14:17.000Z</time>
      </trkpt>
      <trkpt lat="42.729614" lon="-7.885933">
        <ele>739.2</ele>
        <time>1970-01-01T01:14:18.000Z</time>
      </trkpt>
      <trkpt lat="42.729623" lon="-7.885965">
        <ele>739.4</ele>
        <time>1970-01-01T01:14:19.000Z</time>
      </trkpt>
      <trkpt lat="42.729629" lon="-7.885996">
        <ele>739.5</ele>
        <time>1970-01-01T01:14:20.000Z</time>
      </trkpt>
      <trkpt lat="42.729635" lon="-7.886023">
        <ele>739.5</ele>
        <time>1970-01-01T01:14:21.000Z</time>
      </trkpt>
      <trkpt lat="42.729635" lon="-7.886047">
        <ele>739.7</ele>
        <time>1970-01-01T01:14:22.000Z</time>
      </trkpt>
      <trkpt lat="42.729645" lon="-7.886073">
        <ele>739.5</ele>
        <time>1970-01-01T01:14:23.000Z</time>
      </trkpt>
      <trkpt lat="42.729655" lon="-7.886081">
        <ele>739.6</ele>
        <time>1970-01-01T01:14:24.000Z</time>
      </trkpt>
      <trkpt lat="42.729665" lon="-7.886096">
        <ele>739.6</ele>
        <time>1970-01-01T01:14:25.000Z</time>
      </trkpt>
      <trkpt lat="42.729678" lon="-7.886123">
        <ele>739.5</ele>
        <time>1970-01-01T01:14:26.000Z</time>
      </trkpt>
      <trkpt lat="42.729687" lon="-7.886139">
        <ele>739.6</ele>
        <time>1970-01-01T01:14:27.000Z</time>
      </trkpt>
      <trkpt lat="42.729693" lon="-7.886146">
        <ele>739.6</ele>
        <time>1970-01-01T01:14:28.000Z</time>
      </trkpt>
      <trkpt lat="42.729706" lon="-7.886157">
        <ele>739.6</ele>
        <time>1970-01-01T01:14:29.000Z</time>
      </trkpt>
      <trkpt lat="42.729717" lon="-7.886166">
        <ele>739.5</ele>
        <time>1970-01-01T01:14:30.000Z</time>
      </trkpt>
      <trkpt lat="42.729726" lon="-7.886182">
        <ele>739.6</ele>
        <time>1970-01-01T01:14:31.000Z</time>
      </trkpt>
      <trkpt lat="42.729734" lon="-7.886198">
        <ele>739.6</ele>
        <time>1970-01-01T01:14:32.000Z</time>
      </trkpt>
      <trkpt lat="42.729742" lon="-7.886219">
        <ele>739.6</ele>
        <time>1970-01-01T01:14:33.000Z</time>
      </trkpt>
      <trkpt lat="42.729747" lon="-7.886243">
        <ele>739.6</ele>
        <time>1970-01-01T01:14:34.000Z</time>
      </trkpt>
      <trkpt lat="42.729749" lon="-7.886255">
        <ele>739.8</ele>
        <time>1970-01-01T01:14:35.000Z</time>
      </trkpt>
      <trkpt lat="42.729763" lon="-7.886278">
        <ele>739.8</ele>
        <time>1970-01-01T01:14:36.000Z</time>
      </trkpt>
      <trkpt lat="42.729768" lon="-7.886299">
        <ele>740</ele>
        <time>1970-01-01T01:14:37.000Z</time>
      </trkpt>
      <trkpt lat="42.729772" lon="-7.886313">
        <ele>739.9</ele>
        <time>1970-01-01T01:14:38.000Z</time>
      </trkpt>
      <trkpt lat="42.729773" lon="-7.886333">
        <ele>739.9</ele>
        <time>1970-01-01T01:14:39.000Z</time>
      </trkpt>
      <trkpt lat="42.729784" lon="-7.886363">
        <ele>740.1</ele>
        <time>1970-01-01T01:14:40.000Z</time>
      </trkpt>
      <trkpt lat="42.729788" lon="-7.88638">
        <ele>740.1</ele>
        <time>1970-01-01T01:14:41.000Z</time>
      </trkpt>
      <trkpt lat="42.729795" lon="-7.886399">
        <ele>740.4</ele>
        <time>1970-01-01T01:14:42.000Z</time>
      </trkpt>
      <trkpt lat="42.729801" lon="-7.886417">
        <ele>740.4</ele>
        <time>1970-01-01T01:14:43.000Z</time>
      </trkpt>
      <trkpt lat="42.729799" lon="-7.886424">
        <ele>740.4</ele>
        <time>1970-01-01T01:14:44.000Z</time>
      </trkpt>
      <trkpt lat="42.729805" lon="-7.886446">
        <ele>740.5</ele>
        <time>1970-01-01T01:14:45.000Z</time>
      </trkpt>
      <trkpt lat="42.729813" lon="-7.88647">
        <ele>740.8</ele>
        <time>1970-01-01T01:14:46.000Z</time>
      </trkpt>
      <trkpt lat="42.729825" lon="-7.886502">
        <ele>740.8</ele>
        <time>1970-01-01T01:14:47.000Z</time>
      </trkpt>
      <trkpt lat="42.729835" lon="-7.886521">
        <ele>741</ele>
        <time>1970-01-01T01:14:48.000Z</time>
      </trkpt>
      <trkpt lat="42.729839" lon="-7.886533">
        <ele>741</ele>
        <time>1970-01-01T01:14:49.000Z</time>
      </trkpt>
      <trkpt lat="42.729843" lon="-7.886545">
        <ele>741</ele>
        <time>1970-01-01T01:14:50.000Z</time>
      </trkpt>
      <trkpt lat="42.729849" lon="-7.886567">
        <ele>741.3</ele>
        <time>1970-01-01T01:14:51.000Z</time>
      </trkpt>
      <trkpt lat="42.729846" lon="-7.886587">
        <ele>741.3</ele>
        <time>1970-01-01T01:14:52.000Z</time>
      </trkpt>
      <trkpt lat="42.729846" lon="-7.886606">
        <ele>741.6</ele>
        <time>1970-01-01T01:14:53.000Z</time>
      </trkpt>
      <trkpt lat="42.729849" lon="-7.886622">
        <ele>741.6</ele>
        <time>1970-01-01T01:14:54.000Z</time>
      </trkpt>
      <trkpt lat="42.729852" lon="-7.886639">
        <ele>741.9</ele>
        <time>1970-01-01T01:14:55.000Z</time>
      </trkpt>
      <trkpt lat="42.729859" lon="-7.886667">
        <ele>741.9</ele>
        <time>1970-01-01T01:14:56.000Z</time>
      </trkpt>
      <trkpt lat="42.729868" lon="-7.886684">
        <ele>742.2</ele>
        <time>1970-01-01T01:14:57.000Z</time>
      </trkpt>
      <trkpt lat="42.729872" lon="-7.886699">
        <ele>742.2</ele>
        <time>1970-01-01T01:14:58.000Z</time>
      </trkpt>
      <trkpt lat="42.729881" lon="-7.88672">
        <ele>742.2</ele>
        <time>1970-01-01T01:14:59.000Z</time>
      </trkpt>
      <trkpt lat="42.72989" lon="-7.886732">
        <ele>742.4</ele>
        <time>1970-01-01T01:15:00.000Z</time>
      </trkpt>
      <trkpt lat="42.729902" lon="-7.886751">
        <ele>742.4</ele>
        <time>1970-01-01T01:15:01.000Z</time>
      </trkpt>
      <trkpt lat="42.729919" lon="-7.88677">
        <ele>742.6</ele>
        <time>1970-01-01T01:15:02.000Z</time>
      </trkpt>
      <trkpt lat="42.729933" lon="-7.886788">
        <ele>742.7</ele>
        <time>1970-01-01T01:15:03.000Z</time>
      </trkpt>
      <trkpt lat="42.729941" lon="-7.886807">
        <ele>742.7</ele>
        <time>1970-01-01T01:15:04.000Z</time>
      </trkpt>
      <trkpt lat="42.729952" lon="-7.886833">
        <ele>742.9</ele>
        <time>1970-01-01T01:15:05.000Z</time>
      </trkpt>
      <trkpt lat="42.729961" lon="-7.886855">
        <ele>743.1</ele>
        <time>1970-01-01T01:15:06.000Z</time>
      </trkpt>
      <trkpt lat="42.729964" lon="-7.886879">
        <ele>743.1</ele>
        <time>1970-01-01T01:15:07.000Z</time>
      </trkpt>
      <trkpt lat="42.729966" lon="-7.8869">
        <ele>743.3</ele>
        <time>1970-01-01T01:15:08.000Z</time>
      </trkpt>
      <trkpt lat="42.72997" lon="-7.886924">
        <ele>743.3</ele>
        <time>1970-01-01T01:15:09.000Z</time>
      </trkpt>
      <trkpt lat="42.729979" lon="-7.886945">
        <ele>743.6</ele>
        <time>1970-01-01T01:15:10.000Z</time>
      </trkpt>
      <trkpt lat="42.729982" lon="-7.886963">
        <ele>743.6</ele>
        <time>1970-01-01T01:15:11.000Z</time>
      </trkpt>
      <trkpt lat="42.729986" lon="-7.886981">
        <ele>743.6</ele>
        <time>1970-01-01T01:15:12.000Z</time>
      </trkpt>
      <trkpt lat="42.729993" lon="-7.887">
        <ele>743.9</ele>
        <time>1970-01-01T01:15:13.000Z</time>
      </trkpt>
      <trkpt lat="42.730001" lon="-7.88702">
        <ele>743.9</ele>
        <time>1970-01-01T01:15:14.000Z</time>
      </trkpt>
      <trkpt lat="42.730009" lon="-7.887034">
        <ele>744.2</ele>
        <time>1970-01-01T01:15:15.000Z</time>
      </trkpt>
      <trkpt lat="42.730016" lon="-7.887055">
        <ele>744.2</ele>
        <time>1970-01-01T01:15:16.000Z</time>
      </trkpt>
      <trkpt lat="42.730022" lon="-7.887078">
        <ele>744.5</ele>
        <time>1970-01-01T01:15:17.000Z</time>
      </trkpt>
      <trkpt lat="42.730028" lon="-7.887097">
        <ele>744.6</ele>
        <time>1970-01-01T01:15:18.000Z</time>
      </trkpt>
      <trkpt lat="42.730033" lon="-7.887115">
        <ele>745</ele>
        <time>1970-01-01T01:15:19.000Z</time>
      </trkpt>
      <trkpt lat="42.730037" lon="-7.887128">
        <ele>745</ele>
        <time>1970-01-01T01:15:20.000Z</time>
      </trkpt>
      <trkpt lat="42.730043" lon="-7.887146">
        <ele>745</ele>
        <time>1970-01-01T01:15:21.000Z</time>
      </trkpt>
      <trkpt lat="42.730058" lon="-7.887163">
        <ele>745.4</ele>
        <time>1970-01-01T01:15:22.000Z</time>
      </trkpt>
      <trkpt lat="42.730072" lon="-7.887173">
        <ele>745.4</ele>
        <time>1970-01-01T01:15:23.000Z</time>
      </trkpt>
      <trkpt lat="42.730083" lon="-7.887177">
        <ele>745.4</ele>
        <time>1970-01-01T01:15:24.000Z</time>
      </trkpt>
      <trkpt lat="42.730099" lon="-7.887184">
        <ele>745.4</ele>
        <time>1970-01-01T01:15:25.000Z</time>
      </trkpt>
      <trkpt lat="42.730118" lon="-7.887187">
        <ele>745.4</ele>
        <time>1970-01-01T01:15:26.000Z</time>
      </trkpt>
      <trkpt lat="42.730135" lon="-7.887182">
        <ele>745.4</ele>
        <time>1970-01-01T01:15:27.000Z</time>
      </trkpt>
      <trkpt lat="42.730153" lon="-7.887174">
        <ele>745.4</ele>
        <time>1970-01-01T01:15:28.000Z</time>
      </trkpt>
      <trkpt lat="42.730172" lon="-7.887169">
        <ele>745.4</ele>
        <time>1970-01-01T01:15:29.000Z</time>
      </trkpt>
      <trkpt lat="42.730194" lon="-7.887165">
        <ele>745.3</ele>
        <time>1970-01-01T01:15:30.000Z</time>
      </trkpt>
      <trkpt lat="42.730215" lon="-7.887162">
        <ele>745.2</ele>
        <time>1970-01-01T01:15:31.000Z</time>
      </trkpt>
      <trkpt lat="42.730238" lon="-7.887157">
        <ele>745.2</ele>
        <time>1970-01-01T01:15:32.000Z</time>
      </trkpt>
      <trkpt lat="42.730263" lon="-7.887155">
        <ele>745.1</ele>
        <time>1970-01-01T01:15:33.000Z</time>
      </trkpt>
      <trkpt lat="42.73029" lon="-7.887151">
        <ele>744.6</ele>
        <time>1970-01-01T01:15:34.000Z</time>
      </trkpt>
      <trkpt lat="42.730319" lon="-7.887145">
        <ele>744.5</ele>
        <time>1970-01-01T01:15:35.000Z</time>
      </trkpt>
      <trkpt lat="42.730349" lon="-7.887136">
        <ele>744.3</ele>
        <time>1970-01-01T01:15:36.000Z</time>
      </trkpt>
      <trkpt lat="42.730382" lon="-7.887127">
        <ele>744.2</ele>
        <time>1970-01-01T01:15:37.000Z</time>
      </trkpt>
      <trkpt lat="42.730414" lon="-7.88712">
        <ele>744.1</ele>
        <time>1970-01-01T01:15:38.000Z</time>
      </trkpt>
      <trkpt lat="42.730445" lon="-7.887113">
        <ele>744</ele>
        <time>1970-01-01T01:15:39.000Z</time>
      </trkpt>
      <trkpt lat="42.730477" lon="-7.887106">
        <ele>743.6</ele>
        <time>1970-01-01T01:15:40.000Z</time>
      </trkpt>
      <trkpt lat="42.730508" lon="-7.887095">
        <ele>743.5</ele>
        <time>1970-01-01T01:15:41.000Z</time>
      </trkpt>
      <trkpt lat="42.730538" lon="-7.887084">
        <ele>743.5</ele>
        <time>1970-01-01T01:15:42.000Z</time>
      </trkpt>
      <trkpt lat="42.730573" lon="-7.887073">
        <ele>743.4</ele>
        <time>1970-01-01T01:15:43.000Z</time>
      </trkpt>
      <trkpt lat="42.730611" lon="-7.887063">
        <ele>742.9</ele>
        <time>1970-01-01T01:15:44.000Z</time>
      </trkpt>
      <trkpt lat="42.730649" lon="-7.887053">
        <ele>742.8</ele>
        <time>1970-01-01T01:15:45.000Z</time>
      </trkpt>
      <trkpt lat="42.730691" lon="-7.887045">
        <ele>742.6</ele>
        <time>1970-01-01T01:15:46.000Z</time>
      </trkpt>
      <trkpt lat="42.730731" lon="-7.887036">
        <ele>742.4</ele>
        <time>1970-01-01T01:15:47.000Z</time>
      </trkpt>
      <trkpt lat="42.73077" lon="-7.887026">
        <ele>742.2</ele>
        <time>1970-01-01T01:15:48.000Z</time>
      </trkpt>
      <trkpt lat="42.730809" lon="-7.88702">
        <ele>741.7</ele>
        <time>1970-01-01T01:15:49.000Z</time>
      </trkpt>
      <trkpt lat="42.730846" lon="-7.88702">
        <ele>741.2</ele>
        <time>1970-01-01T01:15:50.000Z</time>
      </trkpt>
      <trkpt lat="42.730882" lon="-7.887021">
        <ele>740.8</ele>
        <time>1970-01-01T01:15:51.000Z</time>
      </trkpt>
      <trkpt lat="42.730919" lon="-7.887015">
        <ele>740.6</ele>
        <time>1970-01-01T01:15:52.000Z</time>
      </trkpt>
      <trkpt lat="42.730957" lon="-7.887012">
        <ele>740.4</ele>
        <time>1970-01-01T01:15:53.000Z</time>
      </trkpt>
      <trkpt lat="42.731001" lon="-7.887027">
        <ele>740.4</ele>
        <time>1970-01-01T01:15:54.000Z</time>
      </trkpt>
      <trkpt lat="42.731046" lon="-7.887039">
        <ele>740.2</ele>
        <time>1970-01-01T01:15:55.000Z</time>
      </trkpt>
      <trkpt lat="42.731089" lon="-7.887046">
        <ele>740</ele>
        <time>1970-01-01T01:15:56.000Z</time>
      </trkpt>
      <trkpt lat="42.73113" lon="-7.887053">
        <ele>739.5</ele>
        <time>1970-01-01T01:15:57.000Z</time>
      </trkpt>
      <trkpt lat="42.731167" lon="-7.88706">
        <ele>739.3</ele>
        <time>1970-01-01T01:15:58.000Z</time>
      </trkpt>
      <trkpt lat="42.731202" lon="-7.887064">
        <ele>739.1</ele>
        <time>1970-01-01T01:15:59.000Z</time>
      </trkpt>
      <trkpt lat="42.731236" lon="-7.887069">
        <ele>739.3</ele>
        <time>1970-01-01T01:16:00.000Z</time>
      </trkpt>
      <trkpt lat="42.731267" lon="-7.887073">
        <ele>739</ele>
        <time>1970-01-01T01:16:01.000Z</time>
      </trkpt>
      <trkpt lat="42.731298" lon="-7.887079">
        <ele>738.8</ele>
        <time>1970-01-01T01:16:02.000Z</time>
      </trkpt>
      <trkpt lat="42.731323" lon="-7.887095">
        <ele>738.5</ele>
        <time>1970-01-01T01:16:03.000Z</time>
      </trkpt>
      <trkpt lat="42.731336" lon="-7.887121">
        <ele>738.8</ele>
        <time>1970-01-01T01:16:04.000Z</time>
      </trkpt>
      <trkpt lat="42.731351" lon="-7.887154">
        <ele>738.8</ele>
        <time>1970-01-01T01:16:05.000Z</time>
      </trkpt>
      <trkpt lat="42.731361" lon="-7.887183">
        <ele>738.8</ele>
        <time>1970-01-01T01:16:06.000Z</time>
      </trkpt>
      <trkpt lat="42.731369" lon="-7.887204">
        <ele>739.2</ele>
        <time>1970-01-01T01:16:07.000Z</time>
      </trkpt>
      <trkpt lat="42.731376" lon="-7.887222">
        <ele>739.2</ele>
        <time>1970-01-01T01:16:08.000Z</time>
      </trkpt>
      <trkpt lat="42.731381" lon="-7.887243">
        <ele>739.1</ele>
        <time>1970-01-01T01:16:09.000Z</time>
      </trkpt>
      <trkpt lat="42.731384" lon="-7.887262">
        <ele>739.1</ele>
        <time>1970-01-01T01:16:10.000Z</time>
      </trkpt>
      <trkpt lat="42.731392" lon="-7.88728">
        <ele>739.1</ele>
        <time>1970-01-01T01:16:11.000Z</time>
      </trkpt>
      <trkpt lat="42.7314" lon="-7.887297">
        <ele>739.5</ele>
        <time>1970-01-01T01:16:12.000Z</time>
      </trkpt>
      <trkpt lat="42.73141" lon="-7.887311">
        <ele>739.5</ele>
        <time>1970-01-01T01:16:13.000Z</time>
      </trkpt>
      <trkpt lat="42.731424" lon="-7.887326">
        <ele>739.4</ele>
        <time>1970-01-01T01:16:14.000Z</time>
      </trkpt>
      <trkpt lat="42.731435" lon="-7.887344">
        <ele>739.4</ele>
        <time>1970-01-01T01:16:15.000Z</time>
      </trkpt>
      <trkpt lat="42.731437" lon="-7.887359">
        <ele>739.4</ele>
        <time>1970-01-01T01:16:16.000Z</time>
      </trkpt>
      <trkpt lat="42.731436" lon="-7.887375">
        <ele>739.7</ele>
        <time>1970-01-01T01:16:17.000Z</time>
      </trkpt>
      <trkpt lat="42.731434" lon="-7.887394">
        <ele>739.7</ele>
        <time>1970-01-01T01:16:18.000Z</time>
      </trkpt>
      <trkpt lat="42.731433" lon="-7.88741">
        <ele>739.7</ele>
        <time>1970-01-01T01:16:19.000Z</time>
      </trkpt>
      <trkpt lat="42.731433" lon="-7.887423">
        <ele>740.1</ele>
        <time>1970-01-01T01:16:20.000Z</time>
      </trkpt>
      <trkpt lat="42.731431" lon="-7.887434">
        <ele>740.1</ele>
        <time>1970-01-01T01:16:21.000Z</time>
      </trkpt>
      <trkpt lat="42.73144" lon="-7.887454">
        <ele>740.1</ele>
        <time>1970-01-01T01:16:22.000Z</time>
      </trkpt>
      <trkpt lat="42.731436" lon="-7.88747">
        <ele>740.5</ele>
        <time>1970-01-01T01:16:23.000Z</time>
      </trkpt>
      <trkpt lat="42.73144" lon="-7.887492">
        <ele>740.5</ele>
        <time>1970-01-01T01:16:24.000Z</time>
      </trkpt>
      <trkpt lat="42.731445" lon="-7.88751">
        <ele>740.5</ele>
        <time>1970-01-01T01:16:25.000Z</time>
      </trkpt>
      <trkpt lat="42.731453" lon="-7.887523">
        <ele>740.5</ele>
        <time>1970-01-01T01:16:26.000Z</time>
      </trkpt>
      <trkpt lat="42.731448" lon="-7.887535">
        <ele>740.5</ele>
        <time>1970-01-01T01:16:27.000Z</time>
      </trkpt>
      <trkpt lat="42.73145" lon="-7.887548">
        <ele>740.9</ele>
        <time>1970-01-01T01:16:28.000Z</time>
      </trkpt>
      <trkpt lat="42.73145" lon="-7.887564">
        <ele>740.9</ele>
        <time>1970-01-01T01:16:29.000Z</time>
      </trkpt>
      <trkpt lat="42.731443" lon="-7.887577">
        <ele>740.9</ele>
        <time>1970-01-01T01:16:30.000Z</time>
      </trkpt>
      <trkpt lat="42.731437" lon="-7.887587">
        <ele>741.6</ele>
        <time>1970-01-01T01:16:31.000Z</time>
      </trkpt>
      <trkpt lat="42.731443" lon="-7.887604">
        <ele>741.2</ele>
        <time>1970-01-01T01:16:32.000Z</time>
      </trkpt>
      <trkpt lat="42.731443" lon="-7.887623">
        <ele>741.2</ele>
        <time>1970-01-01T01:16:33.000Z</time>
      </trkpt>
      <trkpt lat="42.731441" lon="-7.887638">
        <ele>741.9</ele>
        <time>1970-01-01T01:16:34.000Z</time>
      </trkpt>
      <trkpt lat="42.731442" lon="-7.887653">
        <ele>741.6</ele>
        <time>1970-01-01T01:16:35.000Z</time>
      </trkpt>
      <trkpt lat="42.731438" lon="-7.887669">
        <ele>742.3</ele>
        <time>1970-01-01T01:16:36.000Z</time>
      </trkpt>
      <trkpt lat="42.731441" lon="-7.887688">
        <ele>742.3</ele>
        <time>1970-01-01T01:16:37.000Z</time>
      </trkpt>
      <trkpt lat="42.731441" lon="-7.887703">
        <ele>742.3</ele>
        <time>1970-01-01T01:16:38.000Z</time>
      </trkpt>
      <trkpt lat="42.731439" lon="-7.887719">
        <ele>742.6</ele>
        <time>1970-01-01T01:16:39.000Z</time>
      </trkpt>
      <trkpt lat="42.731437" lon="-7.887738">
        <ele>742.6</ele>
        <time>1970-01-01T01:16:40.000Z</time>
      </trkpt>
      <trkpt lat="42.731429" lon="-7.887749">
        <ele>742.6</ele>
        <time>1970-01-01T01:16:41.000Z</time>
      </trkpt>
      <trkpt lat="42.731428" lon="-7.887762">
        <ele>743</ele>
        <time>1970-01-01T01:16:42.000Z</time>
      </trkpt>
      <trkpt lat="42.731428" lon="-7.88778">
        <ele>743</ele>
        <time>1970-01-01T01:16:43.000Z</time>
      </trkpt>
      <trkpt lat="42.731427" lon="-7.887803">
        <ele>743.3</ele>
        <time>1970-01-01T01:16:44.000Z</time>
      </trkpt>
      <trkpt lat="42.731429" lon="-7.887828">
        <ele>743.3</ele>
        <time>1970-01-01T01:16:45.000Z</time>
      </trkpt>
      <trkpt lat="42.731429" lon="-7.887847">
        <ele>743.7</ele>
        <time>1970-01-01T01:16:46.000Z</time>
      </trkpt>
      <trkpt lat="42.731429" lon="-7.887867">
        <ele>743.7</ele>
        <time>1970-01-01T01:16:47.000Z</time>
      </trkpt>
      <trkpt lat="42.731427" lon="-7.887882">
        <ele>743.7</ele>
        <time>1970-01-01T01:16:48.000Z</time>
      </trkpt>
      <trkpt lat="42.731429" lon="-7.887907">
        <ele>744.1</ele>
        <time>1970-01-01T01:16:49.000Z</time>
      </trkpt>
      <trkpt lat="42.731432" lon="-7.887929">
        <ele>744.5</ele>
        <time>1970-01-01T01:16:50.000Z</time>
      </trkpt>
      <trkpt lat="42.731437" lon="-7.887956">
        <ele>744.5</ele>
        <time>1970-01-01T01:16:51.000Z</time>
      </trkpt>
      <trkpt lat="42.73144" lon="-7.887977">
        <ele>744.8</ele>
        <time>1970-01-01T01:16:52.000Z</time>
      </trkpt>
      <trkpt lat="42.731439" lon="-7.887997">
        <ele>744.8</ele>
        <time>1970-01-01T01:16:53.000Z</time>
      </trkpt>
      <trkpt lat="42.731441" lon="-7.888017">
        <ele>745.2</ele>
        <time>1970-01-01T01:16:54.000Z</time>
      </trkpt>
      <trkpt lat="42.731448" lon="-7.888059">
        <ele>745.2</ele>
        <time>1970-01-01T01:16:55.000Z</time>
      </trkpt>
      <trkpt lat="42.73145" lon="-7.888075">
        <ele>745.2</ele>
        <time>1970-01-01T01:16:56.000Z</time>
      </trkpt>
      <trkpt lat="42.731457" lon="-7.888103">
        <ele>745.5</ele>
        <time>1970-01-01T01:16:57.000Z</time>
      </trkpt>
      <trkpt lat="42.731462" lon="-7.888139">
        <ele>745.5</ele>
        <time>1970-01-01T01:16:58.000Z</time>
      </trkpt>
      <trkpt lat="42.731468" lon="-7.888165">
        <ele>745.9</ele>
        <time>1970-01-01T01:16:59.000Z</time>
      </trkpt>
      <trkpt lat="42.731469" lon="-7.888187">
        <ele>746.5</ele>
        <time>1970-01-01T01:17:00.000Z</time>
      </trkpt>
      <trkpt lat="42.731473" lon="-7.888216">
        <ele>746.5</ele>
        <time>1970-01-01T01:17:01.000Z</time>
      </trkpt>
      <trkpt lat="42.731474" lon="-7.888241">
        <ele>746.3</ele>
        <time>1970-01-01T01:17:02.000Z</time>
      </trkpt>
      <trkpt lat="42.73147" lon="-7.888262">
        <ele>746.8</ele>
        <time>1970-01-01T01:17:03.000Z</time>
      </trkpt>
      <trkpt lat="42.731467" lon="-7.888282">
        <ele>747.3</ele>
        <time>1970-01-01T01:17:04.000Z</time>
      </trkpt>
      <trkpt lat="42.731464" lon="-7.888303">
        <ele>747.3</ele>
        <time>1970-01-01T01:17:05.000Z</time>
      </trkpt>
      <trkpt lat="42.73146" lon="-7.888326">
        <ele>747.7</ele>
        <time>1970-01-01T01:17:06.000Z</time>
      </trkpt>
      <trkpt lat="42.731454" lon="-7.888347">
        <ele>747.7</ele>
        <time>1970-01-01T01:17:07.000Z</time>
      </trkpt>
      <trkpt lat="42.731447" lon="-7.888365">
        <ele>748.2</ele>
        <time>1970-01-01T01:17:08.000Z</time>
      </trkpt>
      <trkpt lat="42.73144" lon="-7.88838">
        <ele>748.7</ele>
        <time>1970-01-01T01:17:09.000Z</time>
      </trkpt>
      <trkpt lat="42.731431" lon="-7.888397">
        <ele>748.7</ele>
        <time>1970-01-01T01:17:10.000Z</time>
      </trkpt>
      <trkpt lat="42.731423" lon="-7.88841">
        <ele>749.2</ele>
        <time>1970-01-01T01:17:11.000Z</time>
      </trkpt>
      <trkpt lat="42.731414" lon="-7.888422">
        <ele>749.2</ele>
        <time>1970-01-01T01:17:12.000Z</time>
      </trkpt>
      <trkpt lat="42.731407" lon="-7.888434">
        <ele>749.8</ele>
        <time>1970-01-01T01:17:13.000Z</time>
      </trkpt>
      <trkpt lat="42.731399" lon="-7.888446">
        <ele>750.3</ele>
        <time>1970-01-01T01:17:14.000Z</time>
      </trkpt>
      <trkpt lat="42.73139" lon="-7.888459">
        <ele>750.3</ele>
        <time>1970-01-01T01:17:15.000Z</time>
      </trkpt>
      <trkpt lat="42.731383" lon="-7.888471">
        <ele>750.3</ele>
        <time>1970-01-01T01:17:16.000Z</time>
      </trkpt>
      <trkpt lat="42.731375" lon="-7.888483">
        <ele>750.9</ele>
        <time>1970-01-01T01:17:17.000Z</time>
      </trkpt>
      <trkpt lat="42.731366" lon="-7.888496">
        <ele>751.3</ele>
        <time>1970-01-01T01:17:18.000Z</time>
      </trkpt>
      <trkpt lat="42.731356" lon="-7.888507">
        <ele>751.3</ele>
        <time>1970-01-01T01:17:19.000Z</time>
      </trkpt>
      <trkpt lat="42.731347" lon="-7.888516">
        <ele>751.9</ele>
        <time>1970-01-01T01:17:20.000Z</time>
      </trkpt>
      <trkpt lat="42.731335" lon="-7.88852">
        <ele>751.9</ele>
        <time>1970-01-01T01:17:21.000Z</time>
      </trkpt>
      <trkpt lat="42.731322" lon="-7.888526">
        <ele>751.9</ele>
        <time>1970-01-01T01:17:22.000Z</time>
      </trkpt>
      <trkpt lat="42.731311" lon="-7.888534">
        <ele>752.9</ele>
        <time>1970-01-01T01:17:23.000Z</time>
      </trkpt>
      <trkpt lat="42.731302" lon="-7.888542">
        <ele>752.9</ele>
        <time>1970-01-01T01:17:24.000Z</time>
      </trkpt>
      <trkpt lat="42.731291" lon="-7.88855">
        <ele>752.9</ele>
        <time>1970-01-01T01:17:25.000Z</time>
      </trkpt>
      <trkpt lat="42.731282" lon="-7.888561">
        <ele>753.4</ele>
        <time>1970-01-01T01:17:26.000Z</time>
      </trkpt>
      <trkpt lat="42.731273" lon="-7.88857">
        <ele>753.9</ele>
        <time>1970-01-01T01:17:27.000Z</time>
      </trkpt>
      <trkpt lat="42.731264" lon="-7.888578">
        <ele>753.9</ele>
        <time>1970-01-01T01:17:28.000Z</time>
      </trkpt>
      <trkpt lat="42.731254" lon="-7.888588">
        <ele>753.9</ele>
        <time>1970-01-01T01:17:29.000Z</time>
      </trkpt>
      <trkpt lat="42.731247" lon="-7.888598">
        <ele>754.4</ele>
        <time>1970-01-01T01:17:30.000Z</time>
      </trkpt>
      <trkpt lat="42.731234" lon="-7.888608">
        <ele>754.4</ele>
        <time>1970-01-01T01:17:31.000Z</time>
      </trkpt>
      <trkpt lat="42.731225" lon="-7.888616">
        <ele>754.8</ele>
        <time>1970-01-01T01:17:32.000Z</time>
      </trkpt>
      <trkpt lat="42.731214" lon="-7.888623">
        <ele>755.3</ele>
        <time>1970-01-01T01:17:33.000Z</time>
      </trkpt>
      <trkpt lat="42.731203" lon="-7.888631">
        <ele>755.3</ele>
        <time>1970-01-01T01:17:34.000Z</time>
      </trkpt>
      <trkpt lat="42.731193" lon="-7.888638">
        <ele>755.3</ele>
        <time>1970-01-01T01:17:35.000Z</time>
      </trkpt>
      <trkpt lat="42.731183" lon="-7.888644">
        <ele>755.8</ele>
        <time>1970-01-01T01:17:36.000Z</time>
      </trkpt>
      <trkpt lat="42.731173" lon="-7.888648">
        <ele>755.8</ele>
        <time>1970-01-01T01:17:37.000Z</time>
      </trkpt>
      <trkpt lat="42.731163" lon="-7.88865">
        <ele>755.8</ele>
        <time>1970-01-01T01:17:38.000Z</time>
      </trkpt>
      <trkpt lat="42.731153" lon="-7.888652">
        <ele>756.4</ele>
        <time>1970-01-01T01:17:39.000Z</time>
      </trkpt>
      <trkpt lat="42.731143" lon="-7.888655">
        <ele>756.4</ele>
        <time>1970-01-01T01:17:40.000Z</time>
      </trkpt>
      <trkpt lat="42.731133" lon="-7.88866">
        <ele>756.8</ele>
        <time>1970-01-01T01:17:41.000Z</time>
      </trkpt>
      <trkpt lat="42.731124" lon="-7.888665">
        <ele>757.4</ele>
        <time>1970-01-01T01:17:42.000Z</time>
      </trkpt>
      <trkpt lat="42.731113" lon="-7.888669">
        <ele>757.4</ele>
        <time>1970-01-01T01:17:43.000Z</time>
      </trkpt>
      <trkpt lat="42.731103" lon="-7.88867">
        <ele>757.4</ele>
        <time>1970-01-01T01:17:44.000Z</time>
      </trkpt>
      <trkpt lat="42.731092" lon="-7.88867">
        <ele>758</ele>
        <time>1970-01-01T01:17:45.000Z</time>
      </trkpt>
      <trkpt lat="42.731082" lon="-7.888672">
        <ele>758</ele>
        <time>1970-01-01T01:17:46.000Z</time>
      </trkpt>
      <trkpt lat="42.731072" lon="-7.888673">
        <ele>758</ele>
        <time>1970-01-01T01:17:47.000Z</time>
      </trkpt>
      <trkpt lat="42.731061" lon="-7.888672">
        <ele>758.5</ele>
        <time>1970-01-01T01:17:48.000Z</time>
      </trkpt>
      <trkpt lat="42.731049" lon="-7.888671">
        <ele>758.5</ele>
        <time>1970-01-01T01:17:49.000Z</time>
      </trkpt>
      <trkpt lat="42.731041" lon="-7.888666">
        <ele>758.5</ele>
        <time>1970-01-01T01:17:50.000Z</time>
      </trkpt>
      <trkpt lat="42.73103" lon="-7.888666">
        <ele>759</ele>
        <time>1970-01-01T01:17:51.000Z</time>
      </trkpt>
      <trkpt lat="42.731018" lon="-7.888661">
        <ele>759</ele>
        <time>1970-01-01T01:17:52.000Z</time>
      </trkpt>
      <trkpt lat="42.731005" lon="-7.888659">
        <ele>759</ele>
        <time>1970-01-01T01:17:53.000Z</time>
      </trkpt>
      <trkpt lat="42.730994" lon="-7.888659">
        <ele>759.5</ele>
        <time>1970-01-01T01:17:54.000Z</time>
      </trkpt>
      <trkpt lat="42.730981" lon="-7.88866">
        <ele>759.5</ele>
        <time>1970-01-01T01:17:55.000Z</time>
      </trkpt>
      <trkpt lat="42.730969" lon="-7.888659">
        <ele>759.5</ele>
        <time>1970-01-01T01:17:56.000Z</time>
      </trkpt>
      <trkpt lat="42.730957" lon="-7.888658">
        <ele>760</ele>
        <time>1970-01-01T01:17:57.000Z</time>
      </trkpt>
      <trkpt lat="42.730945" lon="-7.888656">
        <ele>760</ele>
        <time>1970-01-01T01:17:58.000Z</time>
      </trkpt>
      <trkpt lat="42.730936" lon="-7.88865">
        <ele>760</ele>
        <time>1970-01-01T01:17:59.000Z</time>
      </trkpt>
      <trkpt lat="42.730926" lon="-7.888645">
        <ele>760</ele>
        <time>1970-01-01T01:18:00.000Z</time>
      </trkpt>
      <trkpt lat="42.730915" lon="-7.888643">
        <ele>760</ele>
        <time>1970-01-01T01:18:01.000Z</time>
      </trkpt>
      <trkpt lat="42.730903" lon="-7.88864">
        <ele>760.6</ele>
        <time>1970-01-01T01:18:02.000Z</time>
      </trkpt>
      <trkpt lat="42.730893" lon="-7.888638">
        <ele>760.6</ele>
        <time>1970-01-01T01:18:03.000Z</time>
      </trkpt>
      <trkpt lat="42.730882" lon="-7.888635">
        <ele>760.6</ele>
        <time>1970-01-01T01:18:04.000Z</time>
      </trkpt>
      <trkpt lat="42.730871" lon="-7.888631">
        <ele>761.6</ele>
        <time>1970-01-01T01:18:05.000Z</time>
      </trkpt>
      <trkpt lat="42.730859" lon="-7.888628">
        <ele>761.6</ele>
        <time>1970-01-01T01:18:06.000Z</time>
      </trkpt>
      <trkpt lat="42.730847" lon="-7.888627">
        <ele>761.6</ele>
        <time>1970-01-01T01:18:07.000Z</time>
      </trkpt>
      <trkpt lat="42.730834" lon="-7.888627">
        <ele>762.2</ele>
        <time>1970-01-01T01:18:08.000Z</time>
      </trkpt>
      <trkpt lat="42.730822" lon="-7.888622">
        <ele>762.2</ele>
        <time>1970-01-01T01:18:09.000Z</time>
      </trkpt>
      <trkpt lat="42.730808" lon="-7.888621">
        <ele>762.8</ele>
        <time>1970-01-01T01:18:10.000Z</time>
      </trkpt>
      <trkpt lat="42.730796" lon="-7.888618">
        <ele>762.8</ele>
        <time>1970-01-01T01:18:11.000Z</time>
      </trkpt>
      <trkpt lat="42.730784" lon="-7.888614">
        <ele>762.8</ele>
        <time>1970-01-01T01:18:12.000Z</time>
      </trkpt>
      <trkpt lat="42.730771" lon="-7.88861">
        <ele>762.6</ele>
        <time>1970-01-01T01:18:13.000Z</time>
      </trkpt>
      <trkpt lat="42.730758" lon="-7.888609">
        <ele>762.6</ele>
        <time>1970-01-01T01:18:14.000Z</time>
      </trkpt>
      <trkpt lat="42.730745" lon="-7.888605">
        <ele>763.1</ele>
        <time>1970-01-01T01:18:15.000Z</time>
      </trkpt>
      <trkpt lat="42.730733" lon="-7.888602">
        <ele>763.1</ele>
        <time>1970-01-01T01:18:16.000Z</time>
      </trkpt>
      <trkpt lat="42.73072" lon="-7.8886">
        <ele>763.1</ele>
        <time>1970-01-01T01:18:17.000Z</time>
      </trkpt>
      <trkpt lat="42.730707" lon="-7.888597">
        <ele>763.6</ele>
        <time>1970-01-01T01:18:18.000Z</time>
      </trkpt>
      <trkpt lat="42.730694" lon="-7.888598">
        <ele>763.6</ele>
        <time>1970-01-01T01:18:19.000Z</time>
      </trkpt>
      <trkpt lat="42.730682" lon="-7.888596">
        <ele>764.1</ele>
        <time>1970-01-01T01:18:20.000Z</time>
      </trkpt>
      <trkpt lat="42.73067" lon="-7.888596">
        <ele>764.1</ele>
        <time>1970-01-01T01:18:21.000Z</time>
      </trkpt>
      <trkpt lat="42.730656" lon="-7.888598">
        <ele>764.1</ele>
        <time>1970-01-01T01:18:22.000Z</time>
      </trkpt>
      <trkpt lat="42.730643" lon="-7.8886">
        <ele>764.6</ele>
        <time>1970-01-01T01:18:23.000Z</time>
      </trkpt>
      <trkpt lat="42.730631" lon="-7.888599">
        <ele>764.6</ele>
        <time>1970-01-01T01:18:24.000Z</time>
      </trkpt>
      <trkpt lat="42.730619" lon="-7.888597">
        <ele>765</ele>
        <time>1970-01-01T01:18:25.000Z</time>
      </trkpt>
      <trkpt lat="42.730608" lon="-7.888594">
        <ele>765</ele>
        <time>1970-01-01T01:18:26.000Z</time>
      </trkpt>
      <trkpt lat="42.730596" lon="-7.888595">
        <ele>765</ele>
        <time>1970-01-01T01:18:27.000Z</time>
      </trkpt>
      <trkpt lat="42.730584" lon="-7.888599">
        <ele>765.5</ele>
        <time>1970-01-01T01:18:28.000Z</time>
      </trkpt>
      <trkpt lat="42.730572" lon="-7.888602">
        <ele>765.5</ele>
        <time>1970-01-01T01:18:29.000Z</time>
      </trkpt>
      <trkpt lat="42.730559" lon="-7.888605">
        <ele>765.9</ele>
        <time>1970-01-01T01:18:30.000Z</time>
      </trkpt>
      <trkpt lat="42.730548" lon="-7.88861">
        <ele>765.9</ele>
        <time>1970-01-01T01:18:31.000Z</time>
      </trkpt>
      <trkpt lat="42.730537" lon="-7.888616">
        <ele>766.6</ele>
        <time>1970-01-01T01:18:32.000Z</time>
      </trkpt>
      <trkpt lat="42.730525" lon="-7.888619">
        <ele>767</ele>
        <time>1970-01-01T01:18:33.000Z</time>
      </trkpt>
      <trkpt lat="42.730514" lon="-7.888617">
        <ele>767</ele>
        <time>1970-01-01T01:18:34.000Z</time>
      </trkpt>
      <trkpt lat="42.730502" lon="-7.888615">
        <ele>767</ele>
        <time>1970-01-01T01:18:35.000Z</time>
      </trkpt>
      <trkpt lat="42.730492" lon="-7.888612">
        <ele>766.7</ele>
        <time>1970-01-01T01:18:36.000Z</time>
      </trkpt>
      <trkpt lat="42.730481" lon="-7.888613">
        <ele>767.4</ele>
        <time>1970-01-01T01:18:37.000Z</time>
      </trkpt>
      <trkpt lat="42.73047" lon="-7.888615">
        <ele>767.4</ele>
        <time>1970-01-01T01:18:38.000Z</time>
      </trkpt>
      <trkpt lat="42.730459" lon="-7.88862">
        <ele>767.8</ele>
        <time>1970-01-01T01:18:39.000Z</time>
      </trkpt>
      <trkpt lat="42.730448" lon="-7.888623">
        <ele>767.8</ele>
        <time>1970-01-01T01:18:40.000Z</time>
      </trkpt>
      <trkpt lat="42.730437" lon="-7.888627">
        <ele>767.8</ele>
        <time>1970-01-01T01:18:41.000Z</time>
      </trkpt>
      <trkpt lat="42.730426" lon="-7.888631">
        <ele>768.1</ele>
        <time>1970-01-01T01:18:42.000Z</time>
      </trkpt>
      <trkpt lat="42.730416" lon="-7.888635">
        <ele>768.1</ele>
        <time>1970-01-01T01:18:43.000Z</time>
      </trkpt>
      <trkpt lat="42.730406" lon="-7.888637">
        <ele>768.1</ele>
        <time>1970-01-01T01:18:44.000Z</time>
      </trkpt>
      <trkpt lat="42.730396" lon="-7.88864">
        <ele>768.5</ele>
        <time>1970-01-01T01:18:45.000Z</time>
      </trkpt>
      <trkpt lat="42.730386" lon="-7.888646">
        <ele>768.5</ele>
        <time>1970-01-01T01:18:46.000Z</time>
      </trkpt>
      <trkpt lat="42.730376" lon="-7.88865">
        <ele>768.5</ele>
        <time>1970-01-01T01:18:47.000Z</time>
      </trkpt>
      <trkpt lat="42.730367" lon="-7.888658">
        <ele>769.5</ele>
        <time>1970-01-01T01:18:48.000Z</time>
      </trkpt>
      <trkpt lat="42.730357" lon="-7.888664">
        <ele>769.5</ele>
        <time>1970-01-01T01:18:49.000Z</time>
      </trkpt>
      <trkpt lat="42.730346" lon="-7.888668">
        <ele>769.5</ele>
        <time>1970-01-01T01:18:50.000Z</time>
      </trkpt>
      <trkpt lat="42.730335" lon="-7.888675">
        <ele>769.8</ele>
        <time>1970-01-01T01:18:51.000Z</time>
      </trkpt>
      <trkpt lat="42.730326" lon="-7.888681">
        <ele>769.8</ele>
        <time>1970-01-01T01:18:52.000Z</time>
      </trkpt>
      <trkpt lat="42.730315" lon="-7.888685">
        <ele>769.8</ele>
        <time>1970-01-01T01:18:53.000Z</time>
      </trkpt>
      <trkpt lat="42.730304" lon="-7.88869">
        <ele>770.1</ele>
        <time>1970-01-01T01:18:54.000Z</time>
      </trkpt>
      <trkpt lat="42.730293" lon="-7.888696">
        <ele>770.1</ele>
        <time>1970-01-01T01:18:55.000Z</time>
      </trkpt>
      <trkpt lat="42.730283" lon="-7.888703">
        <ele>770.8</ele>
        <time>1970-01-01T01:18:56.000Z</time>
      </trkpt>
      <trkpt lat="42.730274" lon="-7.888711">
        <ele>771.1</ele>
        <time>1970-01-01T01:18:57.000Z</time>
      </trkpt>
      <trkpt lat="42.730265" lon="-7.888717">
        <ele>771.1</ele>
        <time>1970-01-01T01:18:58.000Z</time>
      </trkpt>
      <trkpt lat="42.730254" lon="-7.888722">
        <ele>771.1</ele>
        <time>1970-01-01T01:18:59.000Z</time>
      </trkpt>
      <trkpt lat="42.730244" lon="-7.88873">
        <ele>771.1</ele>
        <time>1970-01-01T01:19:00.000Z</time>
      </trkpt>
      <trkpt lat="42.730233" lon="-7.888735">
        <ele>771.5</ele>
        <time>1970-01-01T01:19:01.000Z</time>
      </trkpt>
      <trkpt lat="42.730223" lon="-7.888741">
        <ele>771.5</ele>
        <time>1970-01-01T01:19:02.000Z</time>
      </trkpt>
      <trkpt lat="42.730215" lon="-7.888749">
        <ele>772.1</ele>
        <time>1970-01-01T01:19:03.000Z</time>
      </trkpt>
      <trkpt lat="42.730206" lon="-7.888755">
        <ele>772.4</ele>
        <time>1970-01-01T01:19:04.000Z</time>
      </trkpt>
      <trkpt lat="42.730197" lon="-7.888761">
        <ele>772.4</ele>
        <time>1970-01-01T01:19:05.000Z</time>
      </trkpt>
      <trkpt lat="42.730185" lon="-7.888766">
        <ele>772.4</ele>
        <time>1970-01-01T01:19:06.000Z</time>
      </trkpt>
      <trkpt lat="42.730174" lon="-7.888774">
        <ele>772.6</ele>
        <time>1970-01-01T01:19:07.000Z</time>
      </trkpt>
      <trkpt lat="42.730164" lon="-7.888781">
        <ele>772.6</ele>
        <time>1970-01-01T01:19:08.000Z</time>
      </trkpt>
      <trkpt lat="42.730155" lon="-7.888789">
        <ele>773.3</ele>
        <time>1970-01-01T01:19:09.000Z</time>
      </trkpt>
      <trkpt lat="42.730146" lon="-7.888795">
        <ele>773.5</ele>
        <time>1970-01-01T01:19:10.000Z</time>
      </trkpt>
      <trkpt lat="42.730135" lon="-7.888802">
        <ele>773.5</ele>
        <time>1970-01-01T01:19:11.000Z</time>
      </trkpt>
      <trkpt lat="42.730125" lon="-7.888808">
        <ele>773.5</ele>
        <time>1970-01-01T01:19:12.000Z</time>
      </trkpt>
      <trkpt lat="42.730116" lon="-7.888815">
        <ele>773.7</ele>
        <time>1970-01-01T01:19:13.000Z</time>
      </trkpt>
      <trkpt lat="42.730108" lon="-7.888823">
        <ele>773.7</ele>
        <time>1970-01-01T01:19:14.000Z</time>
      </trkpt>
      <trkpt lat="42.730099" lon="-7.888833">
        <ele>774.4</ele>
        <time>1970-01-01T01:19:15.000Z</time>
      </trkpt>
      <trkpt lat="42.730089" lon="-7.88884">
        <ele>774.4</ele>
        <time>1970-01-01T01:19:16.000Z</time>
      </trkpt>
      <trkpt lat="42.730078" lon="-7.888847">
        <ele>774.6</ele>
        <time>1970-01-01T01:19:17.000Z</time>
      </trkpt>
      <trkpt lat="42.730068" lon="-7.888853">
        <ele>774.6</ele>
        <time>1970-01-01T01:19:18.000Z</time>
      </trkpt>
      <trkpt lat="42.730058" lon="-7.888862">
        <ele>774.6</ele>
        <time>1970-01-01T01:19:19.000Z</time>
      </trkpt>
      <trkpt lat="42.73005" lon="-7.888872">
        <ele>775.5</ele>
        <time>1970-01-01T01:19:20.000Z</time>
      </trkpt>
      <trkpt lat="42.730042" lon="-7.888884">
        <ele>775.5</ele>
        <time>1970-01-01T01:19:21.000Z</time>
      </trkpt>
      <trkpt lat="42.730033" lon="-7.888895">
        <ele>775.5</ele>
        <time>1970-01-01T01:19:22.000Z</time>
      </trkpt>
      <trkpt lat="42.730024" lon="-7.888901">
        <ele>775.5</ele>
        <time>1970-01-01T01:19:23.000Z</time>
      </trkpt>
      <trkpt lat="42.730016" lon="-7.888907">
        <ele>775.7</ele>
        <time>1970-01-01T01:19:24.000Z</time>
      </trkpt>
      <trkpt lat="42.730008" lon="-7.888914">
        <ele>776.4</ele>
        <time>1970-01-01T01:19:25.000Z</time>
      </trkpt>
      <trkpt lat="42.73" lon="-7.888923">
        <ele>776.4</ele>
        <time>1970-01-01T01:19:26.000Z</time>
      </trkpt>
      <trkpt lat="42.729993" lon="-7.888934">
        <ele>776.4</ele>
        <time>1970-01-01T01:19:27.000Z</time>
      </trkpt>
      <trkpt lat="42.729986" lon="-7.888945">
        <ele>776.6</ele>
        <time>1970-01-01T01:19:28.000Z</time>
      </trkpt>
      <trkpt lat="42.729979" lon="-7.888958">
        <ele>777.3</ele>
        <time>1970-01-01T01:19:29.000Z</time>
      </trkpt>
      <trkpt lat="42.729971" lon="-7.888969">
        <ele>777.3</ele>
        <time>1970-01-01T01:19:30.000Z</time>
      </trkpt>
      <trkpt lat="42.729964" lon="-7.888981">
        <ele>777.3</ele>
        <time>1970-01-01T01:19:31.000Z</time>
      </trkpt>
      <trkpt lat="42.729956" lon="-7.888991">
        <ele>777.5</ele>
        <time>1970-01-01T01:19:32.000Z</time>
      </trkpt>
      <trkpt lat="42.729947" lon="-7.889">
        <ele>778.1</ele>
        <time>1970-01-01T01:19:33.000Z</time>
      </trkpt>
      <trkpt lat="42.729941" lon="-7.889012">
        <ele>778.1</ele>
        <time>1970-01-01T01:19:34.000Z</time>
      </trkpt>
      <trkpt lat="42.729933" lon="-7.889023">
        <ele>778.1</ele>
        <time>1970-01-01T01:19:35.000Z</time>
      </trkpt>
      <trkpt lat="42.729925" lon="-7.889033">
        <ele>778.2</ele>
        <time>1970-01-01T01:19:36.000Z</time>
      </trkpt>
      <trkpt lat="42.729918" lon="-7.889044">
        <ele>778.8</ele>
        <time>1970-01-01T01:19:37.000Z</time>
      </trkpt>
      <trkpt lat="42.729912" lon="-7.889056">
        <ele>778.8</ele>
        <time>1970-01-01T01:19:38.000Z</time>
      </trkpt>
      <trkpt lat="42.729908" lon="-7.889069">
        <ele>778.8</ele>
        <time>1970-01-01T01:19:39.000Z</time>
      </trkpt>
      <trkpt lat="42.729902" lon="-7.889081">
        <ele>778.8</ele>
        <time>1970-01-01T01:19:40.000Z</time>
      </trkpt>
      <trkpt lat="42.729895" lon="-7.889092">
        <ele>779.5</ele>
        <time>1970-01-01T01:19:41.000Z</time>
      </trkpt>
      <trkpt lat="42.729888" lon="-7.889101">
        <ele>779.5</ele>
        <time>1970-01-01T01:19:42.000Z</time>
      </trkpt>
      <trkpt lat="42.729881" lon="-7.889112">
        <ele>779.5</ele>
        <time>1970-01-01T01:19:43.000Z</time>
      </trkpt>
      <trkpt lat="42.729875" lon="-7.889124">
        <ele>779.5</ele>
        <time>1970-01-01T01:19:44.000Z</time>
      </trkpt>
      <trkpt lat="42.72987" lon="-7.889136">
        <ele>780</ele>
        <time>1970-01-01T01:19:45.000Z</time>
      </trkpt>
      <trkpt lat="42.729863" lon="-7.889148">
        <ele>780.1</ele>
        <time>1970-01-01T01:19:46.000Z</time>
      </trkpt>
      <trkpt lat="42.729858" lon="-7.889162">
        <ele>780.1</ele>
        <time>1970-01-01T01:19:47.000Z</time>
      </trkpt>
      <trkpt lat="42.729852" lon="-7.889174">
        <ele>780.6</ele>
        <time>1970-01-01T01:19:48.000Z</time>
      </trkpt>
      <trkpt lat="42.729847" lon="-7.889186">
        <ele>780.6</ele>
        <time>1970-01-01T01:19:49.000Z</time>
      </trkpt>
      <trkpt lat="42.729843" lon="-7.8892">
        <ele>780.6</ele>
        <time>1970-01-01T01:19:50.000Z</time>
      </trkpt>
      <trkpt lat="42.729839" lon="-7.889212">
        <ele>780.6</ele>
        <time>1970-01-01T01:19:51.000Z</time>
      </trkpt>
      <trkpt lat="42.729834" lon="-7.889225">
        <ele>781.2</ele>
        <time>1970-01-01T01:19:52.000Z</time>
      </trkpt>
      <trkpt lat="42.72983" lon="-7.889238">
        <ele>781.2</ele>
        <time>1970-01-01T01:19:53.000Z</time>
      </trkpt>
      <trkpt lat="42.729825" lon="-7.889251">
        <ele>781.2</ele>
        <time>1970-01-01T01:19:54.000Z</time>
      </trkpt>
      <trkpt lat="42.729819" lon="-7.889263">
        <ele>781.8</ele>
        <time>1970-01-01T01:19:55.000Z</time>
      </trkpt>
      <trkpt lat="42.729813" lon="-7.889274">
        <ele>781.8</ele>
        <time>1970-01-01T01:19:56.000Z</time>
      </trkpt>
      <trkpt lat="42.729808" lon="-7.889284">
        <ele>781.8</ele>
        <time>1970-01-01T01:19:57.000Z</time>
      </trkpt>
      <trkpt lat="42.729803" lon="-7.889296">
        <ele>781.8</ele>
        <time>1970-01-01T01:19:58.000Z</time>
      </trkpt>
      <trkpt lat="42.729799" lon="-7.889308">
        <ele>782.4</ele>
        <time>1970-01-01T01:19:59.000Z</time>
      </trkpt>
      <trkpt lat="42.729795" lon="-7.889319">
        <ele>782.4</ele>
        <time>1970-01-01T01:20:00.000Z</time>
      </trkpt>
      <trkpt lat="42.729792" lon="-7.889331">
        <ele>782.4</ele>
        <time>1970-01-01T01:20:01.000Z</time>
      </trkpt>
      <trkpt lat="42.729789" lon="-7.889341">
        <ele>782.4</ele>
        <time>1970-01-01T01:20:02.000Z</time>
      </trkpt>
      <trkpt lat="42.729785" lon="-7.889353">
        <ele>782.9</ele>
        <time>1970-01-01T01:20:03.000Z</time>
      </trkpt>
      <trkpt lat="42.729779" lon="-7.889365">
        <ele>782.9</ele>
        <time>1970-01-01T01:20:04.000Z</time>
      </trkpt>
      <trkpt lat="42.729773" lon="-7.889376">
        <ele>782.9</ele>
        <time>1970-01-01T01:20:05.000Z</time>
      </trkpt>
      <trkpt lat="42.729769" lon="-7.889388">
        <ele>783.6</ele>
        <time>1970-01-01T01:20:06.000Z</time>
      </trkpt>
      <trkpt lat="42.729763" lon="-7.889399">
        <ele>783.6</ele>
        <time>1970-01-01T01:20:07.000Z</time>
      </trkpt>
      <trkpt lat="42.729758" lon="-7.88941">
        <ele>783.6</ele>
        <time>1970-01-01T01:20:08.000Z</time>
      </trkpt>
      <trkpt lat="42.729753" lon="-7.889422">
        <ele>783.6</ele>
        <time>1970-01-01T01:20:09.000Z</time>
      </trkpt>
      <trkpt lat="42.729748" lon="-7.889435">
        <ele>784.1</ele>
        <time>1970-01-01T01:20:10.000Z</time>
      </trkpt>
      <trkpt lat="42.729744" lon="-7.889447">
        <ele>784.1</ele>
        <time>1970-01-01T01:20:11.000Z</time>
      </trkpt>
      <trkpt lat="42.729739" lon="-7.889458">
        <ele>784.2</ele>
        <time>1970-01-01T01:20:12.000Z</time>
      </trkpt>
      <trkpt lat="42.729734" lon="-7.88947">
        <ele>784.2</ele>
        <time>1970-01-01T01:20:13.000Z</time>
      </trkpt>
      <trkpt lat="42.729729" lon="-7.889483">
        <ele>784.7</ele>
        <time>1970-01-01T01:20:14.000Z</time>
      </trkpt>
      <trkpt lat="42.729726" lon="-7.889496">
        <ele>784.7</ele>
        <time>1970-01-01T01:20:15.000Z</time>
      </trkpt>
      <trkpt lat="42.729722" lon="-7.889509">
        <ele>784.7</ele>
        <time>1970-01-01T01:20:16.000Z</time>
      </trkpt>
      <trkpt lat="42.729716" lon="-7.889522">
        <ele>785.2</ele>
        <time>1970-01-01T01:20:17.000Z</time>
      </trkpt>
      <trkpt lat="42.729709" lon="-7.889532">
        <ele>785.2</ele>
        <time>1970-01-01T01:20:18.000Z</time>
      </trkpt>
      <trkpt lat="42.729704" lon="-7.889543">
        <ele>785.4</ele>
        <time>1970-01-01T01:20:19.000Z</time>
      </trkpt>
      <trkpt lat="42.729698" lon="-7.889554">
        <ele>785.4</ele>
        <time>1970-01-01T01:20:20.000Z</time>
      </trkpt>
      <trkpt lat="42.729695" lon="-7.889567">
        <ele>785.9</ele>
        <time>1970-01-01T01:20:21.000Z</time>
      </trkpt>
      <trkpt lat="42.729691" lon="-7.889579">
        <ele>785.9</ele>
        <time>1970-01-01T01:20:22.000Z</time>
      </trkpt>
      <trkpt lat="42.729686" lon="-7.889591">
        <ele>785.9</ele>
        <time>1970-01-01T01:20:23.000Z</time>
      </trkpt>
      <trkpt lat="42.72968" lon="-7.889602">
        <ele>786.5</ele>
        <time>1970-01-01T01:20:24.000Z</time>
      </trkpt>
      <trkpt lat="42.729676" lon="-7.889615">
        <ele>786.6</ele>
        <time>1970-01-01T01:20:25.000Z</time>
      </trkpt>
      <trkpt lat="42.729673" lon="-7.889627">
        <ele>786.6</ele>
        <time>1970-01-01T01:20:26.000Z</time>
      </trkpt>
      <trkpt lat="42.729668" lon="-7.889639">
        <ele>786.6</ele>
        <time>1970-01-01T01:20:27.000Z</time>
      </trkpt>
      <trkpt lat="42.729666" lon="-7.889652">
        <ele>787.2</ele>
        <time>1970-01-01T01:20:28.000Z</time>
      </trkpt>
      <trkpt lat="42.729663" lon="-7.889667">
        <ele>787.2</ele>
        <time>1970-01-01T01:20:29.000Z</time>
      </trkpt>
      <trkpt lat="42.729659" lon="-7.889679">
        <ele>787.2</ele>
        <time>1970-01-01T01:20:30.000Z</time>
      </trkpt>
      <trkpt lat="42.729652" lon="-7.88969">
        <ele>787.8</ele>
        <time>1970-01-01T01:20:31.000Z</time>
      </trkpt>
      <trkpt lat="42.729647" lon="-7.889702">
        <ele>787.8</ele>
        <time>1970-01-01T01:20:32.000Z</time>
      </trkpt>
      <trkpt lat="42.729643" lon="-7.889714">
        <ele>788</ele>
        <time>1970-01-01T01:20:33.000Z</time>
      </trkpt>
      <trkpt lat="42.729641" lon="-7.889726">
        <ele>788</ele>
        <time>1970-01-01T01:20:34.000Z</time>
      </trkpt>
      <trkpt lat="42.729637" lon="-7.889739">
        <ele>788.6</ele>
        <time>1970-01-01T01:20:35.000Z</time>
      </trkpt>
      <trkpt lat="42.729634" lon="-7.889752">
        <ele>788.6</ele>
        <time>1970-01-01T01:20:36.000Z</time>
      </trkpt>
      <trkpt lat="42.729632" lon="-7.889765">
        <ele>788.6</ele>
        <time>1970-01-01T01:20:37.000Z</time>
      </trkpt>
      <trkpt lat="42.729634" lon="-7.889778">
        <ele>789.1</ele>
        <time>1970-01-01T01:20:38.000Z</time>
      </trkpt>
      <trkpt lat="42.729635" lon="-7.889792">
        <ele>789.1</ele>
        <time>1970-01-01T01:20:39.000Z</time>
      </trkpt>
      <trkpt lat="42.729635" lon="-7.889808">
        <ele>789.1</ele>
        <time>1970-01-01T01:20:40.000Z</time>
      </trkpt>
      <trkpt lat="42.729634" lon="-7.889823">
        <ele>789.6</ele>
        <time>1970-01-01T01:20:41.000Z</time>
      </trkpt>
      <trkpt lat="42.729632" lon="-7.889839">
        <ele>789.6</ele>
        <time>1970-01-01T01:20:42.000Z</time>
      </trkpt>
      <trkpt lat="42.72963" lon="-7.889852">
        <ele>789.6</ele>
        <time>1970-01-01T01:20:43.000Z</time>
      </trkpt>
      <trkpt lat="42.729626" lon="-7.889867">
        <ele>790</ele>
        <time>1970-01-01T01:20:44.000Z</time>
      </trkpt>
      <trkpt lat="42.729622" lon="-7.889882">
        <ele>790</ele>
        <time>1970-01-01T01:20:45.000Z</time>
      </trkpt>
      <trkpt lat="42.729619" lon="-7.889895">
        <ele>790</ele>
        <time>1970-01-01T01:20:46.000Z</time>
      </trkpt>
      <trkpt lat="42.729615" lon="-7.889908">
        <ele>790.4</ele>
        <time>1970-01-01T01:20:47.000Z</time>
      </trkpt>
      <trkpt lat="42.729614" lon="-7.889922">
        <ele>790.4</ele>
        <time>1970-01-01T01:20:48.000Z</time>
      </trkpt>
      <trkpt lat="42.729613" lon="-7.889936">
        <ele>790.6</ele>
        <time>1970-01-01T01:20:49.000Z</time>
      </trkpt>
      <trkpt lat="42.729613" lon="-7.88995">
        <ele>791</ele>
        <time>1970-01-01T01:20:50.000Z</time>
      </trkpt>
      <trkpt lat="42.729612" lon="-7.889965">
        <ele>791</ele>
        <time>1970-01-01T01:20:51.000Z</time>
      </trkpt>
      <trkpt lat="42.72961" lon="-7.88998">
        <ele>791</ele>
        <time>1970-01-01T01:20:52.000Z</time>
      </trkpt>
      <trkpt lat="42.729609" lon="-7.889995">
        <ele>791.4</ele>
        <time>1970-01-01T01:20:53.000Z</time>
      </trkpt>
      <trkpt lat="42.729606" lon="-7.890008">
        <ele>791.4</ele>
        <time>1970-01-01T01:20:54.000Z</time>
      </trkpt>
      <trkpt lat="42.729604" lon="-7.890022">
        <ele>791.4</ele>
        <time>1970-01-01T01:20:55.000Z</time>
      </trkpt>
      <trkpt lat="42.729605" lon="-7.890036">
        <ele>791.7</ele>
        <time>1970-01-01T01:20:56.000Z</time>
      </trkpt>
      <trkpt lat="42.729603" lon="-7.890051">
        <ele>791.7</ele>
        <time>1970-01-01T01:20:57.000Z</time>
      </trkpt>
      <trkpt lat="42.729602" lon="-7.890064">
        <ele>791.7</ele>
        <time>1970-01-01T01:20:58.000Z</time>
      </trkpt>
      <trkpt lat="42.729601" lon="-7.890078">
        <ele>792.1</ele>
        <time>1970-01-01T01:20:59.000Z</time>
      </trkpt>
      <trkpt lat="42.729596" lon="-7.89009">
        <ele>792.1</ele>
        <time>1970-01-01T01:21:00.000Z</time>
      </trkpt>
      <trkpt lat="42.729594" lon="-7.890103">
        <ele>792.1</ele>
        <time>1970-01-01T01:21:01.000Z</time>
      </trkpt>
      <trkpt lat="42.72959" lon="-7.890117">
        <ele>792.5</ele>
        <time>1970-01-01T01:21:02.000Z</time>
      </trkpt>
      <trkpt lat="42.729585" lon="-7.890129">
        <ele>792.5</ele>
        <time>1970-01-01T01:21:03.000Z</time>
      </trkpt>
      <trkpt lat="42.729583" lon="-7.890142">
        <ele>792.5</ele>
        <time>1970-01-01T01:21:04.000Z</time>
      </trkpt>
      <trkpt lat="42.729581" lon="-7.890155">
        <ele>792.8</ele>
        <time>1970-01-01T01:21:05.000Z</time>
      </trkpt>
      <trkpt lat="42.72958" lon="-7.890169">
        <ele>793.2</ele>
        <time>1970-01-01T01:21:06.000Z</time>
      </trkpt>
      <trkpt lat="42.729579" lon="-7.890184">
        <ele>793.2</ele>
        <time>1970-01-01T01:21:07.000Z</time>
      </trkpt>
      <trkpt lat="42.729577" lon="-7.890198">
        <ele>793.2</ele>
        <time>1970-01-01T01:21:08.000Z</time>
      </trkpt>
      <trkpt lat="42.729573" lon="-7.89021">
        <ele>793.7</ele>
        <time>1970-01-01T01:21:09.000Z</time>
      </trkpt>
      <trkpt lat="42.729571" lon="-7.890222">
        <ele>793.7</ele>
        <time>1970-01-01T01:21:10.000Z</time>
      </trkpt>
      <trkpt lat="42.72957" lon="-7.890236">
        <ele>793.7</ele>
        <time>1970-01-01T01:21:11.000Z</time>
      </trkpt>
      <trkpt lat="42.729569" lon="-7.890251">
        <ele>794.1</ele>
        <time>1970-01-01T01:21:12.000Z</time>
      </trkpt>
      <trkpt lat="42.729566" lon="-7.890265">
        <ele>794.1</ele>
        <time>1970-01-01T01:21:13.000Z</time>
      </trkpt>
      <trkpt lat="42.729563" lon="-7.890278">
        <ele>794.1</ele>
        <time>1970-01-01T01:21:14.000Z</time>
      </trkpt>
      <trkpt lat="42.729559" lon="-7.89029">
        <ele>794.5</ele>
        <time>1970-01-01T01:21:15.000Z</time>
      </trkpt>
      <trkpt lat="42.729557" lon="-7.890303">
        <ele>794.5</ele>
        <time>1970-01-01T01:21:16.000Z</time>
      </trkpt>
      <trkpt lat="42.729555" lon="-7.890317">
        <ele>794.5</ele>
        <time>1970-01-01T01:21:17.000Z</time>
      </trkpt>
      <trkpt lat="42.729553" lon="-7.890331">
        <ele>794.9</ele>
        <time>1970-01-01T01:21:18.000Z</time>
      </trkpt>
      <trkpt lat="42.729551" lon="-7.890345">
        <ele>794.9</ele>
        <time>1970-01-01T01:21:19.000Z</time>
      </trkpt>
      <trkpt lat="42.729548" lon="-7.890356">
        <ele>795.3</ele>
        <time>1970-01-01T01:21:20.000Z</time>
      </trkpt>
      <trkpt lat="42.729543" lon="-7.890367">
        <ele>795.3</ele>
        <time>1970-01-01T01:21:21.000Z</time>
      </trkpt>
      <trkpt lat="42.729538" lon="-7.890379">
        <ele>795.7</ele>
        <time>1970-01-01T01:21:22.000Z</time>
      </trkpt>
      <trkpt lat="42.729533" lon="-7.890392">
        <ele>795.7</ele>
        <time>1970-01-01T01:21:23.000Z</time>
      </trkpt>
      <trkpt lat="42.72953" lon="-7.890406">
        <ele>795.7</ele>
        <time>1970-01-01T01:21:24.000Z</time>
      </trkpt>
      <trkpt lat="42.729527" lon="-7.89042">
        <ele>796</ele>
        <time>1970-01-01T01:21:25.000Z</time>
      </trkpt>
      <trkpt lat="42.729522" lon="-7.890433">
        <ele>796</ele>
        <time>1970-01-01T01:21:26.000Z</time>
      </trkpt>
      <trkpt lat="42.729516" lon="-7.890445">
        <ele>796.4</ele>
        <time>1970-01-01T01:21:27.000Z</time>
      </trkpt>
      <trkpt lat="42.72951" lon="-7.890456">
        <ele>796.4</ele>
        <time>1970-01-01T01:21:28.000Z</time>
      </trkpt>
      <trkpt lat="42.729505" lon="-7.890466">
        <ele>796.8</ele>
        <time>1970-01-01T01:21:29.000Z</time>
      </trkpt>
      <trkpt lat="42.729499" lon="-7.890476">
        <ele>796.8</ele>
        <time>1970-01-01T01:21:30.000Z</time>
      </trkpt>
      <trkpt lat="42.729492" lon="-7.890487">
        <ele>796.8</ele>
        <time>1970-01-01T01:21:31.000Z</time>
      </trkpt>
      <trkpt lat="42.729485" lon="-7.8905">
        <ele>797.2</ele>
        <time>1970-01-01T01:21:32.000Z</time>
      </trkpt>
      <trkpt lat="42.729476" lon="-7.890511">
        <ele>797.6</ele>
        <time>1970-01-01T01:21:33.000Z</time>
      </trkpt>
      <trkpt lat="42.729466" lon="-7.89052">
        <ele>797.6</ele>
        <time>1970-01-01T01:21:34.000Z</time>
      </trkpt>
      <trkpt lat="42.729458" lon="-7.890532">
        <ele>797.6</ele>
        <time>1970-01-01T01:21:35.000Z</time>
      </trkpt>
      <trkpt lat="42.729451" lon="-7.890544">
        <ele>798.5</ele>
        <time>1970-01-01T01:21:36.000Z</time>
      </trkpt>
      <trkpt lat="42.729441" lon="-7.890554">
        <ele>798.5</ele>
        <time>1970-01-01T01:21:37.000Z</time>
      </trkpt>
      <trkpt lat="42.729431" lon="-7.89056">
        <ele>798.5</ele>
        <time>1970-01-01T01:21:38.000Z</time>
      </trkpt>
      <trkpt lat="42.729422" lon="-7.890567">
        <ele>798.9</ele>
        <time>1970-01-01T01:21:39.000Z</time>
      </trkpt>
      <trkpt lat="42.729413" lon="-7.890574">
        <ele>798.9</ele>
        <time>1970-01-01T01:21:40.000Z</time>
      </trkpt>
      <trkpt lat="42.729402" lon="-7.890581">
        <ele>798.9</ele>
        <time>1970-01-01T01:21:41.000Z</time>
      </trkpt>
      <trkpt lat="42.729392" lon="-7.890587">
        <ele>799.7</ele>
        <time>1970-01-01T01:21:42.000Z</time>
      </trkpt>
      <trkpt lat="42.729382" lon="-7.890594">
        <ele>799.7</ele>
        <time>1970-01-01T01:21:43.000Z</time>
      </trkpt>
      <trkpt lat="42.729371" lon="-7.8906">
        <ele>799.7</ele>
        <time>1970-01-01T01:21:44.000Z</time>
      </trkpt>
      <trkpt lat="42.729362" lon="-7.890606">
        <ele>799.7</ele>
        <time>1970-01-01T01:21:45.000Z</time>
      </trkpt>
      <trkpt lat="42.729352" lon="-7.890614">
        <ele>800.1</ele>
        <time>1970-01-01T01:21:46.000Z</time>
      </trkpt>
      <trkpt lat="42.729342" lon="-7.89062">
        <ele>800.1</ele>
        <time>1970-01-01T01:21:47.000Z</time>
      </trkpt>
      <trkpt lat="42.729332" lon="-7.890626">
        <ele>800.1</ele>
        <time>1970-01-01T01:21:48.000Z</time>
      </trkpt>
      <trkpt lat="42.729321" lon="-7.890633">
        <ele>800.9</ele>
        <time>1970-01-01T01:21:49.000Z</time>
      </trkpt>
      <trkpt lat="42.72931" lon="-7.890639">
        <ele>800.9</ele>
        <time>1970-01-01T01:21:50.000Z</time>
      </trkpt>
      <trkpt lat="42.729301" lon="-7.890645">
        <ele>800.9</ele>
        <time>1970-01-01T01:21:51.000Z</time>
      </trkpt>
      <trkpt lat="42.729291" lon="-7.890651">
        <ele>801.3</ele>
        <time>1970-01-01T01:21:52.000Z</time>
      </trkpt>
      <trkpt lat="42.729282" lon="-7.890659">
        <ele>801.3</ele>
        <time>1970-01-01T01:21:53.000Z</time>
      </trkpt>
      <trkpt lat="42.729273" lon="-7.890667">
        <ele>801.3</ele>
        <time>1970-01-01T01:21:54.000Z</time>
      </trkpt>
      <trkpt lat="42.729263" lon="-7.890675">
        <ele>802.1</ele>
        <time>1970-01-01T01:21:55.000Z</time>
      </trkpt>
      <trkpt lat="42.729253" lon="-7.890682">
        <ele>802.1</ele>
        <time>1970-01-01T01:21:56.000Z</time>
      </trkpt>
      <trkpt lat="42.729243" lon="-7.890687">
        <ele>802.1</ele>
        <time>1970-01-01T01:21:57.000Z</time>
      </trkpt>
      <trkpt lat="42.729235" lon="-7.890694">
        <ele>802.3</ele>
        <time>1970-01-01T01:21:58.000Z</time>
      </trkpt>
      <trkpt lat="42.729226" lon="-7.890702">
        <ele>802.3</ele>
        <time>1970-01-01T01:21:59.000Z</time>
      </trkpt>
      <trkpt lat="42.729218" lon="-7.890712">
        <ele>802.3</ele>
        <time>1970-01-01T01:22:00.000Z</time>
      </trkpt>
      <trkpt lat="42.72921" lon="-7.890722">
        <ele>802.8</ele>
        <time>1970-01-01T01:22:01.000Z</time>
      </trkpt>
      <trkpt lat="42.729202" lon="-7.890731">
        <ele>803</ele>
        <time>1970-01-01T01:22:02.000Z</time>
      </trkpt>
      <trkpt lat="42.729193" lon="-7.890738">
        <ele>803</ele>
        <time>1970-01-01T01:22:03.000Z</time>
      </trkpt>
      <trkpt lat="42.729185" lon="-7.890749">
        <ele>803</ele>
        <time>1970-01-01T01:22:04.000Z</time>
      </trkpt>
      <trkpt lat="42.729178" lon="-7.890762">
        <ele>803.5</ele>
        <time>1970-01-01T01:22:05.000Z</time>
      </trkpt>
      <trkpt lat="42.72917" lon="-7.890774">
        <ele>803.7</ele>
        <time>1970-01-01T01:22:06.000Z</time>
      </trkpt>
      <trkpt lat="42.729161" lon="-7.890785">
        <ele>803.7</ele>
        <time>1970-01-01T01:22:07.000Z</time>
      </trkpt>
      <trkpt lat="42.729154" lon="-7.890795">
        <ele>803.7</ele>
        <time>1970-01-01T01:22:08.000Z</time>
      </trkpt>
      <trkpt lat="42.72915" lon="-7.890807">
        <ele>804.1</ele>
        <time>1970-01-01T01:22:09.000Z</time>
      </trkpt>
      <trkpt lat="42.729145" lon="-7.890821">
        <ele>804.1</ele>
        <time>1970-01-01T01:22:10.000Z</time>
      </trkpt>
      <trkpt lat="42.729141" lon="-7.890837">
        <ele>804.1</ele>
        <time>1970-01-01T01:22:11.000Z</time>
      </trkpt>
      <trkpt lat="42.729137" lon="-7.890854">
        <ele>804.7</ele>
        <time>1970-01-01T01:22:12.000Z</time>
      </trkpt>
      <trkpt lat="42.729131" lon="-7.89087">
        <ele>804.7</ele>
        <time>1970-01-01T01:22:13.000Z</time>
      </trkpt>
      <trkpt lat="42.729128" lon="-7.890886">
        <ele>804.7</ele>
        <time>1970-01-01T01:22:14.000Z</time>
      </trkpt>
      <trkpt lat="42.729126" lon="-7.890902">
        <ele>805</ele>
        <time>1970-01-01T01:22:15.000Z</time>
      </trkpt>
      <trkpt lat="42.729123" lon="-7.890918">
        <ele>805</ele>
        <time>1970-01-01T01:22:16.000Z</time>
      </trkpt>
      <trkpt lat="42.729121" lon="-7.890932">
        <ele>805.4</ele>
        <time>1970-01-01T01:22:17.000Z</time>
      </trkpt>
      <trkpt lat="42.729119" lon="-7.890948">
        <ele>805.4</ele>
        <time>1970-01-01T01:22:18.000Z</time>
      </trkpt>
      <trkpt lat="42.729116" lon="-7.890963">
        <ele>805.4</ele>
        <time>1970-01-01T01:22:19.000Z</time>
      </trkpt>
      <trkpt lat="42.729114" lon="-7.890978">
        <ele>805.7</ele>
        <time>1970-01-01T01:22:20.000Z</time>
      </trkpt>
      <trkpt lat="42.729112" lon="-7.890991">
        <ele>805.7</ele>
        <time>1970-01-01T01:22:21.000Z</time>
      </trkpt>
      <trkpt lat="42.729109" lon="-7.891005">
        <ele>805.7</ele>
        <time>1970-01-01T01:22:22.000Z</time>
      </trkpt>
      <trkpt lat="42.729108" lon="-7.89102">
        <ele>806.3</ele>
        <time>1970-01-01T01:22:23.000Z</time>
      </trkpt>
      <trkpt lat="42.729106" lon="-7.891034">
        <ele>806.3</ele>
        <time>1970-01-01T01:22:24.000Z</time>
      </trkpt>
      <trkpt lat="42.729103" lon="-7.891046">
        <ele>806.3</ele>
        <time>1970-01-01T01:22:25.000Z</time>
      </trkpt>
      <trkpt lat="42.729102" lon="-7.891059">
        <ele>806.7</ele>
        <time>1970-01-01T01:22:26.000Z</time>
      </trkpt>
      <trkpt lat="42.729101" lon="-7.891073">
        <ele>806.7</ele>
        <time>1970-01-01T01:22:27.000Z</time>
      </trkpt>
      <trkpt lat="42.7291" lon="-7.891087">
        <ele>806.7</ele>
        <time>1970-01-01T01:22:28.000Z</time>
      </trkpt>
      <trkpt lat="42.729098" lon="-7.891103">
        <ele>807</ele>
        <time>1970-01-01T01:22:29.000Z</time>
      </trkpt>
      <trkpt lat="42.729096" lon="-7.891117">
        <ele>807</ele>
        <time>1970-01-01T01:22:30.000Z</time>
      </trkpt>
      <trkpt lat="42.729095" lon="-7.891131">
        <ele>807</ele>
        <time>1970-01-01T01:22:31.000Z</time>
      </trkpt>
      <trkpt lat="42.729093" lon="-7.891145">
        <ele>807.4</ele>
        <time>1970-01-01T01:22:32.000Z</time>
      </trkpt>
      <trkpt lat="42.729091" lon="-7.891159">
        <ele>807.4</ele>
        <time>1970-01-01T01:22:33.000Z</time>
      </trkpt>
      <trkpt lat="42.729089" lon="-7.891173">
        <ele>807.4</ele>
        <time>1970-01-01T01:22:34.000Z</time>
      </trkpt>
      <trkpt lat="42.72909" lon="-7.891185">
        <ele>807.4</ele>
        <time>1970-01-01T01:22:35.000Z</time>
      </trkpt>
      <trkpt lat="42.729091" lon="-7.891199">
        <ele>807.8</ele>
        <time>1970-01-01T01:22:36.000Z</time>
      </trkpt>
      <trkpt lat="42.72909" lon="-7.891213">
        <ele>807.8</ele>
        <time>1970-01-01T01:22:37.000Z</time>
      </trkpt>
      <trkpt lat="42.729088" lon="-7.891227">
        <ele>807.8</ele>
        <time>1970-01-01T01:22:38.000Z</time>
      </trkpt>
      <trkpt lat="42.729086" lon="-7.891241">
        <ele>808.1</ele>
        <time>1970-01-01T01:22:39.000Z</time>
      </trkpt>
      <trkpt lat="42.729085" lon="-7.891255">
        <ele>808.1</ele>
        <time>1970-01-01T01:22:40.000Z</time>
      </trkpt>
      <trkpt lat="42.729084" lon="-7.89127">
        <ele>808.1</ele>
        <time>1970-01-01T01:22:41.000Z</time>
      </trkpt>
      <trkpt lat="42.729082" lon="-7.891286">
        <ele>808.4</ele>
        <time>1970-01-01T01:22:42.000Z</time>
      </trkpt>
      <trkpt lat="42.729081" lon="-7.891304">
        <ele>808.4</ele>
        <time>1970-01-01T01:22:43.000Z</time>
      </trkpt>
      <trkpt lat="42.729081" lon="-7.891318">
        <ele>808.8</ele>
        <time>1970-01-01T01:22:44.000Z</time>
      </trkpt>
      <trkpt lat="42.729081" lon="-7.891333">
        <ele>808.8</ele>
        <time>1970-01-01T01:22:45.000Z</time>
      </trkpt>
      <trkpt lat="42.729081" lon="-7.891349">
        <ele>808.8</ele>
        <time>1970-01-01T01:22:46.000Z</time>
      </trkpt>
      <trkpt lat="42.729082" lon="-7.891364">
        <ele>809.1</ele>
        <time>1970-01-01T01:22:47.000Z</time>
      </trkpt>
      <trkpt lat="42.729082" lon="-7.891377">
        <ele>809.1</ele>
        <time>1970-01-01T01:22:48.000Z</time>
      </trkpt>
      <trkpt lat="42.729079" lon="-7.891391">
        <ele>809.1</ele>
        <time>1970-01-01T01:22:49.000Z</time>
      </trkpt>
      <trkpt lat="42.729079" lon="-7.891407">
        <ele>809.5</ele>
        <time>1970-01-01T01:22:50.000Z</time>
      </trkpt>
      <trkpt lat="42.72908" lon="-7.891422">
        <ele>809.5</ele>
        <time>1970-01-01T01:22:51.000Z</time>
      </trkpt>
      <trkpt lat="42.729083" lon="-7.891438">
        <ele>809.5</ele>
        <time>1970-01-01T01:22:52.000Z</time>
      </trkpt>
      <trkpt lat="42.729084" lon="-7.891455">
        <ele>809.9</ele>
        <time>1970-01-01T01:22:53.000Z</time>
      </trkpt>
      <trkpt lat="42.729087" lon="-7.891472">
        <ele>809.9</ele>
        <time>1970-01-01T01:22:54.000Z</time>
      </trkpt>
      <trkpt lat="42.729088" lon="-7.891486">
        <ele>809.9</ele>
        <time>1970-01-01T01:22:55.000Z</time>
      </trkpt>
      <trkpt lat="42.729089" lon="-7.891502">
        <ele>810.3</ele>
        <time>1970-01-01T01:22:56.000Z</time>
      </trkpt>
      <trkpt lat="42.729091" lon="-7.89152">
        <ele>810.3</ele>
        <time>1970-01-01T01:22:57.000Z</time>
      </trkpt>
      <trkpt lat="42.729093" lon="-7.891537">
        <ele>810.7</ele>
        <time>1970-01-01T01:22:58.000Z</time>
      </trkpt>
      <trkpt lat="42.729095" lon="-7.891557">
        <ele>810.7</ele>
        <time>1970-01-01T01:22:59.000Z</time>
      </trkpt>
      <trkpt lat="42.729098" lon="-7.891578">
        <ele>811.2</ele>
        <time>1970-01-01T01:23:00.000Z</time>
      </trkpt>
      <trkpt lat="42.729101" lon="-7.891598">
        <ele>811.2</ele>
        <time>1970-01-01T01:23:01.000Z</time>
      </trkpt>
      <trkpt lat="42.729103" lon="-7.891617">
        <ele>811.6</ele>
        <time>1970-01-01T01:23:02.000Z</time>
      </trkpt>
      <trkpt lat="42.729106" lon="-7.891636">
        <ele>811.6</ele>
        <time>1970-01-01T01:23:03.000Z</time>
      </trkpt>
      <trkpt lat="42.72911" lon="-7.891654">
        <ele>811.4</ele>
        <time>1970-01-01T01:23:04.000Z</time>
      </trkpt>
      <trkpt lat="42.729115" lon="-7.891673">
        <ele>811.8</ele>
        <time>1970-01-01T01:23:05.000Z</time>
      </trkpt>
      <trkpt lat="42.72912" lon="-7.891694">
        <ele>811.8</ele>
        <time>1970-01-01T01:23:06.000Z</time>
      </trkpt>
      <trkpt lat="42.729125" lon="-7.891715">
        <ele>812.1</ele>
        <time>1970-01-01T01:23:07.000Z</time>
      </trkpt>
      <trkpt lat="42.729128" lon="-7.891735">
        <ele>812.1</ele>
        <time>1970-01-01T01:23:08.000Z</time>
      </trkpt>
      <trkpt lat="42.729132" lon="-7.891755">
        <ele>812.5</ele>
        <time>1970-01-01T01:23:09.000Z</time>
      </trkpt>
      <trkpt lat="42.729139" lon="-7.891774">
        <ele>812.5</ele>
        <time>1970-01-01T01:23:10.000Z</time>
      </trkpt>
      <trkpt lat="42.729146" lon="-7.891793">
        <ele>812.6</ele>
        <time>1970-01-01T01:23:11.000Z</time>
      </trkpt>
      <trkpt lat="42.729153" lon="-7.891811">
        <ele>812.6</ele>
        <time>1970-01-01T01:23:12.000Z</time>
      </trkpt>
      <trkpt lat="42.72916" lon="-7.891828">
        <ele>812.6</ele>
        <time>1970-01-01T01:23:13.000Z</time>
      </trkpt>
      <trkpt lat="42.729169" lon="-7.891845">
        <ele>813</ele>
        <time>1970-01-01T01:23:14.000Z</time>
      </trkpt>
      <trkpt lat="42.729177" lon="-7.891863">
        <ele>812.8</ele>
        <time>1970-01-01T01:23:15.000Z</time>
      </trkpt>
      <trkpt lat="42.729184" lon="-7.891881">
        <ele>813.1</ele>
        <time>1970-01-01T01:23:16.000Z</time>
      </trkpt>
      <trkpt lat="42.729191" lon="-7.891897">
        <ele>813.1</ele>
        <time>1970-01-01T01:23:17.000Z</time>
      </trkpt>
      <trkpt lat="42.729199" lon="-7.891911">
        <ele>813.1</ele>
        <time>1970-01-01T01:23:18.000Z</time>
      </trkpt>
      <trkpt lat="42.729208" lon="-7.891923">
        <ele>813.3</ele>
        <time>1970-01-01T01:23:19.000Z</time>
      </trkpt>
      <trkpt lat="42.729218" lon="-7.891933">
        <ele>813.3</ele>
        <time>1970-01-01T01:23:20.000Z</time>
      </trkpt>
      <trkpt lat="42.729228" lon="-7.891945">
        <ele>813.3</ele>
        <time>1970-01-01T01:23:21.000Z</time>
      </trkpt>
      <trkpt lat="42.729239" lon="-7.891956">
        <ele>813</ele>
        <time>1970-01-01T01:23:22.000Z</time>
      </trkpt>
      <trkpt lat="42.729248" lon="-7.891969">
        <ele>813.4</ele>
        <time>1970-01-01T01:23:23.000Z</time>
      </trkpt>
      <trkpt lat="42.729258" lon="-7.891982">
        <ele>813.4</ele>
        <time>1970-01-01T01:23:24.000Z</time>
      </trkpt>
      <trkpt lat="42.729268" lon="-7.891991">
        <ele>813.2</ele>
        <time>1970-01-01T01:23:25.000Z</time>
      </trkpt>
      <trkpt lat="42.729279" lon="-7.892002">
        <ele>813.2</ele>
        <time>1970-01-01T01:23:26.000Z</time>
      </trkpt>
      <trkpt lat="42.729291" lon="-7.892015">
        <ele>813.6</ele>
        <time>1970-01-01T01:23:27.000Z</time>
      </trkpt>
      <trkpt lat="42.729301" lon="-7.892027">
        <ele>813.3</ele>
        <time>1970-01-01T01:23:28.000Z</time>
      </trkpt>
      <trkpt lat="42.729312" lon="-7.89204">
        <ele>813.3</ele>
        <time>1970-01-01T01:23:29.000Z</time>
      </trkpt>
      <trkpt lat="42.729322" lon="-7.892052">
        <ele>813.8</ele>
        <time>1970-01-01T01:23:30.000Z</time>
      </trkpt>
      <trkpt lat="42.729335" lon="-7.892064">
        <ele>813.5</ele>
        <time>1970-01-01T01:23:31.000Z</time>
      </trkpt>
      <trkpt lat="42.729346" lon="-7.892075">
        <ele>813.5</ele>
        <time>1970-01-01T01:23:32.000Z</time>
      </trkpt>
      <trkpt lat="42.729357" lon="-7.892087">
        <ele>813.5</ele>
        <time>1970-01-01T01:23:33.000Z</time>
      </trkpt>
      <trkpt lat="42.729369" lon="-7.8921">
        <ele>813.7</ele>
        <time>1970-01-01T01:23:34.000Z</time>
      </trkpt>
      <trkpt lat="42.72938" lon="-7.892112">
        <ele>813.7</ele>
        <time>1970-01-01T01:23:35.000Z</time>
      </trkpt>
      <trkpt lat="42.729392" lon="-7.892122">
        <ele>813.7</ele>
        <time>1970-01-01T01:23:36.000Z</time>
      </trkpt>
      <trkpt lat="42.729403" lon="-7.892133">
        <ele>814</ele>
        <time>1970-01-01T01:23:37.000Z</time>
      </trkpt>
      <trkpt lat="42.729415" lon="-7.892144">
        <ele>814</ele>
        <time>1970-01-01T01:23:38.000Z</time>
      </trkpt>
      <trkpt lat="42.729427" lon="-7.892154">
        <ele>813.7</ele>
        <time>1970-01-01T01:23:39.000Z</time>
      </trkpt>
      <trkpt lat="42.729439" lon="-7.892164">
        <ele>813.7</ele>
        <time>1970-01-01T01:23:40.000Z</time>
      </trkpt>
      <trkpt lat="42.72945" lon="-7.892175">
        <ele>814.3</ele>
        <time>1970-01-01T01:23:41.000Z</time>
      </trkpt>
      <trkpt lat="42.729462" lon="-7.892186">
        <ele>814</ele>
        <time>1970-01-01T01:23:42.000Z</time>
      </trkpt>
      <trkpt lat="42.729474" lon="-7.892197">
        <ele>814</ele>
        <time>1970-01-01T01:23:43.000Z</time>
      </trkpt>
      <trkpt lat="42.729485" lon="-7.892207">
        <ele>814</ele>
        <time>1970-01-01T01:23:44.000Z</time>
      </trkpt>
      <trkpt lat="42.729496" lon="-7.892216">
        <ele>813.7</ele>
        <time>1970-01-01T01:23:45.000Z</time>
      </trkpt>
      <trkpt lat="42.729507" lon="-7.892224">
        <ele>814.3</ele>
        <time>1970-01-01T01:23:46.000Z</time>
      </trkpt>
      <trkpt lat="42.729519" lon="-7.892232">
        <ele>814</ele>
        <time>1970-01-01T01:23:47.000Z</time>
      </trkpt>
      <trkpt lat="42.729531" lon="-7.89224">
        <ele>814</ele>
        <time>1970-01-01T01:23:48.000Z</time>
      </trkpt>
      <trkpt lat="42.729543" lon="-7.892248">
        <ele>814</ele>
        <time>1970-01-01T01:23:49.000Z</time>
      </trkpt>
      <trkpt lat="42.729555" lon="-7.892254">
        <ele>813.8</ele>
        <time>1970-01-01T01:23:50.000Z</time>
      </trkpt>
      <trkpt lat="42.729567" lon="-7.892259">
        <ele>813.8</ele>
        <time>1970-01-01T01:23:51.000Z</time>
      </trkpt>
      <trkpt lat="42.729581" lon="-7.892267">
        <ele>814.4</ele>
        <time>1970-01-01T01:23:52.000Z</time>
      </trkpt>
      <trkpt lat="42.729593" lon="-7.892276">
        <ele>814.2</ele>
        <time>1970-01-01T01:23:53.000Z</time>
      </trkpt>
      <trkpt lat="42.729605" lon="-7.892284">
        <ele>814.2</ele>
        <time>1970-01-01T01:23:54.000Z</time>
      </trkpt>
      <trkpt lat="42.729615" lon="-7.892293">
        <ele>814</ele>
        <time>1970-01-01T01:23:55.000Z</time>
      </trkpt>
      <trkpt lat="42.729626" lon="-7.892304">
        <ele>814.7</ele>
        <time>1970-01-01T01:23:56.000Z</time>
      </trkpt>
      <trkpt lat="42.729638" lon="-7.892314">
        <ele>814.7</ele>
        <time>1970-01-01T01:23:57.000Z</time>
      </trkpt>
      <trkpt lat="42.729651" lon="-7.892323">
        <ele>814.5</ele>
        <time>1970-01-01T01:23:58.000Z</time>
      </trkpt>
      <trkpt lat="42.729662" lon="-7.892333">
        <ele>814.5</ele>
        <time>1970-01-01T01:23:59.000Z</time>
      </trkpt>
      <trkpt lat="42.729673" lon="-7.892344">
        <ele>814.5</ele>
        <time>1970-01-01T01:24:00.000Z</time>
      </trkpt>
      <trkpt lat="42.729686" lon="-7.892353">
        <ele>815</ele>
        <time>1970-01-01T01:24:01.000Z</time>
      </trkpt>
      <trkpt lat="42.729695" lon="-7.892364">
        <ele>815</ele>
        <time>1970-01-01T01:24:02.000Z</time>
      </trkpt>
      <trkpt lat="42.729706" lon="-7.892375">
        <ele>815</ele>
        <time>1970-01-01T01:24:03.000Z</time>
      </trkpt>
      <trkpt lat="42.729718" lon="-7.892387">
        <ele>814.8</ele>
        <time>1970-01-01T01:24:04.000Z</time>
      </trkpt>
      <trkpt lat="42.729728" lon="-7.892398">
        <ele>815.6</ele>
        <time>1970-01-01T01:24:05.000Z</time>
      </trkpt>
      <trkpt lat="42.729737" lon="-7.892411">
        <ele>815.6</ele>
        <time>1970-01-01T01:24:06.000Z</time>
      </trkpt>
      <trkpt lat="42.729744" lon="-7.892425">
        <ele>815.4</ele>
        <time>1970-01-01T01:24:07.000Z</time>
      </trkpt>
      <trkpt lat="42.72975" lon="-7.892437">
        <ele>816.3</ele>
        <time>1970-01-01T01:24:08.000Z</time>
      </trkpt>
      <trkpt lat="42.729757" lon="-7.892449">
        <ele>816.3</ele>
        <time>1970-01-01T01:24:09.000Z</time>
      </trkpt>
      <trkpt lat="42.729761" lon="-7.892462">
        <ele>816.3</ele>
        <time>1970-01-01T01:24:10.000Z</time>
      </trkpt>
      <trkpt lat="42.729764" lon="-7.892478">
        <ele>817.1</ele>
        <time>1970-01-01T01:24:11.000Z</time>
      </trkpt>
      <trkpt lat="42.729766" lon="-7.892494">
        <ele>817.1</ele>
        <time>1970-01-01T01:24:12.000Z</time>
      </trkpt>
      <trkpt lat="42.729765" lon="-7.89251">
        <ele>817.1</ele>
        <time>1970-01-01T01:24:13.000Z</time>
      </trkpt>
      <trkpt lat="42.729764" lon="-7.892529">
        <ele>818</ele>
        <time>1970-01-01T01:24:14.000Z</time>
      </trkpt>
      <trkpt lat="42.729764" lon="-7.892547">
        <ele>818</ele>
        <time>1970-01-01T01:24:15.000Z</time>
      </trkpt>
      <trkpt lat="42.729764" lon="-7.892564">
        <ele>818.9</ele>
        <time>1970-01-01T01:24:16.000Z</time>
      </trkpt>
      <trkpt lat="42.729763" lon="-7.89258">
        <ele>818.9</ele>
        <time>1970-01-01T01:24:17.000Z</time>
      </trkpt>
      <trkpt lat="42.729761" lon="-7.89259">
        <ele>818.9</ele>
        <time>1970-01-01T01:24:18.000Z</time>
      </trkpt>
      <trkpt lat="42.729759" lon="-7.892603">
        <ele>818.9</ele>
        <time>1970-01-01T01:24:19.000Z</time>
      </trkpt>
      <trkpt lat="42.729758" lon="-7.892616">
        <ele>819.8</ele>
        <time>1970-01-01T01:24:20.000Z</time>
      </trkpt>
      <trkpt lat="42.729756" lon="-7.892626">
        <ele>819.8</ele>
        <time>1970-01-01T01:24:21.000Z</time>
      </trkpt>
      <trkpt lat="42.729754" lon="-7.892639">
        <ele>819.8</ele>
        <time>1970-01-01T01:24:22.000Z</time>
      </trkpt>
      <trkpt lat="42.72975" lon="-7.892651">
        <ele>820.6</ele>
        <time>1970-01-01T01:24:23.000Z</time>
      </trkpt>
      <trkpt lat="42.729745" lon="-7.892664">
        <ele>820.6</ele>
        <time>1970-01-01T01:24:24.000Z</time>
      </trkpt>
      <trkpt lat="42.729739" lon="-7.892676">
        <ele>820.8</ele>
        <time>1970-01-01T01:24:25.000Z</time>
      </trkpt>
      <trkpt lat="42.729732" lon="-7.892688">
        <ele>820.8</ele>
        <time>1970-01-01T01:24:26.000Z</time>
      </trkpt>
      <trkpt lat="42.729726" lon="-7.892702">
        <ele>821.7</ele>
        <time>1970-01-01T01:24:27.000Z</time>
      </trkpt>
      <trkpt lat="42.729721" lon="-7.892717">
        <ele>821.7</ele>
        <time>1970-01-01T01:24:28.000Z</time>
      </trkpt>
      <trkpt lat="42.729713" lon="-7.89273">
        <ele>821.7</ele>
        <time>1970-01-01T01:24:29.000Z</time>
      </trkpt>
      <trkpt lat="42.729707" lon="-7.892744">
        <ele>822.7</ele>
        <time>1970-01-01T01:24:30.000Z</time>
      </trkpt>
      <trkpt lat="42.729701" lon="-7.892755">
        <ele>822.7</ele>
        <time>1970-01-01T01:24:31.000Z</time>
      </trkpt>
      <trkpt lat="42.729694" lon="-7.892766">
        <ele>822.7</ele>
        <time>1970-01-01T01:24:32.000Z</time>
      </trkpt>
      <trkpt lat="42.729687" lon="-7.892779">
        <ele>823.6</ele>
        <time>1970-01-01T01:24:33.000Z</time>
      </trkpt>
      <trkpt lat="42.72968" lon="-7.892792">
        <ele>823.6</ele>
        <time>1970-01-01T01:24:34.000Z</time>
      </trkpt>
      <trkpt lat="42.729672" lon="-7.892805">
        <ele>823.7</ele>
        <time>1970-01-01T01:24:35.000Z</time>
      </trkpt>
      <trkpt lat="42.729664" lon="-7.892817">
        <ele>823.7</ele>
        <time>1970-01-01T01:24:36.000Z</time>
      </trkpt>
      <trkpt lat="42.729658" lon="-7.89283">
        <ele>824.7</ele>
        <time>1970-01-01T01:24:37.000Z</time>
      </trkpt>
      <trkpt lat="42.729653" lon="-7.892843">
        <ele>824.7</ele>
        <time>1970-01-01T01:24:38.000Z</time>
      </trkpt>
      <trkpt lat="42.729645" lon="-7.892855">
        <ele>824.7</ele>
        <time>1970-01-01T01:24:39.000Z</time>
      </trkpt>
      <trkpt lat="42.729641" lon="-7.892868">
        <ele>825.7</ele>
        <time>1970-01-01T01:24:40.000Z</time>
      </trkpt>
      <trkpt lat="42.729638" lon="-7.892881">
        <ele>825.7</ele>
        <time>1970-01-01T01:24:41.000Z</time>
      </trkpt>
      <trkpt lat="42.729632" lon="-7.892891">
        <ele>825.7</ele>
        <time>1970-01-01T01:24:42.000Z</time>
      </trkpt>
      <trkpt lat="42.729624" lon="-7.892902">
        <ele>825.7</ele>
        <time>1970-01-01T01:24:43.000Z</time>
      </trkpt>
      <trkpt lat="42.729617" lon="-7.892914">
        <ele>826.6</ele>
        <time>1970-01-01T01:24:44.000Z</time>
      </trkpt>
      <trkpt lat="42.729612" lon="-7.892925">
        <ele>826.7</ele>
        <time>1970-01-01T01:24:45.000Z</time>
      </trkpt>
      <trkpt lat="42.729606" lon="-7.892936">
        <ele>826.7</ele>
        <time>1970-01-01T01:24:46.000Z</time>
      </trkpt>
      <trkpt lat="42.729601" lon="-7.892949">
        <ele>827.6</ele>
        <time>1970-01-01T01:24:47.000Z</time>
      </trkpt>
      <trkpt lat="42.729598" lon="-7.892963">
        <ele>827.6</ele>
        <time>1970-01-01T01:24:48.000Z</time>
      </trkpt>
      <trkpt lat="42.729595" lon="-7.892977">
        <ele>827.6</ele>
        <time>1970-01-01T01:24:49.000Z</time>
      </trkpt>
      <trkpt lat="42.729592" lon="-7.892992">
        <ele>828.5</ele>
        <time>1970-01-01T01:24:50.000Z</time>
      </trkpt>
      <trkpt lat="42.729591" lon="-7.893006">
        <ele>828.5</ele>
        <time>1970-01-01T01:24:51.000Z</time>
      </trkpt>
      <trkpt lat="42.729588" lon="-7.89302">
        <ele>828.5</ele>
        <time>1970-01-01T01:24:52.000Z</time>
      </trkpt>
      <trkpt lat="42.729583" lon="-7.893033">
        <ele>828.5</ele>
        <time>1970-01-01T01:24:53.000Z</time>
      </trkpt>
      <trkpt lat="42.72958" lon="-7.893047">
        <ele>829.4</ele>
        <time>1970-01-01T01:24:54.000Z</time>
      </trkpt>
      <trkpt lat="42.729577" lon="-7.893061">
        <ele>829.4</ele>
        <time>1970-01-01T01:24:55.000Z</time>
      </trkpt>
      <trkpt lat="42.729575" lon="-7.893074">
        <ele>829.4</ele>
        <time>1970-01-01T01:24:56.000Z</time>
      </trkpt>
      <trkpt lat="42.729572" lon="-7.893087">
        <ele>830.3</ele>
        <time>1970-01-01T01:24:57.000Z</time>
      </trkpt>
      <trkpt lat="42.72957" lon="-7.893099">
        <ele>830.3</ele>
        <time>1970-01-01T01:24:58.000Z</time>
      </trkpt>
      <trkpt lat="42.729569" lon="-7.893112">
        <ele>830.3</ele>
        <time>1970-01-01T01:24:59.000Z</time>
      </trkpt>
      <trkpt lat="42.729566" lon="-7.893126">
        <ele>831.1</ele>
        <time>1970-01-01T01:25:00.000Z</time>
      </trkpt>
      <trkpt lat="42.72956" lon="-7.893139">
        <ele>831.1</ele>
        <time>1970-01-01T01:25:01.000Z</time>
      </trkpt>
      <trkpt lat="42.729556" lon="-7.89315">
        <ele>831.1</ele>
        <time>1970-01-01T01:25:02.000Z</time>
      </trkpt>
      <trkpt lat="42.729557" lon="-7.893162">
        <ele>831.9</ele>
        <time>1970-01-01T01:25:03.000Z</time>
      </trkpt>
      <trkpt lat="42.729558" lon="-7.893174">
        <ele>831.9</ele>
        <time>1970-01-01T01:25:04.000Z</time>
      </trkpt>
      <trkpt lat="42.729555" lon="-7.893185">
        <ele>831.9</ele>
        <time>1970-01-01T01:25:05.000Z</time>
      </trkpt>
      <trkpt lat="42.729552" lon="-7.893197">
        <ele>831.9</ele>
        <time>1970-01-01T01:25:06.000Z</time>
      </trkpt>
      <trkpt lat="42.729551" lon="-7.893209">
        <ele>832.8</ele>
        <time>1970-01-01T01:25:07.000Z</time>
      </trkpt>
      <trkpt lat="42.72955" lon="-7.89322">
        <ele>832.9</ele>
        <time>1970-01-01T01:25:08.000Z</time>
      </trkpt>
      <trkpt lat="42.729547" lon="-7.893233">
        <ele>832.9</ele>
        <time>1970-01-01T01:25:09.000Z</time>
      </trkpt>
      <trkpt lat="42.729545" lon="-7.893239">
        <ele>832.9</ele>
        <time>1970-01-01T01:25:10.000Z</time>
      </trkpt>
      <trkpt lat="42.72954" lon="-7.893239">
        <ele>832.9</ele>
        <time>1970-01-01T01:25:11.000Z</time>
      </trkpt>
      <trkpt lat="42.729538" lon="-7.893239">
        <ele>832.9</ele>
        <time>1970-01-01T01:25:12.000Z</time>
      </trkpt>
      <trkpt lat="42.729537" lon="-7.893239">
        <ele>832.9</ele>
        <time>1970-01-01T01:25:13.000Z</time>
      </trkpt>
      <trkpt lat="42.729537" lon="-7.893247">
        <ele>832.9</ele>
        <time>1970-01-01T01:25:14.000Z</time>
      </trkpt>
      <trkpt lat="42.729537" lon="-7.893254">
        <ele>833.8</ele>
        <time>1970-01-01T01:25:15.000Z</time>
      </trkpt>
      <trkpt lat="42.729536" lon="-7.893263">
        <ele>833.8</ele>
        <time>1970-01-01T01:25:16.000Z</time>
      </trkpt>
      <trkpt lat="42.729534" lon="-7.893272">
        <ele>833.8</ele>
        <time>1970-01-01T01:25:17.000Z</time>
      </trkpt>
      <trkpt lat="42.729531" lon="-7.89328">
        <ele>833.8</ele>
        <time>1970-01-01T01:25:18.000Z</time>
      </trkpt>
      <trkpt lat="42.729529" lon="-7.893288">
        <ele>833.8</ele>
        <time>1970-01-01T01:25:19.000Z</time>
      </trkpt>
      <trkpt lat="42.729526" lon="-7.893296">
        <ele>834.7</ele>
        <time>1970-01-01T01:25:20.000Z</time>
      </trkpt>
      <trkpt lat="42.729524" lon="-7.893304">
        <ele>834.7</ele>
        <time>1970-01-01T01:25:21.000Z</time>
      </trkpt>
      <trkpt lat="42.729523" lon="-7.893312">
        <ele>834.7</ele>
        <time>1970-01-01T01:25:22.000Z</time>
      </trkpt>
      <trkpt lat="42.729507" lon="-7.894709">
        <ele>853.8</ele>
        <time>1970-01-01T01:28:17.000Z</time>
      </trkpt>
      <trkpt lat="42.729511" lon="-7.894717">
        <ele>853.8</ele>
        <time>1970-01-01T01:28:18.000Z</time>
      </trkpt>
      <trkpt lat="42.729518" lon="-7.894724">
        <ele>853.8</ele>
        <time>1970-01-01T01:28:19.000Z</time>
      </trkpt>
      <trkpt lat="42.729523" lon="-7.894732">
        <ele>854</ele>
        <time>1970-01-01T01:28:20.000Z</time>
      </trkpt>
      <trkpt lat="42.729529" lon="-7.894739">
        <ele>854</ele>
        <time>1970-01-01T01:28:21.000Z</time>
      </trkpt>
      <trkpt lat="42.729535" lon="-7.894745">
        <ele>854</ele>
        <time>1970-01-01T01:28:22.000Z</time>
      </trkpt>
      <trkpt lat="42.729542" lon="-7.89475">
        <ele>854.4</ele>
        <time>1970-01-01T01:28:23.000Z</time>
      </trkpt>
      <trkpt lat="42.729549" lon="-7.894755">
        <ele>854.4</ele>
        <time>1970-01-01T01:28:24.000Z</time>
      </trkpt>
      <trkpt lat="42.729553" lon="-7.894758">
        <ele>854.6</ele>
        <time>1970-01-01T01:28:25.000Z</time>
      </trkpt>
      <trkpt lat="42.729559" lon="-7.894762">
        <ele>854.6</ele>
        <time>1970-01-01T01:28:26.000Z</time>
      </trkpt>
      <trkpt lat="42.729565" lon="-7.894766">
        <ele>854.6</ele>
        <time>1970-01-01T01:28:27.000Z</time>
      </trkpt>
      <trkpt lat="42.72957" lon="-7.894769">
        <ele>854.6</ele>
        <time>1970-01-01T01:28:28.000Z</time>
      </trkpt>
      <trkpt lat="42.729575" lon="-7.894771">
        <ele>854.6</ele>
        <time>1970-01-01T01:28:29.000Z</time>
      </trkpt>
      <trkpt lat="42.72958" lon="-7.894773">
        <ele>854.6</ele>
        <time>1970-01-01T01:28:30.000Z</time>
      </trkpt>
      <trkpt lat="42.729583" lon="-7.894777">
        <ele>854.8</ele>
        <time>1970-01-01T01:28:31.000Z</time>
      </trkpt>
      <trkpt lat="42.729585" lon="-7.89478">
        <ele>854.8</ele>
        <time>1970-01-01T01:28:32.000Z</time>
      </trkpt>
      <trkpt lat="42.729587" lon="-7.894781">
        <ele>854.8</ele>
        <time>1970-01-01T01:28:33.000Z</time>
      </trkpt>
      <trkpt lat="42.729592" lon="-7.894784">
        <ele>854.8</ele>
        <time>1970-01-01T01:28:34.000Z</time>
      </trkpt>
      <trkpt lat="42.729673" lon="-7.894884">
        <ele>856.4</ele>
        <time>1970-01-01T01:28:48.000Z</time>
      </trkpt>
      <trkpt lat="42.729674" lon="-7.894884">
        <ele>856.4</ele>
        <time>1970-01-01T01:28:49.000Z</time>
      </trkpt>
      <trkpt lat="42.729675" lon="-7.894885">
        <ele>856.4</ele>
        <time>1970-01-01T01:28:50.000Z</time>
      </trkpt>
      <trkpt lat="42.729675" lon="-7.894886">
        <ele>856.4</ele>
        <time>1970-01-01T01:28:51.000Z</time>
      </trkpt>
      <trkpt lat="42.729676" lon="-7.894885">
        <ele>856.4</ele>
        <time>1970-01-01T01:28:52.000Z</time>
      </trkpt>
      <trkpt lat="42.729677" lon="-7.894886">
        <ele>856.6</ele>
        <time>1970-01-01T01:28:53.000Z</time>
      </trkpt>
      <trkpt lat="42.729678" lon="-7.894883">
        <ele>856.6</ele>
        <time>1970-01-01T01:28:54.000Z</time>
      </trkpt>
      <trkpt lat="42.729679" lon="-7.894885">
        <ele>856.6</ele>
        <time>1970-01-01T01:28:55.000Z</time>
      </trkpt>
      <trkpt lat="42.729682" lon="-7.894885">
        <ele>856.6</ele>
        <time>1970-01-01T01:29:07.000Z</time>
      </trkpt>
      <trkpt lat="42.729684" lon="-7.894883">
        <ele>856.6</ele>
        <time>1970-01-01T01:29:08.000Z</time>
      </trkpt>
      <trkpt lat="42.729685" lon="-7.894882">
        <ele>856.6</ele>
        <time>1970-01-01T01:29:09.000Z</time>
      </trkpt>
      <trkpt lat="42.729686" lon="-7.894882">
        <ele>856.6</ele>
        <time>1970-01-01T01:29:10.000Z</time>
      </trkpt>
      <trkpt lat="42.729687" lon="-7.894881">
        <ele>856.6</ele>
        <time>1970-01-01T01:29:11.000Z</time>
      </trkpt>
      <trkpt lat="42.729687" lon="-7.894879">
        <ele>856.6</ele>
        <time>1970-01-01T01:29:12.000Z</time>
      </trkpt>
      <trkpt lat="42.729693" lon="-7.89488">
        <ele>856.6</ele>
        <time>1970-01-01T01:29:13.000Z</time>
      </trkpt>
      <trkpt lat="42.729702" lon="-7.894882">
        <ele>856.6</ele>
        <time>1970-01-01T01:29:14.000Z</time>
      </trkpt>
      <trkpt lat="42.729709" lon="-7.894889">
        <ele>856.9</ele>
        <time>1970-01-01T01:29:15.000Z</time>
      </trkpt>
      <trkpt lat="42.729715" lon="-7.894901">
        <ele>856.9</ele>
        <time>1970-01-01T01:29:16.000Z</time>
      </trkpt>
      <trkpt lat="42.729726" lon="-7.894912">
        <ele>856.9</ele>
        <time>1970-01-01T01:29:17.000Z</time>
      </trkpt>
      <trkpt lat="42.72974" lon="-7.89492">
        <ele>857.1</ele>
        <time>1970-01-01T01:29:18.000Z</time>
      </trkpt>
      <trkpt lat="42.729755" lon="-7.894926">
        <ele>857.6</ele>
        <time>1970-01-01T01:29:19.000Z</time>
      </trkpt>
      <trkpt lat="42.729769" lon="-7.894938">
        <ele>857.6</ele>
        <time>1970-01-01T01:29:20.000Z</time>
      </trkpt>
      <trkpt lat="42.729783" lon="-7.894949">
        <ele>857.8</ele>
        <time>1970-01-01T01:29:21.000Z</time>
      </trkpt>
      <trkpt lat="42.729798" lon="-7.894958">
        <ele>857.8</ele>
        <time>1970-01-01T01:29:22.000Z</time>
      </trkpt>
      <trkpt lat="42.729813" lon="-7.894967">
        <ele>858.5</ele>
        <time>1970-01-01T01:29:23.000Z</time>
      </trkpt>
      <trkpt lat="42.729829" lon="-7.894976">
        <ele>858.5</ele>
        <time>1970-01-01T01:29:24.000Z</time>
      </trkpt>
      <trkpt lat="42.729845" lon="-7.894986">
        <ele>858.7</ele>
        <time>1970-01-01T01:29:25.000Z</time>
      </trkpt>
      <trkpt lat="42.729862" lon="-7.894995">
        <ele>858.7</ele>
        <time>1970-01-01T01:29:26.000Z</time>
      </trkpt>
      <trkpt lat="42.729878" lon="-7.895004">
        <ele>858.9</ele>
        <time>1970-01-01T01:29:27.000Z</time>
      </trkpt>
      <trkpt lat="42.729895" lon="-7.895013">
        <ele>859.4</ele>
        <time>1970-01-01T01:29:28.000Z</time>
      </trkpt>
      <trkpt lat="42.729911" lon="-7.895019">
        <ele>859.5</ele>
        <time>1970-01-01T01:29:29.000Z</time>
      </trkpt>
      <trkpt lat="42.729926" lon="-7.895025">
        <ele>859.5</ele>
        <time>1970-01-01T01:29:30.000Z</time>
      </trkpt>
      <trkpt lat="42.729942" lon="-7.895034">
        <ele>859.7</ele>
        <time>1970-01-01T01:29:31.000Z</time>
      </trkpt>
      <trkpt lat="42.729959" lon="-7.895041">
        <ele>859.7</ele>
        <time>1970-01-01T01:29:32.000Z</time>
      </trkpt>
      <trkpt lat="42.729977" lon="-7.895046">
        <ele>859.9</ele>
        <time>1970-01-01T01:29:33.000Z</time>
      </trkpt>
      <trkpt lat="42.729995" lon="-7.89505">
        <ele>860.1</ele>
        <time>1970-01-01T01:29:34.000Z</time>
      </trkpt>
      <trkpt lat="42.730012" lon="-7.895054">
        <ele>860.5</ele>
        <time>1970-01-01T01:29:35.000Z</time>
      </trkpt>
      <trkpt lat="42.730029" lon="-7.895057">
        <ele>860.7</ele>
        <time>1970-01-01T01:29:36.000Z</time>
      </trkpt>
      <trkpt lat="42.730046" lon="-7.89506">
        <ele>860.7</ele>
        <time>1970-01-01T01:29:37.000Z</time>
      </trkpt>
      <trkpt lat="42.730063" lon="-7.895063">
        <ele>860.8</ele>
        <time>1970-01-01T01:29:38.000Z</time>
      </trkpt>
      <trkpt lat="42.73008" lon="-7.895066">
        <ele>860.8</ele>
        <time>1970-01-01T01:29:39.000Z</time>
      </trkpt>
      <trkpt lat="42.730096" lon="-7.895067">
        <ele>861</ele>
        <time>1970-01-01T01:29:40.000Z</time>
      </trkpt>
      <trkpt lat="42.730111" lon="-7.89507">
        <ele>861</ele>
        <time>1970-01-01T01:29:41.000Z</time>
      </trkpt>
      <trkpt lat="42.730127" lon="-7.895074">
        <ele>861.1</ele>
        <time>1970-01-01T01:29:42.000Z</time>
      </trkpt>
      <trkpt lat="42.730142" lon="-7.89508">
        <ele>861.1</ele>
        <time>1970-01-01T01:29:43.000Z</time>
      </trkpt>
      <trkpt lat="42.730157" lon="-7.895084">
        <ele>861.3</ele>
        <time>1970-01-01T01:29:44.000Z</time>
      </trkpt>
      <trkpt lat="42.730174" lon="-7.895089">
        <ele>861.3</ele>
        <time>1970-01-01T01:29:45.000Z</time>
      </trkpt>
      <trkpt lat="42.73019" lon="-7.895092">
        <ele>861.5</ele>
        <time>1970-01-01T01:29:46.000Z</time>
      </trkpt>
      <trkpt lat="42.730207" lon="-7.895094">
        <ele>861.9</ele>
        <time>1970-01-01T01:29:47.000Z</time>
      </trkpt>
      <trkpt lat="42.730222" lon="-7.8951">
        <ele>862.1</ele>
        <time>1970-01-01T01:29:48.000Z</time>
      </trkpt>
      <trkpt lat="42.730237" lon="-7.895104">
        <ele>862.1</ele>
        <time>1970-01-01T01:29:49.000Z</time>
      </trkpt>
      <trkpt lat="42.730253" lon="-7.895108">
        <ele>862.3</ele>
        <time>1970-01-01T01:29:50.000Z</time>
      </trkpt>
      <trkpt lat="42.73027" lon="-7.895112">
        <ele>862.3</ele>
        <time>1970-01-01T01:29:51.000Z</time>
      </trkpt>
      <trkpt lat="42.730285" lon="-7.895117">
        <ele>862.5</ele>
        <time>1970-01-01T01:29:52.000Z</time>
      </trkpt>
      <trkpt lat="42.730301" lon="-7.895123">
        <ele>862.5</ele>
        <time>1970-01-01T01:29:53.000Z</time>
      </trkpt>
      <trkpt lat="42.730317" lon="-7.895129">
        <ele>862.6</ele>
        <time>1970-01-01T01:29:54.000Z</time>
      </trkpt>
      <trkpt lat="42.730333" lon="-7.895135">
        <ele>862.6</ele>
        <time>1970-01-01T01:29:55.000Z</time>
      </trkpt>
      <trkpt lat="42.730349" lon="-7.895141">
        <ele>863.2</ele>
        <time>1970-01-01T01:29:56.000Z</time>
      </trkpt>
      <trkpt lat="42.730363" lon="-7.895149">
        <ele>863.2</ele>
        <time>1970-01-01T01:29:57.000Z</time>
      </trkpt>
      <trkpt lat="42.730378" lon="-7.895158">
        <ele>863.3</ele>
        <time>1970-01-01T01:29:58.000Z</time>
      </trkpt>
      <trkpt lat="42.730393" lon="-7.895168">
        <ele>863.3</ele>
        <time>1970-01-01T01:29:59.000Z</time>
      </trkpt>
      <trkpt lat="42.730406" lon="-7.895181">
        <ele>863.8</ele>
        <time>1970-01-01T01:30:00.000Z</time>
      </trkpt>
      <trkpt lat="42.730418" lon="-7.895192">
        <ele>863.8</ele>
        <time>1970-01-01T01:30:01.000Z</time>
      </trkpt>
      <trkpt lat="42.73043" lon="-7.895203">
        <ele>863.8</ele>
        <time>1970-01-01T01:30:02.000Z</time>
      </trkpt>
      <trkpt lat="42.73044" lon="-7.895215">
        <ele>863.9</ele>
        <time>1970-01-01T01:30:03.000Z</time>
      </trkpt>
      <trkpt lat="42.730451" lon="-7.895227">
        <ele>864.3</ele>
        <time>1970-01-01T01:30:04.000Z</time>
      </trkpt>
      <trkpt lat="42.730464" lon="-7.895239">
        <ele>864.3</ele>
        <time>1970-01-01T01:30:05.000Z</time>
      </trkpt>
      <trkpt lat="42.730476" lon="-7.895253">
        <ele>864.4</ele>
        <time>1970-01-01T01:30:06.000Z</time>
      </trkpt>
      <trkpt lat="42.730489" lon="-7.895265">
        <ele>864.7</ele>
        <time>1970-01-01T01:30:07.000Z</time>
      </trkpt>
      <trkpt lat="42.730501" lon="-7.895279">
        <ele>864.8</ele>
        <time>1970-01-01T01:30:08.000Z</time>
      </trkpt>
      <trkpt lat="42.730514" lon="-7.895289">
        <ele>864.8</ele>
        <time>1970-01-01T01:30:09.000Z</time>
      </trkpt>
      <trkpt lat="42.730528" lon="-7.8953">
        <ele>864.8</ele>
        <time>1970-01-01T01:30:10.000Z</time>
      </trkpt>
      <trkpt lat="42.730542" lon="-7.895314">
        <ele>865.1</ele>
        <time>1970-01-01T01:30:11.000Z</time>
      </trkpt>
      <trkpt lat="42.730552" lon="-7.89533">
        <ele>865.1</ele>
        <time>1970-01-01T01:30:12.000Z</time>
      </trkpt>
      <trkpt lat="42.730564" lon="-7.895346">
        <ele>865.1</ele>
        <time>1970-01-01T01:30:13.000Z</time>
      </trkpt>
      <trkpt lat="42.730577" lon="-7.895362">
        <ele>865.5</ele>
        <time>1970-01-01T01:30:14.000Z</time>
      </trkpt>
      <trkpt lat="42.730591" lon="-7.895376">
        <ele>865.5</ele>
        <time>1970-01-01T01:30:15.000Z</time>
      </trkpt>
      <trkpt lat="42.730604" lon="-7.895392">
        <ele>865.5</ele>
        <time>1970-01-01T01:30:16.000Z</time>
      </trkpt>
      <trkpt lat="42.730619" lon="-7.895406">
        <ele>865.8</ele>
        <time>1970-01-01T01:30:17.000Z</time>
      </trkpt>
      <trkpt lat="42.730635" lon="-7.89542">
        <ele>865.8</ele>
        <time>1970-01-01T01:30:18.000Z</time>
      </trkpt>
      <trkpt lat="42.730651" lon="-7.895433">
        <ele>865.8</ele>
        <time>1970-01-01T01:30:19.000Z</time>
      </trkpt>
      <trkpt lat="42.730668" lon="-7.895447">
        <ele>866.2</ele>
        <time>1970-01-01T01:30:20.000Z</time>
      </trkpt>
      <trkpt lat="42.730683" lon="-7.895461">
        <ele>866.2</ele>
        <time>1970-01-01T01:30:21.000Z</time>
      </trkpt>
      <trkpt lat="42.730699" lon="-7.895475">
        <ele>866.2</ele>
        <time>1970-01-01T01:30:22.000Z</time>
      </trkpt>
      <trkpt lat="42.730715" lon="-7.895488">
        <ele>866.7</ele>
        <time>1970-01-01T01:30:23.000Z</time>
      </trkpt>
      <trkpt lat="42.730731" lon="-7.895499">
        <ele>866.7</ele>
        <time>1970-01-01T01:30:24.000Z</time>
      </trkpt>
      <trkpt lat="42.730747" lon="-7.895511">
        <ele>866.7</ele>
        <time>1970-01-01T01:30:25.000Z</time>
      </trkpt>
      <trkpt lat="42.730763" lon="-7.895523">
        <ele>867.3</ele>
        <time>1970-01-01T01:30:26.000Z</time>
      </trkpt>
      <trkpt lat="42.730779" lon="-7.895534">
        <ele>867.3</ele>
        <time>1970-01-01T01:30:27.000Z</time>
      </trkpt>
      <trkpt lat="42.730796" lon="-7.895545">
        <ele>867.3</ele>
        <time>1970-01-01T01:30:28.000Z</time>
      </trkpt>
      <trkpt lat="42.730812" lon="-7.895556">
        <ele>867.3</ele>
        <time>1970-01-01T01:30:29.000Z</time>
      </trkpt>
      <trkpt lat="42.730827" lon="-7.895567">
        <ele>867.8</ele>
        <time>1970-01-01T01:30:30.000Z</time>
      </trkpt>
      <trkpt lat="42.730841" lon="-7.895577">
        <ele>867.8</ele>
        <time>1970-01-01T01:30:31.000Z</time>
      </trkpt>
      <trkpt lat="42.730856" lon="-7.895587">
        <ele>867.8</ele>
        <time>1970-01-01T01:30:32.000Z</time>
      </trkpt>
      <trkpt lat="42.730872" lon="-7.895595">
        <ele>867.8</ele>
        <time>1970-01-01T01:30:33.000Z</time>
      </trkpt>
      <trkpt lat="42.730886" lon="-7.895601">
        <ele>867.8</ele>
        <time>1970-01-01T01:30:34.000Z</time>
      </trkpt>
      <trkpt lat="42.730898" lon="-7.895611">
        <ele>868.3</ele>
        <time>1970-01-01T01:30:35.000Z</time>
      </trkpt>
      <trkpt lat="42.73091" lon="-7.89562">
        <ele>868.3</ele>
        <time>1970-01-01T01:30:36.000Z</time>
      </trkpt>
      <trkpt lat="42.730924" lon="-7.895629">
        <ele>868.3</ele>
        <time>1970-01-01T01:30:37.000Z</time>
      </trkpt>
      <trkpt lat="42.730939" lon="-7.89564">
        <ele>868.2</ele>
        <time>1970-01-01T01:30:38.000Z</time>
      </trkpt>
      <trkpt lat="42.730955" lon="-7.895649">
        <ele>868.2</ele>
        <time>1970-01-01T01:30:39.000Z</time>
      </trkpt>
      <trkpt lat="42.730969" lon="-7.895658">
        <ele>868.6</ele>
        <time>1970-01-01T01:30:40.000Z</time>
      </trkpt>
      <trkpt lat="42.730983" lon="-7.895669">
        <ele>868.6</ele>
        <time>1970-01-01T01:30:41.000Z</time>
      </trkpt>
      <trkpt lat="42.730997" lon="-7.895678">
        <ele>868.6</ele>
        <time>1970-01-01T01:30:42.000Z</time>
      </trkpt>
      <trkpt lat="42.731012" lon="-7.895688">
        <ele>868.5</ele>
        <time>1970-01-01T01:30:43.000Z</time>
      </trkpt>
      <trkpt lat="42.731027" lon="-7.895697">
        <ele>869</ele>
        <time>1970-01-01T01:30:44.000Z</time>
      </trkpt>
      <trkpt lat="42.731042" lon="-7.895705">
        <ele>868.9</ele>
        <time>1970-01-01T01:30:45.000Z</time>
      </trkpt>
      <trkpt lat="42.731057" lon="-7.895714">
        <ele>868.9</ele>
        <time>1970-01-01T01:30:46.000Z</time>
      </trkpt>
      <trkpt lat="42.731072" lon="-7.895724">
        <ele>868.7</ele>
        <time>1970-01-01T01:30:47.000Z</time>
      </trkpt>
      <trkpt lat="42.731087" lon="-7.895734">
        <ele>868.7</ele>
        <time>1970-01-01T01:30:48.000Z</time>
      </trkpt>
      <trkpt lat="42.7311" lon="-7.895745">
        <ele>869.1</ele>
        <time>1970-01-01T01:30:49.000Z</time>
      </trkpt>
      <trkpt lat="42.731115" lon="-7.895754">
        <ele>869.1</ele>
        <time>1970-01-01T01:30:50.000Z</time>
      </trkpt>
      <trkpt lat="42.731129" lon="-7.895765">
        <ele>868.9</ele>
        <time>1970-01-01T01:30:51.000Z</time>
      </trkpt>
      <trkpt lat="42.731144" lon="-7.895778">
        <ele>868.9</ele>
        <time>1970-01-01T01:30:52.000Z</time>
      </trkpt>
      <trkpt lat="42.731161" lon="-7.895791">
        <ele>869.3</ele>
        <time>1970-01-01T01:30:53.000Z</time>
      </trkpt>
      <trkpt lat="42.731177" lon="-7.895803">
        <ele>869.3</ele>
        <time>1970-01-01T01:30:54.000Z</time>
      </trkpt>
      <trkpt lat="42.731192" lon="-7.895815">
        <ele>869.2</ele>
        <time>1970-01-01T01:30:55.000Z</time>
      </trkpt>
      <trkpt lat="42.731207" lon="-7.895827">
        <ele>869.8</ele>
        <time>1970-01-01T01:30:56.000Z</time>
      </trkpt>
      <trkpt lat="42.731222" lon="-7.895841">
        <ele>869.7</ele>
        <time>1970-01-01T01:30:57.000Z</time>
      </trkpt>
      <trkpt lat="42.731238" lon="-7.895854">
        <ele>869.7</ele>
        <time>1970-01-01T01:30:58.000Z</time>
      </trkpt>
      <trkpt lat="42.731255" lon="-7.895866">
        <ele>870.2</ele>
        <time>1970-01-01T01:30:59.000Z</time>
      </trkpt>
      <trkpt lat="42.731272" lon="-7.895878">
        <ele>870.2</ele>
        <time>1970-01-01T01:31:00.000Z</time>
      </trkpt>
      <trkpt lat="42.731289" lon="-7.895891">
        <ele>870.1</ele>
        <time>1970-01-01T01:31:01.000Z</time>
      </trkpt>
      <trkpt lat="42.731306" lon="-7.895904">
        <ele>870.1</ele>
        <time>1970-01-01T01:31:02.000Z</time>
      </trkpt>
      <trkpt lat="42.731323" lon="-7.895916">
        <ele>870.7</ele>
        <time>1970-01-01T01:31:03.000Z</time>
      </trkpt>
      <trkpt lat="42.73134" lon="-7.895928">
        <ele>870.7</ele>
        <time>1970-01-01T01:31:04.000Z</time>
      </trkpt>
      <trkpt lat="42.731356" lon="-7.89594">
        <ele>870.6</ele>
        <time>1970-01-01T01:31:05.000Z</time>
      </trkpt>
      <trkpt lat="42.731373" lon="-7.895953">
        <ele>871.4</ele>
        <time>1970-01-01T01:31:06.000Z</time>
      </trkpt>
      <trkpt lat="42.731389" lon="-7.895965">
        <ele>871.3</ele>
        <time>1970-01-01T01:31:07.000Z</time>
      </trkpt>
      <trkpt lat="42.731406" lon="-7.895977">
        <ele>871.3</ele>
        <time>1970-01-01T01:31:08.000Z</time>
      </trkpt>
      <trkpt lat="42.731422" lon="-7.895988">
        <ele>871.3</ele>
        <time>1970-01-01T01:31:09.000Z</time>
      </trkpt>
      <trkpt lat="42.731438" lon="-7.895999">
        <ele>872.1</ele>
        <time>1970-01-01T01:31:10.000Z</time>
      </trkpt>
      <trkpt lat="42.731455" lon="-7.89601">
        <ele>872</ele>
        <time>1970-01-01T01:31:11.000Z</time>
      </trkpt>
      <trkpt lat="42.73147" lon="-7.896021">
        <ele>872</ele>
        <time>1970-01-01T01:31:12.000Z</time>
      </trkpt>
      <trkpt lat="42.731486" lon="-7.896031">
        <ele>872.1</ele>
        <time>1970-01-01T01:31:13.000Z</time>
      </trkpt>
      <trkpt lat="42.731503" lon="-7.896039">
        <ele>872.9</ele>
        <time>1970-01-01T01:31:14.000Z</time>
      </trkpt>
      <trkpt lat="42.731519" lon="-7.896048">
        <ele>872.9</ele>
        <time>1970-01-01T01:31:15.000Z</time>
      </trkpt>
      <trkpt lat="42.731533" lon="-7.896059">
        <ele>872.9</ele>
        <time>1970-01-01T01:31:16.000Z</time>
      </trkpt>
      <trkpt lat="42.731547" lon="-7.896072">
        <ele>873</ele>
        <time>1970-01-01T01:31:17.000Z</time>
      </trkpt>
      <trkpt lat="42.731561" lon="-7.896084">
        <ele>873.8</ele>
        <time>1970-01-01T01:31:18.000Z</time>
      </trkpt>
      <trkpt lat="42.731575" lon="-7.896096">
        <ele>873.8</ele>
        <time>1970-01-01T01:31:19.000Z</time>
      </trkpt>
      <trkpt lat="42.731589" lon="-7.896108">
        <ele>873.8</ele>
        <time>1970-01-01T01:31:20.000Z</time>
      </trkpt>
      <trkpt lat="42.731602" lon="-7.896123">
        <ele>874.7</ele>
        <time>1970-01-01T01:31:21.000Z</time>
      </trkpt>
      <trkpt lat="42.731617" lon="-7.896137">
        <ele>874.7</ele>
        <time>1970-01-01T01:31:22.000Z</time>
      </trkpt>
      <trkpt lat="42.731634" lon="-7.896151">
        <ele>874.7</ele>
        <time>1970-01-01T01:31:23.000Z</time>
      </trkpt>
      <trkpt lat="42.731652" lon="-7.896164">
        <ele>874.7</ele>
        <time>1970-01-01T01:31:24.000Z</time>
      </trkpt>
      <trkpt lat="42.731671" lon="-7.896176">
        <ele>875.4</ele>
        <time>1970-01-01T01:31:25.000Z</time>
      </trkpt>
      <trkpt lat="42.73169" lon="-7.896189">
        <ele>875.4</ele>
        <time>1970-01-01T01:31:26.000Z</time>
      </trkpt>
      <trkpt lat="42.73171" lon="-7.896203">
        <ele>875.4</ele>
        <time>1970-01-01T01:31:27.000Z</time>
      </trkpt>
      <trkpt lat="42.731731" lon="-7.896218">
        <ele>876</ele>
        <time>1970-01-01T01:31:28.000Z</time>
      </trkpt>
      <trkpt lat="42.731749" lon="-7.896234">
        <ele>876</ele>
        <time>1970-01-01T01:31:29.000Z</time>
      </trkpt>
      <trkpt lat="42.731764" lon="-7.896247">
        <ele>876</ele>
        <time>1970-01-01T01:31:30.000Z</time>
      </trkpt>
      <trkpt lat="42.731776" lon="-7.896258">
        <ele>876.6</ele>
        <time>1970-01-01T01:31:31.000Z</time>
      </trkpt>
      <trkpt lat="42.731789" lon="-7.896265">
        <ele>876.5</ele>
        <time>1970-01-01T01:31:32.000Z</time>
      </trkpt>
      <trkpt lat="42.731806" lon="-7.896274">
        <ele>876.5</ele>
        <time>1970-01-01T01:31:33.000Z</time>
      </trkpt>
      <trkpt lat="42.731822" lon="-7.896288">
        <ele>876.4</ele>
        <time>1970-01-01T01:31:34.000Z</time>
      </trkpt>
      <trkpt lat="42.731838" lon="-7.896303">
        <ele>877</ele>
        <time>1970-01-01T01:31:35.000Z</time>
      </trkpt>
      <trkpt lat="42.731855" lon="-7.896317">
        <ele>876.8</ele>
        <time>1970-01-01T01:31:36.000Z</time>
      </trkpt>
      <trkpt lat="42.731872" lon="-7.896331">
        <ele>876.8</ele>
        <time>1970-01-01T01:31:37.000Z</time>
      </trkpt>
      <trkpt lat="42.73189" lon="-7.896345">
        <ele>877.2</ele>
        <time>1970-01-01T01:31:38.000Z</time>
      </trkpt>
      <trkpt lat="42.731908" lon="-7.89636">
        <ele>877.2</ele>
        <time>1970-01-01T01:31:39.000Z</time>
      </trkpt>
      <trkpt lat="42.731924" lon="-7.896376">
        <ele>877.1</ele>
        <time>1970-01-01T01:31:40.000Z</time>
      </trkpt>
      <trkpt lat="42.731939" lon="-7.896392">
        <ele>877.7</ele>
        <time>1970-01-01T01:31:41.000Z</time>
      </trkpt>
      <trkpt lat="42.731953" lon="-7.896407">
        <ele>877.5</ele>
        <time>1970-01-01T01:31:42.000Z</time>
      </trkpt>
      <trkpt lat="42.731966" lon="-7.89642">
        <ele>877.5</ele>
        <time>1970-01-01T01:31:43.000Z</time>
      </trkpt>
      <trkpt lat="42.731977" lon="-7.896432">
        <ele>878</ele>
        <time>1970-01-01T01:31:44.000Z</time>
      </trkpt>
      <trkpt lat="42.731989" lon="-7.896443">
        <ele>877.8</ele>
        <time>1970-01-01T01:31:45.000Z</time>
      </trkpt>
      <trkpt lat="42.732002" lon="-7.896454">
        <ele>877.8</ele>
        <time>1970-01-01T01:31:46.000Z</time>
      </trkpt>
      <trkpt lat="42.732014" lon="-7.896468">
        <ele>878.2</ele>
        <time>1970-01-01T01:31:47.000Z</time>
      </trkpt>
      <trkpt lat="42.732024" lon="-7.896485">
        <ele>878.2</ele>
        <time>1970-01-01T01:31:48.000Z</time>
      </trkpt>
      <trkpt lat="42.732033" lon="-7.896503">
        <ele>878.2</ele>
        <time>1970-01-01T01:31:49.000Z</time>
      </trkpt>
      <trkpt lat="42.73204" lon="-7.896522">
        <ele>878.8</ele>
        <time>1970-01-01T01:31:50.000Z</time>
      </trkpt>
      <trkpt lat="42.732044" lon="-7.896541">
        <ele>878.6</ele>
        <time>1970-01-01T01:31:51.000Z</time>
      </trkpt>
      <trkpt lat="42.732047" lon="-7.89656">
        <ele>879.1</ele>
        <time>1970-01-01T01:31:52.000Z</time>
      </trkpt>
      <trkpt lat="42.732053" lon="-7.89658">
        <ele>879.1</ele>
        <time>1970-01-01T01:31:53.000Z</time>
      </trkpt>
      <trkpt lat="42.732058" lon="-7.896599">
        <ele>879.7</ele>
        <time>1970-01-01T01:31:54.000Z</time>
      </trkpt>
      <trkpt lat="42.732061" lon="-7.896619">
        <ele>879.7</ele>
        <time>1970-01-01T01:31:55.000Z</time>
      </trkpt>
      <trkpt lat="42.732063" lon="-7.89664">
        <ele>880.3</ele>
        <time>1970-01-01T01:31:56.000Z</time>
      </trkpt>
      <trkpt lat="42.732065" lon="-7.896661">
        <ele>880.3</ele>
        <time>1970-01-01T01:31:57.000Z</time>
      </trkpt>
      <trkpt lat="42.732067" lon="-7.896683">
        <ele>880.8</ele>
        <time>1970-01-01T01:31:58.000Z</time>
      </trkpt>
      <trkpt lat="42.732069" lon="-7.896703">
        <ele>880.8</ele>
        <time>1970-01-01T01:31:59.000Z</time>
      </trkpt>
      <trkpt lat="42.732072" lon="-7.896724">
        <ele>881.4</ele>
        <time>1970-01-01T01:32:00.000Z</time>
      </trkpt>
      <trkpt lat="42.732074" lon="-7.896745">
        <ele>881.1</ele>
        <time>1970-01-01T01:32:01.000Z</time>
      </trkpt>
      <trkpt lat="42.732077" lon="-7.896765">
        <ele>881.1</ele>
        <time>1970-01-01T01:32:02.000Z</time>
      </trkpt>
      <trkpt lat="42.732077" lon="-7.896785">
        <ele>881.6</ele>
        <time>1970-01-01T01:32:03.000Z</time>
      </trkpt>
      <trkpt lat="42.732079" lon="-7.896806">
        <ele>881.6</ele>
        <time>1970-01-01T01:32:04.000Z</time>
      </trkpt>
      <trkpt lat="42.732078" lon="-7.896827">
        <ele>882</ele>
        <time>1970-01-01T01:32:05.000Z</time>
      </trkpt>
      <trkpt lat="42.732078" lon="-7.896846">
        <ele>882</ele>
        <time>1970-01-01T01:32:06.000Z</time>
      </trkpt>
      <trkpt lat="42.732078" lon="-7.896864">
        <ele>882.5</ele>
        <time>1970-01-01T01:32:07.000Z</time>
      </trkpt>
      <trkpt lat="42.732078" lon="-7.896883">
        <ele>882.5</ele>
        <time>1970-01-01T01:32:08.000Z</time>
      </trkpt>
      <trkpt lat="42.732077" lon="-7.896902">
        <ele>882.9</ele>
        <time>1970-01-01T01:32:09.000Z</time>
      </trkpt>
      <trkpt lat="42.732076" lon="-7.896921">
        <ele>882.9</ele>
        <time>1970-01-01T01:32:10.000Z</time>
      </trkpt>
      <trkpt lat="42.732076" lon="-7.896942">
        <ele>883.3</ele>
        <time>1970-01-01T01:32:11.000Z</time>
      </trkpt>
      <trkpt lat="42.732076" lon="-7.896963">
        <ele>883.3</ele>
        <time>1970-01-01T01:32:12.000Z</time>
      </trkpt>
      <trkpt lat="42.732076" lon="-7.896985">
        <ele>883.6</ele>
        <time>1970-01-01T01:32:13.000Z</time>
      </trkpt>
      <trkpt lat="42.732075" lon="-7.897007">
        <ele>883.6</ele>
        <time>1970-01-01T01:32:14.000Z</time>
      </trkpt>
      <trkpt lat="42.732073" lon="-7.897027">
        <ele>883.9</ele>
        <time>1970-01-01T01:32:15.000Z</time>
      </trkpt>
      <trkpt lat="42.73207" lon="-7.897046">
        <ele>884.2</ele>
        <time>1970-01-01T01:32:16.000Z</time>
      </trkpt>
      <trkpt lat="42.732068" lon="-7.897065">
        <ele>884.2</ele>
        <time>1970-01-01T01:32:17.000Z</time>
      </trkpt>
      <trkpt lat="42.732066" lon="-7.897085">
        <ele>884.4</ele>
        <time>1970-01-01T01:32:18.000Z</time>
      </trkpt>
      <trkpt lat="42.732065" lon="-7.897105">
        <ele>884.4</ele>
        <time>1970-01-01T01:32:19.000Z</time>
      </trkpt>
      <trkpt lat="42.732064" lon="-7.897126">
        <ele>884.6</ele>
        <time>1970-01-01T01:32:20.000Z</time>
      </trkpt>
      <trkpt lat="42.732062" lon="-7.897145">
        <ele>884.6</ele>
        <time>1970-01-01T01:32:21.000Z</time>
      </trkpt>
      <trkpt lat="42.732059" lon="-7.897164">
        <ele>884.8</ele>
        <time>1970-01-01T01:32:22.000Z</time>
      </trkpt>
      <trkpt lat="42.732055" lon="-7.897183">
        <ele>884.8</ele>
        <time>1970-01-01T01:32:23.000Z</time>
      </trkpt>
      <trkpt lat="42.732051" lon="-7.897203">
        <ele>884.9</ele>
        <time>1970-01-01T01:32:24.000Z</time>
      </trkpt>
      <trkpt lat="42.732049" lon="-7.897221">
        <ele>884.9</ele>
        <time>1970-01-01T01:32:25.000Z</time>
      </trkpt>
      <trkpt lat="42.732047" lon="-7.897241">
        <ele>885.1</ele>
        <time>1970-01-01T01:32:26.000Z</time>
      </trkpt>
      <trkpt lat="42.732045" lon="-7.897259">
        <ele>885.1</ele>
        <time>1970-01-01T01:32:27.000Z</time>
      </trkpt>
      <trkpt lat="42.73204" lon="-7.897275">
        <ele>885.3</ele>
        <time>1970-01-01T01:32:28.000Z</time>
      </trkpt>
      <trkpt lat="42.732035" lon="-7.897294">
        <ele>885.4</ele>
        <time>1970-01-01T01:32:29.000Z</time>
      </trkpt>
      <trkpt lat="42.73203" lon="-7.897315">
        <ele>885.4</ele>
        <time>1970-01-01T01:32:30.000Z</time>
      </trkpt>
      <trkpt lat="42.732026" lon="-7.897336">
        <ele>885.5</ele>
        <time>1970-01-01T01:32:31.000Z</time>
      </trkpt>
      <trkpt lat="42.73202" lon="-7.897356">
        <ele>885.5</ele>
        <time>1970-01-01T01:32:32.000Z</time>
      </trkpt>
      <trkpt lat="42.732012" lon="-7.897377">
        <ele>885.7</ele>
        <time>1970-01-01T01:32:33.000Z</time>
      </trkpt>
      <trkpt lat="42.732006" lon="-7.897397">
        <ele>885.8</ele>
        <time>1970-01-01T01:32:34.000Z</time>
      </trkpt>
      <trkpt lat="42.732003" lon="-7.897417">
        <ele>886</ele>
        <time>1970-01-01T01:32:35.000Z</time>
      </trkpt>
      <trkpt lat="42.731997" lon="-7.897434">
        <ele>886</ele>
        <time>1970-01-01T01:32:36.000Z</time>
      </trkpt>
      <trkpt lat="42.731993" lon="-7.897454">
        <ele>886.1</ele>
        <time>1970-01-01T01:32:37.000Z</time>
      </trkpt>
      <trkpt lat="42.731989" lon="-7.897475">
        <ele>886.1</ele>
        <time>1970-01-01T01:32:38.000Z</time>
      </trkpt>
      <trkpt lat="42.731983" lon="-7.897499">
        <ele>886.1</ele>
        <time>1970-01-01T01:32:39.000Z</time>
      </trkpt>
      <trkpt lat="42.731977" lon="-7.897524">
        <ele>886.3</ele>
        <time>1970-01-01T01:32:40.000Z</time>
      </trkpt>
      <trkpt lat="42.731968" lon="-7.897553">
        <ele>886.4</ele>
        <time>1970-01-01T01:32:41.000Z</time>
      </trkpt>
      <trkpt lat="42.731957" lon="-7.897582">
        <ele>886.4</ele>
        <time>1970-01-01T01:32:42.000Z</time>
      </trkpt>
      <trkpt lat="42.731947" lon="-7.897613">
        <ele>886.4</ele>
        <time>1970-01-01T01:32:43.000Z</time>
      </trkpt>
      <trkpt lat="42.731936" lon="-7.897644">
        <ele>886.6</ele>
        <time>1970-01-01T01:32:44.000Z</time>
      </trkpt>
      <trkpt lat="42.731925" lon="-7.897675">
        <ele>886.6</ele>
        <time>1970-01-01T01:32:45.000Z</time>
      </trkpt>
      <trkpt lat="42.731914" lon="-7.897707">
        <ele>886.6</ele>
        <time>1970-01-01T01:32:46.000Z</time>
      </trkpt>
      <trkpt lat="42.731902" lon="-7.897739">
        <ele>886.7</ele>
        <time>1970-01-01T01:32:47.000Z</time>
      </trkpt>
      <trkpt lat="42.731889" lon="-7.897771">
        <ele>886.7</ele>
        <time>1970-01-01T01:32:48.000Z</time>
      </trkpt>
      <trkpt lat="42.731876" lon="-7.897803">
        <ele>886.7</ele>
        <time>1970-01-01T01:32:49.000Z</time>
      </trkpt>
      <trkpt lat="42.73186" lon="-7.897833">
        <ele>886.7</ele>
        <time>1970-01-01T01:32:50.000Z</time>
      </trkpt>
      <trkpt lat="42.731845" lon="-7.897868">
        <ele>886.7</ele>
        <time>1970-01-01T01:32:51.000Z</time>
      </trkpt>
      <trkpt lat="42.73183" lon="-7.897906">
        <ele>886.7</ele>
        <time>1970-01-01T01:32:52.000Z</time>
      </trkpt>
      <trkpt lat="42.731816" lon="-7.897946">
        <ele>886.6</ele>
        <time>1970-01-01T01:32:53.000Z</time>
      </trkpt>
      <trkpt lat="42.731801" lon="-7.897987">
        <ele>886.6</ele>
        <time>1970-01-01T01:32:54.000Z</time>
      </trkpt>
      <trkpt lat="42.731787" lon="-7.898028">
        <ele>886.6</ele>
        <time>1970-01-01T01:32:55.000Z</time>
      </trkpt>
      <trkpt lat="42.731773" lon="-7.898071">
        <ele>886.6</ele>
        <time>1970-01-01T01:32:56.000Z</time>
      </trkpt>
      <trkpt lat="42.731761" lon="-7.898113">
        <ele>886.6</ele>
        <time>1970-01-01T01:32:57.000Z</time>
      </trkpt>
      <trkpt lat="42.731748" lon="-7.898158">
        <ele>886.6</ele>
        <time>1970-01-01T01:32:58.000Z</time>
      </trkpt>
      <trkpt lat="42.731736" lon="-7.898206">
        <ele>886.6</ele>
        <time>1970-01-01T01:32:59.000Z</time>
      </trkpt>
      <trkpt lat="42.731727" lon="-7.898255">
        <ele>886.6</ele>
        <time>1970-01-01T01:33:00.000Z</time>
      </trkpt>
      <trkpt lat="42.731718" lon="-7.898303">
        <ele>886.6</ele>
        <time>1970-01-01T01:33:01.000Z</time>
      </trkpt>
      <trkpt lat="42.731709" lon="-7.898353">
        <ele>886.6</ele>
        <time>1970-01-01T01:33:02.000Z</time>
      </trkpt>
      <trkpt lat="42.731701" lon="-7.898403">
        <ele>886.7</ele>
        <time>1970-01-01T01:33:03.000Z</time>
      </trkpt>
      <trkpt lat="42.731696" lon="-7.898454">
        <ele>886.7</ele>
        <time>1970-01-01T01:33:04.000Z</time>
      </trkpt>
      <trkpt lat="42.731695" lon="-7.898503">
        <ele>886.7</ele>
        <time>1970-01-01T01:33:05.000Z</time>
      </trkpt>
      <trkpt lat="42.731696" lon="-7.89855">
        <ele>886.8</ele>
        <time>1970-01-01T01:33:06.000Z</time>
      </trkpt>
      <trkpt lat="42.731698" lon="-7.898597">
        <ele>886.8</ele>
        <time>1970-01-01T01:33:07.000Z</time>
      </trkpt>
      <trkpt lat="42.731704" lon="-7.898642">
        <ele>886.9</ele>
        <time>1970-01-01T01:33:08.000Z</time>
      </trkpt>
      <trkpt lat="42.731711" lon="-7.898683">
        <ele>887</ele>
        <time>1970-01-01T01:33:09.000Z</time>
      </trkpt>
      <trkpt lat="42.731718" lon="-7.898724">
        <ele>887.1</ele>
        <time>1970-01-01T01:33:10.000Z</time>
      </trkpt>
      <trkpt lat="42.731728" lon="-7.898762">
        <ele>887.1</ele>
        <time>1970-01-01T01:33:11.000Z</time>
      </trkpt>
      <trkpt lat="42.731741" lon="-7.898799">
        <ele>887.2</ele>
        <time>1970-01-01T01:33:12.000Z</time>
      </trkpt>
      <trkpt lat="42.731754" lon="-7.898834">
        <ele>887.3</ele>
        <time>1970-01-01T01:33:13.000Z</time>
      </trkpt>
      <trkpt lat="42.731767" lon="-7.898871">
        <ele>887.3</ele>
        <time>1970-01-01T01:33:14.000Z</time>
      </trkpt>
      <trkpt lat="42.73178" lon="-7.898905">
        <ele>887.3</ele>
        <time>1970-01-01T01:33:15.000Z</time>
      </trkpt>
      <trkpt lat="42.731793" lon="-7.898941">
        <ele>887.4</ele>
        <time>1970-01-01T01:33:16.000Z</time>
      </trkpt>
      <trkpt lat="42.731805" lon="-7.898976">
        <ele>887.4</ele>
        <time>1970-01-01T01:33:17.000Z</time>
      </trkpt>
      <trkpt lat="42.731815" lon="-7.899013">
        <ele>887.4</ele>
        <time>1970-01-01T01:33:18.000Z</time>
      </trkpt>
      <trkpt lat="42.731827" lon="-7.899047">
        <ele>887.4</ele>
        <time>1970-01-01T01:33:19.000Z</time>
      </trkpt>
      <trkpt lat="42.731835" lon="-7.899081">
        <ele>887.4</ele>
        <time>1970-01-01T01:33:20.000Z</time>
      </trkpt>
      <trkpt lat="42.731842" lon="-7.899114">
        <ele>887.4</ele>
        <time>1970-01-01T01:33:21.000Z</time>
      </trkpt>
      <trkpt lat="42.731848" lon="-7.899147">
        <ele>887.3</ele>
        <time>1970-01-01T01:33:22.000Z</time>
      </trkpt>
      <trkpt lat="42.731855" lon="-7.89918">
        <ele>887.2</ele>
        <time>1970-01-01T01:33:23.000Z</time>
      </trkpt>
      <trkpt lat="42.731863" lon="-7.899215">
        <ele>887.1</ele>
        <time>1970-01-01T01:33:24.000Z</time>
      </trkpt>
      <trkpt lat="42.731872" lon="-7.899254">
        <ele>887.1</ele>
        <time>1970-01-01T01:33:25.000Z</time>
      </trkpt>
      <trkpt lat="42.73188" lon="-7.899297">
        <ele>886.9</ele>
        <time>1970-01-01T01:33:26.000Z</time>
      </trkpt>
      <trkpt lat="42.731886" lon="-7.899344">
        <ele>886.4</ele>
        <time>1970-01-01T01:33:27.000Z</time>
      </trkpt>
      <trkpt lat="42.73189" lon="-7.899391">
        <ele>886.3</ele>
        <time>1970-01-01T01:33:28.000Z</time>
      </trkpt>
      <trkpt lat="42.731895" lon="-7.899438">
        <ele>886.1</ele>
        <time>1970-01-01T01:33:29.000Z</time>
      </trkpt>
      <trkpt lat="42.731901" lon="-7.899488">
        <ele>886</ele>
        <time>1970-01-01T01:33:30.000Z</time>
      </trkpt>
      <trkpt lat="42.731906" lon="-7.899541">
        <ele>885.8</ele>
        <time>1970-01-01T01:33:31.000Z</time>
      </trkpt>
      <trkpt lat="42.731913" lon="-7.899597">
        <ele>885.7</ele>
        <time>1970-01-01T01:33:32.000Z</time>
      </trkpt>
      <trkpt lat="42.731924" lon="-7.899654">
        <ele>885</ele>
        <time>1970-01-01T01:33:33.000Z</time>
      </trkpt>
      <trkpt lat="42.731937" lon="-7.89971">
        <ele>884.9</ele>
        <time>1970-01-01T01:33:34.000Z</time>
      </trkpt>
      <trkpt lat="42.731953" lon="-7.899761">
        <ele>884.4</ele>
        <time>1970-01-01T01:33:35.000Z</time>
      </trkpt>
      <trkpt lat="42.73197" lon="-7.899808">
        <ele>884.4</ele>
        <time>1970-01-01T01:33:36.000Z</time>
      </trkpt>
      <trkpt lat="42.731987" lon="-7.899852">
        <ele>883.9</ele>
        <time>1970-01-01T01:33:37.000Z</time>
      </trkpt>
      <trkpt lat="42.732002" lon="-7.899894">
        <ele>884</ele>
        <time>1970-01-01T01:33:38.000Z</time>
      </trkpt>
      <trkpt lat="42.73202" lon="-7.89993">
        <ele>883.6</ele>
        <time>1970-01-01T01:33:39.000Z</time>
      </trkpt>
      <trkpt lat="42.732037" lon="-7.899965">
        <ele>883.8</ele>
        <time>1970-01-01T01:33:40.000Z</time>
      </trkpt>
      <trkpt lat="42.732053" lon="-7.899998">
        <ele>883.4</ele>
        <time>1970-01-01T01:33:41.000Z</time>
      </trkpt>
      <trkpt lat="42.732069" lon="-7.90003">
        <ele>883.6</ele>
        <time>1970-01-01T01:33:42.000Z</time>
      </trkpt>
      <trkpt lat="42.732086" lon="-7.900063">
        <ele>883</ele>
        <time>1970-01-01T01:33:43.000Z</time>
      </trkpt>
      <trkpt lat="42.732103" lon="-7.900095">
        <ele>883.2</ele>
        <time>1970-01-01T01:33:44.000Z</time>
      </trkpt>
      <trkpt lat="42.73212" lon="-7.900128">
        <ele>882.8</ele>
        <time>1970-01-01T01:33:45.000Z</time>
      </trkpt>
      <trkpt lat="42.732135" lon="-7.900164">
        <ele>883</ele>
        <time>1970-01-01T01:33:46.000Z</time>
      </trkpt>
      <trkpt lat="42.73215" lon="-7.900198">
        <ele>882.4</ele>
        <time>1970-01-01T01:33:47.000Z</time>
      </trkpt>
      <trkpt lat="42.732165" lon="-7.900234">
        <ele>882.6</ele>
        <time>1970-01-01T01:33:48.000Z</time>
      </trkpt>
      <trkpt lat="42.732179" lon="-7.900273">
        <ele>882.2</ele>
        <time>1970-01-01T01:33:49.000Z</time>
      </trkpt>
      <trkpt lat="42.732192" lon="-7.900314">
        <ele>882.4</ele>
        <time>1970-01-01T01:33:50.000Z</time>
      </trkpt>
      <trkpt lat="42.732202" lon="-7.900356">
        <ele>882.1</ele>
        <time>1970-01-01T01:33:51.000Z</time>
      </trkpt>
      <trkpt lat="42.732211" lon="-7.900395">
        <ele>882.4</ele>
        <time>1970-01-01T01:33:52.000Z</time>
      </trkpt>
      <trkpt lat="42.732217" lon="-7.900434">
        <ele>882.7</ele>
        <time>1970-01-01T01:33:53.000Z</time>
      </trkpt>
      <trkpt lat="42.73222" lon="-7.900475">
        <ele>883.1</ele>
        <time>1970-01-01T01:33:54.000Z</time>
      </trkpt>
      <trkpt lat="42.732223" lon="-7.900519">
        <ele>883.4</ele>
        <time>1970-01-01T01:33:55.000Z</time>
      </trkpt>
      <trkpt lat="42.732226" lon="-7.900563">
        <ele>883.8</ele>
        <time>1970-01-01T01:33:56.000Z</time>
      </trkpt>
      <trkpt lat="42.732232" lon="-7.900606">
        <ele>883.9</ele>
        <time>1970-01-01T01:33:57.000Z</time>
      </trkpt>
      <trkpt lat="42.732238" lon="-7.900648">
        <ele>884.2</ele>
        <time>1970-01-01T01:33:58.000Z</time>
      </trkpt>
      <trkpt lat="42.732244" lon="-7.90069">
        <ele>884.6</ele>
        <time>1970-01-01T01:33:59.000Z</time>
      </trkpt>
      <trkpt lat="42.732252" lon="-7.900731">
        <ele>884.9</ele>
        <time>1970-01-01T01:34:00.000Z</time>
      </trkpt>
      <trkpt lat="42.73226" lon="-7.900772">
        <ele>885.2</ele>
        <time>1970-01-01T01:34:01.000Z</time>
      </trkpt>
      <trkpt lat="42.732272" lon="-7.900812">
        <ele>885.4</ele>
        <time>1970-01-01T01:34:02.000Z</time>
      </trkpt>
      <trkpt lat="42.732286" lon="-7.900853">
        <ele>885.6</ele>
        <time>1970-01-01T01:34:03.000Z</time>
      </trkpt>
      <trkpt lat="42.732302" lon="-7.900891">
        <ele>885.9</ele>
        <time>1970-01-01T01:34:04.000Z</time>
      </trkpt>
      <trkpt lat="42.73232" lon="-7.900928">
        <ele>885.9</ele>
        <time>1970-01-01T01:34:05.000Z</time>
      </trkpt>
      <trkpt lat="42.732337" lon="-7.900965">
        <ele>886.2</ele>
        <time>1970-01-01T01:34:06.000Z</time>
      </trkpt>
      <trkpt lat="42.732355" lon="-7.901">
        <ele>886.5</ele>
        <time>1970-01-01T01:34:07.000Z</time>
      </trkpt>
      <trkpt lat="42.732374" lon="-7.901033">
        <ele>886.8</ele>
        <time>1970-01-01T01:34:08.000Z</time>
      </trkpt>
      <trkpt lat="42.732392" lon="-7.901068">
        <ele>887.2</ele>
        <time>1970-01-01T01:34:09.000Z</time>
      </trkpt>
      <trkpt lat="42.732411" lon="-7.901099">
        <ele>887.2</ele>
        <time>1970-01-01T01:34:10.000Z</time>
      </trkpt>
      <trkpt lat="42.732431" lon="-7.901127">
        <ele>887.5</ele>
        <time>1970-01-01T01:34:11.000Z</time>
      </trkpt>
      <trkpt lat="42.732451" lon="-7.901155">
        <ele>887.7</ele>
        <time>1970-01-01T01:34:12.000Z</time>
      </trkpt>
      <trkpt lat="42.732473" lon="-7.901179">
        <ele>887.7</ele>
        <time>1970-01-01T01:34:13.000Z</time>
      </trkpt>
      <trkpt lat="42.732495" lon="-7.901204">
        <ele>887.9</ele>
        <time>1970-01-01T01:34:14.000Z</time>
      </trkpt>
      <trkpt lat="42.732517" lon="-7.901227">
        <ele>888.1</ele>
        <time>1970-01-01T01:34:15.000Z</time>
      </trkpt>
      <trkpt lat="42.732537" lon="-7.901248">
        <ele>888.1</ele>
        <time>1970-01-01T01:34:16.000Z</time>
      </trkpt>
      <trkpt lat="42.73256" lon="-7.901267">
        <ele>888.2</ele>
        <time>1970-01-01T01:34:17.000Z</time>
      </trkpt>
      <trkpt lat="42.732583" lon="-7.901286">
        <ele>888.4</ele>
        <time>1970-01-01T01:34:18.000Z</time>
      </trkpt>
      <trkpt lat="42.732609" lon="-7.901306">
        <ele>888.6</ele>
        <time>1970-01-01T01:34:19.000Z</time>
      </trkpt>
      <trkpt lat="42.732637" lon="-7.901324">
        <ele>888.6</ele>
        <time>1970-01-01T01:34:20.000Z</time>
      </trkpt>
      <trkpt lat="42.732665" lon="-7.901339">
        <ele>888.8</ele>
        <time>1970-01-01T01:34:21.000Z</time>
      </trkpt>
      <trkpt lat="42.732695" lon="-7.901352">
        <ele>889</ele>
        <time>1970-01-01T01:34:22.000Z</time>
      </trkpt>
      <trkpt lat="42.732725" lon="-7.901366">
        <ele>889.1</ele>
        <time>1970-01-01T01:34:23.000Z</time>
      </trkpt>
      <trkpt lat="42.732755" lon="-7.901374">
        <ele>889.3</ele>
        <time>1970-01-01T01:34:24.000Z</time>
      </trkpt>
      <trkpt lat="42.732786" lon="-7.901379">
        <ele>889.5</ele>
        <time>1970-01-01T01:34:25.000Z</time>
      </trkpt>
      <trkpt lat="42.732819" lon="-7.901383">
        <ele>889.7</ele>
        <time>1970-01-01T01:34:26.000Z</time>
      </trkpt>
      <trkpt lat="42.732852" lon="-7.901382">
        <ele>889.9</ele>
        <time>1970-01-01T01:34:27.000Z</time>
      </trkpt>
      <trkpt lat="42.732888" lon="-7.901377">
        <ele>890</ele>
        <time>1970-01-01T01:34:28.000Z</time>
      </trkpt>
      <trkpt lat="42.732925" lon="-7.901364">
        <ele>890.1</ele>
        <time>1970-01-01T01:34:29.000Z</time>
      </trkpt>
      <trkpt lat="42.73296" lon="-7.901355">
        <ele>890.1</ele>
        <time>1970-01-01T01:34:30.000Z</time>
      </trkpt>
      <trkpt lat="42.732994" lon="-7.901341">
        <ele>889.9</ele>
        <time>1970-01-01T01:34:31.000Z</time>
      </trkpt>
      <trkpt lat="42.733026" lon="-7.901325">
        <ele>889.6</ele>
        <time>1970-01-01T01:34:32.000Z</time>
      </trkpt>
      <trkpt lat="42.733057" lon="-7.901309">
        <ele>889.3</ele>
        <time>1970-01-01T01:34:33.000Z</time>
      </trkpt>
      <trkpt lat="42.733087" lon="-7.901293">
        <ele>888.8</ele>
        <time>1970-01-01T01:34:34.000Z</time>
      </trkpt>
      <trkpt lat="42.733115" lon="-7.901276">
        <ele>888.4</ele>
        <time>1970-01-01T01:34:35.000Z</time>
      </trkpt>
      <trkpt lat="42.733141" lon="-7.901259">
        <ele>888.3</ele>
        <time>1970-01-01T01:34:36.000Z</time>
      </trkpt>
      <trkpt lat="42.733163" lon="-7.901245">
        <ele>887.7</ele>
        <time>1970-01-01T01:34:37.000Z</time>
      </trkpt>
      <trkpt lat="42.733183" lon="-7.901233">
        <ele>887.2</ele>
        <time>1970-01-01T01:34:38.000Z</time>
      </trkpt>
      <trkpt lat="42.733207" lon="-7.901219">
        <ele>886.4</ele>
        <time>1970-01-01T01:34:39.000Z</time>
      </trkpt>
      <trkpt lat="42.733234" lon="-7.901203">
        <ele>886.4</ele>
        <time>1970-01-01T01:34:40.000Z</time>
      </trkpt>
      <trkpt lat="42.733263" lon="-7.901184">
        <ele>885.6</ele>
        <time>1970-01-01T01:34:41.000Z</time>
      </trkpt>
      <trkpt lat="42.733295" lon="-7.901163">
        <ele>885</ele>
        <time>1970-01-01T01:34:42.000Z</time>
      </trkpt>
      <trkpt lat="42.733328" lon="-7.901142">
        <ele>884.2</ele>
        <time>1970-01-01T01:34:43.000Z</time>
      </trkpt>
      <trkpt lat="42.733362" lon="-7.901121">
        <ele>883.5</ele>
        <time>1970-01-01T01:34:44.000Z</time>
      </trkpt>
      <trkpt lat="42.733396" lon="-7.901099">
        <ele>882.6</ele>
        <time>1970-01-01T01:34:45.000Z</time>
      </trkpt>
      <trkpt lat="42.733426" lon="-7.901079">
        <ele>881.9</ele>
        <time>1970-01-01T01:34:46.000Z</time>
      </trkpt>
      <trkpt lat="42.733456" lon="-7.901059">
        <ele>881.2</ele>
        <time>1970-01-01T01:34:47.000Z</time>
      </trkpt>
      <trkpt lat="42.733487" lon="-7.901038">
        <ele>880.2</ele>
        <time>1970-01-01T01:34:48.000Z</time>
      </trkpt>
      <trkpt lat="42.73352" lon="-7.901016">
        <ele>879.6</ele>
        <time>1970-01-01T01:34:49.000Z</time>
      </trkpt>
      <trkpt lat="42.733556" lon="-7.900996">
        <ele>877.9</ele>
        <time>1970-01-01T01:34:50.000Z</time>
      </trkpt>
      <trkpt lat="42.733594" lon="-7.900976">
        <ele>877.1</ele>
        <time>1970-01-01T01:34:51.000Z</time>
      </trkpt>
      <trkpt lat="42.733631" lon="-7.900957">
        <ele>876</ele>
        <time>1970-01-01T01:34:52.000Z</time>
      </trkpt>
      <trkpt lat="42.733666" lon="-7.900937">
        <ele>875.2</ele>
        <time>1970-01-01T01:34:53.000Z</time>
      </trkpt>
      <trkpt lat="42.733701" lon="-7.900917">
        <ele>874.2</ele>
        <time>1970-01-01T01:34:54.000Z</time>
      </trkpt>
      <trkpt lat="42.733732" lon="-7.900898">
        <ele>873.4</ele>
        <time>1970-01-01T01:34:55.000Z</time>
      </trkpt>
      <trkpt lat="42.733762" lon="-7.900879">
        <ele>872.4</ele>
        <time>1970-01-01T01:34:56.000Z</time>
      </trkpt>
      <trkpt lat="42.733792" lon="-7.90086">
        <ele>871.7</ele>
        <time>1970-01-01T01:34:57.000Z</time>
      </trkpt>
      <trkpt lat="42.733821" lon="-7.90084">
        <ele>870.7</ele>
        <time>1970-01-01T01:34:58.000Z</time>
      </trkpt>
      <trkpt lat="42.73385" lon="-7.900819">
        <ele>869.9</ele>
        <time>1970-01-01T01:34:59.000Z</time>
      </trkpt>
      <trkpt lat="42.733878" lon="-7.900796">
        <ele>868.7</ele>
        <time>1970-01-01T01:35:00.000Z</time>
      </trkpt>
      <trkpt lat="42.733908" lon="-7.900773">
        <ele>867.9</ele>
        <time>1970-01-01T01:35:01.000Z</time>
      </trkpt>
      <trkpt lat="42.733937" lon="-7.900747">
        <ele>866.8</ele>
        <time>1970-01-01T01:35:02.000Z</time>
      </trkpt>
      <trkpt lat="42.733967" lon="-7.900719">
        <ele>866</ele>
        <time>1970-01-01T01:35:03.000Z</time>
      </trkpt>
      <trkpt lat="42.734" lon="-7.90069">
        <ele>865</ele>
        <time>1970-01-01T01:35:04.000Z</time>
      </trkpt>
      <trkpt lat="42.734037" lon="-7.90066">
        <ele>863.9</ele>
        <time>1970-01-01T01:35:05.000Z</time>
      </trkpt>
      <trkpt lat="42.734073" lon="-7.900631">
        <ele>863.2</ele>
        <time>1970-01-01T01:35:06.000Z</time>
      </trkpt>
      <trkpt lat="42.734107" lon="-7.900603">
        <ele>862.1</ele>
        <time>1970-01-01T01:35:07.000Z</time>
      </trkpt>
      <trkpt lat="42.734144" lon="-7.900577">
        <ele>860.8</ele>
        <time>1970-01-01T01:35:08.000Z</time>
      </trkpt>
      <trkpt lat="42.734179" lon="-7.900553">
        <ele>860</ele>
        <time>1970-01-01T01:35:09.000Z</time>
      </trkpt>
      <trkpt lat="42.734212" lon="-7.900531">
        <ele>858.7</ele>
        <time>1970-01-01T01:35:10.000Z</time>
      </trkpt>
      <trkpt lat="42.734241" lon="-7.90051">
        <ele>858</ele>
        <time>1970-01-01T01:35:11.000Z</time>
      </trkpt>
      <trkpt lat="42.734264" lon="-7.90048">
        <ele>856.9</ele>
        <time>1970-01-01T01:35:12.000Z</time>
      </trkpt>
      <trkpt lat="42.734273" lon="-7.900435">
        <ele>856.3</ele>
        <time>1970-01-01T01:35:13.000Z</time>
      </trkpt>
      <trkpt lat="42.734268" lon="-7.900382">
        <ele>855.7</ele>
        <time>1970-01-01T01:35:14.000Z</time>
      </trkpt>
      <trkpt lat="42.734256" lon="-7.900334">
        <ele>855.1</ele>
        <time>1970-01-01T01:35:15.000Z</time>
      </trkpt>
      <trkpt lat="42.734245" lon="-7.900288">
        <ele>855.1</ele>
        <time>1970-01-01T01:35:16.000Z</time>
      </trkpt>
      <trkpt lat="42.734233" lon="-7.900244">
        <ele>854.4</ele>
        <time>1970-01-01T01:35:17.000Z</time>
      </trkpt>
      <trkpt lat="42.734222" lon="-7.900197">
        <ele>853</ele>
        <time>1970-01-01T01:35:18.000Z</time>
      </trkpt>
      <trkpt lat="42.734217" lon="-7.900142">
        <ele>852.3</ele>
        <time>1970-01-01T01:35:19.000Z</time>
      </trkpt>
      <trkpt lat="42.734215" lon="-7.900079">
        <ele>852.3</ele>
        <time>1970-01-01T01:35:20.000Z</time>
      </trkpt>
      <trkpt lat="42.734218" lon="-7.900015">
        <ele>850.2</ele>
        <time>1970-01-01T01:35:21.000Z</time>
      </trkpt>
      <trkpt lat="42.734227" lon="-7.899952">
        <ele>849.5</ele>
        <time>1970-01-01T01:35:22.000Z</time>
      </trkpt>
      <trkpt lat="42.73424" lon="-7.899886">
        <ele>848.4</ele>
        <time>1970-01-01T01:35:23.000Z</time>
      </trkpt>
      <trkpt lat="42.734257" lon="-7.899819">
        <ele>847.2</ele>
        <time>1970-01-01T01:35:24.000Z</time>
      </trkpt>
      <trkpt lat="42.734277" lon="-7.899758">
        <ele>846.5</ele>
        <time>1970-01-01T01:35:25.000Z</time>
      </trkpt>
      <trkpt lat="42.7343" lon="-7.899702">
        <ele>845.4</ele>
        <time>1970-01-01T01:35:26.000Z</time>
      </trkpt>
      <trkpt lat="42.734325" lon="-7.899648">
        <ele>844.4</ele>
        <time>1970-01-01T01:35:27.000Z</time>
      </trkpt>
      <trkpt lat="42.734351" lon="-7.899593">
        <ele>843.1</ele>
        <time>1970-01-01T01:35:28.000Z</time>
      </trkpt>
      <trkpt lat="42.734377" lon="-7.899533">
        <ele>842.1</ele>
        <time>1970-01-01T01:35:29.000Z</time>
      </trkpt>
      <trkpt lat="42.734402" lon="-7.899473">
        <ele>841.9</ele>
        <time>1970-01-01T01:35:30.000Z</time>
      </trkpt>
      <trkpt lat="42.734422" lon="-7.899415">
        <ele>840.7</ele>
        <time>1970-01-01T01:35:31.000Z</time>
      </trkpt>
      <trkpt lat="42.734436" lon="-7.899359">
        <ele>840.6</ele>
        <time>1970-01-01T01:35:32.000Z</time>
      </trkpt>
      <trkpt lat="42.734448" lon="-7.899305">
        <ele>839.6</ele>
        <time>1970-01-01T01:35:33.000Z</time>
      </trkpt>
      <trkpt lat="42.734461" lon="-7.899248">
        <ele>839.4</ele>
        <time>1970-01-01T01:35:34.000Z</time>
      </trkpt>
      <trkpt lat="42.734475" lon="-7.899189">
        <ele>838.4</ele>
        <time>1970-01-01T01:35:35.000Z</time>
      </trkpt>
      <trkpt lat="42.734488" lon="-7.89913">
        <ele>838.1</ele>
        <time>1970-01-01T01:35:36.000Z</time>
      </trkpt>
      <trkpt lat="42.734502" lon="-7.899078">
        <ele>837</ele>
        <time>1970-01-01T01:35:37.000Z</time>
      </trkpt>
      <trkpt lat="42.734516" lon="-7.899031">
        <ele>836.9</ele>
        <time>1970-01-01T01:35:38.000Z</time>
      </trkpt>
      <trkpt lat="42.734532" lon="-7.898986">
        <ele>835.9</ele>
        <time>1970-01-01T01:35:39.000Z</time>
      </trkpt>
      <trkpt lat="42.734546" lon="-7.898932">
        <ele>835.7</ele>
        <time>1970-01-01T01:35:40.000Z</time>
      </trkpt>
      <trkpt lat="42.734561" lon="-7.898874">
        <ele>835.6</ele>
        <time>1970-01-01T01:35:41.000Z</time>
      </trkpt>
      <trkpt lat="42.734575" lon="-7.898818">
        <ele>834.6</ele>
        <time>1970-01-01T01:35:42.000Z</time>
      </trkpt>
      <trkpt lat="42.734584" lon="-7.898764">
        <ele>834.5</ele>
        <time>1970-01-01T01:35:43.000Z</time>
      </trkpt>
      <trkpt lat="42.734595" lon="-7.898711">
        <ele>833.6</ele>
        <time>1970-01-01T01:35:44.000Z</time>
      </trkpt>
      <trkpt lat="42.734607" lon="-7.898659">
        <ele>833.6</ele>
        <time>1970-01-01T01:35:45.000Z</time>
      </trkpt>
      <trkpt lat="42.73462" lon="-7.898608">
        <ele>833.7</ele>
        <time>1970-01-01T01:35:46.000Z</time>
      </trkpt>
      <trkpt lat="42.734634" lon="-7.898558">
        <ele>832.8</ele>
        <time>1970-01-01T01:35:47.000Z</time>
      </trkpt>
      <trkpt lat="42.73465" lon="-7.898504">
        <ele>832.9</ele>
        <time>1970-01-01T01:35:48.000Z</time>
      </trkpt>
      <trkpt lat="42.734668" lon="-7.898451">
        <ele>832.1</ele>
        <time>1970-01-01T01:35:49.000Z</time>
      </trkpt>
      <trkpt lat="42.734691" lon="-7.898397">
        <ele>831.3</ele>
        <time>1970-01-01T01:35:50.000Z</time>
      </trkpt>
      <trkpt lat="42.734719" lon="-7.898345">
        <ele>831.4</ele>
        <time>1970-01-01T01:35:51.000Z</time>
      </trkpt>
      <trkpt lat="42.734749" lon="-7.898296">
        <ele>830.5</ele>
        <time>1970-01-01T01:35:52.000Z</time>
      </trkpt>
      <trkpt lat="42.73478" lon="-7.898253">
        <ele>829.5</ele>
        <time>1970-01-01T01:35:53.000Z</time>
      </trkpt>
      <trkpt lat="42.734812" lon="-7.898212">
        <ele>828.5</ele>
        <time>1970-01-01T01:35:54.000Z</time>
      </trkpt>
      <trkpt lat="42.734848" lon="-7.898173">
        <ele>826.6</ele>
        <time>1970-01-01T01:35:55.000Z</time>
      </trkpt>
      <trkpt lat="42.734886" lon="-7.898138">
        <ele>825.8</ele>
        <time>1970-01-01T01:35:56.000Z</time>
      </trkpt>
      <trkpt lat="42.734925" lon="-7.898108">
        <ele>824.8</ele>
        <time>1970-01-01T01:35:57.000Z</time>
      </trkpt>
      <trkpt lat="42.734967" lon="-7.898084">
        <ele>824</ele>
        <time>1970-01-01T01:35:58.000Z</time>
      </trkpt>
      <trkpt lat="42.735009" lon="-7.898068">
        <ele>821.8</ele>
        <time>1970-01-01T01:35:59.000Z</time>
      </trkpt>
      <trkpt lat="42.735052" lon="-7.898056">
        <ele>820.6</ele>
        <time>1970-01-01T01:36:00.000Z</time>
      </trkpt>
      <trkpt lat="42.735096" lon="-7.898047">
        <ele>819.7</ele>
        <time>1970-01-01T01:36:01.000Z</time>
      </trkpt>
      <trkpt lat="42.73514" lon="-7.898041">
        <ele>817.7</ele>
        <time>1970-01-01T01:36:02.000Z</time>
      </trkpt>
      <trkpt lat="42.735183" lon="-7.898031">
        <ele>816.7</ele>
        <time>1970-01-01T01:36:03.000Z</time>
      </trkpt>
      <trkpt lat="42.735226" lon="-7.898018">
        <ele>814.5</ele>
        <time>1970-01-01T01:36:04.000Z</time>
      </trkpt>
      <trkpt lat="42.735269" lon="-7.898003">
        <ele>813.6</ele>
        <time>1970-01-01T01:36:05.000Z</time>
      </trkpt>
      <trkpt lat="42.735309" lon="-7.897984">
        <ele>812.3</ele>
        <time>1970-01-01T01:36:06.000Z</time>
      </trkpt>
      <trkpt lat="42.735344" lon="-7.897961">
        <ele>811.5</ele>
        <time>1970-01-01T01:36:07.000Z</time>
      </trkpt>
      <trkpt lat="42.735374" lon="-7.897933">
        <ele>810.4</ele>
        <time>1970-01-01T01:36:08.000Z</time>
      </trkpt>
      <trkpt lat="42.735399" lon="-7.897899">
        <ele>809.7</ele>
        <time>1970-01-01T01:36:09.000Z</time>
      </trkpt>
      <trkpt lat="42.735417" lon="-7.89786">
        <ele>809.1</ele>
        <time>1970-01-01T01:36:10.000Z</time>
      </trkpt>
      <trkpt lat="42.735435" lon="-7.89782">
        <ele>809.6</ele>
        <time>1970-01-01T01:36:11.000Z</time>
      </trkpt>
      <trkpt lat="42.735454" lon="-7.897779">
        <ele>809.1</ele>
        <time>1970-01-01T01:36:12.000Z</time>
      </trkpt>
      <trkpt lat="42.735474" lon="-7.897737">
        <ele>809.6</ele>
        <time>1970-01-01T01:36:13.000Z</time>
      </trkpt>
      <trkpt lat="42.735493" lon="-7.897694">
        <ele>809</ele>
        <time>1970-01-01T01:36:14.000Z</time>
      </trkpt>
      <trkpt lat="42.735516" lon="-7.897653">
        <ele>808.4</ele>
        <time>1970-01-01T01:36:15.000Z</time>
      </trkpt>
      <trkpt lat="42.735544" lon="-7.897621">
        <ele>807.8</ele>
        <time>1970-01-01T01:36:16.000Z</time>
      </trkpt>
      <trkpt lat="42.735575" lon="-7.897599">
        <ele>806.7</ele>
        <time>1970-01-01T01:36:17.000Z</time>
      </trkpt>
      <trkpt lat="42.735605" lon="-7.8976">
        <ele>805.8</ele>
        <time>1970-01-01T01:36:18.000Z</time>
      </trkpt>
      <trkpt lat="42.735632" lon="-7.897618">
        <ele>805.8</ele>
        <time>1970-01-01T01:36:19.000Z</time>
      </trkpt>
      <trkpt lat="42.735656" lon="-7.897651">
        <ele>804.3</ele>
        <time>1970-01-01T01:36:20.000Z</time>
      </trkpt>
      <trkpt lat="42.735678" lon="-7.89769">
        <ele>802.9</ele>
        <time>1970-01-01T01:36:21.000Z</time>
      </trkpt>
      <trkpt lat="42.735702" lon="-7.897729">
        <ele>801.4</ele>
        <time>1970-01-01T01:36:22.000Z</time>
      </trkpt>
      <trkpt lat="42.735728" lon="-7.897764">
        <ele>800.7</ele>
        <time>1970-01-01T01:36:23.000Z</time>
      </trkpt>
      <trkpt lat="42.735758" lon="-7.897797">
        <ele>799.2</ele>
        <time>1970-01-01T01:36:24.000Z</time>
      </trkpt>
      <trkpt lat="42.735789" lon="-7.897825">
        <ele>798.2</ele>
        <time>1970-01-01T01:36:25.000Z</time>
      </trkpt>
      <trkpt lat="42.735826" lon="-7.897845">
        <ele>795.8</ele>
        <time>1970-01-01T01:36:26.000Z</time>
      </trkpt>
      <trkpt lat="42.735867" lon="-7.897858">
        <ele>794.9</ele>
        <time>1970-01-01T01:36:27.000Z</time>
      </trkpt>
      <trkpt lat="42.735906" lon="-7.897872">
        <ele>794.2</ele>
        <time>1970-01-01T01:36:28.000Z</time>
      </trkpt>
      <trkpt lat="42.735947" lon="-7.897889">
        <ele>792.9</ele>
        <time>1970-01-01T01:36:29.000Z</time>
      </trkpt>
      <trkpt lat="42.735982" lon="-7.897913">
        <ele>791.6</ele>
        <time>1970-01-01T01:36:30.000Z</time>
      </trkpt>
      <trkpt lat="42.736012" lon="-7.897944">
        <ele>791</ele>
        <time>1970-01-01T01:36:31.000Z</time>
      </trkpt>
      <trkpt lat="42.73604" lon="-7.897977">
        <ele>789.9</ele>
        <time>1970-01-01T01:36:32.000Z</time>
      </trkpt>
      <trkpt lat="42.736067" lon="-7.898013">
        <ele>788.8</ele>
        <time>1970-01-01T01:36:33.000Z</time>
      </trkpt>
      <trkpt lat="42.736097" lon="-7.898053">
        <ele>788.1</ele>
        <time>1970-01-01T01:36:34.000Z</time>
      </trkpt>
      <trkpt lat="42.736125" lon="-7.898088">
        <ele>787</ele>
        <time>1970-01-01T01:36:35.000Z</time>
      </trkpt>
      <trkpt lat="42.736153" lon="-7.898124">
        <ele>785.9</ele>
        <time>1970-01-01T01:36:36.000Z</time>
      </trkpt>
      <trkpt lat="42.736179" lon="-7.898161">
        <ele>784.8</ele>
        <time>1970-01-01T01:36:37.000Z</time>
      </trkpt>
      <trkpt lat="42.736209" lon="-7.898196">
        <ele>783.8</ele>
        <time>1970-01-01T01:36:38.000Z</time>
      </trkpt>
      <trkpt lat="42.736239" lon="-7.898226">
        <ele>782.7</ele>
        <time>1970-01-01T01:36:39.000Z</time>
      </trkpt>
      <trkpt lat="42.736262" lon="-7.898255">
        <ele>782.7</ele>
        <time>1970-01-01T01:36:40.000Z</time>
      </trkpt>
      <trkpt lat="42.736281" lon="-7.898285">
        <ele>781.7</ele>
        <time>1970-01-01T01:36:41.000Z</time>
      </trkpt>
      <trkpt lat="42.736299" lon="-7.898319">
        <ele>780.8</ele>
        <time>1970-01-01T01:36:42.000Z</time>
      </trkpt>
      <trkpt lat="42.736313" lon="-7.898352">
        <ele>780.8</ele>
        <time>1970-01-01T01:36:43.000Z</time>
      </trkpt>
      <trkpt lat="42.736322" lon="-7.898384">
        <ele>780.3</ele>
        <time>1970-01-01T01:36:44.000Z</time>
      </trkpt>
      <trkpt lat="42.736332" lon="-7.898412">
        <ele>779.3</ele>
        <time>1970-01-01T01:36:45.000Z</time>
      </trkpt>
      <trkpt lat="42.736349" lon="-7.898441">
        <ele>778.9</ele>
        <time>1970-01-01T01:36:46.000Z</time>
      </trkpt>
      <trkpt lat="42.736368" lon="-7.898469">
        <ele>778.4</ele>
        <time>1970-01-01T01:36:47.000Z</time>
      </trkpt>
      <trkpt lat="42.736389" lon="-7.898496">
        <ele>778.1</ele>
        <time>1970-01-01T01:36:48.000Z</time>
      </trkpt>
      <trkpt lat="42.736406" lon="-7.89852">
        <ele>777.5</ele>
        <time>1970-01-01T01:36:49.000Z</time>
      </trkpt>
      <trkpt lat="42.736419" lon="-7.898541">
        <ele>777.1</ele>
        <time>1970-01-01T01:36:50.000Z</time>
      </trkpt>
      <trkpt lat="42.736437" lon="-7.898568">
        <ele>776.6</ele>
        <time>1970-01-01T01:36:51.000Z</time>
      </trkpt>
      <trkpt lat="42.73645" lon="-7.898595">
        <ele>776.3</ele>
        <time>1970-01-01T01:36:52.000Z</time>
      </trkpt>
      <trkpt lat="42.736466" lon="-7.898626">
        <ele>775.5</ele>
        <time>1970-01-01T01:36:53.000Z</time>
      </trkpt>
      <trkpt lat="42.736482" lon="-7.898654">
        <ele>775.5</ele>
        <time>1970-01-01T01:36:54.000Z</time>
      </trkpt>
      <trkpt lat="42.73649" lon="-7.898675">
        <ele>774.8</ele>
        <time>1970-01-01T01:36:55.000Z</time>
      </trkpt>
      <trkpt lat="42.736498" lon="-7.898696">
        <ele>774.8</ele>
        <time>1970-01-01T01:36:56.000Z</time>
      </trkpt>
      <trkpt lat="42.736509" lon="-7.898716">
        <ele>774.6</ele>
        <time>1970-01-01T01:36:57.000Z</time>
      </trkpt>
      <trkpt lat="42.736524" lon="-7.898746">
        <ele>774.1</ele>
        <time>1970-01-01T01:36:58.000Z</time>
      </trkpt>
      <trkpt lat="42.736534" lon="-7.898771">
        <ele>774.1</ele>
        <time>1970-01-01T01:36:59.000Z</time>
      </trkpt>
      <trkpt lat="42.736546" lon="-7.898794">
        <ele>774</ele>
        <time>1970-01-01T01:37:00.000Z</time>
      </trkpt>
      <trkpt lat="42.736557" lon="-7.898822">
        <ele>773.5</ele>
        <time>1970-01-01T01:37:01.000Z</time>
      </trkpt>
      <trkpt lat="42.736562" lon="-7.898841">
        <ele>773.4</ele>
        <time>1970-01-01T01:37:02.000Z</time>
      </trkpt>
      <trkpt lat="42.736581" lon="-7.898866">
        <ele>773</ele>
        <time>1970-01-01T01:37:03.000Z</time>
      </trkpt>
      <trkpt lat="42.736593" lon="-7.898895">
        <ele>772.9</ele>
        <time>1970-01-01T01:37:04.000Z</time>
      </trkpt>
      <trkpt lat="42.736614" lon="-7.898934">
        <ele>772.3</ele>
        <time>1970-01-01T01:37:05.000Z</time>
      </trkpt>
      <trkpt lat="42.736641" lon="-7.898972">
        <ele>772.3</ele>
        <time>1970-01-01T01:37:06.000Z</time>
      </trkpt>
      <trkpt lat="42.73668" lon="-7.899013">
        <ele>771.1</ele>
        <time>1970-01-01T01:37:07.000Z</time>
      </trkpt>
      <trkpt lat="42.736704" lon="-7.899045">
        <ele>771</ele>
        <time>1970-01-01T01:37:08.000Z</time>
      </trkpt>
      <trkpt lat="42.736733" lon="-7.899079">
        <ele>770.4</ele>
        <time>1970-01-01T01:37:09.000Z</time>
      </trkpt>
      <trkpt lat="42.736751" lon="-7.899106">
        <ele>769.7</ele>
        <time>1970-01-01T01:37:10.000Z</time>
      </trkpt>
      <trkpt lat="42.73677" lon="-7.899132">
        <ele>769.1</ele>
        <time>1970-01-01T01:37:11.000Z</time>
      </trkpt>
      <trkpt lat="42.736801" lon="-7.899164">
        <ele>768.6</ele>
        <time>1970-01-01T01:37:12.000Z</time>
      </trkpt>
      <trkpt lat="42.736831" lon="-7.899203">
        <ele>768.5</ele>
        <time>1970-01-01T01:37:13.000Z</time>
      </trkpt>
      <trkpt lat="42.736868" lon="-7.899246">
        <ele>767.4</ele>
        <time>1970-01-01T01:37:14.000Z</time>
      </trkpt>
      <trkpt lat="42.736908" lon="-7.899284">
        <ele>766.8</ele>
        <time>1970-01-01T01:37:15.000Z</time>
      </trkpt>
      <trkpt lat="42.736944" lon="-7.899307">
        <ele>766.3</ele>
        <time>1970-01-01T01:37:16.000Z</time>
      </trkpt>
      <trkpt lat="42.736987" lon="-7.899333">
        <ele>765.8</ele>
        <time>1970-01-01T01:37:17.000Z</time>
      </trkpt>
      <trkpt lat="42.737052" lon="-7.899366">
        <ele>764.9</ele>
        <time>1970-01-01T01:37:18.000Z</time>
      </trkpt>
      <trkpt lat="42.737118" lon="-7.899395">
        <ele>763.9</ele>
        <time>1970-01-01T01:37:19.000Z</time>
      </trkpt>
      <trkpt lat="42.737208" lon="-7.899427">
        <ele>763.2</ele>
        <time>1970-01-01T01:37:20.000Z</time>
      </trkpt>
      <trkpt lat="42.737281" lon="-7.899441">
        <ele>762.2</ele>
        <time>1970-01-01T01:37:21.000Z</time>
      </trkpt>
      <trkpt lat="42.737346" lon="-7.899445">
        <ele>761.6</ele>
        <time>1970-01-01T01:37:22.000Z</time>
      </trkpt>
      <trkpt lat="42.737455" lon="-7.899483">
        <ele>760.6</ele>
        <time>1970-01-01T01:37:23.000Z</time>
      </trkpt>
      <trkpt lat="42.737561" lon="-7.899511">
        <ele>759.3</ele>
        <time>1970-01-01T01:37:24.000Z</time>
      </trkpt>
      <trkpt lat="42.737682" lon="-7.899545">
        <ele>758.5</ele>
        <time>1970-01-01T01:37:25.000Z</time>
      </trkpt>
      <trkpt lat="42.737784" lon="-7.899571">
        <ele>757.6</ele>
        <time>1970-01-01T01:37:26.000Z</time>
      </trkpt>
      <trkpt lat="42.737858" lon="-7.899583">
        <ele>757.1</ele>
        <time>1970-01-01T01:37:27.000Z</time>
      </trkpt>
      <trkpt lat="42.737935" lon="-7.899594">
        <ele>756.7</ele>
        <time>1970-01-01T01:37:28.000Z</time>
      </trkpt>
      <trkpt lat="42.737999" lon="-7.899597">
        <ele>756</ele>
        <time>1970-01-01T01:37:29.000Z</time>
      </trkpt>
      <trkpt lat="42.738067" lon="-7.899596">
        <ele>755.3</ele>
        <time>1970-01-01T01:37:30.000Z</time>
      </trkpt>
      <trkpt lat="42.738124" lon="-7.899594">
        <ele>754.9</ele>
        <time>1970-01-01T01:37:31.000Z</time>
      </trkpt>
      <trkpt lat="42.738179" lon="-7.899586">
        <ele>754.2</ele>
        <time>1970-01-01T01:37:32.000Z</time>
      </trkpt>
      <trkpt lat="42.738237" lon="-7.899578">
        <ele>753.4</ele>
        <time>1970-01-01T01:37:33.000Z</time>
      </trkpt>
      <trkpt lat="42.738289" lon="-7.899569">
        <ele>752.3</ele>
        <time>1970-01-01T01:37:34.000Z</time>
      </trkpt>
      <trkpt lat="42.738338" lon="-7.899559">
        <ele>751.6</ele>
        <time>1970-01-01T01:37:35.000Z</time>
      </trkpt>
      <trkpt lat="42.738389" lon="-7.899551">
        <ele>750.6</ele>
        <time>1970-01-01T01:37:36.000Z</time>
      </trkpt>
      <trkpt lat="42.738438" lon="-7.899537">
        <ele>750.1</ele>
        <time>1970-01-01T01:37:37.000Z</time>
      </trkpt>
      <trkpt lat="42.738491" lon="-7.899522">
        <ele>748.9</ele>
        <time>1970-01-01T01:37:38.000Z</time>
      </trkpt>
      <trkpt lat="42.738547" lon="-7.899501">
        <ele>747.8</ele>
        <time>1970-01-01T01:37:39.000Z</time>
      </trkpt>
      <trkpt lat="42.738602" lon="-7.899478">
        <ele>746.5</ele>
        <time>1970-01-01T01:37:40.000Z</time>
      </trkpt>
      <trkpt lat="42.738657" lon="-7.899452">
        <ele>745.9</ele>
        <time>1970-01-01T01:37:41.000Z</time>
      </trkpt>
      <trkpt lat="42.738711" lon="-7.899427">
        <ele>744.9</ele>
        <time>1970-01-01T01:37:42.000Z</time>
      </trkpt>
      <trkpt lat="42.738763" lon="-7.899405">
        <ele>743.7</ele>
        <time>1970-01-01T01:37:43.000Z</time>
      </trkpt>
      <trkpt lat="42.738806" lon="-7.899377">
        <ele>743.3</ele>
        <time>1970-01-01T01:37:44.000Z</time>
      </trkpt>
      <trkpt lat="42.738849" lon="-7.899345">
        <ele>742.7</ele>
        <time>1970-01-01T01:37:45.000Z</time>
      </trkpt>
      <trkpt lat="42.738894" lon="-7.899317">
        <ele>741.6</ele>
        <time>1970-01-01T01:37:46.000Z</time>
      </trkpt>
      <trkpt lat="42.738941" lon="-7.899288">
        <ele>741.1</ele>
        <time>1970-01-01T01:37:47.000Z</time>
      </trkpt>
      <trkpt lat="42.738983" lon="-7.899262">
        <ele>739.4</ele>
        <time>1970-01-01T01:37:48.000Z</time>
      </trkpt>
      <trkpt lat="42.739021" lon="-7.899233">
        <ele>738.9</ele>
        <time>1970-01-01T01:37:49.000Z</time>
      </trkpt>
      <trkpt lat="42.739063" lon="-7.899203">
        <ele>738.4</ele>
        <time>1970-01-01T01:37:50.000Z</time>
      </trkpt>
      <trkpt lat="42.739105" lon="-7.899177">
        <ele>737</ele>
        <time>1970-01-01T01:37:51.000Z</time>
      </trkpt>
      <trkpt lat="42.73915" lon="-7.899155">
        <ele>736.6</ele>
        <time>1970-01-01T01:37:52.000Z</time>
      </trkpt>
      <trkpt lat="42.739197" lon="-7.899136">
        <ele>735</ele>
        <time>1970-01-01T01:37:53.000Z</time>
      </trkpt>
      <trkpt lat="42.739243" lon="-7.899115">
        <ele>734.5</ele>
        <time>1970-01-01T01:37:54.000Z</time>
      </trkpt>
      <trkpt lat="42.739286" lon="-7.899093">
        <ele>733.9</ele>
        <time>1970-01-01T01:37:55.000Z</time>
      </trkpt>
      <trkpt lat="42.739325" lon="-7.899073">
        <ele>733</ele>
        <time>1970-01-01T01:37:56.000Z</time>
      </trkpt>
      <trkpt lat="42.739365" lon="-7.899048">
        <ele>732.4</ele>
        <time>1970-01-01T01:37:57.000Z</time>
      </trkpt>
      <trkpt lat="42.739402" lon="-7.899015">
        <ele>732.1</ele>
        <time>1970-01-01T01:37:58.000Z</time>
      </trkpt>
      <trkpt lat="42.739441" lon="-7.898978">
        <ele>731.7</ele>
        <time>1970-01-01T01:37:59.000Z</time>
      </trkpt>
      <trkpt lat="42.739481" lon="-7.898941">
        <ele>730.8</ele>
        <time>1970-01-01T01:38:00.000Z</time>
      </trkpt>
      <trkpt lat="42.739511" lon="-7.898908">
        <ele>731</ele>
        <time>1970-01-01T01:38:01.000Z</time>
      </trkpt>
      <trkpt lat="42.739538" lon="-7.898879">
        <ele>730.4</ele>
        <time>1970-01-01T01:38:02.000Z</time>
      </trkpt>
      <trkpt lat="42.739564" lon="-7.898854">
        <ele>730.2</ele>
        <time>1970-01-01T01:38:03.000Z</time>
      </trkpt>
      <trkpt lat="42.739582" lon="-7.898838">
        <ele>729.8</ele>
        <time>1970-01-01T01:38:04.000Z</time>
      </trkpt>
      <trkpt lat="42.739605" lon="-7.898826">
        <ele>730</ele>
        <time>1970-01-01T01:38:05.000Z</time>
      </trkpt>
      <trkpt lat="42.739631" lon="-7.898821">
        <ele>729.6</ele>
        <time>1970-01-01T01:38:06.000Z</time>
      </trkpt>
      <trkpt lat="42.739653" lon="-7.898825">
        <ele>729.2</ele>
        <time>1970-01-01T01:38:07.000Z</time>
      </trkpt>
      <trkpt lat="42.739671" lon="-7.898833">
        <ele>728.5</ele>
        <time>1970-01-01T01:38:08.000Z</time>
      </trkpt>
      <trkpt lat="42.739705" lon="-7.898858">
        <ele>728</ele>
        <time>1970-01-01T01:38:09.000Z</time>
      </trkpt>
      <trkpt lat="42.739729" lon="-7.898888">
        <ele>727.8</ele>
        <time>1970-01-01T01:38:10.000Z</time>
      </trkpt>
      <trkpt lat="42.739748" lon="-7.898916">
        <ele>727.1</ele>
        <time>1970-01-01T01:38:11.000Z</time>
      </trkpt>
      <trkpt lat="42.739768" lon="-7.898947">
        <ele>726.7</ele>
        <time>1970-01-01T01:38:12.000Z</time>
      </trkpt>
      <trkpt lat="42.739795" lon="-7.898987">
        <ele>726.1</ele>
        <time>1970-01-01T01:38:13.000Z</time>
      </trkpt>
      <trkpt lat="42.739817" lon="-7.899022">
        <ele>725.9</ele>
        <time>1970-01-01T01:38:14.000Z</time>
      </trkpt>
      <trkpt lat="42.739838" lon="-7.899056">
        <ele>725.3</ele>
        <time>1970-01-01T01:38:15.000Z</time>
      </trkpt>
      <trkpt lat="42.739859" lon="-7.899089">
        <ele>724.7</ele>
        <time>1970-01-01T01:38:16.000Z</time>
      </trkpt>
      <trkpt lat="42.739882" lon="-7.899119">
        <ele>724.7</ele>
        <time>1970-01-01T01:38:17.000Z</time>
      </trkpt>
      <trkpt lat="42.739903" lon="-7.899147">
        <ele>724.2</ele>
        <time>1970-01-01T01:38:18.000Z</time>
      </trkpt>
      <trkpt lat="42.739921" lon="-7.899176">
        <ele>723.5</ele>
        <time>1970-01-01T01:38:19.000Z</time>
      </trkpt>
      <trkpt lat="42.739939" lon="-7.899212">
        <ele>723.5</ele>
        <time>1970-01-01T01:38:20.000Z</time>
      </trkpt>
      <trkpt lat="42.739959" lon="-7.899254">
        <ele>723.1</ele>
        <time>1970-01-01T01:38:21.000Z</time>
      </trkpt>
      <trkpt lat="42.73997" lon="-7.899292">
        <ele>722.9</ele>
        <time>1970-01-01T01:38:22.000Z</time>
      </trkpt>
      <trkpt lat="42.739983" lon="-7.899326">
        <ele>722.7</ele>
        <time>1970-01-01T01:38:23.000Z</time>
      </trkpt>
      <trkpt lat="42.739998" lon="-7.899353">
        <ele>722.3</ele>
        <time>1970-01-01T01:38:24.000Z</time>
      </trkpt>
      <trkpt lat="42.740016" lon="-7.899388">
        <ele>722</ele>
        <time>1970-01-01T01:38:25.000Z</time>
      </trkpt>
      <trkpt lat="42.740036" lon="-7.899409">
        <ele>722</ele>
        <time>1970-01-01T01:38:26.000Z</time>
      </trkpt>
      <trkpt lat="42.740058" lon="-7.899425">
        <ele>721.8</ele>
        <time>1970-01-01T01:38:27.000Z</time>
      </trkpt>
      <trkpt lat="42.740076" lon="-7.899434">
        <ele>721.6</ele>
        <time>1970-01-01T01:38:28.000Z</time>
      </trkpt>
      <trkpt lat="42.740098" lon="-7.899439">
        <ele>721.5</ele>
        <time>1970-01-01T01:38:29.000Z</time>
      </trkpt>
      <trkpt lat="42.740117" lon="-7.899441">
        <ele>721.3</ele>
        <time>1970-01-01T01:38:30.000Z</time>
      </trkpt>
      <trkpt lat="42.740136" lon="-7.899439">
        <ele>721.3</ele>
        <time>1970-01-01T01:38:31.000Z</time>
      </trkpt>
      <trkpt lat="42.740161" lon="-7.899427">
        <ele>721.2</ele>
        <time>1970-01-01T01:38:32.000Z</time>
      </trkpt>
      <trkpt lat="42.740198" lon="-7.899424">
        <ele>721.1</ele>
        <time>1970-01-01T01:38:33.000Z</time>
      </trkpt>
      <trkpt lat="42.740234" lon="-7.899423">
        <ele>720.9</ele>
        <time>1970-01-01T01:38:34.000Z</time>
      </trkpt>
      <trkpt lat="42.740262" lon="-7.899414">
        <ele>720.8</ele>
        <time>1970-01-01T01:38:35.000Z</time>
      </trkpt>
      <trkpt lat="42.74029" lon="-7.8994">
        <ele>720.6</ele>
        <time>1970-01-01T01:38:36.000Z</time>
      </trkpt>
      <trkpt lat="42.740321" lon="-7.899384">
        <ele>720.6</ele>
        <time>1970-01-01T01:38:37.000Z</time>
      </trkpt>
      <trkpt lat="42.740352" lon="-7.899367">
        <ele>720.5</ele>
        <time>1970-01-01T01:38:38.000Z</time>
      </trkpt>
      <trkpt lat="42.740396" lon="-7.899354">
        <ele>720.4</ele>
        <time>1970-01-01T01:38:39.000Z</time>
      </trkpt>
      <trkpt lat="42.74044" lon="-7.899343">
        <ele>720.4</ele>
        <time>1970-01-01T01:38:40.000Z</time>
      </trkpt>
      <trkpt lat="42.740483" lon="-7.899333">
        <ele>720.6</ele>
        <time>1970-01-01T01:38:41.000Z</time>
      </trkpt>
      <trkpt lat="42.740524" lon="-7.899327">
        <ele>720.6</ele>
        <time>1970-01-01T01:38:42.000Z</time>
      </trkpt>
      <trkpt lat="42.740559" lon="-7.899317">
        <ele>720.6</ele>
        <time>1970-01-01T01:38:43.000Z</time>
      </trkpt>
      <trkpt lat="42.740601" lon="-7.899307">
        <ele>720.6</ele>
        <time>1970-01-01T01:38:44.000Z</time>
      </trkpt>
      <trkpt lat="42.740649" lon="-7.899298">
        <ele>720.8</ele>
        <time>1970-01-01T01:38:45.000Z</time>
      </trkpt>
      <trkpt lat="42.740703" lon="-7.89929">
        <ele>720.7</ele>
        <time>1970-01-01T01:38:46.000Z</time>
      </trkpt>
      <trkpt lat="42.740772" lon="-7.89929">
        <ele>720.5</ele>
        <time>1970-01-01T01:38:47.000Z</time>
      </trkpt>
      <trkpt lat="42.740808" lon="-7.899269">
        <ele>720.4</ele>
        <time>1970-01-01T01:38:48.000Z</time>
      </trkpt>
      <trkpt lat="42.740843" lon="-7.899242">
        <ele>720.4</ele>
        <time>1970-01-01T01:38:49.000Z</time>
      </trkpt>
      <trkpt lat="42.740873" lon="-7.899211">
        <ele>720.4</ele>
        <time>1970-01-01T01:38:50.000Z</time>
      </trkpt>
      <trkpt lat="42.740906" lon="-7.899182">
        <ele>720.3</ele>
        <time>1970-01-01T01:38:51.000Z</time>
      </trkpt>
      <trkpt lat="42.740948" lon="-7.899163">
        <ele>720.4</ele>
        <time>1970-01-01T01:38:52.000Z</time>
      </trkpt>
      <trkpt lat="42.740992" lon="-7.899157">
        <ele>720.4</ele>
        <time>1970-01-01T01:38:53.000Z</time>
      </trkpt>
      <trkpt lat="42.741018" lon="-7.899144">
        <ele>720.3</ele>
        <time>1970-01-01T01:38:54.000Z</time>
      </trkpt>
      <trkpt lat="42.741042" lon="-7.899128">
        <ele>720.2</ele>
        <time>1970-01-01T01:38:55.000Z</time>
      </trkpt>
      <trkpt lat="42.741084" lon="-7.899122">
        <ele>720.3</ele>
        <time>1970-01-01T01:38:56.000Z</time>
      </trkpt>
      <trkpt lat="42.741122" lon="-7.899115">
        <ele>720.1</ele>
        <time>1970-01-01T01:38:57.000Z</time>
      </trkpt>
      <trkpt lat="42.741154" lon="-7.899105">
        <ele>720</ele>
        <time>1970-01-01T01:38:58.000Z</time>
      </trkpt>
      <trkpt lat="42.74118" lon="-7.899095">
        <ele>720</ele>
        <time>1970-01-01T01:38:59.000Z</time>
      </trkpt>
      <trkpt lat="42.741202" lon="-7.899093">
        <ele>719.9</ele>
        <time>1970-01-01T01:39:00.000Z</time>
      </trkpt>
      <trkpt lat="42.741229" lon="-7.8991">
        <ele>719.8</ele>
        <time>1970-01-01T01:39:01.000Z</time>
      </trkpt>
      <trkpt lat="42.741243" lon="-7.899102">
        <ele>719.8</ele>
        <time>1970-01-01T01:39:02.000Z</time>
      </trkpt>
      <trkpt lat="42.741247" lon="-7.899108">
        <ele>719.6</ele>
        <time>1970-01-01T01:39:03.000Z</time>
      </trkpt>
      <trkpt lat="42.74127" lon="-7.899123">
        <ele>719.6</ele>
        <time>1970-01-01T01:39:04.000Z</time>
      </trkpt>
      <trkpt lat="42.741298" lon="-7.899142">
        <ele>719.2</ele>
        <time>1970-01-01T01:39:05.000Z</time>
      </trkpt>
      <trkpt lat="42.741342" lon="-7.89916">
        <ele>718.6</ele>
        <time>1970-01-01T01:39:06.000Z</time>
      </trkpt>
      <trkpt lat="42.741373" lon="-7.899163">
        <ele>718.3</ele>
        <time>1970-01-01T01:39:07.000Z</time>
      </trkpt>
      <trkpt lat="42.741407" lon="-7.899166">
        <ele>717.9</ele>
        <time>1970-01-01T01:39:08.000Z</time>
      </trkpt>
      <trkpt lat="42.741459" lon="-7.899167">
        <ele>717.4</ele>
        <time>1970-01-01T01:39:09.000Z</time>
      </trkpt>
      <trkpt lat="42.741509" lon="-7.899156">
        <ele>716.5</ele>
        <time>1970-01-01T01:39:10.000Z</time>
      </trkpt>
      <trkpt lat="42.741555" lon="-7.899141">
        <ele>716.1</ele>
        <time>1970-01-01T01:39:11.000Z</time>
      </trkpt>
      <trkpt lat="42.741578" lon="-7.899108">
        <ele>715.7</ele>
        <time>1970-01-01T01:39:12.000Z</time>
      </trkpt>
      <trkpt lat="42.741609" lon="-7.899077">
        <ele>715.4</ele>
        <time>1970-01-01T01:39:13.000Z</time>
      </trkpt>
      <trkpt lat="42.741665" lon="-7.899046">
        <ele>714.4</ele>
        <time>1970-01-01T01:39:14.000Z</time>
      </trkpt>
      <trkpt lat="42.741707" lon="-7.899003">
        <ele>714.1</ele>
        <time>1970-01-01T01:39:15.000Z</time>
      </trkpt>
      <trkpt lat="42.741731" lon="-7.898945">
        <ele>714</ele>
        <time>1970-01-01T01:39:16.000Z</time>
      </trkpt>
      <trkpt lat="42.74175" lon="-7.898879">
        <ele>713.8</ele>
        <time>1970-01-01T01:39:17.000Z</time>
      </trkpt>
      <trkpt lat="42.741772" lon="-7.898806">
        <ele>714.4</ele>
        <time>1970-01-01T01:39:18.000Z</time>
      </trkpt>
      <trkpt lat="42.741793" lon="-7.898754">
        <ele>714.3</ele>
        <time>1970-01-01T01:39:19.000Z</time>
      </trkpt>
      <trkpt lat="42.741814" lon="-7.898702">
        <ele>714.4</ele>
        <time>1970-01-01T01:39:20.000Z</time>
      </trkpt>
      <trkpt lat="42.741838" lon="-7.898658">
        <ele>714.7</ele>
        <time>1970-01-01T01:39:21.000Z</time>
      </trkpt>
      <trkpt lat="42.741865" lon="-7.898618">
        <ele>714.7</ele>
        <time>1970-01-01T01:39:22.000Z</time>
      </trkpt>
      <trkpt lat="42.741884" lon="-7.898572">
        <ele>714.8</ele>
        <time>1970-01-01T01:39:23.000Z</time>
      </trkpt>
      <trkpt lat="42.741918" lon="-7.898532">
        <ele>714.7</ele>
        <time>1970-01-01T01:39:24.000Z</time>
      </trkpt>
      <trkpt lat="42.741956" lon="-7.898492">
        <ele>714.6</ele>
        <time>1970-01-01T01:39:25.000Z</time>
      </trkpt>
      <trkpt lat="42.742001" lon="-7.898461">
        <ele>714.4</ele>
        <time>1970-01-01T01:39:26.000Z</time>
      </trkpt>
      <trkpt lat="42.742048" lon="-7.898416">
        <ele>713.9</ele>
        <time>1970-01-01T01:39:27.000Z</time>
      </trkpt>
      <trkpt lat="42.742093" lon="-7.898371">
        <ele>713.6</ele>
        <time>1970-01-01T01:39:28.000Z</time>
      </trkpt>
      <trkpt lat="42.742134" lon="-7.898329">
        <ele>712.9</ele>
        <time>1970-01-01T01:39:29.000Z</time>
      </trkpt>
      <trkpt lat="42.74219" lon="-7.898288">
        <ele>712.5</ele>
        <time>1970-01-01T01:39:30.000Z</time>
      </trkpt>
      <trkpt lat="42.74225" lon="-7.898255">
        <ele>711.6</ele>
        <time>1970-01-01T01:39:31.000Z</time>
      </trkpt>
      <trkpt lat="42.742302" lon="-7.898222">
        <ele>710.7</ele>
        <time>1970-01-01T01:39:32.000Z</time>
      </trkpt>
      <trkpt lat="42.742351" lon="-7.89819">
        <ele>710.1</ele>
        <time>1970-01-01T01:39:33.000Z</time>
      </trkpt>
      <trkpt lat="42.742401" lon="-7.898157">
        <ele>709.6</ele>
        <time>1970-01-01T01:39:34.000Z</time>
      </trkpt>
      <trkpt lat="42.74244" lon="-7.898127">
        <ele>709.1</ele>
        <time>1970-01-01T01:39:35.000Z</time>
      </trkpt>
      <trkpt lat="42.742491" lon="-7.898098">
        <ele>708.4</ele>
        <time>1970-01-01T01:39:36.000Z</time>
      </trkpt>
      <trkpt lat="42.742522" lon="-7.898072">
        <ele>707.9</ele>
        <time>1970-01-01T01:39:37.000Z</time>
      </trkpt>
      <trkpt lat="42.742545" lon="-7.898043">
        <ele>707.4</ele>
        <time>1970-01-01T01:39:38.000Z</time>
      </trkpt>
      <trkpt lat="42.742581" lon="-7.898005">
        <ele>706.9</ele>
        <time>1970-01-01T01:39:39.000Z</time>
      </trkpt>
      <trkpt lat="42.742615" lon="-7.897958">
        <ele>706.5</ele>
        <time>1970-01-01T01:39:40.000Z</time>
      </trkpt>
      <trkpt lat="42.742657" lon="-7.897913">
        <ele>706</ele>
        <time>1970-01-01T01:39:41.000Z</time>
      </trkpt>
      <trkpt lat="42.74269" lon="-7.897865">
        <ele>705.5</ele>
        <time>1970-01-01T01:39:42.000Z</time>
      </trkpt>
      <trkpt lat="42.742755" lon="-7.897821">
        <ele>704.5</ele>
        <time>1970-01-01T01:39:43.000Z</time>
      </trkpt>
      <trkpt lat="42.742793" lon="-7.897779">
        <ele>703.4</ele>
        <time>1970-01-01T01:39:44.000Z</time>
      </trkpt>
      <trkpt lat="42.742822" lon="-7.897727">
        <ele>702.7</ele>
        <time>1970-01-01T01:39:45.000Z</time>
      </trkpt>
      <trkpt lat="42.742857" lon="-7.897683">
        <ele>702.1</ele>
        <time>1970-01-01T01:39:46.000Z</time>
      </trkpt>
      <trkpt lat="42.742892" lon="-7.897633">
        <ele>701.6</ele>
        <time>1970-01-01T01:39:47.000Z</time>
      </trkpt>
      <trkpt lat="42.742921" lon="-7.897579">
        <ele>700.9</ele>
        <time>1970-01-01T01:39:48.000Z</time>
      </trkpt>
      <trkpt lat="42.742962" lon="-7.897532">
        <ele>700.4</ele>
        <time>1970-01-01T01:39:49.000Z</time>
      </trkpt>
      <trkpt lat="42.742996" lon="-7.897485">
        <ele>700</ele>
        <time>1970-01-01T01:39:50.000Z</time>
      </trkpt>
      <trkpt lat="42.743016" lon="-7.897438">
        <ele>699.5</ele>
        <time>1970-01-01T01:39:51.000Z</time>
      </trkpt>
      <trkpt lat="42.74304" lon="-7.89737">
        <ele>699.4</ele>
        <time>1970-01-01T01:39:52.000Z</time>
      </trkpt>
      <trkpt lat="42.743066" lon="-7.897306">
        <ele>699</ele>
        <time>1970-01-01T01:39:53.000Z</time>
      </trkpt>
      <trkpt lat="42.743093" lon="-7.89724">
        <ele>698.6</ele>
        <time>1970-01-01T01:39:54.000Z</time>
      </trkpt>
      <trkpt lat="42.74312" lon="-7.897177">
        <ele>698.1</ele>
        <time>1970-01-01T01:39:55.000Z</time>
      </trkpt>
      <trkpt lat="42.743141" lon="-7.897126">
        <ele>697.7</ele>
        <time>1970-01-01T01:39:56.000Z</time>
      </trkpt>
      <trkpt lat="42.743167" lon="-7.897083">
        <ele>697.7</ele>
        <time>1970-01-01T01:39:57.000Z</time>
      </trkpt>
      <trkpt lat="42.743201" lon="-7.897038">
        <ele>697.1</ele>
        <time>1970-01-01T01:39:58.000Z</time>
      </trkpt>
      <trkpt lat="42.743249" lon="-7.897009">
        <ele>696.8</ele>
        <time>1970-01-01T01:39:59.000Z</time>
      </trkpt>
      <trkpt lat="42.743296" lon="-7.896981">
        <ele>696.1</ele>
        <time>1970-01-01T01:40:00.000Z</time>
      </trkpt>
      <trkpt lat="42.743332" lon="-7.896948">
        <ele>695.7</ele>
        <time>1970-01-01T01:40:01.000Z</time>
      </trkpt>
      <trkpt lat="42.743382" lon="-7.896917">
        <ele>695.3</ele>
        <time>1970-01-01T01:40:02.000Z</time>
      </trkpt>
      <trkpt lat="42.743431" lon="-7.896889">
        <ele>694.4</ele>
        <time>1970-01-01T01:40:03.000Z</time>
      </trkpt>
      <trkpt lat="42.74348" lon="-7.896858">
        <ele>694</ele>
        <time>1970-01-01T01:40:04.000Z</time>
      </trkpt>
      <trkpt lat="42.74353" lon="-7.896824">
        <ele>693.2</ele>
        <time>1970-01-01T01:40:05.000Z</time>
      </trkpt>
      <trkpt lat="42.743574" lon="-7.896774">
        <ele>692.7</ele>
        <time>1970-01-01T01:40:06.000Z</time>
      </trkpt>
      <trkpt lat="42.743617" lon="-7.896727">
        <ele>691.9</ele>
        <time>1970-01-01T01:40:07.000Z</time>
      </trkpt>
      <trkpt lat="42.743658" lon="-7.896696">
        <ele>691.5</ele>
        <time>1970-01-01T01:40:08.000Z</time>
      </trkpt>
      <trkpt lat="42.743688" lon="-7.896663">
        <ele>691.1</ele>
        <time>1970-01-01T01:40:09.000Z</time>
      </trkpt>
      <trkpt lat="42.743725" lon="-7.896646">
        <ele>690.8</ele>
        <time>1970-01-01T01:40:10.000Z</time>
      </trkpt>
      <trkpt lat="42.743756" lon="-7.896625">
        <ele>690.4</ele>
        <time>1970-01-01T01:40:11.000Z</time>
      </trkpt>
      <trkpt lat="42.743791" lon="-7.896602">
        <ele>690</ele>
        <time>1970-01-01T01:40:12.000Z</time>
      </trkpt>
      <trkpt lat="42.743812" lon="-7.896572">
        <ele>689.6</ele>
        <time>1970-01-01T01:40:13.000Z</time>
      </trkpt>
      <trkpt lat="42.743838" lon="-7.896555">
        <ele>689.1</ele>
        <time>1970-01-01T01:40:14.000Z</time>
      </trkpt>
      <trkpt lat="42.743868" lon="-7.896543">
        <ele>688.6</ele>
        <time>1970-01-01T01:40:15.000Z</time>
      </trkpt>
      <trkpt lat="42.743882" lon="-7.896534">
        <ele>688.6</ele>
        <time>1970-01-01T01:40:16.000Z</time>
      </trkpt>
      <trkpt lat="42.743919" lon="-7.89654">
        <ele>688.1</ele>
        <time>1970-01-01T01:40:17.000Z</time>
      </trkpt>
      <trkpt lat="42.743943" lon="-7.896541">
        <ele>687.6</ele>
        <time>1970-01-01T01:40:18.000Z</time>
      </trkpt>
      <trkpt lat="42.743953" lon="-7.896546">
        <ele>687.6</ele>
        <time>1970-01-01T01:40:19.000Z</time>
      </trkpt>
      <trkpt lat="42.74397" lon="-7.896552">
        <ele>687.1</ele>
        <time>1970-01-01T01:40:20.000Z</time>
      </trkpt>
      <trkpt lat="42.744002" lon="-7.896559">
        <ele>686.8</ele>
        <time>1970-01-01T01:40:21.000Z</time>
      </trkpt>
      <trkpt lat="42.744025" lon="-7.896579">
        <ele>686.3</ele>
        <time>1970-01-01T01:40:22.000Z</time>
      </trkpt>
      <trkpt lat="42.744039" lon="-7.89661">
        <ele>686.4</ele>
        <time>1970-01-01T01:40:23.000Z</time>
      </trkpt>
      <trkpt lat="42.744064" lon="-7.89664">
        <ele>686</ele>
        <time>1970-01-01T01:40:24.000Z</time>
      </trkpt>
      <trkpt lat="42.744092" lon="-7.896666">
        <ele>685.6</ele>
        <time>1970-01-01T01:40:25.000Z</time>
      </trkpt>
      <trkpt lat="42.744115" lon="-7.896696">
        <ele>685.2</ele>
        <time>1970-01-01T01:40:26.000Z</time>
      </trkpt>
      <trkpt lat="42.744147" lon="-7.896731">
        <ele>684.7</ele>
        <time>1970-01-01T01:40:27.000Z</time>
      </trkpt>
      <trkpt lat="42.74417" lon="-7.896769">
        <ele>684.7</ele>
        <time>1970-01-01T01:40:28.000Z</time>
      </trkpt>
      <trkpt lat="42.744202" lon="-7.896801">
        <ele>684.3</ele>
        <time>1970-01-01T01:40:29.000Z</time>
      </trkpt>
      <trkpt lat="42.744229" lon="-7.896827">
        <ele>683.9</ele>
        <time>1970-01-01T01:40:30.000Z</time>
      </trkpt>
      <trkpt lat="42.744264" lon="-7.89686">
        <ele>683.5</ele>
        <time>1970-01-01T01:40:31.000Z</time>
      </trkpt>
      <trkpt lat="42.744302" lon="-7.896887">
        <ele>682.9</ele>
        <time>1970-01-01T01:40:32.000Z</time>
      </trkpt>
      <trkpt lat="42.744345" lon="-7.896919">
        <ele>682.6</ele>
        <time>1970-01-01T01:40:33.000Z</time>
      </trkpt>
      <trkpt lat="42.744381" lon="-7.896941">
        <ele>682.3</ele>
        <time>1970-01-01T01:40:34.000Z</time>
      </trkpt>
      <trkpt lat="42.744419" lon="-7.896966">
        <ele>682.1</ele>
        <time>1970-01-01T01:40:35.000Z</time>
      </trkpt>
      <trkpt lat="42.744456" lon="-7.896989">
        <ele>681.8</ele>
        <time>1970-01-01T01:40:36.000Z</time>
      </trkpt>
      <trkpt lat="42.744484" lon="-7.897021">
        <ele>681.7</ele>
        <time>1970-01-01T01:40:37.000Z</time>
      </trkpt>
      <trkpt lat="42.744523" lon="-7.897054">
        <ele>681.3</ele>
        <time>1970-01-01T01:40:38.000Z</time>
      </trkpt>
      <trkpt lat="42.744551" lon="-7.897085">
        <ele>681.3</ele>
        <time>1970-01-01T01:40:39.000Z</time>
      </trkpt>
      <trkpt lat="42.744582" lon="-7.89711">
        <ele>681.2</ele>
        <time>1970-01-01T01:40:40.000Z</time>
      </trkpt>
      <trkpt lat="42.744625" lon="-7.897142">
        <ele>681</ele>
        <time>1970-01-01T01:40:41.000Z</time>
      </trkpt>
      <trkpt lat="42.744651" lon="-7.897177">
        <ele>680.9</ele>
        <time>1970-01-01T01:40:42.000Z</time>
      </trkpt>
      <trkpt lat="42.744686" lon="-7.897205">
        <ele>680.7</ele>
        <time>1970-01-01T01:40:43.000Z</time>
      </trkpt>
      <trkpt lat="42.744713" lon="-7.89724">
        <ele>680.5</ele>
        <time>1970-01-01T01:40:44.000Z</time>
      </trkpt>
      <trkpt lat="42.744747" lon="-7.897265">
        <ele>680.2</ele>
        <time>1970-01-01T01:40:45.000Z</time>
      </trkpt>
      <trkpt lat="42.744778" lon="-7.897281">
        <ele>680</ele>
        <time>1970-01-01T01:40:46.000Z</time>
      </trkpt>
      <trkpt lat="42.744823" lon="-7.897298">
        <ele>679.7</ele>
        <time>1970-01-01T01:40:47.000Z</time>
      </trkpt>
      <trkpt lat="42.744859" lon="-7.897318">
        <ele>679.5</ele>
        <time>1970-01-01T01:40:48.000Z</time>
      </trkpt>
      <trkpt lat="42.744926" lon="-7.897341">
        <ele>678.9</ele>
        <time>1970-01-01T01:40:49.000Z</time>
      </trkpt>
      <trkpt lat="42.74497" lon="-7.897364">
        <ele>678.2</ele>
        <time>1970-01-01T01:40:50.000Z</time>
      </trkpt>
      <trkpt lat="42.745009" lon="-7.897386">
        <ele>677.9</ele>
        <time>1970-01-01T01:40:51.000Z</time>
      </trkpt>
      <trkpt lat="42.745057" lon="-7.897411">
        <ele>677.6</ele>
        <time>1970-01-01T01:40:52.000Z</time>
      </trkpt>
      <trkpt lat="42.745111" lon="-7.897451">
        <ele>676.8</ele>
        <time>1970-01-01T01:40:53.000Z</time>
      </trkpt>
      <trkpt lat="42.745158" lon="-7.897483">
        <ele>676.2</ele>
        <time>1970-01-01T01:40:54.000Z</time>
      </trkpt>
      <trkpt lat="42.745211" lon="-7.897507">
        <ele>675.9</ele>
        <time>1970-01-01T01:40:55.000Z</time>
      </trkpt>
      <trkpt lat="42.745259" lon="-7.897536">
        <ele>674.9</ele>
        <time>1970-01-01T01:40:56.000Z</time>
      </trkpt>
      <trkpt lat="42.745312" lon="-7.897558">
        <ele>674</ele>
        <time>1970-01-01T01:40:57.000Z</time>
      </trkpt>
      <trkpt lat="42.745372" lon="-7.897588">
        <ele>673.6</ele>
        <time>1970-01-01T01:40:58.000Z</time>
      </trkpt>
      <trkpt lat="42.745445" lon="-7.89762">
        <ele>672.4</ele>
        <time>1970-01-01T01:40:59.000Z</time>
      </trkpt>
      <trkpt lat="42.745508" lon="-7.897634">
        <ele>671.7</ele>
        <time>1970-01-01T01:41:00.000Z</time>
      </trkpt>
      <trkpt lat="42.745573" lon="-7.897645">
        <ele>671.1</ele>
        <time>1970-01-01T01:41:01.000Z</time>
      </trkpt>
      <trkpt lat="42.74564" lon="-7.897646">
        <ele>670.6</ele>
        <time>1970-01-01T01:41:02.000Z</time>
      </trkpt>
      <trkpt lat="42.7457" lon="-7.897646">
        <ele>670</ele>
        <time>1970-01-01T01:41:03.000Z</time>
      </trkpt>
      <trkpt lat="42.745748" lon="-7.897638">
        <ele>669.7</ele>
        <time>1970-01-01T01:41:04.000Z</time>
      </trkpt>
      <trkpt lat="42.745801" lon="-7.897632">
        <ele>669</ele>
        <time>1970-01-01T01:41:05.000Z</time>
      </trkpt>
      <trkpt lat="42.745875" lon="-7.897619">
        <ele>668.1</ele>
        <time>1970-01-01T01:41:06.000Z</time>
      </trkpt>
      <trkpt lat="42.745947" lon="-7.897603">
        <ele>666.7</ele>
        <time>1970-01-01T01:41:07.000Z</time>
      </trkpt>
      <trkpt lat="42.746013" lon="-7.89758">
        <ele>665.7</ele>
        <time>1970-01-01T01:41:08.000Z</time>
      </trkpt>
      <trkpt lat="42.74606" lon="-7.897552">
        <ele>665.2</ele>
        <time>1970-01-01T01:41:09.000Z</time>
      </trkpt>
      <trkpt lat="42.746096" lon="-7.897517">
        <ele>664.6</ele>
        <time>1970-01-01T01:41:10.000Z</time>
      </trkpt>
      <trkpt lat="42.746131" lon="-7.897497">
        <ele>663.5</ele>
        <time>1970-01-01T01:41:11.000Z</time>
      </trkpt>
      <trkpt lat="42.746176" lon="-7.897476">
        <ele>662.8</ele>
        <time>1970-01-01T01:41:12.000Z</time>
      </trkpt>
      <trkpt lat="42.746201" lon="-7.897458">
        <ele>662.2</ele>
        <time>1970-01-01T01:41:13.000Z</time>
      </trkpt>
      <trkpt lat="42.746221" lon="-7.897428">
        <ele>662</ele>
        <time>1970-01-01T01:41:14.000Z</time>
      </trkpt>
      <trkpt lat="42.746237" lon="-7.897406">
        <ele>661.3</ele>
        <time>1970-01-01T01:41:15.000Z</time>
      </trkpt>
      <trkpt lat="42.746254" lon="-7.897374">
        <ele>661.3</ele>
        <time>1970-01-01T01:41:16.000Z</time>
      </trkpt>
      <trkpt lat="42.746278" lon="-7.897352">
        <ele>660.6</ele>
        <time>1970-01-01T01:41:17.000Z</time>
      </trkpt>
      <trkpt lat="42.746317" lon="-7.897323">
        <ele>659.8</ele>
        <time>1970-01-01T01:41:18.000Z</time>
      </trkpt>
      <trkpt lat="42.746362" lon="-7.897307">
        <ele>658.9</ele>
        <time>1970-01-01T01:41:19.000Z</time>
      </trkpt>
      <trkpt lat="42.746406" lon="-7.897291">
        <ele>658.4</ele>
        <time>1970-01-01T01:41:20.000Z</time>
      </trkpt>
      <trkpt lat="42.746443" lon="-7.897275">
        <ele>657.7</ele>
        <time>1970-01-01T01:41:21.000Z</time>
      </trkpt>
      <trkpt lat="42.746487" lon="-7.897274">
        <ele>656.9</ele>
        <time>1970-01-01T01:41:22.000Z</time>
      </trkpt>
      <trkpt lat="42.746542" lon="-7.897279">
        <ele>656.4</ele>
        <time>1970-01-01T01:41:23.000Z</time>
      </trkpt>
      <trkpt lat="42.746607" lon="-7.897286">
        <ele>656.1</ele>
        <time>1970-01-01T01:41:24.000Z</time>
      </trkpt>
      <trkpt lat="42.746662" lon="-7.897295">
        <ele>655.9</ele>
        <time>1970-01-01T01:41:25.000Z</time>
      </trkpt>
      <trkpt lat="42.746717" lon="-7.897305">
        <ele>655.4</ele>
        <time>1970-01-01T01:41:26.000Z</time>
      </trkpt>
      <trkpt lat="42.746767" lon="-7.897313">
        <ele>655.1</ele>
        <time>1970-01-01T01:41:27.000Z</time>
      </trkpt>
      <trkpt lat="42.746814" lon="-7.89732">
        <ele>654.9</ele>
        <time>1970-01-01T01:41:28.000Z</time>
      </trkpt>
      <trkpt lat="42.746856" lon="-7.897323">
        <ele>654.7</ele>
        <time>1970-01-01T01:41:29.000Z</time>
      </trkpt>
      <trkpt lat="42.746892" lon="-7.897328">
        <ele>654.9</ele>
        <time>1970-01-01T01:41:30.000Z</time>
      </trkpt>
      <trkpt lat="42.746932" lon="-7.897336">
        <ele>654.7</ele>
        <time>1970-01-01T01:41:31.000Z</time>
      </trkpt>
      <trkpt lat="42.746977" lon="-7.897348">
        <ele>654.6</ele>
        <time>1970-01-01T01:41:32.000Z</time>
      </trkpt>
      <trkpt lat="42.747017" lon="-7.897363">
        <ele>654.2</ele>
        <time>1970-01-01T01:41:33.000Z</time>
      </trkpt>
      <trkpt lat="42.747062" lon="-7.897381">
        <ele>654.4</ele>
        <time>1970-01-01T01:41:34.000Z</time>
      </trkpt>
      <trkpt lat="42.747109" lon="-7.897402">
        <ele>654.1</ele>
        <time>1970-01-01T01:41:35.000Z</time>
      </trkpt>
      <trkpt lat="42.747162" lon="-7.897424">
        <ele>654.2</ele>
        <time>1970-01-01T01:41:36.000Z</time>
      </trkpt>
      <trkpt lat="42.747214" lon="-7.897446">
        <ele>653.8</ele>
        <time>1970-01-01T01:41:37.000Z</time>
      </trkpt>
      <trkpt lat="42.747266" lon="-7.897468">
        <ele>653.7</ele>
        <time>1970-01-01T01:41:38.000Z</time>
      </trkpt>
      <trkpt lat="42.747314" lon="-7.89749">
        <ele>653.5</ele>
        <time>1970-01-01T01:41:39.000Z</time>
      </trkpt>
      <trkpt lat="42.747361" lon="-7.897512">
        <ele>653.3</ele>
        <time>1970-01-01T01:41:40.000Z</time>
      </trkpt>
      <trkpt lat="42.747404" lon="-7.897532">
        <ele>653.2</ele>
        <time>1970-01-01T01:41:41.000Z</time>
      </trkpt>
      <trkpt lat="42.747441" lon="-7.897548">
        <ele>653.2</ele>
        <time>1970-01-01T01:41:42.000Z</time>
      </trkpt>
      <trkpt lat="42.747473" lon="-7.897564">
        <ele>653.1</ele>
        <time>1970-01-01T01:41:43.000Z</time>
      </trkpt>
      <trkpt lat="42.747512" lon="-7.897577">
        <ele>652.9</ele>
        <time>1970-01-01T01:41:44.000Z</time>
      </trkpt>
      <trkpt lat="42.74754" lon="-7.897592">
        <ele>652.9</ele>
        <time>1970-01-01T01:41:45.000Z</time>
      </trkpt>
      <trkpt lat="42.747563" lon="-7.897606">
        <ele>652.8</ele>
        <time>1970-01-01T01:41:46.000Z</time>
      </trkpt>
      <trkpt lat="42.747589" lon="-7.89762">
        <ele>652.7</ele>
        <time>1970-01-01T01:41:47.000Z</time>
      </trkpt>
      <trkpt lat="42.747625" lon="-7.897634">
        <ele>652.7</ele>
        <time>1970-01-01T01:41:48.000Z</time>
      </trkpt>
      <trkpt lat="42.747657" lon="-7.897646">
        <ele>652.6</ele>
        <time>1970-01-01T01:41:49.000Z</time>
      </trkpt>
      <trkpt lat="42.747695" lon="-7.897662">
        <ele>652.5</ele>
        <time>1970-01-01T01:41:50.000Z</time>
      </trkpt>
      <trkpt lat="42.747735" lon="-7.897679">
        <ele>652.6</ele>
        <time>1970-01-01T01:41:51.000Z</time>
      </trkpt>
      <trkpt lat="42.747774" lon="-7.897696">
        <ele>652.3</ele>
        <time>1970-01-01T01:41:52.000Z</time>
      </trkpt>
      <trkpt lat="42.747814" lon="-7.897712">
        <ele>652.4</ele>
        <time>1970-01-01T01:41:53.000Z</time>
      </trkpt>
      <trkpt lat="42.747854" lon="-7.897729">
        <ele>652.3</ele>
        <time>1970-01-01T01:41:54.000Z</time>
      </trkpt>
      <trkpt lat="42.747893" lon="-7.897745">
        <ele>652.2</ele>
        <time>1970-01-01T01:41:55.000Z</time>
      </trkpt>
      <trkpt lat="42.747927" lon="-7.89776">
        <ele>652.1</ele>
        <time>1970-01-01T01:41:56.000Z</time>
      </trkpt>
      <trkpt lat="42.74796" lon="-7.897775">
        <ele>652</ele>
        <time>1970-01-01T01:41:57.000Z</time>
      </trkpt>
      <trkpt lat="42.747991" lon="-7.897787">
        <ele>651.8</ele>
        <time>1970-01-01T01:41:58.000Z</time>
      </trkpt>
      <trkpt lat="42.748023" lon="-7.897805">
        <ele>651.8</ele>
        <time>1970-01-01T01:41:59.000Z</time>
      </trkpt>
      <trkpt lat="42.748048" lon="-7.897831">
        <ele>651.8</ele>
        <time>1970-01-01T01:42:00.000Z</time>
      </trkpt>
      <trkpt lat="42.748058" lon="-7.897861">
        <ele>652</ele>
        <time>1970-01-01T01:42:01.000Z</time>
      </trkpt>
      <trkpt lat="42.748056" lon="-7.897892">
        <ele>652.2</ele>
        <time>1970-01-01T01:42:02.000Z</time>
      </trkpt>
      <trkpt lat="42.748046" lon="-7.897922">
        <ele>652.3</ele>
        <time>1970-01-01T01:42:03.000Z</time>
      </trkpt>
      <trkpt lat="42.748031" lon="-7.897951">
        <ele>652.4</ele>
        <time>1970-01-01T01:42:04.000Z</time>
      </trkpt>
      <trkpt lat="42.748015" lon="-7.897982">
        <ele>652.6</ele>
        <time>1970-01-01T01:42:05.000Z</time>
      </trkpt>
      <trkpt lat="42.747998" lon="-7.898012">
        <ele>652.8</ele>
        <time>1970-01-01T01:42:06.000Z</time>
      </trkpt>
      <trkpt lat="42.747981" lon="-7.898044">
        <ele>653</ele>
        <time>1970-01-01T01:42:07.000Z</time>
      </trkpt>
      <trkpt lat="42.747964" lon="-7.898075">
        <ele>653.2</ele>
        <time>1970-01-01T01:42:08.000Z</time>
      </trkpt>
      <trkpt lat="42.747944" lon="-7.898106">
        <ele>653.5</ele>
        <time>1970-01-01T01:42:09.000Z</time>
      </trkpt>
      <trkpt lat="42.747925" lon="-7.89814">
        <ele>653.7</ele>
        <time>1970-01-01T01:42:10.000Z</time>
      </trkpt>
      <trkpt lat="42.747907" lon="-7.898174">
        <ele>653.9</ele>
        <time>1970-01-01T01:42:11.000Z</time>
      </trkpt>
      <trkpt lat="42.747888" lon="-7.898207">
        <ele>654.1</ele>
        <time>1970-01-01T01:42:12.000Z</time>
      </trkpt>
      <trkpt lat="42.747869" lon="-7.898234">
        <ele>654.2</ele>
        <time>1970-01-01T01:42:13.000Z</time>
      </trkpt>
      <trkpt lat="42.747852" lon="-7.898262">
        <ele>654.4</ele>
        <time>1970-01-01T01:42:14.000Z</time>
      </trkpt>
      <trkpt lat="42.747833" lon="-7.898291">
        <ele>654.6</ele>
        <time>1970-01-01T01:42:15.000Z</time>
      </trkpt>
      <trkpt lat="42.747815" lon="-7.898324">
        <ele>654.9</ele>
        <time>1970-01-01T01:42:16.000Z</time>
      </trkpt>
      <trkpt lat="42.747797" lon="-7.898358">
        <ele>655.1</ele>
        <time>1970-01-01T01:42:17.000Z</time>
      </trkpt>
      <trkpt lat="42.747779" lon="-7.898395">
        <ele>655.4</ele>
        <time>1970-01-01T01:42:18.000Z</time>
      </trkpt>
      <trkpt lat="42.747762" lon="-7.898433">
        <ele>655.6</ele>
        <time>1970-01-01T01:42:19.000Z</time>
      </trkpt>
      <trkpt lat="42.747743" lon="-7.898471">
        <ele>655.9</ele>
        <time>1970-01-01T01:42:20.000Z</time>
      </trkpt>
      <trkpt lat="42.747721" lon="-7.898507">
        <ele>656.1</ele>
        <time>1970-01-01T01:42:21.000Z</time>
      </trkpt>
      <trkpt lat="42.747697" lon="-7.898537">
        <ele>656.3</ele>
        <time>1970-01-01T01:42:22.000Z</time>
      </trkpt>
      <trkpt lat="42.747674" lon="-7.898569">
        <ele>656.5</ele>
        <time>1970-01-01T01:42:23.000Z</time>
      </trkpt>
      <trkpt lat="42.747654" lon="-7.898602">
        <ele>656.7</ele>
        <time>1970-01-01T01:42:24.000Z</time>
      </trkpt>
      <trkpt lat="42.747636" lon="-7.898638">
        <ele>656.9</ele>
        <time>1970-01-01T01:42:25.000Z</time>
      </trkpt>
      <trkpt lat="42.747619" lon="-7.898673">
        <ele>657</ele>
        <time>1970-01-01T01:42:26.000Z</time>
      </trkpt>
      <trkpt lat="42.747602" lon="-7.898709">
        <ele>657.2</ele>
        <time>1970-01-01T01:42:27.000Z</time>
      </trkpt>
      <trkpt lat="42.747588" lon="-7.898744">
        <ele>657.3</ele>
        <time>1970-01-01T01:42:28.000Z</time>
      </trkpt>
      <trkpt lat="42.747576" lon="-7.898779">
        <ele>657.5</ele>
        <time>1970-01-01T01:42:29.000Z</time>
      </trkpt>
      <trkpt lat="42.747563" lon="-7.898814">
        <ele>657.6</ele>
        <time>1970-01-01T01:42:30.000Z</time>
      </trkpt>
      <trkpt lat="42.747553" lon="-7.898847">
        <ele>657.7</ele>
        <time>1970-01-01T01:42:31.000Z</time>
      </trkpt>
      <trkpt lat="42.747537" lon="-7.898879">
        <ele>657.7</ele>
        <time>1970-01-01T01:42:32.000Z</time>
      </trkpt>
      <trkpt lat="42.747521" lon="-7.898911">
        <ele>657.8</ele>
        <time>1970-01-01T01:42:33.000Z</time>
      </trkpt>
      <trkpt lat="42.747501" lon="-7.898937">
        <ele>657.9</ele>
        <time>1970-01-01T01:42:34.000Z</time>
      </trkpt>
      <trkpt lat="42.747482" lon="-7.898964">
        <ele>658</ele>
        <time>1970-01-01T01:42:35.000Z</time>
      </trkpt>
      <trkpt lat="42.747464" lon="-7.898995">
        <ele>658.1</ele>
        <time>1970-01-01T01:42:36.000Z</time>
      </trkpt>
      <trkpt lat="42.747444" lon="-7.899025">
        <ele>658.2</ele>
        <time>1970-01-01T01:42:37.000Z</time>
      </trkpt>
      <trkpt lat="42.747426" lon="-7.899056">
        <ele>658.2</ele>
        <time>1970-01-01T01:42:38.000Z</time>
      </trkpt>
      <trkpt lat="42.747407" lon="-7.899086">
        <ele>658.3</ele>
        <time>1970-01-01T01:42:39.000Z</time>
      </trkpt>
      <trkpt lat="42.747387" lon="-7.899116">
        <ele>658.3</ele>
        <time>1970-01-01T01:42:40.000Z</time>
      </trkpt>
      <trkpt lat="42.747367" lon="-7.899147">
        <ele>658.3</ele>
        <time>1970-01-01T01:42:41.000Z</time>
      </trkpt>
      <trkpt lat="42.747347" lon="-7.899179">
        <ele>658.3</ele>
        <time>1970-01-01T01:42:42.000Z</time>
      </trkpt>
      <trkpt lat="42.747329" lon="-7.899211">
        <ele>658.3</ele>
        <time>1970-01-01T01:42:43.000Z</time>
      </trkpt>
      <trkpt lat="42.74731" lon="-7.899242">
        <ele>658.3</ele>
        <time>1970-01-01T01:42:44.000Z</time>
      </trkpt>
      <trkpt lat="42.747291" lon="-7.899274">
        <ele>658.4</ele>
        <time>1970-01-01T01:42:45.000Z</time>
      </trkpt>
      <trkpt lat="42.747273" lon="-7.899308">
        <ele>658.4</ele>
        <time>1970-01-01T01:42:46.000Z</time>
      </trkpt>
      <trkpt lat="42.747254" lon="-7.899342">
        <ele>658.5</ele>
        <time>1970-01-01T01:42:47.000Z</time>
      </trkpt>
      <trkpt lat="42.747237" lon="-7.899377">
        <ele>658.6</ele>
        <time>1970-01-01T01:42:48.000Z</time>
      </trkpt>
      <trkpt lat="42.747221" lon="-7.899412">
        <ele>658.6</ele>
        <time>1970-01-01T01:42:49.000Z</time>
      </trkpt>
      <trkpt lat="42.747204" lon="-7.899448">
        <ele>658.7</ele>
        <time>1970-01-01T01:42:50.000Z</time>
      </trkpt>
      <trkpt lat="42.747188" lon="-7.899484">
        <ele>658.7</ele>
        <time>1970-01-01T01:42:51.000Z</time>
      </trkpt>
      <trkpt lat="42.747173" lon="-7.89952">
        <ele>658.8</ele>
        <time>1970-01-01T01:42:52.000Z</time>
      </trkpt>
      <trkpt lat="42.747158" lon="-7.899558">
        <ele>658.9</ele>
        <time>1970-01-01T01:42:53.000Z</time>
      </trkpt>
      <trkpt lat="42.747143" lon="-7.899593">
        <ele>659</ele>
        <time>1970-01-01T01:42:54.000Z</time>
      </trkpt>
      <trkpt lat="42.747128" lon="-7.899627">
        <ele>659.2</ele>
        <time>1970-01-01T01:42:55.000Z</time>
      </trkpt>
      <trkpt lat="42.747113" lon="-7.899663">
        <ele>659.3</ele>
        <time>1970-01-01T01:42:56.000Z</time>
      </trkpt>
      <trkpt lat="42.747098" lon="-7.899699">
        <ele>659.3</ele>
        <time>1970-01-01T01:42:57.000Z</time>
      </trkpt>
      <trkpt lat="42.747083" lon="-7.899736">
        <ele>659.4</ele>
        <time>1970-01-01T01:42:58.000Z</time>
      </trkpt>
      <trkpt lat="42.747067" lon="-7.899773">
        <ele>659.4</ele>
        <time>1970-01-01T01:42:59.000Z</time>
      </trkpt>
      <trkpt lat="42.747052" lon="-7.89981">
        <ele>659.4</ele>
        <time>1970-01-01T01:43:00.000Z</time>
      </trkpt>
      <trkpt lat="42.747037" lon="-7.899845">
        <ele>659.5</ele>
        <time>1970-01-01T01:43:01.000Z</time>
      </trkpt>
      <trkpt lat="42.747022" lon="-7.899879">
        <ele>659.6</ele>
        <time>1970-01-01T01:43:02.000Z</time>
      </trkpt>
      <trkpt lat="42.747007" lon="-7.899913">
        <ele>659.7</ele>
        <time>1970-01-01T01:43:03.000Z</time>
      </trkpt>
      <trkpt lat="42.746995" lon="-7.899945">
        <ele>659.9</ele>
        <time>1970-01-01T01:43:04.000Z</time>
      </trkpt>
      <trkpt lat="42.746984" lon="-7.899975">
        <ele>659.9</ele>
        <time>1970-01-01T01:43:05.000Z</time>
      </trkpt>
      <trkpt lat="42.746979" lon="-7.899999">
        <ele>659.9</ele>
        <time>1970-01-01T01:43:06.000Z</time>
      </trkpt>
      <trkpt lat="42.746968" lon="-7.900025">
        <ele>659.9</ele>
        <time>1970-01-01T01:43:07.000Z</time>
      </trkpt>
      <trkpt lat="42.746955" lon="-7.900056">
        <ele>660</ele>
        <time>1970-01-01T01:43:08.000Z</time>
      </trkpt>
      <trkpt lat="42.746957" lon="-7.900087">
        <ele>660</ele>
        <time>1970-01-01T01:43:09.000Z</time>
      </trkpt>
      <trkpt lat="42.746964" lon="-7.900106">
        <ele>660.1</ele>
        <time>1970-01-01T01:43:10.000Z</time>
      </trkpt>
      <trkpt lat="42.746975" lon="-7.900118">
        <ele>660.1</ele>
        <time>1970-01-01T01:43:11.000Z</time>
      </trkpt>
      <trkpt lat="42.74699" lon="-7.900121">
        <ele>660.1</ele>
        <time>1970-01-01T01:43:12.000Z</time>
      </trkpt>
      <trkpt lat="42.747008" lon="-7.900122">
        <ele>660.1</ele>
        <time>1970-01-01T01:43:13.000Z</time>
      </trkpt>
      <trkpt lat="42.74703" lon="-7.900121">
        <ele>659.8</ele>
        <time>1970-01-01T01:43:14.000Z</time>
      </trkpt>
      <trkpt lat="42.747054" lon="-7.900122">
        <ele>659.7</ele>
        <time>1970-01-01T01:43:15.000Z</time>
      </trkpt>
      <trkpt lat="42.747079" lon="-7.900123">
        <ele>659.6</ele>
        <time>1970-01-01T01:43:16.000Z</time>
      </trkpt>
      <trkpt lat="42.747104" lon="-7.900121">
        <ele>659.6</ele>
        <time>1970-01-01T01:43:17.000Z</time>
      </trkpt>
      <trkpt lat="42.747134" lon="-7.90012">
        <ele>659.4</ele>
        <time>1970-01-01T01:43:18.000Z</time>
      </trkpt>
      <trkpt lat="42.747167" lon="-7.900115">
        <ele>659.3</ele>
        <time>1970-01-01T01:43:19.000Z</time>
      </trkpt>
      <trkpt lat="42.747197" lon="-7.900111">
        <ele>659.2</ele>
        <time>1970-01-01T01:43:20.000Z</time>
      </trkpt>
      <trkpt lat="42.747227" lon="-7.900106">
        <ele>659.1</ele>
        <time>1970-01-01T01:43:21.000Z</time>
      </trkpt>
      <trkpt lat="42.747256" lon="-7.900105">
        <ele>659</ele>
        <time>1970-01-01T01:43:22.000Z</time>
      </trkpt>
      <trkpt lat="42.747286" lon="-7.900104">
        <ele>658.9</ele>
        <time>1970-01-01T01:43:23.000Z</time>
      </trkpt>
      <trkpt lat="42.747311" lon="-7.900107">
        <ele>658.8</ele>
        <time>1970-01-01T01:43:24.000Z</time>
      </trkpt>
      <trkpt lat="42.747336" lon="-7.900121">
        <ele>658.8</ele>
        <time>1970-01-01T01:43:25.000Z</time>
      </trkpt>
      <trkpt lat="42.747363" lon="-7.900151">
        <ele>658.8</ele>
        <time>1970-01-01T01:43:26.000Z</time>
      </trkpt>
      <trkpt lat="42.747383" lon="-7.90019">
        <ele>658.7</ele>
        <time>1970-01-01T01:43:27.000Z</time>
      </trkpt>
      <trkpt lat="42.7474" lon="-7.900232">
        <ele>658.7</ele>
        <time>1970-01-01T01:43:28.000Z</time>
      </trkpt>
      <trkpt lat="42.747416" lon="-7.900273">
        <ele>658.6</ele>
        <time>1970-01-01T01:43:29.000Z</time>
      </trkpt>
      <trkpt lat="42.747436" lon="-7.900308">
        <ele>658.6</ele>
        <time>1970-01-01T01:43:30.000Z</time>
      </trkpt>
      <trkpt lat="42.747464" lon="-7.900334">
        <ele>658.4</ele>
        <time>1970-01-01T01:43:31.000Z</time>
      </trkpt>
      <trkpt lat="42.747497" lon="-7.900348">
        <ele>658.4</ele>
        <time>1970-01-01T01:43:32.000Z</time>
      </trkpt>
      <trkpt lat="42.747532" lon="-7.900351">
        <ele>658.4</ele>
        <time>1970-01-01T01:43:33.000Z</time>
      </trkpt>
      <trkpt lat="42.747567" lon="-7.900344">
        <ele>658.4</ele>
        <time>1970-01-01T01:43:34.000Z</time>
      </trkpt>
      <trkpt lat="42.7476" lon="-7.90033">
        <ele>658.3</ele>
        <time>1970-01-01T01:43:35.000Z</time>
      </trkpt>
      <trkpt lat="42.747632" lon="-7.900315">
        <ele>658.4</ele>
        <time>1970-01-01T01:43:36.000Z</time>
      </trkpt>
      <trkpt lat="42.747662" lon="-7.9003">
        <ele>658.4</ele>
        <time>1970-01-01T01:43:37.000Z</time>
      </trkpt>
      <trkpt lat="42.74769" lon="-7.900285">
        <ele>658.5</ele>
        <time>1970-01-01T01:43:38.000Z</time>
      </trkpt>
      <trkpt lat="42.747716" lon="-7.900274">
        <ele>658.4</ele>
        <time>1970-01-01T01:43:39.000Z</time>
      </trkpt>
      <trkpt lat="42.74774" lon="-7.900266">
        <ele>658.3</ele>
        <time>1970-01-01T01:43:40.000Z</time>
      </trkpt>
      <trkpt lat="42.747763" lon="-7.900258">
        <ele>658.3</ele>
        <time>1970-01-01T01:43:41.000Z</time>
      </trkpt>
      <trkpt lat="42.747789" lon="-7.90025">
        <ele>658.2</ele>
        <time>1970-01-01T01:43:42.000Z</time>
      </trkpt>
      <trkpt lat="42.747815" lon="-7.900242">
        <ele>658</ele>
        <time>1970-01-01T01:43:43.000Z</time>
      </trkpt>
      <trkpt lat="42.747843" lon="-7.900234">
        <ele>657.9</ele>
        <time>1970-01-01T01:43:44.000Z</time>
      </trkpt>
      <trkpt lat="42.747874" lon="-7.900229">
        <ele>657.7</ele>
        <time>1970-01-01T01:43:45.000Z</time>
      </trkpt>
      <trkpt lat="42.747906" lon="-7.900232">
        <ele>657.5</ele>
        <time>1970-01-01T01:43:46.000Z</time>
      </trkpt>
      <trkpt lat="42.747937" lon="-7.900237">
        <ele>657.3</ele>
        <time>1970-01-01T01:43:47.000Z</time>
      </trkpt>
      <trkpt lat="42.747965" lon="-7.900245">
        <ele>657</ele>
        <time>1970-01-01T01:43:48.000Z</time>
      </trkpt>
      <trkpt lat="42.747993" lon="-7.900255">
        <ele>656.7</ele>
        <time>1970-01-01T01:43:49.000Z</time>
      </trkpt>
      <trkpt lat="42.74802" lon="-7.900268">
        <ele>656.7</ele>
        <time>1970-01-01T01:43:50.000Z</time>
      </trkpt>
      <trkpt lat="42.748045" lon="-7.900281">
        <ele>656.4</ele>
        <time>1970-01-01T01:43:51.000Z</time>
      </trkpt>
      <trkpt lat="42.74807" lon="-7.900285">
        <ele>656</ele>
        <time>1970-01-01T01:43:52.000Z</time>
      </trkpt>
      <trkpt lat="42.748095" lon="-7.900296">
        <ele>655.6</ele>
        <time>1970-01-01T01:43:53.000Z</time>
      </trkpt>
      <trkpt lat="42.74812" lon="-7.900313">
        <ele>655.2</ele>
        <time>1970-01-01T01:43:54.000Z</time>
      </trkpt>
      <trkpt lat="42.748145" lon="-7.900329">
        <ele>655.2</ele>
        <time>1970-01-01T01:43:55.000Z</time>
      </trkpt>
      <trkpt lat="42.748165" lon="-7.900341">
        <ele>654.8</ele>
        <time>1970-01-01T01:43:56.000Z</time>
      </trkpt>
      <trkpt lat="42.748188" lon="-7.900358">
        <ele>654.4</ele>
        <time>1970-01-01T01:43:57.000Z</time>
      </trkpt>
      <trkpt lat="42.748213" lon="-7.900379">
        <ele>653.9</ele>
        <time>1970-01-01T01:43:58.000Z</time>
      </trkpt>
      <trkpt lat="42.748232" lon="-7.900398">
        <ele>653.9</ele>
        <time>1970-01-01T01:43:59.000Z</time>
      </trkpt>
      <trkpt lat="42.748249" lon="-7.900421">
        <ele>653.4</ele>
        <time>1970-01-01T01:44:00.000Z</time>
      </trkpt>
      <trkpt lat="42.748273" lon="-7.900449">
        <ele>653</ele>
        <time>1970-01-01T01:44:01.000Z</time>
      </trkpt>
      <trkpt lat="42.748297" lon="-7.900476">
        <ele>652.9</ele>
        <time>1970-01-01T01:44:02.000Z</time>
      </trkpt>
      <trkpt lat="42.748321" lon="-7.900506">
        <ele>652.4</ele>
        <time>1970-01-01T01:44:03.000Z</time>
      </trkpt>
      <trkpt lat="42.748344" lon="-7.900535">
        <ele>652</ele>
        <time>1970-01-01T01:44:04.000Z</time>
      </trkpt>
      <trkpt lat="42.74837" lon="-7.900567">
        <ele>651.7</ele>
        <time>1970-01-01T01:44:05.000Z</time>
      </trkpt>
      <trkpt lat="42.748392" lon="-7.900592">
        <ele>651.6</ele>
        <time>1970-01-01T01:44:06.000Z</time>
      </trkpt>
      <trkpt lat="42.748415" lon="-7.900616">
        <ele>651.4</ele>
        <time>1970-01-01T01:44:07.000Z</time>
      </trkpt>
      <trkpt lat="42.748441" lon="-7.900633">
        <ele>651.3</ele>
        <time>1970-01-01T01:44:08.000Z</time>
      </trkpt>
      <trkpt lat="42.748467" lon="-7.900645">
        <ele>651.3</ele>
        <time>1970-01-01T01:44:09.000Z</time>
      </trkpt>
      <trkpt lat="42.748497" lon="-7.900657">
        <ele>651.2</ele>
        <time>1970-01-01T01:44:10.000Z</time>
      </trkpt>
      <trkpt lat="42.748529" lon="-7.900674">
        <ele>651.5</ele>
        <time>1970-01-01T01:44:11.000Z</time>
      </trkpt>
      <trkpt lat="42.748559" lon="-7.900684">
        <ele>651.6</ele>
        <time>1970-01-01T01:44:12.000Z</time>
      </trkpt>
      <trkpt lat="42.748589" lon="-7.900692">
        <ele>651.7</ele>
        <time>1970-01-01T01:44:13.000Z</time>
      </trkpt>
      <trkpt lat="42.74861" lon="-7.90069">
        <ele>651.7</ele>
        <time>1970-01-01T01:44:14.000Z</time>
      </trkpt>
      <trkpt lat="42.748629" lon="-7.90069">
        <ele>651.9</ele>
        <time>1970-01-01T01:44:15.000Z</time>
      </trkpt>
      <trkpt lat="42.748653" lon="-7.900694">
        <ele>652</ele>
        <time>1970-01-01T01:44:16.000Z</time>
      </trkpt>
      <trkpt lat="42.748671" lon="-7.900698">
        <ele>652</ele>
        <time>1970-01-01T01:44:17.000Z</time>
      </trkpt>
      <trkpt lat="42.748689" lon="-7.900702">
        <ele>652.2</ele>
        <time>1970-01-01T01:44:18.000Z</time>
      </trkpt>
      <trkpt lat="42.748712" lon="-7.900714">
        <ele>652.2</ele>
        <time>1970-01-01T01:44:19.000Z</time>
      </trkpt>
      <trkpt lat="42.748742" lon="-7.900711">
        <ele>652.4</ele>
        <time>1970-01-01T01:44:20.000Z</time>
      </trkpt>
      <trkpt lat="42.748767" lon="-7.900691">
        <ele>652.6</ele>
        <time>1970-01-01T01:44:21.000Z</time>
      </trkpt>
      <trkpt lat="42.748799" lon="-7.900681">
        <ele>652.8</ele>
        <time>1970-01-01T01:44:22.000Z</time>
      </trkpt>
      <trkpt lat="42.748822" lon="-7.900665">
        <ele>652.7</ele>
        <time>1970-01-01T01:44:23.000Z</time>
      </trkpt>
      <trkpt lat="42.748855" lon="-7.900656">
        <ele>652.9</ele>
        <time>1970-01-01T01:44:24.000Z</time>
      </trkpt>
      <trkpt lat="42.748878" lon="-7.900632">
        <ele>652.9</ele>
        <time>1970-01-01T01:44:25.000Z</time>
      </trkpt>
      <trkpt lat="42.748903" lon="-7.900613">
        <ele>652.7</ele>
        <time>1970-01-01T01:44:26.000Z</time>
      </trkpt>
      <trkpt lat="42.748948" lon="-7.900595">
        <ele>652.8</ele>
        <time>1970-01-01T01:44:27.000Z</time>
      </trkpt>
      <trkpt lat="42.74899" lon="-7.90057">
        <ele>652.6</ele>
        <time>1970-01-01T01:44:28.000Z</time>
      </trkpt>
      <trkpt lat="42.74902" lon="-7.900548">
        <ele>652.6</ele>
        <time>1970-01-01T01:44:29.000Z</time>
      </trkpt>
      <trkpt lat="42.749056" lon="-7.900532">
        <ele>652.4</ele>
        <time>1970-01-01T01:44:30.000Z</time>
      </trkpt>
      <trkpt lat="42.749094" lon="-7.900524">
        <ele>652.1</ele>
        <time>1970-01-01T01:44:31.000Z</time>
      </trkpt>
      <trkpt lat="42.749126" lon="-7.900515">
        <ele>651.9</ele>
        <time>1970-01-01T01:44:32.000Z</time>
      </trkpt>
      <trkpt lat="42.749137" lon="-7.900495">
        <ele>651.8</ele>
        <time>1970-01-01T01:44:33.000Z</time>
      </trkpt>
      <trkpt lat="42.749151" lon="-7.90048">
        <ele>651.8</ele>
        <time>1970-01-01T01:44:34.000Z</time>
      </trkpt>
      <trkpt lat="42.749174" lon="-7.900472">
        <ele>651.6</ele>
        <time>1970-01-01T01:44:35.000Z</time>
      </trkpt>
      <trkpt lat="42.749196" lon="-7.90046">
        <ele>651.3</ele>
        <time>1970-01-01T01:44:36.000Z</time>
      </trkpt>
      <trkpt lat="42.749216" lon="-7.900448">
        <ele>651.2</ele>
        <time>1970-01-01T01:44:37.000Z</time>
      </trkpt>
      <trkpt lat="42.749251" lon="-7.900448">
        <ele>650.7</ele>
        <time>1970-01-01T01:44:38.000Z</time>
      </trkpt>
      <trkpt lat="42.749287" lon="-7.900437">
        <ele>650.5</ele>
        <time>1970-01-01T01:44:39.000Z</time>
      </trkpt>
      <trkpt lat="42.749323" lon="-7.900424">
        <ele>650.3</ele>
        <time>1970-01-01T01:44:40.000Z</time>
      </trkpt>
      <trkpt lat="42.749347" lon="-7.900408">
        <ele>649.9</ele>
        <time>1970-01-01T01:44:41.000Z</time>
      </trkpt>
      <trkpt lat="42.749362" lon="-7.900394">
        <ele>649.9</ele>
        <time>1970-01-01T01:44:42.000Z</time>
      </trkpt>
      <trkpt lat="42.749381" lon="-7.900387">
        <ele>649.7</ele>
        <time>1970-01-01T01:44:43.000Z</time>
      </trkpt>
      <trkpt lat="42.749393" lon="-7.900377">
        <ele>649.7</ele>
        <time>1970-01-01T01:44:44.000Z</time>
      </trkpt>
      <trkpt lat="42.749402" lon="-7.90037">
        <ele>649.5</ele>
        <time>1970-01-01T01:44:45.000Z</time>
      </trkpt>
      <trkpt lat="42.749408" lon="-7.900366">
        <ele>649.2</ele>
        <time>1970-01-01T01:44:46.000Z</time>
      </trkpt>
      <trkpt lat="42.749415" lon="-7.900365">
        <ele>649.2</ele>
        <time>1970-01-01T01:44:47.000Z</time>
      </trkpt>
      <trkpt lat="42.749434" lon="-7.900361">
        <ele>649.2</ele>
        <time>1970-01-01T01:44:48.000Z</time>
      </trkpt>
      <trkpt lat="42.749447" lon="-7.900361">
        <ele>648.9</ele>
        <time>1970-01-01T01:44:49.000Z</time>
      </trkpt>
      <trkpt lat="42.749448" lon="-7.900361">
        <ele>648.9</ele>
        <time>1970-01-01T01:44:50.000Z</time>
      </trkpt>
      <trkpt lat="42.749452" lon="-7.900362">
        <ele>648.9</ele>
        <time>1970-01-01T01:44:51.000Z</time>
      </trkpt>
      <trkpt lat="42.749463" lon="-7.900363">
        <ele>648.9</ele>
        <time>1970-01-01T01:44:52.000Z</time>
      </trkpt>
      <trkpt lat="42.7499" lon="-7.900336">
        <ele>644.2</ele>
        <time>1970-01-01T01:45:42.000Z</time>
      </trkpt>
      <trkpt lat="42.749927" lon="-7.900314">
        <ele>643.7</ele>
        <time>1970-01-01T01:45:43.000Z</time>
      </trkpt>
      <trkpt lat="42.749946" lon="-7.900303">
        <ele>643.3</ele>
        <time>1970-01-01T01:45:44.000Z</time>
      </trkpt>
      <trkpt lat="42.749957" lon="-7.900295">
        <ele>643.3</ele>
        <time>1970-01-01T01:45:45.000Z</time>
      </trkpt>
      <trkpt lat="42.749957" lon="-7.900295">
        <ele>643.3</ele>
        <time>1970-01-01T01:45:46.000Z</time>
      </trkpt>
      <trkpt lat="42.74997" lon="-7.900287">
        <ele>643.3</ele>
        <time>1970-01-01T01:45:47.000Z</time>
      </trkpt>
      <trkpt lat="42.74998" lon="-7.900279">
        <ele>642.8</ele>
        <time>1970-01-01T01:45:48.000Z</time>
      </trkpt>
      <trkpt lat="42.749994" lon="-7.900278">
        <ele>642.8</ele>
        <time>1970-01-01T01:45:49.000Z</time>
      </trkpt>
      <trkpt lat="42.750005" lon="-7.900282">
        <ele>642.8</ele>
        <time>1970-01-01T01:45:50.000Z</time>
      </trkpt>
      <trkpt lat="42.750011" lon="-7.900285">
        <ele>642.3</ele>
        <time>1970-01-01T01:45:51.000Z</time>
      </trkpt>
      <trkpt lat="42.750016" lon="-7.900287">
        <ele>642.4</ele>
        <time>1970-01-01T01:45:52.000Z</time>
      </trkpt>
      <trkpt lat="42.750021" lon="-7.90029">
        <ele>642.4</ele>
        <time>1970-01-01T01:45:53.000Z</time>
      </trkpt>
      <trkpt lat="42.750026" lon="-7.900306">
        <ele>642.4</ele>
        <time>1970-01-01T01:45:54.000Z</time>
      </trkpt>
      <trkpt lat="42.750019" lon="-7.900315">
        <ele>642.4</ele>
        <time>1970-01-01T01:45:55.000Z</time>
      </trkpt>
      <trkpt lat="42.750014" lon="-7.90033">
        <ele>642.5</ele>
        <time>1970-01-01T01:45:56.000Z</time>
      </trkpt>
      <trkpt lat="42.750018" lon="-7.900349">
        <ele>642.5</ele>
        <time>1970-01-01T01:45:57.000Z</time>
      </trkpt>
      <trkpt lat="42.749995" lon="-7.900458">
        <ele>643.4</ele>
        <time>1970-01-01T01:46:02.000Z</time>
      </trkpt>
      <trkpt lat="42.749993" lon="-7.900483">
        <ele>643.4</ele>
        <time>1970-01-01T01:46:03.000Z</time>
      </trkpt>
      <trkpt lat="42.749982" lon="-7.900523">
        <ele>643.5</ele>
        <time>1970-01-01T01:46:04.000Z</time>
      </trkpt>
      <trkpt lat="42.749975" lon="-7.90054">
        <ele>643.5</ele>
        <time>1970-01-01T01:46:05.000Z</time>
      </trkpt>
      <trkpt lat="42.74997" lon="-7.900558">
        <ele>644</ele>
        <time>1970-01-01T01:46:06.000Z</time>
      </trkpt>
      <trkpt lat="42.74997" lon="-7.900558">
        <ele>644</ele>
        <time>1970-01-01T01:46:07.000Z</time>
      </trkpt>
      <trkpt lat="42.749964" lon="-7.900573">
        <ele>644</ele>
        <time>1970-01-01T01:46:08.000Z</time>
      </trkpt>
      <trkpt lat="42.749968" lon="-7.900599">
        <ele>644.1</ele>
        <time>1970-01-01T01:46:09.000Z</time>
      </trkpt>
      <trkpt lat="42.749971" lon="-7.900614">
        <ele>644.1</ele>
        <time>1970-01-01T01:46:10.000Z</time>
      </trkpt>
      <trkpt lat="42.749967" lon="-7.900642">
        <ele>644.2</ele>
        <time>1970-01-01T01:46:11.000Z</time>
      </trkpt>
      <trkpt lat="42.74996" lon="-7.900667">
        <ele>644.2</ele>
        <time>1970-01-01T01:46:12.000Z</time>
      </trkpt>
      <trkpt lat="42.749956" lon="-7.90069">
        <ele>644.2</ele>
        <time>1970-01-01T01:46:13.000Z</time>
      </trkpt>
      <trkpt lat="42.749947" lon="-7.900716">
        <ele>644.2</ele>
        <time>1970-01-01T01:46:14.000Z</time>
      </trkpt>
      <trkpt lat="42.749936" lon="-7.900777">
        <ele>644.8</ele>
        <time>1970-01-01T01:46:15.000Z</time>
      </trkpt>
      <trkpt lat="42.749937" lon="-7.900795">
        <ele>644.8</ele>
        <time>1970-01-01T01:46:16.000Z</time>
      </trkpt>
      <trkpt lat="42.749937" lon="-7.900805">
        <ele>644.8</ele>
        <time>1970-01-01T01:46:17.000Z</time>
      </trkpt>
      <trkpt lat="42.749937" lon="-7.900805">
        <ele>644.8</ele>
        <time>1970-01-01T01:46:18.000Z</time>
      </trkpt>
      <trkpt lat="42.749935" lon="-7.900824">
        <ele>644.7</ele>
        <time>1970-01-01T01:46:19.000Z</time>
      </trkpt>
      <trkpt lat="42.749927" lon="-7.900853">
        <ele>644.7</ele>
        <time>1970-01-01T01:46:20.000Z</time>
      </trkpt>
      <trkpt lat="42.749912" lon="-7.900875">
        <ele>644.7</ele>
        <time>1970-01-01T01:46:21.000Z</time>
      </trkpt>
      <trkpt lat="42.749902" lon="-7.900889">
        <ele>645.2</ele>
        <time>1970-01-01T01:46:22.000Z</time>
      </trkpt>
      <trkpt lat="42.749894" lon="-7.900906">
        <ele>645.2</ele>
        <time>1970-01-01T01:46:23.000Z</time>
      </trkpt>
      <trkpt lat="42.74989" lon="-7.900925">
        <ele>645.2</ele>
        <time>1970-01-01T01:46:24.000Z</time>
      </trkpt>
      <trkpt lat="42.749887" lon="-7.900943">
        <ele>645</ele>
        <time>1970-01-01T01:46:25.000Z</time>
      </trkpt>
      <trkpt lat="42.749889" lon="-7.900964">
        <ele>645</ele>
        <time>1970-01-01T01:46:26.000Z</time>
      </trkpt>
      <trkpt lat="42.749894" lon="-7.900991">
        <ele>644.7</ele>
        <time>1970-01-01T01:46:27.000Z</time>
      </trkpt>
      <trkpt lat="42.749909" lon="-7.901022">
        <ele>644.3</ele>
        <time>1970-01-01T01:46:28.000Z</time>
      </trkpt>
      <trkpt lat="42.749937" lon="-7.901084">
        <ele>642.9</ele>
        <time>1970-01-01T01:46:29.000Z</time>
      </trkpt>
      <trkpt lat="42.749937" lon="-7.901084">
        <ele>642.9</ele>
        <time>1970-01-01T01:46:30.000Z</time>
      </trkpt>
      <trkpt lat="42.749949" lon="-7.901112">
        <ele>641.6</ele>
        <time>1970-01-01T01:46:31.000Z</time>
      </trkpt>
      <trkpt lat="42.749957" lon="-7.901144">
        <ele>641.6</ele>
        <time>1970-01-01T01:46:32.000Z</time>
      </trkpt>
      <trkpt lat="42.749966" lon="-7.901177">
        <ele>641.2</ele>
        <time>1970-01-01T01:46:33.000Z</time>
      </trkpt>
      <trkpt lat="42.749984" lon="-7.901212">
        <ele>640.1</ele>
        <time>1970-01-01T01:46:34.000Z</time>
      </trkpt>
      <trkpt lat="42.750001" lon="-7.90124">
        <ele>639.8</ele>
        <time>1970-01-01T01:46:35.000Z</time>
      </trkpt>
      <trkpt lat="42.750019" lon="-7.901267">
        <ele>639.3</ele>
        <time>1970-01-01T01:46:36.000Z</time>
      </trkpt>
      <trkpt lat="42.750035" lon="-7.901299">
        <ele>639.2</ele>
        <time>1970-01-01T01:46:37.000Z</time>
      </trkpt>
      <trkpt lat="42.750053" lon="-7.901326">
        <ele>638.8</ele>
        <time>1970-01-01T01:46:38.000Z</time>
      </trkpt>
      <trkpt lat="42.750064" lon="-7.901352">
        <ele>638.8</ele>
        <time>1970-01-01T01:46:39.000Z</time>
      </trkpt>
      <trkpt lat="42.750075" lon="-7.901378">
        <ele>638.6</ele>
        <time>1970-01-01T01:46:40.000Z</time>
      </trkpt>
      <trkpt lat="42.750088" lon="-7.901401">
        <ele>638.6</ele>
        <time>1970-01-01T01:46:41.000Z</time>
      </trkpt>
      <trkpt lat="42.750101" lon="-7.901434">
        <ele>638.6</ele>
        <time>1970-01-01T01:46:42.000Z</time>
      </trkpt>
      <trkpt lat="42.750114" lon="-7.901461">
        <ele>639</ele>
        <time>1970-01-01T01:46:43.000Z</time>
      </trkpt>
      <trkpt lat="42.750129" lon="-7.901487">
        <ele>639</ele>
        <time>1970-01-01T01:46:44.000Z</time>
      </trkpt>
      <trkpt lat="42.750145" lon="-7.901515">
        <ele>639.2</ele>
        <time>1970-01-01T01:46:45.000Z</time>
      </trkpt>
      <trkpt lat="42.750161" lon="-7.901543">
        <ele>639.8</ele>
        <time>1970-01-01T01:46:46.000Z</time>
      </trkpt>
      <trkpt lat="42.750178" lon="-7.901571">
        <ele>639.6</ele>
        <time>1970-01-01T01:46:47.000Z</time>
      </trkpt>
      <trkpt lat="42.750192" lon="-7.9016">
        <ele>640.1</ele>
        <time>1970-01-01T01:46:48.000Z</time>
      </trkpt>
      <trkpt lat="42.750209" lon="-7.901625">
        <ele>640.5</ele>
        <time>1970-01-01T01:46:49.000Z</time>
      </trkpt>
      <trkpt lat="42.750226" lon="-7.901654">
        <ele>640.5</ele>
        <time>1970-01-01T01:46:50.000Z</time>
      </trkpt>
      <trkpt lat="42.750245" lon="-7.901685">
        <ele>640.8</ele>
        <time>1970-01-01T01:46:51.000Z</time>
      </trkpt>
      <trkpt lat="42.750256" lon="-7.901713">
        <ele>641.3</ele>
        <time>1970-01-01T01:46:52.000Z</time>
      </trkpt>
      <trkpt lat="42.750265" lon="-7.901747">
        <ele>641.4</ele>
        <time>1970-01-01T01:46:53.000Z</time>
      </trkpt>
      <trkpt lat="42.75027" lon="-7.901784">
        <ele>641.4</ele>
        <time>1970-01-01T01:46:54.000Z</time>
      </trkpt>
      <trkpt lat="42.750278" lon="-7.901814">
        <ele>641.9</ele>
        <time>1970-01-01T01:46:55.000Z</time>
      </trkpt>
      <trkpt lat="42.750288" lon="-7.901845">
        <ele>642.3</ele>
        <time>1970-01-01T01:46:56.000Z</time>
      </trkpt>
      <trkpt lat="42.750296" lon="-7.901877">
        <ele>642.3</ele>
        <time>1970-01-01T01:46:57.000Z</time>
      </trkpt>
      <trkpt lat="42.750303" lon="-7.901897">
        <ele>642.3</ele>
        <time>1970-01-01T01:46:58.000Z</time>
      </trkpt>
      <trkpt lat="42.750311" lon="-7.90192">
        <ele>642.7</ele>
        <time>1970-01-01T01:46:59.000Z</time>
      </trkpt>
      <trkpt lat="42.750317" lon="-7.901947">
        <ele>642.7</ele>
        <time>1970-01-01T01:47:00.000Z</time>
      </trkpt>
      <trkpt lat="42.750322" lon="-7.901974">
        <ele>642.5</ele>
        <time>1970-01-01T01:47:01.000Z</time>
      </trkpt>
      <trkpt lat="42.750329" lon="-7.902002">
        <ele>642.5</ele>
        <time>1970-01-01T01:47:02.000Z</time>
      </trkpt>
      <trkpt lat="42.750335" lon="-7.902019">
        <ele>642.8</ele>
        <time>1970-01-01T01:47:03.000Z</time>
      </trkpt>
      <trkpt lat="42.750339" lon="-7.90204">
        <ele>642.8</ele>
        <time>1970-01-01T01:47:04.000Z</time>
      </trkpt>
      <trkpt lat="42.750346" lon="-7.902056">
        <ele>643.1</ele>
        <time>1970-01-01T01:47:05.000Z</time>
      </trkpt>
      <trkpt lat="42.750352" lon="-7.902084">
        <ele>643.1</ele>
        <time>1970-01-01T01:47:06.000Z</time>
      </trkpt>
      <trkpt lat="42.75036" lon="-7.90211">
        <ele>642.9</ele>
        <time>1970-01-01T01:47:07.000Z</time>
      </trkpt>
      <trkpt lat="42.750365" lon="-7.902131">
        <ele>642.9</ele>
        <time>1970-01-01T01:47:08.000Z</time>
      </trkpt>
      <trkpt lat="42.750373" lon="-7.902145">
        <ele>643.2</ele>
        <time>1970-01-01T01:47:09.000Z</time>
      </trkpt>
      <trkpt lat="42.750381" lon="-7.902165">
        <ele>643.2</ele>
        <time>1970-01-01T01:47:10.000Z</time>
      </trkpt>
      <trkpt lat="42.750383" lon="-7.902197">
        <ele>643.4</ele>
        <time>1970-01-01T01:47:11.000Z</time>
      </trkpt>
      <trkpt lat="42.750388" lon="-7.902219">
        <ele>643.3</ele>
        <time>1970-01-01T01:47:12.000Z</time>
      </trkpt>
      <trkpt lat="42.75039" lon="-7.902244">
        <ele>643.3</ele>
        <time>1970-01-01T01:47:13.000Z</time>
      </trkpt>
      <trkpt lat="42.750394" lon="-7.902264">
        <ele>643.6</ele>
        <time>1970-01-01T01:47:14.000Z</time>
      </trkpt>
      <trkpt lat="42.750401" lon="-7.902284">
        <ele>643.6</ele>
        <time>1970-01-01T01:47:15.000Z</time>
      </trkpt>
      <trkpt lat="42.750405" lon="-7.902311">
        <ele>643.9</ele>
        <time>1970-01-01T01:47:16.000Z</time>
      </trkpt>
      <trkpt lat="42.750403" lon="-7.90234">
        <ele>643.9</ele>
        <time>1970-01-01T01:47:17.000Z</time>
      </trkpt>
      <trkpt lat="42.750407" lon="-7.902365">
        <ele>644.2</ele>
        <time>1970-01-01T01:47:18.000Z</time>
      </trkpt>
      <trkpt lat="42.750418" lon="-7.902415">
        <ele>644.1</ele>
        <time>1970-01-01T01:47:19.000Z</time>
      </trkpt>
      <trkpt lat="42.750418" lon="-7.902415">
        <ele>644.1</ele>
        <time>1970-01-01T01:47:20.000Z</time>
      </trkpt>
      <trkpt lat="42.750424" lon="-7.902437">
        <ele>644.4</ele>
        <time>1970-01-01T01:47:21.000Z</time>
      </trkpt>
      <trkpt lat="42.75043" lon="-7.90246">
        <ele>644.4</ele>
        <time>1970-01-01T01:47:22.000Z</time>
      </trkpt>
      <trkpt lat="42.750441" lon="-7.902481">
        <ele>644.7</ele>
        <time>1970-01-01T01:47:23.000Z</time>
      </trkpt>
      <trkpt lat="42.750448" lon="-7.902501">
        <ele>644.3</ele>
        <time>1970-01-01T01:47:24.000Z</time>
      </trkpt>
      <trkpt lat="42.750476" lon="-7.902531">
        <ele>644.6</ele>
        <time>1970-01-01T01:47:25.000Z</time>
      </trkpt>
      <trkpt lat="42.750476" lon="-7.902531">
        <ele>644.6</ele>
        <time>1970-01-01T01:47:26.000Z</time>
      </trkpt>
      <trkpt lat="42.750494" lon="-7.902551">
        <ele>644.1</ele>
        <time>1970-01-01T01:47:27.000Z</time>
      </trkpt>
      <trkpt lat="42.750509" lon="-7.902564">
        <ele>644.4</ele>
        <time>1970-01-01T01:47:28.000Z</time>
      </trkpt>
      <trkpt lat="42.75053" lon="-7.902582">
        <ele>643.9</ele>
        <time>1970-01-01T01:47:29.000Z</time>
      </trkpt>
      <trkpt lat="42.75055" lon="-7.902597">
        <ele>643.3</ele>
        <time>1970-01-01T01:47:30.000Z</time>
      </trkpt>
      <trkpt lat="42.75057" lon="-7.902608">
        <ele>643.6</ele>
        <time>1970-01-01T01:47:31.000Z</time>
      </trkpt>
      <trkpt lat="42.750588" lon="-7.902619">
        <ele>643</ele>
        <time>1970-01-01T01:47:32.000Z</time>
      </trkpt>
      <trkpt lat="42.75062" lon="-7.90264">
        <ele>642.5</ele>
        <time>1970-01-01T01:47:33.000Z</time>
      </trkpt>
      <trkpt lat="42.75062" lon="-7.90264">
        <ele>642.5</ele>
        <time>1970-01-01T01:47:34.000Z</time>
      </trkpt>
      <trkpt lat="42.750642" lon="-7.902651">
        <ele>642.2</ele>
        <time>1970-01-01T01:47:35.000Z</time>
      </trkpt>
      <trkpt lat="42.750653" lon="-7.902665">
        <ele>642.2</ele>
        <time>1970-01-01T01:47:36.000Z</time>
      </trkpt>
      <trkpt lat="42.75066" lon="-7.902684">
        <ele>642.2</ele>
        <time>1970-01-01T01:47:37.000Z</time>
      </trkpt>
      <trkpt lat="42.750671" lon="-7.902703">
        <ele>641.9</ele>
        <time>1970-01-01T01:47:38.000Z</time>
      </trkpt>
      <trkpt lat="42.750678" lon="-7.902728">
        <ele>641.9</ele>
        <time>1970-01-01T01:47:39.000Z</time>
      </trkpt>
      <trkpt lat="42.750683" lon="-7.902749">
        <ele>642</ele>
        <time>1970-01-01T01:47:40.000Z</time>
      </trkpt>
      <trkpt lat="42.750689" lon="-7.902763">
        <ele>642</ele>
        <time>1970-01-01T01:47:41.000Z</time>
      </trkpt>
      <trkpt lat="42.750701" lon="-7.902781">
        <ele>641.6</ele>
        <time>1970-01-01T01:47:42.000Z</time>
      </trkpt>
      <trkpt lat="42.750708" lon="-7.902798">
        <ele>641.6</ele>
        <time>1970-01-01T01:47:43.000Z</time>
      </trkpt>
      <trkpt lat="42.750716" lon="-7.902814">
        <ele>641.6</ele>
        <time>1970-01-01T01:47:44.000Z</time>
      </trkpt>
      <trkpt lat="42.750722" lon="-7.902821">
        <ele>641.7</ele>
        <time>1970-01-01T01:47:45.000Z</time>
      </trkpt>
      <trkpt lat="42.750728" lon="-7.902837">
        <ele>641.7</ele>
        <time>1970-01-01T01:47:46.000Z</time>
      </trkpt>
      <trkpt lat="42.750731" lon="-7.90286">
        <ele>641.1</ele>
        <time>1970-01-01T01:47:47.000Z</time>
      </trkpt>
      <trkpt lat="42.750736" lon="-7.902887">
        <ele>641.1</ele>
        <time>1970-01-01T01:47:48.000Z</time>
      </trkpt>
      <trkpt lat="42.75074" lon="-7.90291">
        <ele>641.1</ele>
        <time>1970-01-01T01:47:49.000Z</time>
      </trkpt>
      <trkpt lat="42.750738" lon="-7.902926">
        <ele>641.1</ele>
        <time>1970-01-01T01:47:50.000Z</time>
      </trkpt>
      <trkpt lat="42.750739" lon="-7.902947">
        <ele>641</ele>
        <time>1970-01-01T01:47:51.000Z</time>
      </trkpt>
      <trkpt lat="42.750741" lon="-7.902964">
        <ele>641</ele>
        <time>1970-01-01T01:47:52.000Z</time>
      </trkpt>
      <trkpt lat="42.750744" lon="-7.90299">
        <ele>640.8</ele>
        <time>1970-01-01T01:47:53.000Z</time>
      </trkpt>
      <trkpt lat="42.750744" lon="-7.90299">
        <ele>640.8</ele>
        <time>1970-01-01T01:47:54.000Z</time>
      </trkpt>
      <trkpt lat="42.750751" lon="-7.903026">
        <ele>640.8</ele>
        <time>1970-01-01T01:47:55.000Z</time>
      </trkpt>
      <trkpt lat="42.750751" lon="-7.903026">
        <ele>640.8</ele>
        <time>1970-01-01T01:47:56.000Z</time>
      </trkpt>
      <trkpt lat="42.750751" lon="-7.903042">
        <ele>640.7</ele>
        <time>1970-01-01T01:47:57.000Z</time>
      </trkpt>
      <trkpt lat="42.750748" lon="-7.903063">
        <ele>640.7</ele>
        <time>1970-01-01T01:47:58.000Z</time>
      </trkpt>
      <trkpt lat="42.750746" lon="-7.903081">
        <ele>640.6</ele>
        <time>1970-01-01T01:47:59.000Z</time>
      </trkpt>
      <trkpt lat="42.75074" lon="-7.903101">
        <ele>640.6</ele>
        <time>1970-01-01T01:48:00.000Z</time>
      </trkpt>
      <trkpt lat="42.750742" lon="-7.903116">
        <ele>640.6</ele>
        <time>1970-01-01T01:48:01.000Z</time>
      </trkpt>
      <trkpt lat="42.750743" lon="-7.903129">
        <ele>640.5</ele>
        <time>1970-01-01T01:48:02.000Z</time>
      </trkpt>
      <trkpt lat="42.750738" lon="-7.903148">
        <ele>640.5</ele>
        <time>1970-01-01T01:48:03.000Z</time>
      </trkpt>
      <trkpt lat="42.750731" lon="-7.903172">
        <ele>640.4</ele>
        <time>1970-01-01T01:48:04.000Z</time>
      </trkpt>
      <trkpt lat="42.750731" lon="-7.903191">
        <ele>640.4</ele>
        <time>1970-01-01T01:48:05.000Z</time>
      </trkpt>
      <trkpt lat="42.750729" lon="-7.903231">
        <ele>640.9</ele>
        <time>1970-01-01T01:48:06.000Z</time>
      </trkpt>
      <trkpt lat="42.750729" lon="-7.903231">
        <ele>640.9</ele>
        <time>1970-01-01T01:48:07.000Z</time>
      </trkpt>
      <trkpt lat="42.750727" lon="-7.903249">
        <ele>640.9</ele>
        <time>1970-01-01T01:48:08.000Z</time>
      </trkpt>
      <trkpt lat="42.750724" lon="-7.90327">
        <ele>640.9</ele>
        <time>1970-01-01T01:48:09.000Z</time>
      </trkpt>
      <trkpt lat="42.750712" lon="-7.903302">
        <ele>641</ele>
        <time>1970-01-01T01:48:10.000Z</time>
      </trkpt>
      <trkpt lat="42.750712" lon="-7.903302">
        <ele>641</ele>
        <time>1970-01-01T01:48:11.000Z</time>
      </trkpt>
      <trkpt lat="42.750713" lon="-7.903316">
        <ele>641</ele>
        <time>1970-01-01T01:48:12.000Z</time>
      </trkpt>
      <trkpt lat="42.75071" lon="-7.903333">
        <ele>641</ele>
        <time>1970-01-01T01:48:13.000Z</time>
      </trkpt>
      <trkpt lat="42.750696" lon="-7.903371">
        <ele>641.6</ele>
        <time>1970-01-01T01:48:14.000Z</time>
      </trkpt>
      <trkpt lat="42.750688" lon="-7.903395">
        <ele>641.7</ele>
        <time>1970-01-01T01:48:15.000Z</time>
      </trkpt>
      <trkpt lat="42.750688" lon="-7.903395">
        <ele>641.7</ele>
        <time>1970-01-01T01:48:16.000Z</time>
      </trkpt>
      <trkpt lat="42.750684" lon="-7.903421">
        <ele>641.8</ele>
        <time>1970-01-01T01:48:17.000Z</time>
      </trkpt>
      <trkpt lat="42.750682" lon="-7.903438">
        <ele>641.8</ele>
        <time>1970-01-01T01:48:18.000Z</time>
      </trkpt>
      <trkpt lat="42.750677" lon="-7.903457">
        <ele>641.8</ele>
        <time>1970-01-01T01:48:19.000Z</time>
      </trkpt>
      <trkpt lat="42.750662" lon="-7.903502">
        <ele>642.5</ele>
        <time>1970-01-01T01:48:20.000Z</time>
      </trkpt>
      <trkpt lat="42.750653" lon="-7.903531">
        <ele>642.7</ele>
        <time>1970-01-01T01:48:21.000Z</time>
      </trkpt>
      <trkpt lat="42.750653" lon="-7.903531">
        <ele>642.7</ele>
        <time>1970-01-01T01:48:22.000Z</time>
      </trkpt>
      <trkpt lat="42.750642" lon="-7.903548">
        <ele>643</ele>
        <time>1970-01-01T01:48:23.000Z</time>
      </trkpt>
      <trkpt lat="42.750635" lon="-7.903568">
        <ele>643.4</ele>
        <time>1970-01-01T01:48:24.000Z</time>
      </trkpt>
      <trkpt lat="42.750626" lon="-7.90359">
        <ele>643.4</ele>
        <time>1970-01-01T01:48:25.000Z</time>
      </trkpt>
      <trkpt lat="42.750615" lon="-7.90361">
        <ele>643.7</ele>
        <time>1970-01-01T01:48:26.000Z</time>
      </trkpt>
      <trkpt lat="42.750604" lon="-7.903635">
        <ele>644.4</ele>
        <time>1970-01-01T01:48:27.000Z</time>
      </trkpt>
      <trkpt lat="42.750592" lon="-7.90366">
        <ele>644.4</ele>
        <time>1970-01-01T01:48:28.000Z</time>
      </trkpt>
      <trkpt lat="42.750569" lon="-7.903691">
        <ele>645.1</ele>
        <time>1970-01-01T01:48:29.000Z</time>
      </trkpt>
      <trkpt lat="42.750569" lon="-7.903691">
        <ele>645.1</ele>
        <time>1970-01-01T01:48:30.000Z</time>
      </trkpt>
      <trkpt lat="42.750551" lon="-7.903727">
        <ele>645.4</ele>
        <time>1970-01-01T01:48:31.000Z</time>
      </trkpt>
      <trkpt lat="42.750531" lon="-7.903754">
        <ele>645.7</ele>
        <time>1970-01-01T01:48:32.000Z</time>
      </trkpt>
      <trkpt lat="42.750521" lon="-7.903766">
        <ele>646</ele>
        <time>1970-01-01T01:48:33.000Z</time>
      </trkpt>
      <trkpt lat="42.750512" lon="-7.903777">
        <ele>646</ele>
        <time>1970-01-01T01:48:34.000Z</time>
      </trkpt>
      <trkpt lat="42.750512" lon="-7.903777">
        <ele>646</ele>
        <time>1970-01-01T01:48:35.000Z</time>
      </trkpt>
      <trkpt lat="42.750499" lon="-7.903791">
        <ele>646.4</ele>
        <time>1970-01-01T01:48:36.000Z</time>
      </trkpt>
      <trkpt lat="42.750466" lon="-7.903818">
        <ele>647</ele>
        <time>1970-01-01T01:48:37.000Z</time>
      </trkpt>
      <trkpt lat="42.750449" lon="-7.903834">
        <ele>647</ele>
        <time>1970-01-01T01:48:38.000Z</time>
      </trkpt>
      <trkpt lat="42.750449" lon="-7.903834">
        <ele>647</ele>
        <time>1970-01-01T01:48:39.000Z</time>
      </trkpt>
      <trkpt lat="42.750431" lon="-7.903853">
        <ele>647.6</ele>
        <time>1970-01-01T01:48:40.000Z</time>
      </trkpt>
      <trkpt lat="42.750413" lon="-7.903876">
        <ele>647.9</ele>
        <time>1970-01-01T01:48:41.000Z</time>
      </trkpt>
      <trkpt lat="42.750376" lon="-7.903918">
        <ele>648.4</ele>
        <time>1970-01-01T01:48:42.000Z</time>
      </trkpt>
      <trkpt lat="42.750359" lon="-7.903942">
        <ele>648.6</ele>
        <time>1970-01-01T01:48:43.000Z</time>
      </trkpt>
      <trkpt lat="42.750342" lon="-7.903966">
        <ele>648.9</ele>
        <time>1970-01-01T01:48:44.000Z</time>
      </trkpt>
      <trkpt lat="42.750325" lon="-7.903999">
        <ele>649.1</ele>
        <time>1970-01-01T01:48:45.000Z</time>
      </trkpt>
      <trkpt lat="42.750325" lon="-7.903999">
        <ele>649.1</ele>
        <time>1970-01-01T01:48:46.000Z</time>
      </trkpt>
      <trkpt lat="42.750308" lon="-7.904031">
        <ele>649.6</ele>
        <time>1970-01-01T01:48:47.000Z</time>
      </trkpt>
      <trkpt lat="42.750278" lon="-7.904093">
        <ele>650</ele>
        <time>1970-01-01T01:48:48.000Z</time>
      </trkpt>
      <trkpt lat="42.750264" lon="-7.904124">
        <ele>650.2</ele>
        <time>1970-01-01T01:48:49.000Z</time>
      </trkpt>
      <trkpt lat="42.750254" lon="-7.904154">
        <ele>650.5</ele>
        <time>1970-01-01T01:48:50.000Z</time>
      </trkpt>
      <trkpt lat="42.750243" lon="-7.904184">
        <ele>650.5</ele>
        <time>1970-01-01T01:48:51.000Z</time>
      </trkpt>
      <trkpt lat="42.750232" lon="-7.904214">
        <ele>650.6</ele>
        <time>1970-01-01T01:48:52.000Z</time>
      </trkpt>
      <trkpt lat="42.750224" lon="-7.904242">
        <ele>650.9</ele>
        <time>1970-01-01T01:48:53.000Z</time>
      </trkpt>
      <trkpt lat="42.750216" lon="-7.90427">
        <ele>650.9</ele>
        <time>1970-01-01T01:48:54.000Z</time>
      </trkpt>
      <trkpt lat="42.750208" lon="-7.904297">
        <ele>650.9</ele>
        <time>1970-01-01T01:48:55.000Z</time>
      </trkpt>
      <trkpt lat="42.7502" lon="-7.904319">
        <ele>650.9</ele>
        <time>1970-01-01T01:48:56.000Z</time>
      </trkpt>
      <trkpt lat="42.7502" lon="-7.904319">
        <ele>650.9</ele>
        <time>1970-01-01T01:48:57.000Z</time>
      </trkpt>
      <trkpt lat="42.750192" lon="-7.904345">
        <ele>651</ele>
        <time>1970-01-01T01:48:58.000Z</time>
      </trkpt>
      <trkpt lat="42.750181" lon="-7.904374">
        <ele>651</ele>
        <time>1970-01-01T01:48:59.000Z</time>
      </trkpt>
      <trkpt lat="42.750172" lon="-7.904399">
        <ele>651</ele>
        <time>1970-01-01T01:49:00.000Z</time>
      </trkpt>
      <trkpt lat="42.750163" lon="-7.904425">
        <ele>651.1</ele>
        <time>1970-01-01T01:49:01.000Z</time>
      </trkpt>
      <trkpt lat="42.750144" lon="-7.904478">
        <ele>651</ele>
        <time>1970-01-01T01:49:02.000Z</time>
      </trkpt>
      <trkpt lat="42.750136" lon="-7.904504">
        <ele>650.9</ele>
        <time>1970-01-01T01:49:03.000Z</time>
      </trkpt>
      <trkpt lat="42.750128" lon="-7.90453">
        <ele>651</ele>
        <time>1970-01-01T01:49:04.000Z</time>
      </trkpt>
      <trkpt lat="42.750123" lon="-7.904557">
        <ele>650.9</ele>
        <time>1970-01-01T01:49:05.000Z</time>
      </trkpt>
      <trkpt lat="42.750114" lon="-7.904585">
        <ele>650.9</ele>
        <time>1970-01-01T01:49:06.000Z</time>
      </trkpt>
      <trkpt lat="42.750106" lon="-7.904615">
        <ele>650.9</ele>
        <time>1970-01-01T01:49:07.000Z</time>
      </trkpt>
      <trkpt lat="42.750097" lon="-7.904644">
        <ele>650.9</ele>
        <time>1970-01-01T01:49:08.000Z</time>
      </trkpt>
      <trkpt lat="42.75009" lon="-7.904673">
        <ele>650.8</ele>
        <time>1970-01-01T01:49:09.000Z</time>
      </trkpt>
      <trkpt lat="42.750082" lon="-7.904702">
        <ele>650.8</ele>
        <time>1970-01-01T01:49:10.000Z</time>
      </trkpt>
      <trkpt lat="42.750073" lon="-7.90473">
        <ele>650.8</ele>
        <time>1970-01-01T01:49:11.000Z</time>
      </trkpt>
      <trkpt lat="42.750064" lon="-7.904758">
        <ele>650.9</ele>
        <time>1970-01-01T01:49:12.000Z</time>
      </trkpt>
      <trkpt lat="42.750057" lon="-7.904784">
        <ele>650.9</ele>
        <time>1970-01-01T01:49:13.000Z</time>
      </trkpt>
      <trkpt lat="42.750053" lon="-7.904809">
        <ele>650.8</ele>
        <time>1970-01-01T01:49:14.000Z</time>
      </trkpt>
      <trkpt lat="42.750048" lon="-7.904833">
        <ele>650.8</ele>
        <time>1970-01-01T01:49:15.000Z</time>
      </trkpt>
      <trkpt lat="42.750042" lon="-7.904858">
        <ele>650.8</ele>
        <time>1970-01-01T01:49:16.000Z</time>
      </trkpt>
      <trkpt lat="42.750042" lon="-7.904858">
        <ele>650.8</ele>
        <time>1970-01-01T01:49:17.000Z</time>
      </trkpt>
      <trkpt lat="42.750036" lon="-7.904883">
        <ele>651</ele>
        <time>1970-01-01T01:49:18.000Z</time>
      </trkpt>
      <trkpt lat="42.750025" lon="-7.904932">
        <ele>651</ele>
        <time>1970-01-01T01:49:19.000Z</time>
      </trkpt>
      <trkpt lat="42.75002" lon="-7.904957">
        <ele>651</ele>
        <time>1970-01-01T01:49:20.000Z</time>
      </trkpt>
      <trkpt lat="42.750014" lon="-7.90498">
        <ele>651.1</ele>
        <time>1970-01-01T01:49:21.000Z</time>
      </trkpt>
      <trkpt lat="42.750014" lon="-7.90498">
        <ele>651.1</ele>
        <time>1970-01-01T01:49:22.000Z</time>
      </trkpt>
      <trkpt lat="42.750006" lon="-7.905027">
        <ele>651.3</ele>
        <time>1970-01-01T01:49:23.000Z</time>
      </trkpt>
      <trkpt lat="42.750002" lon="-7.905049">
        <ele>651.3</ele>
        <time>1970-01-01T01:49:24.000Z</time>
      </trkpt>
      <trkpt lat="42.750002" lon="-7.905049">
        <ele>651.3</ele>
        <time>1970-01-01T01:49:25.000Z</time>
      </trkpt>
      <trkpt lat="42.749996" lon="-7.905092">
        <ele>651.4</ele>
        <time>1970-01-01T01:49:26.000Z</time>
      </trkpt>
      <trkpt lat="42.749993" lon="-7.905114">
        <ele>651.6</ele>
        <time>1970-01-01T01:49:27.000Z</time>
      </trkpt>
      <trkpt lat="42.749993" lon="-7.905114">
        <ele>651.6</ele>
        <time>1970-01-01T01:49:28.000Z</time>
      </trkpt>
      <trkpt lat="42.749987" lon="-7.905157">
        <ele>651.7</ele>
        <time>1970-01-01T01:49:29.000Z</time>
      </trkpt>
      <trkpt lat="42.749986" lon="-7.905177">
        <ele>651.7</ele>
        <time>1970-01-01T01:49:30.000Z</time>
      </trkpt>
      <trkpt lat="42.749986" lon="-7.905197">
        <ele>651.9</ele>
        <time>1970-01-01T01:49:31.000Z</time>
      </trkpt>
      <trkpt lat="42.749983" lon="-7.905218">
        <ele>651.9</ele>
        <time>1970-01-01T01:49:32.000Z</time>
      </trkpt>
      <trkpt lat="42.74998" lon="-7.905239">
        <ele>652.1</ele>
        <time>1970-01-01T01:49:33.000Z</time>
      </trkpt>
      <trkpt lat="42.749975" lon="-7.905263">
        <ele>652.1</ele>
        <time>1970-01-01T01:49:34.000Z</time>
      </trkpt>
      <trkpt lat="42.749971" lon="-7.905289">
        <ele>652.5</ele>
        <time>1970-01-01T01:49:35.000Z</time>
      </trkpt>
      <trkpt lat="42.749966" lon="-7.905315">
        <ele>652.8</ele>
        <time>1970-01-01T01:49:36.000Z</time>
      </trkpt>
      <trkpt lat="42.74996" lon="-7.905343">
        <ele>652.8</ele>
        <time>1970-01-01T01:49:37.000Z</time>
      </trkpt>
      <trkpt lat="42.749957" lon="-7.905372">
        <ele>653.1</ele>
        <time>1970-01-01T01:49:38.000Z</time>
      </trkpt>
      <trkpt lat="42.749952" lon="-7.905401">
        <ele>653.4</ele>
        <time>1970-01-01T01:49:39.000Z</time>
      </trkpt>
      <trkpt lat="42.749948" lon="-7.905428">
        <ele>653.4</ele>
        <time>1970-01-01T01:49:40.000Z</time>
      </trkpt>
      <trkpt lat="42.74994" lon="-7.90546">
        <ele>653.9</ele>
        <time>1970-01-01T01:49:41.000Z</time>
      </trkpt>
      <trkpt lat="42.749932" lon="-7.905488">
        <ele>654.3</ele>
        <time>1970-01-01T01:49:42.000Z</time>
      </trkpt>
      <trkpt lat="42.749924" lon="-7.905516">
        <ele>654.3</ele>
        <time>1970-01-01T01:49:43.000Z</time>
      </trkpt>
      <trkpt lat="42.749916" lon="-7.905545">
        <ele>654.6</ele>
        <time>1970-01-01T01:49:44.000Z</time>
      </trkpt>
      <trkpt lat="42.749909" lon="-7.905575">
        <ele>655.2</ele>
        <time>1970-01-01T01:49:45.000Z</time>
      </trkpt>
      <trkpt lat="42.749905" lon="-7.905602">
        <ele>655.2</ele>
        <time>1970-01-01T01:49:46.000Z</time>
      </trkpt>
      <trkpt lat="42.749901" lon="-7.90563">
        <ele>655.5</ele>
        <time>1970-01-01T01:49:47.000Z</time>
      </trkpt>
      <trkpt lat="42.749901" lon="-7.90563">
        <ele>655.5</ele>
        <time>1970-01-01T01:49:48.000Z</time>
      </trkpt>
      <trkpt lat="42.749896" lon="-7.905668">
        <ele>655.8</ele>
        <time>1970-01-01T01:49:49.000Z</time>
      </trkpt>
      <trkpt lat="42.749894" lon="-7.905687">
        <ele>655.8</ele>
        <time>1970-01-01T01:49:50.000Z</time>
      </trkpt>
      <trkpt lat="42.749893" lon="-7.905709">
        <ele>656.1</ele>
        <time>1970-01-01T01:49:51.000Z</time>
      </trkpt>
      <trkpt lat="42.749893" lon="-7.905734">
        <ele>656.1</ele>
        <time>1970-01-01T01:49:52.000Z</time>
      </trkpt>
      <trkpt lat="42.749893" lon="-7.90576">
        <ele>656.4</ele>
        <time>1970-01-01T01:49:53.000Z</time>
      </trkpt>
      <trkpt lat="42.749895" lon="-7.90579">
        <ele>656.7</ele>
        <time>1970-01-01T01:49:54.000Z</time>
      </trkpt>
      <trkpt lat="42.749893" lon="-7.905819">
        <ele>656.7</ele>
        <time>1970-01-01T01:49:55.000Z</time>
      </trkpt>
      <trkpt lat="42.74989" lon="-7.905847">
        <ele>657</ele>
        <time>1970-01-01T01:49:56.000Z</time>
      </trkpt>
      <trkpt lat="42.749889" lon="-7.905876">
        <ele>657.2</ele>
        <time>1970-01-01T01:49:57.000Z</time>
      </trkpt>
      <trkpt lat="42.74989" lon="-7.905905">
        <ele>657.2</ele>
        <time>1970-01-01T01:49:58.000Z</time>
      </trkpt>
      <trkpt lat="42.749891" lon="-7.905935">
        <ele>657.5</ele>
        <time>1970-01-01T01:49:59.000Z</time>
      </trkpt>
      <trkpt lat="42.749892" lon="-7.905964">
        <ele>657.8</ele>
        <time>1970-01-01T01:50:00.000Z</time>
      </trkpt>
      <trkpt lat="42.749893" lon="-7.905994">
        <ele>658</ele>
        <time>1970-01-01T01:50:01.000Z</time>
      </trkpt>
      <trkpt lat="42.749892" lon="-7.906025">
        <ele>658</ele>
        <time>1970-01-01T01:50:02.000Z</time>
      </trkpt>
      <trkpt lat="42.749891" lon="-7.906057">
        <ele>658.2</ele>
        <time>1970-01-01T01:50:03.000Z</time>
      </trkpt>
      <trkpt lat="42.74989" lon="-7.906087">
        <ele>658.4</ele>
        <time>1970-01-01T01:50:04.000Z</time>
      </trkpt>
      <trkpt lat="42.749889" lon="-7.906113">
        <ele>658.4</ele>
        <time>1970-01-01T01:50:05.000Z</time>
      </trkpt>
      <trkpt lat="42.749888" lon="-7.90614">
        <ele>658.6</ele>
        <time>1970-01-01T01:50:06.000Z</time>
      </trkpt>
      <trkpt lat="42.749888" lon="-7.906169">
        <ele>658.7</ele>
        <time>1970-01-01T01:50:07.000Z</time>
      </trkpt>
      <trkpt lat="42.749886" lon="-7.906196">
        <ele>658.7</ele>
        <time>1970-01-01T01:50:08.000Z</time>
      </trkpt>
      <trkpt lat="42.749883" lon="-7.906222">
        <ele>658.9</ele>
        <time>1970-01-01T01:50:09.000Z</time>
      </trkpt>
      <trkpt lat="42.749882" lon="-7.90625">
        <ele>658.9</ele>
        <time>1970-01-01T01:50:10.000Z</time>
      </trkpt>
      <trkpt lat="42.749886" lon="-7.90628">
        <ele>659.1</ele>
        <time>1970-01-01T01:50:11.000Z</time>
      </trkpt>
      <trkpt lat="42.749894" lon="-7.906307">
        <ele>659.3</ele>
        <time>1970-01-01T01:50:12.000Z</time>
      </trkpt>
      <trkpt lat="42.749902" lon="-7.906337">
        <ele>659.5</ele>
        <time>1970-01-01T01:50:13.000Z</time>
      </trkpt>
      <trkpt lat="42.749909" lon="-7.906375">
        <ele>659.5</ele>
        <time>1970-01-01T01:50:14.000Z</time>
      </trkpt>
      <trkpt lat="42.749919" lon="-7.906401">
        <ele>659.6</ele>
        <time>1970-01-01T01:50:15.000Z</time>
      </trkpt>
      <trkpt lat="42.749933" lon="-7.906425">
        <ele>659.7</ele>
        <time>1970-01-01T01:50:16.000Z</time>
      </trkpt>
      <trkpt lat="42.749953" lon="-7.906442">
        <ele>659.7</ele>
        <time>1970-01-01T01:50:17.000Z</time>
      </trkpt>
      <trkpt lat="42.749972" lon="-7.906461">
        <ele>659.8</ele>
        <time>1970-01-01T01:50:18.000Z</time>
      </trkpt>
      <trkpt lat="42.749992" lon="-7.906479">
        <ele>659.8</ele>
        <time>1970-01-01T01:50:19.000Z</time>
      </trkpt>
      <trkpt lat="42.750014" lon="-7.906497">
        <ele>659.8</ele>
        <time>1970-01-01T01:50:20.000Z</time>
      </trkpt>
      <trkpt lat="42.750035" lon="-7.906515">
        <ele>659.9</ele>
        <time>1970-01-01T01:50:21.000Z</time>
      </trkpt>
      <trkpt lat="42.750054" lon="-7.906535">
        <ele>659.9</ele>
        <time>1970-01-01T01:50:22.000Z</time>
      </trkpt>
      <trkpt lat="42.750075" lon="-7.906555">
        <ele>660</ele>
        <time>1970-01-01T01:50:23.000Z</time>
      </trkpt>
      <trkpt lat="42.750094" lon="-7.906578">
        <ele>660</ele>
        <time>1970-01-01T01:50:24.000Z</time>
      </trkpt>
      <trkpt lat="42.750109" lon="-7.906605">
        <ele>660</ele>
        <time>1970-01-01T01:50:25.000Z</time>
      </trkpt>
      <trkpt lat="42.750122" lon="-7.906637">
        <ele>660.1</ele>
        <time>1970-01-01T01:50:26.000Z</time>
      </trkpt>
      <trkpt lat="42.750132" lon="-7.906671">
        <ele>660.1</ele>
        <time>1970-01-01T01:50:27.000Z</time>
      </trkpt>
      <trkpt lat="42.750145" lon="-7.906705">
        <ele>660.2</ele>
        <time>1970-01-01T01:50:28.000Z</time>
      </trkpt>
      <trkpt lat="42.750157" lon="-7.906736">
        <ele>660.3</ele>
        <time>1970-01-01T01:50:29.000Z</time>
      </trkpt>
      <trkpt lat="42.750172" lon="-7.906759">
        <ele>660.3</ele>
        <time>1970-01-01T01:50:30.000Z</time>
      </trkpt>
      <trkpt lat="42.750178" lon="-7.906784">
        <ele>660.4</ele>
        <time>1970-01-01T01:50:31.000Z</time>
      </trkpt>
      <trkpt lat="42.750182" lon="-7.906811">
        <ele>660.4</ele>
        <time>1970-01-01T01:50:32.000Z</time>
      </trkpt>
      <trkpt lat="42.750191" lon="-7.906839">
        <ele>660.5</ele>
        <time>1970-01-01T01:50:33.000Z</time>
      </trkpt>
      <trkpt lat="42.750199" lon="-7.906871">
        <ele>660.6</ele>
        <time>1970-01-01T01:50:34.000Z</time>
      </trkpt>
      <trkpt lat="42.750207" lon="-7.906901">
        <ele>660.7</ele>
        <time>1970-01-01T01:50:35.000Z</time>
      </trkpt>
      <trkpt lat="42.750218" lon="-7.90693">
        <ele>660.9</ele>
        <time>1970-01-01T01:50:36.000Z</time>
      </trkpt>
      <trkpt lat="42.750232" lon="-7.90696">
        <ele>661.1</ele>
        <time>1970-01-01T01:50:37.000Z</time>
      </trkpt>
      <trkpt lat="42.750247" lon="-7.906991">
        <ele>661.3</ele>
        <time>1970-01-01T01:50:38.000Z</time>
      </trkpt>
      <trkpt lat="42.750257" lon="-7.907024">
        <ele>661.4</ele>
        <time>1970-01-01T01:50:39.000Z</time>
      </trkpt>
      <trkpt lat="42.750273" lon="-7.907057">
        <ele>661.6</ele>
        <time>1970-01-01T01:50:40.000Z</time>
      </trkpt>
      <trkpt lat="42.75029" lon="-7.90709">
        <ele>662.4</ele>
        <time>1970-01-01T01:50:41.000Z</time>
      </trkpt>
      <trkpt lat="42.750306" lon="-7.907124">
        <ele>662.7</ele>
        <time>1970-01-01T01:50:42.000Z</time>
      </trkpt>
      <trkpt lat="42.750321" lon="-7.907157">
        <ele>662.9</ele>
        <time>1970-01-01T01:50:43.000Z</time>
      </trkpt>
      <trkpt lat="42.750335" lon="-7.907189">
        <ele>663.2</ele>
        <time>1970-01-01T01:50:44.000Z</time>
      </trkpt>
      <trkpt lat="42.75035" lon="-7.907215">
        <ele>663.4</ele>
        <time>1970-01-01T01:50:45.000Z</time>
      </trkpt>
      <trkpt lat="42.750367" lon="-7.907234">
        <ele>663.6</ele>
        <time>1970-01-01T01:50:46.000Z</time>
      </trkpt>
      <trkpt lat="42.750384" lon="-7.907251">
        <ele>663.7</ele>
        <time>1970-01-01T01:50:47.000Z</time>
      </trkpt>
      <trkpt lat="42.750406" lon="-7.90726">
        <ele>663.9</ele>
        <time>1970-01-01T01:50:48.000Z</time>
      </trkpt>
      <trkpt lat="42.750431" lon="-7.907262">
        <ele>664</ele>
        <time>1970-01-01T01:50:49.000Z</time>
      </trkpt>
      <trkpt lat="42.750462" lon="-7.907261">
        <ele>664</ele>
        <time>1970-01-01T01:50:50.000Z</time>
      </trkpt>
      <trkpt lat="42.750494" lon="-7.907251">
        <ele>664</ele>
        <time>1970-01-01T01:50:51.000Z</time>
      </trkpt>
      <trkpt lat="42.75053" lon="-7.907236">
        <ele>664</ele>
        <time>1970-01-01T01:50:52.000Z</time>
      </trkpt>
      <trkpt lat="42.75057" lon="-7.907217">
        <ele>664</ele>
        <time>1970-01-01T01:50:53.000Z</time>
      </trkpt>
      <trkpt lat="42.750609" lon="-7.907199">
        <ele>664</ele>
        <time>1970-01-01T01:50:54.000Z</time>
      </trkpt>
      <trkpt lat="42.750654" lon="-7.907188">
        <ele>664</ele>
        <time>1970-01-01T01:50:55.000Z</time>
      </trkpt>
      <trkpt lat="42.750707" lon="-7.907189">
        <ele>664</ele>
        <time>1970-01-01T01:50:56.000Z</time>
      </trkpt>
      <trkpt lat="42.750767" lon="-7.907196">
        <ele>664</ele>
        <time>1970-01-01T01:50:57.000Z</time>
      </trkpt>
      <trkpt lat="42.750829" lon="-7.907208">
        <ele>664</ele>
        <time>1970-01-01T01:50:58.000Z</time>
      </trkpt>
      <trkpt lat="42.750889" lon="-7.907221">
        <ele>664.3</ele>
        <time>1970-01-01T01:50:59.000Z</time>
      </trkpt>
      <trkpt lat="42.750948" lon="-7.907235">
        <ele>664.4</ele>
        <time>1970-01-01T01:51:00.000Z</time>
      </trkpt>
      <trkpt lat="42.751007" lon="-7.907247">
        <ele>665.1</ele>
        <time>1970-01-01T01:51:01.000Z</time>
      </trkpt>
      <trkpt lat="42.751065" lon="-7.90725">
        <ele>665.5</ele>
        <time>1970-01-01T01:51:02.000Z</time>
      </trkpt>
      <trkpt lat="42.751123" lon="-7.907245">
        <ele>665.9</ele>
        <time>1970-01-01T01:51:03.000Z</time>
      </trkpt>
      <trkpt lat="42.751177" lon="-7.907233">
        <ele>665.9</ele>
        <time>1970-01-01T01:51:04.000Z</time>
      </trkpt>
      <trkpt lat="42.751231" lon="-7.907217">
        <ele>666.2</ele>
        <time>1970-01-01T01:51:05.000Z</time>
      </trkpt>
      <trkpt lat="42.751281" lon="-7.907198">
        <ele>666.6</ele>
        <time>1970-01-01T01:51:06.000Z</time>
      </trkpt>
      <trkpt lat="42.751328" lon="-7.907176">
        <ele>666.5</ele>
        <time>1970-01-01T01:51:07.000Z</time>
      </trkpt>
      <trkpt lat="42.751371" lon="-7.907147">
        <ele>666.7</ele>
        <time>1970-01-01T01:51:08.000Z</time>
      </trkpt>
      <trkpt lat="42.751414" lon="-7.907115">
        <ele>667</ele>
        <time>1970-01-01T01:51:09.000Z</time>
      </trkpt>
      <trkpt lat="42.751457" lon="-7.907076">
        <ele>667.4</ele>
        <time>1970-01-01T01:51:10.000Z</time>
      </trkpt>
      <trkpt lat="42.751493" lon="-7.907039">
        <ele>667.4</ele>
        <time>1970-01-01T01:51:11.000Z</time>
      </trkpt>
      <trkpt lat="42.751523" lon="-7.907006">
        <ele>667.5</ele>
        <time>1970-01-01T01:51:12.000Z</time>
      </trkpt>
      <trkpt lat="42.751558" lon="-7.906983">
        <ele>667.9</ele>
        <time>1970-01-01T01:51:13.000Z</time>
      </trkpt>
      <trkpt lat="42.751596" lon="-7.90696">
        <ele>668</ele>
        <time>1970-01-01T01:51:14.000Z</time>
      </trkpt>
      <trkpt lat="42.751634" lon="-7.906941">
        <ele>668.4</ele>
        <time>1970-01-01T01:51:15.000Z</time>
      </trkpt>
      <trkpt lat="42.751671" lon="-7.906915">
        <ele>668.5</ele>
        <time>1970-01-01T01:51:16.000Z</time>
      </trkpt>
      <trkpt lat="42.751705" lon="-7.906885">
        <ele>668.6</ele>
        <time>1970-01-01T01:51:17.000Z</time>
      </trkpt>
      <trkpt lat="42.751736" lon="-7.906854">
        <ele>668.9</ele>
        <time>1970-01-01T01:51:18.000Z</time>
      </trkpt>
      <trkpt lat="42.751763" lon="-7.90682">
        <ele>668.9</ele>
        <time>1970-01-01T01:51:19.000Z</time>
      </trkpt>
      <trkpt lat="42.751787" lon="-7.906784">
        <ele>669</ele>
        <time>1970-01-01T01:51:20.000Z</time>
      </trkpt>
      <trkpt lat="42.751812" lon="-7.906749">
        <ele>669</ele>
        <time>1970-01-01T01:51:21.000Z</time>
      </trkpt>
      <trkpt lat="42.751834" lon="-7.906717">
        <ele>669</ele>
        <time>1970-01-01T01:51:22.000Z</time>
      </trkpt>
      <trkpt lat="42.751856" lon="-7.906684">
        <ele>669</ele>
        <time>1970-01-01T01:51:23.000Z</time>
      </trkpt>
      <trkpt lat="42.75188" lon="-7.906653">
        <ele>669</ele>
        <time>1970-01-01T01:51:24.000Z</time>
      </trkpt>
      <trkpt lat="42.751898" lon="-7.906631">
        <ele>669.1</ele>
        <time>1970-01-01T01:51:25.000Z</time>
      </trkpt>
      <trkpt lat="42.751921" lon="-7.906609">
        <ele>669.1</ele>
        <time>1970-01-01T01:51:26.000Z</time>
      </trkpt>
      <trkpt lat="42.751943" lon="-7.906581">
        <ele>669.1</ele>
        <time>1970-01-01T01:51:27.000Z</time>
      </trkpt>
      <trkpt lat="42.751968" lon="-7.906549">
        <ele>669.1</ele>
        <time>1970-01-01T01:51:28.000Z</time>
      </trkpt>
      <trkpt lat="42.751994" lon="-7.906514">
        <ele>669.2</ele>
        <time>1970-01-01T01:51:29.000Z</time>
      </trkpt>
      <trkpt lat="42.752019" lon="-7.906481">
        <ele>669</ele>
        <time>1970-01-01T01:51:30.000Z</time>
      </trkpt>
      <trkpt lat="42.752043" lon="-7.906444">
        <ele>668.8</ele>
        <time>1970-01-01T01:51:31.000Z</time>
      </trkpt>
      <trkpt lat="42.752068" lon="-7.906408">
        <ele>668.6</ele>
        <time>1970-01-01T01:51:32.000Z</time>
      </trkpt>
      <trkpt lat="42.752093" lon="-7.906371">
        <ele>668.2</ele>
        <time>1970-01-01T01:51:33.000Z</time>
      </trkpt>
      <trkpt lat="42.752118" lon="-7.906336">
        <ele>667.9</ele>
        <time>1970-01-01T01:51:34.000Z</time>
      </trkpt>
      <trkpt lat="42.752142" lon="-7.9063">
        <ele>667.9</ele>
        <time>1970-01-01T01:51:35.000Z</time>
      </trkpt>
      <trkpt lat="42.752166" lon="-7.906267">
        <ele>667.5</ele>
        <time>1970-01-01T01:51:36.000Z</time>
      </trkpt>
      <trkpt lat="42.75219" lon="-7.906231">
        <ele>667.1</ele>
        <time>1970-01-01T01:51:37.000Z</time>
      </trkpt>
      <trkpt lat="42.752213" lon="-7.906192">
        <ele>666.7</ele>
        <time>1970-01-01T01:51:38.000Z</time>
      </trkpt>
      <trkpt lat="42.752237" lon="-7.906152">
        <ele>666.5</ele>
        <time>1970-01-01T01:51:39.000Z</time>
      </trkpt>
      <trkpt lat="42.752262" lon="-7.906112">
        <ele>666.1</ele>
        <time>1970-01-01T01:51:40.000Z</time>
      </trkpt>
      <trkpt lat="42.752283" lon="-7.90607">
        <ele>665.7</ele>
        <time>1970-01-01T01:51:41.000Z</time>
      </trkpt>
      <trkpt lat="42.752308" lon="-7.90603">
        <ele>665.2</ele>
        <time>1970-01-01T01:51:42.000Z</time>
      </trkpt>
      <trkpt lat="42.752334" lon="-7.905992">
        <ele>665</ele>
        <time>1970-01-01T01:51:43.000Z</time>
      </trkpt>
      <trkpt lat="42.752361" lon="-7.905954">
        <ele>664.8</ele>
        <time>1970-01-01T01:51:44.000Z</time>
      </trkpt>
      <trkpt lat="42.752384" lon="-7.905914">
        <ele>664.5</ele>
        <time>1970-01-01T01:51:45.000Z</time>
      </trkpt>
      <trkpt lat="42.752408" lon="-7.905875">
        <ele>664.1</ele>
        <time>1970-01-01T01:51:46.000Z</time>
      </trkpt>
      <trkpt lat="42.75243" lon="-7.90584">
        <ele>663.9</ele>
        <time>1970-01-01T01:51:47.000Z</time>
      </trkpt>
      <trkpt lat="42.752451" lon="-7.905807">
        <ele>663.6</ele>
        <time>1970-01-01T01:51:48.000Z</time>
      </trkpt>
      <trkpt lat="42.752466" lon="-7.905775">
        <ele>663.4</ele>
        <time>1970-01-01T01:51:49.000Z</time>
      </trkpt>
      <trkpt lat="42.752486" lon="-7.90575">
        <ele>663.4</ele>
        <time>1970-01-01T01:51:50.000Z</time>
      </trkpt>
      <trkpt lat="42.752511" lon="-7.905729">
        <ele>663.1</ele>
        <time>1970-01-01T01:51:51.000Z</time>
      </trkpt>
      <trkpt lat="42.75254" lon="-7.905705">
        <ele>663</ele>
        <time>1970-01-01T01:51:52.000Z</time>
      </trkpt>
      <trkpt lat="42.752572" lon="-7.905678">
        <ele>662.8</ele>
        <time>1970-01-01T01:51:53.000Z</time>
      </trkpt>
      <trkpt lat="42.752605" lon="-7.905651">
        <ele>662.7</ele>
        <time>1970-01-01T01:51:54.000Z</time>
      </trkpt>
      <trkpt lat="42.752637" lon="-7.905626">
        <ele>662.5</ele>
        <time>1970-01-01T01:51:55.000Z</time>
      </trkpt>
      <trkpt lat="42.75267" lon="-7.905602">
        <ele>662.4</ele>
        <time>1970-01-01T01:51:56.000Z</time>
      </trkpt>
      <trkpt lat="42.752703" lon="-7.905582">
        <ele>662.3</ele>
        <time>1970-01-01T01:51:57.000Z</time>
      </trkpt>
      <trkpt lat="42.752735" lon="-7.905561">
        <ele>662.1</ele>
        <time>1970-01-01T01:51:58.000Z</time>
      </trkpt>
      <trkpt lat="42.752761" lon="-7.905546">
        <ele>661.9</ele>
        <time>1970-01-01T01:51:59.000Z</time>
      </trkpt>
      <trkpt lat="42.752793" lon="-7.905507">
        <ele>661.7</ele>
        <time>1970-01-01T01:52:00.000Z</time>
      </trkpt>
      <trkpt lat="42.752833" lon="-7.905468">
        <ele>661.5</ele>
        <time>1970-01-01T01:52:01.000Z</time>
      </trkpt>
      <trkpt lat="42.752882" lon="-7.905423">
        <ele>661.2</ele>
        <time>1970-01-01T01:52:02.000Z</time>
      </trkpt>
      <trkpt lat="42.752937" lon="-7.90537">
        <ele>661</ele>
        <time>1970-01-01T01:52:03.000Z</time>
      </trkpt>
      <trkpt lat="42.752992" lon="-7.905317">
        <ele>661</ele>
        <time>1970-01-01T01:52:04.000Z</time>
      </trkpt>
      <trkpt lat="42.753045" lon="-7.905272">
        <ele>660.8</ele>
        <time>1970-01-01T01:52:05.000Z</time>
      </trkpt>
      <trkpt lat="42.753098" lon="-7.905227">
        <ele>660.5</ele>
        <time>1970-01-01T01:52:06.000Z</time>
      </trkpt>
      <trkpt lat="42.753151" lon="-7.905185">
        <ele>660.4</ele>
        <time>1970-01-01T01:52:07.000Z</time>
      </trkpt>
      <trkpt lat="42.753202" lon="-7.905148">
        <ele>660.1</ele>
        <time>1970-01-01T01:52:08.000Z</time>
      </trkpt>
      <trkpt lat="42.753253" lon="-7.905115">
        <ele>659.5</ele>
        <time>1970-01-01T01:52:09.000Z</time>
      </trkpt>
      <trkpt lat="42.753304" lon="-7.905082">
        <ele>659.1</ele>
        <time>1970-01-01T01:52:10.000Z</time>
      </trkpt>
      <trkpt lat="42.753352" lon="-7.905047">
        <ele>658.3</ele>
        <time>1970-01-01T01:52:11.000Z</time>
      </trkpt>
      <trkpt lat="42.753394" lon="-7.905005">
        <ele>657.7</ele>
        <time>1970-01-01T01:52:12.000Z</time>
      </trkpt>
      <trkpt lat="42.753431" lon="-7.904954">
        <ele>657.2</ele>
        <time>1970-01-01T01:52:13.000Z</time>
      </trkpt>
      <trkpt lat="42.753467" lon="-7.904896">
        <ele>656.6</ele>
        <time>1970-01-01T01:52:14.000Z</time>
      </trkpt>
      <trkpt lat="42.753497" lon="-7.904831">
        <ele>655.7</ele>
        <time>1970-01-01T01:52:15.000Z</time>
      </trkpt>
      <trkpt lat="42.753531" lon="-7.904765">
        <ele>654.9</ele>
        <time>1970-01-01T01:52:16.000Z</time>
      </trkpt>
      <trkpt lat="42.753574" lon="-7.904699">
        <ele>653.3</ele>
        <time>1970-01-01T01:52:17.000Z</time>
      </trkpt>
      <trkpt lat="42.753621" lon="-7.904634">
        <ele>652.5</ele>
        <time>1970-01-01T01:52:18.000Z</time>
      </trkpt>
      <trkpt lat="42.753673" lon="-7.904566">
        <ele>651.1</ele>
        <time>1970-01-01T01:52:19.000Z</time>
      </trkpt>
      <trkpt lat="42.753721" lon="-7.9045">
        <ele>650.4</ele>
        <time>1970-01-01T01:52:20.000Z</time>
      </trkpt>
      <trkpt lat="42.753766" lon="-7.904433">
        <ele>649.2</ele>
        <time>1970-01-01T01:52:21.000Z</time>
      </trkpt>
      <trkpt lat="42.753809" lon="-7.904366">
        <ele>648.5</ele>
        <time>1970-01-01T01:52:22.000Z</time>
      </trkpt>
      <trkpt lat="42.753845" lon="-7.904296">
        <ele>647.7</ele>
        <time>1970-01-01T01:52:23.000Z</time>
      </trkpt>
      <trkpt lat="42.753875" lon="-7.904221">
        <ele>646.7</ele>
        <time>1970-01-01T01:52:24.000Z</time>
      </trkpt>
      <trkpt lat="42.753901" lon="-7.904152">
        <ele>646</ele>
        <time>1970-01-01T01:52:25.000Z</time>
      </trkpt>
      <trkpt lat="42.753923" lon="-7.904085">
        <ele>645</ele>
        <time>1970-01-01T01:52:26.000Z</time>
      </trkpt>
      <trkpt lat="42.753954" lon="-7.904019">
        <ele>644.1</ele>
        <time>1970-01-01T01:52:27.000Z</time>
      </trkpt>
      <trkpt lat="42.753991" lon="-7.903954">
        <ele>643.4</ele>
        <time>1970-01-01T01:52:28.000Z</time>
      </trkpt>
      <trkpt lat="42.754028" lon="-7.903887">
        <ele>642.6</ele>
        <time>1970-01-01T01:52:29.000Z</time>
      </trkpt>
      <trkpt lat="42.754059" lon="-7.903823">
        <ele>642.1</ele>
        <time>1970-01-01T01:52:30.000Z</time>
      </trkpt>
      <trkpt lat="42.754098" lon="-7.903764">
        <ele>641.5</ele>
        <time>1970-01-01T01:52:31.000Z</time>
      </trkpt>
      <trkpt lat="42.754146" lon="-7.903715">
        <ele>640.3</ele>
        <time>1970-01-01T01:52:32.000Z</time>
      </trkpt>
      <trkpt lat="42.754197" lon="-7.903681">
        <ele>640</ele>
        <time>1970-01-01T01:52:33.000Z</time>
      </trkpt>
      <trkpt lat="42.754253" lon="-7.903676">
        <ele>639.1</ele>
        <time>1970-01-01T01:52:34.000Z</time>
      </trkpt>
      <trkpt lat="42.754309" lon="-7.903694">
        <ele>639</ele>
        <time>1970-01-01T01:52:35.000Z</time>
      </trkpt>
      <trkpt lat="42.754368" lon="-7.903725">
        <ele>638.9</ele>
        <time>1970-01-01T01:52:36.000Z</time>
      </trkpt>
      <trkpt lat="42.75443" lon="-7.90376">
        <ele>638.5</ele>
        <time>1970-01-01T01:52:37.000Z</time>
      </trkpt>
      <trkpt lat="42.754495" lon="-7.903797">
        <ele>638.4</ele>
        <time>1970-01-01T01:52:38.000Z</time>
      </trkpt>
      <trkpt lat="42.754548" lon="-7.903842">
        <ele>638.4</ele>
        <time>1970-01-01T01:52:39.000Z</time>
      </trkpt>
      <trkpt lat="42.754595" lon="-7.903903">
        <ele>638.7</ele>
        <time>1970-01-01T01:52:40.000Z</time>
      </trkpt>
      <trkpt lat="42.754642" lon="-7.903973">
        <ele>638.8</ele>
        <time>1970-01-01T01:52:41.000Z</time>
      </trkpt>
      <trkpt lat="42.754687" lon="-7.904046">
        <ele>639.3</ele>
        <time>1970-01-01T01:52:42.000Z</time>
      </trkpt>
      <trkpt lat="42.754727" lon="-7.90412">
        <ele>639.9</ele>
        <time>1970-01-01T01:52:43.000Z</time>
      </trkpt>
      <trkpt lat="42.754757" lon="-7.904195">
        <ele>640.4</ele>
        <time>1970-01-01T01:52:44.000Z</time>
      </trkpt>
      <trkpt lat="42.754781" lon="-7.904274">
        <ele>640.6</ele>
        <time>1970-01-01T01:52:45.000Z</time>
      </trkpt>
      <trkpt lat="42.754801" lon="-7.904348">
        <ele>641</ele>
        <time>1970-01-01T01:52:46.000Z</time>
      </trkpt>
      <trkpt lat="42.754818" lon="-7.904419">
        <ele>641.4</ele>
        <time>1970-01-01T01:52:47.000Z</time>
      </trkpt>
      <trkpt lat="42.754838" lon="-7.904486">
        <ele>641.6</ele>
        <time>1970-01-01T01:52:48.000Z</time>
      </trkpt>
      <trkpt lat="42.754864" lon="-7.904542">
        <ele>641.9</ele>
        <time>1970-01-01T01:52:49.000Z</time>
      </trkpt>
      <trkpt lat="42.754896" lon="-7.90458">
        <ele>642.1</ele>
        <time>1970-01-01T01:52:50.000Z</time>
      </trkpt>
      <trkpt lat="42.754929" lon="-7.904605">
        <ele>642.1</ele>
        <time>1970-01-01T01:52:51.000Z</time>
      </trkpt>
      <trkpt lat="42.754964" lon="-7.904623">
        <ele>642.3</ele>
        <time>1970-01-01T01:52:52.000Z</time>
      </trkpt>
      <trkpt lat="42.755" lon="-7.904632">
        <ele>642.2</ele>
        <time>1970-01-01T01:52:53.000Z</time>
      </trkpt>
      <trkpt lat="42.755028" lon="-7.904632">
        <ele>642.2</ele>
        <time>1970-01-01T01:52:54.000Z</time>
      </trkpt>
      <trkpt lat="42.755063" lon="-7.904637">
        <ele>642.2</ele>
        <time>1970-01-01T01:52:55.000Z</time>
      </trkpt>
      <trkpt lat="42.755102" lon="-7.904643">
        <ele>642.2</ele>
        <time>1970-01-01T01:52:56.000Z</time>
      </trkpt>
      <trkpt lat="42.755137" lon="-7.904663">
        <ele>642.2</ele>
        <time>1970-01-01T01:52:57.000Z</time>
      </trkpt>
      <trkpt lat="42.755171" lon="-7.904696">
        <ele>642.3</ele>
        <time>1970-01-01T01:52:58.000Z</time>
      </trkpt>
      <trkpt lat="42.75519" lon="-7.904735">
        <ele>642.5</ele>
        <time>1970-01-01T01:52:59.000Z</time>
      </trkpt>
      <trkpt lat="42.755217" lon="-7.904779">
        <ele>642.6</ele>
        <time>1970-01-01T01:53:00.000Z</time>
      </trkpt>
      <trkpt lat="42.755246" lon="-7.904816">
        <ele>642.8</ele>
        <time>1970-01-01T01:53:01.000Z</time>
      </trkpt>
      <trkpt lat="42.755262" lon="-7.904847">
        <ele>642.9</ele>
        <time>1970-01-01T01:53:02.000Z</time>
      </trkpt>
      <trkpt lat="42.755269" lon="-7.904876">
        <ele>643</ele>
        <time>1970-01-01T01:53:03.000Z</time>
      </trkpt>
      <trkpt lat="42.755279" lon="-7.904908">
        <ele>643.1</ele>
        <time>1970-01-01T01:53:04.000Z</time>
      </trkpt>
      <trkpt lat="42.755281" lon="-7.904943">
        <ele>643.4</ele>
        <time>1970-01-01T01:53:05.000Z</time>
      </trkpt>
      <trkpt lat="42.755291" lon="-7.904983">
        <ele>643.7</ele>
        <time>1970-01-01T01:53:06.000Z</time>
      </trkpt>
      <trkpt lat="42.7553" lon="-7.905024">
        <ele>644</ele>
        <time>1970-01-01T01:53:07.000Z</time>
      </trkpt>
      <trkpt lat="42.755305" lon="-7.905064">
        <ele>644.5</ele>
        <time>1970-01-01T01:53:08.000Z</time>
      </trkpt>
      <trkpt lat="42.755308" lon="-7.905102">
        <ele>644.9</ele>
        <time>1970-01-01T01:53:09.000Z</time>
      </trkpt>
      <trkpt lat="42.755311" lon="-7.905138">
        <ele>645.3</ele>
        <time>1970-01-01T01:53:10.000Z</time>
      </trkpt>
      <trkpt lat="42.755319" lon="-7.905173">
        <ele>645.3</ele>
        <time>1970-01-01T01:53:11.000Z</time>
      </trkpt>
      <trkpt lat="42.755327" lon="-7.905204">
        <ele>645.7</ele>
        <time>1970-01-01T01:53:12.000Z</time>
      </trkpt>
      <trkpt lat="42.75533" lon="-7.905241">
        <ele>646.2</ele>
        <time>1970-01-01T01:53:13.000Z</time>
      </trkpt>
      <trkpt lat="42.755337" lon="-7.90527">
        <ele>646.9</ele>
        <time>1970-01-01T01:53:14.000Z</time>
      </trkpt>
      <trkpt lat="42.755343" lon="-7.905299">
        <ele>646.9</ele>
        <time>1970-01-01T01:53:15.000Z</time>
      </trkpt>
      <trkpt lat="42.755352" lon="-7.905314">
        <ele>647.4</ele>
        <time>1970-01-01T01:53:16.000Z</time>
      </trkpt>
      <trkpt lat="42.755359" lon="-7.905338">
        <ele>647.4</ele>
        <time>1970-01-01T01:53:17.000Z</time>
      </trkpt>
      <trkpt lat="42.755371" lon="-7.905361">
        <ele>648.1</ele>
        <time>1970-01-01T01:53:18.000Z</time>
      </trkpt>
      <trkpt lat="42.755378" lon="-7.905381">
        <ele>648.1</ele>
        <time>1970-01-01T01:53:19.000Z</time>
      </trkpt>
      <trkpt lat="42.75539" lon="-7.905407">
        <ele>648.6</ele>
        <time>1970-01-01T01:53:20.000Z</time>
      </trkpt>
      <trkpt lat="42.755392" lon="-7.905433">
        <ele>648.6</ele>
        <time>1970-01-01T01:53:21.000Z</time>
      </trkpt>
      <trkpt lat="42.755383" lon="-7.905456">
        <ele>649.2</ele>
        <time>1970-01-01T01:53:22.000Z</time>
      </trkpt>
      <trkpt lat="42.755383" lon="-7.905477">
        <ele>649.2</ele>
        <time>1970-01-01T01:53:23.000Z</time>
      </trkpt>
      <trkpt lat="42.755391" lon="-7.905504">
        <ele>649.7</ele>
        <time>1970-01-01T01:53:24.000Z</time>
      </trkpt>
      <trkpt lat="42.755391" lon="-7.905519">
        <ele>649.7</ele>
        <time>1970-01-01T01:53:25.000Z</time>
      </trkpt>
      <trkpt lat="42.755394" lon="-7.905548">
        <ele>650.2</ele>
        <time>1970-01-01T01:53:26.000Z</time>
      </trkpt>
      <trkpt lat="42.755393" lon="-7.905578">
        <ele>650.7</ele>
        <time>1970-01-01T01:53:27.000Z</time>
      </trkpt>
      <trkpt lat="42.755394" lon="-7.90561">
        <ele>651.2</ele>
        <time>1970-01-01T01:53:28.000Z</time>
      </trkpt>
      <trkpt lat="42.755399" lon="-7.905638">
        <ele>651.2</ele>
        <time>1970-01-01T01:53:29.000Z</time>
      </trkpt>
      <trkpt lat="42.755402" lon="-7.905665">
        <ele>651.6</ele>
        <time>1970-01-01T01:53:30.000Z</time>
      </trkpt>
      <trkpt lat="42.755398" lon="-7.905696">
        <ele>652</ele>
        <time>1970-01-01T01:53:31.000Z</time>
      </trkpt>
      <trkpt lat="42.755394" lon="-7.905724">
        <ele>652</ele>
        <time>1970-01-01T01:53:32.000Z</time>
      </trkpt>
      <trkpt lat="42.755416" lon="-7.905763">
        <ele>652.4</ele>
        <time>1970-01-01T01:53:33.000Z</time>
      </trkpt>
      <trkpt lat="42.755425" lon="-7.9058">
        <ele>652.8</ele>
        <time>1970-01-01T01:53:34.000Z</time>
      </trkpt>
      <trkpt lat="42.755427" lon="-7.905828">
        <ele>653.1</ele>
        <time>1970-01-01T01:53:35.000Z</time>
      </trkpt>
      <trkpt lat="42.755428" lon="-7.905855">
        <ele>653.1</ele>
        <time>1970-01-01T01:53:36.000Z</time>
      </trkpt>
      <trkpt lat="42.755427" lon="-7.905886">
        <ele>653.5</ele>
        <time>1970-01-01T01:53:37.000Z</time>
      </trkpt>
      <trkpt lat="42.755421" lon="-7.905916">
        <ele>654</ele>
        <time>1970-01-01T01:53:38.000Z</time>
      </trkpt>
      <trkpt lat="42.755415" lon="-7.905946">
        <ele>654</ele>
        <time>1970-01-01T01:53:39.000Z</time>
      </trkpt>
      <trkpt lat="42.755413" lon="-7.905981">
        <ele>654.5</ele>
        <time>1970-01-01T01:53:40.000Z</time>
      </trkpt>
      <trkpt lat="42.755412" lon="-7.906012">
        <ele>654.9</ele>
        <time>1970-01-01T01:53:41.000Z</time>
      </trkpt>
      <trkpt lat="42.755411" lon="-7.906042">
        <ele>655.4</ele>
        <time>1970-01-01T01:53:42.000Z</time>
      </trkpt>
      <trkpt lat="42.755413" lon="-7.906067">
        <ele>655.4</ele>
        <time>1970-01-01T01:53:43.000Z</time>
      </trkpt>
      <trkpt lat="42.755415" lon="-7.906091">
        <ele>655.9</ele>
        <time>1970-01-01T01:53:44.000Z</time>
      </trkpt>
      <trkpt lat="42.755419" lon="-7.906115">
        <ele>655.9</ele>
        <time>1970-01-01T01:53:45.000Z</time>
      </trkpt>
      <trkpt lat="42.755419" lon="-7.906132">
        <ele>656.3</ele>
        <time>1970-01-01T01:53:46.000Z</time>
      </trkpt>
      <trkpt lat="42.75542" lon="-7.90615">
        <ele>656.3</ele>
        <time>1970-01-01T01:53:47.000Z</time>
      </trkpt>
      <trkpt lat="42.75542" lon="-7.906171">
        <ele>656.8</ele>
        <time>1970-01-01T01:53:48.000Z</time>
      </trkpt>
      <trkpt lat="42.755426" lon="-7.906192">
        <ele>656.8</ele>
        <time>1970-01-01T01:53:49.000Z</time>
      </trkpt>
      <trkpt lat="42.755434" lon="-7.90621">
        <ele>657.1</ele>
        <time>1970-01-01T01:53:50.000Z</time>
      </trkpt>
      <trkpt lat="42.755439" lon="-7.906229">
        <ele>657.1</ele>
        <time>1970-01-01T01:53:51.000Z</time>
      </trkpt>
      <trkpt lat="42.755446" lon="-7.906251">
        <ele>657.6</ele>
        <time>1970-01-01T01:53:52.000Z</time>
      </trkpt>
      <trkpt lat="42.755441" lon="-7.90627">
        <ele>657.6</ele>
        <time>1970-01-01T01:53:53.000Z</time>
      </trkpt>
      <trkpt lat="42.755444" lon="-7.906299">
        <ele>658</ele>
        <time>1970-01-01T01:53:54.000Z</time>
      </trkpt>
      <trkpt lat="42.755447" lon="-7.906326">
        <ele>658</ele>
        <time>1970-01-01T01:53:55.000Z</time>
      </trkpt>
      <trkpt lat="42.755446" lon="-7.906347">
        <ele>658.5</ele>
        <time>1970-01-01T01:53:56.000Z</time>
      </trkpt>
      <trkpt lat="42.755443" lon="-7.906367">
        <ele>658.5</ele>
        <time>1970-01-01T01:53:57.000Z</time>
      </trkpt>
      <trkpt lat="42.755446" lon="-7.906397">
        <ele>658.9</ele>
        <time>1970-01-01T01:53:58.000Z</time>
      </trkpt>
      <trkpt lat="42.75545" lon="-7.906425">
        <ele>659.3</ele>
        <time>1970-01-01T01:53:59.000Z</time>
      </trkpt>
      <trkpt lat="42.755457" lon="-7.906451">
        <ele>659.3</ele>
        <time>1970-01-01T01:54:00.000Z</time>
      </trkpt>
      <trkpt lat="42.755463" lon="-7.906476">
        <ele>659.5</ele>
        <time>1970-01-01T01:54:01.000Z</time>
      </trkpt>
      <trkpt lat="42.755476" lon="-7.906505">
        <ele>659.5</ele>
        <time>1970-01-01T01:54:02.000Z</time>
      </trkpt>
      <trkpt lat="42.755489" lon="-7.906534">
        <ele>659.8</ele>
        <time>1970-01-01T01:54:03.000Z</time>
      </trkpt>
      <trkpt lat="42.755498" lon="-7.906564">
        <ele>659.9</ele>
        <time>1970-01-01T01:54:04.000Z</time>
      </trkpt>
      <trkpt lat="42.755509" lon="-7.906596">
        <ele>660.1</ele>
        <time>1970-01-01T01:54:05.000Z</time>
      </trkpt>
      <trkpt lat="42.755519" lon="-7.906636">
        <ele>660.1</ele>
        <time>1970-01-01T01:54:06.000Z</time>
      </trkpt>
      <trkpt lat="42.755527" lon="-7.906671">
        <ele>660.1</ele>
        <time>1970-01-01T01:54:07.000Z</time>
      </trkpt>
      <trkpt lat="42.755542" lon="-7.906695">
        <ele>660.3</ele>
        <time>1970-01-01T01:54:08.000Z</time>
      </trkpt>
      <trkpt lat="42.755559" lon="-7.906717">
        <ele>660.1</ele>
        <time>1970-01-01T01:54:09.000Z</time>
      </trkpt>
      <trkpt lat="42.755576" lon="-7.90674">
        <ele>660.2</ele>
        <time>1970-01-01T01:54:10.000Z</time>
      </trkpt>
      <trkpt lat="42.755596" lon="-7.90676">
        <ele>660</ele>
        <time>1970-01-01T01:54:11.000Z</time>
      </trkpt>
      <trkpt lat="42.755615" lon="-7.906776">
        <ele>660.1</ele>
        <time>1970-01-01T01:54:12.000Z</time>
      </trkpt>
      <trkpt lat="42.755633" lon="-7.906786">
        <ele>659.9</ele>
        <time>1970-01-01T01:54:13.000Z</time>
      </trkpt>
      <trkpt lat="42.755656" lon="-7.906798">
        <ele>659.7</ele>
        <time>1970-01-01T01:54:14.000Z</time>
      </trkpt>
      <trkpt lat="42.755676" lon="-7.906807">
        <ele>659.7</ele>
        <time>1970-01-01T01:54:15.000Z</time>
      </trkpt>
      <trkpt lat="42.755701" lon="-7.906815">
        <ele>659.6</ele>
        <time>1970-01-01T01:54:16.000Z</time>
      </trkpt>
      <trkpt lat="42.755718" lon="-7.906828">
        <ele>659.4</ele>
        <time>1970-01-01T01:54:17.000Z</time>
      </trkpt>
      <trkpt lat="42.755737" lon="-7.906842">
        <ele>659.4</ele>
        <time>1970-01-01T01:54:18.000Z</time>
      </trkpt>
      <trkpt lat="42.755765" lon="-7.906857">
        <ele>659.3</ele>
        <time>1970-01-01T01:54:19.000Z</time>
      </trkpt>
      <trkpt lat="42.755798" lon="-7.906874">
        <ele>659.1</ele>
        <time>1970-01-01T01:54:20.000Z</time>
      </trkpt>
      <trkpt lat="42.755826" lon="-7.906882">
        <ele>658.9</ele>
        <time>1970-01-01T01:54:21.000Z</time>
      </trkpt>
      <trkpt lat="42.755849" lon="-7.90689">
        <ele>658.7</ele>
        <time>1970-01-01T01:54:22.000Z</time>
      </trkpt>
      <trkpt lat="42.755881" lon="-7.906896">
        <ele>658.6</ele>
        <time>1970-01-01T01:54:23.000Z</time>
      </trkpt>
      <trkpt lat="42.755914" lon="-7.906908">
        <ele>658.4</ele>
        <time>1970-01-01T01:54:24.000Z</time>
      </trkpt>
      <trkpt lat="42.755948" lon="-7.906919">
        <ele>658.3</ele>
        <time>1970-01-01T01:54:25.000Z</time>
      </trkpt>
      <trkpt lat="42.755989" lon="-7.906935">
        <ele>658.2</ele>
        <time>1970-01-01T01:54:26.000Z</time>
      </trkpt>
      <trkpt lat="42.75603" lon="-7.906948">
        <ele>658</ele>
        <time>1970-01-01T01:54:27.000Z</time>
      </trkpt>
      <trkpt lat="42.756067" lon="-7.906957">
        <ele>657.9</ele>
        <time>1970-01-01T01:54:28.000Z</time>
      </trkpt>
      <trkpt lat="42.756102" lon="-7.906963">
        <ele>657.8</ele>
        <time>1970-01-01T01:54:29.000Z</time>
      </trkpt>
      <trkpt lat="42.756138" lon="-7.906971">
        <ele>657.7</ele>
        <time>1970-01-01T01:54:30.000Z</time>
      </trkpt>
      <trkpt lat="42.756173" lon="-7.906978">
        <ele>657.7</ele>
        <time>1970-01-01T01:54:31.000Z</time>
      </trkpt>
      <trkpt lat="42.756209" lon="-7.906983">
        <ele>657.6</ele>
        <time>1970-01-01T01:54:32.000Z</time>
      </trkpt>
      <trkpt lat="42.756248" lon="-7.906988">
        <ele>657.5</ele>
        <time>1970-01-01T01:54:33.000Z</time>
      </trkpt>
      <trkpt lat="42.756291" lon="-7.906995">
        <ele>657.5</ele>
        <time>1970-01-01T01:54:34.000Z</time>
      </trkpt>
      <trkpt lat="42.756327" lon="-7.906999">
        <ele>657.5</ele>
        <time>1970-01-01T01:54:35.000Z</time>
      </trkpt>
      <trkpt lat="42.756356" lon="-7.906999">
        <ele>657.4</ele>
        <time>1970-01-01T01:54:36.000Z</time>
      </trkpt>
      <trkpt lat="42.756377" lon="-7.907005">
        <ele>657.3</ele>
        <time>1970-01-01T01:54:37.000Z</time>
      </trkpt>
      <trkpt lat="42.756396" lon="-7.907006">
        <ele>657.3</ele>
        <time>1970-01-01T01:54:38.000Z</time>
      </trkpt>
      <trkpt lat="42.756416" lon="-7.907009">
        <ele>657.3</ele>
        <time>1970-01-01T01:54:39.000Z</time>
      </trkpt>
      <trkpt lat="42.756434" lon="-7.907019">
        <ele>657.3</ele>
        <time>1970-01-01T01:54:40.000Z</time>
      </trkpt>
      <trkpt lat="42.75645" lon="-7.907022">
        <ele>657.2</ele>
        <time>1970-01-01T01:54:41.000Z</time>
      </trkpt>
      <trkpt lat="42.75647" lon="-7.907015">
        <ele>657.2</ele>
        <time>1970-01-01T01:54:42.000Z</time>
      </trkpt>
      <trkpt lat="42.756493" lon="-7.907007">
        <ele>657.2</ele>
        <time>1970-01-01T01:54:43.000Z</time>
      </trkpt>
      <trkpt lat="42.75653" lon="-7.907002">
        <ele>657.1</ele>
        <time>1970-01-01T01:54:44.000Z</time>
      </trkpt>
      <trkpt lat="42.756564" lon="-7.906992">
        <ele>657</ele>
        <time>1970-01-01T01:54:45.000Z</time>
      </trkpt>
      <trkpt lat="42.75659" lon="-7.906986">
        <ele>657</ele>
        <time>1970-01-01T01:54:46.000Z</time>
      </trkpt>
      <trkpt lat="42.756626" lon="-7.906983">
        <ele>656.9</ele>
        <time>1970-01-01T01:54:47.000Z</time>
      </trkpt>
      <trkpt lat="42.75666" lon="-7.906977">
        <ele>656.9</ele>
        <time>1970-01-01T01:54:48.000Z</time>
      </trkpt>
      <trkpt lat="42.756708" lon="-7.906968">
        <ele>656.8</ele>
        <time>1970-01-01T01:54:49.000Z</time>
      </trkpt>
      <trkpt lat="42.756751" lon="-7.90696">
        <ele>656.7</ele>
        <time>1970-01-01T01:54:50.000Z</time>
      </trkpt>
      <trkpt lat="42.756791" lon="-7.906955">
        <ele>656.7</ele>
        <time>1970-01-01T01:54:51.000Z</time>
      </trkpt>
      <trkpt lat="42.756832" lon="-7.906943">
        <ele>656.7</ele>
        <time>1970-01-01T01:54:52.000Z</time>
      </trkpt>
      <trkpt lat="42.756864" lon="-7.906924">
        <ele>656.7</ele>
        <time>1970-01-01T01:54:53.000Z</time>
      </trkpt>
      <trkpt lat="42.756891" lon="-7.9069">
        <ele>656.7</ele>
        <time>1970-01-01T01:54:54.000Z</time>
      </trkpt>
      <trkpt lat="42.756914" lon="-7.906871">
        <ele>656.7</ele>
        <time>1970-01-01T01:54:55.000Z</time>
      </trkpt>
      <trkpt lat="42.756935" lon="-7.906843">
        <ele>656.8</ele>
        <time>1970-01-01T01:54:56.000Z</time>
      </trkpt>
      <trkpt lat="42.756956" lon="-7.906824">
        <ele>656.8</ele>
        <time>1970-01-01T01:54:57.000Z</time>
      </trkpt>
      <trkpt lat="42.756974" lon="-7.90681">
        <ele>656.7</ele>
        <time>1970-01-01T01:54:58.000Z</time>
      </trkpt>
      <trkpt lat="42.75699" lon="-7.906799">
        <ele>656.8</ele>
        <time>1970-01-01T01:54:59.000Z</time>
      </trkpt>
      <trkpt lat="42.756998" lon="-7.906793">
        <ele>656.8</ele>
        <time>1970-01-01T01:55:00.000Z</time>
      </trkpt>
      <trkpt lat="42.757003" lon="-7.906789">
        <ele>656.8</ele>
        <time>1970-01-01T01:55:01.000Z</time>
      </trkpt>
      <trkpt lat="42.757006" lon="-7.906791">
        <ele>656.8</ele>
        <time>1970-01-01T01:55:02.000Z</time>
      </trkpt>
      <trkpt lat="42.757013" lon="-7.906791">
        <ele>656.8</ele>
        <time>1970-01-01T01:55:03.000Z</time>
      </trkpt>
      <trkpt lat="42.757015" lon="-7.906791">
        <ele>656.8</ele>
        <time>1970-01-01T01:55:04.000Z</time>
      </trkpt>
      <trkpt lat="42.757017" lon="-7.906791">
        <ele>656.8</ele>
        <time>1970-01-01T01:55:05.000Z</time>
      </trkpt>
      <trkpt lat="42.757018" lon="-7.906789">
        <ele>656.8</ele>
        <time>1970-01-01T01:55:06.000Z</time>
      </trkpt>
      <trkpt lat="42.75702" lon="-7.906788">
        <ele>656.8</ele>
        <time>1970-01-01T01:55:07.000Z</time>
      </trkpt>
      <trkpt lat="42.757441" lon="-7.907557">
        <ele>652.7</ele>
        <time>1970-01-01T00:00:00.000Z</time>
      </trkpt>
      <trkpt lat="42.757475" lon="-7.907655">
        <ele>651.7</ele>
        <time>1970-01-01T00:00:01.000Z</time>
      </trkpt>
      <trkpt lat="42.757488" lon="-7.907688">
        <ele>651.7</ele>
        <time>1970-01-01T00:00:02.000Z</time>
      </trkpt>
      <trkpt lat="42.757513" lon="-7.907754">
        <ele>651.2</ele>
        <time>1970-01-01T00:00:03.000Z</time>
      </trkpt>
      <trkpt lat="42.757541" lon="-7.907824">
        <ele>650.8</ele>
        <time>1970-01-01T00:00:04.000Z</time>
      </trkpt>
      <trkpt lat="42.757569" lon="-7.907888">
        <ele>650.5</ele>
        <time>1970-01-01T00:00:05.000Z</time>
      </trkpt>
      <trkpt lat="42.757589" lon="-7.90795">
        <ele>650.5</ele>
        <time>1970-01-01T00:00:06.000Z</time>
      </trkpt>
      <trkpt lat="42.757615" lon="-7.908014">
        <ele>650.4</ele>
        <time>1970-01-01T00:00:07.000Z</time>
      </trkpt>
      <trkpt lat="42.757645" lon="-7.908083">
        <ele>650.3</ele>
        <time>1970-01-01T00:00:08.000Z</time>
      </trkpt>
      <trkpt lat="42.757669" lon="-7.908152">
        <ele>650.2</ele>
        <time>1970-01-01T00:00:09.000Z</time>
      </trkpt>
      <trkpt lat="42.7577" lon="-7.908222">
        <ele>650.1</ele>
        <time>1970-01-01T00:00:10.000Z</time>
      </trkpt>
      <trkpt lat="42.757729" lon="-7.908291">
        <ele>650</ele>
        <time>1970-01-01T00:00:11.000Z</time>
      </trkpt>
      <trkpt lat="42.757758" lon="-7.908363">
        <ele>649.9</ele>
        <time>1970-01-01T00:00:12.000Z</time>
      </trkpt>
      <trkpt lat="42.757784" lon="-7.908433">
        <ele>649.9</ele>
        <time>1970-01-01T00:00:13.000Z</time>
      </trkpt>
      <trkpt lat="42.757814" lon="-7.908492">
        <ele>649.9</ele>
        <time>1970-01-01T00:00:14.000Z</time>
      </trkpt>
      <trkpt lat="42.757847" lon="-7.908544">
        <ele>649.8</ele>
        <time>1970-01-01T00:00:15.000Z</time>
      </trkpt>
      <trkpt lat="42.757873" lon="-7.908598">
        <ele>649.7</ele>
        <time>1970-01-01T00:00:16.000Z</time>
      </trkpt>
      <trkpt lat="42.757884" lon="-7.908636">
        <ele>649.6</ele>
        <time>1970-01-01T00:00:17.000Z</time>
      </trkpt>
      <trkpt lat="42.757902" lon="-7.908682">
        <ele>649.7</ele>
        <time>1970-01-01T00:00:18.000Z</time>
      </trkpt>
      <trkpt lat="42.757926" lon="-7.908728">
        <ele>649.6</ele>
        <time>1970-01-01T00:00:19.000Z</time>
      </trkpt>
      <trkpt lat="42.757965" lon="-7.908768">
        <ele>649.5</ele>
        <time>1970-01-01T00:00:20.000Z</time>
      </trkpt>
      <trkpt lat="42.758007" lon="-7.908803">
        <ele>649.3</ele>
        <time>1970-01-01T00:00:21.000Z</time>
      </trkpt>
      <trkpt lat="42.758037" lon="-7.908837">
        <ele>649</ele>
        <time>1970-01-01T00:00:22.000Z</time>
      </trkpt>
      <trkpt lat="42.75806" lon="-7.908874">
        <ele>648.8</ele>
        <time>1970-01-01T00:00:23.000Z</time>
      </trkpt>
      <trkpt lat="42.758068" lon="-7.908907">
        <ele>648.8</ele>
        <time>1970-01-01T00:00:24.000Z</time>
      </trkpt>
      <trkpt lat="42.758078" lon="-7.908933">
        <ele>648.4</ele>
        <time>1970-01-01T00:00:25.000Z</time>
      </trkpt>
      <trkpt lat="42.758089" lon="-7.908963">
        <ele>648.4</ele>
        <time>1970-01-01T00:00:26.000Z</time>
      </trkpt>
      <trkpt lat="42.758107" lon="-7.908988">
        <ele>648</ele>
        <time>1970-01-01T00:00:27.000Z</time>
      </trkpt>
      <trkpt lat="42.758113" lon="-7.909019">
        <ele>647.9</ele>
        <time>1970-01-01T00:00:28.000Z</time>
      </trkpt>
      <trkpt lat="42.758129" lon="-7.909044">
        <ele>647.8</ele>
        <time>1970-01-01T00:00:29.000Z</time>
      </trkpt>
      <trkpt lat="42.758137" lon="-7.909069">
        <ele>647.4</ele>
        <time>1970-01-01T00:00:30.000Z</time>
      </trkpt>
      <trkpt lat="42.758137" lon="-7.90909">
        <ele>647.3</ele>
        <time>1970-01-01T00:00:31.000Z</time>
      </trkpt>
      <trkpt lat="42.758138" lon="-7.909117">
        <ele>647.3</ele>
        <time>1970-01-01T00:00:32.000Z</time>
      </trkpt>
      <trkpt lat="42.758144" lon="-7.909141">
        <ele>647.2</ele>
        <time>1970-01-01T00:00:33.000Z</time>
      </trkpt>
      <trkpt lat="42.758147" lon="-7.909167">
        <ele>647.2</ele>
        <time>1970-01-01T00:00:34.000Z</time>
      </trkpt>
      <trkpt lat="42.758148" lon="-7.909202">
        <ele>647</ele>
        <time>1970-01-01T00:00:35.000Z</time>
      </trkpt>
      <trkpt lat="42.758152" lon="-7.909238">
        <ele>646.9</ele>
        <time>1970-01-01T00:00:36.000Z</time>
      </trkpt>
      <trkpt lat="42.758156" lon="-7.909276">
        <ele>646.7</ele>
        <time>1970-01-01T00:00:37.000Z</time>
      </trkpt>
      <trkpt lat="42.758163" lon="-7.90932">
        <ele>646.5</ele>
        <time>1970-01-01T00:00:38.000Z</time>
      </trkpt>
      <trkpt lat="42.758165" lon="-7.909353">
        <ele>646.4</ele>
        <time>1970-01-01T00:00:39.000Z</time>
      </trkpt>
      <trkpt lat="42.758173" lon="-7.909393">
        <ele>645.7</ele>
        <time>1970-01-01T00:00:40.000Z</time>
      </trkpt>
      <trkpt lat="42.75818" lon="-7.909443">
        <ele>645.5</ele>
        <time>1970-01-01T00:00:41.000Z</time>
      </trkpt>
      <trkpt lat="42.758179" lon="-7.909487">
        <ele>645.3</ele>
        <time>1970-01-01T00:00:42.000Z</time>
      </trkpt>
      <trkpt lat="42.758179" lon="-7.909532">
        <ele>645.1</ele>
        <time>1970-01-01T00:00:43.000Z</time>
      </trkpt>
      <trkpt lat="42.758168" lon="-7.909576">
        <ele>645</ele>
        <time>1970-01-01T00:00:44.000Z</time>
      </trkpt>
      <trkpt lat="42.758161" lon="-7.90962">
        <ele>645.4</ele>
        <time>1970-01-01T00:00:45.000Z</time>
      </trkpt>
      <trkpt lat="42.758156" lon="-7.90964">
        <ele>645.4</ele>
        <time>1970-01-01T00:00:46.000Z</time>
      </trkpt>
      <trkpt lat="42.758142" lon="-7.90967">
        <ele>645.3</ele>
        <time>1970-01-01T00:00:47.000Z</time>
      </trkpt>
      <trkpt lat="42.758137" lon="-7.909699">
        <ele>645.2</ele>
        <time>1970-01-01T00:00:48.000Z</time>
      </trkpt>
      <trkpt lat="42.758132" lon="-7.909726">
        <ele>645.8</ele>
        <time>1970-01-01T00:00:49.000Z</time>
      </trkpt>
      <trkpt lat="42.758123" lon="-7.909753">
        <ele>645.8</ele>
        <time>1970-01-01T00:00:50.000Z</time>
      </trkpt>
      <trkpt lat="42.758114" lon="-7.909777">
        <ele>645.7</ele>
        <time>1970-01-01T00:00:51.000Z</time>
      </trkpt>
      <trkpt lat="42.758098" lon="-7.909798">
        <ele>646.3</ele>
        <time>1970-01-01T00:00:52.000Z</time>
      </trkpt>
      <trkpt lat="42.758084" lon="-7.909825">
        <ele>646.2</ele>
        <time>1970-01-01T00:00:53.000Z</time>
      </trkpt>
      <trkpt lat="42.758062" lon="-7.909855">
        <ele>646.9</ele>
        <time>1970-01-01T00:00:54.000Z</time>
      </trkpt>
      <trkpt lat="42.758055" lon="-7.909879">
        <ele>646.8</ele>
        <time>1970-01-01T00:00:55.000Z</time>
      </trkpt>
      <trkpt lat="42.758035" lon="-7.909904">
        <ele>647.3</ele>
        <time>1970-01-01T00:00:56.000Z</time>
      </trkpt>
      <trkpt lat="42.758026" lon="-7.909931">
        <ele>647.3</ele>
        <time>1970-01-01T00:00:57.000Z</time>
      </trkpt>
      <trkpt lat="42.75802" lon="-7.909962">
        <ele>647.1</ele>
        <time>1970-01-01T00:00:58.000Z</time>
      </trkpt>
      <trkpt lat="42.758014" lon="-7.909993">
        <ele>646.9</ele>
        <time>1970-01-01T00:00:59.000Z</time>
      </trkpt>
      <trkpt lat="42.758001" lon="-7.910036">
        <ele>647.3</ele>
        <time>1970-01-01T00:01:00.000Z</time>
      </trkpt>
      <trkpt lat="42.757995" lon="-7.910065">
        <ele>647.3</ele>
        <time>1970-01-01T00:01:01.000Z</time>
      </trkpt>
      <trkpt lat="42.757991" lon="-7.910086">
        <ele>647.2</ele>
        <time>1970-01-01T00:01:02.000Z</time>
      </trkpt>
      <trkpt lat="42.757975" lon="-7.910118">
        <ele>647.5</ele>
        <time>1970-01-01T00:01:03.000Z</time>
      </trkpt>
      <trkpt lat="42.757961" lon="-7.910173">
        <ele>647.2</ele>
        <time>1970-01-01T00:01:04.000Z</time>
      </trkpt>
      <trkpt lat="42.757948" lon="-7.910216">
        <ele>647</ele>
        <time>1970-01-01T00:01:05.000Z</time>
      </trkpt>
      <trkpt lat="42.757934" lon="-7.910259">
        <ele>647.2</ele>
        <time>1970-01-01T00:01:06.000Z</time>
      </trkpt>
      <trkpt lat="42.757925" lon="-7.910303">
        <ele>647</ele>
        <time>1970-01-01T00:01:07.000Z</time>
      </trkpt>
      <trkpt lat="42.757919" lon="-7.910348">
        <ele>646.7</ele>
        <time>1970-01-01T00:01:08.000Z</time>
      </trkpt>
      <trkpt lat="42.757905" lon="-7.910396">
        <ele>646.9</ele>
        <time>1970-01-01T00:01:09.000Z</time>
      </trkpt>
      <trkpt lat="42.75789" lon="-7.91043">
        <ele>646.6</ele>
        <time>1970-01-01T00:01:10.000Z</time>
      </trkpt>
      <trkpt lat="42.75787" lon="-7.910471">
        <ele>646.8</ele>
        <time>1970-01-01T00:01:11.000Z</time>
      </trkpt>
      <trkpt lat="42.757861" lon="-7.910528">
        <ele>646.5</ele>
        <time>1970-01-01T00:01:12.000Z</time>
      </trkpt>
      <trkpt lat="42.757866" lon="-7.910573">
        <ele>646.1</ele>
        <time>1970-01-01T00:01:13.000Z</time>
      </trkpt>
      <trkpt lat="42.757877" lon="-7.910622">
        <ele>645.8</ele>
        <time>1970-01-01T00:01:14.000Z</time>
      </trkpt>
      <trkpt lat="42.757893" lon="-7.910667">
        <ele>645.1</ele>
        <time>1970-01-01T00:01:15.000Z</time>
      </trkpt>
      <trkpt lat="42.757913" lon="-7.910714">
        <ele>644.9</ele>
        <time>1970-01-01T00:01:16.000Z</time>
      </trkpt>
      <trkpt lat="42.757934" lon="-7.910762">
        <ele>644</ele>
        <time>1970-01-01T00:01:17.000Z</time>
      </trkpt>
      <trkpt lat="42.757949" lon="-7.910811">
        <ele>643.4</ele>
        <time>1970-01-01T00:01:18.000Z</time>
      </trkpt>
      <trkpt lat="42.757975" lon="-7.910849">
        <ele>643.2</ele>
        <time>1970-01-01T00:01:19.000Z</time>
      </trkpt>
      <trkpt lat="42.757998" lon="-7.910885">
        <ele>642.8</ele>
        <time>1970-01-01T00:01:20.000Z</time>
      </trkpt>
      <trkpt lat="42.758016" lon="-7.910925">
        <ele>642.3</ele>
        <time>1970-01-01T00:01:21.000Z</time>
      </trkpt>
      <trkpt lat="42.758036" lon="-7.910973">
        <ele>641.9</ele>
        <time>1970-01-01T00:01:22.000Z</time>
      </trkpt>
      <trkpt lat="42.758056" lon="-7.911007">
        <ele>641.6</ele>
        <time>1970-01-01T00:01:23.000Z</time>
      </trkpt>
      <trkpt lat="42.758081" lon="-7.911043">
        <ele>641.1</ele>
        <time>1970-01-01T00:01:24.000Z</time>
      </trkpt>
      <trkpt lat="42.758103" lon="-7.911072">
        <ele>641</ele>
        <time>1970-01-01T00:01:25.000Z</time>
      </trkpt>
      <trkpt lat="42.758132" lon="-7.911086">
        <ele>640.7</ele>
        <time>1970-01-01T00:01:26.000Z</time>
      </trkpt>
      <trkpt lat="42.758164" lon="-7.911093">
        <ele>640.5</ele>
        <time>1970-01-01T00:01:27.000Z</time>
      </trkpt>
      <trkpt lat="42.758198" lon="-7.911115">
        <ele>640.2</ele>
        <time>1970-01-01T00:01:28.000Z</time>
      </trkpt>
      <trkpt lat="42.758236" lon="-7.911135">
        <ele>639.9</ele>
        <time>1970-01-01T00:01:29.000Z</time>
      </trkpt>
      <trkpt lat="42.758268" lon="-7.911172">
        <ele>639.6</ele>
        <time>1970-01-01T00:01:30.000Z</time>
      </trkpt>
      <trkpt lat="42.758306" lon="-7.911195">
        <ele>639.3</ele>
        <time>1970-01-01T00:01:31.000Z</time>
      </trkpt>
      <trkpt lat="42.758336" lon="-7.91121">
        <ele>639.2</ele>
        <time>1970-01-01T00:01:32.000Z</time>
      </trkpt>
      <trkpt lat="42.758365" lon="-7.911225">
        <ele>639.1</ele>
        <time>1970-01-01T00:01:33.000Z</time>
      </trkpt>
      <trkpt lat="42.758389" lon="-7.911233">
        <ele>638.7</ele>
        <time>1970-01-01T00:01:34.000Z</time>
      </trkpt>
      <trkpt lat="42.758428" lon="-7.911235">
        <ele>638.6</ele>
        <time>1970-01-01T00:01:35.000Z</time>
      </trkpt>
      <trkpt lat="42.758463" lon="-7.911214">
        <ele>638.7</ele>
        <time>1970-01-01T00:01:36.000Z</time>
      </trkpt>
      <trkpt lat="42.758503" lon="-7.911193">
        <ele>638.6</ele>
        <time>1970-01-01T00:01:37.000Z</time>
      </trkpt>
      <trkpt lat="42.758533" lon="-7.911181">
        <ele>638.6</ele>
        <time>1970-01-01T00:01:38.000Z</time>
      </trkpt>
      <trkpt lat="42.758565" lon="-7.911204">
        <ele>638.2</ele>
        <time>1970-01-01T00:01:39.000Z</time>
      </trkpt>
      <trkpt lat="42.758598" lon="-7.911227">
        <ele>638</ele>
        <time>1970-01-01T00:01:40.000Z</time>
      </trkpt>
      <trkpt lat="42.758636" lon="-7.911255">
        <ele>637.5</ele>
        <time>1970-01-01T00:01:41.000Z</time>
      </trkpt>
      <trkpt lat="42.758661" lon="-7.9113">
        <ele>637.1</ele>
        <time>1970-01-01T00:01:42.000Z</time>
      </trkpt>
      <trkpt lat="42.758698" lon="-7.911332">
        <ele>636.7</ele>
        <time>1970-01-01T00:01:43.000Z</time>
      </trkpt>
      <trkpt lat="42.758741" lon="-7.911359">
        <ele>636.2</ele>
        <time>1970-01-01T00:01:44.000Z</time>
      </trkpt>
      <trkpt lat="42.758787" lon="-7.911389">
        <ele>636.1</ele>
        <time>1970-01-01T00:01:45.000Z</time>
      </trkpt>
      <trkpt lat="42.758841" lon="-7.911383">
        <ele>635.8</ele>
        <time>1970-01-01T00:01:46.000Z</time>
      </trkpt>
      <trkpt lat="42.758895" lon="-7.911391">
        <ele>635.5</ele>
        <time>1970-01-01T00:01:47.000Z</time>
      </trkpt>
      <trkpt lat="42.758962" lon="-7.911394">
        <ele>635.3</ele>
        <time>1970-01-01T00:01:48.000Z</time>
      </trkpt>
      <trkpt lat="42.759033" lon="-7.911406">
        <ele>635.2</ele>
        <time>1970-01-01T00:01:49.000Z</time>
      </trkpt>
      <trkpt lat="42.759101" lon="-7.911408">
        <ele>635.1</ele>
        <time>1970-01-01T00:01:50.000Z</time>
      </trkpt>
      <trkpt lat="42.75916" lon="-7.911411">
        <ele>635</ele>
        <time>1970-01-01T00:01:51.000Z</time>
      </trkpt>
      <trkpt lat="42.759205" lon="-7.911413">
        <ele>635</ele>
        <time>1970-01-01T00:01:52.000Z</time>
      </trkpt>
      <trkpt lat="42.759248" lon="-7.911394">
        <ele>634.9</ele>
        <time>1970-01-01T00:01:53.000Z</time>
      </trkpt>
      <trkpt lat="42.75928" lon="-7.911367">
        <ele>634.9</ele>
        <time>1970-01-01T00:01:54.000Z</time>
      </trkpt>
      <trkpt lat="42.759278" lon="-7.911365">
        <ele>634.9</ele>
        <time>1970-01-01T00:01:55.000Z</time>
      </trkpt>
      <trkpt lat="42.759285" lon="-7.911334">
        <ele>634.8</ele>
        <time>1970-01-01T00:01:56.000Z</time>
      </trkpt>
      <trkpt lat="42.759254" lon="-7.911328">
        <ele>634.8</ele>
        <time>1970-01-01T00:01:57.000Z</time>
      </trkpt>
      <trkpt lat="42.759247" lon="-7.911319">
        <ele>634.8</ele>
        <time>1970-01-01T00:01:58.000Z</time>
      </trkpt>
      <trkpt lat="42.759253" lon="-7.911295">
        <ele>634.7</ele>
        <time>1970-01-01T00:01:59.000Z</time>
      </trkpt>
      <trkpt lat="42.759257" lon="-7.911277">
        <ele>634.7</ele>
        <time>1970-01-01T00:02:00.000Z</time>
      </trkpt>
      <trkpt lat="42.759298" lon="-7.911268">
        <ele>634.4</ele>
        <time>1970-01-01T00:02:01.000Z</time>
      </trkpt>
      <trkpt lat="42.75934" lon="-7.911271">
        <ele>634.3</ele>
        <time>1970-01-01T00:02:02.000Z</time>
      </trkpt>
      <trkpt lat="42.759379" lon="-7.911277">
        <ele>634.5</ele>
        <time>1970-01-01T00:02:03.000Z</time>
      </trkpt>
      <trkpt lat="42.759427" lon="-7.911294">
        <ele>634.4</ele>
        <time>1970-01-01T00:02:04.000Z</time>
      </trkpt>
      <trkpt lat="42.759463" lon="-7.911311">
        <ele>634.2</ele>
        <time>1970-01-01T00:02:05.000Z</time>
      </trkpt>
      <trkpt lat="42.75951" lon="-7.911324">
        <ele>634.3</ele>
        <time>1970-01-01T00:02:06.000Z</time>
      </trkpt>
      <trkpt lat="42.759566" lon="-7.911337">
        <ele>634</ele>
        <time>1970-01-01T00:02:07.000Z</time>
      </trkpt>
      <trkpt lat="42.759622" lon="-7.91137">
        <ele>633.7</ele>
        <time>1970-01-01T00:02:08.000Z</time>
      </trkpt>
      <trkpt lat="42.759669" lon="-7.911406">
        <ele>633.6</ele>
        <time>1970-01-01T00:02:09.000Z</time>
      </trkpt>
      <trkpt lat="42.759706" lon="-7.911448">
        <ele>633.4</ele>
        <time>1970-01-01T00:02:10.000Z</time>
      </trkpt>
      <trkpt lat="42.759736" lon="-7.911487">
        <ele>633.2</ele>
        <time>1970-01-01T00:02:11.000Z</time>
      </trkpt>
      <trkpt lat="42.759748" lon="-7.911529">
        <ele>632.9</ele>
        <time>1970-01-01T00:02:12.000Z</time>
      </trkpt>
      <trkpt lat="42.759751" lon="-7.911574">
        <ele>633</ele>
        <time>1970-01-01T00:02:13.000Z</time>
      </trkpt>
      <trkpt lat="42.759768" lon="-7.911622">
        <ele>633</ele>
        <time>1970-01-01T00:02:14.000Z</time>
      </trkpt>
      <trkpt lat="42.759789" lon="-7.911671">
        <ele>632.9</ele>
        <time>1970-01-01T00:02:15.000Z</time>
      </trkpt>
      <trkpt lat="42.759795" lon="-7.911705">
        <ele>632.9</ele>
        <time>1970-01-01T00:02:16.000Z</time>
      </trkpt>
      <trkpt lat="42.75981" lon="-7.911745">
        <ele>632.8</ele>
        <time>1970-01-01T00:02:17.000Z</time>
      </trkpt>
      <trkpt lat="42.759819" lon="-7.911784">
        <ele>632.8</ele>
        <time>1970-01-01T00:02:18.000Z</time>
      </trkpt>
      <trkpt lat="42.759834" lon="-7.911816">
        <ele>632.8</ele>
        <time>1970-01-01T00:02:19.000Z</time>
      </trkpt>
      <trkpt lat="42.759838" lon="-7.911833">
        <ele>632.7</ele>
        <time>1970-01-01T00:02:20.000Z</time>
      </trkpt>
      <trkpt lat="42.759845" lon="-7.911848">
        <ele>632.7</ele>
        <time>1970-01-01T00:02:21.000Z</time>
      </trkpt>
      <trkpt lat="42.759843" lon="-7.911859">
        <ele>632.7</ele>
        <time>1970-01-01T00:02:22.000Z</time>
      </trkpt>
      <trkpt lat="42.759847" lon="-7.911895">
        <ele>632.7</ele>
        <time>1970-01-01T00:02:23.000Z</time>
      </trkpt>
      <trkpt lat="42.75985" lon="-7.911917">
        <ele>632.7</ele>
        <time>1970-01-01T00:02:24.000Z</time>
      </trkpt>
      <trkpt lat="42.75985" lon="-7.911937">
        <ele>632.7</ele>
        <time>1970-01-01T00:02:25.000Z</time>
      </trkpt>
      <trkpt lat="42.75985" lon="-7.911949">
        <ele>632.7</ele>
        <time>1970-01-01T00:02:26.000Z</time>
      </trkpt>
      <trkpt lat="42.759847" lon="-7.911962">
        <ele>632.7</ele>
        <time>1970-01-01T00:02:27.000Z</time>
      </trkpt>
      <trkpt lat="42.759845" lon="-7.911976">
        <ele>632.7</ele>
        <time>1970-01-01T00:02:28.000Z</time>
      </trkpt>
      <trkpt lat="42.759853" lon="-7.912005">
        <ele>632.7</ele>
        <time>1970-01-01T00:02:29.000Z</time>
      </trkpt>
      <trkpt lat="42.759856" lon="-7.912044">
        <ele>632.7</ele>
        <time>1970-01-01T00:02:30.000Z</time>
      </trkpt>
      <trkpt lat="42.759856" lon="-7.912077">
        <ele>632.7</ele>
        <time>1970-01-01T00:02:31.000Z</time>
      </trkpt>
      <trkpt lat="42.75984" lon="-7.912104">
        <ele>632.8</ele>
        <time>1970-01-01T00:02:32.000Z</time>
      </trkpt>
      <trkpt lat="42.759836" lon="-7.912124">
        <ele>632.9</ele>
        <time>1970-01-01T00:02:33.000Z</time>
      </trkpt>
      <trkpt lat="42.759836" lon="-7.912149">
        <ele>632.9</ele>
        <time>1970-01-01T00:02:34.000Z</time>
      </trkpt>
      <trkpt lat="42.759836" lon="-7.912169">
        <ele>632.9</ele>
        <time>1970-01-01T00:02:35.000Z</time>
      </trkpt>
      <trkpt lat="42.759837" lon="-7.912188">
        <ele>632.9</ele>
        <time>1970-01-01T00:02:36.000Z</time>
      </trkpt>
      <trkpt lat="42.759851" lon="-7.912209">
        <ele>632.8</ele>
        <time>1970-01-01T00:02:37.000Z</time>
      </trkpt>
      <trkpt lat="42.759841" lon="-7.912227">
        <ele>632.9</ele>
        <time>1970-01-01T00:02:38.000Z</time>
      </trkpt>
      <trkpt lat="42.759842" lon="-7.912245">
        <ele>632.9</ele>
        <time>1970-01-01T00:02:39.000Z</time>
      </trkpt>
      <trkpt lat="42.759848" lon="-7.912264">
        <ele>632.9</ele>
        <time>1970-01-01T00:02:40.000Z</time>
      </trkpt>
      <trkpt lat="42.759843" lon="-7.912286">
        <ele>632.9</ele>
        <time>1970-01-01T00:02:41.000Z</time>
      </trkpt>
      <trkpt lat="42.759846" lon="-7.912302">
        <ele>632.9</ele>
        <time>1970-01-01T00:02:42.000Z</time>
      </trkpt>
      <trkpt lat="42.759843" lon="-7.91232">
        <ele>632.9</ele>
        <time>1970-01-01T00:02:43.000Z</time>
      </trkpt>
      <trkpt lat="42.759834" lon="-7.912334">
        <ele>633</ele>
        <time>1970-01-01T00:02:44.000Z</time>
      </trkpt>
      <trkpt lat="42.759851" lon="-7.912339">
        <ele>632.9</ele>
        <time>1970-01-01T00:02:45.000Z</time>
      </trkpt>
      <trkpt lat="42.75986" lon="-7.91236">
        <ele>633</ele>
        <time>1970-01-01T00:02:46.000Z</time>
      </trkpt>
      <trkpt lat="42.759872" lon="-7.912388">
        <ele>632.8</ele>
        <time>1970-01-01T00:02:47.000Z</time>
      </trkpt>
      <trkpt lat="42.759878" lon="-7.912403">
        <ele>632.8</ele>
        <time>1970-01-01T00:02:48.000Z</time>
      </trkpt>
      <trkpt lat="42.759888" lon="-7.912425">
        <ele>632.8</ele>
        <time>1970-01-01T00:02:49.000Z</time>
      </trkpt>
      <trkpt lat="42.759884" lon="-7.912448">
        <ele>632.8</ele>
        <time>1970-01-01T00:02:50.000Z</time>
      </trkpt>
      <trkpt lat="42.759879" lon="-7.912474">
        <ele>632.8</ele>
        <time>1970-01-01T00:02:51.000Z</time>
      </trkpt>
      <trkpt lat="42.759872" lon="-7.912504">
        <ele>632.8</ele>
        <time>1970-01-01T00:02:52.000Z</time>
      </trkpt>
      <trkpt lat="42.759864" lon="-7.912529">
        <ele>632.9</ele>
        <time>1970-01-01T00:02:53.000Z</time>
      </trkpt>
      <trkpt lat="42.759854" lon="-7.91256">
        <ele>632.8</ele>
        <time>1970-01-01T00:02:54.000Z</time>
      </trkpt>
      <trkpt lat="42.759841" lon="-7.912599">
        <ele>632.8</ele>
        <time>1970-01-01T00:02:55.000Z</time>
      </trkpt>
      <trkpt lat="42.759832" lon="-7.912637">
        <ele>632.9</ele>
        <time>1970-01-01T00:02:56.000Z</time>
      </trkpt>
      <trkpt lat="42.759809" lon="-7.912677">
        <ele>632.7</ele>
        <time>1970-01-01T00:02:57.000Z</time>
      </trkpt>
      <trkpt lat="42.759786" lon="-7.912703">
        <ele>632.7</ele>
        <time>1970-01-01T00:02:58.000Z</time>
      </trkpt>
      <trkpt lat="42.759765" lon="-7.912728">
        <ele>632.8</ele>
        <time>1970-01-01T00:02:59.000Z</time>
      </trkpt>
      <trkpt lat="42.759747" lon="-7.912769">
        <ele>632.6</ele>
        <time>1970-01-01T00:03:00.000Z</time>
      </trkpt>
      <trkpt lat="42.759731" lon="-7.912808">
        <ele>632.5</ele>
        <time>1970-01-01T00:03:01.000Z</time>
      </trkpt>
      <trkpt lat="42.759708" lon="-7.912856">
        <ele>632.4</ele>
        <time>1970-01-01T00:03:02.000Z</time>
      </trkpt>
      <trkpt lat="42.759684" lon="-7.912898">
        <ele>632.1</ele>
        <time>1970-01-01T00:03:03.000Z</time>
      </trkpt>
      <trkpt lat="42.759654" lon="-7.912922">
        <ele>631.9</ele>
        <time>1970-01-01T00:03:04.000Z</time>
      </trkpt>
      <trkpt lat="42.75963" lon="-7.912935">
        <ele>631.9</ele>
        <time>1970-01-01T00:03:05.000Z</time>
      </trkpt>
      <trkpt lat="42.759604" lon="-7.912964">
        <ele>631.6</ele>
        <time>1970-01-01T00:03:06.000Z</time>
      </trkpt>
      <trkpt lat="42.759573" lon="-7.912988">
        <ele>631.5</ele>
        <time>1970-01-01T00:03:07.000Z</time>
      </trkpt>
      <trkpt lat="42.759545" lon="-7.913013">
        <ele>631.2</ele>
        <time>1970-01-01T00:03:08.000Z</time>
      </trkpt>
      <trkpt lat="42.759516" lon="-7.913054">
        <ele>630.8</ele>
        <time>1970-01-01T00:03:09.000Z</time>
      </trkpt>
      <trkpt lat="42.759486" lon="-7.91309">
        <ele>630.4</ele>
        <time>1970-01-01T00:03:10.000Z</time>
      </trkpt>
      <trkpt lat="42.759451" lon="-7.913127">
        <ele>630.1</ele>
        <time>1970-01-01T00:03:11.000Z</time>
      </trkpt>
      <trkpt lat="42.75942" lon="-7.913176">
        <ele>629.8</ele>
        <time>1970-01-01T00:03:12.000Z</time>
      </trkpt>
      <trkpt lat="42.759391" lon="-7.913208">
        <ele>629.5</ele>
        <time>1970-01-01T00:03:13.000Z</time>
      </trkpt>
      <trkpt lat="42.759366" lon="-7.913229">
        <ele>629.5</ele>
        <time>1970-01-01T00:03:14.000Z</time>
      </trkpt>
      <trkpt lat="42.759337" lon="-7.913272">
        <ele>629.2</ele>
        <time>1970-01-01T00:03:15.000Z</time>
      </trkpt>
      <trkpt lat="42.759309" lon="-7.9133">
        <ele>629</ele>
        <time>1970-01-01T00:03:16.000Z</time>
      </trkpt>
      <trkpt lat="42.759292" lon="-7.913321">
        <ele>629</ele>
        <time>1970-01-01T00:03:17.000Z</time>
      </trkpt>
      <trkpt lat="42.759272" lon="-7.913352">
        <ele>628.7</ele>
        <time>1970-01-01T00:03:18.000Z</time>
      </trkpt>
      <trkpt lat="42.759252" lon="-7.913381">
        <ele>628.5</ele>
        <time>1970-01-01T00:03:19.000Z</time>
      </trkpt>
      <trkpt lat="42.759234" lon="-7.913415">
        <ele>628.6</ele>
        <time>1970-01-01T00:03:20.000Z</time>
      </trkpt>
      <trkpt lat="42.759207" lon="-7.913434">
        <ele>628.4</ele>
        <time>1970-01-01T00:03:21.000Z</time>
      </trkpt>
      <trkpt lat="42.759184" lon="-7.91346">
        <ele>628.4</ele>
        <time>1970-01-01T00:03:22.000Z</time>
      </trkpt>
      <trkpt lat="42.75917" lon="-7.913494">
        <ele>628.3</ele>
        <time>1970-01-01T00:03:23.000Z</time>
      </trkpt>
      <trkpt lat="42.759157" lon="-7.913509">
        <ele>627.9</ele>
        <time>1970-01-01T00:03:24.000Z</time>
      </trkpt>
      <trkpt lat="42.759139" lon="-7.913524">
        <ele>628.1</ele>
        <time>1970-01-01T00:03:25.000Z</time>
      </trkpt>
      <trkpt lat="42.75912" lon="-7.913523">
        <ele>628.1</ele>
        <time>1970-01-01T00:03:26.000Z</time>
      </trkpt>
      <trkpt lat="42.759107" lon="-7.91353">
        <ele>628.2</ele>
        <time>1970-01-01T00:03:27.000Z</time>
      </trkpt>
      <trkpt lat="42.759094" lon="-7.913535">
        <ele>628.2</ele>
        <time>1970-01-01T00:03:28.000Z</time>
      </trkpt>
      <trkpt lat="42.759077" lon="-7.913541">
        <ele>628.3</ele>
        <time>1970-01-01T00:03:29.000Z</time>
      </trkpt>
      <trkpt lat="42.759059" lon="-7.913546">
        <ele>628.3</ele>
        <time>1970-01-01T00:03:30.000Z</time>
      </trkpt>
      <trkpt lat="42.759043" lon="-7.913562">
        <ele>628.1</ele>
        <time>1970-01-01T00:03:31.000Z</time>
      </trkpt>
      <trkpt lat="42.759028" lon="-7.913575">
        <ele>628.1</ele>
        <time>1970-01-01T00:03:32.000Z</time>
      </trkpt>
      <trkpt lat="42.759014" lon="-7.913584">
        <ele>628.1</ele>
        <time>1970-01-01T00:03:33.000Z</time>
      </trkpt>
      <trkpt lat="42.758995" lon="-7.913596">
        <ele>627.7</ele>
        <time>1970-01-01T00:03:34.000Z</time>
      </trkpt>
      <trkpt lat="42.758986" lon="-7.913612">
        <ele>627.8</ele>
        <time>1970-01-01T00:03:35.000Z</time>
      </trkpt>
      <trkpt lat="42.758969" lon="-7.913628">
        <ele>627.8</ele>
        <time>1970-01-01T00:03:36.000Z</time>
      </trkpt>
      <trkpt lat="42.758947" lon="-7.913645">
        <ele>627.3</ele>
        <time>1970-01-01T00:03:37.000Z</time>
      </trkpt>
      <trkpt lat="42.758928" lon="-7.913661">
        <ele>627.3</ele>
        <time>1970-01-01T00:03:38.000Z</time>
      </trkpt>
      <trkpt lat="42.758914" lon="-7.913684">
        <ele>626.8</ele>
        <time>1970-01-01T00:03:39.000Z</time>
      </trkpt>
      <trkpt lat="42.758897" lon="-7.913697">
        <ele>626.8</ele>
        <time>1970-01-01T00:03:40.000Z</time>
      </trkpt>
      <trkpt lat="42.758879" lon="-7.913707">
        <ele>626.8</ele>
        <time>1970-01-01T00:03:41.000Z</time>
      </trkpt>
      <trkpt lat="42.758867" lon="-7.913716">
        <ele>626.8</ele>
        <time>1970-01-01T00:03:42.000Z</time>
      </trkpt>
      <trkpt lat="42.758853" lon="-7.913735">
        <ele>626.2</ele>
        <time>1970-01-01T00:03:43.000Z</time>
      </trkpt>
      <trkpt lat="42.758837" lon="-7.913753">
        <ele>626.2</ele>
        <time>1970-01-01T00:03:44.000Z</time>
      </trkpt>
      <trkpt lat="42.758826" lon="-7.913761">
        <ele>626.1</ele>
        <time>1970-01-01T00:03:45.000Z</time>
      </trkpt>
      <trkpt lat="42.758815" lon="-7.913773">
        <ele>625.5</ele>
        <time>1970-01-01T00:03:46.000Z</time>
      </trkpt>
      <trkpt lat="42.758801" lon="-7.913788">
        <ele>625.5</ele>
        <time>1970-01-01T00:03:47.000Z</time>
      </trkpt>
      <trkpt lat="42.758791" lon="-7.913799">
        <ele>625.4</ele>
        <time>1970-01-01T00:03:48.000Z</time>
      </trkpt>
      <trkpt lat="42.758782" lon="-7.913806">
        <ele>624.9</ele>
        <time>1970-01-01T00:03:49.000Z</time>
      </trkpt>
      <trkpt lat="42.758776" lon="-7.913817">
        <ele>624.9</ele>
        <time>1970-01-01T00:03:50.000Z</time>
      </trkpt>
      <trkpt lat="42.758766" lon="-7.913833">
        <ele>624.8</ele>
        <time>1970-01-01T00:03:51.000Z</time>
      </trkpt>
      <trkpt lat="42.758759" lon="-7.91384">
        <ele>624.8</ele>
        <time>1970-01-01T00:03:52.000Z</time>
      </trkpt>
      <trkpt lat="42.758753" lon="-7.91385">
        <ele>624.2</ele>
        <time>1970-01-01T00:03:53.000Z</time>
      </trkpt>
      <trkpt lat="42.758746" lon="-7.913862">
        <ele>624.2</ele>
        <time>1970-01-01T00:03:54.000Z</time>
      </trkpt>
      <trkpt lat="42.758738" lon="-7.913881">
        <ele>624.2</ele>
        <time>1970-01-01T00:03:55.000Z</time>
      </trkpt>
      <trkpt lat="42.758732" lon="-7.913894">
        <ele>623.5</ele>
        <time>1970-01-01T00:03:56.000Z</time>
      </trkpt>
      <trkpt lat="42.758725" lon="-7.913912">
        <ele>623.5</ele>
        <time>1970-01-01T00:03:57.000Z</time>
      </trkpt>
      <trkpt lat="42.758716" lon="-7.913935">
        <ele>622.8</ele>
        <time>1970-01-01T00:03:58.000Z</time>
      </trkpt>
      <trkpt lat="42.758713" lon="-7.913943">
        <ele>622.8</ele>
        <time>1970-01-01T00:03:59.000Z</time>
      </trkpt>
      <trkpt lat="42.758711" lon="-7.913948">
        <ele>622.8</ele>
        <time>1970-01-01T00:04:00.000Z</time>
      </trkpt>
      <trkpt lat="42.758708" lon="-7.913958">
        <ele>622.8</ele>
        <time>1970-01-01T00:04:01.000Z</time>
      </trkpt>
      <trkpt lat="42.758646" lon="-7.914553">
        <ele>617.1</ele>
        <time>1970-01-01T00:04:39.000Z</time>
      </trkpt>
      <trkpt lat="42.758643" lon="-7.91457">
        <ele>617.1</ele>
        <time>1970-01-01T00:04:40.000Z</time>
      </trkpt>
      <trkpt lat="42.758639" lon="-7.914586">
        <ele>617.2</ele>
        <time>1970-01-01T00:04:41.000Z</time>
      </trkpt>
      <trkpt lat="42.758635" lon="-7.914601">
        <ele>617.2</ele>
        <time>1970-01-01T00:04:42.000Z</time>
      </trkpt>
      <trkpt lat="42.758634" lon="-7.914614">
        <ele>617.2</ele>
        <time>1970-01-01T00:04:43.000Z</time>
      </trkpt>
      <trkpt lat="42.758634" lon="-7.914625">
        <ele>617.1</ele>
        <time>1970-01-01T00:04:44.000Z</time>
      </trkpt>
      <trkpt lat="42.758637" lon="-7.914639">
        <ele>617.1</ele>
        <time>1970-01-01T00:04:45.000Z</time>
      </trkpt>
      <trkpt lat="42.758639" lon="-7.914653">
        <ele>617.1</ele>
        <time>1970-01-01T00:04:46.000Z</time>
      </trkpt>
      <trkpt lat="42.758641" lon="-7.914669">
        <ele>616.8</ele>
        <time>1970-01-01T00:04:47.000Z</time>
      </trkpt>
      <trkpt lat="42.758644" lon="-7.914685">
        <ele>616.8</ele>
        <time>1970-01-01T00:04:48.000Z</time>
      </trkpt>
      <trkpt lat="42.758647" lon="-7.914696">
        <ele>616.8</ele>
        <time>1970-01-01T00:04:49.000Z</time>
      </trkpt>
      <trkpt lat="42.758649" lon="-7.914709">
        <ele>616.8</ele>
        <time>1970-01-01T00:04:50.000Z</time>
      </trkpt>
      <trkpt lat="42.758652" lon="-7.914722">
        <ele>616.8</ele>
        <time>1970-01-01T00:04:51.000Z</time>
      </trkpt>
      <trkpt lat="42.758655" lon="-7.914738">
        <ele>616.8</ele>
        <time>1970-01-01T00:04:52.000Z</time>
      </trkpt>
      <trkpt lat="42.758658" lon="-7.914752">
        <ele>616.7</ele>
        <time>1970-01-01T00:04:53.000Z</time>
      </trkpt>
      <trkpt lat="42.758662" lon="-7.914762">
        <ele>616.7</ele>
        <time>1970-01-01T00:04:54.000Z</time>
      </trkpt>
      <trkpt lat="42.758667" lon="-7.914771">
        <ele>616.7</ele>
        <time>1970-01-01T00:04:55.000Z</time>
      </trkpt>
      <trkpt lat="42.75867" lon="-7.914785">
        <ele>616.7</ele>
        <time>1970-01-01T00:04:56.000Z</time>
      </trkpt>
      <trkpt lat="42.758673" lon="-7.914798">
        <ele>616.6</ele>
        <time>1970-01-01T00:04:57.000Z</time>
      </trkpt>
      <trkpt lat="42.758672" lon="-7.914807">
        <ele>616.6</ele>
        <time>1970-01-01T00:04:58.000Z</time>
      </trkpt>
      <trkpt lat="42.758664" lon="-7.914816">
        <ele>616.7</ele>
        <time>1970-01-01T00:04:59.000Z</time>
      </trkpt>
      <trkpt lat="42.758663" lon="-7.914831">
        <ele>616.7</ele>
        <time>1970-01-01T00:05:00.000Z</time>
      </trkpt>
      <trkpt lat="42.758661" lon="-7.914846">
        <ele>616.7</ele>
        <time>1970-01-01T00:05:01.000Z</time>
      </trkpt>
      <trkpt lat="42.758657" lon="-7.914859">
        <ele>616.7</ele>
        <time>1970-01-01T00:05:02.000Z</time>
      </trkpt>
      <trkpt lat="42.758654" lon="-7.914873">
        <ele>616.7</ele>
        <time>1970-01-01T00:05:03.000Z</time>
      </trkpt>
      <trkpt lat="42.758652" lon="-7.914886">
        <ele>616.8</ele>
        <time>1970-01-01T00:05:04.000Z</time>
      </trkpt>
      <trkpt lat="42.75865" lon="-7.9149">
        <ele>616.8</ele>
        <time>1970-01-01T00:05:05.000Z</time>
      </trkpt>
      <trkpt lat="42.758649" lon="-7.914908">
        <ele>616.8</ele>
        <time>1970-01-01T00:05:06.000Z</time>
      </trkpt>
      <trkpt lat="42.758648" lon="-7.914912">
        <ele>616.8</ele>
        <time>1970-01-01T00:05:07.000Z</time>
      </trkpt>
      <trkpt lat="42.758647" lon="-7.914919">
        <ele>616.8</ele>
        <time>1970-01-01T00:05:08.000Z</time>
      </trkpt>
      <trkpt lat="42.758646" lon="-7.914931">
        <ele>616.9</ele>
        <time>1970-01-01T00:05:09.000Z</time>
      </trkpt>
      <trkpt lat="42.758645" lon="-7.914945">
        <ele>616.9</ele>
        <time>1970-01-01T00:05:10.000Z</time>
      </trkpt>
      <trkpt lat="42.758644" lon="-7.914956">
        <ele>616.9</ele>
        <time>1970-01-01T00:05:11.000Z</time>
      </trkpt>
      <trkpt lat="42.758642" lon="-7.914969">
        <ele>617</ele>
        <time>1970-01-01T00:05:12.000Z</time>
      </trkpt>
      <trkpt lat="42.758641" lon="-7.914984">
        <ele>617</ele>
        <time>1970-01-01T00:05:13.000Z</time>
      </trkpt>
      <trkpt lat="42.758641" lon="-7.915">
        <ele>617</ele>
        <time>1970-01-01T00:05:14.000Z</time>
      </trkpt>
      <trkpt lat="42.75864" lon="-7.915017">
        <ele>617.3</ele>
        <time>1970-01-01T00:05:15.000Z</time>
      </trkpt>
      <trkpt lat="42.758641" lon="-7.91503">
        <ele>617.1</ele>
        <time>1970-01-01T00:05:16.000Z</time>
      </trkpt>
      <trkpt lat="42.758639" lon="-7.915041">
        <ele>617.3</ele>
        <time>1970-01-01T00:05:17.000Z</time>
      </trkpt>
      <trkpt lat="42.758639" lon="-7.915053">
        <ele>617.5</ele>
        <time>1970-01-01T00:05:18.000Z</time>
      </trkpt>
      <trkpt lat="42.75864" lon="-7.915068">
        <ele>617.5</ele>
        <time>1970-01-01T00:05:19.000Z</time>
      </trkpt>
      <trkpt lat="42.758641" lon="-7.915084">
        <ele>617.2</ele>
        <time>1970-01-01T00:05:20.000Z</time>
      </trkpt>
      <trkpt lat="42.758642" lon="-7.9151">
        <ele>617.4</ele>
        <time>1970-01-01T00:05:21.000Z</time>
      </trkpt>
      <trkpt lat="42.758643" lon="-7.915115">
        <ele>617.4</ele>
        <time>1970-01-01T00:05:22.000Z</time>
      </trkpt>
      <trkpt lat="42.758639" lon="-7.91513">
        <ele>617.7</ele>
        <time>1970-01-01T00:05:23.000Z</time>
      </trkpt>
      <trkpt lat="42.758633" lon="-7.915143">
        <ele>617.9</ele>
        <time>1970-01-01T00:05:24.000Z</time>
      </trkpt>
      <trkpt lat="42.758625" lon="-7.915154">
        <ele>617.9</ele>
        <time>1970-01-01T00:05:25.000Z</time>
      </trkpt>
      <trkpt lat="42.758616" lon="-7.915165">
        <ele>617.9</ele>
        <time>1970-01-01T00:05:26.000Z</time>
      </trkpt>
      <trkpt lat="42.758607" lon="-7.915177">
        <ele>618.2</ele>
        <time>1970-01-01T00:05:27.000Z</time>
      </trkpt>
      <trkpt lat="42.758598" lon="-7.915185">
        <ele>618.5</ele>
        <time>1970-01-01T00:05:28.000Z</time>
      </trkpt>
      <trkpt lat="42.758588" lon="-7.915193">
        <ele>618.5</ele>
        <time>1970-01-01T00:05:29.000Z</time>
      </trkpt>
      <trkpt lat="42.758579" lon="-7.915199">
        <ele>618.5</ele>
        <time>1970-01-01T00:05:30.000Z</time>
      </trkpt>
      <trkpt lat="42.75857" lon="-7.915206">
        <ele>618.8</ele>
        <time>1970-01-01T00:05:31.000Z</time>
      </trkpt>
      <trkpt lat="42.75856" lon="-7.915214">
        <ele>618.8</ele>
        <time>1970-01-01T00:05:32.000Z</time>
      </trkpt>
      <trkpt lat="42.758552" lon="-7.915223">
        <ele>619.1</ele>
        <time>1970-01-01T00:05:33.000Z</time>
      </trkpt>
      <trkpt lat="42.758548" lon="-7.915231">
        <ele>619.1</ele>
        <time>1970-01-01T00:05:34.000Z</time>
      </trkpt>
      <trkpt lat="42.758546" lon="-7.91524">
        <ele>619.1</ele>
        <time>1970-01-01T00:05:35.000Z</time>
      </trkpt>
      <trkpt lat="42.758545" lon="-7.915244">
        <ele>619.4</ele>
        <time>1970-01-01T00:05:36.000Z</time>
      </trkpt>
      <trkpt lat="42.758545" lon="-7.915245">
        <ele>619.4</ele>
        <time>1970-01-01T00:05:37.000Z</time>
      </trkpt>
      <trkpt lat="42.758541" lon="-7.915251">
        <ele>619.4</ele>
        <time>1970-01-01T00:05:38.000Z</time>
      </trkpt>
      <trkpt lat="42.758538" lon="-7.915267">
        <ele>619.8</ele>
        <time>1970-01-01T00:05:39.000Z</time>
      </trkpt>
      <trkpt lat="42.758536" lon="-7.915286">
        <ele>619.8</ele>
        <time>1970-01-01T00:05:40.000Z</time>
      </trkpt>
      <trkpt lat="42.758531" lon="-7.915309">
        <ele>620.3</ele>
        <time>1970-01-01T00:05:41.000Z</time>
      </trkpt>
      <trkpt lat="42.758527" lon="-7.915329">
        <ele>620.3</ele>
        <time>1970-01-01T00:05:42.000Z</time>
      </trkpt>
      <trkpt lat="42.758525" lon="-7.915356">
        <ele>620.7</ele>
        <time>1970-01-01T00:05:43.000Z</time>
      </trkpt>
      <trkpt lat="42.758526" lon="-7.915383">
        <ele>620.7</ele>
        <time>1970-01-01T00:05:44.000Z</time>
      </trkpt>
      <trkpt lat="42.758529" lon="-7.915411">
        <ele>621.1</ele>
        <time>1970-01-01T00:05:45.000Z</time>
      </trkpt>
      <trkpt lat="42.758534" lon="-7.91544">
        <ele>621.6</ele>
        <time>1970-01-01T00:05:46.000Z</time>
      </trkpt>
      <trkpt lat="42.758537" lon="-7.915467">
        <ele>621.6</ele>
        <time>1970-01-01T00:05:47.000Z</time>
      </trkpt>
      <trkpt lat="42.758541" lon="-7.915492">
        <ele>622</ele>
        <time>1970-01-01T00:05:48.000Z</time>
      </trkpt>
      <trkpt lat="42.758548" lon="-7.915522">
        <ele>622</ele>
        <time>1970-01-01T00:05:49.000Z</time>
      </trkpt>
      <trkpt lat="42.758558" lon="-7.915556">
        <ele>622.2</ele>
        <time>1970-01-01T00:05:50.000Z</time>
      </trkpt>
      <trkpt lat="42.758572" lon="-7.915589">
        <ele>622.2</ele>
        <time>1970-01-01T00:05:51.000Z</time>
      </trkpt>
      <trkpt lat="42.758587" lon="-7.915625">
        <ele>622.2</ele>
        <time>1970-01-01T00:05:52.000Z</time>
      </trkpt>
      <trkpt lat="42.758606" lon="-7.91566">
        <ele>622.1</ele>
        <time>1970-01-01T00:05:53.000Z</time>
      </trkpt>
      <trkpt lat="42.75863" lon="-7.915693">
        <ele>622</ele>
        <time>1970-01-01T00:05:54.000Z</time>
      </trkpt>
      <trkpt lat="42.758655" lon="-7.915733">
        <ele>621.8</ele>
        <time>1970-01-01T00:05:55.000Z</time>
      </trkpt>
      <trkpt lat="42.758681" lon="-7.915776">
        <ele>621.7</ele>
        <time>1970-01-01T00:05:56.000Z</time>
      </trkpt>
      <trkpt lat="42.758711" lon="-7.915818">
        <ele>621.6</ele>
        <time>1970-01-01T00:05:57.000Z</time>
      </trkpt>
      <trkpt lat="42.758746" lon="-7.915862">
        <ele>621.5</ele>
        <time>1970-01-01T00:05:58.000Z</time>
      </trkpt>
      <trkpt lat="42.758777" lon="-7.915903">
        <ele>621.4</ele>
        <time>1970-01-01T00:05:59.000Z</time>
      </trkpt>
      <trkpt lat="42.758818" lon="-7.915941">
        <ele>621.1</ele>
        <time>1970-01-01T00:06:00.000Z</time>
      </trkpt>
      <trkpt lat="42.758865" lon="-7.915973">
        <ele>620.9</ele>
        <time>1970-01-01T00:06:01.000Z</time>
      </trkpt>
      <trkpt lat="42.758917" lon="-7.916">
        <ele>620.7</ele>
        <time>1970-01-01T00:06:02.000Z</time>
      </trkpt>
      <trkpt lat="42.758974" lon="-7.916023">
        <ele>620.4</ele>
        <time>1970-01-01T00:06:03.000Z</time>
      </trkpt>
      <trkpt lat="42.759033" lon="-7.916042">
        <ele>620.1</ele>
        <time>1970-01-01T00:06:04.000Z</time>
      </trkpt>
      <trkpt lat="42.759097" lon="-7.916057">
        <ele>619.8</ele>
        <time>1970-01-01T00:06:05.000Z</time>
      </trkpt>
      <trkpt lat="42.759166" lon="-7.916068">
        <ele>619.5</ele>
        <time>1970-01-01T00:06:06.000Z</time>
      </trkpt>
      <trkpt lat="42.759236" lon="-7.916078">
        <ele>619.1</ele>
        <time>1970-01-01T00:06:07.000Z</time>
      </trkpt>
      <trkpt lat="42.759302" lon="-7.916095">
        <ele>618.8</ele>
        <time>1970-01-01T00:06:08.000Z</time>
      </trkpt>
      <trkpt lat="42.759372" lon="-7.916111">
        <ele>618.4</ele>
        <time>1970-01-01T00:06:09.000Z</time>
      </trkpt>
      <trkpt lat="42.759445" lon="-7.916128">
        <ele>617.8</ele>
        <time>1970-01-01T00:06:10.000Z</time>
      </trkpt>
      <trkpt lat="42.759519" lon="-7.916149">
        <ele>617.2</ele>
        <time>1970-01-01T00:06:11.000Z</time>
      </trkpt>
      <trkpt lat="42.759602" lon="-7.916166">
        <ele>616.7</ele>
        <time>1970-01-01T00:06:12.000Z</time>
      </trkpt>
      <trkpt lat="42.7597" lon="-7.91618">
        <ele>615.7</ele>
        <time>1970-01-01T00:06:13.000Z</time>
      </trkpt>
      <trkpt lat="42.759796" lon="-7.916193">
        <ele>615.1</ele>
        <time>1970-01-01T00:06:14.000Z</time>
      </trkpt>
      <trkpt lat="42.759891" lon="-7.916206">
        <ele>614.5</ele>
        <time>1970-01-01T00:06:15.000Z</time>
      </trkpt>
      <trkpt lat="42.759986" lon="-7.916217">
        <ele>613.7</ele>
        <time>1970-01-01T00:06:16.000Z</time>
      </trkpt>
      <trkpt lat="42.760078" lon="-7.91623">
        <ele>612.9</ele>
        <time>1970-01-01T00:06:17.000Z</time>
      </trkpt>
      <trkpt lat="42.760169" lon="-7.916243">
        <ele>612</ele>
        <time>1970-01-01T00:06:18.000Z</time>
      </trkpt>
      <trkpt lat="42.760259" lon="-7.916257">
        <ele>611.2</ele>
        <time>1970-01-01T00:06:19.000Z</time>
      </trkpt>
      <trkpt lat="42.760345" lon="-7.916272">
        <ele>610.4</ele>
        <time>1970-01-01T00:06:20.000Z</time>
      </trkpt>
      <trkpt lat="42.760431" lon="-7.916285">
        <ele>609.7</ele>
        <time>1970-01-01T00:06:21.000Z</time>
      </trkpt>
      <trkpt lat="42.760515" lon="-7.916298">
        <ele>609.2</ele>
        <time>1970-01-01T00:06:22.000Z</time>
      </trkpt>
      <trkpt lat="42.760596" lon="-7.916309">
        <ele>608.7</ele>
        <time>1970-01-01T00:06:23.000Z</time>
      </trkpt>
      <trkpt lat="42.760676" lon="-7.916317">
        <ele>608.1</ele>
        <time>1970-01-01T00:06:24.000Z</time>
      </trkpt>
      <trkpt lat="42.760756" lon="-7.916322">
        <ele>607.5</ele>
        <time>1970-01-01T00:06:25.000Z</time>
      </trkpt>
      <trkpt lat="42.760834" lon="-7.916325">
        <ele>607.2</ele>
        <time>1970-01-01T00:06:26.000Z</time>
      </trkpt>
      <trkpt lat="42.760912" lon="-7.916329">
        <ele>606.9</ele>
        <time>1970-01-01T00:06:27.000Z</time>
      </trkpt>
      <trkpt lat="42.760992" lon="-7.916335">
        <ele>606.6</ele>
        <time>1970-01-01T00:06:28.000Z</time>
      </trkpt>
      <trkpt lat="42.761072" lon="-7.91634">
        <ele>606.3</ele>
        <time>1970-01-01T00:06:29.000Z</time>
      </trkpt>
      <trkpt lat="42.761154" lon="-7.916344">
        <ele>606</ele>
        <time>1970-01-01T00:06:30.000Z</time>
      </trkpt>
      <trkpt lat="42.761236" lon="-7.916348">
        <ele>605.7</ele>
        <time>1970-01-01T00:06:31.000Z</time>
      </trkpt>
      <trkpt lat="42.761322" lon="-7.916355">
        <ele>605.2</ele>
        <time>1970-01-01T00:06:32.000Z</time>
      </trkpt>
      <trkpt lat="42.76141" lon="-7.91636">
        <ele>604.8</ele>
        <time>1970-01-01T00:06:33.000Z</time>
      </trkpt>
      <trkpt lat="42.761501" lon="-7.916366">
        <ele>604.6</ele>
        <time>1970-01-01T00:06:34.000Z</time>
      </trkpt>
      <trkpt lat="42.761595" lon="-7.916374">
        <ele>604.3</ele>
        <time>1970-01-01T00:06:35.000Z</time>
      </trkpt>
      <trkpt lat="42.761694" lon="-7.916383">
        <ele>604</ele>
        <time>1970-01-01T00:06:36.000Z</time>
      </trkpt>
      <trkpt lat="42.761795" lon="-7.916393">
        <ele>603.6</ele>
        <time>1970-01-01T00:06:37.000Z</time>
      </trkpt>
      <trkpt lat="42.761896" lon="-7.916409">
        <ele>603.1</ele>
        <time>1970-01-01T00:06:38.000Z</time>
      </trkpt>
      <trkpt lat="42.761994" lon="-7.916434">
        <ele>602.6</ele>
        <time>1970-01-01T00:06:39.000Z</time>
      </trkpt>
      <trkpt lat="42.762083" lon="-7.916469">
        <ele>602</ele>
        <time>1970-01-01T00:06:40.000Z</time>
      </trkpt>
      <trkpt lat="42.762168" lon="-7.916515">
        <ele>601</ele>
        <time>1970-01-01T00:06:41.000Z</time>
      </trkpt>
      <trkpt lat="42.762245" lon="-7.916568">
        <ele>600.2</ele>
        <time>1970-01-01T00:06:42.000Z</time>
      </trkpt>
      <trkpt lat="42.762311" lon="-7.916614">
        <ele>599.6</ele>
        <time>1970-01-01T00:06:43.000Z</time>
      </trkpt>
      <trkpt lat="42.762362" lon="-7.916654">
        <ele>598.9</ele>
        <time>1970-01-01T00:06:44.000Z</time>
      </trkpt>
      <trkpt lat="42.762395" lon="-7.916705">
        <ele>599.2</ele>
        <time>1970-01-01T00:06:45.000Z</time>
      </trkpt>
      <trkpt lat="42.762413" lon="-7.916762">
        <ele>599.4</ele>
        <time>1970-01-01T00:06:46.000Z</time>
      </trkpt>
      <trkpt lat="42.762419" lon="-7.91682">
        <ele>599.5</ele>
        <time>1970-01-01T00:06:47.000Z</time>
      </trkpt>
      <trkpt lat="42.762426" lon="-7.916876">
        <ele>599.7</ele>
        <time>1970-01-01T00:06:48.000Z</time>
      </trkpt>
      <trkpt lat="42.762436" lon="-7.916925">
        <ele>599.8</ele>
        <time>1970-01-01T00:06:49.000Z</time>
      </trkpt>
      <trkpt lat="42.762444" lon="-7.916972">
        <ele>599.8</ele>
        <time>1970-01-01T00:06:50.000Z</time>
      </trkpt>
      <trkpt lat="42.762453" lon="-7.917009">
        <ele>599.8</ele>
        <time>1970-01-01T00:06:51.000Z</time>
      </trkpt>
      <trkpt lat="42.762466" lon="-7.917057">
        <ele>599.8</ele>
        <time>1970-01-01T00:06:52.000Z</time>
      </trkpt>
      <trkpt lat="42.76248" lon="-7.917113">
        <ele>599.9</ele>
        <time>1970-01-01T00:06:53.000Z</time>
      </trkpt>
      <trkpt lat="42.762493" lon="-7.917183">
        <ele>599.9</ele>
        <time>1970-01-01T00:06:54.000Z</time>
      </trkpt>
      <trkpt lat="42.762502" lon="-7.917256">
        <ele>599.8</ele>
        <time>1970-01-01T00:06:55.000Z</time>
      </trkpt>
      <trkpt lat="42.762513" lon="-7.91733">
        <ele>599.8</ele>
        <time>1970-01-01T00:06:56.000Z</time>
      </trkpt>
      <trkpt lat="42.762529" lon="-7.917405">
        <ele>599.8</ele>
        <time>1970-01-01T00:06:57.000Z</time>
      </trkpt>
      <trkpt lat="42.762544" lon="-7.917481">
        <ele>599.7</ele>
        <time>1970-01-01T00:06:58.000Z</time>
      </trkpt>
      <trkpt lat="42.762561" lon="-7.917556">
        <ele>599.6</ele>
        <time>1970-01-01T00:06:59.000Z</time>
      </trkpt>
      <trkpt lat="42.762581" lon="-7.917631">
        <ele>599.4</ele>
        <time>1970-01-01T00:07:00.000Z</time>
      </trkpt>
      <trkpt lat="42.762607" lon="-7.917705">
        <ele>599.2</ele>
        <time>1970-01-01T00:07:01.000Z</time>
      </trkpt>
      <trkpt lat="42.762638" lon="-7.917779">
        <ele>598.9</ele>
        <time>1970-01-01T00:07:02.000Z</time>
      </trkpt>
      <trkpt lat="42.762671" lon="-7.91785">
        <ele>598.6</ele>
        <time>1970-01-01T00:07:03.000Z</time>
      </trkpt>
      <trkpt lat="42.762704" lon="-7.917924">
        <ele>598.2</ele>
        <time>1970-01-01T00:07:04.000Z</time>
      </trkpt>
      <trkpt lat="42.762739" lon="-7.917997">
        <ele>597.8</ele>
        <time>1970-01-01T00:07:05.000Z</time>
      </trkpt>
      <trkpt lat="42.762777" lon="-7.918073">
        <ele>597.4</ele>
        <time>1970-01-01T00:07:06.000Z</time>
      </trkpt>
      <trkpt lat="42.762816" lon="-7.918148">
        <ele>597</ele>
        <time>1970-01-01T00:07:07.000Z</time>
      </trkpt>
      <trkpt lat="42.762853" lon="-7.918227">
        <ele>596.7</ele>
        <time>1970-01-01T00:07:08.000Z</time>
      </trkpt>
      <trkpt lat="42.762888" lon="-7.918306">
        <ele>596.4</ele>
        <time>1970-01-01T00:07:09.000Z</time>
      </trkpt>
      <trkpt lat="42.762918" lon="-7.918384">
        <ele>596.1</ele>
        <time>1970-01-01T00:07:10.000Z</time>
      </trkpt>
      <trkpt lat="42.762936" lon="-7.918465">
        <ele>595.9</ele>
        <time>1970-01-01T00:07:11.000Z</time>
      </trkpt>
      <trkpt lat="42.762939" lon="-7.918547">
        <ele>595.7</ele>
        <time>1970-01-01T00:07:12.000Z</time>
      </trkpt>
      <trkpt lat="42.762935" lon="-7.918631">
        <ele>595.5</ele>
        <time>1970-01-01T00:07:13.000Z</time>
      </trkpt>
      <trkpt lat="42.762928" lon="-7.918716">
        <ele>595.4</ele>
        <time>1970-01-01T00:07:14.000Z</time>
      </trkpt>
      <trkpt lat="42.76292" lon="-7.918799">
        <ele>595.3</ele>
        <time>1970-01-01T00:07:15.000Z</time>
      </trkpt>
      <trkpt lat="42.762913" lon="-7.918879">
        <ele>595.1</ele>
        <time>1970-01-01T00:07:16.000Z</time>
      </trkpt>
      <trkpt lat="42.762912" lon="-7.918959">
        <ele>595</ele>
        <time>1970-01-01T00:07:17.000Z</time>
      </trkpt>
      <trkpt lat="42.762915" lon="-7.91903">
        <ele>595</ele>
        <time>1970-01-01T00:07:18.000Z</time>
      </trkpt>
      <trkpt lat="42.762918" lon="-7.9191">
        <ele>594.9</ele>
        <time>1970-01-01T00:07:19.000Z</time>
      </trkpt>
      <trkpt lat="42.762919" lon="-7.919174">
        <ele>594.9</ele>
        <time>1970-01-01T00:07:20.000Z</time>
      </trkpt>
      <trkpt lat="42.762925" lon="-7.919243">
        <ele>594.9</ele>
        <time>1970-01-01T00:07:21.000Z</time>
      </trkpt>
      <trkpt lat="42.762931" lon="-7.919307">
        <ele>594.9</ele>
        <time>1970-01-01T00:07:22.000Z</time>
      </trkpt>
      <trkpt lat="42.762931" lon="-7.919359">
        <ele>594.9</ele>
        <time>1970-01-01T00:07:23.000Z</time>
      </trkpt>
      <trkpt lat="42.762944" lon="-7.919413">
        <ele>594.9</ele>
        <time>1970-01-01T00:07:24.000Z</time>
      </trkpt>
      <trkpt lat="42.762963" lon="-7.919457">
        <ele>594.9</ele>
        <time>1970-01-01T00:07:25.000Z</time>
      </trkpt>
      <trkpt lat="42.762984" lon="-7.919497">
        <ele>594.9</ele>
        <time>1970-01-01T00:07:26.000Z</time>
      </trkpt>
      <trkpt lat="42.763006" lon="-7.919537">
        <ele>594.9</ele>
        <time>1970-01-01T00:07:27.000Z</time>
      </trkpt>
      <trkpt lat="42.763035" lon="-7.919589">
        <ele>594.9</ele>
        <time>1970-01-01T00:07:28.000Z</time>
      </trkpt>
      <trkpt lat="42.763071" lon="-7.919651">
        <ele>594.9</ele>
        <time>1970-01-01T00:07:29.000Z</time>
      </trkpt>
      <trkpt lat="42.763106" lon="-7.919704">
        <ele>594.9</ele>
        <time>1970-01-01T00:07:30.000Z</time>
      </trkpt>
      <trkpt lat="42.763137" lon="-7.919762">
        <ele>594.9</ele>
        <time>1970-01-01T00:07:31.000Z</time>
      </trkpt>
      <trkpt lat="42.76317" lon="-7.919815">
        <ele>594.9</ele>
        <time>1970-01-01T00:07:32.000Z</time>
      </trkpt>
      <trkpt lat="42.763198" lon="-7.919852">
        <ele>594.9</ele>
        <time>1970-01-01T00:07:33.000Z</time>
      </trkpt>
      <trkpt lat="42.763219" lon="-7.919889">
        <ele>594.9</ele>
        <time>1970-01-01T00:07:34.000Z</time>
      </trkpt>
      <trkpt lat="42.763251" lon="-7.91993">
        <ele>594.9</ele>
        <time>1970-01-01T00:07:35.000Z</time>
      </trkpt>
      <trkpt lat="42.763276" lon="-7.919982">
        <ele>594.9</ele>
        <time>1970-01-01T00:07:36.000Z</time>
      </trkpt>
      <trkpt lat="42.763297" lon="-7.920008">
        <ele>594.9</ele>
        <time>1970-01-01T00:07:37.000Z</time>
      </trkpt>
      <trkpt lat="42.763311" lon="-7.920037">
        <ele>594.9</ele>
        <time>1970-01-01T00:07:38.000Z</time>
      </trkpt>
      <trkpt lat="42.763329" lon="-7.92008">
        <ele>594.9</ele>
        <time>1970-01-01T00:07:39.000Z</time>
      </trkpt>
      <trkpt lat="42.763344" lon="-7.920126">
        <ele>594.9</ele>
        <time>1970-01-01T00:07:40.000Z</time>
      </trkpt>
      <trkpt lat="42.763364" lon="-7.920184">
        <ele>594.9</ele>
        <time>1970-01-01T00:07:41.000Z</time>
      </trkpt>
      <trkpt lat="42.763386" lon="-7.920245">
        <ele>594.9</ele>
        <time>1970-01-01T00:07:42.000Z</time>
      </trkpt>
      <trkpt lat="42.763403" lon="-7.920311">
        <ele>595</ele>
        <time>1970-01-01T00:07:43.000Z</time>
      </trkpt>
      <trkpt lat="42.763423" lon="-7.920376">
        <ele>595</ele>
        <time>1970-01-01T00:07:44.000Z</time>
      </trkpt>
      <trkpt lat="42.763452" lon="-7.920444">
        <ele>595.1</ele>
        <time>1970-01-01T00:07:45.000Z</time>
      </trkpt>
      <trkpt lat="42.763486" lon="-7.920497">
        <ele>595.3</ele>
        <time>1970-01-01T00:07:46.000Z</time>
      </trkpt>
      <trkpt lat="42.763504" lon="-7.920549">
        <ele>595.4</ele>
        <time>1970-01-01T00:07:47.000Z</time>
      </trkpt>
      <trkpt lat="42.763535" lon="-7.920614">
        <ele>595.6</ele>
        <time>1970-01-01T00:07:48.000Z</time>
      </trkpt>
      <trkpt lat="42.763553" lon="-7.920667">
        <ele>595.8</ele>
        <time>1970-01-01T00:07:49.000Z</time>
      </trkpt>
      <trkpt lat="42.763571" lon="-7.920717">
        <ele>596.1</ele>
        <time>1970-01-01T00:07:50.000Z</time>
      </trkpt>
      <trkpt lat="42.763598" lon="-7.92076">
        <ele>596.3</ele>
        <time>1970-01-01T00:07:51.000Z</time>
      </trkpt>
      <trkpt lat="42.763615" lon="-7.920804">
        <ele>596.5</ele>
        <time>1970-01-01T00:07:52.000Z</time>
      </trkpt>
      <trkpt lat="42.763628" lon="-7.920845">
        <ele>596.7</ele>
        <time>1970-01-01T00:07:53.000Z</time>
      </trkpt>
      <trkpt lat="42.763645" lon="-7.920894">
        <ele>597</ele>
        <time>1970-01-01T00:07:54.000Z</time>
      </trkpt>
      <trkpt lat="42.763671" lon="-7.920927">
        <ele>597.3</ele>
        <time>1970-01-01T00:07:55.000Z</time>
      </trkpt>
      <trkpt lat="42.763693" lon="-7.920972">
        <ele>597.6</ele>
        <time>1970-01-01T00:07:56.000Z</time>
      </trkpt>
      <trkpt lat="42.76371" lon="-7.921017">
        <ele>597.8</ele>
        <time>1970-01-01T00:07:57.000Z</time>
      </trkpt>
      <trkpt lat="42.763731" lon="-7.921061">
        <ele>598.1</ele>
        <time>1970-01-01T00:07:58.000Z</time>
      </trkpt>
      <trkpt lat="42.763747" lon="-7.921123">
        <ele>598.4</ele>
        <time>1970-01-01T00:07:59.000Z</time>
      </trkpt>
      <trkpt lat="42.763757" lon="-7.921176">
        <ele>598.6</ele>
        <time>1970-01-01T00:08:00.000Z</time>
      </trkpt>
      <trkpt lat="42.763768" lon="-7.921228">
        <ele>598.9</ele>
        <time>1970-01-01T00:08:01.000Z</time>
      </trkpt>
      <trkpt lat="42.76378" lon="-7.921276">
        <ele>599.1</ele>
        <time>1970-01-01T00:08:02.000Z</time>
      </trkpt>
      <trkpt lat="42.763785" lon="-7.92132">
        <ele>599.3</ele>
        <time>1970-01-01T00:08:03.000Z</time>
      </trkpt>
      <trkpt lat="42.763794" lon="-7.921365">
        <ele>599.5</ele>
        <time>1970-01-01T00:08:04.000Z</time>
      </trkpt>
      <trkpt lat="42.763799" lon="-7.92141">
        <ele>599.7</ele>
        <time>1970-01-01T00:08:05.000Z</time>
      </trkpt>
      <trkpt lat="42.763803" lon="-7.921444">
        <ele>599.9</ele>
        <time>1970-01-01T00:08:06.000Z</time>
      </trkpt>
      <trkpt lat="42.763803" lon="-7.921479">
        <ele>600.1</ele>
        <time>1970-01-01T00:08:07.000Z</time>
      </trkpt>
      <trkpt lat="42.763809" lon="-7.921501">
        <ele>600.3</ele>
        <time>1970-01-01T00:08:08.000Z</time>
      </trkpt>
      <trkpt lat="42.763811" lon="-7.921531">
        <ele>600.5</ele>
        <time>1970-01-01T00:08:09.000Z</time>
      </trkpt>
      <trkpt lat="42.763812" lon="-7.92156">
        <ele>600.7</ele>
        <time>1970-01-01T00:08:10.000Z</time>
      </trkpt>
      <trkpt lat="42.763812" lon="-7.921587">
        <ele>600.9</ele>
        <time>1970-01-01T00:08:11.000Z</time>
      </trkpt>
      <trkpt lat="42.76381" lon="-7.921618">
        <ele>601.2</ele>
        <time>1970-01-01T00:08:12.000Z</time>
      </trkpt>
      <trkpt lat="42.763811" lon="-7.921649">
        <ele>601.4</ele>
        <time>1970-01-01T00:08:13.000Z</time>
      </trkpt>
      <trkpt lat="42.763816" lon="-7.921676">
        <ele>601.7</ele>
        <time>1970-01-01T00:08:14.000Z</time>
      </trkpt>
      <trkpt lat="42.763821" lon="-7.921695">
        <ele>601.8</ele>
        <time>1970-01-01T00:08:15.000Z</time>
      </trkpt>
      <trkpt lat="42.763821" lon="-7.92173">
        <ele>602.1</ele>
        <time>1970-01-01T00:08:16.000Z</time>
      </trkpt>
      <trkpt lat="42.763821" lon="-7.921749">
        <ele>602.3</ele>
        <time>1970-01-01T00:08:17.000Z</time>
      </trkpt>
      <trkpt lat="42.763819" lon="-7.921769">
        <ele>602.5</ele>
        <time>1970-01-01T00:08:18.000Z</time>
      </trkpt>
      <trkpt lat="42.76382" lon="-7.9218">
        <ele>602.8</ele>
        <time>1970-01-01T00:08:19.000Z</time>
      </trkpt>
      <trkpt lat="42.763827" lon="-7.921787">
        <ele>602.9</ele>
        <time>1970-01-01T00:08:20.000Z</time>
      </trkpt>
      <trkpt lat="42.76383" lon="-7.9218">
        <ele>603</ele>
        <time>1970-01-01T00:08:21.000Z</time>
      </trkpt>
      <trkpt lat="42.763832" lon="-7.921832">
        <ele>603.3</ele>
        <time>1970-01-01T00:08:22.000Z</time>
      </trkpt>
      <trkpt lat="42.763834" lon="-7.921857">
        <ele>603.5</ele>
        <time>1970-01-01T00:08:23.000Z</time>
      </trkpt>
      <trkpt lat="42.763846" lon="-7.921871">
        <ele>603.7</ele>
        <time>1970-01-01T00:08:24.000Z</time>
      </trkpt>
      <trkpt lat="42.763854" lon="-7.921888">
        <ele>603.9</ele>
        <time>1970-01-01T00:08:25.000Z</time>
      </trkpt>
      <trkpt lat="42.763866" lon="-7.921914">
        <ele>604.1</ele>
        <time>1970-01-01T00:08:26.000Z</time>
      </trkpt>
      <trkpt lat="42.76388" lon="-7.921936">
        <ele>604.3</ele>
        <time>1970-01-01T00:08:27.000Z</time>
      </trkpt>
      <trkpt lat="42.763889" lon="-7.921955">
        <ele>604.5</ele>
        <time>1970-01-01T00:08:28.000Z</time>
      </trkpt>
      <trkpt lat="42.763903" lon="-7.921985">
        <ele>604.7</ele>
        <time>1970-01-01T00:08:29.000Z</time>
      </trkpt>
      <trkpt lat="42.763916" lon="-7.922011">
        <ele>604.9</ele>
        <time>1970-01-01T00:08:30.000Z</time>
      </trkpt>
      <trkpt lat="42.763916" lon="-7.922039">
        <ele>605.1</ele>
        <time>1970-01-01T00:08:31.000Z</time>
      </trkpt>
      <trkpt lat="42.763929" lon="-7.922074">
        <ele>605.3</ele>
        <time>1970-01-01T00:08:32.000Z</time>
      </trkpt>
      <trkpt lat="42.763946" lon="-7.922105">
        <ele>605.5</ele>
        <time>1970-01-01T00:08:33.000Z</time>
      </trkpt>
      <trkpt lat="42.763962" lon="-7.922134">
        <ele>605.7</ele>
        <time>1970-01-01T00:08:34.000Z</time>
      </trkpt>
      <trkpt lat="42.763974" lon="-7.922169">
        <ele>605.9</ele>
        <time>1970-01-01T00:08:35.000Z</time>
      </trkpt>
      <trkpt lat="42.763989" lon="-7.922202">
        <ele>606.1</ele>
        <time>1970-01-01T00:08:36.000Z</time>
      </trkpt>
      <trkpt lat="42.764004" lon="-7.922235">
        <ele>606.3</ele>
        <time>1970-01-01T00:08:37.000Z</time>
      </trkpt>
      <trkpt lat="42.764017" lon="-7.922269">
        <ele>606.4</ele>
        <time>1970-01-01T00:08:38.000Z</time>
      </trkpt>
      <trkpt lat="42.764028" lon="-7.922306">
        <ele>606.6</ele>
        <time>1970-01-01T00:08:39.000Z</time>
      </trkpt>
      <trkpt lat="42.76404" lon="-7.92234">
        <ele>606.8</ele>
        <time>1970-01-01T00:08:40.000Z</time>
      </trkpt>
      <trkpt lat="42.764049" lon="-7.922377">
        <ele>606.9</ele>
        <time>1970-01-01T00:08:41.000Z</time>
      </trkpt>
      <trkpt lat="42.764057" lon="-7.922408">
        <ele>607.1</ele>
        <time>1970-01-01T00:08:42.000Z</time>
      </trkpt>
      <trkpt lat="42.764061" lon="-7.92244">
        <ele>607.2</ele>
        <time>1970-01-01T00:08:43.000Z</time>
      </trkpt>
      <trkpt lat="42.764067" lon="-7.922472">
        <ele>607.3</ele>
        <time>1970-01-01T00:08:44.000Z</time>
      </trkpt>
      <trkpt lat="42.764073" lon="-7.922501">
        <ele>607.5</ele>
        <time>1970-01-01T00:08:45.000Z</time>
      </trkpt>
      <trkpt lat="42.76408" lon="-7.922532">
        <ele>607.6</ele>
        <time>1970-01-01T00:08:46.000Z</time>
      </trkpt>
      <trkpt lat="42.764084" lon="-7.922568">
        <ele>607.8</ele>
        <time>1970-01-01T00:08:47.000Z</time>
      </trkpt>
      <trkpt lat="42.76409" lon="-7.922598">
        <ele>607.9</ele>
        <time>1970-01-01T00:08:48.000Z</time>
      </trkpt>
      <trkpt lat="42.764097" lon="-7.922629">
        <ele>608.1</ele>
        <time>1970-01-01T00:08:49.000Z</time>
      </trkpt>
      <trkpt lat="42.764105" lon="-7.922657">
        <ele>608.2</ele>
        <time>1970-01-01T00:08:50.000Z</time>
      </trkpt>
      <trkpt lat="42.764112" lon="-7.922691">
        <ele>608.4</ele>
        <time>1970-01-01T00:08:51.000Z</time>
      </trkpt>
      <trkpt lat="42.764122" lon="-7.92272">
        <ele>608.6</ele>
        <time>1970-01-01T00:08:52.000Z</time>
      </trkpt>
      <trkpt lat="42.764132" lon="-7.922752">
        <ele>608.8</ele>
        <time>1970-01-01T00:08:53.000Z</time>
      </trkpt>
      <trkpt lat="42.764143" lon="-7.922782">
        <ele>608.9</ele>
        <time>1970-01-01T00:08:54.000Z</time>
      </trkpt>
      <trkpt lat="42.76415" lon="-7.922815">
        <ele>609.1</ele>
        <time>1970-01-01T00:08:55.000Z</time>
      </trkpt>
      <trkpt lat="42.764163" lon="-7.922844">
        <ele>609.3</ele>
        <time>1970-01-01T00:08:56.000Z</time>
      </trkpt>
      <trkpt lat="42.764178" lon="-7.922873">
        <ele>609.4</ele>
        <time>1970-01-01T00:08:57.000Z</time>
      </trkpt>
      <trkpt lat="42.764192" lon="-7.922913">
        <ele>609.6</ele>
        <time>1970-01-01T00:08:58.000Z</time>
      </trkpt>
      <trkpt lat="42.764206" lon="-7.922954">
        <ele>609.7</ele>
        <time>1970-01-01T00:08:59.000Z</time>
      </trkpt>
      <trkpt lat="42.76422" lon="-7.922992">
        <ele>609.8</ele>
        <time>1970-01-01T00:09:00.000Z</time>
      </trkpt>
      <trkpt lat="42.764233" lon="-7.923026">
        <ele>609.9</ele>
        <time>1970-01-01T00:09:01.000Z</time>
      </trkpt>
      <trkpt lat="42.764245" lon="-7.923067">
        <ele>610</ele>
        <time>1970-01-01T00:09:02.000Z</time>
      </trkpt>
      <trkpt lat="42.764256" lon="-7.923104">
        <ele>610.1</ele>
        <time>1970-01-01T00:09:03.000Z</time>
      </trkpt>
      <trkpt lat="42.764266" lon="-7.923142">
        <ele>610.2</ele>
        <time>1970-01-01T00:09:04.000Z</time>
      </trkpt>
      <trkpt lat="42.764275" lon="-7.923182">
        <ele>610.3</ele>
        <time>1970-01-01T00:09:05.000Z</time>
      </trkpt>
      <trkpt lat="42.764284" lon="-7.923226">
        <ele>610.4</ele>
        <time>1970-01-01T00:09:06.000Z</time>
      </trkpt>
      <trkpt lat="42.764292" lon="-7.923264">
        <ele>610.5</ele>
        <time>1970-01-01T00:09:07.000Z</time>
      </trkpt>
      <trkpt lat="42.764297" lon="-7.9233">
        <ele>610.6</ele>
        <time>1970-01-01T00:09:08.000Z</time>
      </trkpt>
      <trkpt lat="42.764303" lon="-7.923339">
        <ele>610.7</ele>
        <time>1970-01-01T00:09:09.000Z</time>
      </trkpt>
      <trkpt lat="42.764306" lon="-7.923377">
        <ele>610.8</ele>
        <time>1970-01-01T00:09:10.000Z</time>
      </trkpt>
      <trkpt lat="42.764307" lon="-7.923414">
        <ele>610.9</ele>
        <time>1970-01-01T00:09:11.000Z</time>
      </trkpt>
      <trkpt lat="42.764308" lon="-7.923456">
        <ele>611</ele>
        <time>1970-01-01T00:09:12.000Z</time>
      </trkpt>
      <trkpt lat="42.764308" lon="-7.923492">
        <ele>611.1</ele>
        <time>1970-01-01T00:09:13.000Z</time>
      </trkpt>
      <trkpt lat="42.76431" lon="-7.923528">
        <ele>611.2</ele>
        <time>1970-01-01T00:09:14.000Z</time>
      </trkpt>
      <trkpt lat="42.764313" lon="-7.923567">
        <ele>611.3</ele>
        <time>1970-01-01T00:09:15.000Z</time>
      </trkpt>
      <trkpt lat="42.764317" lon="-7.923599">
        <ele>611.4</ele>
        <time>1970-01-01T00:09:16.000Z</time>
      </trkpt>
      <trkpt lat="42.764319" lon="-7.923632">
        <ele>611.4</ele>
        <time>1970-01-01T00:09:17.000Z</time>
      </trkpt>
      <trkpt lat="42.764323" lon="-7.923667">
        <ele>611.5</ele>
        <time>1970-01-01T00:09:18.000Z</time>
      </trkpt>
      <trkpt lat="42.764329" lon="-7.9237">
        <ele>611.6</ele>
        <time>1970-01-01T00:09:19.000Z</time>
      </trkpt>
      <trkpt lat="42.764336" lon="-7.923733">
        <ele>611.7</ele>
        <time>1970-01-01T00:09:20.000Z</time>
      </trkpt>
      <trkpt lat="42.764345" lon="-7.923765">
        <ele>611.8</ele>
        <time>1970-01-01T00:09:21.000Z</time>
      </trkpt>
      <trkpt lat="42.764353" lon="-7.9238">
        <ele>611.9</ele>
        <time>1970-01-01T00:09:22.000Z</time>
      </trkpt>
      <trkpt lat="42.764361" lon="-7.923836">
        <ele>612</ele>
        <time>1970-01-01T00:09:23.000Z</time>
      </trkpt>
      <trkpt lat="42.764367" lon="-7.923874">
        <ele>612.2</ele>
        <time>1970-01-01T00:09:24.000Z</time>
      </trkpt>
      <trkpt lat="42.764372" lon="-7.923911">
        <ele>612.3</ele>
        <time>1970-01-01T00:09:25.000Z</time>
      </trkpt>
      <trkpt lat="42.76438" lon="-7.923948">
        <ele>612.4</ele>
        <time>1970-01-01T00:09:26.000Z</time>
      </trkpt>
      <trkpt lat="42.76439" lon="-7.923984">
        <ele>612.5</ele>
        <time>1970-01-01T00:09:27.000Z</time>
      </trkpt>
      <trkpt lat="42.764398" lon="-7.924021">
        <ele>612.6</ele>
        <time>1970-01-01T00:09:28.000Z</time>
      </trkpt>
      <trkpt lat="42.764406" lon="-7.924058">
        <ele>612.7</ele>
        <time>1970-01-01T00:09:29.000Z</time>
      </trkpt>
      <trkpt lat="42.764414" lon="-7.924094">
        <ele>612.7</ele>
        <time>1970-01-01T00:09:30.000Z</time>
      </trkpt>
      <trkpt lat="42.764423" lon="-7.924129">
        <ele>612.8</ele>
        <time>1970-01-01T00:09:31.000Z</time>
      </trkpt>
      <trkpt lat="42.764433" lon="-7.924167">
        <ele>612.8</ele>
        <time>1970-01-01T00:09:32.000Z</time>
      </trkpt>
      <trkpt lat="42.764443" lon="-7.924207">
        <ele>612.8</ele>
        <time>1970-01-01T00:09:33.000Z</time>
      </trkpt>
      <trkpt lat="42.764452" lon="-7.924247">
        <ele>612.9</ele>
        <time>1970-01-01T00:09:34.000Z</time>
      </trkpt>
      <trkpt lat="42.764462" lon="-7.924289">
        <ele>612.9</ele>
        <time>1970-01-01T00:09:35.000Z</time>
      </trkpt>
      <trkpt lat="42.764471" lon="-7.924331">
        <ele>612.9</ele>
        <time>1970-01-01T00:09:36.000Z</time>
      </trkpt>
      <trkpt lat="42.76448" lon="-7.924376">
        <ele>612.9</ele>
        <time>1970-01-01T00:09:37.000Z</time>
      </trkpt>
      <trkpt lat="42.764489" lon="-7.92442">
        <ele>613</ele>
        <time>1970-01-01T00:09:38.000Z</time>
      </trkpt>
      <trkpt lat="42.764495" lon="-7.924464">
        <ele>613</ele>
        <time>1970-01-01T00:09:39.000Z</time>
      </trkpt>
      <trkpt lat="42.7645" lon="-7.924508">
        <ele>613.1</ele>
        <time>1970-01-01T00:09:40.000Z</time>
      </trkpt>
      <trkpt lat="42.764504" lon="-7.92455">
        <ele>613.2</ele>
        <time>1970-01-01T00:09:41.000Z</time>
      </trkpt>
      <trkpt lat="42.764505" lon="-7.924594">
        <ele>613.4</ele>
        <time>1970-01-01T00:09:42.000Z</time>
      </trkpt>
      <trkpt lat="42.764506" lon="-7.92464">
        <ele>613.5</ele>
        <time>1970-01-01T00:09:43.000Z</time>
      </trkpt>
      <trkpt lat="42.764505" lon="-7.924685">
        <ele>613.7</ele>
        <time>1970-01-01T00:09:44.000Z</time>
      </trkpt>
      <trkpt lat="42.764503" lon="-7.924727">
        <ele>614</ele>
        <time>1970-01-01T00:09:45.000Z</time>
      </trkpt>
      <trkpt lat="42.764499" lon="-7.924769">
        <ele>614.2</ele>
        <time>1970-01-01T00:09:46.000Z</time>
      </trkpt>
      <trkpt lat="42.764493" lon="-7.924807">
        <ele>614.5</ele>
        <time>1970-01-01T00:09:47.000Z</time>
      </trkpt>
      <trkpt lat="42.764485" lon="-7.924846">
        <ele>614.7</ele>
        <time>1970-01-01T00:09:48.000Z</time>
      </trkpt>
      <trkpt lat="42.764475" lon="-7.924884">
        <ele>615</ele>
        <time>1970-01-01T00:09:49.000Z</time>
      </trkpt>
      <trkpt lat="42.764463" lon="-7.924919">
        <ele>615.2</ele>
        <time>1970-01-01T00:09:50.000Z</time>
      </trkpt>
      <trkpt lat="42.764451" lon="-7.924955">
        <ele>615.4</ele>
        <time>1970-01-01T00:09:51.000Z</time>
      </trkpt>
      <trkpt lat="42.764442" lon="-7.924988">
        <ele>615.7</ele>
        <time>1970-01-01T00:09:52.000Z</time>
      </trkpt>
      <trkpt lat="42.764433" lon="-7.925019">
        <ele>615.9</ele>
        <time>1970-01-01T00:09:53.000Z</time>
      </trkpt>
      <trkpt lat="42.764421" lon="-7.925048">
        <ele>616</ele>
        <time>1970-01-01T00:09:54.000Z</time>
      </trkpt>
      <trkpt lat="42.764408" lon="-7.925077">
        <ele>616.2</ele>
        <time>1970-01-01T00:09:55.000Z</time>
      </trkpt>
      <trkpt lat="42.764396" lon="-7.925107">
        <ele>616.3</ele>
        <time>1970-01-01T00:09:56.000Z</time>
      </trkpt>
      <trkpt lat="42.764386" lon="-7.925138">
        <ele>616.4</ele>
        <time>1970-01-01T00:09:57.000Z</time>
      </trkpt>
      <trkpt lat="42.764373" lon="-7.925165">
        <ele>616.5</ele>
        <time>1970-01-01T00:09:58.000Z</time>
      </trkpt>
      <trkpt lat="42.764362" lon="-7.925192">
        <ele>616.6</ele>
        <time>1970-01-01T00:09:59.000Z</time>
      </trkpt>
      <trkpt lat="42.76435" lon="-7.92522">
        <ele>616.8</ele>
        <time>1970-01-01T00:10:00.000Z</time>
      </trkpt>
      <trkpt lat="42.764336" lon="-7.925246">
        <ele>617</ele>
        <time>1970-01-01T00:10:01.000Z</time>
      </trkpt>
      <trkpt lat="42.764323" lon="-7.925274">
        <ele>617.1</ele>
        <time>1970-01-01T00:10:02.000Z</time>
      </trkpt>
      <trkpt lat="42.764309" lon="-7.925304">
        <ele>617.3</ele>
        <time>1970-01-01T00:10:03.000Z</time>
      </trkpt>
      <trkpt lat="42.764294" lon="-7.925331">
        <ele>617.4</ele>
        <time>1970-01-01T00:10:04.000Z</time>
      </trkpt>
      <trkpt lat="42.764281" lon="-7.92536">
        <ele>617.5</ele>
        <time>1970-01-01T00:10:05.000Z</time>
      </trkpt>
      <trkpt lat="42.764271" lon="-7.925391">
        <ele>617.6</ele>
        <time>1970-01-01T00:10:06.000Z</time>
      </trkpt>
      <trkpt lat="42.764266" lon="-7.925424">
        <ele>617.7</ele>
        <time>1970-01-01T00:10:07.000Z</time>
      </trkpt>
      <trkpt lat="42.764264" lon="-7.925457">
        <ele>617.8</ele>
        <time>1970-01-01T00:10:08.000Z</time>
      </trkpt>
      <trkpt lat="42.764261" lon="-7.925492">
        <ele>617.9</ele>
        <time>1970-01-01T00:10:09.000Z</time>
      </trkpt>
      <trkpt lat="42.764262" lon="-7.925529">
        <ele>618</ele>
        <time>1970-01-01T00:10:10.000Z</time>
      </trkpt>
      <trkpt lat="42.764264" lon="-7.925568">
        <ele>618.1</ele>
        <time>1970-01-01T00:10:11.000Z</time>
      </trkpt>
      <trkpt lat="42.764268" lon="-7.925607">
        <ele>618.2</ele>
        <time>1970-01-01T00:10:12.000Z</time>
      </trkpt>
      <trkpt lat="42.764276" lon="-7.925645">
        <ele>618.2</ele>
        <time>1970-01-01T00:10:13.000Z</time>
      </trkpt>
      <trkpt lat="42.764283" lon="-7.925683">
        <ele>618.3</ele>
        <time>1970-01-01T00:10:14.000Z</time>
      </trkpt>
      <trkpt lat="42.76429" lon="-7.92572">
        <ele>618.4</ele>
        <time>1970-01-01T00:10:15.000Z</time>
      </trkpt>
      <trkpt lat="42.764295" lon="-7.925756">
        <ele>618.5</ele>
        <time>1970-01-01T00:10:16.000Z</time>
      </trkpt>
      <trkpt lat="42.764302" lon="-7.925792">
        <ele>618.6</ele>
        <time>1970-01-01T00:10:17.000Z</time>
      </trkpt>
      <trkpt lat="42.764308" lon="-7.925827">
        <ele>618.7</ele>
        <time>1970-01-01T00:10:18.000Z</time>
      </trkpt>
      <trkpt lat="42.764315" lon="-7.925861">
        <ele>618.8</ele>
        <time>1970-01-01T00:10:19.000Z</time>
      </trkpt>
      <trkpt lat="42.76432" lon="-7.925896">
        <ele>618.9</ele>
        <time>1970-01-01T00:10:20.000Z</time>
      </trkpt>
      <trkpt lat="42.764323" lon="-7.925931">
        <ele>619</ele>
        <time>1970-01-01T00:10:21.000Z</time>
      </trkpt>
      <trkpt lat="42.764323" lon="-7.925965">
        <ele>619.1</ele>
        <time>1970-01-01T00:10:22.000Z</time>
      </trkpt>
      <trkpt lat="42.764323" lon="-7.925998">
        <ele>619.2</ele>
        <time>1970-01-01T00:10:23.000Z</time>
      </trkpt>
      <trkpt lat="42.764326" lon="-7.926032">
        <ele>619.4</ele>
        <time>1970-01-01T00:10:24.000Z</time>
      </trkpt>
      <trkpt lat="42.764328" lon="-7.926063">
        <ele>619.5</ele>
        <time>1970-01-01T00:10:25.000Z</time>
      </trkpt>
      <trkpt lat="42.764333" lon="-7.926093">
        <ele>619.7</ele>
        <time>1970-01-01T00:10:26.000Z</time>
      </trkpt>
      <trkpt lat="42.764339" lon="-7.926123">
        <ele>619.8</ele>
        <time>1970-01-01T00:10:27.000Z</time>
      </trkpt>
      <trkpt lat="42.764347" lon="-7.926153">
        <ele>619.9</ele>
        <time>1970-01-01T00:10:28.000Z</time>
      </trkpt>
      <trkpt lat="42.764359" lon="-7.926182">
        <ele>620.1</ele>
        <time>1970-01-01T00:10:29.000Z</time>
      </trkpt>
      <trkpt lat="42.764369" lon="-7.926212">
        <ele>620.2</ele>
        <time>1970-01-01T00:10:30.000Z</time>
      </trkpt>
      <trkpt lat="42.764377" lon="-7.926242">
        <ele>620.4</ele>
        <time>1970-01-01T00:10:31.000Z</time>
      </trkpt>
      <trkpt lat="42.764386" lon="-7.926271">
        <ele>620.5</ele>
        <time>1970-01-01T00:10:32.000Z</time>
      </trkpt>
      <trkpt lat="42.764396" lon="-7.926299">
        <ele>620.7</ele>
        <time>1970-01-01T00:10:33.000Z</time>
      </trkpt>
      <trkpt lat="42.764406" lon="-7.926326">
        <ele>620.9</ele>
        <time>1970-01-01T00:10:34.000Z</time>
      </trkpt>
      <trkpt lat="42.764418" lon="-7.926354">
        <ele>621</ele>
        <time>1970-01-01T00:10:35.000Z</time>
      </trkpt>
      <trkpt lat="42.764429" lon="-7.926382">
        <ele>621.2</ele>
        <time>1970-01-01T00:10:36.000Z</time>
      </trkpt>
      <trkpt lat="42.764442" lon="-7.92641">
        <ele>621.3</ele>
        <time>1970-01-01T00:10:37.000Z</time>
      </trkpt>
      <trkpt lat="42.764456" lon="-7.926439">
        <ele>621.4</ele>
        <time>1970-01-01T00:10:38.000Z</time>
      </trkpt>
      <trkpt lat="42.76447" lon="-7.926469">
        <ele>621.5</ele>
        <time>1970-01-01T00:10:39.000Z</time>
      </trkpt>
      <trkpt lat="42.764485" lon="-7.9265">
        <ele>621.6</ele>
        <time>1970-01-01T00:10:40.000Z</time>
      </trkpt>
      <trkpt lat="42.764501" lon="-7.926531">
        <ele>621.7</ele>
        <time>1970-01-01T00:10:41.000Z</time>
      </trkpt>
      <trkpt lat="42.764515" lon="-7.926561">
        <ele>621.7</ele>
        <time>1970-01-01T00:10:42.000Z</time>
      </trkpt>
      <trkpt lat="42.76453" lon="-7.926592">
        <ele>621.8</ele>
        <time>1970-01-01T00:10:43.000Z</time>
      </trkpt>
      <trkpt lat="42.764546" lon="-7.926624">
        <ele>621.8</ele>
        <time>1970-01-01T00:10:44.000Z</time>
      </trkpt>
      <trkpt lat="42.764563" lon="-7.926657">
        <ele>621.8</ele>
        <time>1970-01-01T00:10:45.000Z</time>
      </trkpt>
      <trkpt lat="42.764581" lon="-7.926692">
        <ele>621.9</ele>
        <time>1970-01-01T00:10:46.000Z</time>
      </trkpt>
      <trkpt lat="42.7646" lon="-7.926728">
        <ele>621.9</ele>
        <time>1970-01-01T00:10:47.000Z</time>
      </trkpt>
      <trkpt lat="42.76462" lon="-7.926764">
        <ele>621.9</ele>
        <time>1970-01-01T00:10:48.000Z</time>
      </trkpt>
      <trkpt lat="42.764642" lon="-7.926801">
        <ele>621.9</ele>
        <time>1970-01-01T00:10:49.000Z</time>
      </trkpt>
      <trkpt lat="42.764665" lon="-7.926836">
        <ele>621.9</ele>
        <time>1970-01-01T00:10:50.000Z</time>
      </trkpt>
      <trkpt lat="42.764691" lon="-7.926871">
        <ele>621.9</ele>
        <time>1970-01-01T00:10:51.000Z</time>
      </trkpt>
      <trkpt lat="42.764718" lon="-7.926905">
        <ele>621.9</ele>
        <time>1970-01-01T00:10:52.000Z</time>
      </trkpt>
      <trkpt lat="42.764746" lon="-7.92694">
        <ele>621.9</ele>
        <time>1970-01-01T00:10:53.000Z</time>
      </trkpt>
      <trkpt lat="42.764775" lon="-7.926974">
        <ele>621.9</ele>
        <time>1970-01-01T00:10:54.000Z</time>
      </trkpt>
      <trkpt lat="42.764807" lon="-7.927007">
        <ele>621.9</ele>
        <time>1970-01-01T00:10:55.000Z</time>
      </trkpt>
      <trkpt lat="42.764839" lon="-7.927037">
        <ele>621.8</ele>
        <time>1970-01-01T00:10:56.000Z</time>
      </trkpt>
      <trkpt lat="42.764871" lon="-7.927069">
        <ele>621.8</ele>
        <time>1970-01-01T00:10:57.000Z</time>
      </trkpt>
      <trkpt lat="42.764902" lon="-7.927103">
        <ele>621.8</ele>
        <time>1970-01-01T00:10:58.000Z</time>
      </trkpt>
      <trkpt lat="42.764934" lon="-7.927136">
        <ele>621.8</ele>
        <time>1970-01-01T00:10:59.000Z</time>
      </trkpt>
      <trkpt lat="42.764967" lon="-7.927174">
        <ele>621.8</ele>
        <time>1970-01-01T00:11:00.000Z</time>
      </trkpt>
      <trkpt lat="42.765001" lon="-7.927217">
        <ele>621.8</ele>
        <time>1970-01-01T00:11:01.000Z</time>
      </trkpt>
      <trkpt lat="42.765034" lon="-7.927264">
        <ele>621.7</ele>
        <time>1970-01-01T00:11:02.000Z</time>
      </trkpt>
      <trkpt lat="42.765067" lon="-7.927312">
        <ele>621.7</ele>
        <time>1970-01-01T00:11:03.000Z</time>
      </trkpt>
      <trkpt lat="42.765098" lon="-7.92736">
        <ele>621.6</ele>
        <time>1970-01-01T00:11:04.000Z</time>
      </trkpt>
      <trkpt lat="42.765125" lon="-7.927408">
        <ele>621.5</ele>
        <time>1970-01-01T00:11:05.000Z</time>
      </trkpt>
      <trkpt lat="42.765152" lon="-7.927454">
        <ele>621.4</ele>
        <time>1970-01-01T00:11:06.000Z</time>
      </trkpt>
      <trkpt lat="42.765179" lon="-7.927498">
        <ele>621.3</ele>
        <time>1970-01-01T00:11:07.000Z</time>
      </trkpt>
      <trkpt lat="42.765206" lon="-7.92754">
        <ele>621.2</ele>
        <time>1970-01-01T00:11:08.000Z</time>
      </trkpt>
      <trkpt lat="42.765236" lon="-7.927582">
        <ele>621.1</ele>
        <time>1970-01-01T00:11:09.000Z</time>
      </trkpt>
      <trkpt lat="42.765266" lon="-7.927626">
        <ele>621.1</ele>
        <time>1970-01-01T00:11:10.000Z</time>
      </trkpt>
      <trkpt lat="42.765295" lon="-7.927673">
        <ele>621</ele>
        <time>1970-01-01T00:11:11.000Z</time>
      </trkpt>
      <trkpt lat="42.765327" lon="-7.92772">
        <ele>621</ele>
        <time>1970-01-01T00:11:12.000Z</time>
      </trkpt>
      <trkpt lat="42.765357" lon="-7.927767">
        <ele>620.9</ele>
        <time>1970-01-01T00:11:13.000Z</time>
      </trkpt>
      <trkpt lat="42.765387" lon="-7.927812">
        <ele>620.9</ele>
        <time>1970-01-01T00:11:14.000Z</time>
      </trkpt>
      <trkpt lat="42.765412" lon="-7.927857">
        <ele>620.9</ele>
        <time>1970-01-01T00:11:15.000Z</time>
      </trkpt>
      <trkpt lat="42.765436" lon="-7.927896">
        <ele>620.9</ele>
        <time>1970-01-01T00:11:16.000Z</time>
      </trkpt>
      <trkpt lat="42.76546" lon="-7.927935">
        <ele>620.9</ele>
        <time>1970-01-01T00:11:17.000Z</time>
      </trkpt>
      <trkpt lat="42.765485" lon="-7.927974">
        <ele>620.9</ele>
        <time>1970-01-01T00:11:18.000Z</time>
      </trkpt>
      <trkpt lat="42.765511" lon="-7.928014">
        <ele>620.9</ele>
        <time>1970-01-01T00:11:19.000Z</time>
      </trkpt>
      <trkpt lat="42.765535" lon="-7.928056">
        <ele>620.9</ele>
        <time>1970-01-01T00:11:20.000Z</time>
      </trkpt>
      <trkpt lat="42.765558" lon="-7.928098">
        <ele>620.9</ele>
        <time>1970-01-01T00:11:21.000Z</time>
      </trkpt>
      <trkpt lat="42.765582" lon="-7.928139">
        <ele>621</ele>
        <time>1970-01-01T00:11:22.000Z</time>
      </trkpt>
      <trkpt lat="42.765606" lon="-7.928179">
        <ele>621</ele>
        <time>1970-01-01T00:11:23.000Z</time>
      </trkpt>
      <trkpt lat="42.765628" lon="-7.92822">
        <ele>621.1</ele>
        <time>1970-01-01T00:11:24.000Z</time>
      </trkpt>
      <trkpt lat="42.765647" lon="-7.928262">
        <ele>621.2</ele>
        <time>1970-01-01T00:11:25.000Z</time>
      </trkpt>
      <trkpt lat="42.765669" lon="-7.928304">
        <ele>621.3</ele>
        <time>1970-01-01T00:11:26.000Z</time>
      </trkpt>
      <trkpt lat="42.765692" lon="-7.928346">
        <ele>621.4</ele>
        <time>1970-01-01T00:11:27.000Z</time>
      </trkpt>
      <trkpt lat="42.765714" lon="-7.928389">
        <ele>621.5</ele>
        <time>1970-01-01T00:11:28.000Z</time>
      </trkpt>
      <trkpt lat="42.765735" lon="-7.928433">
        <ele>621.6</ele>
        <time>1970-01-01T00:11:29.000Z</time>
      </trkpt>
      <trkpt lat="42.765756" lon="-7.928477">
        <ele>621.8</ele>
        <time>1970-01-01T00:11:30.000Z</time>
      </trkpt>
      <trkpt lat="42.765775" lon="-7.928519">
        <ele>621.9</ele>
        <time>1970-01-01T00:11:31.000Z</time>
      </trkpt>
      <trkpt lat="42.765791" lon="-7.928561">
        <ele>622.1</ele>
        <time>1970-01-01T00:11:32.000Z</time>
      </trkpt>
      <trkpt lat="42.765807" lon="-7.928602">
        <ele>622.2</ele>
        <time>1970-01-01T00:11:33.000Z</time>
      </trkpt>
      <trkpt lat="42.76582" lon="-7.928638">
        <ele>622.4</ele>
        <time>1970-01-01T00:11:34.000Z</time>
      </trkpt>
      <trkpt lat="42.76583" lon="-7.928672">
        <ele>622.5</ele>
        <time>1970-01-01T00:11:35.000Z</time>
      </trkpt>
      <trkpt lat="42.765839" lon="-7.928707">
        <ele>622.7</ele>
        <time>1970-01-01T00:11:36.000Z</time>
      </trkpt>
      <trkpt lat="42.765847" lon="-7.92874">
        <ele>622.8</ele>
        <time>1970-01-01T00:11:37.000Z</time>
      </trkpt>
      <trkpt lat="42.765855" lon="-7.928774">
        <ele>623</ele>
        <time>1970-01-01T00:11:38.000Z</time>
      </trkpt>
      <trkpt lat="42.765862" lon="-7.928807">
        <ele>623.1</ele>
        <time>1970-01-01T00:11:39.000Z</time>
      </trkpt>
      <trkpt lat="42.765867" lon="-7.92884">
        <ele>623.3</ele>
        <time>1970-01-01T00:11:40.000Z</time>
      </trkpt>
      <trkpt lat="42.765873" lon="-7.928872">
        <ele>623.5</ele>
        <time>1970-01-01T00:11:41.000Z</time>
      </trkpt>
      <trkpt lat="42.765878" lon="-7.928903">
        <ele>623.6</ele>
        <time>1970-01-01T00:11:42.000Z</time>
      </trkpt>
      <trkpt lat="42.765884" lon="-7.928932">
        <ele>623.8</ele>
        <time>1970-01-01T00:11:43.000Z</time>
      </trkpt>
      <trkpt lat="42.765891" lon="-7.928959">
        <ele>623.9</ele>
        <time>1970-01-01T00:11:44.000Z</time>
      </trkpt>
      <trkpt lat="42.765899" lon="-7.928985">
        <ele>624.1</ele>
        <time>1970-01-01T00:11:45.000Z</time>
      </trkpt>
      <trkpt lat="42.765907" lon="-7.92901">
        <ele>624.2</ele>
        <time>1970-01-01T00:11:46.000Z</time>
      </trkpt>
      <trkpt lat="42.765914" lon="-7.929034">
        <ele>624.4</ele>
        <time>1970-01-01T00:11:47.000Z</time>
      </trkpt>
      <trkpt lat="42.765919" lon="-7.92906">
        <ele>624.6</ele>
        <time>1970-01-01T00:11:48.000Z</time>
      </trkpt>
      <trkpt lat="42.765926" lon="-7.929086">
        <ele>624.7</ele>
        <time>1970-01-01T00:11:49.000Z</time>
      </trkpt>
      <trkpt lat="42.765933" lon="-7.929111">
        <ele>624.9</ele>
        <time>1970-01-01T00:11:50.000Z</time>
      </trkpt>
      <trkpt lat="42.76594" lon="-7.929136">
        <ele>625</ele>
        <time>1970-01-01T00:11:51.000Z</time>
      </trkpt>
      <trkpt lat="42.765948" lon="-7.929163">
        <ele>625.2</ele>
        <time>1970-01-01T00:11:52.000Z</time>
      </trkpt>
      <trkpt lat="42.765957" lon="-7.929191">
        <ele>625.4</ele>
        <time>1970-01-01T00:11:53.000Z</time>
      </trkpt>
      <trkpt lat="42.765965" lon="-7.929218">
        <ele>625.6</ele>
        <time>1970-01-01T00:11:54.000Z</time>
      </trkpt>
      <trkpt lat="42.76597" lon="-7.929244">
        <ele>625.7</ele>
        <time>1970-01-01T00:11:55.000Z</time>
      </trkpt>
      <trkpt lat="42.765977" lon="-7.929267">
        <ele>625.8</ele>
        <time>1970-01-01T00:11:56.000Z</time>
      </trkpt>
      <trkpt lat="42.765982" lon="-7.929289">
        <ele>625.9</ele>
        <time>1970-01-01T00:11:57.000Z</time>
      </trkpt>
      <trkpt lat="42.765987" lon="-7.929314">
        <ele>626</ele>
        <time>1970-01-01T00:11:58.000Z</time>
      </trkpt>
      <trkpt lat="42.765992" lon="-7.929341">
        <ele>626.1</ele>
        <time>1970-01-01T00:11:59.000Z</time>
      </trkpt>
      <trkpt lat="42.765997" lon="-7.92937">
        <ele>626.1</ele>
        <time>1970-01-01T00:12:00.000Z</time>
      </trkpt>
      <trkpt lat="42.766002" lon="-7.929398">
        <ele>626.2</ele>
        <time>1970-01-01T00:12:01.000Z</time>
      </trkpt>
      <trkpt lat="42.766006" lon="-7.929424">
        <ele>626.3</ele>
        <time>1970-01-01T00:12:02.000Z</time>
      </trkpt>
      <trkpt lat="42.76601" lon="-7.929447">
        <ele>626.3</ele>
        <time>1970-01-01T00:12:03.000Z</time>
      </trkpt>
      <trkpt lat="42.766017" lon="-7.929469">
        <ele>626.4</ele>
        <time>1970-01-01T00:12:04.000Z</time>
      </trkpt>
      <trkpt lat="42.766027" lon="-7.929492">
        <ele>626.4</ele>
        <time>1970-01-01T00:12:05.000Z</time>
      </trkpt>
      <trkpt lat="42.766038" lon="-7.929516">
        <ele>626.5</ele>
        <time>1970-01-01T00:12:06.000Z</time>
      </trkpt>
      <trkpt lat="42.766053" lon="-7.929543">
        <ele>626.5</ele>
        <time>1970-01-01T00:12:07.000Z</time>
      </trkpt>
      <trkpt lat="42.766073" lon="-7.92957">
        <ele>626.6</ele>
        <time>1970-01-01T00:12:08.000Z</time>
      </trkpt>
      <trkpt lat="42.766096" lon="-7.929597">
        <ele>626.6</ele>
        <time>1970-01-01T00:12:09.000Z</time>
      </trkpt>
      <trkpt lat="42.766117" lon="-7.929631">
        <ele>626.6</ele>
        <time>1970-01-01T00:12:10.000Z</time>
      </trkpt>
      <trkpt lat="42.766132" lon="-7.929677">
        <ele>626.6</ele>
        <time>1970-01-01T00:12:11.000Z</time>
      </trkpt>
      <trkpt lat="42.766137" lon="-7.929728">
        <ele>626.5</ele>
        <time>1970-01-01T00:12:12.000Z</time>
      </trkpt>
      <trkpt lat="42.766136" lon="-7.929785">
        <ele>626.4</ele>
        <time>1970-01-01T00:12:13.000Z</time>
      </trkpt>
      <trkpt lat="42.766137" lon="-7.929845">
        <ele>626.3</ele>
        <time>1970-01-01T00:12:14.000Z</time>
      </trkpt>
      <trkpt lat="42.766138" lon="-7.929908">
        <ele>626.1</ele>
        <time>1970-01-01T00:12:15.000Z</time>
      </trkpt>
      <trkpt lat="42.766137" lon="-7.929971">
        <ele>625.9</ele>
        <time>1970-01-01T00:12:16.000Z</time>
      </trkpt>
      <trkpt lat="42.766131" lon="-7.930036">
        <ele>625.6</ele>
        <time>1970-01-01T00:12:17.000Z</time>
      </trkpt>
      <trkpt lat="42.76612" lon="-7.930101">
        <ele>625.3</ele>
        <time>1970-01-01T00:12:18.000Z</time>
      </trkpt>
      <trkpt lat="42.766107" lon="-7.930164">
        <ele>625</ele>
        <time>1970-01-01T00:12:19.000Z</time>
      </trkpt>
      <trkpt lat="42.76609" lon="-7.930228">
        <ele>624.7</ele>
        <time>1970-01-01T00:12:20.000Z</time>
      </trkpt>
      <trkpt lat="42.766074" lon="-7.930293">
        <ele>624.4</ele>
        <time>1970-01-01T00:12:21.000Z</time>
      </trkpt>
      <trkpt lat="42.766057" lon="-7.930355">
        <ele>624.2</ele>
        <time>1970-01-01T00:12:22.000Z</time>
      </trkpt>
      <trkpt lat="42.766039" lon="-7.930414">
        <ele>623.9</ele>
        <time>1970-01-01T00:12:23.000Z</time>
      </trkpt>
      <trkpt lat="42.766022" lon="-7.930468">
        <ele>623.7</ele>
        <time>1970-01-01T00:12:24.000Z</time>
      </trkpt>
      <trkpt lat="42.766002" lon="-7.930516">
        <ele>623.4</ele>
        <time>1970-01-01T00:12:25.000Z</time>
      </trkpt>
      <trkpt lat="42.765977" lon="-7.930562">
        <ele>623.2</ele>
        <time>1970-01-01T00:12:26.000Z</time>
      </trkpt>
      <trkpt lat="42.765951" lon="-7.930601">
        <ele>623.1</ele>
        <time>1970-01-01T00:12:27.000Z</time>
      </trkpt>
      <trkpt lat="42.765925" lon="-7.930635">
        <ele>623</ele>
        <time>1970-01-01T00:12:28.000Z</time>
      </trkpt>
      <trkpt lat="42.7659" lon="-7.930665">
        <ele>623</ele>
        <time>1970-01-01T00:12:29.000Z</time>
      </trkpt>
      <trkpt lat="42.765875" lon="-7.930691">
        <ele>622.9</ele>
        <time>1970-01-01T00:12:30.000Z</time>
      </trkpt>
      <trkpt lat="42.765851" lon="-7.930714">
        <ele>622.9</ele>
        <time>1970-01-01T00:12:31.000Z</time>
      </trkpt>
      <trkpt lat="42.765827" lon="-7.930734">
        <ele>622.9</ele>
        <time>1970-01-01T00:12:32.000Z</time>
      </trkpt>
      <trkpt lat="42.765804" lon="-7.930753">
        <ele>622.9</ele>
        <time>1970-01-01T00:12:33.000Z</time>
      </trkpt>
      <trkpt lat="42.765784" lon="-7.930775">
        <ele>622.9</ele>
        <time>1970-01-01T00:12:34.000Z</time>
      </trkpt>
      <trkpt lat="42.765768" lon="-7.930796">
        <ele>622.9</ele>
        <time>1970-01-01T00:12:35.000Z</time>
      </trkpt>
      <trkpt lat="42.765757" lon="-7.930814">
        <ele>622.9</ele>
        <time>1970-01-01T00:12:36.000Z</time>
      </trkpt>
      <trkpt lat="42.765748" lon="-7.930831">
        <ele>622.9</ele>
        <time>1970-01-01T00:12:37.000Z</time>
      </trkpt>
      <trkpt lat="42.765741" lon="-7.930847">
        <ele>622.9</ele>
        <time>1970-01-01T00:12:38.000Z</time>
      </trkpt>
      <trkpt lat="42.765738" lon="-7.930865">
        <ele>622.9</ele>
        <time>1970-01-01T00:12:39.000Z</time>
      </trkpt>
      <trkpt lat="42.765735" lon="-7.930883">
        <ele>622.9</ele>
        <time>1970-01-01T00:12:40.000Z</time>
      </trkpt>
      <trkpt lat="42.765732" lon="-7.930897">
        <ele>622.9</ele>
        <time>1970-01-01T00:12:41.000Z</time>
      </trkpt>
      <trkpt lat="42.765734" lon="-7.930911">
        <ele>622.9</ele>
        <time>1970-01-01T00:12:42.000Z</time>
      </trkpt>
      <trkpt lat="42.765739" lon="-7.930923">
        <ele>622.9</ele>
        <time>1970-01-01T00:12:43.000Z</time>
      </trkpt>
      <trkpt lat="42.765742" lon="-7.930936">
        <ele>622.9</ele>
        <time>1970-01-01T00:12:44.000Z</time>
      </trkpt>
      <trkpt lat="42.765746" lon="-7.930949">
        <ele>622.9</ele>
        <time>1970-01-01T00:12:45.000Z</time>
      </trkpt>
      <trkpt lat="42.765754" lon="-7.930958">
        <ele>622.9</ele>
        <time>1970-01-01T00:12:46.000Z</time>
      </trkpt>
      <trkpt lat="42.765765" lon="-7.930957">
        <ele>622.9</ele>
        <time>1970-01-01T00:12:47.000Z</time>
      </trkpt>
      <trkpt lat="42.765775" lon="-7.930958">
        <ele>622.9</ele>
        <time>1970-01-01T00:12:48.000Z</time>
      </trkpt>
      <trkpt lat="42.765785" lon="-7.930962">
        <ele>622.9</ele>
        <time>1970-01-01T00:12:49.000Z</time>
      </trkpt>
      <trkpt lat="42.765799" lon="-7.930972">
        <ele>622.9</ele>
        <time>1970-01-01T00:12:50.000Z</time>
      </trkpt>
      <trkpt lat="42.765811" lon="-7.930986">
        <ele>622.9</ele>
        <time>1970-01-01T00:12:51.000Z</time>
      </trkpt>
      <trkpt lat="42.765825" lon="-7.930998">
        <ele>622.9</ele>
        <time>1970-01-01T00:12:52.000Z</time>
      </trkpt>
      <trkpt lat="42.765839" lon="-7.931004">
        <ele>622.9</ele>
        <time>1970-01-01T00:12:53.000Z</time>
      </trkpt>
      <trkpt lat="42.765856" lon="-7.931014">
        <ele>622.9</ele>
        <time>1970-01-01T00:12:54.000Z</time>
      </trkpt>
      <trkpt lat="42.76587" lon="-7.931029">
        <ele>622.9</ele>
        <time>1970-01-01T00:12:55.000Z</time>
      </trkpt>
      <trkpt lat="42.765885" lon="-7.931045">
        <ele>622.9</ele>
        <time>1970-01-01T00:12:56.000Z</time>
      </trkpt>
      <trkpt lat="42.765903" lon="-7.931061">
        <ele>622.9</ele>
        <time>1970-01-01T00:12:57.000Z</time>
      </trkpt>
      <trkpt lat="42.765926" lon="-7.931074">
        <ele>622.9</ele>
        <time>1970-01-01T00:12:58.000Z</time>
      </trkpt>
      <trkpt lat="42.76595" lon="-7.931089">
        <ele>622.9</ele>
        <time>1970-01-01T00:12:59.000Z</time>
      </trkpt>
      <trkpt lat="42.765973" lon="-7.931107">
        <ele>622.9</ele>
        <time>1970-01-01T00:13:00.000Z</time>
      </trkpt>
      <trkpt lat="42.765997" lon="-7.931123">
        <ele>622.9</ele>
        <time>1970-01-01T00:13:01.000Z</time>
      </trkpt>
      <trkpt lat="42.766022" lon="-7.931138">
        <ele>622.9</ele>
        <time>1970-01-01T00:13:02.000Z</time>
      </trkpt>
      <trkpt lat="42.766048" lon="-7.931154">
        <ele>622.9</ele>
        <time>1970-01-01T00:13:03.000Z</time>
      </trkpt>
      <trkpt lat="42.766075" lon="-7.931171">
        <ele>622.9</ele>
        <time>1970-01-01T00:13:04.000Z</time>
      </trkpt>
      <trkpt lat="42.766102" lon="-7.931189">
        <ele>622.9</ele>
        <time>1970-01-01T00:13:05.000Z</time>
      </trkpt>
      <trkpt lat="42.766131" lon="-7.931211">
        <ele>622.8</ele>
        <time>1970-01-01T00:13:06.000Z</time>
      </trkpt>
      <trkpt lat="42.766163" lon="-7.931234">
        <ele>622.8</ele>
        <time>1970-01-01T00:13:07.000Z</time>
      </trkpt>
      <trkpt lat="42.766194" lon="-7.93126">
        <ele>622.8</ele>
        <time>1970-01-01T00:13:08.000Z</time>
      </trkpt>
      <trkpt lat="42.766224" lon="-7.931287">
        <ele>622.8</ele>
        <time>1970-01-01T00:13:09.000Z</time>
      </trkpt>
      <trkpt lat="42.766257" lon="-7.931312">
        <ele>622.8</ele>
        <time>1970-01-01T00:13:10.000Z</time>
      </trkpt>
      <trkpt lat="42.766291" lon="-7.93134">
        <ele>622.8</ele>
        <time>1970-01-01T00:13:11.000Z</time>
      </trkpt>
      <trkpt lat="42.766327" lon="-7.931371">
        <ele>622.7</ele>
        <time>1970-01-01T00:13:12.000Z</time>
      </trkpt>
      <trkpt lat="42.766365" lon="-7.931405">
        <ele>622.7</ele>
        <time>1970-01-01T00:13:13.000Z</time>
      </trkpt>
      <trkpt lat="42.766402" lon="-7.931444">
        <ele>622.6</ele>
        <time>1970-01-01T00:13:14.000Z</time>
      </trkpt>
      <trkpt lat="42.766438" lon="-7.93148">
        <ele>622.5</ele>
        <time>1970-01-01T00:13:15.000Z</time>
      </trkpt>
      <trkpt lat="42.766475" lon="-7.931518">
        <ele>622.4</ele>
        <time>1970-01-01T00:13:16.000Z</time>
      </trkpt>
      <trkpt lat="42.76651" lon="-7.931559">
        <ele>622.2</ele>
        <time>1970-01-01T00:13:17.000Z</time>
      </trkpt>
      <trkpt lat="42.766548" lon="-7.931598">
        <ele>622.1</ele>
        <time>1970-01-01T00:13:18.000Z</time>
      </trkpt>
      <trkpt lat="42.766582" lon="-7.931639">
        <ele>621.9</ele>
        <time>1970-01-01T00:13:19.000Z</time>
      </trkpt>
      <trkpt lat="42.766611" lon="-7.931687">
        <ele>621.6</ele>
        <time>1970-01-01T00:13:20.000Z</time>
      </trkpt>
      <trkpt lat="42.76663" lon="-7.931738">
        <ele>621.4</ele>
        <time>1970-01-01T00:13:21.000Z</time>
      </trkpt>
      <trkpt lat="42.766647" lon="-7.931793">
        <ele>621.1</ele>
        <time>1970-01-01T00:13:22.000Z</time>
      </trkpt>
      <trkpt lat="42.766659" lon="-7.93185">
        <ele>620.9</ele>
        <time>1970-01-01T00:13:23.000Z</time>
      </trkpt>
      <trkpt lat="42.766673" lon="-7.931912">
        <ele>620.6</ele>
        <time>1970-01-01T00:13:24.000Z</time>
      </trkpt>
      <trkpt lat="42.766686" lon="-7.931979">
        <ele>620.3</ele>
        <time>1970-01-01T00:13:25.000Z</time>
      </trkpt>
      <trkpt lat="42.766698" lon="-7.932049">
        <ele>619.8</ele>
        <time>1970-01-01T00:13:26.000Z</time>
      </trkpt>
      <trkpt lat="42.766709" lon="-7.932119">
        <ele>619.4</ele>
        <time>1970-01-01T00:13:27.000Z</time>
      </trkpt>
      <trkpt lat="42.76672" lon="-7.932187">
        <ele>618.9</ele>
        <time>1970-01-01T00:13:28.000Z</time>
      </trkpt>
      <trkpt lat="42.766735" lon="-7.932251">
        <ele>618.3</ele>
        <time>1970-01-01T00:13:29.000Z</time>
      </trkpt>
      <trkpt lat="42.76675" lon="-7.932321">
        <ele>617.8</ele>
        <time>1970-01-01T00:13:30.000Z</time>
      </trkpt>
      <trkpt lat="42.766767" lon="-7.932391">
        <ele>617.3</ele>
        <time>1970-01-01T00:13:31.000Z</time>
      </trkpt>
      <trkpt lat="42.766788" lon="-7.932455">
        <ele>616.8</ele>
        <time>1970-01-01T00:13:32.000Z</time>
      </trkpt>
      <trkpt lat="42.766815" lon="-7.932504">
        <ele>616.3</ele>
        <time>1970-01-01T00:13:33.000Z</time>
      </trkpt>
      <trkpt lat="42.766847" lon="-7.93255">
        <ele>615.9</ele>
        <time>1970-01-01T00:13:34.000Z</time>
      </trkpt>
      <trkpt lat="42.766882" lon="-7.93259">
        <ele>615.5</ele>
        <time>1970-01-01T00:13:35.000Z</time>
      </trkpt>
      <trkpt lat="42.766918" lon="-7.932632">
        <ele>615</ele>
        <time>1970-01-01T00:13:36.000Z</time>
      </trkpt>
      <trkpt lat="42.76695" lon="-7.932679">
        <ele>614.7</ele>
        <time>1970-01-01T00:13:37.000Z</time>
      </trkpt>
      <trkpt lat="42.766975" lon="-7.932736">
        <ele>614.4</ele>
        <time>1970-01-01T00:13:38.000Z</time>
      </trkpt>
      <trkpt lat="42.767" lon="-7.932792">
        <ele>614.1</ele>
        <time>1970-01-01T00:13:39.000Z</time>
      </trkpt>
      <trkpt lat="42.767026" lon="-7.932854">
        <ele>613.8</ele>
        <time>1970-01-01T00:13:40.000Z</time>
      </trkpt>
      <trkpt lat="42.767054" lon="-7.932926">
        <ele>613.5</ele>
        <time>1970-01-01T00:13:41.000Z</time>
      </trkpt>
      <trkpt lat="42.767085" lon="-7.932998">
        <ele>613.2</ele>
        <time>1970-01-01T00:13:42.000Z</time>
      </trkpt>
      <trkpt lat="42.767119" lon="-7.933073">
        <ele>612.9</ele>
        <time>1970-01-01T00:13:43.000Z</time>
      </trkpt>
      <trkpt lat="42.767157" lon="-7.933143">
        <ele>612.6</ele>
        <time>1970-01-01T00:13:44.000Z</time>
      </trkpt>
      <trkpt lat="42.767197" lon="-7.933209">
        <ele>612.3</ele>
        <time>1970-01-01T00:13:45.000Z</time>
      </trkpt>
      <trkpt lat="42.76724" lon="-7.933269">
        <ele>612</ele>
        <time>1970-01-01T00:13:46.000Z</time>
      </trkpt>
      <trkpt lat="42.767281" lon="-7.933323">
        <ele>611.7</ele>
        <time>1970-01-01T00:13:47.000Z</time>
      </trkpt>
      <trkpt lat="42.76732" lon="-7.933377">
        <ele>611.4</ele>
        <time>1970-01-01T00:13:48.000Z</time>
      </trkpt>
      <trkpt lat="42.767355" lon="-7.933436">
        <ele>611.1</ele>
        <time>1970-01-01T00:13:49.000Z</time>
      </trkpt>
      <trkpt lat="42.767389" lon="-7.933494">
        <ele>610.8</ele>
        <time>1970-01-01T00:13:50.000Z</time>
      </trkpt>
      <trkpt lat="42.767424" lon="-7.933549">
        <ele>610.5</ele>
        <time>1970-01-01T00:13:51.000Z</time>
      </trkpt>
      <trkpt lat="42.767462" lon="-7.933598">
        <ele>610.2</ele>
        <time>1970-01-01T00:13:52.000Z</time>
      </trkpt>
      <trkpt lat="42.7675" lon="-7.933647">
        <ele>609.9</ele>
        <time>1970-01-01T00:13:53.000Z</time>
      </trkpt>
      <trkpt lat="42.767541" lon="-7.933689">
        <ele>609.7</ele>
        <time>1970-01-01T00:13:54.000Z</time>
      </trkpt>
      <trkpt lat="42.767583" lon="-7.933722">
        <ele>609.5</ele>
        <time>1970-01-01T00:13:55.000Z</time>
      </trkpt>
      <trkpt lat="42.767629" lon="-7.933745">
        <ele>609.2</ele>
        <time>1970-01-01T00:13:56.000Z</time>
      </trkpt>
      <trkpt lat="42.767675" lon="-7.933766">
        <ele>609</ele>
        <time>1970-01-01T00:13:57.000Z</time>
      </trkpt>
      <trkpt lat="42.767718" lon="-7.93379">
        <ele>608.8</ele>
        <time>1970-01-01T00:13:58.000Z</time>
      </trkpt>
      <trkpt lat="42.76776" lon="-7.933817">
        <ele>608.6</ele>
        <time>1970-01-01T00:13:59.000Z</time>
      </trkpt>
      <trkpt lat="42.767801" lon="-7.933843">
        <ele>608.4</ele>
        <time>1970-01-01T00:14:00.000Z</time>
      </trkpt>
      <trkpt lat="42.767841" lon="-7.933867">
        <ele>608.2</ele>
        <time>1970-01-01T00:14:01.000Z</time>
      </trkpt>
      <trkpt lat="42.76788" lon="-7.933896">
        <ele>608.1</ele>
        <time>1970-01-01T00:14:02.000Z</time>
      </trkpt>
      <trkpt lat="42.767916" lon="-7.933928">
        <ele>608</ele>
        <time>1970-01-01T00:14:03.000Z</time>
      </trkpt>
      <trkpt lat="42.767951" lon="-7.933966">
        <ele>607.9</ele>
        <time>1970-01-01T00:14:04.000Z</time>
      </trkpt>
      <trkpt lat="42.767985" lon="-7.934005">
        <ele>607.9</ele>
        <time>1970-01-01T00:14:05.000Z</time>
      </trkpt>
      <trkpt lat="42.768018" lon="-7.934042">
        <ele>607.9</ele>
        <time>1970-01-01T00:14:06.000Z</time>
      </trkpt>
      <trkpt lat="42.768055" lon="-7.934079">
        <ele>607.1</ele>
        <time>1970-01-01T00:14:07.000Z</time>
      </trkpt>
      <trkpt lat="42.768095" lon="-7.934114">
        <ele>606.6</ele>
        <time>1970-01-01T00:14:08.000Z</time>
      </trkpt>
      <trkpt lat="42.768138" lon="-7.934153">
        <ele>605.8</ele>
        <time>1970-01-01T00:14:09.000Z</time>
      </trkpt>
      <trkpt lat="42.768181" lon="-7.934198">
        <ele>605</ele>
        <time>1970-01-01T00:14:10.000Z</time>
      </trkpt>
      <trkpt lat="42.768226" lon="-7.934246">
        <ele>604.3</ele>
        <time>1970-01-01T00:14:11.000Z</time>
      </trkpt>
      <trkpt lat="42.768273" lon="-7.934296">
        <ele>603.5</ele>
        <time>1970-01-01T00:14:12.000Z</time>
      </trkpt>
      <trkpt lat="42.76832" lon="-7.934348">
        <ele>602.9</ele>
        <time>1970-01-01T00:14:13.000Z</time>
      </trkpt>
      <trkpt lat="42.768369" lon="-7.9344">
        <ele>602.4</ele>
        <time>1970-01-01T00:14:14.000Z</time>
      </trkpt>
      <trkpt lat="42.76842" lon="-7.934452">
        <ele>601.8</ele>
        <time>1970-01-01T00:14:15.000Z</time>
      </trkpt>
      <trkpt lat="42.768471" lon="-7.934504">
        <ele>601.3</ele>
        <time>1970-01-01T00:14:16.000Z</time>
      </trkpt>
      <trkpt lat="42.768524" lon="-7.934555">
        <ele>600.7</ele>
        <time>1970-01-01T00:14:17.000Z</time>
      </trkpt>
      <trkpt lat="42.768576" lon="-7.934607">
        <ele>600.2</ele>
        <time>1970-01-01T00:14:18.000Z</time>
      </trkpt>
      <trkpt lat="42.76863" lon="-7.934658">
        <ele>599.8</ele>
        <time>1970-01-01T00:14:19.000Z</time>
      </trkpt>
      <trkpt lat="42.768685" lon="-7.934709">
        <ele>599.3</ele>
        <time>1970-01-01T00:14:20.000Z</time>
      </trkpt>
      <trkpt lat="42.768739" lon="-7.934761">
        <ele>598.8</ele>
        <time>1970-01-01T00:14:21.000Z</time>
      </trkpt>
      <trkpt lat="42.768792" lon="-7.934816">
        <ele>598.3</ele>
        <time>1970-01-01T00:14:22.000Z</time>
      </trkpt>
      <trkpt lat="42.768846" lon="-7.934873">
        <ele>597.7</ele>
        <time>1970-01-01T00:14:23.000Z</time>
      </trkpt>
      <trkpt lat="42.7689" lon="-7.934929">
        <ele>597.2</ele>
        <time>1970-01-01T00:14:24.000Z</time>
      </trkpt>
      <trkpt lat="42.768956" lon="-7.934981">
        <ele>596.6</ele>
        <time>1970-01-01T00:14:25.000Z</time>
      </trkpt>
      <trkpt lat="42.769011" lon="-7.935024">
        <ele>595.7</ele>
        <time>1970-01-01T00:14:26.000Z</time>
      </trkpt>
      <trkpt lat="42.769067" lon="-7.935055">
        <ele>594.8</ele>
        <time>1970-01-01T00:14:27.000Z</time>
      </trkpt>
      <trkpt lat="42.769125" lon="-7.935072">
        <ele>594</ele>
        <time>1970-01-01T00:14:28.000Z</time>
      </trkpt>
      <trkpt lat="42.769185" lon="-7.935075">
        <ele>593.3</ele>
        <time>1970-01-01T00:14:29.000Z</time>
      </trkpt>
      <trkpt lat="42.769239" lon="-7.935057">
        <ele>592.6</ele>
        <time>1970-01-01T00:14:30.000Z</time>
      </trkpt>
      <trkpt lat="42.769295" lon="-7.935032">
        <ele>591.8</ele>
        <time>1970-01-01T00:14:31.000Z</time>
      </trkpt>
      <trkpt lat="42.769351" lon="-7.934998">
        <ele>590.9</ele>
        <time>1970-01-01T00:14:32.000Z</time>
      </trkpt>
      <trkpt lat="42.769416" lon="-7.93496">
        <ele>589.8</ele>
        <time>1970-01-01T00:14:33.000Z</time>
      </trkpt>
      <trkpt lat="42.769488" lon="-7.934921">
        <ele>588.8</ele>
        <time>1970-01-01T00:14:34.000Z</time>
      </trkpt>
      <trkpt lat="42.769551" lon="-7.93488">
        <ele>588</ele>
        <time>1970-01-01T00:14:35.000Z</time>
      </trkpt>
      <trkpt lat="42.769613" lon="-7.934839">
        <ele>587.1</ele>
        <time>1970-01-01T00:14:36.000Z</time>
      </trkpt>
      <trkpt lat="42.769683" lon="-7.934792">
        <ele>586.2</ele>
        <time>1970-01-01T00:14:37.000Z</time>
      </trkpt>
      <trkpt lat="42.769751" lon="-7.934749">
        <ele>585.3</ele>
        <time>1970-01-01T00:14:38.000Z</time>
      </trkpt>
      <trkpt lat="42.769826" lon="-7.934703">
        <ele>584.4</ele>
        <time>1970-01-01T00:14:39.000Z</time>
      </trkpt>
      <trkpt lat="42.769911" lon="-7.934646">
        <ele>583.3</ele>
        <time>1970-01-01T00:14:40.000Z</time>
      </trkpt>
      <trkpt lat="42.770007" lon="-7.934583">
        <ele>582.1</ele>
        <time>1970-01-01T00:14:41.000Z</time>
      </trkpt>
      <trkpt lat="42.770086" lon="-7.934513">
        <ele>581.1</ele>
        <time>1970-01-01T00:14:42.000Z</time>
      </trkpt>
      <trkpt lat="42.770169" lon="-7.934432">
        <ele>580.3</ele>
        <time>1970-01-01T00:14:43.000Z</time>
      </trkpt>
      <trkpt lat="42.77025" lon="-7.934349">
        <ele>579.6</ele>
        <time>1970-01-01T00:14:44.000Z</time>
      </trkpt>
      <trkpt lat="42.770321" lon="-7.934276">
        <ele>579.2</ele>
        <time>1970-01-01T00:14:45.000Z</time>
      </trkpt>
      <trkpt lat="42.770401" lon="-7.934233">
        <ele>578.8</ele>
        <time>1970-01-01T00:14:46.000Z</time>
      </trkpt>
      <trkpt lat="42.770483" lon="-7.934222">
        <ele>578.4</ele>
        <time>1970-01-01T00:14:47.000Z</time>
      </trkpt>
      <trkpt lat="42.770558" lon="-7.934235">
        <ele>578.1</ele>
        <time>1970-01-01T00:14:48.000Z</time>
      </trkpt>
      <trkpt lat="42.770636" lon="-7.93427">
        <ele>577.7</ele>
        <time>1970-01-01T00:14:49.000Z</time>
      </trkpt>
      <trkpt lat="42.770715" lon="-7.934306">
        <ele>577.3</ele>
        <time>1970-01-01T00:14:50.000Z</time>
      </trkpt>
      <trkpt lat="42.770796" lon="-7.934319">
        <ele>577</ele>
        <time>1970-01-01T00:14:51.000Z</time>
      </trkpt>
      <trkpt lat="42.770868" lon="-7.934302">
        <ele>576.7</ele>
        <time>1970-01-01T00:14:52.000Z</time>
      </trkpt>
      <trkpt lat="42.770933" lon="-7.934263">
        <ele>576.5</ele>
        <time>1970-01-01T00:14:53.000Z</time>
      </trkpt>
      <trkpt lat="42.770996" lon="-7.93421">
        <ele>576.1</ele>
        <time>1970-01-01T00:14:54.000Z</time>
      </trkpt>
      <trkpt lat="42.771055" lon="-7.934149">
        <ele>575.6</ele>
        <time>1970-01-01T00:14:55.000Z</time>
      </trkpt>
      <trkpt lat="42.771119" lon="-7.934091">
        <ele>575.1</ele>
        <time>1970-01-01T00:14:56.000Z</time>
      </trkpt>
      <trkpt lat="42.771187" lon="-7.934046">
        <ele>574.6</ele>
        <time>1970-01-01T00:14:57.000Z</time>
      </trkpt>
      <trkpt lat="42.771257" lon="-7.934019">
        <ele>574</ele>
        <time>1970-01-01T00:14:58.000Z</time>
      </trkpt>
      <trkpt lat="42.771325" lon="-7.93401">
        <ele>573.5</ele>
        <time>1970-01-01T00:14:59.000Z</time>
      </trkpt>
      <trkpt lat="42.77139" lon="-7.93401">
        <ele>573</ele>
        <time>1970-01-01T00:15:00.000Z</time>
      </trkpt>
      <trkpt lat="42.771461" lon="-7.934031">
        <ele>572.5</ele>
        <time>1970-01-01T00:15:01.000Z</time>
      </trkpt>
      <trkpt lat="42.771527" lon="-7.93407">
        <ele>572</ele>
        <time>1970-01-01T00:15:02.000Z</time>
      </trkpt>
      <trkpt lat="42.771579" lon="-7.934125">
        <ele>571.5</ele>
        <time>1970-01-01T00:15:03.000Z</time>
      </trkpt>
      <trkpt lat="42.771617" lon="-7.93419">
        <ele>571.1</ele>
        <time>1970-01-01T00:15:04.000Z</time>
      </trkpt>
      <trkpt lat="42.771648" lon="-7.934257">
        <ele>570.8</ele>
        <time>1970-01-01T00:15:05.000Z</time>
      </trkpt>
      <trkpt lat="42.771677" lon="-7.934324">
        <ele>570.5</ele>
        <time>1970-01-01T00:15:06.000Z</time>
      </trkpt>
      <trkpt lat="42.771704" lon="-7.934388">
        <ele>570.2</ele>
        <time>1970-01-01T00:15:07.000Z</time>
      </trkpt>
      <trkpt lat="42.771727" lon="-7.934448">
        <ele>570</ele>
        <time>1970-01-01T00:15:08.000Z</time>
      </trkpt>
      <trkpt lat="42.77175" lon="-7.934508">
        <ele>569.6</ele>
        <time>1970-01-01T00:15:09.000Z</time>
      </trkpt>
      <trkpt lat="42.771769" lon="-7.934565">
        <ele>569.4</ele>
        <time>1970-01-01T00:15:10.000Z</time>
      </trkpt>
      <trkpt lat="42.771791" lon="-7.934607">
        <ele>569.2</ele>
        <time>1970-01-01T00:15:11.000Z</time>
      </trkpt>
      <trkpt lat="42.771812" lon="-7.934637">
        <ele>569.1</ele>
        <time>1970-01-01T00:15:12.000Z</time>
      </trkpt>
      <trkpt lat="42.771835" lon="-7.934658">
        <ele>569</ele>
        <time>1970-01-01T00:15:13.000Z</time>
      </trkpt>
      <trkpt lat="42.771861" lon="-7.934675">
        <ele>568.9</ele>
        <time>1970-01-01T00:15:14.000Z</time>
      </trkpt>
      <trkpt lat="42.771897" lon="-7.934687">
        <ele>568.7</ele>
        <time>1970-01-01T00:15:15.000Z</time>
      </trkpt>
      <trkpt lat="42.77194" lon="-7.934696">
        <ele>568.6</ele>
        <time>1970-01-01T00:15:16.000Z</time>
      </trkpt>
      <trkpt lat="42.771982" lon="-7.934706">
        <ele>568.4</ele>
        <time>1970-01-01T00:15:17.000Z</time>
      </trkpt>
      <trkpt lat="42.77203" lon="-7.934718">
        <ele>568.3</ele>
        <time>1970-01-01T00:15:18.000Z</time>
      </trkpt>
      <trkpt lat="42.77208" lon="-7.93473">
        <ele>568.1</ele>
        <time>1970-01-01T00:15:19.000Z</time>
      </trkpt>
      <trkpt lat="42.772134" lon="-7.934745">
        <ele>568.1</ele>
        <time>1970-01-01T00:15:20.000Z</time>
      </trkpt>
      <trkpt lat="42.772192" lon="-7.93476">
        <ele>568</ele>
        <time>1970-01-01T00:15:21.000Z</time>
      </trkpt>
      <trkpt lat="42.77225" lon="-7.934772">
        <ele>567.9</ele>
        <time>1970-01-01T00:15:22.000Z</time>
      </trkpt>
      <trkpt lat="42.77231" lon="-7.934786">
        <ele>567.8</ele>
        <time>1970-01-01T00:15:23.000Z</time>
      </trkpt>
      <trkpt lat="42.772372" lon="-7.9348">
        <ele>567.8</ele>
        <time>1970-01-01T00:15:24.000Z</time>
      </trkpt>
      <trkpt lat="42.772432" lon="-7.934814">
        <ele>567.8</ele>
        <time>1970-01-01T00:15:25.000Z</time>
      </trkpt>
      <trkpt lat="42.772492" lon="-7.934828">
        <ele>567.8</ele>
        <time>1970-01-01T00:15:26.000Z</time>
      </trkpt>
      <trkpt lat="42.772553" lon="-7.934839">
        <ele>567.9</ele>
        <time>1970-01-01T00:15:27.000Z</time>
      </trkpt>
      <trkpt lat="42.772614" lon="-7.934848">
        <ele>567.9</ele>
        <time>1970-01-01T00:15:28.000Z</time>
      </trkpt>
      <trkpt lat="42.772673" lon="-7.934855">
        <ele>568</ele>
        <time>1970-01-01T00:15:29.000Z</time>
      </trkpt>
      <trkpt lat="42.772732" lon="-7.934857">
        <ele>568.1</ele>
        <time>1970-01-01T00:15:30.000Z</time>
      </trkpt>
      <trkpt lat="42.772788" lon="-7.934849">
        <ele>568.2</ele>
        <time>1970-01-01T00:15:31.000Z</time>
      </trkpt>
      <trkpt lat="42.772842" lon="-7.93483">
        <ele>568.3</ele>
        <time>1970-01-01T00:15:32.000Z</time>
      </trkpt>
      <trkpt lat="42.77289" lon="-7.934806">
        <ele>568.5</ele>
        <time>1970-01-01T00:15:33.000Z</time>
      </trkpt>
      <trkpt lat="42.772935" lon="-7.934781">
        <ele>568.6</ele>
        <time>1970-01-01T00:15:34.000Z</time>
      </trkpt>
      <trkpt lat="42.772982" lon="-7.934758">
        <ele>568.7</ele>
        <time>1970-01-01T00:15:35.000Z</time>
      </trkpt>
      <trkpt lat="42.773037" lon="-7.934742">
        <ele>568.9</ele>
        <time>1970-01-01T00:15:36.000Z</time>
      </trkpt>
      <trkpt lat="42.77309" lon="-7.934744">
        <ele>569.1</ele>
        <time>1970-01-01T00:15:37.000Z</time>
      </trkpt>
      <trkpt lat="42.773136" lon="-7.93477">
        <ele>569.2</ele>
        <time>1970-01-01T00:15:38.000Z</time>
      </trkpt>
      <trkpt lat="42.773172" lon="-7.934811">
        <ele>569.4</ele>
        <time>1970-01-01T00:15:39.000Z</time>
      </trkpt>
      <trkpt lat="42.773196" lon="-7.934859">
        <ele>569.4</ele>
        <time>1970-01-01T00:15:40.000Z</time>
      </trkpt>
      <trkpt lat="42.773208" lon="-7.934917">
        <ele>569.5</ele>
        <time>1970-01-01T00:15:41.000Z</time>
      </trkpt>
      <trkpt lat="42.773216" lon="-7.934977">
        <ele>569.5</ele>
        <time>1970-01-01T00:15:42.000Z</time>
      </trkpt>
      <trkpt lat="42.773219" lon="-7.935041">
        <ele>569.5</ele>
        <time>1970-01-01T00:15:43.000Z</time>
      </trkpt>
      <trkpt lat="42.773221" lon="-7.935107">
        <ele>569.5</ele>
        <time>1970-01-01T00:15:44.000Z</time>
      </trkpt>
      <trkpt lat="42.773223" lon="-7.935172">
        <ele>569.5</ele>
        <time>1970-01-01T00:15:45.000Z</time>
      </trkpt>
      <trkpt lat="42.773226" lon="-7.935241">
        <ele>569.5</ele>
        <time>1970-01-01T00:15:46.000Z</time>
      </trkpt>
      <trkpt lat="42.773231" lon="-7.935313">
        <ele>569.5</ele>
        <time>1970-01-01T00:15:47.000Z</time>
      </trkpt>
      <trkpt lat="42.773239" lon="-7.935386">
        <ele>569.6</ele>
        <time>1970-01-01T00:15:48.000Z</time>
      </trkpt>
      <trkpt lat="42.773249" lon="-7.935462">
        <ele>569.6</ele>
        <time>1970-01-01T00:15:49.000Z</time>
      </trkpt>
      <trkpt lat="42.773261" lon="-7.935537">
        <ele>569.6</ele>
        <time>1970-01-01T00:15:50.000Z</time>
      </trkpt>
      <trkpt lat="42.773278" lon="-7.935612">
        <ele>569.6</ele>
        <time>1970-01-01T00:15:51.000Z</time>
      </trkpt>
      <trkpt lat="42.773298" lon="-7.935686">
        <ele>569.6</ele>
        <time>1970-01-01T00:15:52.000Z</time>
      </trkpt>
      <trkpt lat="42.773318" lon="-7.935759">
        <ele>569.6</ele>
        <time>1970-01-01T00:15:53.000Z</time>
      </trkpt>
      <trkpt lat="42.773337" lon="-7.935832">
        <ele>569.6</ele>
        <time>1970-01-01T00:15:54.000Z</time>
      </trkpt>
      <trkpt lat="42.773356" lon="-7.935902">
        <ele>569.6</ele>
        <time>1970-01-01T00:15:55.000Z</time>
      </trkpt>
      <trkpt lat="42.77338" lon="-7.93597">
        <ele>569.7</ele>
        <time>1970-01-01T00:15:56.000Z</time>
      </trkpt>
      <trkpt lat="42.77341" lon="-7.936033">
        <ele>569.7</ele>
        <time>1970-01-01T00:15:57.000Z</time>
      </trkpt>
      <trkpt lat="42.773437" lon="-7.936091">
        <ele>569.7</ele>
        <time>1970-01-01T00:15:58.000Z</time>
      </trkpt>
      <trkpt lat="42.77347" lon="-7.936154">
        <ele>569.7</ele>
        <time>1970-01-01T00:15:59.000Z</time>
      </trkpt>
      <trkpt lat="42.773514" lon="-7.936216">
        <ele>569.6</ele>
        <time>1970-01-01T00:16:00.000Z</time>
      </trkpt>
      <trkpt lat="42.773557" lon="-7.93628">
        <ele>569.6</ele>
        <time>1970-01-01T00:16:01.000Z</time>
      </trkpt>
      <trkpt lat="42.7736" lon="-7.93635">
        <ele>569.6</ele>
        <time>1970-01-01T00:16:02.000Z</time>
      </trkpt>
      <trkpt lat="42.773637" lon="-7.936427">
        <ele>569.5</ele>
        <time>1970-01-01T00:16:03.000Z</time>
      </trkpt>
      <trkpt lat="42.773662" lon="-7.936509">
        <ele>569.4</ele>
        <time>1970-01-01T00:16:04.000Z</time>
      </trkpt>
      <trkpt lat="42.77367" lon="-7.936593">
        <ele>569.4</ele>
        <time>1970-01-01T00:16:05.000Z</time>
      </trkpt>
      <trkpt lat="42.773664" lon="-7.936682">
        <ele>569.3</ele>
        <time>1970-01-01T00:16:06.000Z</time>
      </trkpt>
      <trkpt lat="42.773644" lon="-7.936767">
        <ele>569.2</ele>
        <time>1970-01-01T00:16:07.000Z</time>
      </trkpt>
      <trkpt lat="42.77361" lon="-7.93684">
        <ele>569.1</ele>
        <time>1970-01-01T00:16:08.000Z</time>
      </trkpt>
      <trkpt lat="42.773573" lon="-7.936902">
        <ele>569</ele>
        <time>1970-01-01T00:16:09.000Z</time>
      </trkpt>
      <trkpt lat="42.773532" lon="-7.93696">
        <ele>568.9</ele>
        <time>1970-01-01T00:16:10.000Z</time>
      </trkpt>
      <trkpt lat="42.773498" lon="-7.937024">
        <ele>568.7</ele>
        <time>1970-01-01T00:16:11.000Z</time>
      </trkpt>
      <trkpt lat="42.773473" lon="-7.937096">
        <ele>568.5</ele>
        <time>1970-01-01T00:16:12.000Z</time>
      </trkpt>
      <trkpt lat="42.773457" lon="-7.937161">
        <ele>568.3</ele>
        <time>1970-01-01T00:16:13.000Z</time>
      </trkpt>
      <trkpt lat="42.773451" lon="-7.937226">
        <ele>568.1</ele>
        <time>1970-01-01T00:16:14.000Z</time>
      </trkpt>
      <trkpt lat="42.773454" lon="-7.937285">
        <ele>567.9</ele>
        <time>1970-01-01T00:16:15.000Z</time>
      </trkpt>
      <trkpt lat="42.773464" lon="-7.937344">
        <ele>567.8</ele>
        <time>1970-01-01T00:16:16.000Z</time>
      </trkpt>
      <trkpt lat="42.773481" lon="-7.9374">
        <ele>567.7</ele>
        <time>1970-01-01T00:16:17.000Z</time>
      </trkpt>
      <trkpt lat="42.773505" lon="-7.937452">
        <ele>567.6</ele>
        <time>1970-01-01T00:16:18.000Z</time>
      </trkpt>
      <trkpt lat="42.773532" lon="-7.937504">
        <ele>567.5</ele>
        <time>1970-01-01T00:16:19.000Z</time>
      </trkpt>
      <trkpt lat="42.773569" lon="-7.937543">
        <ele>567.4</ele>
        <time>1970-01-01T00:16:20.000Z</time>
      </trkpt>
      <trkpt lat="42.77361" lon="-7.937575">
        <ele>567.4</ele>
        <time>1970-01-01T00:16:21.000Z</time>
      </trkpt>
      <trkpt lat="42.773653" lon="-7.9376">
        <ele>567.5</ele>
        <time>1970-01-01T00:16:22.000Z</time>
      </trkpt>
      <trkpt lat="42.773698" lon="-7.937624">
        <ele>567.5</ele>
        <time>1970-01-01T00:16:23.000Z</time>
      </trkpt>
      <trkpt lat="42.773743" lon="-7.93765">
        <ele>567.6</ele>
        <time>1970-01-01T00:16:24.000Z</time>
      </trkpt>
      <trkpt lat="42.773788" lon="-7.937675">
        <ele>567.7</ele>
        <time>1970-01-01T00:16:25.000Z</time>
      </trkpt>
      <trkpt lat="42.773832" lon="-7.937701">
        <ele>567.8</ele>
        <time>1970-01-01T00:16:26.000Z</time>
      </trkpt>
      <trkpt lat="42.773875" lon="-7.937731">
        <ele>568</ele>
        <time>1970-01-01T00:16:27.000Z</time>
      </trkpt>
      <trkpt lat="42.773917" lon="-7.937766">
        <ele>568.2</ele>
        <time>1970-01-01T00:16:28.000Z</time>
      </trkpt>
      <trkpt lat="42.773959" lon="-7.9378">
        <ele>568.4</ele>
        <time>1970-01-01T00:16:29.000Z</time>
      </trkpt>
      <trkpt lat="42.774002" lon="-7.937832">
        <ele>568.6</ele>
        <time>1970-01-01T00:16:30.000Z</time>
      </trkpt>
      <trkpt lat="42.774044" lon="-7.937859">
        <ele>568.7</ele>
        <time>1970-01-01T00:16:31.000Z</time>
      </trkpt>
      <trkpt lat="42.774087" lon="-7.937878">
        <ele>568.9</ele>
        <time>1970-01-01T00:16:32.000Z</time>
      </trkpt>
      <trkpt lat="42.774127" lon="-7.937887">
        <ele>569.2</ele>
        <time>1970-01-01T00:16:33.000Z</time>
      </trkpt>
      <trkpt lat="42.774167" lon="-7.937894">
        <ele>569.5</ele>
        <time>1970-01-01T00:16:34.000Z</time>
      </trkpt>
      <trkpt lat="42.774204" lon="-7.937897">
        <ele>569.6</ele>
        <time>1970-01-01T00:16:35.000Z</time>
      </trkpt>
      <trkpt lat="42.774242" lon="-7.937896">
        <ele>569.8</ele>
        <time>1970-01-01T00:16:36.000Z</time>
      </trkpt>
      <trkpt lat="42.77428" lon="-7.93789">
        <ele>570</ele>
        <time>1970-01-01T00:16:37.000Z</time>
      </trkpt>
      <trkpt lat="42.774316" lon="-7.937885">
        <ele>570.1</ele>
        <time>1970-01-01T00:16:38.000Z</time>
      </trkpt>
      <trkpt lat="42.774352" lon="-7.937881">
        <ele>570.3</ele>
        <time>1970-01-01T00:16:39.000Z</time>
      </trkpt>
      <trkpt lat="42.774387" lon="-7.937878">
        <ele>570.5</ele>
        <time>1970-01-01T00:16:40.000Z</time>
      </trkpt>
      <trkpt lat="42.774418" lon="-7.937876">
        <ele>570.7</ele>
        <time>1970-01-01T00:16:41.000Z</time>
      </trkpt>
      <trkpt lat="42.774447" lon="-7.937873">
        <ele>570.8</ele>
        <time>1970-01-01T00:16:42.000Z</time>
      </trkpt>
      <trkpt lat="42.774475" lon="-7.93787">
        <ele>571</ele>
        <time>1970-01-01T00:16:43.000Z</time>
      </trkpt>
      <trkpt lat="42.774503" lon="-7.937867">
        <ele>571.1</ele>
        <time>1970-01-01T00:16:44.000Z</time>
      </trkpt>
      <trkpt lat="42.774532" lon="-7.937863">
        <ele>571.4</ele>
        <time>1970-01-01T00:16:45.000Z</time>
      </trkpt>
      <trkpt lat="42.774561" lon="-7.937858">
        <ele>571.7</ele>
        <time>1970-01-01T00:16:46.000Z</time>
      </trkpt>
      <trkpt lat="42.774592" lon="-7.937855">
        <ele>572</ele>
        <time>1970-01-01T00:16:47.000Z</time>
      </trkpt>
      <trkpt lat="42.774623" lon="-7.937852">
        <ele>572.4</ele>
        <time>1970-01-01T00:16:48.000Z</time>
      </trkpt>
      <trkpt lat="42.774653" lon="-7.93785">
        <ele>572.7</ele>
        <time>1970-01-01T00:16:49.000Z</time>
      </trkpt>
      <trkpt lat="42.774683" lon="-7.937849">
        <ele>573.1</ele>
        <time>1970-01-01T00:16:50.000Z</time>
      </trkpt>
      <trkpt lat="42.774713" lon="-7.937847">
        <ele>573.3</ele>
        <time>1970-01-01T00:16:51.000Z</time>
      </trkpt>
      <trkpt lat="42.774742" lon="-7.937842">
        <ele>573.6</ele>
        <time>1970-01-01T00:16:52.000Z</time>
      </trkpt>
      <trkpt lat="42.774771" lon="-7.937839">
        <ele>573.9</ele>
        <time>1970-01-01T00:16:53.000Z</time>
      </trkpt>
      <trkpt lat="42.7748" lon="-7.937835">
        <ele>574.2</ele>
        <time>1970-01-01T00:16:54.000Z</time>
      </trkpt>
      <trkpt lat="42.77483" lon="-7.937834">
        <ele>574.5</ele>
        <time>1970-01-01T00:16:55.000Z</time>
      </trkpt>
      <trkpt lat="42.774861" lon="-7.937832">
        <ele>574.8</ele>
        <time>1970-01-01T00:16:56.000Z</time>
      </trkpt>
      <trkpt lat="42.77489" lon="-7.937829">
        <ele>575</ele>
        <time>1970-01-01T00:16:57.000Z</time>
      </trkpt>
      <trkpt lat="42.77492" lon="-7.937826">
        <ele>575.3</ele>
        <time>1970-01-01T00:16:58.000Z</time>
      </trkpt>
      <trkpt lat="42.774949" lon="-7.937825">
        <ele>575.6</ele>
        <time>1970-01-01T00:16:59.000Z</time>
      </trkpt>
      <trkpt lat="42.774978" lon="-7.937822">
        <ele>575.9</ele>
        <time>1970-01-01T00:17:00.000Z</time>
      </trkpt>
      <trkpt lat="42.775008" lon="-7.937818">
        <ele>576.1</ele>
        <time>1970-01-01T00:17:01.000Z</time>
      </trkpt>
      <trkpt lat="42.775038" lon="-7.937813">
        <ele>576.3</ele>
        <time>1970-01-01T00:17:02.000Z</time>
      </trkpt>
      <trkpt lat="42.77507" lon="-7.937809">
        <ele>576.4</ele>
        <time>1970-01-01T00:17:03.000Z</time>
      </trkpt>
      <trkpt lat="42.775101" lon="-7.937803">
        <ele>576.5</ele>
        <time>1970-01-01T00:17:04.000Z</time>
      </trkpt>
      <trkpt lat="42.775134" lon="-7.937794">
        <ele>576.7</ele>
        <time>1970-01-01T00:17:05.000Z</time>
      </trkpt>
      <trkpt lat="42.775167" lon="-7.937786">
        <ele>576.9</ele>
        <time>1970-01-01T00:17:06.000Z</time>
      </trkpt>
      <trkpt lat="42.775201" lon="-7.937779">
        <ele>577</ele>
        <time>1970-01-01T00:17:07.000Z</time>
      </trkpt>
      <trkpt lat="42.775236" lon="-7.93777">
        <ele>577.2</ele>
        <time>1970-01-01T00:17:08.000Z</time>
      </trkpt>
      <trkpt lat="42.775274" lon="-7.937763">
        <ele>577.4</ele>
        <time>1970-01-01T00:17:09.000Z</time>
      </trkpt>
      <trkpt lat="42.775312" lon="-7.937756">
        <ele>577.6</ele>
        <time>1970-01-01T00:17:10.000Z</time>
      </trkpt>
      <trkpt lat="42.775351" lon="-7.937749">
        <ele>577.8</ele>
        <time>1970-01-01T00:17:11.000Z</time>
      </trkpt>
      <trkpt lat="42.775393" lon="-7.937744">
        <ele>577.9</ele>
        <time>1970-01-01T00:17:12.000Z</time>
      </trkpt>
      <trkpt lat="42.775435" lon="-7.937743">
        <ele>578</ele>
        <time>1970-01-01T00:17:13.000Z</time>
      </trkpt>
      <trkpt lat="42.775477" lon="-7.937748">
        <ele>578.2</ele>
        <time>1970-01-01T00:17:14.000Z</time>
      </trkpt>
      <trkpt lat="42.775518" lon="-7.937761">
        <ele>578.3</ele>
        <time>1970-01-01T00:17:15.000Z</time>
      </trkpt>
      <trkpt lat="42.775557" lon="-7.937782">
        <ele>578.4</ele>
        <time>1970-01-01T00:17:16.000Z</time>
      </trkpt>
      <trkpt lat="42.775597" lon="-7.937808">
        <ele>578.4</ele>
        <time>1970-01-01T00:17:17.000Z</time>
      </trkpt>
      <trkpt lat="42.775633" lon="-7.937837">
        <ele>578.5</ele>
        <time>1970-01-01T00:17:18.000Z</time>
      </trkpt>
      <trkpt lat="42.775666" lon="-7.937868">
        <ele>578.6</ele>
        <time>1970-01-01T00:17:19.000Z</time>
      </trkpt>
      <trkpt lat="42.775696" lon="-7.9379">
        <ele>578.6</ele>
        <time>1970-01-01T00:17:20.000Z</time>
      </trkpt>
      <trkpt lat="42.775724" lon="-7.937933">
        <ele>578.6</ele>
        <time>1970-01-01T00:17:21.000Z</time>
      </trkpt>
      <trkpt lat="42.775749" lon="-7.937966">
        <ele>578.7</ele>
        <time>1970-01-01T00:17:22.000Z</time>
      </trkpt>
      <trkpt lat="42.775771" lon="-7.937997">
        <ele>578.7</ele>
        <time>1970-01-01T00:17:23.000Z</time>
      </trkpt>
      <trkpt lat="42.775792" lon="-7.938022">
        <ele>578.7</ele>
        <time>1970-01-01T00:17:24.000Z</time>
      </trkpt>
      <trkpt lat="42.775813" lon="-7.938046">
        <ele>578.8</ele>
        <time>1970-01-01T00:17:25.000Z</time>
      </trkpt>
      <trkpt lat="42.775833" lon="-7.938071">
        <ele>578.8</ele>
        <time>1970-01-01T00:17:26.000Z</time>
      </trkpt>
      <trkpt lat="42.775852" lon="-7.938094">
        <ele>578.8</ele>
        <time>1970-01-01T00:17:27.000Z</time>
      </trkpt>
      <trkpt lat="42.775871" lon="-7.938117">
        <ele>578.9</ele>
        <time>1970-01-01T00:17:28.000Z</time>
      </trkpt>
      <trkpt lat="42.775889" lon="-7.93814">
        <ele>578.9</ele>
        <time>1970-01-01T00:17:29.000Z</time>
      </trkpt>
      <trkpt lat="42.775907" lon="-7.938162">
        <ele>578.9</ele>
        <time>1970-01-01T00:17:30.000Z</time>
      </trkpt>
      <trkpt lat="42.775925" lon="-7.938184">
        <ele>579</ele>
        <time>1970-01-01T00:17:31.000Z</time>
      </trkpt>
      <trkpt lat="42.775941" lon="-7.938208">
        <ele>579</ele>
        <time>1970-01-01T00:17:32.000Z</time>
      </trkpt>
      <trkpt lat="42.775958" lon="-7.938232">
        <ele>579</ele>
        <time>1970-01-01T00:17:33.000Z</time>
      </trkpt>
      <trkpt lat="42.775974" lon="-7.938254">
        <ele>579.1</ele>
        <time>1970-01-01T00:17:34.000Z</time>
      </trkpt>
      <trkpt lat="42.775991" lon="-7.938275">
        <ele>579.1</ele>
        <time>1970-01-01T00:17:35.000Z</time>
      </trkpt>
      <trkpt lat="42.776006" lon="-7.938294">
        <ele>579.1</ele>
        <time>1970-01-01T00:17:36.000Z</time>
      </trkpt>
      <trkpt lat="42.776021" lon="-7.938313">
        <ele>579.2</ele>
        <time>1970-01-01T00:17:37.000Z</time>
      </trkpt>
      <trkpt lat="42.776035" lon="-7.938334">
        <ele>579.2</ele>
        <time>1970-01-01T00:17:38.000Z</time>
      </trkpt>
      <trkpt lat="42.776049" lon="-7.938353">
        <ele>579.3</ele>
        <time>1970-01-01T00:17:39.000Z</time>
      </trkpt>
      <trkpt lat="42.776063" lon="-7.938371">
        <ele>579.4</ele>
        <time>1970-01-01T00:17:40.000Z</time>
      </trkpt>
      <trkpt lat="42.776078" lon="-7.938388">
        <ele>579.5</ele>
        <time>1970-01-01T00:17:41.000Z</time>
      </trkpt>
      <trkpt lat="42.776095" lon="-7.938405">
        <ele>579.6</ele>
        <time>1970-01-01T00:17:42.000Z</time>
      </trkpt>
      <trkpt lat="42.776112" lon="-7.938421">
        <ele>579.7</ele>
        <time>1970-01-01T00:17:43.000Z</time>
      </trkpt>
      <trkpt lat="42.776128" lon="-7.938438">
        <ele>579.8</ele>
        <time>1970-01-01T00:17:44.000Z</time>
      </trkpt>
      <trkpt lat="42.776143" lon="-7.938455">
        <ele>579.9</ele>
        <time>1970-01-01T00:17:45.000Z</time>
      </trkpt>
      <trkpt lat="42.776158" lon="-7.938471">
        <ele>580.1</ele>
        <time>1970-01-01T00:17:46.000Z</time>
      </trkpt>
      <trkpt lat="42.776172" lon="-7.938488">
        <ele>580.2</ele>
        <time>1970-01-01T00:17:47.000Z</time>
      </trkpt>
      <trkpt lat="42.776187" lon="-7.938502">
        <ele>580.4</ele>
        <time>1970-01-01T00:17:48.000Z</time>
      </trkpt>
      <trkpt lat="42.776201" lon="-7.938519">
        <ele>580.6</ele>
        <time>1970-01-01T00:17:49.000Z</time>
      </trkpt>
      <trkpt lat="42.776215" lon="-7.938537">
        <ele>580.8</ele>
        <time>1970-01-01T00:17:50.000Z</time>
      </trkpt>
      <trkpt lat="42.77623" lon="-7.938554">
        <ele>581</ele>
        <time>1970-01-01T00:17:51.000Z</time>
      </trkpt>
      <trkpt lat="42.776246" lon="-7.938569">
        <ele>581.2</ele>
        <time>1970-01-01T00:17:52.000Z</time>
      </trkpt>
      <trkpt lat="42.776262" lon="-7.938583">
        <ele>581.4</ele>
        <time>1970-01-01T00:17:53.000Z</time>
      </trkpt>
      <trkpt lat="42.776278" lon="-7.938599">
        <ele>581.6</ele>
        <time>1970-01-01T00:17:54.000Z</time>
      </trkpt>
      <trkpt lat="42.776293" lon="-7.938615">
        <ele>581.8</ele>
        <time>1970-01-01T00:17:55.000Z</time>
      </trkpt>
      <trkpt lat="42.776307" lon="-7.938631">
        <ele>582</ele>
        <time>1970-01-01T00:17:56.000Z</time>
      </trkpt>
      <trkpt lat="42.776322" lon="-7.938644">
        <ele>582.2</ele>
        <time>1970-01-01T00:17:57.000Z</time>
      </trkpt>
      <trkpt lat="42.776336" lon="-7.938657">
        <ele>582.4</ele>
        <time>1970-01-01T00:17:58.000Z</time>
      </trkpt>
      <trkpt lat="42.776348" lon="-7.938672">
        <ele>582.6</ele>
        <time>1970-01-01T00:17:59.000Z</time>
      </trkpt>
      <trkpt lat="42.776362" lon="-7.938683">
        <ele>582.7</ele>
        <time>1970-01-01T00:18:00.000Z</time>
      </trkpt>
      <trkpt lat="42.776376" lon="-7.938695">
        <ele>583</ele>
        <time>1970-01-01T00:18:01.000Z</time>
      </trkpt>
      <trkpt lat="42.77639" lon="-7.938708">
        <ele>583.2</ele>
        <time>1970-01-01T00:18:02.000Z</time>
      </trkpt>
      <trkpt lat="42.776405" lon="-7.938721">
        <ele>583.5</ele>
        <time>1970-01-01T00:18:03.000Z</time>
      </trkpt>
      <trkpt lat="42.77642" lon="-7.938734">
        <ele>583.7</ele>
        <time>1970-01-01T00:18:04.000Z</time>
      </trkpt>
      <trkpt lat="42.776436" lon="-7.938745">
        <ele>584</ele>
        <time>1970-01-01T00:18:05.000Z</time>
      </trkpt>
      <trkpt lat="42.776452" lon="-7.938759">
        <ele>584.2</ele>
        <time>1970-01-01T00:18:06.000Z</time>
      </trkpt>
      <trkpt lat="42.776467" lon="-7.938773">
        <ele>584.5</ele>
        <time>1970-01-01T00:18:07.000Z</time>
      </trkpt>
      <trkpt lat="42.776483" lon="-7.938786">
        <ele>584.8</ele>
        <time>1970-01-01T00:18:08.000Z</time>
      </trkpt>
      <trkpt lat="42.776499" lon="-7.9388">
        <ele>585.1</ele>
        <time>1970-01-01T00:18:09.000Z</time>
      </trkpt>
      <trkpt lat="42.776513" lon="-7.938816">
        <ele>585.3</ele>
        <time>1970-01-01T00:18:10.000Z</time>
      </trkpt>
      <trkpt lat="42.776526" lon="-7.938832">
        <ele>585.6</ele>
        <time>1970-01-01T00:18:11.000Z</time>
      </trkpt>
      <trkpt lat="42.776542" lon="-7.938845">
        <ele>585.9</ele>
        <time>1970-01-01T00:18:12.000Z</time>
      </trkpt>
      <trkpt lat="42.776556" lon="-7.93886">
        <ele>586.3</ele>
        <time>1970-01-01T00:18:13.000Z</time>
      </trkpt>
      <trkpt lat="42.77657" lon="-7.938876">
        <ele>586.6</ele>
        <time>1970-01-01T00:18:14.000Z</time>
      </trkpt>
      <trkpt lat="42.776575" lon="-7.938898">
        <ele>586.9</ele>
        <time>1970-01-01T00:18:15.000Z</time>
      </trkpt>
      <trkpt lat="42.776575" lon="-7.93892">
        <ele>587.1</ele>
        <time>1970-01-01T00:18:16.000Z</time>
      </trkpt>
      <trkpt lat="42.776571" lon="-7.938943">
        <ele>588.2</ele>
        <time>1970-01-01T00:18:17.000Z</time>
      </trkpt>
      <trkpt lat="42.776566" lon="-7.938966">
        <ele>588.4</ele>
        <time>1970-01-01T00:18:18.000Z</time>
      </trkpt>
      <trkpt lat="42.776561" lon="-7.938989">
        <ele>588.6</ele>
        <time>1970-01-01T00:18:19.000Z</time>
      </trkpt>
      <trkpt lat="42.776557" lon="-7.939011">
        <ele>588.8</ele>
        <time>1970-01-01T00:18:20.000Z</time>
      </trkpt>
      <trkpt lat="42.776553" lon="-7.939033">
        <ele>588.9</ele>
        <time>1970-01-01T00:18:21.000Z</time>
      </trkpt>
      <trkpt lat="42.776548" lon="-7.939055">
        <ele>589</ele>
        <time>1970-01-01T00:18:22.000Z</time>
      </trkpt>
      <trkpt lat="42.776543" lon="-7.939076">
        <ele>589.1</ele>
        <time>1970-01-01T00:18:23.000Z</time>
      </trkpt>
      <trkpt lat="42.776537" lon="-7.939097">
        <ele>589.3</ele>
        <time>1970-01-01T00:18:24.000Z</time>
      </trkpt>
      <trkpt lat="42.776534" lon="-7.939119">
        <ele>589.4</ele>
        <time>1970-01-01T00:18:25.000Z</time>
      </trkpt>
      <trkpt lat="42.776531" lon="-7.939141">
        <ele>589.5</ele>
        <time>1970-01-01T00:18:26.000Z</time>
      </trkpt>
      <trkpt lat="42.776528" lon="-7.939161">
        <ele>589.6</ele>
        <time>1970-01-01T00:18:27.000Z</time>
      </trkpt>
      <trkpt lat="42.776524" lon="-7.939183">
        <ele>589.7</ele>
        <time>1970-01-01T00:18:28.000Z</time>
      </trkpt>
      <trkpt lat="42.776519" lon="-7.939208">
        <ele>589.9</ele>
        <time>1970-01-01T00:18:29.000Z</time>
      </trkpt>
      <trkpt lat="42.776515" lon="-7.939232">
        <ele>590</ele>
        <time>1970-01-01T00:18:30.000Z</time>
      </trkpt>
      <trkpt lat="42.776511" lon="-7.939255">
        <ele>590.2</ele>
        <time>1970-01-01T00:18:31.000Z</time>
      </trkpt>
      <trkpt lat="42.776507" lon="-7.939276">
        <ele>590.3</ele>
        <time>1970-01-01T00:18:32.000Z</time>
      </trkpt>
      <trkpt lat="42.776502" lon="-7.939295">
        <ele>590.4</ele>
        <time>1970-01-01T00:18:33.000Z</time>
      </trkpt>
      <trkpt lat="42.776499" lon="-7.939316">
        <ele>590.5</ele>
        <time>1970-01-01T00:18:34.000Z</time>
      </trkpt>
      <trkpt lat="42.776494" lon="-7.939337">
        <ele>590.6</ele>
        <time>1970-01-01T00:18:35.000Z</time>
      </trkpt>
      <trkpt lat="42.776489" lon="-7.939358">
        <ele>590.8</ele>
        <time>1970-01-01T00:18:36.000Z</time>
      </trkpt>
      <trkpt lat="42.776486" lon="-7.939379">
        <ele>590.9</ele>
        <time>1970-01-01T00:18:37.000Z</time>
      </trkpt>
      <trkpt lat="42.776481" lon="-7.939399">
        <ele>591</ele>
        <time>1970-01-01T00:18:38.000Z</time>
      </trkpt>
      <trkpt lat="42.776477" lon="-7.93942">
        <ele>591.1</ele>
        <time>1970-01-01T00:18:39.000Z</time>
      </trkpt>
      <trkpt lat="42.776472" lon="-7.939441">
        <ele>591.2</ele>
        <time>1970-01-01T00:18:40.000Z</time>
      </trkpt>
      <trkpt lat="42.776468" lon="-7.93946">
        <ele>591.3</ele>
        <time>1970-01-01T00:18:41.000Z</time>
      </trkpt>
      <trkpt lat="42.776463" lon="-7.939481">
        <ele>591.5</ele>
        <time>1970-01-01T00:18:42.000Z</time>
      </trkpt>
      <trkpt lat="42.77646" lon="-7.939505">
        <ele>591.6</ele>
        <time>1970-01-01T00:18:43.000Z</time>
      </trkpt>
      <trkpt lat="42.776456" lon="-7.939529">
        <ele>591.7</ele>
        <time>1970-01-01T00:18:44.000Z</time>
      </trkpt>
      <trkpt lat="42.776449" lon="-7.939552">
        <ele>591.9</ele>
        <time>1970-01-01T00:18:45.000Z</time>
      </trkpt>
      <trkpt lat="42.776444" lon="-7.939576">
        <ele>592</ele>
        <time>1970-01-01T00:18:46.000Z</time>
      </trkpt>
      <trkpt lat="42.776438" lon="-7.939598">
        <ele>592.1</ele>
        <time>1970-01-01T00:18:47.000Z</time>
      </trkpt>
      <trkpt lat="42.776434" lon="-7.939621">
        <ele>592.2</ele>
        <time>1970-01-01T00:18:48.000Z</time>
      </trkpt>
      <trkpt lat="42.77643" lon="-7.939645">
        <ele>592.4</ele>
        <time>1970-01-01T00:18:49.000Z</time>
      </trkpt>
      <trkpt lat="42.776425" lon="-7.939668">
        <ele>592.5</ele>
        <time>1970-01-01T00:18:50.000Z</time>
      </trkpt>
      <trkpt lat="42.776419" lon="-7.939692">
        <ele>592.6</ele>
        <time>1970-01-01T00:18:51.000Z</time>
      </trkpt>
      <trkpt lat="42.776414" lon="-7.939715">
        <ele>592.8</ele>
        <time>1970-01-01T00:18:52.000Z</time>
      </trkpt>
      <trkpt lat="42.77641" lon="-7.939738">
        <ele>592.9</ele>
        <time>1970-01-01T00:18:53.000Z</time>
      </trkpt>
      <trkpt lat="42.776406" lon="-7.939762">
        <ele>593</ele>
        <time>1970-01-01T00:18:54.000Z</time>
      </trkpt>
      <trkpt lat="42.776404" lon="-7.939785">
        <ele>593.1</ele>
        <time>1970-01-01T00:18:55.000Z</time>
      </trkpt>
      <trkpt lat="42.776399" lon="-7.939809">
        <ele>593.3</ele>
        <time>1970-01-01T00:18:56.000Z</time>
      </trkpt>
      <trkpt lat="42.776395" lon="-7.939834">
        <ele>593.4</ele>
        <time>1970-01-01T00:18:57.000Z</time>
      </trkpt>
      <trkpt lat="42.77639" lon="-7.939859">
        <ele>593.5</ele>
        <time>1970-01-01T00:18:58.000Z</time>
      </trkpt>
      <trkpt lat="42.776385" lon="-7.939885">
        <ele>593.7</ele>
        <time>1970-01-01T00:18:59.000Z</time>
      </trkpt>
      <trkpt lat="42.77638" lon="-7.939911">
        <ele>593.8</ele>
        <time>1970-01-01T00:19:00.000Z</time>
      </trkpt>
      <trkpt lat="42.776374" lon="-7.939938">
        <ele>594</ele>
        <time>1970-01-01T00:19:01.000Z</time>
      </trkpt>
      <trkpt lat="42.776368" lon="-7.939966">
        <ele>594.1</ele>
        <time>1970-01-01T00:19:02.000Z</time>
      </trkpt>
      <trkpt lat="42.776362" lon="-7.939993">
        <ele>594.3</ele>
        <time>1970-01-01T00:19:03.000Z</time>
      </trkpt>
      <trkpt lat="42.776357" lon="-7.94002">
        <ele>594.4</ele>
        <time>1970-01-01T00:19:04.000Z</time>
      </trkpt>
      <trkpt lat="42.776351" lon="-7.940044">
        <ele>594.6</ele>
        <time>1970-01-01T00:19:05.000Z</time>
      </trkpt>
      <trkpt lat="42.776345" lon="-7.94007">
        <ele>594.7</ele>
        <time>1970-01-01T00:19:06.000Z</time>
      </trkpt>
      <trkpt lat="42.77634" lon="-7.940098">
        <ele>594.9</ele>
        <time>1970-01-01T00:19:07.000Z</time>
      </trkpt>
      <trkpt lat="42.776332" lon="-7.94013">
        <ele>595</ele>
        <time>1970-01-01T00:19:08.000Z</time>
      </trkpt>
      <trkpt lat="42.776328" lon="-7.940157">
        <ele>595.2</ele>
        <time>1970-01-01T00:19:09.000Z</time>
      </trkpt>
      <trkpt lat="42.776323" lon="-7.940186">
        <ele>595.4</ele>
        <time>1970-01-01T00:19:10.000Z</time>
      </trkpt>
      <trkpt lat="42.776319" lon="-7.940213">
        <ele>595.5</ele>
        <time>1970-01-01T00:19:11.000Z</time>
      </trkpt>
      <trkpt lat="42.776315" lon="-7.940241">
        <ele>595.6</ele>
        <time>1970-01-01T00:19:12.000Z</time>
      </trkpt>
      <trkpt lat="42.776311" lon="-7.940267">
        <ele>595.8</ele>
        <time>1970-01-01T00:19:13.000Z</time>
      </trkpt>
      <trkpt lat="42.776305" lon="-7.940294">
        <ele>595.9</ele>
        <time>1970-01-01T00:19:14.000Z</time>
      </trkpt>
      <trkpt lat="42.776302" lon="-7.940319">
        <ele>596.1</ele>
        <time>1970-01-01T00:19:15.000Z</time>
      </trkpt>
      <trkpt lat="42.776297" lon="-7.940347">
        <ele>596.2</ele>
        <time>1970-01-01T00:19:16.000Z</time>
      </trkpt>
      <trkpt lat="42.776291" lon="-7.940371">
        <ele>596.3</ele>
        <time>1970-01-01T00:19:17.000Z</time>
      </trkpt>
      <trkpt lat="42.776287" lon="-7.940396">
        <ele>596.4</ele>
        <time>1970-01-01T00:19:18.000Z</time>
      </trkpt>
      <trkpt lat="42.776283" lon="-7.940421">
        <ele>596.6</ele>
        <time>1970-01-01T00:19:19.000Z</time>
      </trkpt>
      <trkpt lat="42.776281" lon="-7.940445">
        <ele>596.7</ele>
        <time>1970-01-01T00:19:20.000Z</time>
      </trkpt>
      <trkpt lat="42.776278" lon="-7.94047">
        <ele>596.8</ele>
        <time>1970-01-01T00:19:21.000Z</time>
      </trkpt>
      <trkpt lat="42.776275" lon="-7.940496">
        <ele>596.9</ele>
        <time>1970-01-01T00:19:22.000Z</time>
      </trkpt>
      <trkpt lat="42.776271" lon="-7.940522">
        <ele>597</ele>
        <time>1970-01-01T00:19:23.000Z</time>
      </trkpt>
      <trkpt lat="42.776268" lon="-7.940548">
        <ele>597.2</ele>
        <time>1970-01-01T00:19:24.000Z</time>
      </trkpt>
      <trkpt lat="42.776263" lon="-7.940574">
        <ele>597.3</ele>
        <time>1970-01-01T00:19:25.000Z</time>
      </trkpt>
      <trkpt lat="42.776258" lon="-7.940604">
        <ele>597.4</ele>
        <time>1970-01-01T00:19:26.000Z</time>
      </trkpt>
      <trkpt lat="42.776252" lon="-7.940633">
        <ele>597.5</ele>
        <time>1970-01-01T00:19:27.000Z</time>
      </trkpt>
      <trkpt lat="42.776246" lon="-7.940661">
        <ele>597.7</ele>
        <time>1970-01-01T00:19:28.000Z</time>
      </trkpt>
      <trkpt lat="42.776241" lon="-7.940691">
        <ele>597.8</ele>
        <time>1970-01-01T00:19:29.000Z</time>
      </trkpt>
      <trkpt lat="42.776239" lon="-7.940719">
        <ele>597.9</ele>
        <time>1970-01-01T00:19:30.000Z</time>
      </trkpt>
      <trkpt lat="42.776234" lon="-7.94075">
        <ele>598</ele>
        <time>1970-01-01T00:19:31.000Z</time>
      </trkpt>
      <trkpt lat="42.776228" lon="-7.940781">
        <ele>598.1</ele>
        <time>1970-01-01T00:19:32.000Z</time>
      </trkpt>
      <trkpt lat="42.776221" lon="-7.940809">
        <ele>598.2</ele>
        <time>1970-01-01T00:19:33.000Z</time>
      </trkpt>
      <trkpt lat="42.776214" lon="-7.940839">
        <ele>598.3</ele>
        <time>1970-01-01T00:19:34.000Z</time>
      </trkpt>
      <trkpt lat="42.77621" lon="-7.940872">
        <ele>598.4</ele>
        <time>1970-01-01T00:19:35.000Z</time>
      </trkpt>
      <trkpt lat="42.776204" lon="-7.940906">
        <ele>598.5</ele>
        <time>1970-01-01T00:19:36.000Z</time>
      </trkpt>
      <trkpt lat="42.776198" lon="-7.94094">
        <ele>598.6</ele>
        <time>1970-01-01T00:19:37.000Z</time>
      </trkpt>
      <trkpt lat="42.776192" lon="-7.940974">
        <ele>598.8</ele>
        <time>1970-01-01T00:19:38.000Z</time>
      </trkpt>
      <trkpt lat="42.776187" lon="-7.941008">
        <ele>598.9</ele>
        <time>1970-01-01T00:19:39.000Z</time>
      </trkpt>
      <trkpt lat="42.776181" lon="-7.941042">
        <ele>599</ele>
        <time>1970-01-01T00:19:40.000Z</time>
      </trkpt>
      <trkpt lat="42.776174" lon="-7.941076">
        <ele>599.1</ele>
        <time>1970-01-01T00:19:41.000Z</time>
      </trkpt>
      <trkpt lat="42.776169" lon="-7.94111">
        <ele>599.2</ele>
        <time>1970-01-01T00:19:42.000Z</time>
      </trkpt>
      <trkpt lat="42.776163" lon="-7.941143">
        <ele>599.3</ele>
        <time>1970-01-01T00:19:43.000Z</time>
      </trkpt>
      <trkpt lat="42.776158" lon="-7.941175">
        <ele>599.4</ele>
        <time>1970-01-01T00:19:44.000Z</time>
      </trkpt>
      <trkpt lat="42.776152" lon="-7.941207">
        <ele>599.5</ele>
        <time>1970-01-01T00:19:45.000Z</time>
      </trkpt>
      <trkpt lat="42.776146" lon="-7.941239">
        <ele>599.6</ele>
        <time>1970-01-01T00:19:46.000Z</time>
      </trkpt>
      <trkpt lat="42.776141" lon="-7.941271">
        <ele>599.7</ele>
        <time>1970-01-01T00:19:47.000Z</time>
      </trkpt>
      <trkpt lat="42.776135" lon="-7.941304">
        <ele>599.8</ele>
        <time>1970-01-01T00:19:48.000Z</time>
      </trkpt>
      <trkpt lat="42.776127" lon="-7.941336">
        <ele>599.9</ele>
        <time>1970-01-01T00:19:49.000Z</time>
      </trkpt>
      <trkpt lat="42.776122" lon="-7.94137">
        <ele>600</ele>
        <time>1970-01-01T00:19:50.000Z</time>
      </trkpt>
      <trkpt lat="42.776117" lon="-7.941403">
        <ele>600.1</ele>
        <time>1970-01-01T00:19:51.000Z</time>
      </trkpt>
      <trkpt lat="42.776113" lon="-7.941436">
        <ele>600.1</ele>
        <time>1970-01-01T00:19:52.000Z</time>
      </trkpt>
      <trkpt lat="42.776108" lon="-7.941467">
        <ele>600.2</ele>
        <time>1970-01-01T00:19:53.000Z</time>
      </trkpt>
      <trkpt lat="42.776102" lon="-7.941499">
        <ele>600.2</ele>
        <time>1970-01-01T00:19:54.000Z</time>
      </trkpt>
      <trkpt lat="42.776097" lon="-7.941531">
        <ele>600.3</ele>
        <time>1970-01-01T00:19:55.000Z</time>
      </trkpt>
      <trkpt lat="42.776092" lon="-7.941564">
        <ele>600.4</ele>
        <time>1970-01-01T00:19:56.000Z</time>
      </trkpt>
      <trkpt lat="42.776087" lon="-7.941595">
        <ele>600.4</ele>
        <time>1970-01-01T00:19:57.000Z</time>
      </trkpt>
      <trkpt lat="42.776084" lon="-7.941629">
        <ele>600.5</ele>
        <time>1970-01-01T00:19:58.000Z</time>
      </trkpt>
      <trkpt lat="42.776079" lon="-7.941662">
        <ele>600.5</ele>
        <time>1970-01-01T00:19:59.000Z</time>
      </trkpt>
      <trkpt lat="42.776074" lon="-7.941696">
        <ele>600.6</ele>
        <time>1970-01-01T00:20:00.000Z</time>
      </trkpt>
      <trkpt lat="42.77607" lon="-7.941731">
        <ele>600.6</ele>
        <time>1970-01-01T00:20:01.000Z</time>
      </trkpt>
      <trkpt lat="42.776065" lon="-7.941766">
        <ele>600.7</ele>
        <time>1970-01-01T00:20:02.000Z</time>
      </trkpt>
      <trkpt lat="42.776061" lon="-7.9418">
        <ele>600.7</ele>
        <time>1970-01-01T00:20:03.000Z</time>
      </trkpt>
      <trkpt lat="42.776056" lon="-7.941834">
        <ele>600.7</ele>
        <time>1970-01-01T00:20:04.000Z</time>
      </trkpt>
      <trkpt lat="42.776053" lon="-7.941866">
        <ele>600.8</ele>
        <time>1970-01-01T00:20:05.000Z</time>
      </trkpt>
      <trkpt lat="42.776049" lon="-7.941899">
        <ele>600.8</ele>
        <time>1970-01-01T00:20:06.000Z</time>
      </trkpt>
      <trkpt lat="42.776045" lon="-7.941932">
        <ele>600.8</ele>
        <time>1970-01-01T00:20:07.000Z</time>
      </trkpt>
      <trkpt lat="42.776041" lon="-7.941965">
        <ele>600.9</ele>
        <time>1970-01-01T00:20:08.000Z</time>
      </trkpt>
      <trkpt lat="42.776036" lon="-7.941998">
        <ele>600.9</ele>
        <time>1970-01-01T00:20:09.000Z</time>
      </trkpt>
      <trkpt lat="42.77603" lon="-7.942032">
        <ele>600.9</ele>
        <time>1970-01-01T00:20:10.000Z</time>
      </trkpt>
      <trkpt lat="42.776023" lon="-7.942065">
        <ele>601</ele>
        <time>1970-01-01T00:20:11.000Z</time>
      </trkpt>
      <trkpt lat="42.776016" lon="-7.9421">
        <ele>601</ele>
        <time>1970-01-01T00:20:12.000Z</time>
      </trkpt>
      <trkpt lat="42.77601" lon="-7.942135">
        <ele>601</ele>
        <time>1970-01-01T00:20:13.000Z</time>
      </trkpt>
      <trkpt lat="42.776003" lon="-7.942169">
        <ele>601.1</ele>
        <time>1970-01-01T00:20:14.000Z</time>
      </trkpt>
      <trkpt lat="42.775996" lon="-7.942202">
        <ele>601.1</ele>
        <time>1970-01-01T00:20:15.000Z</time>
      </trkpt>
      <trkpt lat="42.775989" lon="-7.942236">
        <ele>601.2</ele>
        <time>1970-01-01T00:20:16.000Z</time>
      </trkpt>
      <trkpt lat="42.775982" lon="-7.942273">
        <ele>601.2</ele>
        <time>1970-01-01T00:20:17.000Z</time>
      </trkpt>
      <trkpt lat="42.775976" lon="-7.942311">
        <ele>601.2</ele>
        <time>1970-01-01T00:20:18.000Z</time>
      </trkpt>
      <trkpt lat="42.775968" lon="-7.942347">
        <ele>601.3</ele>
        <time>1970-01-01T00:20:19.000Z</time>
      </trkpt>
      <trkpt lat="42.775959" lon="-7.942386">
        <ele>601.3</ele>
        <time>1970-01-01T00:20:20.000Z</time>
      </trkpt>
      <trkpt lat="42.775952" lon="-7.942426">
        <ele>601.4</ele>
        <time>1970-01-01T00:20:21.000Z</time>
      </trkpt>
      <trkpt lat="42.775946" lon="-7.942465">
        <ele>601.4</ele>
        <time>1970-01-01T00:20:22.000Z</time>
      </trkpt>
      <trkpt lat="42.775943" lon="-7.942501">
        <ele>601.4</ele>
        <time>1970-01-01T00:20:23.000Z</time>
      </trkpt>
      <trkpt lat="42.775936" lon="-7.942539">
        <ele>601.5</ele>
        <time>1970-01-01T00:20:24.000Z</time>
      </trkpt>
      <trkpt lat="42.775929" lon="-7.942577">
        <ele>601.5</ele>
        <time>1970-01-01T00:20:25.000Z</time>
      </trkpt>
      <trkpt lat="42.775923" lon="-7.942616">
        <ele>601.5</ele>
        <time>1970-01-01T00:20:26.000Z</time>
      </trkpt>
      <trkpt lat="42.775916" lon="-7.942658">
        <ele>601.6</ele>
        <time>1970-01-01T00:20:27.000Z</time>
      </trkpt>
      <trkpt lat="42.775911" lon="-7.942698">
        <ele>601.6</ele>
        <time>1970-01-01T00:20:28.000Z</time>
      </trkpt>
      <trkpt lat="42.775907" lon="-7.942736">
        <ele>601.6</ele>
        <time>1970-01-01T00:20:29.000Z</time>
      </trkpt>
      <trkpt lat="42.775907" lon="-7.942771">
        <ele>601.7</ele>
        <time>1970-01-01T00:20:30.000Z</time>
      </trkpt>
      <trkpt lat="42.775904" lon="-7.942807">
        <ele>601.7</ele>
        <time>1970-01-01T00:20:31.000Z</time>
      </trkpt>
      <trkpt lat="42.775898" lon="-7.94284">
        <ele>601.7</ele>
        <time>1970-01-01T00:20:32.000Z</time>
      </trkpt>
      <trkpt lat="42.775893" lon="-7.942873">
        <ele>601.7</ele>
        <time>1970-01-01T00:20:33.000Z</time>
      </trkpt>
      <trkpt lat="42.775889" lon="-7.942908">
        <ele>601.8</ele>
        <time>1970-01-01T00:20:34.000Z</time>
      </trkpt>
      <trkpt lat="42.77588" lon="-7.942951">
        <ele>601.8</ele>
        <time>1970-01-01T00:20:35.000Z</time>
      </trkpt>
      <trkpt lat="42.775873" lon="-7.942994">
        <ele>601.8</ele>
        <time>1970-01-01T00:20:36.000Z</time>
      </trkpt>
      <trkpt lat="42.775864" lon="-7.94304">
        <ele>601.9</ele>
        <time>1970-01-01T00:20:37.000Z</time>
      </trkpt>
      <trkpt lat="42.775852" lon="-7.943094">
        <ele>601.9</ele>
        <time>1970-01-01T00:20:38.000Z</time>
      </trkpt>
      <trkpt lat="42.775841" lon="-7.94315">
        <ele>602</ele>
        <time>1970-01-01T00:20:39.000Z</time>
      </trkpt>
      <trkpt lat="42.775828" lon="-7.943207">
        <ele>602</ele>
        <time>1970-01-01T00:20:40.000Z</time>
      </trkpt>
      <trkpt lat="42.775816" lon="-7.943266">
        <ele>602.1</ele>
        <time>1970-01-01T00:20:41.000Z</time>
      </trkpt>
      <trkpt lat="42.775805" lon="-7.943324">
        <ele>602.2</ele>
        <time>1970-01-01T00:20:42.000Z</time>
      </trkpt>
      <trkpt lat="42.775794" lon="-7.943377">
        <ele>602.3</ele>
        <time>1970-01-01T00:20:43.000Z</time>
      </trkpt>
      <trkpt lat="42.775783" lon="-7.943429">
        <ele>602.3</ele>
        <time>1970-01-01T00:20:44.000Z</time>
      </trkpt>
      <trkpt lat="42.775772" lon="-7.943479">
        <ele>602.4</ele>
        <time>1970-01-01T00:20:45.000Z</time>
      </trkpt>
      <trkpt lat="42.775762" lon="-7.943529">
        <ele>602.5</ele>
        <time>1970-01-01T00:20:46.000Z</time>
      </trkpt>
      <trkpt lat="42.77575" lon="-7.943579">
        <ele>602.5</ele>
        <time>1970-01-01T00:20:47.000Z</time>
      </trkpt>
      <trkpt lat="42.775743" lon="-7.943627">
        <ele>602.6</ele>
        <time>1970-01-01T00:20:48.000Z</time>
      </trkpt>
      <trkpt lat="42.775737" lon="-7.943675">
        <ele>602.7</ele>
        <time>1970-01-01T00:20:49.000Z</time>
      </trkpt>
      <trkpt lat="42.77573" lon="-7.943721">
        <ele>602.8</ele>
        <time>1970-01-01T00:20:50.000Z</time>
      </trkpt>
      <trkpt lat="42.775723" lon="-7.943768">
        <ele>602.9</ele>
        <time>1970-01-01T00:20:51.000Z</time>
      </trkpt>
      <trkpt lat="42.775715" lon="-7.943814">
        <ele>603</ele>
        <time>1970-01-01T00:20:52.000Z</time>
      </trkpt>
      <trkpt lat="42.775707" lon="-7.94386">
        <ele>603.1</ele>
        <time>1970-01-01T00:20:53.000Z</time>
      </trkpt>
      <trkpt lat="42.7757" lon="-7.943905">
        <ele>603.2</ele>
        <time>1970-01-01T00:20:54.000Z</time>
      </trkpt>
      <trkpt lat="42.775693" lon="-7.943947">
        <ele>603.3</ele>
        <time>1970-01-01T00:20:55.000Z</time>
      </trkpt>
      <trkpt lat="42.775683" lon="-7.943987">
        <ele>603.5</ele>
        <time>1970-01-01T00:20:56.000Z</time>
      </trkpt>
      <trkpt lat="42.775676" lon="-7.944027">
        <ele>603.6</ele>
        <time>1970-01-01T00:20:57.000Z</time>
      </trkpt>
      <trkpt lat="42.77567" lon="-7.944065">
        <ele>603.7</ele>
        <time>1970-01-01T00:20:58.000Z</time>
      </trkpt>
      <trkpt lat="42.775665" lon="-7.9441">
        <ele>603.8</ele>
        <time>1970-01-01T00:20:59.000Z</time>
      </trkpt>
      <trkpt lat="42.775658" lon="-7.944134">
        <ele>603.9</ele>
        <time>1970-01-01T00:21:00.000Z</time>
      </trkpt>
      <trkpt lat="42.775653" lon="-7.944166">
        <ele>604</ele>
        <time>1970-01-01T00:21:01.000Z</time>
      </trkpt>
      <trkpt lat="42.775649" lon="-7.944197">
        <ele>604.1</ele>
        <time>1970-01-01T00:21:02.000Z</time>
      </trkpt>
      <trkpt lat="42.775646" lon="-7.944224">
        <ele>604.2</ele>
        <time>1970-01-01T00:21:03.000Z</time>
      </trkpt>
      <trkpt lat="42.775642" lon="-7.944251">
        <ele>604.3</ele>
        <time>1970-01-01T00:21:04.000Z</time>
      </trkpt>
      <trkpt lat="42.775638" lon="-7.944279">
        <ele>604.4</ele>
        <time>1970-01-01T00:21:05.000Z</time>
      </trkpt>
      <trkpt lat="42.775632" lon="-7.944305">
        <ele>604.5</ele>
        <time>1970-01-01T00:21:06.000Z</time>
      </trkpt>
      <trkpt lat="42.775625" lon="-7.944327">
        <ele>604.6</ele>
        <time>1970-01-01T00:21:07.000Z</time>
      </trkpt>
      <trkpt lat="42.775618" lon="-7.944351">
        <ele>604.7</ele>
        <time>1970-01-01T00:21:08.000Z</time>
      </trkpt>
      <trkpt lat="42.775611" lon="-7.944377">
        <ele>604.8</ele>
        <time>1970-01-01T00:21:09.000Z</time>
      </trkpt>
      <trkpt lat="42.775607" lon="-7.944401">
        <ele>604.8</ele>
        <time>1970-01-01T00:21:10.000Z</time>
      </trkpt>
      <trkpt lat="42.775603" lon="-7.944426">
        <ele>604.9</ele>
        <time>1970-01-01T00:21:11.000Z</time>
      </trkpt>
      <trkpt lat="42.775597" lon="-7.944454">
        <ele>605</ele>
        <time>1970-01-01T00:21:12.000Z</time>
      </trkpt>
      <trkpt lat="42.775592" lon="-7.944479">
        <ele>605.1</ele>
        <time>1970-01-01T00:21:13.000Z</time>
      </trkpt>
      <trkpt lat="42.775584" lon="-7.944503">
        <ele>605.2</ele>
        <time>1970-01-01T00:21:14.000Z</time>
      </trkpt>
      <trkpt lat="42.77558" lon="-7.944526">
        <ele>605.3</ele>
        <time>1970-01-01T00:21:15.000Z</time>
      </trkpt>
      <trkpt lat="42.775574" lon="-7.944549">
        <ele>605.4</ele>
        <time>1970-01-01T00:21:16.000Z</time>
      </trkpt>
      <trkpt lat="42.77557" lon="-7.944568">
        <ele>605.5</ele>
        <time>1970-01-01T00:21:17.000Z</time>
      </trkpt>
      <trkpt lat="42.775565" lon="-7.944588">
        <ele>605.6</ele>
        <time>1970-01-01T00:21:18.000Z</time>
      </trkpt>
      <trkpt lat="42.775562" lon="-7.944611">
        <ele>605.7</ele>
        <time>1970-01-01T00:21:19.000Z</time>
      </trkpt>
      <trkpt lat="42.775559" lon="-7.944634">
        <ele>605.8</ele>
        <time>1970-01-01T00:21:20.000Z</time>
      </trkpt>
      <trkpt lat="42.775552" lon="-7.944653">
        <ele>605.9</ele>
        <time>1970-01-01T00:21:21.000Z</time>
      </trkpt>
      <trkpt lat="42.775544" lon="-7.944671">
        <ele>606</ele>
        <time>1970-01-01T00:21:22.000Z</time>
      </trkpt>
      <trkpt lat="42.775537" lon="-7.944693">
        <ele>606.1</ele>
        <time>1970-01-01T00:21:23.000Z</time>
      </trkpt>
      <trkpt lat="42.775531" lon="-7.944723">
        <ele>606.2</ele>
        <time>1970-01-01T00:21:24.000Z</time>
      </trkpt>
      <trkpt lat="42.77553" lon="-7.944748">
        <ele>606.3</ele>
        <time>1970-01-01T00:21:25.000Z</time>
      </trkpt>
      <trkpt lat="42.775527" lon="-7.944775">
        <ele>606.4</ele>
        <time>1970-01-01T00:21:26.000Z</time>
      </trkpt>
      <trkpt lat="42.775521" lon="-7.944803">
        <ele>606.6</ele>
        <time>1970-01-01T00:21:27.000Z</time>
      </trkpt>
      <trkpt lat="42.775514" lon="-7.944829">
        <ele>606.7</ele>
        <time>1970-01-01T00:21:28.000Z</time>
      </trkpt>
      <trkpt lat="42.775504" lon="-7.944871">
        <ele>606.9</ele>
        <time>1970-01-01T00:21:29.000Z</time>
      </trkpt>
      <trkpt lat="42.7755" lon="-7.944902">
        <ele>607.1</ele>
        <time>1970-01-01T00:21:30.000Z</time>
      </trkpt>
      <trkpt lat="42.775496" lon="-7.944938">
        <ele>607.3</ele>
        <time>1970-01-01T00:21:31.000Z</time>
      </trkpt>
      <trkpt lat="42.775488" lon="-7.944966">
        <ele>607.4</ele>
        <time>1970-01-01T00:21:32.000Z</time>
      </trkpt>
      <trkpt lat="42.775493" lon="-7.944992">
        <ele>607.6</ele>
        <time>1970-01-01T00:21:33.000Z</time>
      </trkpt>
      <trkpt lat="42.775489" lon="-7.94503">
        <ele>607.8</ele>
        <time>1970-01-01T00:21:34.000Z</time>
      </trkpt>
      <trkpt lat="42.775478" lon="-7.945063">
        <ele>608</ele>
        <time>1970-01-01T00:21:35.000Z</time>
      </trkpt>
      <trkpt lat="42.775468" lon="-7.945097">
        <ele>608.2</ele>
        <time>1970-01-01T00:21:36.000Z</time>
      </trkpt>
      <trkpt lat="42.775462" lon="-7.945125">
        <ele>608.3</ele>
        <time>1970-01-01T00:21:37.000Z</time>
      </trkpt>
      <trkpt lat="42.775452" lon="-7.945156">
        <ele>608.5</ele>
        <time>1970-01-01T00:21:38.000Z</time>
      </trkpt>
      <trkpt lat="42.775441" lon="-7.945186">
        <ele>608.7</ele>
        <time>1970-01-01T00:21:39.000Z</time>
      </trkpt>
      <trkpt lat="42.775432" lon="-7.945217">
        <ele>608.9</ele>
        <time>1970-01-01T00:21:40.000Z</time>
      </trkpt>
      <trkpt lat="42.775427" lon="-7.945249">
        <ele>609</ele>
        <time>1970-01-01T00:21:41.000Z</time>
      </trkpt>
      <trkpt lat="42.775422" lon="-7.945281">
        <ele>609.2</ele>
        <time>1970-01-01T00:21:42.000Z</time>
      </trkpt>
      <trkpt lat="42.775419" lon="-7.945313">
        <ele>609.4</ele>
        <time>1970-01-01T00:21:43.000Z</time>
      </trkpt>
      <trkpt lat="42.775413" lon="-7.945345">
        <ele>609.6</ele>
        <time>1970-01-01T00:21:44.000Z</time>
      </trkpt>
      <trkpt lat="42.77541" lon="-7.945375">
        <ele>609.7</ele>
        <time>1970-01-01T00:21:45.000Z</time>
      </trkpt>
      <trkpt lat="42.775403" lon="-7.945404">
        <ele>609.9</ele>
        <time>1970-01-01T00:21:46.000Z</time>
      </trkpt>
      <trkpt lat="42.775398" lon="-7.945434">
        <ele>610.1</ele>
        <time>1970-01-01T00:21:47.000Z</time>
      </trkpt>
      <trkpt lat="42.775393" lon="-7.945458">
        <ele>610.2</ele>
        <time>1970-01-01T00:21:48.000Z</time>
      </trkpt>
      <trkpt lat="42.775388" lon="-7.945484">
        <ele>610.4</ele>
        <time>1970-01-01T00:21:49.000Z</time>
      </trkpt>
      <trkpt lat="42.775382" lon="-7.945512">
        <ele>610.6</ele>
        <time>1970-01-01T00:21:50.000Z</time>
      </trkpt>
      <trkpt lat="42.77538" lon="-7.945541">
        <ele>610.7</ele>
        <time>1970-01-01T00:21:51.000Z</time>
      </trkpt>
      <trkpt lat="42.775378" lon="-7.945565">
        <ele>610.8</ele>
        <time>1970-01-01T00:21:52.000Z</time>
      </trkpt>
      <trkpt lat="42.775372" lon="-7.945589">
        <ele>611</ele>
        <time>1970-01-01T00:21:53.000Z</time>
      </trkpt>
      <trkpt lat="42.775365" lon="-7.945613">
        <ele>611.1</ele>
        <time>1970-01-01T00:21:54.000Z</time>
      </trkpt>
      <trkpt lat="42.775359" lon="-7.945639">
        <ele>611.3</ele>
        <time>1970-01-01T00:21:55.000Z</time>
      </trkpt>
      <trkpt lat="42.775353" lon="-7.945664">
        <ele>611.4</ele>
        <time>1970-01-01T00:21:56.000Z</time>
      </trkpt>
      <trkpt lat="42.775349" lon="-7.945691">
        <ele>611.6</ele>
        <time>1970-01-01T00:21:57.000Z</time>
      </trkpt>
      <trkpt lat="42.775344" lon="-7.945715">
        <ele>611.7</ele>
        <time>1970-01-01T00:21:58.000Z</time>
      </trkpt>
      <trkpt lat="42.775336" lon="-7.945742">
        <ele>611.8</ele>
        <time>1970-01-01T00:21:59.000Z</time>
      </trkpt>
      <trkpt lat="42.775326" lon="-7.94576">
        <ele>611.9</ele>
        <time>1970-01-01T00:22:00.000Z</time>
      </trkpt>
      <trkpt lat="42.775317" lon="-7.945788">
        <ele>612.1</ele>
        <time>1970-01-01T00:22:01.000Z</time>
      </trkpt>
      <trkpt lat="42.775313" lon="-7.945826">
        <ele>612.2</ele>
        <time>1970-01-01T00:22:02.000Z</time>
      </trkpt>
      <trkpt lat="42.775308" lon="-7.945868">
        <ele>612.4</ele>
        <time>1970-01-01T00:22:03.000Z</time>
      </trkpt>
      <trkpt lat="42.775303" lon="-7.945906">
        <ele>612.6</ele>
        <time>1970-01-01T00:22:04.000Z</time>
      </trkpt>
      <trkpt lat="42.775295" lon="-7.945947">
        <ele>612.8</ele>
        <time>1970-01-01T00:22:05.000Z</time>
      </trkpt>
      <trkpt lat="42.775288" lon="-7.94599">
        <ele>612.9</ele>
        <time>1970-01-01T00:22:06.000Z</time>
      </trkpt>
      <trkpt lat="42.775285" lon="-7.946028">
        <ele>613.1</ele>
        <time>1970-01-01T00:22:07.000Z</time>
      </trkpt>
      <trkpt lat="42.775281" lon="-7.946068">
        <ele>613.2</ele>
        <time>1970-01-01T00:22:08.000Z</time>
      </trkpt>
      <trkpt lat="42.775276" lon="-7.946106">
        <ele>613.3</ele>
        <time>1970-01-01T00:22:09.000Z</time>
      </trkpt>
      <trkpt lat="42.775268" lon="-7.94614">
        <ele>613.5</ele>
        <time>1970-01-01T00:22:10.000Z</time>
      </trkpt>
      <trkpt lat="42.775258" lon="-7.946174">
        <ele>613.6</ele>
        <time>1970-01-01T00:22:11.000Z</time>
      </trkpt>
      <trkpt lat="42.775252" lon="-7.946218">
        <ele>613.7</ele>
        <time>1970-01-01T00:22:12.000Z</time>
      </trkpt>
      <trkpt lat="42.775247" lon="-7.946257">
        <ele>613.8</ele>
        <time>1970-01-01T00:22:13.000Z</time>
      </trkpt>
      <trkpt lat="42.775241" lon="-7.946299">
        <ele>613.9</ele>
        <time>1970-01-01T00:22:14.000Z</time>
      </trkpt>
      <trkpt lat="42.775237" lon="-7.94634">
        <ele>614</ele>
        <time>1970-01-01T00:22:15.000Z</time>
      </trkpt>
      <trkpt lat="42.775234" lon="-7.946384">
        <ele>614.2</ele>
        <time>1970-01-01T00:22:16.000Z</time>
      </trkpt>
      <trkpt lat="42.775229" lon="-7.946425">
        <ele>614.3</ele>
        <time>1970-01-01T00:22:17.000Z</time>
      </trkpt>
      <trkpt lat="42.775224" lon="-7.946465">
        <ele>614.4</ele>
        <time>1970-01-01T00:22:18.000Z</time>
      </trkpt>
      <trkpt lat="42.775216" lon="-7.946512">
        <ele>614.6</ele>
        <time>1970-01-01T00:22:19.000Z</time>
      </trkpt>
      <trkpt lat="42.775206" lon="-7.946562">
        <ele>614.7</ele>
        <time>1970-01-01T00:22:20.000Z</time>
      </trkpt>
      <trkpt lat="42.7752" lon="-7.946615">
        <ele>614.9</ele>
        <time>1970-01-01T00:22:21.000Z</time>
      </trkpt>
      <trkpt lat="42.775192" lon="-7.946673">
        <ele>615.2</ele>
        <time>1970-01-01T00:22:22.000Z</time>
      </trkpt>
      <trkpt lat="42.775185" lon="-7.94673">
        <ele>615.5</ele>
        <time>1970-01-01T00:22:23.000Z</time>
      </trkpt>
      <trkpt lat="42.775177" lon="-7.946781">
        <ele>615.8</ele>
        <time>1970-01-01T00:22:24.000Z</time>
      </trkpt>
      <trkpt lat="42.775169" lon="-7.946827">
        <ele>616.1</ele>
        <time>1970-01-01T00:22:25.000Z</time>
      </trkpt>
      <trkpt lat="42.77516" lon="-7.946874">
        <ele>616.4</ele>
        <time>1970-01-01T00:22:26.000Z</time>
      </trkpt>
      <trkpt lat="42.775153" lon="-7.94692">
        <ele>616.5</ele>
        <time>1970-01-01T00:22:27.000Z</time>
      </trkpt>
      <trkpt lat="42.775145" lon="-7.946966">
        <ele>616.7</ele>
        <time>1970-01-01T00:22:28.000Z</time>
      </trkpt>
      <trkpt lat="42.775137" lon="-7.947009">
        <ele>616.9</ele>
        <time>1970-01-01T00:22:29.000Z</time>
      </trkpt>
      <trkpt lat="42.77513" lon="-7.947053">
        <ele>617.1</ele>
        <time>1970-01-01T00:22:30.000Z</time>
      </trkpt>
      <trkpt lat="42.775129" lon="-7.947093">
        <ele>617.2</ele>
        <time>1970-01-01T00:22:31.000Z</time>
      </trkpt>
      <trkpt lat="42.775132" lon="-7.947133">
        <ele>617.3</ele>
        <time>1970-01-01T00:22:32.000Z</time>
      </trkpt>
      <trkpt lat="42.775133" lon="-7.947168">
        <ele>617.4</ele>
        <time>1970-01-01T00:22:33.000Z</time>
      </trkpt>
      <trkpt lat="42.775125" lon="-7.947199">
        <ele>617.5</ele>
        <time>1970-01-01T00:22:34.000Z</time>
      </trkpt>
      <trkpt lat="42.775109" lon="-7.947221">
        <ele>617.6</ele>
        <time>1970-01-01T00:22:35.000Z</time>
      </trkpt>
      <trkpt lat="42.775089" lon="-7.947232">
        <ele>617.6</ele>
        <time>1970-01-01T00:22:36.000Z</time>
      </trkpt>
      <trkpt lat="42.775069" lon="-7.947241">
        <ele>617.6</ele>
        <time>1970-01-01T00:22:37.000Z</time>
      </trkpt>
      <trkpt lat="42.77505" lon="-7.947254">
        <ele>617.5</ele>
        <time>1970-01-01T00:22:38.000Z</time>
      </trkpt>
      <trkpt lat="42.775027" lon="-7.947267">
        <ele>617.5</ele>
        <time>1970-01-01T00:22:39.000Z</time>
      </trkpt>
      <trkpt lat="42.775011" lon="-7.947291">
        <ele>617.5</ele>
        <time>1970-01-01T00:22:40.000Z</time>
      </trkpt>
      <trkpt lat="42.774993" lon="-7.947309">
        <ele>617.5</ele>
        <time>1970-01-01T00:22:41.000Z</time>
      </trkpt>
      <trkpt lat="42.774972" lon="-7.947324">
        <ele>617.4</ele>
        <time>1970-01-01T00:22:42.000Z</time>
      </trkpt>
      <trkpt lat="42.774946" lon="-7.947344">
        <ele>617.4</ele>
        <time>1970-01-01T00:22:43.000Z</time>
      </trkpt>
      <trkpt lat="42.774916" lon="-7.947369">
        <ele>617.3</ele>
        <time>1970-01-01T00:22:44.000Z</time>
      </trkpt>
      <trkpt lat="42.774883" lon="-7.947394">
        <ele>617.3</ele>
        <time>1970-01-01T00:22:45.000Z</time>
      </trkpt>
      <trkpt lat="42.774848" lon="-7.947415">
        <ele>617.2</ele>
        <time>1970-01-01T00:22:46.000Z</time>
      </trkpt>
      <trkpt lat="42.774816" lon="-7.947439">
        <ele>617.2</ele>
        <time>1970-01-01T00:22:47.000Z</time>
      </trkpt>
      <trkpt lat="42.774782" lon="-7.947463">
        <ele>617.1</ele>
        <time>1970-01-01T00:22:48.000Z</time>
      </trkpt>
      <trkpt lat="42.774747" lon="-7.94749">
        <ele>617</ele>
        <time>1970-01-01T00:22:49.000Z</time>
      </trkpt>
      <trkpt lat="42.77471" lon="-7.947521">
        <ele>616.8</ele>
        <time>1970-01-01T00:22:50.000Z</time>
      </trkpt>
      <trkpt lat="42.774678" lon="-7.947553">
        <ele>616.7</ele>
        <time>1970-01-01T00:22:51.000Z</time>
      </trkpt>
      <trkpt lat="42.774654" lon="-7.947595">
        <ele>616.5</ele>
        <time>1970-01-01T00:22:52.000Z</time>
      </trkpt>
      <trkpt lat="42.774636" lon="-7.947641">
        <ele>616.4</ele>
        <time>1970-01-01T00:22:53.000Z</time>
      </trkpt>
      <trkpt lat="42.774617" lon="-7.947692">
        <ele>616.4</ele>
        <time>1970-01-01T00:22:54.000Z</time>
      </trkpt>
      <trkpt lat="42.774596" lon="-7.94774">
        <ele>616.2</ele>
        <time>1970-01-01T00:22:55.000Z</time>
      </trkpt>
      <trkpt lat="42.774571" lon="-7.947781">
        <ele>616.1</ele>
        <time>1970-01-01T00:22:56.000Z</time>
      </trkpt>
      <trkpt lat="42.774545" lon="-7.947826">
        <ele>616</ele>
        <time>1970-01-01T00:22:57.000Z</time>
      </trkpt>
      <trkpt lat="42.774514" lon="-7.94788">
        <ele>615.7</ele>
        <time>1970-01-01T00:22:58.000Z</time>
      </trkpt>
      <trkpt lat="42.774489" lon="-7.947922">
        <ele>615.7</ele>
        <time>1970-01-01T00:22:59.000Z</time>
      </trkpt>
      <trkpt lat="42.774468" lon="-7.94796">
        <ele>615.5</ele>
        <time>1970-01-01T00:23:00.000Z</time>
      </trkpt>
      <trkpt lat="42.774443" lon="-7.948013">
        <ele>615.2</ele>
        <time>1970-01-01T00:23:01.000Z</time>
      </trkpt>
      <trkpt lat="42.774421" lon="-7.948056">
        <ele>614.8</ele>
        <time>1970-01-01T00:23:02.000Z</time>
      </trkpt>
      <trkpt lat="42.774404" lon="-7.948109">
        <ele>614.7</ele>
        <time>1970-01-01T00:23:03.000Z</time>
      </trkpt>
      <trkpt lat="42.774385" lon="-7.948153">
        <ele>614.4</ele>
        <time>1970-01-01T00:23:04.000Z</time>
      </trkpt>
      <trkpt lat="42.774368" lon="-7.948205">
        <ele>614.2</ele>
        <time>1970-01-01T00:23:05.000Z</time>
      </trkpt>
      <trkpt lat="42.774351" lon="-7.948263">
        <ele>613.9</ele>
        <time>1970-01-01T00:23:06.000Z</time>
      </trkpt>
      <trkpt lat="42.774338" lon="-7.948327">
        <ele>613.7</ele>
        <time>1970-01-01T00:23:07.000Z</time>
      </trkpt>
      <trkpt lat="42.774326" lon="-7.948393">
        <ele>613.3</ele>
        <time>1970-01-01T00:23:08.000Z</time>
      </trkpt>
      <trkpt lat="42.774307" lon="-7.948458">
        <ele>613.1</ele>
        <time>1970-01-01T00:23:09.000Z</time>
      </trkpt>
      <trkpt lat="42.774286" lon="-7.948523">
        <ele>612.8</ele>
        <time>1970-01-01T00:23:10.000Z</time>
      </trkpt>
      <trkpt lat="42.774257" lon="-7.948584">
        <ele>612.5</ele>
        <time>1970-01-01T00:23:11.000Z</time>
      </trkpt>
      <trkpt lat="42.774225" lon="-7.948639">
        <ele>612.2</ele>
        <time>1970-01-01T00:23:12.000Z</time>
      </trkpt>
      <trkpt lat="42.774199" lon="-7.948689">
        <ele>612</ele>
        <time>1970-01-01T00:23:13.000Z</time>
      </trkpt>
      <trkpt lat="42.774173" lon="-7.948735">
        <ele>611.9</ele>
        <time>1970-01-01T00:23:14.000Z</time>
      </trkpt>
      <trkpt lat="42.774151" lon="-7.948781">
        <ele>611.7</ele>
        <time>1970-01-01T00:23:15.000Z</time>
      </trkpt>
      <trkpt lat="42.774127" lon="-7.948823">
        <ele>611.6</ele>
        <time>1970-01-01T00:23:16.000Z</time>
      </trkpt>
      <trkpt lat="42.774104" lon="-7.948862">
        <ele>611.4</ele>
        <time>1970-01-01T00:23:17.000Z</time>
      </trkpt>
      <trkpt lat="42.774082" lon="-7.948898">
        <ele>611.4</ele>
        <time>1970-01-01T00:23:18.000Z</time>
      </trkpt>
      <trkpt lat="42.774062" lon="-7.948935">
        <ele>611.3</ele>
        <time>1970-01-01T00:23:19.000Z</time>
      </trkpt>
      <trkpt lat="42.774044" lon="-7.948971">
        <ele>611.3</ele>
        <time>1970-01-01T00:23:20.000Z</time>
      </trkpt>
      <trkpt lat="42.774032" lon="-7.949006">
        <ele>611.3</ele>
        <time>1970-01-01T00:23:21.000Z</time>
      </trkpt>
      <trkpt lat="42.774021" lon="-7.949042">
        <ele>611.3</ele>
        <time>1970-01-01T00:23:22.000Z</time>
      </trkpt>
      <trkpt lat="42.774015" lon="-7.949078">
        <ele>611.3</ele>
        <time>1970-01-01T00:23:23.000Z</time>
      </trkpt>
      <trkpt lat="42.774019" lon="-7.949111">
        <ele>611.4</ele>
        <time>1970-01-01T00:23:24.000Z</time>
      </trkpt>
      <trkpt lat="42.774029" lon="-7.949144">
        <ele>611.4</ele>
        <time>1970-01-01T00:23:25.000Z</time>
      </trkpt>
      <trkpt lat="42.774042" lon="-7.949176">
        <ele>611.5</ele>
        <time>1970-01-01T00:23:26.000Z</time>
      </trkpt>
      <trkpt lat="42.774056" lon="-7.949206">
        <ele>611.6</ele>
        <time>1970-01-01T00:23:27.000Z</time>
      </trkpt>
      <trkpt lat="42.774066" lon="-7.949236">
        <ele>611.7</ele>
        <time>1970-01-01T00:23:28.000Z</time>
      </trkpt>
      <trkpt lat="42.774072" lon="-7.949266">
        <ele>611.7</ele>
        <time>1970-01-01T00:23:29.000Z</time>
      </trkpt>
      <trkpt lat="42.774082" lon="-7.949298">
        <ele>611.9</ele>
        <time>1970-01-01T00:23:30.000Z</time>
      </trkpt>
      <trkpt lat="42.774091" lon="-7.949328">
        <ele>611.9</ele>
        <time>1970-01-01T00:23:31.000Z</time>
      </trkpt>
      <trkpt lat="42.774101" lon="-7.949358">
        <ele>612</ele>
        <time>1970-01-01T00:23:32.000Z</time>
      </trkpt>
      <trkpt lat="42.774111" lon="-7.949385">
        <ele>612.2</ele>
        <time>1970-01-01T00:23:33.000Z</time>
      </trkpt>
      <trkpt lat="42.774122" lon="-7.949413">
        <ele>612.2</ele>
        <time>1970-01-01T00:23:34.000Z</time>
      </trkpt>
      <trkpt lat="42.774133" lon="-7.949441">
        <ele>612.2</ele>
        <time>1970-01-01T00:23:35.000Z</time>
      </trkpt>
      <trkpt lat="42.77414" lon="-7.949469">
        <ele>612.3</ele>
        <time>1970-01-01T00:23:36.000Z</time>
      </trkpt>
      <trkpt lat="42.774146" lon="-7.949495">
        <ele>612.4</ele>
        <time>1970-01-01T00:23:37.000Z</time>
      </trkpt>
      <trkpt lat="42.77415" lon="-7.949522">
        <ele>612.5</ele>
        <time>1970-01-01T00:23:38.000Z</time>
      </trkpt>
      <trkpt lat="42.774159" lon="-7.949546">
        <ele>612.5</ele>
        <time>1970-01-01T00:23:39.000Z</time>
      </trkpt>
      <trkpt lat="42.774163" lon="-7.949571">
        <ele>612.5</ele>
        <time>1970-01-01T00:23:40.000Z</time>
      </trkpt>
      <trkpt lat="42.774169" lon="-7.949601">
        <ele>612.6</ele>
        <time>1970-01-01T00:23:41.000Z</time>
      </trkpt>
      <trkpt lat="42.774176" lon="-7.94963">
        <ele>612.7</ele>
        <time>1970-01-01T00:23:42.000Z</time>
      </trkpt>
      <trkpt lat="42.774186" lon="-7.949658">
        <ele>612.8</ele>
        <time>1970-01-01T00:23:43.000Z</time>
      </trkpt>
      <trkpt lat="42.774196" lon="-7.949689">
        <ele>612.8</ele>
        <time>1970-01-01T00:23:44.000Z</time>
      </trkpt>
      <trkpt lat="42.774205" lon="-7.949715">
        <ele>612.9</ele>
        <time>1970-01-01T00:23:45.000Z</time>
      </trkpt>
      <trkpt lat="42.774211" lon="-7.949739">
        <ele>613</ele>
        <time>1970-01-01T00:23:46.000Z</time>
      </trkpt>
      <trkpt lat="42.774217" lon="-7.949765">
        <ele>613</ele>
        <time>1970-01-01T00:23:47.000Z</time>
      </trkpt>
      <trkpt lat="42.774225" lon="-7.949795">
        <ele>613</ele>
        <time>1970-01-01T00:23:48.000Z</time>
      </trkpt>
      <trkpt lat="42.774233" lon="-7.949819">
        <ele>613.1</ele>
        <time>1970-01-01T00:23:49.000Z</time>
      </trkpt>
      <trkpt lat="42.774236" lon="-7.949846">
        <ele>613.2</ele>
        <time>1970-01-01T00:23:50.000Z</time>
      </trkpt>
      <trkpt lat="42.774241" lon="-7.949872">
        <ele>613.3</ele>
        <time>1970-01-01T00:23:51.000Z</time>
      </trkpt>
      <trkpt lat="42.774241" lon="-7.949911">
        <ele>613.3</ele>
        <time>1970-01-01T00:23:52.000Z</time>
      </trkpt>
      <trkpt lat="42.774251" lon="-7.949925">
        <ele>613.3</ele>
        <time>1970-01-01T00:23:53.000Z</time>
      </trkpt>
      <trkpt lat="42.774269" lon="-7.949953">
        <ele>613.5</ele>
        <time>1970-01-01T00:23:54.000Z</time>
      </trkpt>
      <trkpt lat="42.774281" lon="-7.94999">
        <ele>613.6</ele>
        <time>1970-01-01T00:23:55.000Z</time>
      </trkpt>
      <trkpt lat="42.774296" lon="-7.950027">
        <ele>613.7</ele>
        <time>1970-01-01T00:23:56.000Z</time>
      </trkpt>
      <trkpt lat="42.77431" lon="-7.950067">
        <ele>613.8</ele>
        <time>1970-01-01T00:23:57.000Z</time>
      </trkpt>
      <trkpt lat="42.774321" lon="-7.950102">
        <ele>613.9</ele>
        <time>1970-01-01T00:23:58.000Z</time>
      </trkpt>
      <trkpt lat="42.774337" lon="-7.950137">
        <ele>614.1</ele>
        <time>1970-01-01T00:23:59.000Z</time>
      </trkpt>
      <trkpt lat="42.774352" lon="-7.950179">
        <ele>614.2</ele>
        <time>1970-01-01T00:24:00.000Z</time>
      </trkpt>
      <trkpt lat="42.774368" lon="-7.950217">
        <ele>614.4</ele>
        <time>1970-01-01T00:24:01.000Z</time>
      </trkpt>
      <trkpt lat="42.774383" lon="-7.950253">
        <ele>614.5</ele>
        <time>1970-01-01T00:24:02.000Z</time>
      </trkpt>
      <trkpt lat="42.774394" lon="-7.950285">
        <ele>614.8</ele>
        <time>1970-01-01T00:24:03.000Z</time>
      </trkpt>
      <trkpt lat="42.774403" lon="-7.950313">
        <ele>614.7</ele>
        <time>1970-01-01T00:24:04.000Z</time>
      </trkpt>
      <trkpt lat="42.774408" lon="-7.950341">
        <ele>614.9</ele>
        <time>1970-01-01T00:24:05.000Z</time>
      </trkpt>
      <trkpt lat="42.774412" lon="-7.950372">
        <ele>614.9</ele>
        <time>1970-01-01T00:24:06.000Z</time>
      </trkpt>
      <trkpt lat="42.774413" lon="-7.950403">
        <ele>614.9</ele>
        <time>1970-01-01T00:24:07.000Z</time>
      </trkpt>
      <trkpt lat="42.774415" lon="-7.950436">
        <ele>615</ele>
        <time>1970-01-01T00:24:08.000Z</time>
      </trkpt>
      <trkpt lat="42.774416" lon="-7.950469">
        <ele>615.1</ele>
        <time>1970-01-01T00:24:09.000Z</time>
      </trkpt>
      <trkpt lat="42.774418" lon="-7.9505">
        <ele>615.2</ele>
        <time>1970-01-01T00:24:10.000Z</time>
      </trkpt>
      <trkpt lat="42.774422" lon="-7.95053">
        <ele>615.2</ele>
        <time>1970-01-01T00:24:11.000Z</time>
      </trkpt>
      <trkpt lat="42.774425" lon="-7.950563">
        <ele>615.5</ele>
        <time>1970-01-01T00:24:12.000Z</time>
      </trkpt>
      <trkpt lat="42.77443" lon="-7.950592">
        <ele>615.6</ele>
        <time>1970-01-01T00:24:13.000Z</time>
      </trkpt>
      <trkpt lat="42.774433" lon="-7.950625">
        <ele>615.6</ele>
        <time>1970-01-01T00:24:14.000Z</time>
      </trkpt>
      <trkpt lat="42.774434" lon="-7.950652">
        <ele>615.6</ele>
        <time>1970-01-01T00:24:15.000Z</time>
      </trkpt>
      <trkpt lat="42.774435" lon="-7.950677">
        <ele>615.7</ele>
        <time>1970-01-01T00:24:16.000Z</time>
      </trkpt>
      <trkpt lat="42.774437" lon="-7.950704">
        <ele>615.7</ele>
        <time>1970-01-01T00:24:17.000Z</time>
      </trkpt>
      <trkpt lat="42.774436" lon="-7.950726">
        <ele>615.8</ele>
        <time>1970-01-01T00:24:18.000Z</time>
      </trkpt>
      <trkpt lat="42.774429" lon="-7.950762">
        <ele>615.8</ele>
        <time>1970-01-01T00:24:19.000Z</time>
      </trkpt>
      <trkpt lat="42.77441" lon="-7.9508">
        <ele>615.7</ele>
        <time>1970-01-01T00:24:20.000Z</time>
      </trkpt>
      <trkpt lat="42.774383" lon="-7.950824">
        <ele>615.5</ele>
        <time>1970-01-01T00:24:21.000Z</time>
      </trkpt>
      <trkpt lat="42.774346" lon="-7.950839">
        <ele>615.2</ele>
        <time>1970-01-01T00:24:22.000Z</time>
      </trkpt>
      <trkpt lat="42.774306" lon="-7.950845">
        <ele>615</ele>
        <time>1970-01-01T00:24:23.000Z</time>
      </trkpt>
      <trkpt lat="42.774263" lon="-7.950847">
        <ele>614.7</ele>
        <time>1970-01-01T00:24:24.000Z</time>
      </trkpt>
      <trkpt lat="42.774219" lon="-7.950844">
        <ele>614.4</ele>
        <time>1970-01-01T00:24:25.000Z</time>
      </trkpt>
      <trkpt lat="42.774184" lon="-7.95083">
        <ele>614.2</ele>
        <time>1970-01-01T00:24:26.000Z</time>
      </trkpt>
      <trkpt lat="42.774163" lon="-7.950808">
        <ele>614</ele>
        <time>1970-01-01T00:24:27.000Z</time>
      </trkpt>
      <trkpt lat="42.77415" lon="-7.950773">
        <ele>613.9</ele>
        <time>1970-01-01T00:24:28.000Z</time>
      </trkpt>
      <trkpt lat="42.77414" lon="-7.950736">
        <ele>613.7</ele>
        <time>1970-01-01T00:24:29.000Z</time>
      </trkpt>
      <trkpt lat="42.774129" lon="-7.950696">
        <ele>612.9</ele>
        <time>1970-01-01T00:24:30.000Z</time>
      </trkpt>
      <trkpt lat="42.774114" lon="-7.950647">
        <ele>612.7</ele>
        <time>1970-01-01T00:24:31.000Z</time>
      </trkpt>
      <trkpt lat="42.774092" lon="-7.95059">
        <ele>612.4</ele>
        <time>1970-01-01T00:24:32.000Z</time>
      </trkpt>
      <trkpt lat="42.774056" lon="-7.950546">
        <ele>612.2</ele>
        <time>1970-01-01T00:24:33.000Z</time>
      </trkpt>
      <trkpt lat="42.774018" lon="-7.950493">
        <ele>611.9</ele>
        <time>1970-01-01T00:24:34.000Z</time>
      </trkpt>
      <trkpt lat="42.773979" lon="-7.950436">
        <ele>611.7</ele>
        <time>1970-01-01T00:24:35.000Z</time>
      </trkpt>
      <trkpt lat="42.773938" lon="-7.950378">
        <ele>611.5</ele>
        <time>1970-01-01T00:24:36.000Z</time>
      </trkpt>
      <trkpt lat="42.773903" lon="-7.950325">
        <ele>611.3</ele>
        <time>1970-01-01T00:24:37.000Z</time>
      </trkpt>
      <trkpt lat="42.773876" lon="-7.950281">
        <ele>611.2</ele>
        <time>1970-01-01T00:24:38.000Z</time>
      </trkpt>
      <trkpt lat="42.773851" lon="-7.95022">
        <ele>611</ele>
        <time>1970-01-01T00:24:39.000Z</time>
      </trkpt>
      <trkpt lat="42.773828" lon="-7.95015">
        <ele>610.7</ele>
        <time>1970-01-01T00:24:40.000Z</time>
      </trkpt>
      <trkpt lat="42.773808" lon="-7.950084">
        <ele>610.6</ele>
        <time>1970-01-01T00:24:41.000Z</time>
      </trkpt>
      <trkpt lat="42.77378" lon="-7.950041">
        <ele>610.4</ele>
        <time>1970-01-01T00:24:42.000Z</time>
      </trkpt>
      <trkpt lat="42.773744" lon="-7.950004">
        <ele>610.2</ele>
        <time>1970-01-01T00:24:43.000Z</time>
      </trkpt>
      <trkpt lat="42.773699" lon="-7.949985">
        <ele>609.6</ele>
        <time>1970-01-01T00:24:44.000Z</time>
      </trkpt>
      <trkpt lat="42.773648" lon="-7.949971">
        <ele>609.2</ele>
        <time>1970-01-01T00:24:45.000Z</time>
      </trkpt>
      <trkpt lat="42.773602" lon="-7.949944">
        <ele>608.8</ele>
        <time>1970-01-01T00:24:46.000Z</time>
      </trkpt>
      <trkpt lat="42.77355" lon="-7.949911">
        <ele>608.6</ele>
        <time>1970-01-01T00:24:47.000Z</time>
      </trkpt>
      <trkpt lat="42.773498" lon="-7.94988">
        <ele>608.2</ele>
        <time>1970-01-01T00:24:48.000Z</time>
      </trkpt>
      <trkpt lat="42.773451" lon="-7.949861">
        <ele>607.9</ele>
        <time>1970-01-01T00:24:49.000Z</time>
      </trkpt>
      <trkpt lat="42.77341" lon="-7.949859">
        <ele>607.7</ele>
        <time>1970-01-01T00:24:50.000Z</time>
      </trkpt>
      <trkpt lat="42.77337" lon="-7.949854">
        <ele>607.6</ele>
        <time>1970-01-01T00:24:51.000Z</time>
      </trkpt>
      <trkpt lat="42.773332" lon="-7.949849">
        <ele>607.4</ele>
        <time>1970-01-01T00:24:52.000Z</time>
      </trkpt>
      <trkpt lat="42.773294" lon="-7.949829">
        <ele>607.1</ele>
        <time>1970-01-01T00:24:53.000Z</time>
      </trkpt>
      <trkpt lat="42.773251" lon="-7.949809">
        <ele>606.9</ele>
        <time>1970-01-01T00:24:54.000Z</time>
      </trkpt>
      <trkpt lat="42.773212" lon="-7.949782">
        <ele>606.8</ele>
        <time>1970-01-01T00:24:55.000Z</time>
      </trkpt>
      <trkpt lat="42.773182" lon="-7.949758">
        <ele>606.7</ele>
        <time>1970-01-01T00:24:56.000Z</time>
      </trkpt>
      <trkpt lat="42.773149" lon="-7.949728">
        <ele>606.5</ele>
        <time>1970-01-01T00:24:57.000Z</time>
      </trkpt>
      <trkpt lat="42.773114" lon="-7.949692">
        <ele>606.4</ele>
        <time>1970-01-01T00:24:58.000Z</time>
      </trkpt>
      <trkpt lat="42.773086" lon="-7.94965">
        <ele>606.3</ele>
        <time>1970-01-01T00:24:59.000Z</time>
      </trkpt>
      <trkpt lat="42.77306" lon="-7.949607">
        <ele>606.2</ele>
        <time>1970-01-01T00:25:00.000Z</time>
      </trkpt>
      <trkpt lat="42.773039" lon="-7.949568">
        <ele>606.2</ele>
        <time>1970-01-01T00:25:01.000Z</time>
      </trkpt>
      <trkpt lat="42.773025" lon="-7.949528">
        <ele>606.1</ele>
        <time>1970-01-01T00:25:02.000Z</time>
      </trkpt>
      <trkpt lat="42.773012" lon="-7.94949">
        <ele>606.1</ele>
        <time>1970-01-01T00:25:03.000Z</time>
      </trkpt>
      <trkpt lat="42.772994" lon="-7.949449">
        <ele>606</ele>
        <time>1970-01-01T00:25:04.000Z</time>
      </trkpt>
      <trkpt lat="42.772979" lon="-7.949419">
        <ele>606</ele>
        <time>1970-01-01T00:25:05.000Z</time>
      </trkpt>
      <trkpt lat="42.772957" lon="-7.949391">
        <ele>605.9</ele>
        <time>1970-01-01T00:25:06.000Z</time>
      </trkpt>
      <trkpt lat="42.77293" lon="-7.949357">
        <ele>605.9</ele>
        <time>1970-01-01T00:25:07.000Z</time>
      </trkpt>
      <trkpt lat="42.772903" lon="-7.949328">
        <ele>605.8</ele>
        <time>1970-01-01T00:25:08.000Z</time>
      </trkpt>
      <trkpt lat="42.772881" lon="-7.949303">
        <ele>605.8</ele>
        <time>1970-01-01T00:25:09.000Z</time>
      </trkpt>
      <trkpt lat="42.77286" lon="-7.949281">
        <ele>605.6</ele>
        <time>1970-01-01T00:25:10.000Z</time>
      </trkpt>
      <trkpt lat="42.772837" lon="-7.949254">
        <ele>605.6</ele>
        <time>1970-01-01T00:25:11.000Z</time>
      </trkpt>
      <trkpt lat="42.772812" lon="-7.94921">
        <ele>605.4</ele>
        <time>1970-01-01T00:25:12.000Z</time>
      </trkpt>
      <trkpt lat="42.772797" lon="-7.949168">
        <ele>605.4</ele>
        <time>1970-01-01T00:25:13.000Z</time>
      </trkpt>
      <trkpt lat="42.772782" lon="-7.949134">
        <ele>605.2</ele>
        <time>1970-01-01T00:25:14.000Z</time>
      </trkpt>
      <trkpt lat="42.772775" lon="-7.949102">
        <ele>605.1</ele>
        <time>1970-01-01T00:25:15.000Z</time>
      </trkpt>
      <trkpt lat="42.772741" lon="-7.949007">
        <ele>604.9</ele>
        <time>1970-01-01T00:25:16.000Z</time>
      </trkpt>
      <trkpt lat="42.772729" lon="-7.948953">
        <ele>604.8</ele>
        <time>1970-01-01T00:25:17.000Z</time>
      </trkpt>
      <trkpt lat="42.772693" lon="-7.948871">
        <ele>604.6</ele>
        <time>1970-01-01T00:25:18.000Z</time>
      </trkpt>
      <trkpt lat="42.772671" lon="-7.948803">
        <ele>604.3</ele>
        <time>1970-01-01T00:25:19.000Z</time>
      </trkpt>
      <trkpt lat="42.772635" lon="-7.948714">
        <ele>604</ele>
        <time>1970-01-01T00:25:20.000Z</time>
      </trkpt>
      <trkpt lat="42.772589" lon="-7.948622">
        <ele>603.6</ele>
        <time>1970-01-01T00:25:21.000Z</time>
      </trkpt>
      <trkpt lat="42.772551" lon="-7.94852">
        <ele>603.3</ele>
        <time>1970-01-01T00:25:22.000Z</time>
      </trkpt>
      <trkpt lat="42.772535" lon="-7.948419">
        <ele>603.2</ele>
        <time>1970-01-01T00:25:23.000Z</time>
      </trkpt>
      <trkpt lat="42.77251" lon="-7.948328">
        <ele>603</ele>
        <time>1970-01-01T00:25:24.000Z</time>
      </trkpt>
      <trkpt lat="42.772482" lon="-7.948232">
        <ele>602.9</ele>
        <time>1970-01-01T00:25:25.000Z</time>
      </trkpt>
      <trkpt lat="42.77246" lon="-7.948147">
        <ele>602.8</ele>
        <time>1970-01-01T00:25:26.000Z</time>
      </trkpt>
      <trkpt lat="42.772442" lon="-7.948064">
        <ele>602.7</ele>
        <time>1970-01-01T00:25:27.000Z</time>
      </trkpt>
      <trkpt lat="42.772428" lon="-7.947992">
        <ele>602.5</ele>
        <time>1970-01-01T00:25:28.000Z</time>
      </trkpt>
      <trkpt lat="42.77241" lon="-7.947922">
        <ele>602.5</ele>
        <time>1970-01-01T00:25:29.000Z</time>
      </trkpt>
      <trkpt lat="42.772387" lon="-7.947857">
        <ele>602.3</ele>
        <time>1970-01-01T00:25:30.000Z</time>
      </trkpt>
      <trkpt lat="42.77236" lon="-7.947786">
        <ele>602.1</ele>
        <time>1970-01-01T00:25:31.000Z</time>
      </trkpt>
      <trkpt lat="42.772335" lon="-7.947713">
        <ele>602</ele>
        <time>1970-01-01T00:25:32.000Z</time>
      </trkpt>
      <trkpt lat="42.772296" lon="-7.947632">
        <ele>601.7</ele>
        <time>1970-01-01T00:25:33.000Z</time>
      </trkpt>
      <trkpt lat="42.772249" lon="-7.947576">
        <ele>601.3</ele>
        <time>1970-01-01T00:25:34.000Z</time>
      </trkpt>
      <trkpt lat="42.7722" lon="-7.947513">
        <ele>601.1</ele>
        <time>1970-01-01T00:25:35.000Z</time>
      </trkpt>
      <trkpt lat="42.772155" lon="-7.947443">
        <ele>600.7</ele>
        <time>1970-01-01T00:25:36.000Z</time>
      </trkpt>
      <trkpt lat="42.772116" lon="-7.947372">
        <ele>600.5</ele>
        <time>1970-01-01T00:25:37.000Z</time>
      </trkpt>
      <trkpt lat="42.772081" lon="-7.947303">
        <ele>600.1</ele>
        <time>1970-01-01T00:25:38.000Z</time>
      </trkpt>
      <trkpt lat="42.772042" lon="-7.947229">
        <ele>599.7</ele>
        <time>1970-01-01T00:25:39.000Z</time>
      </trkpt>
      <trkpt lat="42.772003" lon="-7.947168">
        <ele>599.4</ele>
        <time>1970-01-01T00:25:40.000Z</time>
      </trkpt>
      <trkpt lat="42.77197" lon="-7.947104">
        <ele>599.1</ele>
        <time>1970-01-01T00:25:41.000Z</time>
      </trkpt>
      <trkpt lat="42.771933" lon="-7.947042">
        <ele>598.8</ele>
        <time>1970-01-01T00:25:42.000Z</time>
      </trkpt>
      <trkpt lat="42.771893" lon="-7.946977">
        <ele>598.5</ele>
        <time>1970-01-01T00:25:43.000Z</time>
      </trkpt>
      <trkpt lat="42.771848" lon="-7.946902">
        <ele>598.3</ele>
        <time>1970-01-01T00:25:44.000Z</time>
      </trkpt>
      <trkpt lat="42.771813" lon="-7.946847">
        <ele>598.1</ele>
        <time>1970-01-01T00:25:45.000Z</time>
      </trkpt>
      <trkpt lat="42.771782" lon="-7.946789">
        <ele>598</ele>
        <time>1970-01-01T00:25:46.000Z</time>
      </trkpt>
      <trkpt lat="42.771745" lon="-7.946732">
        <ele>597.9</ele>
        <time>1970-01-01T00:25:47.000Z</time>
      </trkpt>
      <trkpt lat="42.771716" lon="-7.946683">
        <ele>597.8</ele>
        <time>1970-01-01T00:25:48.000Z</time>
      </trkpt>
      <trkpt lat="42.77169" lon="-7.946637">
        <ele>597.8</ele>
        <time>1970-01-01T00:25:49.000Z</time>
      </trkpt>
      <trkpt lat="42.77166" lon="-7.946592">
        <ele>597.7</ele>
        <time>1970-01-01T00:25:50.000Z</time>
      </trkpt>
      <trkpt lat="42.77163" lon="-7.946539">
        <ele>597.6</ele>
        <time>1970-01-01T00:25:51.000Z</time>
      </trkpt>
      <trkpt lat="42.771602" lon="-7.946492">
        <ele>597.5</ele>
        <time>1970-01-01T00:25:52.000Z</time>
      </trkpt>
      <trkpt lat="42.771573" lon="-7.946445">
        <ele>597.4</ele>
        <time>1970-01-01T00:25:53.000Z</time>
      </trkpt>
      <trkpt lat="42.771556" lon="-7.9464">
        <ele>597.2</ele>
        <time>1970-01-01T00:25:54.000Z</time>
      </trkpt>
      <trkpt lat="42.77153" lon="-7.946359">
        <ele>597.2</ele>
        <time>1970-01-01T00:25:55.000Z</time>
      </trkpt>
      <trkpt lat="42.771505" lon="-7.946325">
        <ele>597</ele>
        <time>1970-01-01T00:25:56.000Z</time>
      </trkpt>
      <trkpt lat="42.771483" lon="-7.946297">
        <ele>597</ele>
        <time>1970-01-01T00:25:57.000Z</time>
      </trkpt>
      <trkpt lat="42.77146" lon="-7.946274">
        <ele>596.8</ele>
        <time>1970-01-01T00:25:58.000Z</time>
      </trkpt>
      <trkpt lat="42.771439" lon="-7.946259">
        <ele>596.8</ele>
        <time>1970-01-01T00:25:59.000Z</time>
      </trkpt>
      <trkpt lat="42.771424" lon="-7.946245">
        <ele>596.6</ele>
        <time>1970-01-01T00:26:00.000Z</time>
      </trkpt>
      <trkpt lat="42.771417" lon="-7.946233">
        <ele>596.6</ele>
        <time>1970-01-01T00:26:01.000Z</time>
      </trkpt>
      <trkpt lat="42.771408" lon="-7.946221">
        <ele>596.6</ele>
        <time>1970-01-01T00:26:02.000Z</time>
      </trkpt>
      <trkpt lat="42.771395" lon="-7.946209">
        <ele>596.5</ele>
        <time>1970-01-01T00:26:03.000Z</time>
      </trkpt>
      <trkpt lat="42.771381" lon="-7.9462">
        <ele>596.5</ele>
        <time>1970-01-01T00:26:04.000Z</time>
      </trkpt>
      <trkpt lat="42.771368" lon="-7.946188">
        <ele>596.4</ele>
        <time>1970-01-01T00:26:05.000Z</time>
      </trkpt>
      <trkpt lat="42.771355" lon="-7.946177">
        <ele>596.4</ele>
        <time>1970-01-01T00:26:06.000Z</time>
      </trkpt>
      <trkpt lat="42.77134" lon="-7.946164">
        <ele>596.4</ele>
        <time>1970-01-01T00:26:07.000Z</time>
      </trkpt>
      <trkpt lat="42.771333" lon="-7.94616">
        <ele>596.2</ele>
        <time>1970-01-01T00:26:08.000Z</time>
      </trkpt>
      <trkpt lat="42.771327" lon="-7.94616">
        <ele>596.2</ele>
        <time>1970-01-01T00:26:09.000Z</time>
      </trkpt>
      <trkpt lat="42.771315" lon="-7.946153">
        <ele>596.2</ele>
        <time>1970-01-01T00:26:10.000Z</time>
      </trkpt>
      <trkpt lat="42.771299" lon="-7.946156">
        <ele>596</ele>
        <time>1970-01-01T00:26:11.000Z</time>
      </trkpt>
      <trkpt lat="42.771273" lon="-7.946155">
        <ele>595.9</ele>
        <time>1970-01-01T00:26:12.000Z</time>
      </trkpt>
      <trkpt lat="42.77124" lon="-7.946158">
        <ele>595.8</ele>
        <time>1970-01-01T00:26:13.000Z</time>
      </trkpt>
      <trkpt lat="42.771211" lon="-7.946157">
        <ele>595.6</ele>
        <time>1970-01-01T00:26:14.000Z</time>
      </trkpt>
      <trkpt lat="42.771193" lon="-7.946157">
        <ele>595.6</ele>
        <time>1970-01-01T00:26:15.000Z</time>
      </trkpt>
      <trkpt lat="42.771161" lon="-7.946146">
        <ele>595.4</ele>
        <time>1970-01-01T00:26:16.000Z</time>
      </trkpt>
      <trkpt lat="42.771132" lon="-7.946128">
        <ele>595.3</ele>
        <time>1970-01-01T00:26:17.000Z</time>
      </trkpt>
      <trkpt lat="42.77111" lon="-7.94612">
        <ele>595.1</ele>
        <time>1970-01-01T00:26:18.000Z</time>
      </trkpt>
      <trkpt lat="42.771088" lon="-7.946114">
        <ele>595.1</ele>
        <time>1970-01-01T00:26:19.000Z</time>
      </trkpt>
      <trkpt lat="42.771059" lon="-7.946095">
        <ele>594.9</ele>
        <time>1970-01-01T00:26:20.000Z</time>
      </trkpt>
      <trkpt lat="42.771034" lon="-7.946078">
        <ele>594.8</ele>
        <time>1970-01-01T00:26:21.000Z</time>
      </trkpt>
      <trkpt lat="42.77101" lon="-7.94606">
        <ele>594.6</ele>
        <time>1970-01-01T00:26:22.000Z</time>
      </trkpt>
      <trkpt lat="42.770986" lon="-7.946041">
        <ele>594.5</ele>
        <time>1970-01-01T00:26:23.000Z</time>
      </trkpt>
      <trkpt lat="42.77096" lon="-7.946018">
        <ele>594.4</ele>
        <time>1970-01-01T00:26:24.000Z</time>
      </trkpt>
      <trkpt lat="42.770935" lon="-7.945992">
        <ele>594.3</ele>
        <time>1970-01-01T00:26:25.000Z</time>
      </trkpt>
      <trkpt lat="42.770909" lon="-7.945956">
        <ele>594.1</ele>
        <time>1970-01-01T00:26:26.000Z</time>
      </trkpt>
      <trkpt lat="42.770882" lon="-7.945931">
        <ele>593.9</ele>
        <time>1970-01-01T00:26:27.000Z</time>
      </trkpt>
      <trkpt lat="42.770856" lon="-7.94591">
        <ele>593.8</ele>
        <time>1970-01-01T00:26:28.000Z</time>
      </trkpt>
      <trkpt lat="42.770837" lon="-7.945895">
        <ele>593.6</ele>
        <time>1970-01-01T00:26:29.000Z</time>
      </trkpt>
      <trkpt lat="42.77082" lon="-7.945885">
        <ele>593.6</ele>
        <time>1970-01-01T00:26:30.000Z</time>
      </trkpt>
      <trkpt lat="42.770801" lon="-7.945874">
        <ele>593.5</ele>
        <time>1970-01-01T00:26:31.000Z</time>
      </trkpt>
      <trkpt lat="42.770782" lon="-7.945864">
        <ele>593.5</ele>
        <time>1970-01-01T00:26:32.000Z</time>
      </trkpt>
      <trkpt lat="42.770768" lon="-7.945842">
        <ele>593.3</ele>
        <time>1970-01-01T00:26:33.000Z</time>
      </trkpt>
      <trkpt lat="42.770747" lon="-7.945811">
        <ele>593.2</ele>
        <time>1970-01-01T00:26:34.000Z</time>
      </trkpt>
      <trkpt lat="42.770731" lon="-7.945785">
        <ele>593.1</ele>
        <time>1970-01-01T00:26:35.000Z</time>
      </trkpt>
      <trkpt lat="42.770716" lon="-7.945766">
        <ele>593</ele>
        <time>1970-01-01T00:26:36.000Z</time>
      </trkpt>
      <trkpt lat="42.770709" lon="-7.945752">
        <ele>593</ele>
        <time>1970-01-01T00:26:37.000Z</time>
      </trkpt>
      <trkpt lat="42.770708" lon="-7.945743">
        <ele>592.9</ele>
        <time>1970-01-01T00:26:38.000Z</time>
      </trkpt>
      <trkpt lat="42.770708" lon="-7.94574">
        <ele>592.9</ele>
        <time>1970-01-01T00:26:39.000Z</time>
      </trkpt>
      <trkpt lat="42.770706" lon="-7.945736">
        <ele>592.9</ele>
        <time>1970-01-01T00:26:40.000Z</time>
      </trkpt>
      <trkpt lat="42.770704" lon="-7.945733">
        <ele>592.8</ele>
        <time>1970-01-01T00:26:41.000Z</time>
      </trkpt>
      <trkpt lat="42.770699" lon="-7.945728">
        <ele>592.8</ele>
        <time>1970-01-01T00:26:42.000Z</time>
      </trkpt>
      <trkpt lat="42.770696" lon="-7.945719">
        <ele>592.8</ele>
        <time>1970-01-01T00:26:43.000Z</time>
      </trkpt>
      <trkpt lat="42.77069" lon="-7.945708">
        <ele>592.8</ele>
        <time>1970-01-01T00:26:44.000Z</time>
      </trkpt>
      <trkpt lat="42.770682" lon="-7.945703">
        <ele>592.8</ele>
        <time>1970-01-01T00:26:45.000Z</time>
      </trkpt>
      <trkpt lat="42.770681" lon="-7.945706">
        <ele>592.8</ele>
        <time>1970-01-01T00:26:46.000Z</time>
      </trkpt>
      <trkpt lat="42.770835" lon="-7.945872">
        <ele>593.6</ele>
        <time>1970-01-01T00:27:08.000Z</time>
      </trkpt>
      <trkpt lat="42.770842" lon="-7.94588">
        <ele>593.6</ele>
        <time>1970-01-01T00:27:09.000Z</time>
      </trkpt>
      <trkpt lat="42.770851" lon="-7.945889">
        <ele>593.6</ele>
        <time>1970-01-01T00:27:10.000Z</time>
      </trkpt>
      <trkpt lat="42.770862" lon="-7.945897">
        <ele>593.6</ele>
        <time>1970-01-01T00:27:11.000Z</time>
      </trkpt>
      <trkpt lat="42.770866" lon="-7.945903">
        <ele>593.7</ele>
        <time>1970-01-01T00:27:12.000Z</time>
      </trkpt>
      <trkpt lat="42.770871" lon="-7.94591">
        <ele>593.9</ele>
        <time>1970-01-01T00:27:13.000Z</time>
      </trkpt>
      <trkpt lat="42.770878" lon="-7.945919">
        <ele>593.9</ele>
        <time>1970-01-01T00:27:14.000Z</time>
      </trkpt>
      <trkpt lat="42.770893" lon="-7.945924">
        <ele>593.9</ele>
        <time>1970-01-01T00:27:15.000Z</time>
      </trkpt>
      <trkpt lat="42.770901" lon="-7.945932">
        <ele>593.9</ele>
        <time>1970-01-01T00:27:16.000Z</time>
      </trkpt>
      <trkpt lat="42.770907" lon="-7.945936">
        <ele>593.9</ele>
        <time>1970-01-01T00:27:17.000Z</time>
      </trkpt>
      <trkpt lat="42.770915" lon="-7.945943">
        <ele>593.9</ele>
        <time>1970-01-01T00:27:18.000Z</time>
      </trkpt>
      <trkpt lat="42.770926" lon="-7.945951">
        <ele>594.1</ele>
        <time>1970-01-01T00:27:19.000Z</time>
      </trkpt>
      <trkpt lat="42.770937" lon="-7.945955">
        <ele>594.2</ele>
        <time>1970-01-01T00:27:20.000Z</time>
      </trkpt>
      <trkpt lat="42.770948" lon="-7.945962">
        <ele>594.2</ele>
        <time>1970-01-01T00:27:21.000Z</time>
      </trkpt>
      <trkpt lat="42.770958" lon="-7.945964">
        <ele>594.2</ele>
        <time>1970-01-01T00:27:22.000Z</time>
      </trkpt>
      <trkpt lat="42.770963" lon="-7.945967">
        <ele>594.3</ele>
        <time>1970-01-01T00:27:23.000Z</time>
      </trkpt>
      <trkpt lat="42.770974" lon="-7.945973">
        <ele>594.3</ele>
        <time>1970-01-01T00:27:24.000Z</time>
      </trkpt>
      <trkpt lat="42.770993" lon="-7.945978">
        <ele>594.4</ele>
        <time>1970-01-01T00:27:25.000Z</time>
      </trkpt>
      <trkpt lat="42.77101" lon="-7.945982">
        <ele>594.4</ele>
        <time>1970-01-01T00:27:26.000Z</time>
      </trkpt>
      <trkpt lat="42.771023" lon="-7.945989">
        <ele>594.5</ele>
        <time>1970-01-01T00:27:27.000Z</time>
      </trkpt>
      <trkpt lat="42.771035" lon="-7.945997">
        <ele>594.6</ele>
        <time>1970-01-01T00:27:28.000Z</time>
      </trkpt>
      <trkpt lat="42.771042" lon="-7.945998">
        <ele>594.6</ele>
        <time>1970-01-01T00:27:29.000Z</time>
      </trkpt>
      <trkpt lat="42.771056" lon="-7.946001">
        <ele>594.7</ele>
        <time>1970-01-01T00:27:30.000Z</time>
      </trkpt>
      <trkpt lat="42.771067" lon="-7.946006">
        <ele>594.7</ele>
        <time>1970-01-01T00:27:31.000Z</time>
      </trkpt>
      <trkpt lat="42.771077" lon="-7.94601">
        <ele>594.7</ele>
        <time>1970-01-01T00:27:32.000Z</time>
      </trkpt>
      <trkpt lat="42.771087" lon="-7.946015">
        <ele>594.9</ele>
        <time>1970-01-01T00:27:33.000Z</time>
      </trkpt>
      <trkpt lat="42.771098" lon="-7.94602">
        <ele>594.9</ele>
        <time>1970-01-01T00:27:34.000Z</time>
      </trkpt>
      <trkpt lat="42.771114" lon="-7.94602">
        <ele>594.9</ele>
        <time>1970-01-01T00:27:35.000Z</time>
      </trkpt>
      <trkpt lat="42.771129" lon="-7.94602">
        <ele>595</ele>
        <time>1970-01-01T00:27:36.000Z</time>
      </trkpt>
      <trkpt lat="42.771143" lon="-7.946022">
        <ele>595</ele>
        <time>1970-01-01T00:27:37.000Z</time>
      </trkpt>
      <trkpt lat="42.771154" lon="-7.946022">
        <ele>595.2</ele>
        <time>1970-01-01T00:27:38.000Z</time>
      </trkpt>
      <trkpt lat="42.771162" lon="-7.946024">
        <ele>595.2</ele>
        <time>1970-01-01T00:27:39.000Z</time>
      </trkpt>
      <trkpt lat="42.771173" lon="-7.946026">
        <ele>595.2</ele>
        <time>1970-01-01T00:27:40.000Z</time>
      </trkpt>
      <trkpt lat="42.771182" lon="-7.946029">
        <ele>595.3</ele>
        <time>1970-01-01T00:27:41.000Z</time>
      </trkpt>
      <trkpt lat="42.771201" lon="-7.946027">
        <ele>595.3</ele>
        <time>1970-01-01T00:27:42.000Z</time>
      </trkpt>
      <trkpt lat="42.771209" lon="-7.946032">
        <ele>595.3</ele>
        <time>1970-01-01T00:27:43.000Z</time>
      </trkpt>
      <trkpt lat="42.771216" lon="-7.946041">
        <ele>595.6</ele>
        <time>1970-01-01T00:27:44.000Z</time>
      </trkpt>
      <trkpt lat="42.771226" lon="-7.946048">
        <ele>595.6</ele>
        <time>1970-01-01T00:27:45.000Z</time>
      </trkpt>
      <trkpt lat="42.771231" lon="-7.946056">
        <ele>595.6</ele>
        <time>1970-01-01T00:27:46.000Z</time>
      </trkpt>
      <trkpt lat="42.771249" lon="-7.94606">
        <ele>595.8</ele>
        <time>1970-01-01T00:27:47.000Z</time>
      </trkpt>
      <trkpt lat="42.771259" lon="-7.946069">
        <ele>595.8</ele>
        <time>1970-01-01T00:27:48.000Z</time>
      </trkpt>
      <trkpt lat="42.771272" lon="-7.946078">
        <ele>595.8</ele>
        <time>1970-01-01T00:27:49.000Z</time>
      </trkpt>
      <trkpt lat="42.771286" lon="-7.946087">
        <ele>596</ele>
        <time>1970-01-01T00:27:50.000Z</time>
      </trkpt>
      <trkpt lat="42.771338" lon="-7.946142">
        <ele>596.3</ele>
        <time>1970-01-01T00:27:56.000Z</time>
      </trkpt>
      <trkpt lat="42.771345" lon="-7.946152">
        <ele>596.3</ele>
        <time>1970-01-01T00:27:57.000Z</time>
      </trkpt>
      <trkpt lat="42.771352" lon="-7.946162">
        <ele>596.3</ele>
        <time>1970-01-01T00:27:58.000Z</time>
      </trkpt>
      <trkpt lat="42.771362" lon="-7.946173">
        <ele>596.3</ele>
        <time>1970-01-01T00:27:59.000Z</time>
      </trkpt>
      <trkpt lat="42.771372" lon="-7.946181">
        <ele>596.4</ele>
        <time>1970-01-01T00:28:00.000Z</time>
      </trkpt>
      <trkpt lat="42.77138" lon="-7.94619">
        <ele>596.4</ele>
        <time>1970-01-01T00:28:01.000Z</time>
      </trkpt>
      <trkpt lat="42.771385" lon="-7.946195">
        <ele>596.4</ele>
        <time>1970-01-01T00:28:02.000Z</time>
      </trkpt>
      <trkpt lat="42.771389" lon="-7.946197">
        <ele>596.4</ele>
        <time>1970-01-01T00:28:03.000Z</time>
      </trkpt>
      <trkpt lat="42.771393" lon="-7.946203">
        <ele>596.4</ele>
        <time>1970-01-01T00:28:04.000Z</time>
      </trkpt>
      <trkpt lat="42.771402" lon="-7.946209">
        <ele>596.6</ele>
        <time>1970-01-01T00:28:05.000Z</time>
      </trkpt>
      <trkpt lat="42.771409" lon="-7.946215">
        <ele>596.6</ele>
        <time>1970-01-01T00:28:06.000Z</time>
      </trkpt>
      <trkpt lat="42.771417" lon="-7.946224">
        <ele>596.6</ele>
        <time>1970-01-01T00:28:07.000Z</time>
      </trkpt>
      <trkpt lat="42.77143" lon="-7.946237">
        <ele>596.6</ele>
        <time>1970-01-01T00:28:08.000Z</time>
      </trkpt>
      <trkpt lat="42.771442" lon="-7.946253">
        <ele>596.7</ele>
        <time>1970-01-01T00:28:09.000Z</time>
      </trkpt>
      <trkpt lat="42.771457" lon="-7.946272">
        <ele>596.7</ele>
        <time>1970-01-01T00:28:10.000Z</time>
      </trkpt>
      <trkpt lat="42.771473" lon="-7.946294">
        <ele>596.9</ele>
        <time>1970-01-01T00:28:11.000Z</time>
      </trkpt>
      <trkpt lat="42.771485" lon="-7.946315">
        <ele>596.9</ele>
        <time>1970-01-01T00:28:12.000Z</time>
      </trkpt>
      <trkpt lat="42.771499" lon="-7.946335">
        <ele>597</ele>
        <time>1970-01-01T00:28:13.000Z</time>
      </trkpt>
      <trkpt lat="42.771513" lon="-7.946353">
        <ele>597</ele>
        <time>1970-01-01T00:28:14.000Z</time>
      </trkpt>
      <trkpt lat="42.771527" lon="-7.946371">
        <ele>597.1</ele>
        <time>1970-01-01T00:28:15.000Z</time>
      </trkpt>
      <trkpt lat="42.771541" lon="-7.946384">
        <ele>597.2</ele>
        <time>1970-01-01T00:28:16.000Z</time>
      </trkpt>
      <trkpt lat="42.771555" lon="-7.9464">
        <ele>597.2</ele>
        <time>1970-01-01T00:28:17.000Z</time>
      </trkpt>
      <trkpt lat="42.77157" lon="-7.946416">
        <ele>597.2</ele>
        <time>1970-01-01T00:28:18.000Z</time>
      </trkpt>
      <trkpt lat="42.771587" lon="-7.946435">
        <ele>597.3</ele>
        <time>1970-01-01T00:28:19.000Z</time>
      </trkpt>
      <trkpt lat="42.771603" lon="-7.946459">
        <ele>597.4</ele>
        <time>1970-01-01T00:28:20.000Z</time>
      </trkpt>
      <trkpt lat="42.771618" lon="-7.946486">
        <ele>597.4</ele>
        <time>1970-01-01T00:28:21.000Z</time>
      </trkpt>
      <trkpt lat="42.771634" lon="-7.946509">
        <ele>597.5</ele>
        <time>1970-01-01T00:28:22.000Z</time>
      </trkpt>
      <trkpt lat="42.771653" lon="-7.946533">
        <ele>597.5</ele>
        <time>1970-01-01T00:28:23.000Z</time>
      </trkpt>
      <trkpt lat="42.77167" lon="-7.946555">
        <ele>597.6</ele>
        <time>1970-01-01T00:28:24.000Z</time>
      </trkpt>
      <trkpt lat="42.771687" lon="-7.946575">
        <ele>597.6</ele>
        <time>1970-01-01T00:28:25.000Z</time>
      </trkpt>
      <trkpt lat="42.771705" lon="-7.9466">
        <ele>597.6</ele>
        <time>1970-01-01T00:28:26.000Z</time>
      </trkpt>
      <trkpt lat="42.771724" lon="-7.946626">
        <ele>597.6</ele>
        <time>1970-01-01T00:28:27.000Z</time>
      </trkpt>
      <trkpt lat="42.771741" lon="-7.946656">
        <ele>597.7</ele>
        <time>1970-01-01T00:28:28.000Z</time>
      </trkpt>
      <trkpt lat="42.771758" lon="-7.946684">
        <ele>597.8</ele>
        <time>1970-01-01T00:28:29.000Z</time>
      </trkpt>
      <trkpt lat="42.771777" lon="-7.94671">
        <ele>597.8</ele>
        <time>1970-01-01T00:28:30.000Z</time>
      </trkpt>
      <trkpt lat="42.771798" lon="-7.946733">
        <ele>597.8</ele>
        <time>1970-01-01T00:28:31.000Z</time>
      </trkpt>
      <trkpt lat="42.771817" lon="-7.946758">
        <ele>597.8</ele>
        <time>1970-01-01T00:28:32.000Z</time>
      </trkpt>
      <trkpt lat="42.771837" lon="-7.94679">
        <ele>597.9</ele>
        <time>1970-01-01T00:28:33.000Z</time>
      </trkpt>
      <trkpt lat="42.771856" lon="-7.946821">
        <ele>598</ele>
        <time>1970-01-01T00:28:34.000Z</time>
      </trkpt>
      <trkpt lat="42.771876" lon="-7.946853">
        <ele>598.1</ele>
        <time>1970-01-01T00:28:35.000Z</time>
      </trkpt>
      <trkpt lat="42.771895" lon="-7.946887">
        <ele>598.1</ele>
        <time>1970-01-01T00:28:36.000Z</time>
      </trkpt>
      <trkpt lat="42.771912" lon="-7.946918">
        <ele>598.3</ele>
        <time>1970-01-01T00:28:37.000Z</time>
      </trkpt>
      <trkpt lat="42.771929" lon="-7.946948">
        <ele>598.4</ele>
        <time>1970-01-01T00:28:38.000Z</time>
      </trkpt>
      <trkpt lat="42.771947" lon="-7.946974">
        <ele>598.5</ele>
        <time>1970-01-01T00:28:39.000Z</time>
      </trkpt>
      <trkpt lat="42.771966" lon="-7.947002">
        <ele>598.6</ele>
        <time>1970-01-01T00:28:40.000Z</time>
      </trkpt>
      <trkpt lat="42.771985" lon="-7.947031">
        <ele>598.8</ele>
        <time>1970-01-01T00:28:41.000Z</time>
      </trkpt>
      <trkpt lat="42.772003" lon="-7.947064">
        <ele>599</ele>
        <time>1970-01-01T00:28:42.000Z</time>
      </trkpt>
      <trkpt lat="42.772021" lon="-7.947098">
        <ele>599</ele>
        <time>1970-01-01T00:28:43.000Z</time>
      </trkpt>
      <trkpt lat="42.772038" lon="-7.947133">
        <ele>599.2</ele>
        <time>1970-01-01T00:28:44.000Z</time>
      </trkpt>
      <trkpt lat="42.772055" lon="-7.947165">
        <ele>599.4</ele>
        <time>1970-01-01T00:28:45.000Z</time>
      </trkpt>
      <trkpt lat="42.772073" lon="-7.947197">
        <ele>599.6</ele>
        <time>1970-01-01T00:28:46.000Z</time>
      </trkpt>
      <trkpt lat="42.77209" lon="-7.947225">
        <ele>599.6</ele>
        <time>1970-01-01T00:28:47.000Z</time>
      </trkpt>
      <trkpt lat="42.772107" lon="-7.947256">
        <ele>599.8</ele>
        <time>1970-01-01T00:28:48.000Z</time>
      </trkpt>
      <trkpt lat="42.772124" lon="-7.947286">
        <ele>600</ele>
        <time>1970-01-01T00:28:49.000Z</time>
      </trkpt>
      <trkpt lat="42.772141" lon="-7.947316">
        <ele>600.1</ele>
        <time>1970-01-01T00:28:50.000Z</time>
      </trkpt>
      <trkpt lat="42.772161" lon="-7.947343">
        <ele>600.3</ele>
        <time>1970-01-01T00:28:51.000Z</time>
      </trkpt>
      <trkpt lat="42.772183" lon="-7.947369">
        <ele>600.5</ele>
        <time>1970-01-01T00:28:52.000Z</time>
      </trkpt>
      <trkpt lat="42.772202" lon="-7.947402">
        <ele>600.5</ele>
        <time>1970-01-01T00:28:53.000Z</time>
      </trkpt>
      <trkpt lat="42.772221" lon="-7.947433">
        <ele>600.7</ele>
        <time>1970-01-01T00:28:54.000Z</time>
      </trkpt>
      <trkpt lat="42.772241" lon="-7.947464">
        <ele>600.9</ele>
        <time>1970-01-01T00:28:55.000Z</time>
      </trkpt>
      <trkpt lat="42.772261" lon="-7.947493">
        <ele>601.1</ele>
        <time>1970-01-01T00:28:56.000Z</time>
      </trkpt>
      <trkpt lat="42.772279" lon="-7.94752">
        <ele>601.1</ele>
        <time>1970-01-01T00:28:57.000Z</time>
      </trkpt>
      <trkpt lat="42.772296" lon="-7.947548">
        <ele>601.3</ele>
        <time>1970-01-01T00:28:58.000Z</time>
      </trkpt>
      <trkpt lat="42.77231" lon="-7.947577">
        <ele>601.3</ele>
        <time>1970-01-01T00:28:59.000Z</time>
      </trkpt>
      <trkpt lat="42.772324" lon="-7.947606">
        <ele>601.5</ele>
        <time>1970-01-01T00:29:00.000Z</time>
      </trkpt>
      <trkpt lat="42.772335" lon="-7.947629">
        <ele>601.6</ele>
        <time>1970-01-01T00:29:01.000Z</time>
      </trkpt>
      <trkpt lat="42.772345" lon="-7.947655">
        <ele>601.6</ele>
        <time>1970-01-01T00:29:02.000Z</time>
      </trkpt>
      <trkpt lat="42.772355" lon="-7.947676">
        <ele>601.8</ele>
        <time>1970-01-01T00:29:03.000Z</time>
      </trkpt>
      <trkpt lat="42.772364" lon="-7.947703">
        <ele>601.8</ele>
        <time>1970-01-01T00:29:04.000Z</time>
      </trkpt>
      <trkpt lat="42.772374" lon="-7.947728">
        <ele>601.9</ele>
        <time>1970-01-01T00:29:05.000Z</time>
      </trkpt>
      <trkpt lat="42.772386" lon="-7.947757">
        <ele>602.1</ele>
        <time>1970-01-01T00:29:06.000Z</time>
      </trkpt>
      <trkpt lat="42.772392" lon="-7.94779">
        <ele>602.1</ele>
        <time>1970-01-01T00:29:07.000Z</time>
      </trkpt>
      <trkpt lat="42.772399" lon="-7.947826">
        <ele>602.1</ele>
        <time>1970-01-01T00:29:08.000Z</time>
      </trkpt>
      <trkpt lat="42.772404" lon="-7.94787">
        <ele>602.2</ele>
        <time>1970-01-01T00:29:09.000Z</time>
      </trkpt>
      <trkpt lat="42.772413" lon="-7.947924">
        <ele>602.4</ele>
        <time>1970-01-01T00:29:10.000Z</time>
      </trkpt>
      <trkpt lat="42.77242" lon="-7.947964">
        <ele>602.4</ele>
        <time>1970-01-01T00:29:11.000Z</time>
      </trkpt>
      <trkpt lat="42.772428" lon="-7.948004">
        <ele>602.4</ele>
        <time>1970-01-01T00:29:12.000Z</time>
      </trkpt>
      <trkpt lat="42.772437" lon="-7.948044">
        <ele>602.5</ele>
        <time>1970-01-01T00:29:13.000Z</time>
      </trkpt>
      <trkpt lat="42.772445" lon="-7.948081">
        <ele>602.6</ele>
        <time>1970-01-01T00:29:14.000Z</time>
      </trkpt>
      <trkpt lat="42.772452" lon="-7.948121">
        <ele>602.6</ele>
        <time>1970-01-01T00:29:15.000Z</time>
      </trkpt>
      <trkpt lat="42.772459" lon="-7.948162">
        <ele>602.7</ele>
        <time>1970-01-01T00:29:16.000Z</time>
      </trkpt>
      <trkpt lat="42.772467" lon="-7.948204">
        <ele>602.7</ele>
        <time>1970-01-01T00:29:17.000Z</time>
      </trkpt>
      <trkpt lat="42.772475" lon="-7.948244">
        <ele>602.8</ele>
        <time>1970-01-01T00:29:18.000Z</time>
      </trkpt>
      <trkpt lat="42.772484" lon="-7.948282">
        <ele>602.8</ele>
        <time>1970-01-01T00:29:19.000Z</time>
      </trkpt>
      <trkpt lat="42.772499" lon="-7.948311">
        <ele>602.9</ele>
        <time>1970-01-01T00:29:20.000Z</time>
      </trkpt>
      <trkpt lat="42.772507" lon="-7.948344">
        <ele>602.9</ele>
        <time>1970-01-01T00:29:21.000Z</time>
      </trkpt>
      <trkpt lat="42.772509" lon="-7.94837">
        <ele>603</ele>
        <time>1970-01-01T00:29:22.000Z</time>
      </trkpt>
      <trkpt lat="42.772505" lon="-7.948398">
        <ele>603</ele>
        <time>1970-01-01T00:29:23.000Z</time>
      </trkpt>
      <trkpt lat="42.772507" lon="-7.948426">
        <ele>603</ele>
        <time>1970-01-01T00:29:24.000Z</time>
      </trkpt>
      <trkpt lat="42.772513" lon="-7.948457">
        <ele>603</ele>
        <time>1970-01-01T00:29:25.000Z</time>
      </trkpt>
      <trkpt lat="42.772518" lon="-7.948492">
        <ele>603.1</ele>
        <time>1970-01-01T00:29:26.000Z</time>
      </trkpt>
      <trkpt lat="42.772523" lon="-7.948526">
        <ele>603.2</ele>
        <time>1970-01-01T00:29:27.000Z</time>
      </trkpt>
      <trkpt lat="42.77253" lon="-7.948554">
        <ele>603.2</ele>
        <time>1970-01-01T00:29:28.000Z</time>
      </trkpt>
      <trkpt lat="42.772539" lon="-7.948586">
        <ele>603.3</ele>
        <time>1970-01-01T00:29:29.000Z</time>
      </trkpt>
      <trkpt lat="42.772549" lon="-7.948619">
        <ele>603.4</ele>
        <time>1970-01-01T00:29:30.000Z</time>
      </trkpt>
      <trkpt lat="42.772562" lon="-7.948654">
        <ele>603.5</ele>
        <time>1970-01-01T00:29:31.000Z</time>
      </trkpt>
      <trkpt lat="42.772573" lon="-7.948693">
        <ele>603.6</ele>
        <time>1970-01-01T00:29:32.000Z</time>
      </trkpt>
      <trkpt lat="42.772585" lon="-7.948723">
        <ele>603.7</ele>
        <time>1970-01-01T00:29:33.000Z</time>
      </trkpt>
      <trkpt lat="42.772599" lon="-7.948752">
        <ele>603.9</ele>
        <time>1970-01-01T00:29:34.000Z</time>
      </trkpt>
      <trkpt lat="42.772619" lon="-7.948781">
        <ele>604</ele>
        <time>1970-01-01T00:29:35.000Z</time>
      </trkpt>
      <trkpt lat="42.772639" lon="-7.94881">
        <ele>604.1</ele>
        <time>1970-01-01T00:29:36.000Z</time>
      </trkpt>
      <trkpt lat="42.772659" lon="-7.948836">
        <ele>604.2</ele>
        <time>1970-01-01T00:29:37.000Z</time>
      </trkpt>
      <trkpt lat="42.772678" lon="-7.948864">
        <ele>604.3</ele>
        <time>1970-01-01T00:29:38.000Z</time>
      </trkpt>
      <trkpt lat="42.772696" lon="-7.948891">
        <ele>604.4</ele>
        <time>1970-01-01T00:29:39.000Z</time>
      </trkpt>
      <trkpt lat="42.772714" lon="-7.948909">
        <ele>604.5</ele>
        <time>1970-01-01T00:29:40.000Z</time>
      </trkpt>
      <trkpt lat="42.772734" lon="-7.948926">
        <ele>604.6</ele>
        <time>1970-01-01T00:29:41.000Z</time>
      </trkpt>
      <trkpt lat="42.772753" lon="-7.948952">
        <ele>604.7</ele>
        <time>1970-01-01T00:29:42.000Z</time>
      </trkpt>
      <trkpt lat="42.772776" lon="-7.948975">
        <ele>604.8</ele>
        <time>1970-01-01T00:29:43.000Z</time>
      </trkpt>
      <trkpt lat="42.77279" lon="-7.949003">
        <ele>604.9</ele>
        <time>1970-01-01T00:29:44.000Z</time>
      </trkpt>
      <trkpt lat="42.772808" lon="-7.949033">
        <ele>604.9</ele>
        <time>1970-01-01T00:29:45.000Z</time>
      </trkpt>
      <trkpt lat="42.772827" lon="-7.949054">
        <ele>605.1</ele>
        <time>1970-01-01T00:29:46.000Z</time>
      </trkpt>
      <trkpt lat="42.772843" lon="-7.949081">
        <ele>605.2</ele>
        <time>1970-01-01T00:29:47.000Z</time>
      </trkpt>
      <trkpt lat="42.772861" lon="-7.949097">
        <ele>605.2</ele>
        <time>1970-01-01T00:29:48.000Z</time>
      </trkpt>
      <trkpt lat="42.77288" lon="-7.949121">
        <ele>605.2</ele>
        <time>1970-01-01T00:29:49.000Z</time>
      </trkpt>
      <trkpt lat="42.772899" lon="-7.949151">
        <ele>605.4</ele>
        <time>1970-01-01T00:29:50.000Z</time>
      </trkpt>
      <trkpt lat="42.772922" lon="-7.949178">
        <ele>605.5</ele>
        <time>1970-01-01T00:29:51.000Z</time>
      </trkpt>
      <trkpt lat="42.772944" lon="-7.949207">
        <ele>605.6</ele>
        <time>1970-01-01T00:29:52.000Z</time>
      </trkpt>
      <trkpt lat="42.772962" lon="-7.949237">
        <ele>605.6</ele>
        <time>1970-01-01T00:29:53.000Z</time>
      </trkpt>
      <trkpt lat="42.772979" lon="-7.949282">
        <ele>605.7</ele>
        <time>1970-01-01T00:29:54.000Z</time>
      </trkpt>
      <trkpt lat="42.772998" lon="-7.949313">
        <ele>605.8</ele>
        <time>1970-01-01T00:29:55.000Z</time>
      </trkpt>
      <trkpt lat="42.773014" lon="-7.949341">
        <ele>605.9</ele>
        <time>1970-01-01T00:29:56.000Z</time>
      </trkpt>
      <trkpt lat="42.77303" lon="-7.949374">
        <ele>605.9</ele>
        <time>1970-01-01T00:29:57.000Z</time>
      </trkpt>
      <trkpt lat="42.773047" lon="-7.949407">
        <ele>606</ele>
        <time>1970-01-01T00:29:58.000Z</time>
      </trkpt>
      <trkpt lat="42.773064" lon="-7.949449">
        <ele>606</ele>
        <time>1970-01-01T00:29:59.000Z</time>
      </trkpt>
      <trkpt lat="42.773085" lon="-7.949486">
        <ele>606.1</ele>
        <time>1970-01-01T00:30:00.000Z</time>
      </trkpt>
      <trkpt lat="42.773106" lon="-7.949521">
        <ele>606.2</ele>
        <time>1970-01-01T00:30:01.000Z</time>
      </trkpt>
      <trkpt lat="42.773129" lon="-7.949547">
        <ele>606.2</ele>
        <time>1970-01-01T00:30:02.000Z</time>
      </trkpt>
      <trkpt lat="42.773152" lon="-7.949571">
        <ele>606.2</ele>
        <time>1970-01-01T00:30:03.000Z</time>
      </trkpt>
      <trkpt lat="42.773175" lon="-7.94959">
        <ele>606.3</ele>
        <time>1970-01-01T00:30:04.000Z</time>
      </trkpt>
      <trkpt lat="42.773199" lon="-7.949609">
        <ele>606.4</ele>
        <time>1970-01-01T00:30:05.000Z</time>
      </trkpt>
      <trkpt lat="42.773226" lon="-7.949631">
        <ele>606.5</ele>
        <time>1970-01-01T00:30:06.000Z</time>
      </trkpt>
      <trkpt lat="42.773251" lon="-7.949666">
        <ele>606.7</ele>
        <time>1970-01-01T00:30:07.000Z</time>
      </trkpt>
      <trkpt lat="42.773279" lon="-7.949683">
        <ele>606.8</ele>
        <time>1970-01-01T00:30:08.000Z</time>
      </trkpt>
      <trkpt lat="42.773301" lon="-7.949707">
        <ele>606.9</ele>
        <time>1970-01-01T00:30:09.000Z</time>
      </trkpt>
      <trkpt lat="42.77332" lon="-7.949722">
        <ele>606.9</ele>
        <time>1970-01-01T00:30:10.000Z</time>
      </trkpt>
      <trkpt lat="42.773344" lon="-7.94973">
        <ele>607.1</ele>
        <time>1970-01-01T00:30:11.000Z</time>
      </trkpt>
      <trkpt lat="42.773371" lon="-7.949743">
        <ele>607.3</ele>
        <time>1970-01-01T00:30:12.000Z</time>
      </trkpt>
      <trkpt lat="42.773398" lon="-7.949747">
        <ele>607.5</ele>
        <time>1970-01-01T00:30:13.000Z</time>
      </trkpt>
      <trkpt lat="42.773427" lon="-7.949755">
        <ele>607.6</ele>
        <time>1970-01-01T00:30:14.000Z</time>
      </trkpt>
      <trkpt lat="42.773457" lon="-7.949762">
        <ele>607.7</ele>
        <time>1970-01-01T00:30:15.000Z</time>
      </trkpt>
      <trkpt lat="42.773487" lon="-7.94977">
        <ele>607.9</ele>
        <time>1970-01-01T00:30:16.000Z</time>
      </trkpt>
      <trkpt lat="42.773516" lon="-7.949786">
        <ele>608.1</ele>
        <time>1970-01-01T00:30:17.000Z</time>
      </trkpt>
      <trkpt lat="42.773544" lon="-7.949803">
        <ele>608.3</ele>
        <time>1970-01-01T00:30:18.000Z</time>
      </trkpt>
      <trkpt lat="42.773573" lon="-7.949819">
        <ele>608.5</ele>
        <time>1970-01-01T00:30:19.000Z</time>
      </trkpt>
      <trkpt lat="42.773603" lon="-7.949831">
        <ele>608.7</ele>
        <time>1970-01-01T00:30:20.000Z</time>
      </trkpt>
      <trkpt lat="42.773632" lon="-7.949837">
        <ele>608.8</ele>
        <time>1970-01-01T00:30:21.000Z</time>
      </trkpt>
      <trkpt lat="42.773657" lon="-7.949845">
        <ele>609</ele>
        <time>1970-01-01T00:30:22.000Z</time>
      </trkpt>
      <trkpt lat="42.77368" lon="-7.949854">
        <ele>609.2</ele>
        <time>1970-01-01T00:30:23.000Z</time>
      </trkpt>
      <trkpt lat="42.773701" lon="-7.949863">
        <ele>609.4</ele>
        <time>1970-01-01T00:30:24.000Z</time>
      </trkpt>
      <trkpt lat="42.773724" lon="-7.949873">
        <ele>609.6</ele>
        <time>1970-01-01T00:30:25.000Z</time>
      </trkpt>
      <trkpt lat="42.773743" lon="-7.949894">
        <ele>609.8</ele>
        <time>1970-01-01T00:30:26.000Z</time>
      </trkpt>
      <trkpt lat="42.773756" lon="-7.949918">
        <ele>609.9</ele>
        <time>1970-01-01T00:30:27.000Z</time>
      </trkpt>
      <trkpt lat="42.773764" lon="-7.94995">
        <ele>610.1</ele>
        <time>1970-01-01T00:30:28.000Z</time>
      </trkpt>
      <trkpt lat="42.773772" lon="-7.949985">
        <ele>610.2</ele>
        <time>1970-01-01T00:30:29.000Z</time>
      </trkpt>
      <trkpt lat="42.773784" lon="-7.950018">
        <ele>610.3</ele>
        <time>1970-01-01T00:30:30.000Z</time>
      </trkpt>
      <trkpt lat="42.773796" lon="-7.950053">
        <ele>610.4</ele>
        <time>1970-01-01T00:30:31.000Z</time>
      </trkpt>
      <trkpt lat="42.773806" lon="-7.950087">
        <ele>610.5</ele>
        <time>1970-01-01T00:30:32.000Z</time>
      </trkpt>
      <trkpt lat="42.773815" lon="-7.950113">
        <ele>610.6</ele>
        <time>1970-01-01T00:30:33.000Z</time>
      </trkpt>
      <trkpt lat="42.773828" lon="-7.950138">
        <ele>610.7</ele>
        <time>1970-01-01T00:30:34.000Z</time>
      </trkpt>
      <trkpt lat="42.773845" lon="-7.950162">
        <ele>610.8</ele>
        <time>1970-01-01T00:30:35.000Z</time>
      </trkpt>
      <trkpt lat="42.773866" lon="-7.950181">
        <ele>610.9</ele>
        <time>1970-01-01T00:30:36.000Z</time>
      </trkpt>
      <trkpt lat="42.773888" lon="-7.950207">
        <ele>611</ele>
        <time>1970-01-01T00:30:37.000Z</time>
      </trkpt>
      <trkpt lat="42.773912" lon="-7.950241">
        <ele>611.1</ele>
        <time>1970-01-01T00:30:38.000Z</time>
      </trkpt>
      <trkpt lat="42.773935" lon="-7.950273">
        <ele>611.2</ele>
        <time>1970-01-01T00:30:39.000Z</time>
      </trkpt>
      <trkpt lat="42.773958" lon="-7.9503">
        <ele>611.3</ele>
        <time>1970-01-01T00:30:40.000Z</time>
      </trkpt>
      <trkpt lat="42.773981" lon="-7.950328">
        <ele>611.4</ele>
        <time>1970-01-01T00:30:41.000Z</time>
      </trkpt>
      <trkpt lat="42.774002" lon="-7.950349">
        <ele>611.5</ele>
        <time>1970-01-01T00:30:42.000Z</time>
      </trkpt>
      <trkpt lat="42.77402" lon="-7.950372">
        <ele>611.6</ele>
        <time>1970-01-01T00:30:43.000Z</time>
      </trkpt>
      <trkpt lat="42.77404" lon="-7.950407">
        <ele>611.8</ele>
        <time>1970-01-01T00:30:44.000Z</time>
      </trkpt>
      <trkpt lat="42.774057" lon="-7.950445">
        <ele>611.9</ele>
        <time>1970-01-01T00:30:45.000Z</time>
      </trkpt>
      <trkpt lat="42.774069" lon="-7.950486">
        <ele>612</ele>
        <time>1970-01-01T00:30:46.000Z</time>
      </trkpt>
      <trkpt lat="42.77407" lon="-7.950523">
        <ele>612.1</ele>
        <time>1970-01-01T00:30:47.000Z</time>
      </trkpt>
      <trkpt lat="42.774073" lon="-7.950554">
        <ele>612.2</ele>
        <time>1970-01-01T00:30:48.000Z</time>
      </trkpt>
      <trkpt lat="42.774075" lon="-7.950583">
        <ele>612.3</ele>
        <time>1970-01-01T00:30:49.000Z</time>
      </trkpt>
      <trkpt lat="42.774081" lon="-7.950617">
        <ele>612.5</ele>
        <time>1970-01-01T00:30:50.000Z</time>
      </trkpt>
      <trkpt lat="42.774086" lon="-7.950648">
        <ele>612.6</ele>
        <time>1970-01-01T00:30:51.000Z</time>
      </trkpt>
      <trkpt lat="42.774092" lon="-7.95068">
        <ele>612.7</ele>
        <time>1970-01-01T00:30:52.000Z</time>
      </trkpt>
      <trkpt lat="42.774098" lon="-7.950717">
        <ele>612.9</ele>
        <time>1970-01-01T00:30:53.000Z</time>
      </trkpt>
      <trkpt lat="42.774101" lon="-7.950747">
        <ele>613</ele>
        <time>1970-01-01T00:30:54.000Z</time>
      </trkpt>
      <trkpt lat="42.7741" lon="-7.950774">
        <ele>613.1</ele>
        <time>1970-01-01T00:30:55.000Z</time>
      </trkpt>
      <trkpt lat="42.774093" lon="-7.950794">
        <ele>613.2</ele>
        <time>1970-01-01T00:30:56.000Z</time>
      </trkpt>
      <trkpt lat="42.774084" lon="-7.950814">
        <ele>613.2</ele>
        <time>1970-01-01T00:30:57.000Z</time>
      </trkpt>
      <trkpt lat="42.774074" lon="-7.950829">
        <ele>613.4</ele>
        <time>1970-01-01T00:30:58.000Z</time>
      </trkpt>
      <trkpt lat="42.774063" lon="-7.95085">
        <ele>613.4</ele>
        <time>1970-01-01T00:30:59.000Z</time>
      </trkpt>
      <trkpt lat="42.774046" lon="-7.950882">
        <ele>613.4</ele>
        <time>1970-01-01T00:31:00.000Z</time>
      </trkpt>
      <trkpt lat="42.774026" lon="-7.950913">
        <ele>613.4</ele>
        <time>1970-01-01T00:31:01.000Z</time>
      </trkpt>
      <trkpt lat="42.774001" lon="-7.950953">
        <ele>613.4</ele>
        <time>1970-01-01T00:31:02.000Z</time>
      </trkpt>
      <trkpt lat="42.773971" lon="-7.950994">
        <ele>613.4</ele>
        <time>1970-01-01T00:31:03.000Z</time>
      </trkpt>
      <trkpt lat="42.773945" lon="-7.95103">
        <ele>613.3</ele>
        <time>1970-01-01T00:31:04.000Z</time>
      </trkpt>
      <trkpt lat="42.773919" lon="-7.951072">
        <ele>613.2</ele>
        <time>1970-01-01T00:31:05.000Z</time>
      </trkpt>
      <trkpt lat="42.773894" lon="-7.951106">
        <ele>613.1</ele>
        <time>1970-01-01T00:31:06.000Z</time>
      </trkpt>
      <trkpt lat="42.773869" lon="-7.951156">
        <ele>613</ele>
        <time>1970-01-01T00:31:07.000Z</time>
      </trkpt>
      <trkpt lat="42.773845" lon="-7.95121">
        <ele>613</ele>
        <time>1970-01-01T00:31:08.000Z</time>
      </trkpt>
      <trkpt lat="42.773824" lon="-7.951259">
        <ele>613</ele>
        <time>1970-01-01T00:31:09.000Z</time>
      </trkpt>
      <trkpt lat="42.773805" lon="-7.951307">
        <ele>613</ele>
        <time>1970-01-01T00:31:10.000Z</time>
      </trkpt>
      <trkpt lat="42.773791" lon="-7.951348">
        <ele>613</ele>
        <time>1970-01-01T00:31:11.000Z</time>
      </trkpt>
      <trkpt lat="42.773777" lon="-7.951386">
        <ele>613</ele>
        <time>1970-01-01T00:31:12.000Z</time>
      </trkpt>
      <trkpt lat="42.773768" lon="-7.951421">
        <ele>613</ele>
        <time>1970-01-01T00:31:13.000Z</time>
      </trkpt>
      <trkpt lat="42.773759" lon="-7.951456">
        <ele>613</ele>
        <time>1970-01-01T00:31:14.000Z</time>
      </trkpt>
      <trkpt lat="42.773754" lon="-7.951485">
        <ele>613</ele>
        <time>1970-01-01T00:31:15.000Z</time>
      </trkpt>
      <trkpt lat="42.773746" lon="-7.951516">
        <ele>613.1</ele>
        <time>1970-01-01T00:31:16.000Z</time>
      </trkpt>
      <trkpt lat="42.773742" lon="-7.951548">
        <ele>613.2</ele>
        <time>1970-01-01T00:31:17.000Z</time>
      </trkpt>
      <trkpt lat="42.773744" lon="-7.951591">
        <ele>613.4</ele>
        <time>1970-01-01T00:31:18.000Z</time>
      </trkpt>
      <trkpt lat="42.773747" lon="-7.951613">
        <ele>613.6</ele>
        <time>1970-01-01T00:31:19.000Z</time>
      </trkpt>
      <trkpt lat="42.773744" lon="-7.951646">
        <ele>613.6</ele>
        <time>1970-01-01T00:31:20.000Z</time>
      </trkpt>
      <trkpt lat="42.773739" lon="-7.951686">
        <ele>613.8</ele>
        <time>1970-01-01T00:31:21.000Z</time>
      </trkpt>
      <trkpt lat="42.773727" lon="-7.951717">
        <ele>613.8</ele>
        <time>1970-01-01T00:31:22.000Z</time>
      </trkpt>
      <trkpt lat="42.773705" lon="-7.951749">
        <ele>614.1</ele>
        <time>1970-01-01T00:31:23.000Z</time>
      </trkpt>
      <trkpt lat="42.77368" lon="-7.951776">
        <ele>613.9</ele>
        <time>1970-01-01T00:31:24.000Z</time>
      </trkpt>
      <trkpt lat="42.77365" lon="-7.951798">
        <ele>614</ele>
        <time>1970-01-01T00:31:25.000Z</time>
      </trkpt>
      <trkpt lat="42.773619" lon="-7.951819">
        <ele>613.8</ele>
        <time>1970-01-01T00:31:26.000Z</time>
      </trkpt>
      <trkpt lat="42.77359" lon="-7.951827">
        <ele>613.7</ele>
        <time>1970-01-01T00:31:27.000Z</time>
      </trkpt>
      <trkpt lat="42.773562" lon="-7.951841">
        <ele>613.7</ele>
        <time>1970-01-01T00:31:28.000Z</time>
      </trkpt>
      <trkpt lat="42.773536" lon="-7.95185">
        <ele>613.6</ele>
        <time>1970-01-01T00:31:29.000Z</time>
      </trkpt>
      <trkpt lat="42.773518" lon="-7.951853">
        <ele>613.6</ele>
        <time>1970-01-01T00:31:30.000Z</time>
      </trkpt>
      <trkpt lat="42.773497" lon="-7.951866">
        <ele>613.5</ele>
        <time>1970-01-01T00:31:31.000Z</time>
      </trkpt>
      <trkpt lat="42.773472" lon="-7.951876">
        <ele>613.6</ele>
        <time>1970-01-01T00:31:32.000Z</time>
      </trkpt>
      <trkpt lat="42.773448" lon="-7.951889">
        <ele>613.6</ele>
        <time>1970-01-01T00:31:33.000Z</time>
      </trkpt>
      <trkpt lat="42.773426" lon="-7.951911">
        <ele>613.4</ele>
        <time>1970-01-01T00:31:34.000Z</time>
      </trkpt>
      <trkpt lat="42.773406" lon="-7.95193">
        <ele>613.5</ele>
        <time>1970-01-01T00:31:35.000Z</time>
      </trkpt>
      <trkpt lat="42.773391" lon="-7.951949">
        <ele>613.5</ele>
        <time>1970-01-01T00:31:36.000Z</time>
      </trkpt>
      <trkpt lat="42.773377" lon="-7.951974">
        <ele>613.6</ele>
        <time>1970-01-01T00:31:37.000Z</time>
      </trkpt>
      <trkpt lat="42.773362" lon="-7.952">
        <ele>613.8</ele>
        <time>1970-01-01T00:31:38.000Z</time>
      </trkpt>
      <trkpt lat="42.773344" lon="-7.952019">
        <ele>613.7</ele>
        <time>1970-01-01T00:31:39.000Z</time>
      </trkpt>
      <trkpt lat="42.773322" lon="-7.952043">
        <ele>613.9</ele>
        <time>1970-01-01T00:31:40.000Z</time>
      </trkpt>
      <trkpt lat="42.773302" lon="-7.952056">
        <ele>613.7</ele>
        <time>1970-01-01T00:31:41.000Z</time>
      </trkpt>
      <trkpt lat="42.77328" lon="-7.952067">
        <ele>613.6</ele>
        <time>1970-01-01T00:31:42.000Z</time>
      </trkpt>
      <trkpt lat="42.773254" lon="-7.952075">
        <ele>613.5</ele>
        <time>1970-01-01T00:31:43.000Z</time>
      </trkpt>
      <trkpt lat="42.773235" lon="-7.952081">
        <ele>613.5</ele>
        <time>1970-01-01T00:31:44.000Z</time>
      </trkpt>
      <trkpt lat="42.773218" lon="-7.952078">
        <ele>613.3</ele>
        <time>1970-01-01T00:31:45.000Z</time>
      </trkpt>
      <trkpt lat="42.773192" lon="-7.952084">
        <ele>613.2</ele>
        <time>1970-01-01T00:31:46.000Z</time>
      </trkpt>
      <trkpt lat="42.773168" lon="-7.952088">
        <ele>613.5</ele>
        <time>1970-01-01T00:31:47.000Z</time>
      </trkpt>
      <trkpt lat="42.773136" lon="-7.952105">
        <ele>613.3</ele>
        <time>1970-01-01T00:31:48.000Z</time>
      </trkpt>
      <trkpt lat="42.773106" lon="-7.952123">
        <ele>613.2</ele>
        <time>1970-01-01T00:31:49.000Z</time>
      </trkpt>
      <trkpt lat="42.773075" lon="-7.95213">
        <ele>613.3</ele>
        <time>1970-01-01T00:31:50.000Z</time>
      </trkpt>
      <trkpt lat="42.773043" lon="-7.95212">
        <ele>612.8</ele>
        <time>1970-01-01T00:31:51.000Z</time>
      </trkpt>
      <trkpt lat="42.773016" lon="-7.952119">
        <ele>612.7</ele>
        <time>1970-01-01T00:31:52.000Z</time>
      </trkpt>
      <trkpt lat="42.772986" lon="-7.952111">
        <ele>612.5</ele>
        <time>1970-01-01T00:31:53.000Z</time>
      </trkpt>
      <trkpt lat="42.772957" lon="-7.952091">
        <ele>612.3</ele>
        <time>1970-01-01T00:31:54.000Z</time>
      </trkpt>
      <trkpt lat="42.772926" lon="-7.952085">
        <ele>612.1</ele>
        <time>1970-01-01T00:31:55.000Z</time>
      </trkpt>
      <trkpt lat="42.772893" lon="-7.952076">
        <ele>611.7</ele>
        <time>1970-01-01T00:31:56.000Z</time>
      </trkpt>
      <trkpt lat="42.772848" lon="-7.952063">
        <ele>611.3</ele>
        <time>1970-01-01T00:31:57.000Z</time>
      </trkpt>
      <trkpt lat="42.772812" lon="-7.952051">
        <ele>611.1</ele>
        <time>1970-01-01T00:31:58.000Z</time>
      </trkpt>
      <trkpt lat="42.772783" lon="-7.952057">
        <ele>610.8</ele>
        <time>1970-01-01T00:31:59.000Z</time>
      </trkpt>
      <trkpt lat="42.772753" lon="-7.952068">
        <ele>610.6</ele>
        <time>1970-01-01T00:32:00.000Z</time>
      </trkpt>
      <trkpt lat="42.77272" lon="-7.952073">
        <ele>610.3</ele>
        <time>1970-01-01T00:32:01.000Z</time>
      </trkpt>
      <trkpt lat="42.772687" lon="-7.95208">
        <ele>610.1</ele>
        <time>1970-01-01T00:32:02.000Z</time>
      </trkpt>
      <trkpt lat="42.77265" lon="-7.952105">
        <ele>610</ele>
        <time>1970-01-01T00:32:03.000Z</time>
      </trkpt>
      <trkpt lat="42.772624" lon="-7.952132">
        <ele>610</ele>
        <time>1970-01-01T00:32:04.000Z</time>
      </trkpt>
      <trkpt lat="42.772602" lon="-7.952165">
        <ele>610</ele>
        <time>1970-01-01T00:32:05.000Z</time>
      </trkpt>
      <trkpt lat="42.772586" lon="-7.952204">
        <ele>609.9</ele>
        <time>1970-01-01T00:32:06.000Z</time>
      </trkpt>
      <trkpt lat="42.772567" lon="-7.952251">
        <ele>610.1</ele>
        <time>1970-01-01T00:32:07.000Z</time>
      </trkpt>
      <trkpt lat="42.772545" lon="-7.952302">
        <ele>610.1</ele>
        <time>1970-01-01T00:32:08.000Z</time>
      </trkpt>
      <trkpt lat="42.772514" lon="-7.952352">
        <ele>609.8</ele>
        <time>1970-01-01T00:32:09.000Z</time>
      </trkpt>
      <trkpt lat="42.772475" lon="-7.952395">
        <ele>609.6</ele>
        <time>1970-01-01T00:32:10.000Z</time>
      </trkpt>
      <trkpt lat="42.772423" lon="-7.95243">
        <ele>609</ele>
        <time>1970-01-01T00:32:11.000Z</time>
      </trkpt>
      <trkpt lat="42.772375" lon="-7.952468">
        <ele>608.5</ele>
        <time>1970-01-01T00:32:12.000Z</time>
      </trkpt>
      <trkpt lat="42.772333" lon="-7.952511">
        <ele>608.3</ele>
        <time>1970-01-01T00:32:13.000Z</time>
      </trkpt>
      <trkpt lat="42.772301" lon="-7.95254">
        <ele>608.2</ele>
        <time>1970-01-01T00:32:14.000Z</time>
      </trkpt>
      <trkpt lat="42.77226" lon="-7.952562">
        <ele>608.1</ele>
        <time>1970-01-01T00:32:15.000Z</time>
      </trkpt>
      <trkpt lat="42.772213" lon="-7.952587">
        <ele>607.8</ele>
        <time>1970-01-01T00:32:16.000Z</time>
      </trkpt>
      <trkpt lat="42.772163" lon="-7.952603">
        <ele>607.7</ele>
        <time>1970-01-01T00:32:17.000Z</time>
      </trkpt>
      <trkpt lat="42.77212" lon="-7.952615">
        <ele>607.5</ele>
        <time>1970-01-01T00:32:18.000Z</time>
      </trkpt>
      <trkpt lat="42.772091" lon="-7.952639">
        <ele>607.4</ele>
        <time>1970-01-01T00:32:19.000Z</time>
      </trkpt>
      <trkpt lat="42.772068" lon="-7.952658">
        <ele>607.6</ele>
        <time>1970-01-01T00:32:20.000Z</time>
      </trkpt>
      <trkpt lat="42.772034" lon="-7.952664">
        <ele>607.5</ele>
        <time>1970-01-01T00:32:21.000Z</time>
      </trkpt>
      <trkpt lat="42.771986" lon="-7.952667">
        <ele>607.4</ele>
        <time>1970-01-01T00:32:22.000Z</time>
      </trkpt>
      <trkpt lat="42.77194" lon="-7.952671">
        <ele>607.3</ele>
        <time>1970-01-01T00:32:23.000Z</time>
      </trkpt>
      <trkpt lat="42.771908" lon="-7.95269">
        <ele>607.4</ele>
        <time>1970-01-01T00:32:24.000Z</time>
      </trkpt>
      <trkpt lat="42.771885" lon="-7.952705">
        <ele>607.4</ele>
        <time>1970-01-01T00:32:25.000Z</time>
      </trkpt>
      <trkpt lat="42.771864" lon="-7.952723">
        <ele>607.3</ele>
        <time>1970-01-01T00:32:26.000Z</time>
      </trkpt>
      <trkpt lat="42.771842" lon="-7.95274">
        <ele>607.5</ele>
        <time>1970-01-01T00:32:27.000Z</time>
      </trkpt>
      <trkpt lat="42.771819" lon="-7.952755">
        <ele>607.4</ele>
        <time>1970-01-01T00:32:28.000Z</time>
      </trkpt>
      <trkpt lat="42.771802" lon="-7.952766">
        <ele>607.4</ele>
        <time>1970-01-01T00:32:29.000Z</time>
      </trkpt>
      <trkpt lat="42.771775" lon="-7.95278">
        <ele>607.6</ele>
        <time>1970-01-01T00:32:30.000Z</time>
      </trkpt>
      <trkpt lat="42.771741" lon="-7.952797">
        <ele>607.5</ele>
        <time>1970-01-01T00:32:31.000Z</time>
      </trkpt>
      <trkpt lat="42.771714" lon="-7.952795">
        <ele>607.5</ele>
        <time>1970-01-01T00:32:32.000Z</time>
      </trkpt>
      <trkpt lat="42.771684" lon="-7.952799">
        <ele>607.5</ele>
        <time>1970-01-01T00:32:33.000Z</time>
      </trkpt>
      <trkpt lat="42.771651" lon="-7.952808">
        <ele>607.5</ele>
        <time>1970-01-01T00:32:34.000Z</time>
      </trkpt>
      <trkpt lat="42.771624" lon="-7.952811">
        <ele>607.5</ele>
        <time>1970-01-01T00:32:35.000Z</time>
      </trkpt>
      <trkpt lat="42.771606" lon="-7.952818">
        <ele>607.7</ele>
        <time>1970-01-01T00:32:36.000Z</time>
      </trkpt>
      <trkpt lat="42.771591" lon="-7.952827">
        <ele>607.7</ele>
        <time>1970-01-01T00:32:37.000Z</time>
      </trkpt>
      <trkpt lat="42.771562" lon="-7.952836">
        <ele>607.7</ele>
        <time>1970-01-01T00:32:38.000Z</time>
      </trkpt>
      <trkpt lat="42.771522" lon="-7.952847">
        <ele>607.8</ele>
        <time>1970-01-01T00:32:39.000Z</time>
      </trkpt>
      <trkpt lat="42.771477" lon="-7.95286">
        <ele>608.1</ele>
        <time>1970-01-01T00:32:40.000Z</time>
      </trkpt>
      <trkpt lat="42.771444" lon="-7.952875">
        <ele>608.2</ele>
        <time>1970-01-01T00:32:41.000Z</time>
      </trkpt>
      <trkpt lat="42.771405" lon="-7.952892">
        <ele>608.3</ele>
        <time>1970-01-01T00:32:42.000Z</time>
      </trkpt>
      <trkpt lat="42.771371" lon="-7.95291">
        <ele>608.7</ele>
        <time>1970-01-01T00:32:43.000Z</time>
      </trkpt>
      <trkpt lat="42.771335" lon="-7.952934">
        <ele>609</ele>
        <time>1970-01-01T00:32:44.000Z</time>
      </trkpt>
      <trkpt lat="42.771305" lon="-7.952952">
        <ele>609.4</ele>
        <time>1970-01-01T00:32:45.000Z</time>
      </trkpt>
      <trkpt lat="42.771276" lon="-7.952971">
        <ele>609.4</ele>
        <time>1970-01-01T00:32:46.000Z</time>
      </trkpt>
      <trkpt lat="42.771239" lon="-7.952986">
        <ele>610</ele>
        <time>1970-01-01T00:32:47.000Z</time>
      </trkpt>
      <trkpt lat="42.771205" lon="-7.953003">
        <ele>610.2</ele>
        <time>1970-01-01T00:32:48.000Z</time>
      </trkpt>
      <trkpt lat="42.771179" lon="-7.953019">
        <ele>610.4</ele>
        <time>1970-01-01T00:32:49.000Z</time>
      </trkpt>
      <trkpt lat="42.771154" lon="-7.953043">
        <ele>610.6</ele>
        <time>1970-01-01T00:32:50.000Z</time>
      </trkpt>
      <trkpt lat="42.771129" lon="-7.953066">
        <ele>610.8</ele>
        <time>1970-01-01T00:32:51.000Z</time>
      </trkpt>
      <trkpt lat="42.7711" lon="-7.953086">
        <ele>611.1</ele>
        <time>1970-01-01T00:32:52.000Z</time>
      </trkpt>
      <trkpt lat="42.771063" lon="-7.953097">
        <ele>611.3</ele>
        <time>1970-01-01T00:32:53.000Z</time>
      </trkpt>
      <trkpt lat="42.771036" lon="-7.953096">
        <ele>611.5</ele>
        <time>1970-01-01T00:32:54.000Z</time>
      </trkpt>
      <trkpt lat="42.771013" lon="-7.953089">
        <ele>611.6</ele>
        <time>1970-01-01T00:32:55.000Z</time>
      </trkpt>
      <trkpt lat="42.770988" lon="-7.953087">
        <ele>611.8</ele>
        <time>1970-01-01T00:32:56.000Z</time>
      </trkpt>
      <trkpt lat="42.770965" lon="-7.953087">
        <ele>611.8</ele>
        <time>1970-01-01T00:32:57.000Z</time>
      </trkpt>
      <trkpt lat="42.770936" lon="-7.9531">
        <ele>611.9</ele>
        <time>1970-01-01T00:32:58.000Z</time>
      </trkpt>
      <trkpt lat="42.770907" lon="-7.953102">
        <ele>612</ele>
        <time>1970-01-01T00:32:59.000Z</time>
      </trkpt>
      <trkpt lat="42.770882" lon="-7.953122">
        <ele>612.3</ele>
        <time>1970-01-01T00:33:00.000Z</time>
      </trkpt>
      <trkpt lat="42.77087" lon="-7.953146">
        <ele>612.3</ele>
        <time>1970-01-01T00:33:01.000Z</time>
      </trkpt>
      <trkpt lat="42.770856" lon="-7.95316">
        <ele>612.5</ele>
        <time>1970-01-01T00:33:02.000Z</time>
      </trkpt>
      <trkpt lat="42.770839" lon="-7.95319">
        <ele>612.5</ele>
        <time>1970-01-01T00:33:03.000Z</time>
      </trkpt>
      <trkpt lat="42.770822" lon="-7.953223">
        <ele>612.7</ele>
        <time>1970-01-01T00:33:04.000Z</time>
      </trkpt>
      <trkpt lat="42.770805" lon="-7.953253">
        <ele>612.8</ele>
        <time>1970-01-01T00:33:05.000Z</time>
      </trkpt>
      <trkpt lat="42.770785" lon="-7.953284">
        <ele>612.8</ele>
        <time>1970-01-01T00:33:06.000Z</time>
      </trkpt>
      <trkpt lat="42.770779" lon="-7.953316">
        <ele>612.9</ele>
        <time>1970-01-01T00:33:07.000Z</time>
      </trkpt>
      <trkpt lat="42.770769" lon="-7.953346">
        <ele>613</ele>
        <time>1970-01-01T00:33:08.000Z</time>
      </trkpt>
      <trkpt lat="42.770753" lon="-7.953375">
        <ele>613.1</ele>
        <time>1970-01-01T00:33:09.000Z</time>
      </trkpt>
      <trkpt lat="42.770741" lon="-7.953407">
        <ele>613.1</ele>
        <time>1970-01-01T00:33:10.000Z</time>
      </trkpt>
      <trkpt lat="42.770728" lon="-7.953442">
        <ele>613.1</ele>
        <time>1970-01-01T00:33:11.000Z</time>
      </trkpt>
      <trkpt lat="42.770718" lon="-7.953482">
        <ele>613.1</ele>
        <time>1970-01-01T00:33:12.000Z</time>
      </trkpt>
      <trkpt lat="42.770708" lon="-7.95352">
        <ele>613.1</ele>
        <time>1970-01-01T00:33:13.000Z</time>
      </trkpt>
      <trkpt lat="42.770699" lon="-7.953545">
        <ele>613.2</ele>
        <time>1970-01-01T00:33:14.000Z</time>
      </trkpt>
      <trkpt lat="42.770703" lon="-7.953579">
        <ele>613.2</ele>
        <time>1970-01-01T00:33:15.000Z</time>
      </trkpt>
      <trkpt lat="42.770714" lon="-7.953612">
        <ele>613.1</ele>
        <time>1970-01-01T00:33:16.000Z</time>
      </trkpt>
      <trkpt lat="42.770727" lon="-7.953642">
        <ele>613.1</ele>
        <time>1970-01-01T00:33:17.000Z</time>
      </trkpt>
      <trkpt lat="42.770746" lon="-7.953665">
        <ele>613</ele>
        <time>1970-01-01T00:33:18.000Z</time>
      </trkpt>
      <trkpt lat="42.770762" lon="-7.953687">
        <ele>613</ele>
        <time>1970-01-01T00:33:19.000Z</time>
      </trkpt>
      <trkpt lat="42.770789" lon="-7.953716">
        <ele>612.9</ele>
        <time>1970-01-01T00:33:20.000Z</time>
      </trkpt>
      <trkpt lat="42.770819" lon="-7.953735">
        <ele>612.8</ele>
        <time>1970-01-01T00:33:21.000Z</time>
      </trkpt>
      <trkpt lat="42.770844" lon="-7.953753">
        <ele>612.7</ele>
        <time>1970-01-01T00:33:22.000Z</time>
      </trkpt>
      <trkpt lat="42.770863" lon="-7.953764">
        <ele>612.7</ele>
        <time>1970-01-01T00:33:23.000Z</time>
      </trkpt>
      <trkpt lat="42.770869" lon="-7.953783">
        <ele>612.6</ele>
        <time>1970-01-01T00:33:24.000Z</time>
      </trkpt>
      <trkpt lat="42.770886" lon="-7.953796">
        <ele>612.6</ele>
        <time>1970-01-01T00:33:25.000Z</time>
      </trkpt>
      <trkpt lat="42.770902" lon="-7.953806">
        <ele>612.5</ele>
        <time>1970-01-01T00:33:26.000Z</time>
      </trkpt>
      <trkpt lat="42.770921" lon="-7.953815">
        <ele>612.5</ele>
        <time>1970-01-01T00:33:27.000Z</time>
      </trkpt>
      <trkpt lat="42.770935" lon="-7.95383">
        <ele>612.4</ele>
        <time>1970-01-01T00:33:28.000Z</time>
      </trkpt>
      <trkpt lat="42.770956" lon="-7.953849">
        <ele>612.4</ele>
        <time>1970-01-01T00:33:29.000Z</time>
      </trkpt>
      <trkpt lat="42.770973" lon="-7.953878">
        <ele>612.3</ele>
        <time>1970-01-01T00:33:30.000Z</time>
      </trkpt>
      <trkpt lat="42.770991" lon="-7.953906">
        <ele>612.2</ele>
        <time>1970-01-01T00:33:31.000Z</time>
      </trkpt>
      <trkpt lat="42.771003" lon="-7.953939">
        <ele>612.3</ele>
        <time>1970-01-01T00:33:32.000Z</time>
      </trkpt>
      <trkpt lat="42.771013" lon="-7.953974">
        <ele>612.3</ele>
        <time>1970-01-01T00:33:33.000Z</time>
      </trkpt>
      <trkpt lat="42.77102" lon="-7.954022">
        <ele>612.3</ele>
        <time>1970-01-01T00:33:34.000Z</time>
      </trkpt>
      <trkpt lat="42.771031" lon="-7.954071">
        <ele>612.3</ele>
        <time>1970-01-01T00:33:35.000Z</time>
      </trkpt>
      <trkpt lat="42.771047" lon="-7.954117">
        <ele>612.4</ele>
        <time>1970-01-01T00:33:36.000Z</time>
      </trkpt>
      <trkpt lat="42.771064" lon="-7.95416">
        <ele>612.3</ele>
        <time>1970-01-01T00:33:37.000Z</time>
      </trkpt>
      <trkpt lat="42.77108" lon="-7.954205">
        <ele>612.4</ele>
        <time>1970-01-01T00:33:38.000Z</time>
      </trkpt>
      <trkpt lat="42.771097" lon="-7.954248">
        <ele>612.4</ele>
        <time>1970-01-01T00:33:39.000Z</time>
      </trkpt>
      <trkpt lat="42.771113" lon="-7.954281">
        <ele>612.6</ele>
        <time>1970-01-01T00:33:40.000Z</time>
      </trkpt>
      <trkpt lat="42.771132" lon="-7.954319">
        <ele>612.7</ele>
        <time>1970-01-01T00:33:41.000Z</time>
      </trkpt>
      <trkpt lat="42.771157" lon="-7.954342">
        <ele>612.6</ele>
        <time>1970-01-01T00:33:42.000Z</time>
      </trkpt>
      <trkpt lat="42.77117" lon="-7.95437">
        <ele>612.8</ele>
        <time>1970-01-01T00:33:43.000Z</time>
      </trkpt>
      <trkpt lat="42.771187" lon="-7.954403">
        <ele>613.1</ele>
        <time>1970-01-01T00:33:44.000Z</time>
      </trkpt>
      <trkpt lat="42.771204" lon="-7.954433">
        <ele>613.1</ele>
        <time>1970-01-01T00:33:45.000Z</time>
      </trkpt>
      <trkpt lat="42.771222" lon="-7.954464">
        <ele>613.4</ele>
        <time>1970-01-01T00:33:46.000Z</time>
      </trkpt>
      <trkpt lat="42.771237" lon="-7.954499">
        <ele>613.7</ele>
        <time>1970-01-01T00:33:47.000Z</time>
      </trkpt>
      <trkpt lat="42.771252" lon="-7.954538">
        <ele>614</ele>
        <time>1970-01-01T00:33:48.000Z</time>
      </trkpt>
      <trkpt lat="42.771267" lon="-7.954583">
        <ele>614.3</ele>
        <time>1970-01-01T00:33:49.000Z</time>
      </trkpt>
      <trkpt lat="42.771285" lon="-7.954612">
        <ele>614.3</ele>
        <time>1970-01-01T00:33:50.000Z</time>
      </trkpt>
      <trkpt lat="42.771301" lon="-7.954648">
        <ele>614.6</ele>
        <time>1970-01-01T00:33:51.000Z</time>
      </trkpt>
      <trkpt lat="42.771311" lon="-7.95467">
        <ele>615</ele>
        <time>1970-01-01T00:33:52.000Z</time>
      </trkpt>
      <trkpt lat="42.771323" lon="-7.954711">
        <ele>615.2</ele>
        <time>1970-01-01T00:33:53.000Z</time>
      </trkpt>
      <trkpt lat="42.77134" lon="-7.954745">
        <ele>615.3</ele>
        <time>1970-01-01T00:33:54.000Z</time>
      </trkpt>
      <trkpt lat="42.771353" lon="-7.954784">
        <ele>615.6</ele>
        <time>1970-01-01T00:33:55.000Z</time>
      </trkpt>
      <trkpt lat="42.771368" lon="-7.954819">
        <ele>615.9</ele>
        <time>1970-01-01T00:33:56.000Z</time>
      </trkpt>
      <trkpt lat="42.771382" lon="-7.954845">
        <ele>616.2</ele>
        <time>1970-01-01T00:33:57.000Z</time>
      </trkpt>
      <trkpt lat="42.771392" lon="-7.954869">
        <ele>616.2</ele>
        <time>1970-01-01T00:33:58.000Z</time>
      </trkpt>
      <trkpt lat="42.771399" lon="-7.954902">
        <ele>616.5</ele>
        <time>1970-01-01T00:33:59.000Z</time>
      </trkpt>
      <trkpt lat="42.771405" lon="-7.954932">
        <ele>616.8</ele>
        <time>1970-01-01T00:34:00.000Z</time>
      </trkpt>
      <trkpt lat="42.771416" lon="-7.954971">
        <ele>617.1</ele>
        <time>1970-01-01T00:34:01.000Z</time>
      </trkpt>
      <trkpt lat="42.771432" lon="-7.955004">
        <ele>617.3</ele>
        <time>1970-01-01T00:34:02.000Z</time>
      </trkpt>
      <trkpt lat="42.771452" lon="-7.955029">
        <ele>617.3</ele>
        <time>1970-01-01T00:34:03.000Z</time>
      </trkpt>
      <trkpt lat="42.771471" lon="-7.95506">
        <ele>617.6</ele>
        <time>1970-01-01T00:34:04.000Z</time>
      </trkpt>
      <trkpt lat="42.771492" lon="-7.955091">
        <ele>617.8</ele>
        <time>1970-01-01T00:34:05.000Z</time>
      </trkpt>
      <trkpt lat="42.771511" lon="-7.955128">
        <ele>617.8</ele>
        <time>1970-01-01T00:34:06.000Z</time>
      </trkpt>
      <trkpt lat="42.771529" lon="-7.955165">
        <ele>617.9</ele>
        <time>1970-01-01T00:34:07.000Z</time>
      </trkpt>
      <trkpt lat="42.771544" lon="-7.955205">
        <ele>618.1</ele>
        <time>1970-01-01T00:34:08.000Z</time>
      </trkpt>
      <trkpt lat="42.771558" lon="-7.955247">
        <ele>618.2</ele>
        <time>1970-01-01T00:34:09.000Z</time>
      </trkpt>
      <trkpt lat="42.771577" lon="-7.955277">
        <ele>618.4</ele>
        <time>1970-01-01T00:34:10.000Z</time>
      </trkpt>
      <trkpt lat="42.771596" lon="-7.955309">
        <ele>618.5</ele>
        <time>1970-01-01T00:34:11.000Z</time>
      </trkpt>
      <trkpt lat="42.771615" lon="-7.955338">
        <ele>618.5</ele>
        <time>1970-01-01T00:34:12.000Z</time>
      </trkpt>
      <trkpt lat="42.771635" lon="-7.95536">
        <ele>618.6</ele>
        <time>1970-01-01T00:34:13.000Z</time>
      </trkpt>
      <trkpt lat="42.771653" lon="-7.955386">
        <ele>618.4</ele>
        <time>1970-01-01T00:34:14.000Z</time>
      </trkpt>
      <trkpt lat="42.771669" lon="-7.955412">
        <ele>618.6</ele>
        <time>1970-01-01T00:34:15.000Z</time>
      </trkpt>
      <trkpt lat="42.771687" lon="-7.95544">
        <ele>618.7</ele>
        <time>1970-01-01T00:34:16.000Z</time>
      </trkpt>
      <trkpt lat="42.771706" lon="-7.955459">
        <ele>618.7</ele>
        <time>1970-01-01T00:34:17.000Z</time>
      </trkpt>
      <trkpt lat="42.771722" lon="-7.955476">
        <ele>618.8</ele>
        <time>1970-01-01T00:34:18.000Z</time>
      </trkpt>
      <trkpt lat="42.771738" lon="-7.955493">
        <ele>618.8</ele>
        <time>1970-01-01T00:34:19.000Z</time>
      </trkpt>
      <trkpt lat="42.771758" lon="-7.955509">
        <ele>618.7</ele>
        <time>1970-01-01T00:34:20.000Z</time>
      </trkpt>
      <trkpt lat="42.771775" lon="-7.955527">
        <ele>619</ele>
        <time>1970-01-01T00:34:21.000Z</time>
      </trkpt>
      <trkpt lat="42.771796" lon="-7.955539">
        <ele>618.9</ele>
        <time>1970-01-01T00:34:22.000Z</time>
      </trkpt>
      <trkpt lat="42.771812" lon="-7.955555">
        <ele>618.9</ele>
        <time>1970-01-01T00:34:23.000Z</time>
      </trkpt>
      <trkpt lat="42.771821" lon="-7.955571">
        <ele>619.2</ele>
        <time>1970-01-01T00:34:24.000Z</time>
      </trkpt>
      <trkpt lat="42.77184" lon="-7.95558">
        <ele>619.2</ele>
        <time>1970-01-01T00:34:25.000Z</time>
      </trkpt>
      <trkpt lat="42.771862" lon="-7.955593">
        <ele>619.2</ele>
        <time>1970-01-01T00:34:26.000Z</time>
      </trkpt>
      <trkpt lat="42.771882" lon="-7.955607">
        <ele>619.6</ele>
        <time>1970-01-01T00:34:27.000Z</time>
      </trkpt>
      <trkpt lat="42.771897" lon="-7.955625">
        <ele>619.6</ele>
        <time>1970-01-01T00:34:28.000Z</time>
      </trkpt>
      <trkpt lat="42.771921" lon="-7.955635">
        <ele>619.6</ele>
        <time>1970-01-01T00:34:29.000Z</time>
      </trkpt>
      <trkpt lat="42.771941" lon="-7.95565">
        <ele>620</ele>
        <time>1970-01-01T00:34:30.000Z</time>
      </trkpt>
      <trkpt lat="42.77196" lon="-7.955663">
        <ele>620</ele>
        <time>1970-01-01T00:34:31.000Z</time>
      </trkpt>
      <trkpt lat="42.77198" lon="-7.955681">
        <ele>620.2</ele>
        <time>1970-01-01T00:34:32.000Z</time>
      </trkpt>
      <trkpt lat="42.772001" lon="-7.955688">
        <ele>620.3</ele>
        <time>1970-01-01T00:34:33.000Z</time>
      </trkpt>
      <trkpt lat="42.77202" lon="-7.955691">
        <ele>620.6</ele>
        <time>1970-01-01T00:34:34.000Z</time>
      </trkpt>
      <trkpt lat="42.772033" lon="-7.955714">
        <ele>620.7</ele>
        <time>1970-01-01T00:34:35.000Z</time>
      </trkpt>
      <trkpt lat="42.772048" lon="-7.955734">
        <ele>621</ele>
        <time>1970-01-01T00:34:36.000Z</time>
      </trkpt>
      <trkpt lat="42.772062" lon="-7.955761">
        <ele>621.2</ele>
        <time>1970-01-01T00:34:37.000Z</time>
      </trkpt>
      <trkpt lat="42.772078" lon="-7.955778">
        <ele>621.5</ele>
        <time>1970-01-01T00:34:38.000Z</time>
      </trkpt>
      <trkpt lat="42.772097" lon="-7.95579">
        <ele>621.7</ele>
        <time>1970-01-01T00:34:39.000Z</time>
      </trkpt>
      <trkpt lat="42.772113" lon="-7.955803">
        <ele>621.7</ele>
        <time>1970-01-01T00:34:40.000Z</time>
      </trkpt>
      <trkpt lat="42.772129" lon="-7.955814">
        <ele>621.9</ele>
        <time>1970-01-01T00:34:41.000Z</time>
      </trkpt>
      <trkpt lat="42.772143" lon="-7.955829">
        <ele>622.3</ele>
        <time>1970-01-01T00:34:42.000Z</time>
      </trkpt>
      <trkpt lat="42.772155" lon="-7.955838">
        <ele>622.3</ele>
        <time>1970-01-01T00:34:43.000Z</time>
      </trkpt>
      <trkpt lat="42.772173" lon="-7.955844">
        <ele>622.5</ele>
        <time>1970-01-01T00:34:44.000Z</time>
      </trkpt>
      <trkpt lat="42.772191" lon="-7.955854">
        <ele>622.8</ele>
        <time>1970-01-01T00:34:45.000Z</time>
      </trkpt>
      <trkpt lat="42.772199" lon="-7.955864">
        <ele>623.2</ele>
        <time>1970-01-01T00:34:46.000Z</time>
      </trkpt>
      <trkpt lat="42.77221" lon="-7.95587">
        <ele>623.2</ele>
        <time>1970-01-01T00:34:47.000Z</time>
      </trkpt>
      <trkpt lat="42.772221" lon="-7.955879">
        <ele>623.5</ele>
        <time>1970-01-01T00:34:48.000Z</time>
      </trkpt>
      <trkpt lat="42.772236" lon="-7.955889">
        <ele>623.5</ele>
        <time>1970-01-01T00:34:49.000Z</time>
      </trkpt>
      <trkpt lat="42.772249" lon="-7.955892">
        <ele>623.5</ele>
        <time>1970-01-01T00:34:50.000Z</time>
      </trkpt>
      <trkpt lat="42.772264" lon="-7.955899">
        <ele>623.8</ele>
        <time>1970-01-01T00:34:51.000Z</time>
      </trkpt>
      <trkpt lat="42.772285" lon="-7.955901">
        <ele>624.1</ele>
        <time>1970-01-01T00:34:52.000Z</time>
      </trkpt>
      <trkpt lat="42.772305" lon="-7.955902">
        <ele>624.1</ele>
        <time>1970-01-01T00:34:53.000Z</time>
      </trkpt>
      <trkpt lat="42.772324" lon="-7.95591">
        <ele>624.7</ele>
        <time>1970-01-01T00:34:54.000Z</time>
      </trkpt>
      <trkpt lat="42.772344" lon="-7.955922">
        <ele>624.7</ele>
        <time>1970-01-01T00:34:55.000Z</time>
      </trkpt>
      <trkpt lat="42.772364" lon="-7.955933">
        <ele>625</ele>
        <time>1970-01-01T00:34:56.000Z</time>
      </trkpt>
      <trkpt lat="42.772386" lon="-7.955948">
        <ele>625.6</ele>
        <time>1970-01-01T00:34:57.000Z</time>
      </trkpt>
      <trkpt lat="42.772405" lon="-7.955966">
        <ele>625.6</ele>
        <time>1970-01-01T00:34:58.000Z</time>
      </trkpt>
      <trkpt lat="42.772418" lon="-7.955983">
        <ele>625.9</ele>
        <time>1970-01-01T00:34:59.000Z</time>
      </trkpt>
      <trkpt lat="42.772436" lon="-7.955998">
        <ele>626.2</ele>
        <time>1970-01-01T00:35:00.000Z</time>
      </trkpt>
      <trkpt lat="42.772452" lon="-7.956016">
        <ele>626.4</ele>
        <time>1970-01-01T00:35:01.000Z</time>
      </trkpt>
      <trkpt lat="42.772464" lon="-7.956035">
        <ele>626.7</ele>
        <time>1970-01-01T00:35:02.000Z</time>
      </trkpt>
      <trkpt lat="42.77248" lon="-7.956052">
        <ele>627</ele>
        <time>1970-01-01T00:35:03.000Z</time>
      </trkpt>
      <trkpt lat="42.772496" lon="-7.956071">
        <ele>627</ele>
        <time>1970-01-01T00:35:04.000Z</time>
      </trkpt>
      <trkpt lat="42.772507" lon="-7.956092">
        <ele>627.5</ele>
        <time>1970-01-01T00:35:05.000Z</time>
      </trkpt>
      <trkpt lat="42.77252" lon="-7.956108">
        <ele>627.5</ele>
        <time>1970-01-01T00:35:06.000Z</time>
      </trkpt>
      <trkpt lat="42.772539" lon="-7.956124">
        <ele>628</ele>
        <time>1970-01-01T00:35:07.000Z</time>
      </trkpt>
      <trkpt lat="42.772557" lon="-7.956139">
        <ele>628.1</ele>
        <time>1970-01-01T00:35:08.000Z</time>
      </trkpt>
      <trkpt lat="42.772574" lon="-7.956154">
        <ele>628.3</ele>
        <time>1970-01-01T00:35:09.000Z</time>
      </trkpt>
      <trkpt lat="42.772593" lon="-7.956168">
        <ele>628.6</ele>
        <time>1970-01-01T00:35:10.000Z</time>
      </trkpt>
      <trkpt lat="42.77261" lon="-7.956185">
        <ele>628.8</ele>
        <time>1970-01-01T00:35:11.000Z</time>
      </trkpt>
      <trkpt lat="42.772628" lon="-7.956203">
        <ele>628.8</ele>
        <time>1970-01-01T00:35:12.000Z</time>
      </trkpt>
      <trkpt lat="42.772639" lon="-7.956218">
        <ele>629.3</ele>
        <time>1970-01-01T00:35:13.000Z</time>
      </trkpt>
      <trkpt lat="42.772653" lon="-7.956235">
        <ele>629.3</ele>
        <time>1970-01-01T00:35:14.000Z</time>
      </trkpt>
      <trkpt lat="42.772669" lon="-7.956252">
        <ele>629.8</ele>
        <time>1970-01-01T00:35:15.000Z</time>
      </trkpt>
      <trkpt lat="42.772686" lon="-7.956271">
        <ele>629.8</ele>
        <time>1970-01-01T00:35:16.000Z</time>
      </trkpt>
      <trkpt lat="42.772703" lon="-7.956287">
        <ele>630</ele>
        <time>1970-01-01T00:35:17.000Z</time>
      </trkpt>
      <trkpt lat="42.772723" lon="-7.9563">
        <ele>630.2</ele>
        <time>1970-01-01T00:35:18.000Z</time>
      </trkpt>
      <trkpt lat="42.772744" lon="-7.956311">
        <ele>630.4</ele>
        <time>1970-01-01T00:35:19.000Z</time>
      </trkpt>
      <trkpt lat="42.772766" lon="-7.956321">
        <ele>630.6</ele>
        <time>1970-01-01T00:35:20.000Z</time>
      </trkpt>
      <trkpt lat="42.772789" lon="-7.956327">
        <ele>630.8</ele>
        <time>1970-01-01T00:35:21.000Z</time>
      </trkpt>
      <trkpt lat="42.772814" lon="-7.956332">
        <ele>630.8</ele>
        <time>1970-01-01T00:35:22.000Z</time>
      </trkpt>
      <trkpt lat="42.772837" lon="-7.95634">
        <ele>631.2</ele>
        <time>1970-01-01T00:35:23.000Z</time>
      </trkpt>
      <trkpt lat="42.772863" lon="-7.956349">
        <ele>631.4</ele>
        <time>1970-01-01T00:35:24.000Z</time>
      </trkpt>
      <trkpt lat="42.772886" lon="-7.956361">
        <ele>631.7</ele>
        <time>1970-01-01T00:35:25.000Z</time>
      </trkpt>
      <trkpt lat="42.772908" lon="-7.956376">
        <ele>631.7</ele>
        <time>1970-01-01T00:35:26.000Z</time>
      </trkpt>
      <trkpt lat="42.772928" lon="-7.956393">
        <ele>632.1</ele>
        <time>1970-01-01T00:35:27.000Z</time>
      </trkpt>
      <trkpt lat="42.772945" lon="-7.956412">
        <ele>632.4</ele>
        <time>1970-01-01T00:35:28.000Z</time>
      </trkpt>
      <trkpt lat="42.772962" lon="-7.956429">
        <ele>632.7</ele>
        <time>1970-01-01T00:35:29.000Z</time>
      </trkpt>
      <trkpt lat="42.772979" lon="-7.956444">
        <ele>632.9</ele>
        <time>1970-01-01T00:35:30.000Z</time>
      </trkpt>
      <trkpt lat="42.772999" lon="-7.956457">
        <ele>633.2</ele>
        <time>1970-01-01T00:35:31.000Z</time>
      </trkpt>
      <trkpt lat="42.773019" lon="-7.956476">
        <ele>633.5</ele>
        <time>1970-01-01T00:35:32.000Z</time>
      </trkpt>
      <trkpt lat="42.773038" lon="-7.956498">
        <ele>633.7</ele>
        <time>1970-01-01T00:35:33.000Z</time>
      </trkpt>
      <trkpt lat="42.77306" lon="-7.956519">
        <ele>634</ele>
        <time>1970-01-01T00:35:34.000Z</time>
      </trkpt>
      <trkpt lat="42.773081" lon="-7.956537">
        <ele>634.2</ele>
        <time>1970-01-01T00:35:35.000Z</time>
      </trkpt>
      <trkpt lat="42.773101" lon="-7.956554">
        <ele>634.5</ele>
        <time>1970-01-01T00:35:36.000Z</time>
      </trkpt>
      <trkpt lat="42.773123" lon="-7.956571">
        <ele>634.7</ele>
        <time>1970-01-01T00:35:37.000Z</time>
      </trkpt>
      <trkpt lat="42.773147" lon="-7.956588">
        <ele>635</ele>
        <time>1970-01-01T00:35:38.000Z</time>
      </trkpt>
      <trkpt lat="42.773174" lon="-7.956604">
        <ele>635.2</ele>
        <time>1970-01-01T00:35:39.000Z</time>
      </trkpt>
      <trkpt lat="42.773201" lon="-7.956618">
        <ele>635.5</ele>
        <time>1970-01-01T00:35:40.000Z</time>
      </trkpt>
      <trkpt lat="42.773229" lon="-7.956631">
        <ele>635.7</ele>
        <time>1970-01-01T00:35:41.000Z</time>
      </trkpt>
      <trkpt lat="42.773254" lon="-7.956643">
        <ele>636</ele>
        <time>1970-01-01T00:35:42.000Z</time>
      </trkpt>
      <trkpt lat="42.773282" lon="-7.956654">
        <ele>636.3</ele>
        <time>1970-01-01T00:35:43.000Z</time>
      </trkpt>
      <trkpt lat="42.773312" lon="-7.956668">
        <ele>636.6</ele>
        <time>1970-01-01T00:35:44.000Z</time>
      </trkpt>
      <trkpt lat="42.773345" lon="-7.956679">
        <ele>636.9</ele>
        <time>1970-01-01T00:35:45.000Z</time>
      </trkpt>
      <trkpt lat="42.773383" lon="-7.956688">
        <ele>637.2</ele>
        <time>1970-01-01T00:35:46.000Z</time>
      </trkpt>
      <trkpt lat="42.773405" lon="-7.956689">
        <ele>637.4</ele>
        <time>1970-01-01T00:35:47.000Z</time>
      </trkpt>
      <trkpt lat="42.773423" lon="-7.956684">
        <ele>637.5</ele>
        <time>1970-01-01T00:35:48.000Z</time>
      </trkpt>
      <trkpt lat="42.773449" lon="-7.956675">
        <ele>637.7</ele>
        <time>1970-01-01T00:35:49.000Z</time>
      </trkpt>
      <trkpt lat="42.773477" lon="-7.956668">
        <ele>637.9</ele>
        <time>1970-01-01T00:35:50.000Z</time>
      </trkpt>
      <trkpt lat="42.77348" lon="-7.956651">
        <ele>637.9</ele>
        <time>1970-01-01T00:35:51.000Z</time>
      </trkpt>
      <trkpt lat="42.773484" lon="-7.956658">
        <ele>638</ele>
        <time>1970-01-01T00:35:52.000Z</time>
      </trkpt>
      <trkpt lat="42.773501" lon="-7.956674">
        <ele>638.1</ele>
        <time>1970-01-01T00:35:53.000Z</time>
      </trkpt>
      <trkpt lat="42.773524" lon="-7.956706">
        <ele>638.5</ele>
        <time>1970-01-01T00:35:54.000Z</time>
      </trkpt>
      <trkpt lat="42.77356" lon="-7.956716">
        <ele>638.7</ele>
        <time>1970-01-01T00:35:55.000Z</time>
      </trkpt>
      <trkpt lat="42.773589" lon="-7.956735">
        <ele>638.9</ele>
        <time>1970-01-01T00:35:56.000Z</time>
      </trkpt>
      <trkpt lat="42.773625" lon="-7.956736">
        <ele>638.8</ele>
        <time>1970-01-01T00:35:57.000Z</time>
      </trkpt>
      <trkpt lat="42.77367" lon="-7.956728">
        <ele>638.6</ele>
        <time>1970-01-01T00:35:58.000Z</time>
      </trkpt>
      <trkpt lat="42.773696" lon="-7.956725">
        <ele>638.4</ele>
        <time>1970-01-01T00:35:59.000Z</time>
      </trkpt>
      <trkpt lat="42.773724" lon="-7.956716">
        <ele>638.3</ele>
        <time>1970-01-01T00:36:00.000Z</time>
      </trkpt>
      <trkpt lat="42.773751" lon="-7.956705">
        <ele>638.1</ele>
        <time>1970-01-01T00:36:01.000Z</time>
      </trkpt>
      <trkpt lat="42.773773" lon="-7.956687">
        <ele>638.1</ele>
        <time>1970-01-01T00:36:02.000Z</time>
      </trkpt>
      <trkpt lat="42.773793" lon="-7.956665">
        <ele>638</ele>
        <time>1970-01-01T00:36:03.000Z</time>
      </trkpt>
      <trkpt lat="42.773817" lon="-7.956635">
        <ele>637.8</ele>
        <time>1970-01-01T00:36:04.000Z</time>
      </trkpt>
      <trkpt lat="42.77384" lon="-7.956604">
        <ele>637.7</ele>
        <time>1970-01-01T00:36:05.000Z</time>
      </trkpt>
      <trkpt lat="42.773853" lon="-7.956578">
        <ele>637.6</ele>
        <time>1970-01-01T00:36:06.000Z</time>
      </trkpt>
      <trkpt lat="42.773867" lon="-7.956553">
        <ele>637.6</ele>
        <time>1970-01-01T00:36:07.000Z</time>
      </trkpt>
      <trkpt lat="42.773888" lon="-7.956517">
        <ele>637.5</ele>
        <time>1970-01-01T00:36:08.000Z</time>
      </trkpt>
      <trkpt lat="42.773897" lon="-7.956488">
        <ele>637.5</ele>
        <time>1970-01-01T00:36:09.000Z</time>
      </trkpt>
      <trkpt lat="42.773914" lon="-7.956458">
        <ele>637.5</ele>
        <time>1970-01-01T00:36:10.000Z</time>
      </trkpt>
      <trkpt lat="42.773926" lon="-7.956428">
        <ele>637.5</ele>
        <time>1970-01-01T00:36:11.000Z</time>
      </trkpt>
      <trkpt lat="42.773937" lon="-7.956397">
        <ele>637.6</ele>
        <time>1970-01-01T00:36:12.000Z</time>
      </trkpt>
      <trkpt lat="42.773947" lon="-7.956369">
        <ele>637.6</ele>
        <time>1970-01-01T00:36:13.000Z</time>
      </trkpt>
      <trkpt lat="42.773958" lon="-7.956344">
        <ele>637.7</ele>
        <time>1970-01-01T00:36:14.000Z</time>
      </trkpt>
      <trkpt lat="42.773968" lon="-7.956315">
        <ele>637.8</ele>
        <time>1970-01-01T00:36:15.000Z</time>
      </trkpt>
      <trkpt lat="42.773982" lon="-7.956288">
        <ele>637.8</ele>
        <time>1970-01-01T00:36:16.000Z</time>
      </trkpt>
      <trkpt lat="42.773995" lon="-7.956261">
        <ele>637.9</ele>
        <time>1970-01-01T00:36:17.000Z</time>
      </trkpt>
      <trkpt lat="42.774016" lon="-7.956241">
        <ele>638</ele>
        <time>1970-01-01T00:36:18.000Z</time>
      </trkpt>
      <trkpt lat="42.77404" lon="-7.956229">
        <ele>638.1</ele>
        <time>1970-01-01T00:36:19.000Z</time>
      </trkpt>
      <trkpt lat="42.77407" lon="-7.956222">
        <ele>638.4</ele>
        <time>1970-01-01T00:36:20.000Z</time>
      </trkpt>
      <trkpt lat="42.7741" lon="-7.956224">
        <ele>638.4</ele>
        <time>1970-01-01T00:36:21.000Z</time>
      </trkpt>
      <trkpt lat="42.774123" lon="-7.956234">
        <ele>638.5</ele>
        <time>1970-01-01T00:36:22.000Z</time>
      </trkpt>
      <trkpt lat="42.774141" lon="-7.956252">
        <ele>638.6</ele>
        <time>1970-01-01T00:36:23.000Z</time>
      </trkpt>
      <trkpt lat="42.774159" lon="-7.956268">
        <ele>638.8</ele>
        <time>1970-01-01T00:36:24.000Z</time>
      </trkpt>
      <trkpt lat="42.774169" lon="-7.956286">
        <ele>638.9</ele>
        <time>1970-01-01T00:36:25.000Z</time>
      </trkpt>
      <trkpt lat="42.774186" lon="-7.956301">
        <ele>639.1</ele>
        <time>1970-01-01T00:36:26.000Z</time>
      </trkpt>
      <trkpt lat="42.774209" lon="-7.956319">
        <ele>639.3</ele>
        <time>1970-01-01T00:36:27.000Z</time>
      </trkpt>
      <trkpt lat="42.774228" lon="-7.956325">
        <ele>639.5</ele>
        <time>1970-01-01T00:36:28.000Z</time>
      </trkpt>
      <trkpt lat="42.77425" lon="-7.956334">
        <ele>639.7</ele>
        <time>1970-01-01T00:36:29.000Z</time>
      </trkpt>
      <trkpt lat="42.774273" lon="-7.956347">
        <ele>639.9</ele>
        <time>1970-01-01T00:36:30.000Z</time>
      </trkpt>
      <trkpt lat="42.774296" lon="-7.956359">
        <ele>640</ele>
        <time>1970-01-01T00:36:31.000Z</time>
      </trkpt>
      <trkpt lat="42.77432" lon="-7.956374">
        <ele>640.3</ele>
        <time>1970-01-01T00:36:32.000Z</time>
      </trkpt>
      <trkpt lat="42.774338" lon="-7.956393">
        <ele>640.5</ele>
        <time>1970-01-01T00:36:33.000Z</time>
      </trkpt>
      <trkpt lat="42.774358" lon="-7.956403">
        <ele>640.7</ele>
        <time>1970-01-01T00:36:34.000Z</time>
      </trkpt>
      <trkpt lat="42.774381" lon="-7.956419">
        <ele>641</ele>
        <time>1970-01-01T00:36:35.000Z</time>
      </trkpt>
      <trkpt lat="42.774406" lon="-7.956437">
        <ele>641.2</ele>
        <time>1970-01-01T00:36:36.000Z</time>
      </trkpt>
      <trkpt lat="42.774428" lon="-7.956455">
        <ele>641.5</ele>
        <time>1970-01-01T00:36:37.000Z</time>
      </trkpt>
      <trkpt lat="42.774449" lon="-7.956467">
        <ele>641.7</ele>
        <time>1970-01-01T00:36:38.000Z</time>
      </trkpt>
      <trkpt lat="42.774471" lon="-7.956476">
        <ele>641.9</ele>
        <time>1970-01-01T00:36:39.000Z</time>
      </trkpt>
      <trkpt lat="42.774493" lon="-7.95649">
        <ele>642</ele>
        <time>1970-01-01T00:36:40.000Z</time>
      </trkpt>
      <trkpt lat="42.774512" lon="-7.956516">
        <ele>642.2</ele>
        <time>1970-01-01T00:36:41.000Z</time>
      </trkpt>
      <trkpt lat="42.774536" lon="-7.956535">
        <ele>642.4</ele>
        <time>1970-01-01T00:36:42.000Z</time>
      </trkpt>
      <trkpt lat="42.774559" lon="-7.956558">
        <ele>642.5</ele>
        <time>1970-01-01T00:36:43.000Z</time>
      </trkpt>
      <trkpt lat="42.774584" lon="-7.956578">
        <ele>642.6</ele>
        <time>1970-01-01T00:36:44.000Z</time>
      </trkpt>
      <trkpt lat="42.774606" lon="-7.956588">
        <ele>642.7</ele>
        <time>1970-01-01T00:36:45.000Z</time>
      </trkpt>
      <trkpt lat="42.774625" lon="-7.956601">
        <ele>642.8</ele>
        <time>1970-01-01T00:36:46.000Z</time>
      </trkpt>
      <trkpt lat="42.774645" lon="-7.956619">
        <ele>642.9</ele>
        <time>1970-01-01T00:36:47.000Z</time>
      </trkpt>
      <trkpt lat="42.774667" lon="-7.95664">
        <ele>643</ele>
        <time>1970-01-01T00:36:48.000Z</time>
      </trkpt>
      <trkpt lat="42.774688" lon="-7.956656">
        <ele>643</ele>
        <time>1970-01-01T00:36:49.000Z</time>
      </trkpt>
      <trkpt lat="42.774711" lon="-7.956677">
        <ele>643</ele>
        <time>1970-01-01T00:36:50.000Z</time>
      </trkpt>
      <trkpt lat="42.774737" lon="-7.956696">
        <ele>643</ele>
        <time>1970-01-01T00:36:51.000Z</time>
      </trkpt>
      <trkpt lat="42.774761" lon="-7.956713">
        <ele>643</ele>
        <time>1970-01-01T00:36:52.000Z</time>
      </trkpt>
      <trkpt lat="42.774785" lon="-7.956729">
        <ele>643</ele>
        <time>1970-01-01T00:36:53.000Z</time>
      </trkpt>
      <trkpt lat="42.774809" lon="-7.956749">
        <ele>642.9</ele>
        <time>1970-01-01T00:36:54.000Z</time>
      </trkpt>
      <trkpt lat="42.774835" lon="-7.956763">
        <ele>642.9</ele>
        <time>1970-01-01T00:36:55.000Z</time>
      </trkpt>
      <trkpt lat="42.774861" lon="-7.956778">
        <ele>642.8</ele>
        <time>1970-01-01T00:36:56.000Z</time>
      </trkpt>
      <trkpt lat="42.774893" lon="-7.956793">
        <ele>642.7</ele>
        <time>1970-01-01T00:36:57.000Z</time>
      </trkpt>
      <trkpt lat="42.774926" lon="-7.956808">
        <ele>642.6</ele>
        <time>1970-01-01T00:36:58.000Z</time>
      </trkpt>
      <trkpt lat="42.77496" lon="-7.956815">
        <ele>642.4</ele>
        <time>1970-01-01T00:36:59.000Z</time>
      </trkpt>
      <trkpt lat="42.775" lon="-7.956831">
        <ele>642.2</ele>
        <time>1970-01-01T00:37:00.000Z</time>
      </trkpt>
      <trkpt lat="42.775043" lon="-7.956842">
        <ele>642</ele>
        <time>1970-01-01T00:37:01.000Z</time>
      </trkpt>
      <trkpt lat="42.775086" lon="-7.956847">
        <ele>641.7</ele>
        <time>1970-01-01T00:37:02.000Z</time>
      </trkpt>
      <trkpt lat="42.775106" lon="-7.95685">
        <ele>641.6</ele>
        <time>1970-01-01T00:37:03.000Z</time>
      </trkpt>
      <trkpt lat="42.775132" lon="-7.956856">
        <ele>641.5</ele>
        <time>1970-01-01T00:37:04.000Z</time>
      </trkpt>
      <trkpt lat="42.775155" lon="-7.956861">
        <ele>641.4</ele>
        <time>1970-01-01T00:37:05.000Z</time>
      </trkpt>
      <trkpt lat="42.775177" lon="-7.956863">
        <ele>641.4</ele>
        <time>1970-01-01T00:37:06.000Z</time>
      </trkpt>
      <trkpt lat="42.775207" lon="-7.956868">
        <ele>641.3</ele>
        <time>1970-01-01T00:37:07.000Z</time>
      </trkpt>
      <trkpt lat="42.775241" lon="-7.956879">
        <ele>641.2</ele>
        <time>1970-01-01T00:37:08.000Z</time>
      </trkpt>
      <trkpt lat="42.775272" lon="-7.956879">
        <ele>641.1</ele>
        <time>1970-01-01T00:37:09.000Z</time>
      </trkpt>
      <trkpt lat="42.775334" lon="-7.956863">
        <ele>640.8</ele>
        <time>1970-01-01T00:37:10.000Z</time>
      </trkpt>
      <trkpt lat="42.775372" lon="-7.95684">
        <ele>640.7</ele>
        <time>1970-01-01T00:37:11.000Z</time>
      </trkpt>
      <trkpt lat="42.775397" lon="-7.956816">
        <ele>640.7</ele>
        <time>1970-01-01T00:37:12.000Z</time>
      </trkpt>
      <trkpt lat="42.775419" lon="-7.956809">
        <ele>640.6</ele>
        <time>1970-01-01T00:37:13.000Z</time>
      </trkpt>
      <trkpt lat="42.775451" lon="-7.956801">
        <ele>640.6</ele>
        <time>1970-01-01T00:37:14.000Z</time>
      </trkpt>
      <trkpt lat="42.775494" lon="-7.956778">
        <ele>640.6</ele>
        <time>1970-01-01T00:37:15.000Z</time>
      </trkpt>
      <trkpt lat="42.775551" lon="-7.95676">
        <ele>640.5</ele>
        <time>1970-01-01T00:37:16.000Z</time>
      </trkpt>
      <trkpt lat="42.7756" lon="-7.956743">
        <ele>640.4</ele>
        <time>1970-01-01T00:37:17.000Z</time>
      </trkpt>
      <trkpt lat="42.775645" lon="-7.956716">
        <ele>640.4</ele>
        <time>1970-01-01T00:37:18.000Z</time>
      </trkpt>
      <trkpt lat="42.775687" lon="-7.956691">
        <ele>640.3</ele>
        <time>1970-01-01T00:37:19.000Z</time>
      </trkpt>
      <trkpt lat="42.77571" lon="-7.956667">
        <ele>640.3</ele>
        <time>1970-01-01T00:37:20.000Z</time>
      </trkpt>
      <trkpt lat="42.775744" lon="-7.956644">
        <ele>640.3</ele>
        <time>1970-01-01T00:37:21.000Z</time>
      </trkpt>
      <trkpt lat="42.775779" lon="-7.956619">
        <ele>640.2</ele>
        <time>1970-01-01T00:37:22.000Z</time>
      </trkpt>
      <trkpt lat="42.775811" lon="-7.956588">
        <ele>640.2</ele>
        <time>1970-01-01T00:37:23.000Z</time>
      </trkpt>
      <trkpt lat="42.775844" lon="-7.956553">
        <ele>640.1</ele>
        <time>1970-01-01T00:37:24.000Z</time>
      </trkpt>
      <trkpt lat="42.775881" lon="-7.956527">
        <ele>640.1</ele>
        <time>1970-01-01T00:37:25.000Z</time>
      </trkpt>
      <trkpt lat="42.775917" lon="-7.956503">
        <ele>640.1</ele>
        <time>1970-01-01T00:37:26.000Z</time>
      </trkpt>
      <trkpt lat="42.775954" lon="-7.95648">
        <ele>640.1</ele>
        <time>1970-01-01T00:37:27.000Z</time>
      </trkpt>
      <trkpt lat="42.775994" lon="-7.956458">
        <ele>640.2</ele>
        <time>1970-01-01T00:37:28.000Z</time>
      </trkpt>
      <trkpt lat="42.776031" lon="-7.956434">
        <ele>640.2</ele>
        <time>1970-01-01T00:37:29.000Z</time>
      </trkpt>
      <trkpt lat="42.776064" lon="-7.95641">
        <ele>640.2</ele>
        <time>1970-01-01T00:37:30.000Z</time>
      </trkpt>
      <trkpt lat="42.776094" lon="-7.95639">
        <ele>640.2</ele>
        <time>1970-01-01T00:37:31.000Z</time>
      </trkpt>
      <trkpt lat="42.776127" lon="-7.956372">
        <ele>640.3</ele>
        <time>1970-01-01T00:37:32.000Z</time>
      </trkpt>
      <trkpt lat="42.776163" lon="-7.956358">
        <ele>640.3</ele>
        <time>1970-01-01T00:37:33.000Z</time>
      </trkpt>
      <trkpt lat="42.776189" lon="-7.956338">
        <ele>640.3</ele>
        <time>1970-01-01T00:37:34.000Z</time>
      </trkpt>
      <trkpt lat="42.776208" lon="-7.956313">
        <ele>640.4</ele>
        <time>1970-01-01T00:37:35.000Z</time>
      </trkpt>
      <trkpt lat="42.776221" lon="-7.956288">
        <ele>640.5</ele>
        <time>1970-01-01T00:37:36.000Z</time>
      </trkpt>
      <trkpt lat="42.776232" lon="-7.956263">
        <ele>640.5</ele>
        <time>1970-01-01T00:37:37.000Z</time>
      </trkpt>
      <trkpt lat="42.776225" lon="-7.956245">
        <ele>640.6</ele>
        <time>1970-01-01T00:37:38.000Z</time>
      </trkpt>
      <trkpt lat="42.776221" lon="-7.956227">
        <ele>640.6</ele>
        <time>1970-01-01T00:37:39.000Z</time>
      </trkpt>
      <trkpt lat="42.776213" lon="-7.956211">
        <ele>640.6</ele>
        <time>1970-01-01T00:37:40.000Z</time>
      </trkpt>
      <trkpt lat="42.776205" lon="-7.956201">
        <ele>640.6</ele>
        <time>1970-01-01T00:37:41.000Z</time>
      </trkpt>
      <trkpt lat="42.776202" lon="-7.956182">
        <ele>640.6</ele>
        <time>1970-01-01T00:37:42.000Z</time>
      </trkpt>
      <trkpt lat="42.776206" lon="-7.956165">
        <ele>640.6</ele>
        <time>1970-01-01T00:37:43.000Z</time>
      </trkpt>
      <trkpt lat="42.776205" lon="-7.956143">
        <ele>640.7</ele>
        <time>1970-01-01T00:37:44.000Z</time>
      </trkpt>
      <trkpt lat="42.776203" lon="-7.956125">
        <ele>640.7</ele>
        <time>1970-01-01T00:37:45.000Z</time>
      </trkpt>
      <trkpt lat="42.7762" lon="-7.956104">
        <ele>640.8</ele>
        <time>1970-01-01T00:37:46.000Z</time>
      </trkpt>
      <trkpt lat="42.776191" lon="-7.956088">
        <ele>640.8</ele>
        <time>1970-01-01T00:37:47.000Z</time>
      </trkpt>
      <trkpt lat="42.776195" lon="-7.956072">
        <ele>640.9</ele>
        <time>1970-01-01T00:37:48.000Z</time>
      </trkpt>
      <trkpt lat="42.776198" lon="-7.95604">
        <ele>640.9</ele>
        <time>1970-01-01T00:37:49.000Z</time>
      </trkpt>
      <trkpt lat="42.776208" lon="-7.956013">
        <ele>640.9</ele>
        <time>1970-01-01T00:37:50.000Z</time>
      </trkpt>
      <trkpt lat="42.776217" lon="-7.955986">
        <ele>641</ele>
        <time>1970-01-01T00:37:51.000Z</time>
      </trkpt>
      <trkpt lat="42.776226" lon="-7.955953">
        <ele>641</ele>
        <time>1970-01-01T00:37:52.000Z</time>
      </trkpt>
      <trkpt lat="42.776231" lon="-7.95592">
        <ele>641.1</ele>
        <time>1970-01-01T00:37:53.000Z</time>
      </trkpt>
      <trkpt lat="42.776238" lon="-7.955885">
        <ele>641.2</ele>
        <time>1970-01-01T00:37:54.000Z</time>
      </trkpt>
      <trkpt lat="42.776249" lon="-7.955849">
        <ele>641.3</ele>
        <time>1970-01-01T00:37:55.000Z</time>
      </trkpt>
      <trkpt lat="42.776265" lon="-7.95581">
        <ele>641.4</ele>
        <time>1970-01-01T00:37:56.000Z</time>
      </trkpt>
      <trkpt lat="42.776281" lon="-7.955775">
        <ele>641.5</ele>
        <time>1970-01-01T00:37:57.000Z</time>
      </trkpt>
      <trkpt lat="42.776297" lon="-7.955744">
        <ele>641.5</ele>
        <time>1970-01-01T00:37:58.000Z</time>
      </trkpt>
      <trkpt lat="42.776317" lon="-7.955713">
        <ele>641.6</ele>
        <time>1970-01-01T00:37:59.000Z</time>
      </trkpt>
      <trkpt lat="42.776333" lon="-7.95568">
        <ele>641.7</ele>
        <time>1970-01-01T00:38:00.000Z</time>
      </trkpt>
      <trkpt lat="42.776347" lon="-7.955648">
        <ele>641.7</ele>
        <time>1970-01-01T00:38:01.000Z</time>
      </trkpt>
      <trkpt lat="42.776359" lon="-7.955613">
        <ele>641.7</ele>
        <time>1970-01-01T00:38:02.000Z</time>
      </trkpt>
      <trkpt lat="42.776365" lon="-7.95558">
        <ele>641.8</ele>
        <time>1970-01-01T00:38:03.000Z</time>
      </trkpt>
      <trkpt lat="42.776369" lon="-7.955548">
        <ele>641.9</ele>
        <time>1970-01-01T00:38:04.000Z</time>
      </trkpt>
      <trkpt lat="42.776372" lon="-7.955513">
        <ele>642</ele>
        <time>1970-01-01T00:38:05.000Z</time>
      </trkpt>
      <trkpt lat="42.776378" lon="-7.955476">
        <ele>642</ele>
        <time>1970-01-01T00:38:06.000Z</time>
      </trkpt>
      <trkpt lat="42.776387" lon="-7.955438">
        <ele>642</ele>
        <time>1970-01-01T00:38:07.000Z</time>
      </trkpt>
      <trkpt lat="42.77639" lon="-7.955401">
        <ele>642.1</ele>
        <time>1970-01-01T00:38:08.000Z</time>
      </trkpt>
      <trkpt lat="42.776394" lon="-7.955362">
        <ele>642.2</ele>
        <time>1970-01-01T00:38:09.000Z</time>
      </trkpt>
      <trkpt lat="42.776398" lon="-7.955324">
        <ele>642.2</ele>
        <time>1970-01-01T00:38:10.000Z</time>
      </trkpt>
      <trkpt lat="42.776401" lon="-7.955286">
        <ele>642.3</ele>
        <time>1970-01-01T00:38:11.000Z</time>
      </trkpt>
      <trkpt lat="42.776403" lon="-7.955248">
        <ele>642.4</ele>
        <time>1970-01-01T00:38:12.000Z</time>
      </trkpt>
      <trkpt lat="42.7764" lon="-7.95521">
        <ele>642.5</ele>
        <time>1970-01-01T00:38:13.000Z</time>
      </trkpt>
      <trkpt lat="42.776397" lon="-7.955173">
        <ele>642.5</ele>
        <time>1970-01-01T00:38:14.000Z</time>
      </trkpt>
      <trkpt lat="42.776397" lon="-7.955135">
        <ele>642.5</ele>
        <time>1970-01-01T00:38:15.000Z</time>
      </trkpt>
      <trkpt lat="42.776401" lon="-7.955093">
        <ele>642.6</ele>
        <time>1970-01-01T00:38:16.000Z</time>
      </trkpt>
      <trkpt lat="42.776404" lon="-7.955049">
        <ele>642.6</ele>
        <time>1970-01-01T00:38:17.000Z</time>
      </trkpt>
      <trkpt lat="42.776406" lon="-7.95501">
        <ele>642.7</ele>
        <time>1970-01-01T00:38:18.000Z</time>
      </trkpt>
      <trkpt lat="42.776403" lon="-7.954974">
        <ele>642.8</ele>
        <time>1970-01-01T00:38:19.000Z</time>
      </trkpt>
      <trkpt lat="42.776401" lon="-7.95494">
        <ele>642.8</ele>
        <time>1970-01-01T00:38:20.000Z</time>
      </trkpt>
      <trkpt lat="42.776406" lon="-7.954901">
        <ele>642.8</ele>
        <time>1970-01-01T00:38:21.000Z</time>
      </trkpt>
      <trkpt lat="42.776417" lon="-7.954859">
        <ele>642.9</ele>
        <time>1970-01-01T00:38:22.000Z</time>
      </trkpt>
      <trkpt lat="42.77642" lon="-7.954816">
        <ele>642.9</ele>
        <time>1970-01-01T00:38:23.000Z</time>
      </trkpt>
      <trkpt lat="42.776424" lon="-7.954779">
        <ele>642.9</ele>
        <time>1970-01-01T00:38:24.000Z</time>
      </trkpt>
      <trkpt lat="42.776431" lon="-7.954741">
        <ele>642.9</ele>
        <time>1970-01-01T00:38:25.000Z</time>
      </trkpt>
      <trkpt lat="42.776438" lon="-7.954704">
        <ele>642.9</ele>
        <time>1970-01-01T00:38:26.000Z</time>
      </trkpt>
      <trkpt lat="42.776448" lon="-7.954666">
        <ele>642.9</ele>
        <time>1970-01-01T00:38:27.000Z</time>
      </trkpt>
      <trkpt lat="42.776457" lon="-7.954633">
        <ele>642.8</ele>
        <time>1970-01-01T00:38:28.000Z</time>
      </trkpt>
      <trkpt lat="42.776466" lon="-7.954599">
        <ele>642.8</ele>
        <time>1970-01-01T00:38:29.000Z</time>
      </trkpt>
      <trkpt lat="42.776475" lon="-7.954568">
        <ele>642.8</ele>
        <time>1970-01-01T00:38:30.000Z</time>
      </trkpt>
      <trkpt lat="42.77648" lon="-7.954548">
        <ele>642.8</ele>
        <time>1970-01-01T00:38:31.000Z</time>
      </trkpt>
      <trkpt lat="42.776481" lon="-7.954542">
        <ele>642.8</ele>
        <time>1970-01-01T00:38:32.000Z</time>
      </trkpt>
      <trkpt lat="42.776484" lon="-7.95454">
        <ele>642.8</ele>
        <time>1970-01-01T00:38:33.000Z</time>
      </trkpt>
      <trkpt lat="42.776486" lon="-7.954533">
        <ele>642.8</ele>
        <time>1970-01-01T00:38:34.000Z</time>
      </trkpt>
      <trkpt lat="42.776488" lon="-7.954524">
        <ele>642.7</ele>
        <time>1970-01-01T00:38:35.000Z</time>
      </trkpt>
      <trkpt lat="42.776491" lon="-7.954517">
        <ele>642.7</ele>
        <time>1970-01-01T00:38:36.000Z</time>
      </trkpt>
      <trkpt lat="42.776493" lon="-7.954513">
        <ele>642.7</ele>
        <time>1970-01-01T00:38:37.000Z</time>
      </trkpt>
      <trkpt lat="42.776495" lon="-7.954508">
        <ele>642.7</ele>
        <time>1970-01-01T00:38:38.000Z</time>
      </trkpt>
      <trkpt lat="42.776498" lon="-7.954505">
        <ele>642.7</ele>
        <time>1970-01-01T00:38:39.000Z</time>
      </trkpt>
      <trkpt lat="42.776568" lon="-7.954231">
        <ele>642.5</ele>
        <time>1970-01-01T00:39:21.000Z</time>
      </trkpt>
      <trkpt lat="42.776577" lon="-7.954196">
        <ele>642.5</ele>
        <time>1970-01-01T00:39:22.000Z</time>
      </trkpt>
      <trkpt lat="42.776588" lon="-7.954162">
        <ele>642.5</ele>
        <time>1970-01-01T00:39:23.000Z</time>
      </trkpt>
      <trkpt lat="42.776598" lon="-7.954129">
        <ele>642.5</ele>
        <time>1970-01-01T00:39:24.000Z</time>
      </trkpt>
      <trkpt lat="42.776607" lon="-7.954094">
        <ele>642.6</ele>
        <time>1970-01-01T00:39:25.000Z</time>
      </trkpt>
      <trkpt lat="42.776611" lon="-7.954058">
        <ele>642.6</ele>
        <time>1970-01-01T00:39:26.000Z</time>
      </trkpt>
      <trkpt lat="42.776617" lon="-7.954017">
        <ele>642.6</ele>
        <time>1970-01-01T00:39:27.000Z</time>
      </trkpt>
      <trkpt lat="42.776626" lon="-7.953976">
        <ele>642.7</ele>
        <time>1970-01-01T00:39:28.000Z</time>
      </trkpt>
      <trkpt lat="42.776633" lon="-7.953939">
        <ele>642.7</ele>
        <time>1970-01-01T00:39:29.000Z</time>
      </trkpt>
      <trkpt lat="42.776643" lon="-7.953904">
        <ele>642.7</ele>
        <time>1970-01-01T00:39:30.000Z</time>
      </trkpt>
      <trkpt lat="42.776652" lon="-7.953869">
        <ele>642.8</ele>
        <time>1970-01-01T00:39:31.000Z</time>
      </trkpt>
      <trkpt lat="42.776662" lon="-7.953831">
        <ele>642.8</ele>
        <time>1970-01-01T00:39:32.000Z</time>
      </trkpt>
      <trkpt lat="42.776671" lon="-7.953796">
        <ele>642.8</ele>
        <time>1970-01-01T00:39:33.000Z</time>
      </trkpt>
      <trkpt lat="42.776677" lon="-7.953761">
        <ele>642.8</ele>
        <time>1970-01-01T00:39:34.000Z</time>
      </trkpt>
      <trkpt lat="42.776686" lon="-7.953723">
        <ele>642.9</ele>
        <time>1970-01-01T00:39:35.000Z</time>
      </trkpt>
      <trkpt lat="42.776693" lon="-7.953684">
        <ele>642.9</ele>
        <time>1970-01-01T00:39:36.000Z</time>
      </trkpt>
      <trkpt lat="42.7767" lon="-7.953645">
        <ele>643</ele>
        <time>1970-01-01T00:39:37.000Z</time>
      </trkpt>
      <trkpt lat="42.776707" lon="-7.953603">
        <ele>643.1</ele>
        <time>1970-01-01T00:39:38.000Z</time>
      </trkpt>
      <trkpt lat="42.776715" lon="-7.95356">
        <ele>643.1</ele>
        <time>1970-01-01T00:39:39.000Z</time>
      </trkpt>
      <trkpt lat="42.776724" lon="-7.953518">
        <ele>643.2</ele>
        <time>1970-01-01T00:39:40.000Z</time>
      </trkpt>
      <trkpt lat="42.776732" lon="-7.953476">
        <ele>643.2</ele>
        <time>1970-01-01T00:39:41.000Z</time>
      </trkpt>
      <trkpt lat="42.776739" lon="-7.953433">
        <ele>643.3</ele>
        <time>1970-01-01T00:39:42.000Z</time>
      </trkpt>
      <trkpt lat="42.776747" lon="-7.953389">
        <ele>643.4</ele>
        <time>1970-01-01T00:39:43.000Z</time>
      </trkpt>
      <trkpt lat="42.776758" lon="-7.953346">
        <ele>643.4</ele>
        <time>1970-01-01T00:39:44.000Z</time>
      </trkpt>
      <trkpt lat="42.77677" lon="-7.953307">
        <ele>643.5</ele>
        <time>1970-01-01T00:39:45.000Z</time>
      </trkpt>
      <trkpt lat="42.776781" lon="-7.953269">
        <ele>643.5</ele>
        <time>1970-01-01T00:39:46.000Z</time>
      </trkpt>
      <trkpt lat="42.776791" lon="-7.953236">
        <ele>643.6</ele>
        <time>1970-01-01T00:39:47.000Z</time>
      </trkpt>
      <trkpt lat="42.776796" lon="-7.953216">
        <ele>643.6</ele>
        <time>1970-01-01T00:39:48.000Z</time>
      </trkpt>
      <trkpt lat="42.776806" lon="-7.953196">
        <ele>643.6</ele>
        <time>1970-01-01T00:39:49.000Z</time>
      </trkpt>
      <trkpt lat="42.776813" lon="-7.953166">
        <ele>643.6</ele>
        <time>1970-01-01T00:39:50.000Z</time>
      </trkpt>
      <trkpt lat="42.776816" lon="-7.953137">
        <ele>643.6</ele>
        <time>1970-01-01T00:39:51.000Z</time>
      </trkpt>
      <trkpt lat="42.776826" lon="-7.953103">
        <ele>643.7</ele>
        <time>1970-01-01T00:39:52.000Z</time>
      </trkpt>
      <trkpt lat="42.776842" lon="-7.953082">
        <ele>643.7</ele>
        <time>1970-01-01T00:39:53.000Z</time>
      </trkpt>
      <trkpt lat="42.776859" lon="-7.953055">
        <ele>643.7</ele>
        <time>1970-01-01T00:39:54.000Z</time>
      </trkpt>
      <trkpt lat="42.776873" lon="-7.953026">
        <ele>643.7</ele>
        <time>1970-01-01T00:39:55.000Z</time>
      </trkpt>
      <trkpt lat="42.776891" lon="-7.953005">
        <ele>643.7</ele>
        <time>1970-01-01T00:39:56.000Z</time>
      </trkpt>
      <trkpt lat="42.77691" lon="-7.952967">
        <ele>643.7</ele>
        <time>1970-01-01T00:39:57.000Z</time>
      </trkpt>
      <trkpt lat="42.776927" lon="-7.952926">
        <ele>643.7</ele>
        <time>1970-01-01T00:39:58.000Z</time>
      </trkpt>
      <trkpt lat="42.776942" lon="-7.952896">
        <ele>643.7</ele>
        <time>1970-01-01T00:39:59.000Z</time>
      </trkpt>
      <trkpt lat="42.776964" lon="-7.952864">
        <ele>643.7</ele>
        <time>1970-01-01T00:40:00.000Z</time>
      </trkpt>
      <trkpt lat="42.776983" lon="-7.952821">
        <ele>643.7</ele>
        <time>1970-01-01T00:40:01.000Z</time>
      </trkpt>
      <trkpt lat="42.776998" lon="-7.952785">
        <ele>643.7</ele>
        <time>1970-01-01T00:40:02.000Z</time>
      </trkpt>
      <trkpt lat="42.777013" lon="-7.952743">
        <ele>643.7</ele>
        <time>1970-01-01T00:40:03.000Z</time>
      </trkpt>
      <trkpt lat="42.777031" lon="-7.952707">
        <ele>643.7</ele>
        <time>1970-01-01T00:40:04.000Z</time>
      </trkpt>
      <trkpt lat="42.777049" lon="-7.952663">
        <ele>643.7</ele>
        <time>1970-01-01T00:40:05.000Z</time>
      </trkpt>
      <trkpt lat="42.77705" lon="-7.952636">
        <ele>643.7</ele>
        <time>1970-01-01T00:40:06.000Z</time>
      </trkpt>
      <trkpt lat="42.777061" lon="-7.952593">
        <ele>643.6</ele>
        <time>1970-01-01T00:40:07.000Z</time>
      </trkpt>
      <trkpt lat="42.777076" lon="-7.95255">
        <ele>643.6</ele>
        <time>1970-01-01T00:40:08.000Z</time>
      </trkpt>
      <trkpt lat="42.777089" lon="-7.9525">
        <ele>643.6</ele>
        <time>1970-01-01T00:40:09.000Z</time>
      </trkpt>
      <trkpt lat="42.777096" lon="-7.952447">
        <ele>643.5</ele>
        <time>1970-01-01T00:40:10.000Z</time>
      </trkpt>
      <trkpt lat="42.777103" lon="-7.952386">
        <ele>643.5</ele>
        <time>1970-01-01T00:40:11.000Z</time>
      </trkpt>
      <trkpt lat="42.777125" lon="-7.952313">
        <ele>643.4</ele>
        <time>1970-01-01T00:40:12.000Z</time>
      </trkpt>
      <trkpt lat="42.777149" lon="-7.952241">
        <ele>643.2</ele>
        <time>1970-01-01T00:40:13.000Z</time>
      </trkpt>
      <trkpt lat="42.77718" lon="-7.952183">
        <ele>643.2</ele>
        <time>1970-01-01T00:40:14.000Z</time>
      </trkpt>
      <trkpt lat="42.777217" lon="-7.95213">
        <ele>643.2</ele>
        <time>1970-01-01T00:40:15.000Z</time>
      </trkpt>
      <trkpt lat="42.777255" lon="-7.952085">
        <ele>643.1</ele>
        <time>1970-01-01T00:40:16.000Z</time>
      </trkpt>
      <trkpt lat="42.77729" lon="-7.952038">
        <ele>643</ele>
        <time>1970-01-01T00:40:17.000Z</time>
      </trkpt>
      <trkpt lat="42.777322" lon="-7.951987">
        <ele>642.9</ele>
        <time>1970-01-01T00:40:18.000Z</time>
      </trkpt>
      <trkpt lat="42.777356" lon="-7.951931">
        <ele>642.9</ele>
        <time>1970-01-01T00:40:19.000Z</time>
      </trkpt>
      <trkpt lat="42.777394" lon="-7.951874">
        <ele>642.8</ele>
        <time>1970-01-01T00:40:20.000Z</time>
      </trkpt>
      <trkpt lat="42.777433" lon="-7.951811">
        <ele>642.6</ele>
        <time>1970-01-01T00:40:21.000Z</time>
      </trkpt>
      <trkpt lat="42.777465" lon="-7.951738">
        <ele>642.5</ele>
        <time>1970-01-01T00:40:22.000Z</time>
      </trkpt>
      <trkpt lat="42.777491" lon="-7.951664">
        <ele>642.3</ele>
        <time>1970-01-01T00:40:23.000Z</time>
      </trkpt>
      <trkpt lat="42.777513" lon="-7.951584">
        <ele>642.2</ele>
        <time>1970-01-01T00:40:24.000Z</time>
      </trkpt>
      <trkpt lat="42.777531" lon="-7.951501">
        <ele>642.1</ele>
        <time>1970-01-01T00:40:25.000Z</time>
      </trkpt>
      <trkpt lat="42.777552" lon="-7.951422">
        <ele>641.9</ele>
        <time>1970-01-01T00:40:26.000Z</time>
      </trkpt>
      <trkpt lat="42.777579" lon="-7.951348">
        <ele>641.7</ele>
        <time>1970-01-01T00:40:27.000Z</time>
      </trkpt>
      <trkpt lat="42.777607" lon="-7.951281">
        <ele>641.5</ele>
        <time>1970-01-01T00:40:28.000Z</time>
      </trkpt>
      <trkpt lat="42.777641" lon="-7.951216">
        <ele>641.2</ele>
        <time>1970-01-01T00:40:29.000Z</time>
      </trkpt>
      <trkpt lat="42.777677" lon="-7.951157">
        <ele>641</ele>
        <time>1970-01-01T00:40:30.000Z</time>
      </trkpt>
      <trkpt lat="42.777713" lon="-7.951101">
        <ele>640.8</ele>
        <time>1970-01-01T00:40:31.000Z</time>
      </trkpt>
      <trkpt lat="42.777749" lon="-7.951047">
        <ele>640.4</ele>
        <time>1970-01-01T00:40:32.000Z</time>
      </trkpt>
      <trkpt lat="42.777784" lon="-7.950995">
        <ele>640.1</ele>
        <time>1970-01-01T00:40:33.000Z</time>
      </trkpt>
      <trkpt lat="42.777818" lon="-7.950944">
        <ele>639.9</ele>
        <time>1970-01-01T00:40:34.000Z</time>
      </trkpt>
      <trkpt lat="42.77785" lon="-7.950892">
        <ele>639.7</ele>
        <time>1970-01-01T00:40:35.000Z</time>
      </trkpt>
      <trkpt lat="42.777881" lon="-7.950835">
        <ele>639.4</ele>
        <time>1970-01-01T00:40:36.000Z</time>
      </trkpt>
      <trkpt lat="42.777911" lon="-7.950785">
        <ele>639.2</ele>
        <time>1970-01-01T00:40:37.000Z</time>
      </trkpt>
      <trkpt lat="42.777942" lon="-7.950736">
        <ele>639.2</ele>
        <time>1970-01-01T00:40:38.000Z</time>
      </trkpt>
      <trkpt lat="42.777973" lon="-7.950685">
        <ele>639.1</ele>
        <time>1970-01-01T00:40:39.000Z</time>
      </trkpt>
      <trkpt lat="42.778002" lon="-7.950637">
        <ele>639</ele>
        <time>1970-01-01T00:40:40.000Z</time>
      </trkpt>
      <trkpt lat="42.778031" lon="-7.950588">
        <ele>639</ele>
        <time>1970-01-01T00:40:41.000Z</time>
      </trkpt>
      <trkpt lat="42.77806" lon="-7.95054">
        <ele>639</ele>
        <time>1970-01-01T00:40:42.000Z</time>
      </trkpt>
      <trkpt lat="42.778088" lon="-7.950491">
        <ele>639.1</ele>
        <time>1970-01-01T00:40:43.000Z</time>
      </trkpt>
      <trkpt lat="42.778115" lon="-7.950443">
        <ele>639.2</ele>
        <time>1970-01-01T00:40:44.000Z</time>
      </trkpt>
      <trkpt lat="42.778142" lon="-7.950397">
        <ele>639.3</ele>
        <time>1970-01-01T00:40:45.000Z</time>
      </trkpt>
      <trkpt lat="42.778169" lon="-7.950349">
        <ele>639.4</ele>
        <time>1970-01-01T00:40:46.000Z</time>
      </trkpt>
      <trkpt lat="42.778194" lon="-7.950299">
        <ele>639.6</ele>
        <time>1970-01-01T00:40:47.000Z</time>
      </trkpt>
      <trkpt lat="42.778218" lon="-7.950248">
        <ele>639.7</ele>
        <time>1970-01-01T00:40:48.000Z</time>
      </trkpt>
      <trkpt lat="42.778243" lon="-7.9502">
        <ele>639.9</ele>
        <time>1970-01-01T00:40:49.000Z</time>
      </trkpt>
      <trkpt lat="42.77827" lon="-7.950152">
        <ele>640.2</ele>
        <time>1970-01-01T00:40:50.000Z</time>
      </trkpt>
      <trkpt lat="42.778295" lon="-7.950104">
        <ele>640.3</ele>
        <time>1970-01-01T00:40:51.000Z</time>
      </trkpt>
      <trkpt lat="42.77832" lon="-7.950054">
        <ele>640.5</ele>
        <time>1970-01-01T00:40:52.000Z</time>
      </trkpt>
      <trkpt lat="42.778345" lon="-7.950005">
        <ele>640.7</ele>
        <time>1970-01-01T00:40:53.000Z</time>
      </trkpt>
      <trkpt lat="42.77837" lon="-7.949959">
        <ele>640.9</ele>
        <time>1970-01-01T00:40:54.000Z</time>
      </trkpt>
      <trkpt lat="42.778396" lon="-7.949917">
        <ele>641.1</ele>
        <time>1970-01-01T00:40:55.000Z</time>
      </trkpt>
      <trkpt lat="42.778421" lon="-7.949874">
        <ele>641.3</ele>
        <time>1970-01-01T00:40:56.000Z</time>
      </trkpt>
      <trkpt lat="42.778447" lon="-7.949831">
        <ele>641.5</ele>
        <time>1970-01-01T00:40:57.000Z</time>
      </trkpt>
      <trkpt lat="42.778472" lon="-7.949789">
        <ele>641.8</ele>
        <time>1970-01-01T00:40:58.000Z</time>
      </trkpt>
      <trkpt lat="42.778498" lon="-7.94975">
        <ele>642</ele>
        <time>1970-01-01T00:40:59.000Z</time>
      </trkpt>
      <trkpt lat="42.778526" lon="-7.94971">
        <ele>642.3</ele>
        <time>1970-01-01T00:41:00.000Z</time>
      </trkpt>
      <trkpt lat="42.778553" lon="-7.949674">
        <ele>642.6</ele>
        <time>1970-01-01T00:41:01.000Z</time>
      </trkpt>
      <trkpt lat="42.778579" lon="-7.949642">
        <ele>642.6</ele>
        <time>1970-01-01T00:41:02.000Z</time>
      </trkpt>
      <trkpt lat="42.778605" lon="-7.949611">
        <ele>642.9</ele>
        <time>1970-01-01T00:41:03.000Z</time>
      </trkpt>
      <trkpt lat="42.778631" lon="-7.949579">
        <ele>643.2</ele>
        <time>1970-01-01T00:41:04.000Z</time>
      </trkpt>
      <trkpt lat="42.778659" lon="-7.949542">
        <ele>643.5</ele>
        <time>1970-01-01T00:41:05.000Z</time>
      </trkpt>
      <trkpt lat="42.778686" lon="-7.949509">
        <ele>643.8</ele>
        <time>1970-01-01T00:41:06.000Z</time>
      </trkpt>
      <trkpt lat="42.778713" lon="-7.949477">
        <ele>643.8</ele>
        <time>1970-01-01T00:41:07.000Z</time>
      </trkpt>
      <trkpt lat="42.77874" lon="-7.949444">
        <ele>644.1</ele>
        <time>1970-01-01T00:41:08.000Z</time>
      </trkpt>
      <trkpt lat="42.778767" lon="-7.949411">
        <ele>644.2</ele>
        <time>1970-01-01T00:41:09.000Z</time>
      </trkpt>
      <trkpt lat="42.778791" lon="-7.949374">
        <ele>644.4</ele>
        <time>1970-01-01T00:41:10.000Z</time>
      </trkpt>
      <trkpt lat="42.778814" lon="-7.949339">
        <ele>644.5</ele>
        <time>1970-01-01T00:41:11.000Z</time>
      </trkpt>
      <trkpt lat="42.778835" lon="-7.949301">
        <ele>644.7</ele>
        <time>1970-01-01T00:41:12.000Z</time>
      </trkpt>
      <trkpt lat="42.778855" lon="-7.949266">
        <ele>644.8</ele>
        <time>1970-01-01T00:41:13.000Z</time>
      </trkpt>
      <trkpt lat="42.778872" lon="-7.949228">
        <ele>645</ele>
        <time>1970-01-01T00:41:14.000Z</time>
      </trkpt>
      <trkpt lat="42.778888" lon="-7.949191">
        <ele>645.1</ele>
        <time>1970-01-01T00:41:15.000Z</time>
      </trkpt>
      <trkpt lat="42.778904" lon="-7.949152">
        <ele>645.3</ele>
        <time>1970-01-01T00:41:16.000Z</time>
      </trkpt>
      <trkpt lat="42.778921" lon="-7.949112">
        <ele>645.4</ele>
        <time>1970-01-01T00:41:17.000Z</time>
      </trkpt>
      <trkpt lat="42.778938" lon="-7.949069">
        <ele>645.6</ele>
        <time>1970-01-01T00:41:18.000Z</time>
      </trkpt>
      <trkpt lat="42.778954" lon="-7.949026">
        <ele>645.7</ele>
        <time>1970-01-01T00:41:19.000Z</time>
      </trkpt>
      <trkpt lat="42.77897" lon="-7.948981">
        <ele>646</ele>
        <time>1970-01-01T00:41:20.000Z</time>
      </trkpt>
      <trkpt lat="42.778987" lon="-7.948933">
        <ele>646</ele>
        <time>1970-01-01T00:41:21.000Z</time>
      </trkpt>
      <trkpt lat="42.779005" lon="-7.948883">
        <ele>646.2</ele>
        <time>1970-01-01T00:41:22.000Z</time>
      </trkpt>
      <trkpt lat="42.779023" lon="-7.948835">
        <ele>646.2</ele>
        <time>1970-01-01T00:41:23.000Z</time>
      </trkpt>
      <trkpt lat="42.779042" lon="-7.948784">
        <ele>646.4</ele>
        <time>1970-01-01T00:41:24.000Z</time>
      </trkpt>
      <trkpt lat="42.779062" lon="-7.94873">
        <ele>646.6</ele>
        <time>1970-01-01T00:41:25.000Z</time>
      </trkpt>
      <trkpt lat="42.779083" lon="-7.948675">
        <ele>646.5</ele>
        <time>1970-01-01T00:41:26.000Z</time>
      </trkpt>
      <trkpt lat="42.779104" lon="-7.948619">
        <ele>646.7</ele>
        <time>1970-01-01T00:41:27.000Z</time>
      </trkpt>
      <trkpt lat="42.779125" lon="-7.948559">
        <ele>647</ele>
        <time>1970-01-01T00:41:28.000Z</time>
      </trkpt>
      <trkpt lat="42.779147" lon="-7.948493">
        <ele>647</ele>
        <time>1970-01-01T00:41:29.000Z</time>
      </trkpt>
      <trkpt lat="42.779168" lon="-7.948425">
        <ele>647.3</ele>
        <time>1970-01-01T00:41:30.000Z</time>
      </trkpt>
      <trkpt lat="42.779187" lon="-7.948349">
        <ele>647.6</ele>
        <time>1970-01-01T00:41:31.000Z</time>
      </trkpt>
      <trkpt lat="42.779205" lon="-7.94827">
        <ele>647.6</ele>
        <time>1970-01-01T00:41:32.000Z</time>
      </trkpt>
      <trkpt lat="42.779227" lon="-7.948191">
        <ele>647.8</ele>
        <time>1970-01-01T00:41:33.000Z</time>
      </trkpt>
      <trkpt lat="42.779254" lon="-7.948114">
        <ele>647.8</ele>
        <time>1970-01-01T00:41:34.000Z</time>
      </trkpt>
      <trkpt lat="42.779278" lon="-7.948036">
        <ele>647.5</ele>
        <time>1970-01-01T00:41:35.000Z</time>
      </trkpt>
      <trkpt lat="42.7793" lon="-7.947958">
        <ele>647.1</ele>
        <time>1970-01-01T00:41:36.000Z</time>
      </trkpt>
      <trkpt lat="42.77932" lon="-7.947884">
        <ele>646.8</ele>
        <time>1970-01-01T00:41:37.000Z</time>
      </trkpt>
      <trkpt lat="42.779337" lon="-7.94781">
        <ele>646.3</ele>
        <time>1970-01-01T00:41:38.000Z</time>
      </trkpt>
      <trkpt lat="42.779353" lon="-7.947739">
        <ele>645.5</ele>
        <time>1970-01-01T00:41:39.000Z</time>
      </trkpt>
      <trkpt lat="42.779371" lon="-7.947667">
        <ele>645</ele>
        <time>1970-01-01T00:41:40.000Z</time>
      </trkpt>
      <trkpt lat="42.779389" lon="-7.947595">
        <ele>644.3</ele>
        <time>1970-01-01T00:41:41.000Z</time>
      </trkpt>
      <trkpt lat="42.779411" lon="-7.947524">
        <ele>643.4</ele>
        <time>1970-01-01T00:41:42.000Z</time>
      </trkpt>
      <trkpt lat="42.779434" lon="-7.947458">
        <ele>642.8</ele>
        <time>1970-01-01T00:41:43.000Z</time>
      </trkpt>
      <trkpt lat="42.77946" lon="-7.947393">
        <ele>642.2</ele>
        <time>1970-01-01T00:41:44.000Z</time>
      </trkpt>
      <trkpt lat="42.77949" lon="-7.947331">
        <ele>641.7</ele>
        <time>1970-01-01T00:41:45.000Z</time>
      </trkpt>
      <trkpt lat="42.779518" lon="-7.947271">
        <ele>640.9</ele>
        <time>1970-01-01T00:41:46.000Z</time>
      </trkpt>
      <trkpt lat="42.77954" lon="-7.947213">
        <ele>640.5</ele>
        <time>1970-01-01T00:41:47.000Z</time>
      </trkpt>
      <trkpt lat="42.779556" lon="-7.947158">
        <ele>640.3</ele>
        <time>1970-01-01T00:41:48.000Z</time>
      </trkpt>
      <trkpt lat="42.779572" lon="-7.947099">
        <ele>639.8</ele>
        <time>1970-01-01T00:41:49.000Z</time>
      </trkpt>
      <trkpt lat="42.779587" lon="-7.947042">
        <ele>639.7</ele>
        <time>1970-01-01T00:41:50.000Z</time>
      </trkpt>
      <trkpt lat="42.779604" lon="-7.946983">
        <ele>639.3</ele>
        <time>1970-01-01T00:41:51.000Z</time>
      </trkpt>
      <trkpt lat="42.779623" lon="-7.946922">
        <ele>638.8</ele>
        <time>1970-01-01T00:41:52.000Z</time>
      </trkpt>
      <trkpt lat="42.779644" lon="-7.946864">
        <ele>638.6</ele>
        <time>1970-01-01T00:41:53.000Z</time>
      </trkpt>
      <trkpt lat="42.77966" lon="-7.946811">
        <ele>638.2</ele>
        <time>1970-01-01T00:41:54.000Z</time>
      </trkpt>
      <trkpt lat="42.779673" lon="-7.946756">
        <ele>637.7</ele>
        <time>1970-01-01T00:41:55.000Z</time>
      </trkpt>
      <trkpt lat="42.779683" lon="-7.946706">
        <ele>637.5</ele>
        <time>1970-01-01T00:41:56.000Z</time>
      </trkpt>
      <trkpt lat="42.779695" lon="-7.946655">
        <ele>637.2</ele>
        <time>1970-01-01T00:41:57.000Z</time>
      </trkpt>
      <trkpt lat="42.779714" lon="-7.946605">
        <ele>637</ele>
        <time>1970-01-01T00:41:58.000Z</time>
      </trkpt>
      <trkpt lat="42.77974" lon="-7.946545">
        <ele>636.5</ele>
        <time>1970-01-01T00:41:59.000Z</time>
      </trkpt>
      <trkpt lat="42.779762" lon="-7.94649">
        <ele>636.2</ele>
        <time>1970-01-01T00:42:00.000Z</time>
      </trkpt>
      <trkpt lat="42.779796" lon="-7.946433">
        <ele>635.8</ele>
        <time>1970-01-01T00:42:01.000Z</time>
      </trkpt>
      <trkpt lat="42.779838" lon="-7.946381">
        <ele>635.3</ele>
        <time>1970-01-01T00:42:02.000Z</time>
      </trkpt>
      <trkpt lat="42.779876" lon="-7.946339">
        <ele>634.6</ele>
        <time>1970-01-01T00:42:03.000Z</time>
      </trkpt>
      <trkpt lat="42.77991" lon="-7.946301">
        <ele>634</ele>
        <time>1970-01-01T00:42:04.000Z</time>
      </trkpt>
      <trkpt lat="42.779945" lon="-7.946264">
        <ele>633.4</ele>
        <time>1970-01-01T00:42:05.000Z</time>
      </trkpt>
      <trkpt lat="42.779975" lon="-7.94623">
        <ele>632.7</ele>
        <time>1970-01-01T00:42:06.000Z</time>
      </trkpt>
      <trkpt lat="42.779994" lon="-7.946194">
        <ele>632.3</ele>
        <time>1970-01-01T00:42:07.000Z</time>
      </trkpt>
      <trkpt lat="42.780022" lon="-7.946159">
        <ele>631.6</ele>
        <time>1970-01-01T00:42:08.000Z</time>
      </trkpt>
      <trkpt lat="42.780052" lon="-7.946122">
        <ele>631.3</ele>
        <time>1970-01-01T00:42:09.000Z</time>
      </trkpt>
      <trkpt lat="42.780085" lon="-7.946092">
        <ele>630.6</ele>
        <time>1970-01-01T00:42:10.000Z</time>
      </trkpt>
      <trkpt lat="42.780121" lon="-7.946064">
        <ele>629.9</ele>
        <time>1970-01-01T00:42:11.000Z</time>
      </trkpt>
      <trkpt lat="42.780163" lon="-7.94603">
        <ele>629</ele>
        <time>1970-01-01T00:42:12.000Z</time>
      </trkpt>
      <trkpt lat="42.780207" lon="-7.945995">
        <ele>628.8</ele>
        <time>1970-01-01T00:42:13.000Z</time>
      </trkpt>
      <trkpt lat="42.780255" lon="-7.94596">
        <ele>628.1</ele>
        <time>1970-01-01T00:42:14.000Z</time>
      </trkpt>
      <trkpt lat="42.780296" lon="-7.945928">
        <ele>627.6</ele>
        <time>1970-01-01T00:42:15.000Z</time>
      </trkpt>
      <trkpt lat="42.780337" lon="-7.945905">
        <ele>627.4</ele>
        <time>1970-01-01T00:42:16.000Z</time>
      </trkpt>
      <trkpt lat="42.780379" lon="-7.94588">
        <ele>626.9</ele>
        <time>1970-01-01T00:42:17.000Z</time>
      </trkpt>
      <trkpt lat="42.780424" lon="-7.94586">
        <ele>626.5</ele>
        <time>1970-01-01T00:42:18.000Z</time>
      </trkpt>
      <trkpt lat="42.780476" lon="-7.945841">
        <ele>626.3</ele>
        <time>1970-01-01T00:42:19.000Z</time>
      </trkpt>
      <trkpt lat="42.780531" lon="-7.945828">
        <ele>626.2</ele>
        <time>1970-01-01T00:42:20.000Z</time>
      </trkpt>
      <trkpt lat="42.780591" lon="-7.945807">
        <ele>625.7</ele>
        <time>1970-01-01T00:42:21.000Z</time>
      </trkpt>
      <trkpt lat="42.780648" lon="-7.945785">
        <ele>625.4</ele>
        <time>1970-01-01T00:42:22.000Z</time>
      </trkpt>
      <trkpt lat="42.780703" lon="-7.945766">
        <ele>624.8</ele>
        <time>1970-01-01T00:42:23.000Z</time>
      </trkpt>
      <trkpt lat="42.780758" lon="-7.945744">
        <ele>624.4</ele>
        <time>1970-01-01T00:42:24.000Z</time>
      </trkpt>
      <trkpt lat="42.780809" lon="-7.945718">
        <ele>623.8</ele>
        <time>1970-01-01T00:42:25.000Z</time>
      </trkpt>
      <trkpt lat="42.780857" lon="-7.945693">
        <ele>623.4</ele>
        <time>1970-01-01T00:42:26.000Z</time>
      </trkpt>
      <trkpt lat="42.780905" lon="-7.945665">
        <ele>622.8</ele>
        <time>1970-01-01T00:42:27.000Z</time>
      </trkpt>
      <trkpt lat="42.780949" lon="-7.945644">
        <ele>622</ele>
        <time>1970-01-01T00:42:28.000Z</time>
      </trkpt>
      <trkpt lat="42.780993" lon="-7.945631">
        <ele>621.8</ele>
        <time>1970-01-01T00:42:29.000Z</time>
      </trkpt>
      <trkpt lat="42.781036" lon="-7.945616">
        <ele>621.7</ele>
        <time>1970-01-01T00:42:30.000Z</time>
      </trkpt>
      <trkpt lat="42.78108" lon="-7.945595">
        <ele>621.1</ele>
        <time>1970-01-01T00:42:31.000Z</time>
      </trkpt>
      <trkpt lat="42.781124" lon="-7.945575">
        <ele>621</ele>
        <time>1970-01-01T00:42:32.000Z</time>
      </trkpt>
      <trkpt lat="42.781168" lon="-7.945557">
        <ele>620.7</ele>
        <time>1970-01-01T00:42:33.000Z</time>
      </trkpt>
      <trkpt lat="42.781212" lon="-7.945533">
        <ele>620.8</ele>
        <time>1970-01-01T00:42:34.000Z</time>
      </trkpt>
      <trkpt lat="42.781251" lon="-7.945507">
        <ele>620.5</ele>
        <time>1970-01-01T00:42:35.000Z</time>
      </trkpt>
      <trkpt lat="42.781291" lon="-7.945469">
        <ele>620.3</ele>
        <time>1970-01-01T00:42:36.000Z</time>
      </trkpt>
      <trkpt lat="42.781335" lon="-7.945432">
        <ele>620.3</ele>
        <time>1970-01-01T00:42:37.000Z</time>
      </trkpt>
      <trkpt lat="42.781381" lon="-7.945394">
        <ele>620.5</ele>
        <time>1970-01-01T00:42:38.000Z</time>
      </trkpt>
      <trkpt lat="42.78143" lon="-7.945358">
        <ele>620.6</ele>
        <time>1970-01-01T00:42:39.000Z</time>
      </trkpt>
      <trkpt lat="42.781477" lon="-7.945318">
        <ele>620.5</ele>
        <time>1970-01-01T00:42:40.000Z</time>
      </trkpt>
      <trkpt lat="42.781526" lon="-7.94528">
        <ele>620.7</ele>
        <time>1970-01-01T00:42:41.000Z</time>
      </trkpt>
      <trkpt lat="42.781579" lon="-7.945236">
        <ele>620.9</ele>
        <time>1970-01-01T00:42:42.000Z</time>
      </trkpt>
      <trkpt lat="42.781631" lon="-7.945193">
        <ele>620.9</ele>
        <time>1970-01-01T00:42:43.000Z</time>
      </trkpt>
      <trkpt lat="42.781682" lon="-7.94515">
        <ele>621.2</ele>
        <time>1970-01-01T00:42:44.000Z</time>
      </trkpt>
      <trkpt lat="42.781733" lon="-7.945111">
        <ele>621.4</ele>
        <time>1970-01-01T00:42:45.000Z</time>
      </trkpt>
      <trkpt lat="42.781779" lon="-7.945081">
        <ele>621.3</ele>
        <time>1970-01-01T00:42:46.000Z</time>
      </trkpt>
      <trkpt lat="42.781824" lon="-7.945041">
        <ele>621.2</ele>
        <time>1970-01-01T00:42:47.000Z</time>
      </trkpt>
      <trkpt lat="42.781863" lon="-7.945001">
        <ele>621.2</ele>
        <time>1970-01-01T00:42:48.000Z</time>
      </trkpt>
      <trkpt lat="42.781887" lon="-7.944957">
        <ele>620.9</ele>
        <time>1970-01-01T00:42:49.000Z</time>
      </trkpt>
      <trkpt lat="42.781897" lon="-7.944913">
        <ele>620.7</ele>
        <time>1970-01-01T00:42:50.000Z</time>
      </trkpt>
      <trkpt lat="42.781902" lon="-7.944873">
        <ele>620.5</ele>
        <time>1970-01-01T00:42:51.000Z</time>
      </trkpt>
      <trkpt lat="42.781894" lon="-7.944847">
        <ele>620.5</ele>
        <time>1970-01-01T00:42:52.000Z</time>
      </trkpt>
      <trkpt lat="42.781882" lon="-7.944838">
        <ele>620.4</ele>
        <time>1970-01-01T00:42:53.000Z</time>
      </trkpt>
      <trkpt lat="42.781865" lon="-7.944837">
        <ele>620.4</ele>
        <time>1970-01-01T00:42:54.000Z</time>
      </trkpt>
      <trkpt lat="42.78185" lon="-7.944838">
        <ele>620.2</ele>
        <time>1970-01-01T00:42:55.000Z</time>
      </trkpt>
      <trkpt lat="42.78183" lon="-7.94484">
        <ele>620.2</ele>
        <time>1970-01-01T00:42:56.000Z</time>
      </trkpt>
      <trkpt lat="42.781807" lon="-7.944843">
        <ele>620.1</ele>
        <time>1970-01-01T00:42:57.000Z</time>
      </trkpt>
      <trkpt lat="42.781789" lon="-7.944837">
        <ele>620</ele>
        <time>1970-01-01T00:42:58.000Z</time>
      </trkpt>
      <trkpt lat="42.781766" lon="-7.944835">
        <ele>619.9</ele>
        <time>1970-01-01T00:42:59.000Z</time>
      </trkpt>
      <trkpt lat="42.78174" lon="-7.944836">
        <ele>619.8</ele>
        <time>1970-01-01T00:43:00.000Z</time>
      </trkpt>
      <trkpt lat="42.781712" lon="-7.944838">
        <ele>619.6</ele>
        <time>1970-01-01T00:43:01.000Z</time>
      </trkpt>
      <trkpt lat="42.781683" lon="-7.944841">
        <ele>619.5</ele>
        <time>1970-01-01T00:43:02.000Z</time>
      </trkpt>
      <trkpt lat="42.781653" lon="-7.944845">
        <ele>619.4</ele>
        <time>1970-01-01T00:43:03.000Z</time>
      </trkpt>
      <trkpt lat="42.781622" lon="-7.944847">
        <ele>619.4</ele>
        <time>1970-01-01T00:43:04.000Z</time>
      </trkpt>
      <trkpt lat="42.781592" lon="-7.944849">
        <ele>619.2</ele>
        <time>1970-01-01T00:43:05.000Z</time>
      </trkpt>
      <trkpt lat="42.781561" lon="-7.944854">
        <ele>619</ele>
        <time>1970-01-01T00:43:06.000Z</time>
      </trkpt>
      <trkpt lat="42.781529" lon="-7.944859">
        <ele>618.7</ele>
        <time>1970-01-01T00:43:07.000Z</time>
      </trkpt>
      <trkpt lat="42.781498" lon="-7.944864">
        <ele>618.5</ele>
        <time>1970-01-01T00:43:08.000Z</time>
      </trkpt>
      <trkpt lat="42.781466" lon="-7.944869">
        <ele>618.3</ele>
        <time>1970-01-01T00:43:09.000Z</time>
      </trkpt>
      <trkpt lat="42.781433" lon="-7.944873">
        <ele>618.1</ele>
        <time>1970-01-01T00:43:10.000Z</time>
      </trkpt>
      <trkpt lat="42.781399" lon="-7.944878">
        <ele>618</ele>
        <time>1970-01-01T00:43:11.000Z</time>
      </trkpt>
      <trkpt lat="42.781365" lon="-7.944884">
        <ele>617.8</ele>
        <time>1970-01-01T00:43:12.000Z</time>
      </trkpt>
      <trkpt lat="42.781331" lon="-7.944889">
        <ele>617.7</ele>
        <time>1970-01-01T00:43:13.000Z</time>
      </trkpt>
      <trkpt lat="42.7813" lon="-7.944892">
        <ele>617.5</ele>
        <time>1970-01-01T00:43:14.000Z</time>
      </trkpt>
      <trkpt lat="42.781268" lon="-7.944894">
        <ele>617.4</ele>
        <time>1970-01-01T00:43:15.000Z</time>
      </trkpt>
      <trkpt lat="42.781235" lon="-7.944899">
        <ele>617.3</ele>
        <time>1970-01-01T00:43:16.000Z</time>
      </trkpt>
      <trkpt lat="42.7812" lon="-7.944906">
        <ele>617.2</ele>
        <time>1970-01-01T00:43:17.000Z</time>
      </trkpt>
      <trkpt lat="42.781165" lon="-7.944912">
        <ele>617.2</ele>
        <time>1970-01-01T00:43:18.000Z</time>
      </trkpt>
      <trkpt lat="42.781128" lon="-7.944917">
        <ele>617.2</ele>
        <time>1970-01-01T00:43:19.000Z</time>
      </trkpt>
      <trkpt lat="42.781091" lon="-7.944922">
        <ele>617.2</ele>
        <time>1970-01-01T00:43:20.000Z</time>
      </trkpt>
      <trkpt lat="42.781053" lon="-7.944927">
        <ele>617.3</ele>
        <time>1970-01-01T00:43:21.000Z</time>
      </trkpt>
      <trkpt lat="42.781016" lon="-7.944932">
        <ele>617.3</ele>
        <time>1970-01-01T00:43:22.000Z</time>
      </trkpt>
      <trkpt lat="42.780978" lon="-7.944937">
        <ele>617.4</ele>
        <time>1970-01-01T00:43:23.000Z</time>
      </trkpt>
      <trkpt lat="42.78094" lon="-7.944941">
        <ele>617.5</ele>
        <time>1970-01-01T00:43:24.000Z</time>
      </trkpt>
      <trkpt lat="42.780904" lon="-7.944947">
        <ele>617.7</ele>
        <time>1970-01-01T00:43:25.000Z</time>
      </trkpt>
      <trkpt lat="42.780869" lon="-7.944954">
        <ele>617.9</ele>
        <time>1970-01-01T00:43:26.000Z</time>
      </trkpt>
      <trkpt lat="42.780833" lon="-7.94496">
        <ele>618</ele>
        <time>1970-01-01T00:43:27.000Z</time>
      </trkpt>
      <trkpt lat="42.780797" lon="-7.944964">
        <ele>618.1</ele>
        <time>1970-01-01T00:43:28.000Z</time>
      </trkpt>
      <trkpt lat="42.78076" lon="-7.94497">
        <ele>618.2</ele>
        <time>1970-01-01T00:43:29.000Z</time>
      </trkpt>
      <trkpt lat="42.780724" lon="-7.944978">
        <ele>618.3</ele>
        <time>1970-01-01T00:43:30.000Z</time>
      </trkpt>
      <trkpt lat="42.780687" lon="-7.944985">
        <ele>618.5</ele>
        <time>1970-01-01T00:43:31.000Z</time>
      </trkpt>
      <trkpt lat="42.780649" lon="-7.94499">
        <ele>618.6</ele>
        <time>1970-01-01T00:43:32.000Z</time>
      </trkpt>
      <trkpt lat="42.780612" lon="-7.944994">
        <ele>618.6</ele>
        <time>1970-01-01T00:43:33.000Z</time>
      </trkpt>
      <trkpt lat="42.780574" lon="-7.945">
        <ele>618.7</ele>
        <time>1970-01-01T00:43:34.000Z</time>
      </trkpt>
      <trkpt lat="42.780536" lon="-7.945006">
        <ele>618.8</ele>
        <time>1970-01-01T00:43:35.000Z</time>
      </trkpt>
      <trkpt lat="42.780499" lon="-7.945012">
        <ele>618.9</ele>
        <time>1970-01-01T00:43:36.000Z</time>
      </trkpt>
      <trkpt lat="42.780461" lon="-7.945019">
        <ele>618.8</ele>
        <time>1970-01-01T00:43:37.000Z</time>
      </trkpt>
      <trkpt lat="42.780423" lon="-7.945026">
        <ele>618.8</ele>
        <time>1970-01-01T00:43:38.000Z</time>
      </trkpt>
      <trkpt lat="42.780385" lon="-7.945033">
        <ele>618.8</ele>
        <time>1970-01-01T00:43:39.000Z</time>
      </trkpt>
      <trkpt lat="42.780348" lon="-7.945039">
        <ele>618.9</ele>
        <time>1970-01-01T00:43:40.000Z</time>
      </trkpt>
      <trkpt lat="42.78031" lon="-7.945044">
        <ele>618.9</ele>
        <time>1970-01-01T00:43:41.000Z</time>
      </trkpt>
      <trkpt lat="42.780273" lon="-7.945049">
        <ele>618.8</ele>
        <time>1970-01-01T00:43:42.000Z</time>
      </trkpt>
      <trkpt lat="42.780236" lon="-7.945055">
        <ele>618.8</ele>
        <time>1970-01-01T00:43:43.000Z</time>
      </trkpt>
      <trkpt lat="42.780198" lon="-7.94506">
        <ele>619</ele>
        <time>1970-01-01T00:43:44.000Z</time>
      </trkpt>
      <trkpt lat="42.780161" lon="-7.945066">
        <ele>619.1</ele>
        <time>1970-01-01T00:43:45.000Z</time>
      </trkpt>
      <trkpt lat="42.780124" lon="-7.945072">
        <ele>619.1</ele>
        <time>1970-01-01T00:43:46.000Z</time>
      </trkpt>
      <trkpt lat="42.780087" lon="-7.945079">
        <ele>619.1</ele>
        <time>1970-01-01T00:43:47.000Z</time>
      </trkpt>
      <trkpt lat="42.780051" lon="-7.945086">
        <ele>619.3</ele>
        <time>1970-01-01T00:43:48.000Z</time>
      </trkpt>
      <trkpt lat="42.780013" lon="-7.945092">
        <ele>619.5</ele>
        <time>1970-01-01T00:43:49.000Z</time>
      </trkpt>
      <trkpt lat="42.779977" lon="-7.945095">
        <ele>619.7</ele>
        <time>1970-01-01T00:43:50.000Z</time>
      </trkpt>
      <trkpt lat="42.77994" lon="-7.945098">
        <ele>619.7</ele>
        <time>1970-01-01T00:43:51.000Z</time>
      </trkpt>
      <trkpt lat="42.779904" lon="-7.945103">
        <ele>619.7</ele>
        <time>1970-01-01T00:43:52.000Z</time>
      </trkpt>
      <trkpt lat="42.779867" lon="-7.945109">
        <ele>619.9</ele>
        <time>1970-01-01T00:43:53.000Z</time>
      </trkpt>
      <trkpt lat="42.779832" lon="-7.945117">
        <ele>620.1</ele>
        <time>1970-01-01T00:43:54.000Z</time>
      </trkpt>
      <trkpt lat="42.779799" lon="-7.945123">
        <ele>620.2</ele>
        <time>1970-01-01T00:43:55.000Z</time>
      </trkpt>
      <trkpt lat="42.779768" lon="-7.945121">
        <ele>620.1</ele>
        <time>1970-01-01T00:43:56.000Z</time>
      </trkpt>
      <trkpt lat="42.779745" lon="-7.945108">
        <ele>619.9</ele>
        <time>1970-01-01T00:43:57.000Z</time>
      </trkpt>
      <trkpt lat="42.779727" lon="-7.945085">
        <ele>619.3</ele>
        <time>1970-01-01T00:43:58.000Z</time>
      </trkpt>
      <trkpt lat="42.779715" lon="-7.945057">
        <ele>619.1</ele>
        <time>1970-01-01T00:43:59.000Z</time>
      </trkpt>
      <trkpt lat="42.779709" lon="-7.945017">
        <ele>618.5</ele>
        <time>1970-01-01T00:44:00.000Z</time>
      </trkpt>
      <trkpt lat="42.779705" lon="-7.944962">
        <ele>617.8</ele>
        <time>1970-01-01T00:44:01.000Z</time>
      </trkpt>
      <trkpt lat="42.779699" lon="-7.9449">
        <ele>616.8</ele>
        <time>1970-01-01T00:44:02.000Z</time>
      </trkpt>
      <trkpt lat="42.779691" lon="-7.944833">
        <ele>616.4</ele>
        <time>1970-01-01T00:44:03.000Z</time>
      </trkpt>
      <trkpt lat="42.779682" lon="-7.944762">
        <ele>615.5</ele>
        <time>1970-01-01T00:44:04.000Z</time>
      </trkpt>
      <trkpt lat="42.779674" lon="-7.94469">
        <ele>614.9</ele>
        <time>1970-01-01T00:44:05.000Z</time>
      </trkpt>
      <trkpt lat="42.779663" lon="-7.944613">
        <ele>614.5</ele>
        <time>1970-01-01T00:44:06.000Z</time>
      </trkpt>
      <trkpt lat="42.779653" lon="-7.94453">
        <ele>614.1</ele>
        <time>1970-01-01T00:44:07.000Z</time>
      </trkpt>
      <trkpt lat="42.779643" lon="-7.944456">
        <ele>613.9</ele>
        <time>1970-01-01T00:44:08.000Z</time>
      </trkpt>
      <trkpt lat="42.779634" lon="-7.944384">
        <ele>613.7</ele>
        <time>1970-01-01T00:44:09.000Z</time>
      </trkpt>
      <trkpt lat="42.779622" lon="-7.94431">
        <ele>613.6</ele>
        <time>1970-01-01T00:44:10.000Z</time>
      </trkpt>
      <trkpt lat="42.779615" lon="-7.944241">
        <ele>613.5</ele>
        <time>1970-01-01T00:44:11.000Z</time>
      </trkpt>
      <trkpt lat="42.779605" lon="-7.944169">
        <ele>613.4</ele>
        <time>1970-01-01T00:44:12.000Z</time>
      </trkpt>
      <trkpt lat="42.779596" lon="-7.944094">
        <ele>613.3</ele>
        <time>1970-01-01T00:44:13.000Z</time>
      </trkpt>
      <trkpt lat="42.779588" lon="-7.944018">
        <ele>613.2</ele>
        <time>1970-01-01T00:44:14.000Z</time>
      </trkpt>
      <trkpt lat="42.779582" lon="-7.943942">
        <ele>613.1</ele>
        <time>1970-01-01T00:44:15.000Z</time>
      </trkpt>
      <trkpt lat="42.779576" lon="-7.943869">
        <ele>613</ele>
        <time>1970-01-01T00:44:16.000Z</time>
      </trkpt>
      <trkpt lat="42.779567" lon="-7.943797">
        <ele>613</ele>
        <time>1970-01-01T00:44:17.000Z</time>
      </trkpt>
      <trkpt lat="42.779558" lon="-7.943724">
        <ele>612.8</ele>
        <time>1970-01-01T00:44:18.000Z</time>
      </trkpt>
      <trkpt lat="42.779549" lon="-7.943651">
        <ele>612.7</ele>
        <time>1970-01-01T00:44:19.000Z</time>
      </trkpt>
      <trkpt lat="42.779541" lon="-7.943579">
        <ele>612.7</ele>
        <time>1970-01-01T00:44:20.000Z</time>
      </trkpt>
      <trkpt lat="42.779532" lon="-7.943507">
        <ele>612.7</ele>
        <time>1970-01-01T00:44:21.000Z</time>
      </trkpt>
      <trkpt lat="42.779521" lon="-7.943437">
        <ele>612.5</ele>
        <time>1970-01-01T00:44:22.000Z</time>
      </trkpt>
      <trkpt lat="42.77951" lon="-7.943365">
        <ele>612.5</ele>
        <time>1970-01-01T00:44:23.000Z</time>
      </trkpt>
      <trkpt lat="42.779501" lon="-7.943293">
        <ele>612.4</ele>
        <time>1970-01-01T00:44:24.000Z</time>
      </trkpt>
      <trkpt lat="42.779492" lon="-7.943223">
        <ele>612.3</ele>
        <time>1970-01-01T00:44:25.000Z</time>
      </trkpt>
      <trkpt lat="42.779485" lon="-7.943152">
        <ele>612.2</ele>
        <time>1970-01-01T00:44:26.000Z</time>
      </trkpt>
      <trkpt lat="42.779473" lon="-7.943086">
        <ele>612.2</ele>
        <time>1970-01-01T00:44:27.000Z</time>
      </trkpt>
      <trkpt lat="42.779462" lon="-7.943018">
        <ele>612.1</ele>
        <time>1970-01-01T00:44:28.000Z</time>
      </trkpt>
      <trkpt lat="42.779452" lon="-7.942948">
        <ele>612.1</ele>
        <time>1970-01-01T00:44:29.000Z</time>
      </trkpt>
      <trkpt lat="42.77944" lon="-7.942879">
        <ele>612.1</ele>
        <time>1970-01-01T00:44:30.000Z</time>
      </trkpt>
      <trkpt lat="42.779433" lon="-7.942808">
        <ele>612.1</ele>
        <time>1970-01-01T00:44:31.000Z</time>
      </trkpt>
      <trkpt lat="42.779434" lon="-7.942738">
        <ele>612.1</ele>
        <time>1970-01-01T00:44:32.000Z</time>
      </trkpt>
      <trkpt lat="42.779442" lon="-7.942664">
        <ele>612.1</ele>
        <time>1970-01-01T00:44:33.000Z</time>
      </trkpt>
      <trkpt lat="42.779455" lon="-7.942599">
        <ele>612</ele>
        <time>1970-01-01T00:44:34.000Z</time>
      </trkpt>
      <trkpt lat="42.779469" lon="-7.94254">
        <ele>612.2</ele>
        <time>1970-01-01T00:44:35.000Z</time>
      </trkpt>
      <trkpt lat="42.779483" lon="-7.942485">
        <ele>612.1</ele>
        <time>1970-01-01T00:44:36.000Z</time>
      </trkpt>
      <trkpt lat="42.779496" lon="-7.942438">
        <ele>612.3</ele>
        <time>1970-01-01T00:44:37.000Z</time>
      </trkpt>
      <trkpt lat="42.779509" lon="-7.942392">
        <ele>612.2</ele>
        <time>1970-01-01T00:44:38.000Z</time>
      </trkpt>
      <trkpt lat="42.77952" lon="-7.942348">
        <ele>612.1</ele>
        <time>1970-01-01T00:44:39.000Z</time>
      </trkpt>
      <trkpt lat="42.779534" lon="-7.942308">
        <ele>612.2</ele>
        <time>1970-01-01T00:44:40.000Z</time>
      </trkpt>
      <trkpt lat="42.779548" lon="-7.942269">
        <ele>612.1</ele>
        <time>1970-01-01T00:44:41.000Z</time>
      </trkpt>
      <trkpt lat="42.779559" lon="-7.942232">
        <ele>612.3</ele>
        <time>1970-01-01T00:44:42.000Z</time>
      </trkpt>
      <trkpt lat="42.779568" lon="-7.942194">
        <ele>612.2</ele>
        <time>1970-01-01T00:44:43.000Z</time>
      </trkpt>
      <trkpt lat="42.779584" lon="-7.942154">
        <ele>612.1</ele>
        <time>1970-01-01T00:44:44.000Z</time>
      </trkpt>
      <trkpt lat="42.779597" lon="-7.942118">
        <ele>612.2</ele>
        <time>1970-01-01T00:44:45.000Z</time>
      </trkpt>
      <trkpt lat="42.77961" lon="-7.942082">
        <ele>612.2</ele>
        <time>1970-01-01T00:44:46.000Z</time>
      </trkpt>
      <trkpt lat="42.779622" lon="-7.942044">
        <ele>612.4</ele>
        <time>1970-01-01T00:44:47.000Z</time>
      </trkpt>
      <trkpt lat="42.779632" lon="-7.942008">
        <ele>612.3</ele>
        <time>1970-01-01T00:44:48.000Z</time>
      </trkpt>
      <trkpt lat="42.779644" lon="-7.941974">
        <ele>612.3</ele>
        <time>1970-01-01T00:44:49.000Z</time>
      </trkpt>
      <trkpt lat="42.779661" lon="-7.941942">
        <ele>612.4</ele>
        <time>1970-01-01T00:44:50.000Z</time>
      </trkpt>
      <trkpt lat="42.779679" lon="-7.941911">
        <ele>612.4</ele>
        <time>1970-01-01T00:44:51.000Z</time>
      </trkpt>
      <trkpt lat="42.779695" lon="-7.941878">
        <ele>612.6</ele>
        <time>1970-01-01T00:44:52.000Z</time>
      </trkpt>
      <trkpt lat="42.77971" lon="-7.941844">
        <ele>612.6</ele>
        <time>1970-01-01T00:44:53.000Z</time>
      </trkpt>
      <trkpt lat="42.779722" lon="-7.941807">
        <ele>612.8</ele>
        <time>1970-01-01T00:44:54.000Z</time>
      </trkpt>
      <trkpt lat="42.779735" lon="-7.941777">
        <ele>612.8</ele>
        <time>1970-01-01T00:44:55.000Z</time>
      </trkpt>
      <trkpt lat="42.779744" lon="-7.941749">
        <ele>612.8</ele>
        <time>1970-01-01T00:44:56.000Z</time>
      </trkpt>
      <trkpt lat="42.779752" lon="-7.94171">
        <ele>613</ele>
        <time>1970-01-01T00:44:57.000Z</time>
      </trkpt>
      <trkpt lat="42.77976" lon="-7.941675">
        <ele>613</ele>
        <time>1970-01-01T00:44:58.000Z</time>
      </trkpt>
      <trkpt lat="42.779766" lon="-7.941652">
        <ele>613</ele>
        <time>1970-01-01T00:44:59.000Z</time>
      </trkpt>
      <trkpt lat="42.779776" lon="-7.941629">
        <ele>613</ele>
        <time>1970-01-01T00:45:00.000Z</time>
      </trkpt>
      <trkpt lat="42.779787" lon="-7.941603">
        <ele>613.3</ele>
        <time>1970-01-01T00:45:01.000Z</time>
      </trkpt>
      <trkpt lat="42.779794" lon="-7.941568">
        <ele>613.3</ele>
        <time>1970-01-01T00:45:02.000Z</time>
      </trkpt>
      <trkpt lat="42.779795" lon="-7.94153">
        <ele>613.3</ele>
        <time>1970-01-01T00:45:03.000Z</time>
      </trkpt>
      <trkpt lat="42.779803" lon="-7.941484">
        <ele>613.3</ele>
        <time>1970-01-01T00:45:04.000Z</time>
      </trkpt>
      <trkpt lat="42.779804" lon="-7.941446">
        <ele>613.3</ele>
        <time>1970-01-01T00:45:05.000Z</time>
      </trkpt>
      <trkpt lat="42.779803" lon="-7.941411">
        <ele>613.2</ele>
        <time>1970-01-01T00:45:06.000Z</time>
      </trkpt>
      <trkpt lat="42.779805" lon="-7.941362">
        <ele>613.1</ele>
        <time>1970-01-01T00:45:07.000Z</time>
      </trkpt>
      <trkpt lat="42.779809" lon="-7.941328">
        <ele>613.1</ele>
        <time>1970-01-01T00:45:08.000Z</time>
      </trkpt>
      <trkpt lat="42.779824" lon="-7.941307">
        <ele>613.2</ele>
        <time>1970-01-01T00:45:09.000Z</time>
      </trkpt>
      <trkpt lat="42.77984" lon="-7.941274">
        <ele>613.2</ele>
        <time>1970-01-01T00:45:10.000Z</time>
      </trkpt>
      <trkpt lat="42.779854" lon="-7.941242">
        <ele>613.2</ele>
        <time>1970-01-01T00:45:11.000Z</time>
      </trkpt>
      <trkpt lat="42.779865" lon="-7.941211">
        <ele>613.1</ele>
        <time>1970-01-01T00:45:12.000Z</time>
      </trkpt>
      <trkpt lat="42.779881" lon="-7.941173">
        <ele>613.1</ele>
        <time>1970-01-01T00:45:13.000Z</time>
      </trkpt>
      <trkpt lat="42.779895" lon="-7.94113">
        <ele>612.9</ele>
        <time>1970-01-01T00:45:14.000Z</time>
      </trkpt>
      <trkpt lat="42.779917" lon="-7.941099">
        <ele>613</ele>
        <time>1970-01-01T00:45:15.000Z</time>
      </trkpt>
      <trkpt lat="42.779941" lon="-7.941058">
        <ele>613</ele>
        <time>1970-01-01T00:45:16.000Z</time>
      </trkpt>
      <trkpt lat="42.779966" lon="-7.941015">
        <ele>612.7</ele>
        <time>1970-01-01T00:45:17.000Z</time>
      </trkpt>
      <trkpt lat="42.779992" lon="-7.940978">
        <ele>612.6</ele>
        <time>1970-01-01T00:45:18.000Z</time>
      </trkpt>
      <trkpt lat="42.780016" lon="-7.940939">
        <ele>612.4</ele>
        <time>1970-01-01T00:45:19.000Z</time>
      </trkpt>
      <trkpt lat="42.780041" lon="-7.940908">
        <ele>612.2</ele>
        <time>1970-01-01T00:45:20.000Z</time>
      </trkpt>
      <trkpt lat="42.780059" lon="-7.940875">
        <ele>611.9</ele>
        <time>1970-01-01T00:45:21.000Z</time>
      </trkpt>
      <trkpt lat="42.780078" lon="-7.940837">
        <ele>611.7</ele>
        <time>1970-01-01T00:45:22.000Z</time>
      </trkpt>
      <trkpt lat="42.780098" lon="-7.940798">
        <ele>611.8</ele>
        <time>1970-01-01T00:45:23.000Z</time>
      </trkpt>
      <trkpt lat="42.780119" lon="-7.940757">
        <ele>611.5</ele>
        <time>1970-01-01T00:45:24.000Z</time>
      </trkpt>
      <trkpt lat="42.780148" lon="-7.940707">
        <ele>611</ele>
        <time>1970-01-01T00:45:25.000Z</time>
      </trkpt>
      <trkpt lat="42.780172" lon="-7.94065">
        <ele>610.8</ele>
        <time>1970-01-01T00:45:26.000Z</time>
      </trkpt>
      <trkpt lat="42.780195" lon="-7.940595">
        <ele>610.6</ele>
        <time>1970-01-01T00:45:27.000Z</time>
      </trkpt>
      <trkpt lat="42.780213" lon="-7.940555">
        <ele>610.2</ele>
        <time>1970-01-01T00:45:28.000Z</time>
      </trkpt>
      <trkpt lat="42.780244" lon="-7.940493">
        <ele>609.5</ele>
        <time>1970-01-01T00:45:29.000Z</time>
      </trkpt>
      <trkpt lat="42.780263" lon="-7.940451">
        <ele>609.2</ele>
        <time>1970-01-01T00:45:30.000Z</time>
      </trkpt>
      <trkpt lat="42.780281" lon="-7.9404">
        <ele>608.7</ele>
        <time>1970-01-01T00:45:31.000Z</time>
      </trkpt>
      <trkpt lat="42.78029" lon="-7.940362">
        <ele>608.4</ele>
        <time>1970-01-01T00:45:32.000Z</time>
      </trkpt>
      <trkpt lat="42.7803" lon="-7.940339">
        <ele>608.4</ele>
        <time>1970-01-01T00:45:33.000Z</time>
      </trkpt>
      <trkpt lat="42.780328" lon="-7.9403">
        <ele>608.1</ele>
        <time>1970-01-01T00:45:34.000Z</time>
      </trkpt>
      <trkpt lat="42.780359" lon="-7.940266">
        <ele>607.8</ele>
        <time>1970-01-01T00:45:35.000Z</time>
      </trkpt>
      <trkpt lat="42.780385" lon="-7.940235">
        <ele>607.4</ele>
        <time>1970-01-01T00:45:36.000Z</time>
      </trkpt>
      <trkpt lat="42.780417" lon="-7.940185">
        <ele>607.1</ele>
        <time>1970-01-01T00:45:37.000Z</time>
      </trkpt>
      <trkpt lat="42.780449" lon="-7.940147">
        <ele>606.7</ele>
        <time>1970-01-01T00:45:38.000Z</time>
      </trkpt>
      <trkpt lat="42.780493" lon="-7.940078">
        <ele>606.3</ele>
        <time>1970-01-01T00:45:39.000Z</time>
      </trkpt>
      <trkpt lat="42.780523" lon="-7.940028">
        <ele>605.9</ele>
        <time>1970-01-01T00:45:40.000Z</time>
      </trkpt>
      <trkpt lat="42.780556" lon="-7.939988">
        <ele>605.4</ele>
        <time>1970-01-01T00:45:41.000Z</time>
      </trkpt>
      <trkpt lat="42.780582" lon="-7.939946">
        <ele>605</ele>
        <time>1970-01-01T00:45:42.000Z</time>
      </trkpt>
      <trkpt lat="42.780607" lon="-7.939913">
        <ele>604.6</ele>
        <time>1970-01-01T00:45:43.000Z</time>
      </trkpt>
      <trkpt lat="42.780628" lon="-7.939878">
        <ele>604</ele>
        <time>1970-01-01T00:45:44.000Z</time>
      </trkpt>
      <trkpt lat="42.780657" lon="-7.939846">
        <ele>603.6</ele>
        <time>1970-01-01T00:45:45.000Z</time>
      </trkpt>
      <trkpt lat="42.780695" lon="-7.939812">
        <ele>603.7</ele>
        <time>1970-01-01T00:45:46.000Z</time>
      </trkpt>
      <trkpt lat="42.780732" lon="-7.939739">
        <ele>602.6</ele>
        <time>1970-01-01T00:45:47.000Z</time>
      </trkpt>
      <trkpt lat="42.780762" lon="-7.939715">
        <ele>602</ele>
        <time>1970-01-01T00:45:48.000Z</time>
      </trkpt>
      <trkpt lat="42.780801" lon="-7.939652">
        <ele>601.3</ele>
        <time>1970-01-01T00:45:49.000Z</time>
      </trkpt>
      <trkpt lat="42.780836" lon="-7.939619">
        <ele>600.6</ele>
        <time>1970-01-01T00:45:50.000Z</time>
      </trkpt>
      <trkpt lat="42.780877" lon="-7.939583">
        <ele>599.9</ele>
        <time>1970-01-01T00:45:51.000Z</time>
      </trkpt>
      <trkpt lat="42.780904" lon="-7.939565">
        <ele>599.8</ele>
        <time>1970-01-01T00:45:52.000Z</time>
      </trkpt>
      <trkpt lat="42.78093" lon="-7.939528">
        <ele>599.1</ele>
        <time>1970-01-01T00:45:53.000Z</time>
      </trkpt>
      <trkpt lat="42.780943" lon="-7.93949">
        <ele>598.5</ele>
        <time>1970-01-01T00:45:54.000Z</time>
      </trkpt>
      <trkpt lat="42.780969" lon="-7.939465">
        <ele>597.9</ele>
        <time>1970-01-01T00:45:55.000Z</time>
      </trkpt>
      <trkpt lat="42.780989" lon="-7.939451">
        <ele>597.8</ele>
        <time>1970-01-01T00:45:56.000Z</time>
      </trkpt>
      <trkpt lat="42.781017" lon="-7.939448">
        <ele>597.6</ele>
        <time>1970-01-01T00:45:57.000Z</time>
      </trkpt>
      <trkpt lat="42.781056" lon="-7.939382">
        <ele>597</ele>
        <time>1970-01-01T00:45:58.000Z</time>
      </trkpt>
      <trkpt lat="42.78108" lon="-7.939349">
        <ele>596.4</ele>
        <time>1970-01-01T00:45:59.000Z</time>
      </trkpt>
      <trkpt lat="42.781112" lon="-7.939314">
        <ele>595.9</ele>
        <time>1970-01-01T00:46:00.000Z</time>
      </trkpt>
      <trkpt lat="42.781143" lon="-7.93928">
        <ele>595.3</ele>
        <time>1970-01-01T00:46:01.000Z</time>
      </trkpt>
      <trkpt lat="42.781181" lon="-7.939243">
        <ele>594.7</ele>
        <time>1970-01-01T00:46:02.000Z</time>
      </trkpt>
      <trkpt lat="42.781222" lon="-7.939207">
        <ele>594</ele>
        <time>1970-01-01T00:46:03.000Z</time>
      </trkpt>
      <trkpt lat="42.781256" lon="-7.939174">
        <ele>593.9</ele>
        <time>1970-01-01T00:46:04.000Z</time>
      </trkpt>
      <trkpt lat="42.781286" lon="-7.939143">
        <ele>593.3</ele>
        <time>1970-01-01T00:46:05.000Z</time>
      </trkpt>
      <trkpt lat="42.781315" lon="-7.9391">
        <ele>592.7</ele>
        <time>1970-01-01T00:46:06.000Z</time>
      </trkpt>
      <trkpt lat="42.781343" lon="-7.939042">
        <ele>592.3</ele>
        <time>1970-01-01T00:46:07.000Z</time>
      </trkpt>
      <trkpt lat="42.781376" lon="-7.938998">
        <ele>591.8</ele>
        <time>1970-01-01T00:46:08.000Z</time>
      </trkpt>
      <trkpt lat="42.7814" lon="-7.938931">
        <ele>591.2</ele>
        <time>1970-01-01T00:46:09.000Z</time>
      </trkpt>
      <trkpt lat="42.781417" lon="-7.938862">
        <ele>590.8</ele>
        <time>1970-01-01T00:46:10.000Z</time>
      </trkpt>
      <trkpt lat="42.781427" lon="-7.938805">
        <ele>590.5</ele>
        <time>1970-01-01T00:46:11.000Z</time>
      </trkpt>
      <trkpt lat="42.781438" lon="-7.938739">
        <ele>590.3</ele>
        <time>1970-01-01T00:46:12.000Z</time>
      </trkpt>
      <trkpt lat="42.781453" lon="-7.938679">
        <ele>589.8</ele>
        <time>1970-01-01T00:46:13.000Z</time>
      </trkpt>
      <trkpt lat="42.781472" lon="-7.938614">
        <ele>589.7</ele>
        <time>1970-01-01T00:46:14.000Z</time>
      </trkpt>
      <trkpt lat="42.781496" lon="-7.938548">
        <ele>589.3</ele>
        <time>1970-01-01T00:46:15.000Z</time>
      </trkpt>
      <trkpt lat="42.781521" lon="-7.938487">
        <ele>589.1</ele>
        <time>1970-01-01T00:46:16.000Z</time>
      </trkpt>
      <trkpt lat="42.781544" lon="-7.938429">
        <ele>588.8</ele>
        <time>1970-01-01T00:46:17.000Z</time>
      </trkpt>
      <trkpt lat="42.781569" lon="-7.938372">
        <ele>588.7</ele>
        <time>1970-01-01T00:46:18.000Z</time>
      </trkpt>
      <trkpt lat="42.781594" lon="-7.938315">
        <ele>588.5</ele>
        <time>1970-01-01T00:46:19.000Z</time>
      </trkpt>
      <trkpt lat="42.781608" lon="-7.938254">
        <ele>588.2</ele>
        <time>1970-01-01T00:46:20.000Z</time>
      </trkpt>
      <trkpt lat="42.781622" lon="-7.938195">
        <ele>588.1</ele>
        <time>1970-01-01T00:46:21.000Z</time>
      </trkpt>
      <trkpt lat="42.781637" lon="-7.938132">
        <ele>587.9</ele>
        <time>1970-01-01T00:46:22.000Z</time>
      </trkpt>
      <trkpt lat="42.781649" lon="-7.938076">
        <ele>587.7</ele>
        <time>1970-01-01T00:46:23.000Z</time>
      </trkpt>
      <trkpt lat="42.781657" lon="-7.938023">
        <ele>587.6</ele>
        <time>1970-01-01T00:46:24.000Z</time>
      </trkpt>
      <trkpt lat="42.781672" lon="-7.937975">
        <ele>587.4</ele>
        <time>1970-01-01T00:46:25.000Z</time>
      </trkpt>
      <trkpt lat="42.781698" lon="-7.937943">
        <ele>587.4</ele>
        <time>1970-01-01T00:46:26.000Z</time>
      </trkpt>
      <trkpt lat="42.781733" lon="-7.937917">
        <ele>587.1</ele>
        <time>1970-01-01T00:46:27.000Z</time>
      </trkpt>
      <trkpt lat="42.781766" lon="-7.937901">
        <ele>587</ele>
        <time>1970-01-01T00:46:28.000Z</time>
      </trkpt>
      <trkpt lat="42.781805" lon="-7.937891">
        <ele>586.9</ele>
        <time>1970-01-01T00:46:29.000Z</time>
      </trkpt>
      <trkpt lat="42.781838" lon="-7.937887">
        <ele>586.8</ele>
        <time>1970-01-01T00:46:30.000Z</time>
      </trkpt>
      <trkpt lat="42.781874" lon="-7.937888">
        <ele>586.7</ele>
        <time>1970-01-01T00:46:31.000Z</time>
      </trkpt>
      <trkpt lat="42.781912" lon="-7.93789">
        <ele>586.7</ele>
        <time>1970-01-01T00:46:32.000Z</time>
      </trkpt>
      <trkpt lat="42.781956" lon="-7.93789">
        <ele>586.5</ele>
        <time>1970-01-01T00:46:33.000Z</time>
      </trkpt>
      <trkpt lat="42.781981" lon="-7.937893">
        <ele>586.5</ele>
        <time>1970-01-01T00:46:34.000Z</time>
      </trkpt>
      <trkpt lat="42.782" lon="-7.937888">
        <ele>586.5</ele>
        <time>1970-01-01T00:46:35.000Z</time>
      </trkpt>
      <trkpt lat="42.782021" lon="-7.937883">
        <ele>586.4</ele>
        <time>1970-01-01T00:46:36.000Z</time>
      </trkpt>
      <trkpt lat="42.782055" lon="-7.937882">
        <ele>586.3</ele>
        <time>1970-01-01T00:46:37.000Z</time>
      </trkpt>
      <trkpt lat="42.782083" lon="-7.937879">
        <ele>586.1</ele>
        <time>1970-01-01T00:46:38.000Z</time>
      </trkpt>
      <trkpt lat="42.78211" lon="-7.937868">
        <ele>586.1</ele>
        <time>1970-01-01T00:46:39.000Z</time>
      </trkpt>
      <trkpt lat="42.782126" lon="-7.937841">
        <ele>586.1</ele>
        <time>1970-01-01T00:46:40.000Z</time>
      </trkpt>
      <trkpt lat="42.782157" lon="-7.937816">
        <ele>585.8</ele>
        <time>1970-01-01T00:46:41.000Z</time>
      </trkpt>
      <trkpt lat="42.782184" lon="-7.937805">
        <ele>585.8</ele>
        <time>1970-01-01T00:46:42.000Z</time>
      </trkpt>
      <trkpt lat="42.782208" lon="-7.9378">
        <ele>585.8</ele>
        <time>1970-01-01T00:46:43.000Z</time>
      </trkpt>
      <trkpt lat="42.78226" lon="-7.937784">
        <ele>585.6</ele>
        <time>1970-01-01T00:46:44.000Z</time>
      </trkpt>
      <trkpt lat="42.782275" lon="-7.93776">
        <ele>585.5</ele>
        <time>1970-01-01T00:46:45.000Z</time>
      </trkpt>
      <trkpt lat="42.782299" lon="-7.937732">
        <ele>585.4</ele>
        <time>1970-01-01T00:46:46.000Z</time>
      </trkpt>
      <trkpt lat="42.782318" lon="-7.937723">
        <ele>585.4</ele>
        <time>1970-01-01T00:46:47.000Z</time>
      </trkpt>
      <trkpt lat="42.782348" lon="-7.937703">
        <ele>585.2</ele>
        <time>1970-01-01T00:46:48.000Z</time>
      </trkpt>
      <trkpt lat="42.782376" lon="-7.937684">
        <ele>585.2</ele>
        <time>1970-01-01T00:46:49.000Z</time>
      </trkpt>
      <trkpt lat="42.782402" lon="-7.937672">
        <ele>585.3</ele>
        <time>1970-01-01T00:46:50.000Z</time>
      </trkpt>
      <trkpt lat="42.782443" lon="-7.937658">
        <ele>585.1</ele>
        <time>1970-01-01T00:46:51.000Z</time>
      </trkpt>
      <trkpt lat="42.782477" lon="-7.937646">
        <ele>585.2</ele>
        <time>1970-01-01T00:46:52.000Z</time>
      </trkpt>
      <trkpt lat="42.782519" lon="-7.937608">
        <ele>585</ele>
        <time>1970-01-01T00:46:53.000Z</time>
      </trkpt>
      <trkpt lat="42.782537" lon="-7.937598">
        <ele>585.1</ele>
        <time>1970-01-01T00:46:54.000Z</time>
      </trkpt>
      <trkpt lat="42.782555" lon="-7.937587">
        <ele>585.1</ele>
        <time>1970-01-01T00:46:55.000Z</time>
      </trkpt>
      <trkpt lat="42.782559" lon="-7.937565">
        <ele>584.9</ele>
        <time>1970-01-01T00:46:56.000Z</time>
      </trkpt>
      <trkpt lat="42.782586" lon="-7.937538">
        <ele>585</ele>
        <time>1970-01-01T00:46:57.000Z</time>
      </trkpt>
      <trkpt lat="42.78261" lon="-7.937512">
        <ele>584.8</ele>
        <time>1970-01-01T00:46:58.000Z</time>
      </trkpt>
      <trkpt lat="42.782641" lon="-7.937499">
        <ele>584.9</ele>
        <time>1970-01-01T00:46:59.000Z</time>
      </trkpt>
      <trkpt lat="42.782664" lon="-7.937483">
        <ele>584.8</ele>
        <time>1970-01-01T00:47:00.000Z</time>
      </trkpt>
      <trkpt lat="42.782688" lon="-7.937458">
        <ele>584.9</ele>
        <time>1970-01-01T00:47:01.000Z</time>
      </trkpt>
      <trkpt lat="42.782735" lon="-7.937424">
        <ele>584.8</ele>
        <time>1970-01-01T00:47:02.000Z</time>
      </trkpt>
      <trkpt lat="42.782778" lon="-7.937391">
        <ele>584.9</ele>
        <time>1970-01-01T00:47:03.000Z</time>
      </trkpt>
      <trkpt lat="42.782792" lon="-7.937366">
        <ele>584.9</ele>
        <time>1970-01-01T00:47:04.000Z</time>
      </trkpt>
      <trkpt lat="42.782824" lon="-7.937336">
        <ele>584.9</ele>
        <time>1970-01-01T00:47:05.000Z</time>
      </trkpt>
      <trkpt lat="42.782842" lon="-7.937304">
        <ele>584.9</ele>
        <time>1970-01-01T00:47:06.000Z</time>
      </trkpt>
      <trkpt lat="42.782865" lon="-7.937275">
        <ele>584.7</ele>
        <time>1970-01-01T00:47:07.000Z</time>
      </trkpt>
      <trkpt lat="42.782883" lon="-7.937251">
        <ele>584.9</ele>
        <time>1970-01-01T00:47:08.000Z</time>
      </trkpt>
      <trkpt lat="42.782913" lon="-7.937225">
        <ele>584.9</ele>
        <time>1970-01-01T00:47:09.000Z</time>
      </trkpt>
      <trkpt lat="42.782941" lon="-7.937204">
        <ele>585</ele>
        <time>1970-01-01T00:47:10.000Z</time>
      </trkpt>
      <trkpt lat="42.782969" lon="-7.937175">
        <ele>585</ele>
        <time>1970-01-01T00:47:11.000Z</time>
      </trkpt>
      <trkpt lat="42.782998" lon="-7.937137">
        <ele>585.1</ele>
        <time>1970-01-01T00:47:12.000Z</time>
      </trkpt>
      <trkpt lat="42.78303" lon="-7.937103">
        <ele>585.2</ele>
        <time>1970-01-01T00:47:13.000Z</time>
      </trkpt>
      <trkpt lat="42.783058" lon="-7.937069">
        <ele>585.4</ele>
        <time>1970-01-01T00:47:14.000Z</time>
      </trkpt>
      <trkpt lat="42.783078" lon="-7.937023">
        <ele>585.2</ele>
        <time>1970-01-01T00:47:15.000Z</time>
      </trkpt>
      <trkpt lat="42.783098" lon="-7.936974">
        <ele>585.1</ele>
        <time>1970-01-01T00:47:16.000Z</time>
      </trkpt>
      <trkpt lat="42.783124" lon="-7.936883">
        <ele>584.9</ele>
        <time>1970-01-01T00:47:17.000Z</time>
      </trkpt>
      <trkpt lat="42.783133" lon="-7.936854">
        <ele>584.9</ele>
        <time>1970-01-01T00:47:18.000Z</time>
      </trkpt>
      <trkpt lat="42.783142" lon="-7.936825">
        <ele>584.7</ele>
        <time>1970-01-01T00:47:19.000Z</time>
      </trkpt>
      <trkpt lat="42.783156" lon="-7.936774">
        <ele>584.7</ele>
        <time>1970-01-01T00:47:20.000Z</time>
      </trkpt>
      <trkpt lat="42.783166" lon="-7.936731">
        <ele>584.5</ele>
        <time>1970-01-01T00:47:21.000Z</time>
      </trkpt>
      <trkpt lat="42.783175" lon="-7.936638">
        <ele>584.1</ele>
        <time>1970-01-01T00:47:22.000Z</time>
      </trkpt>
      <trkpt lat="42.783175" lon="-7.936638">
        <ele>584.1</ele>
        <time>1970-01-01T00:47:23.000Z</time>
      </trkpt>
      <trkpt lat="42.783183" lon="-7.936591">
        <ele>584</ele>
        <time>1970-01-01T00:47:24.000Z</time>
      </trkpt>
      <trkpt lat="42.783193" lon="-7.936546">
        <ele>583.9</ele>
        <time>1970-01-01T00:47:25.000Z</time>
      </trkpt>
      <trkpt lat="42.783235" lon="-7.936414">
        <ele>583.8</ele>
        <time>1970-01-01T00:47:26.000Z</time>
      </trkpt>
      <trkpt lat="42.783235" lon="-7.936384">
        <ele>583.8</ele>
        <time>1970-01-01T00:47:27.000Z</time>
      </trkpt>
      <trkpt lat="42.783235" lon="-7.936354">
        <ele>583.7</ele>
        <time>1970-01-01T00:47:28.000Z</time>
      </trkpt>
      <trkpt lat="42.783234" lon="-7.936296">
        <ele>583.7</ele>
        <time>1970-01-01T00:47:29.000Z</time>
      </trkpt>
      <trkpt lat="42.783236" lon="-7.936242">
        <ele>583.7</ele>
        <time>1970-01-01T00:47:30.000Z</time>
      </trkpt>
      <trkpt lat="42.78324" lon="-7.936192">
        <ele>583.8</ele>
        <time>1970-01-01T00:47:31.000Z</time>
      </trkpt>
      <trkpt lat="42.783245" lon="-7.936131">
        <ele>584.1</ele>
        <time>1970-01-01T00:47:32.000Z</time>
      </trkpt>
      <trkpt lat="42.783258" lon="-7.93601">
        <ele>584.5</ele>
        <time>1970-01-01T00:47:33.000Z</time>
      </trkpt>
      <trkpt lat="42.783262" lon="-7.935982">
        <ele>584.7</ele>
        <time>1970-01-01T00:47:34.000Z</time>
      </trkpt>
      <trkpt lat="42.783265" lon="-7.935954">
        <ele>584.7</ele>
        <time>1970-01-01T00:47:35.000Z</time>
      </trkpt>
      <trkpt lat="42.783271" lon="-7.935898">
        <ele>585.1</ele>
        <time>1970-01-01T00:47:36.000Z</time>
      </trkpt>
      <trkpt lat="42.783276" lon="-7.93584">
        <ele>585.4</ele>
        <time>1970-01-01T00:47:37.000Z</time>
      </trkpt>
      <trkpt lat="42.783281" lon="-7.93578">
        <ele>585.5</ele>
        <time>1970-01-01T00:47:38.000Z</time>
      </trkpt>
      <trkpt lat="42.78329" lon="-7.935713">
        <ele>585.8</ele>
        <time>1970-01-01T00:47:39.000Z</time>
      </trkpt>
      <trkpt lat="42.783301" lon="-7.935661">
        <ele>585.8</ele>
        <time>1970-01-01T00:47:40.000Z</time>
      </trkpt>
      <trkpt lat="42.783308" lon="-7.93561">
        <ele>585.8</ele>
        <time>1970-01-01T00:47:41.000Z</time>
      </trkpt>
      <trkpt lat="42.783321" lon="-7.935552">
        <ele>585.7</ele>
        <time>1970-01-01T00:47:42.000Z</time>
      </trkpt>
      <trkpt lat="42.783354" lon="-7.935412">
        <ele>585.1</ele>
        <time>1970-01-01T00:47:43.000Z</time>
      </trkpt>
      <trkpt lat="42.78336" lon="-7.93538">
        <ele>584.9</ele>
        <time>1970-01-01T00:47:44.000Z</time>
      </trkpt>
      <trkpt lat="42.783366" lon="-7.935348">
        <ele>584.9</ele>
        <time>1970-01-01T00:47:45.000Z</time>
      </trkpt>
      <trkpt lat="42.783379" lon="-7.935287">
        <ele>584.3</ele>
        <time>1970-01-01T00:47:46.000Z</time>
      </trkpt>
      <trkpt lat="42.783399" lon="-7.935227">
        <ele>584.1</ele>
        <time>1970-01-01T00:47:47.000Z</time>
      </trkpt>
      <trkpt lat="42.783419" lon="-7.935169">
        <ele>583.5</ele>
        <time>1970-01-01T00:47:48.000Z</time>
      </trkpt>
      <trkpt lat="42.783441" lon="-7.935112">
        <ele>583.3</ele>
        <time>1970-01-01T00:47:49.000Z</time>
      </trkpt>
      <trkpt lat="42.783462" lon="-7.935056">
        <ele>583.1</ele>
        <time>1970-01-01T00:47:50.000Z</time>
      </trkpt>
      <trkpt lat="42.783478" lon="-7.935002">
        <ele>582.9</ele>
        <time>1970-01-01T00:47:51.000Z</time>
      </trkpt>
      <trkpt lat="42.783508" lon="-7.934904">
        <ele>582.9</ele>
        <time>1970-01-01T00:47:52.000Z</time>
      </trkpt>
      <trkpt lat="42.783518" lon="-7.934868">
        <ele>582.9</ele>
        <time>1970-01-01T00:47:53.000Z</time>
      </trkpt>
      <trkpt lat="42.783528" lon="-7.934832">
        <ele>583</ele>
        <time>1970-01-01T00:47:54.000Z</time>
      </trkpt>
      <trkpt lat="42.783528" lon="-7.934832">
        <ele>582.9</ele>
        <time>1970-01-01T00:47:55.000Z</time>
      </trkpt>
      <trkpt lat="42.783536" lon="-7.934787">
        <ele>583</ele>
        <time>1970-01-01T00:47:56.000Z</time>
      </trkpt>
      <trkpt lat="42.78356" lon="-7.934673">
        <ele>583</ele>
        <time>1970-01-01T00:47:57.000Z</time>
      </trkpt>
      <trkpt lat="42.783568" lon="-7.934617">
        <ele>583.1</ele>
        <time>1970-01-01T00:47:58.000Z</time>
      </trkpt>
      <trkpt lat="42.783576" lon="-7.93456">
        <ele>583.1</ele>
        <time>1970-01-01T00:47:59.000Z</time>
      </trkpt>
      <trkpt lat="42.783583" lon="-7.934527">
        <ele>583.1</ele>
        <time>1970-01-01T00:48:00.000Z</time>
      </trkpt>
      <trkpt lat="42.78359" lon="-7.934494">
        <ele>583.1</ele>
        <time>1970-01-01T00:48:01.000Z</time>
      </trkpt>
      <trkpt lat="42.783603" lon="-7.934413">
        <ele>583.1</ele>
        <time>1970-01-01T00:48:02.000Z</time>
      </trkpt>
      <trkpt lat="42.783617" lon="-7.934338">
        <ele>583.1</ele>
        <time>1970-01-01T00:48:03.000Z</time>
      </trkpt>
      <trkpt lat="42.783633" lon="-7.934262">
        <ele>583</ele>
        <time>1970-01-01T00:48:04.000Z</time>
      </trkpt>
      <trkpt lat="42.783651" lon="-7.934183">
        <ele>582.8</ele>
        <time>1970-01-01T00:48:05.000Z</time>
      </trkpt>
      <trkpt lat="42.783668" lon="-7.934106">
        <ele>582.8</ele>
        <time>1970-01-01T00:48:06.000Z</time>
      </trkpt>
      <trkpt lat="42.783685" lon="-7.934032">
        <ele>582.5</ele>
        <time>1970-01-01T00:48:07.000Z</time>
      </trkpt>
      <trkpt lat="42.783699" lon="-7.933963">
        <ele>582.3</ele>
        <time>1970-01-01T00:48:08.000Z</time>
      </trkpt>
      <trkpt lat="42.783712" lon="-7.933907">
        <ele>582.1</ele>
        <time>1970-01-01T00:48:09.000Z</time>
      </trkpt>
      <trkpt lat="42.783722" lon="-7.933849">
        <ele>582</ele>
        <time>1970-01-01T00:48:10.000Z</time>
      </trkpt>
      <trkpt lat="42.783726" lon="-7.933736">
        <ele>581.5</ele>
        <time>1970-01-01T00:48:11.000Z</time>
      </trkpt>
      <trkpt lat="42.783731" lon="-7.933681">
        <ele>581.3</ele>
        <time>1970-01-01T00:48:12.000Z</time>
      </trkpt>
      <trkpt lat="42.783725" lon="-7.933643">
        <ele>581.1</ele>
        <time>1970-01-01T00:48:13.000Z</time>
      </trkpt>
      <trkpt lat="42.783711" lon="-7.933608">
        <ele>580.9</ele>
        <time>1970-01-01T00:48:14.000Z</time>
      </trkpt>
      <trkpt lat="42.783696" lon="-7.933573">
        <ele>580.8</ele>
        <time>1970-01-01T00:48:15.000Z</time>
      </trkpt>
      <trkpt lat="42.783682" lon="-7.933543">
        <ele>580.6</ele>
        <time>1970-01-01T00:48:16.000Z</time>
      </trkpt>
      <trkpt lat="42.783667" lon="-7.933513">
        <ele>580.6</ele>
        <time>1970-01-01T00:48:17.000Z</time>
      </trkpt>
      <trkpt lat="42.783654" lon="-7.933477">
        <ele>580.5</ele>
        <time>1970-01-01T00:48:18.000Z</time>
      </trkpt>
      <trkpt lat="42.783625" lon="-7.93345">
        <ele>580.3</ele>
        <time>1970-01-01T00:48:19.000Z</time>
      </trkpt>
      <trkpt lat="42.783599" lon="-7.93341">
        <ele>580.2</ele>
        <time>1970-01-01T00:48:20.000Z</time>
      </trkpt>
      <trkpt lat="42.783572" lon="-7.93337">
        <ele>580</ele>
        <time>1970-01-01T00:48:21.000Z</time>
      </trkpt>
      <trkpt lat="42.783547" lon="-7.933333">
        <ele>580</ele>
        <time>1970-01-01T00:48:22.000Z</time>
      </trkpt>
      <trkpt lat="42.783527" lon="-7.933293">
        <ele>579.8</ele>
        <time>1970-01-01T00:48:23.000Z</time>
      </trkpt>
      <trkpt lat="42.78351" lon="-7.933253">
        <ele>579.6</ele>
        <time>1970-01-01T00:48:24.000Z</time>
      </trkpt>
      <trkpt lat="42.78351" lon="-7.933253">
        <ele>579.6</ele>
        <time>1970-01-01T00:48:25.000Z</time>
      </trkpt>
      <trkpt lat="42.783499" lon="-7.933212">
        <ele>579.4</ele>
        <time>1970-01-01T00:48:26.000Z</time>
      </trkpt>
      <trkpt lat="42.783515" lon="-7.933152">
        <ele>579.1</ele>
        <time>1970-01-01T00:48:27.000Z</time>
      </trkpt>
      <trkpt lat="42.783531" lon="-7.933099">
        <ele>578.9</ele>
        <time>1970-01-01T00:48:28.000Z</time>
      </trkpt>
      <trkpt lat="42.783546" lon="-7.933046">
        <ele>578.8</ele>
        <time>1970-01-01T00:48:29.000Z</time>
      </trkpt>
      <trkpt lat="42.783576" lon="-7.932939">
        <ele>578.3</ele>
        <time>1970-01-01T00:48:30.000Z</time>
      </trkpt>
      <trkpt lat="42.783591" lon="-7.93287">
        <ele>578.2</ele>
        <time>1970-01-01T00:48:31.000Z</time>
      </trkpt>
      <trkpt lat="42.783601" lon="-7.932807">
        <ele>577.9</ele>
        <time>1970-01-01T00:48:32.000Z</time>
      </trkpt>
      <trkpt lat="42.783609" lon="-7.932772">
        <ele>577.8</ele>
        <time>1970-01-01T00:48:33.000Z</time>
      </trkpt>
      <trkpt lat="42.783616" lon="-7.932736">
        <ele>577.8</ele>
        <time>1970-01-01T00:48:34.000Z</time>
      </trkpt>
      <trkpt lat="42.78364" lon="-7.932609">
        <ele>577.5</ele>
        <time>1970-01-01T00:48:35.000Z</time>
      </trkpt>
      <trkpt lat="42.783649" lon="-7.932554">
        <ele>577.2</ele>
        <time>1970-01-01T00:48:36.000Z</time>
      </trkpt>
      <trkpt lat="42.783647" lon="-7.932475">
        <ele>577.1</ele>
        <time>1970-01-01T00:48:37.000Z</time>
      </trkpt>
      <trkpt lat="42.783643" lon="-7.932387">
        <ele>576.7</ele>
        <time>1970-01-01T00:48:38.000Z</time>
      </trkpt>
      <trkpt lat="42.783638" lon="-7.932351">
        <ele>576.6</ele>
        <time>1970-01-01T00:48:39.000Z</time>
      </trkpt>
      <trkpt lat="42.783633" lon="-7.932316">
        <ele>576.4</ele>
        <time>1970-01-01T00:48:40.000Z</time>
      </trkpt>
      <trkpt lat="42.783619" lon="-7.932241">
        <ele>575.9</ele>
        <time>1970-01-01T00:48:41.000Z</time>
      </trkpt>
      <trkpt lat="42.783596" lon="-7.932104">
        <ele>575.3</ele>
        <time>1970-01-01T00:48:42.000Z</time>
      </trkpt>
      <trkpt lat="42.783587" lon="-7.932031">
        <ele>574.8</ele>
        <time>1970-01-01T00:48:43.000Z</time>
      </trkpt>
      <trkpt lat="42.783583" lon="-7.931962">
        <ele>574.6</ele>
        <time>1970-01-01T00:48:44.000Z</time>
      </trkpt>
      <trkpt lat="42.783584" lon="-7.931894">
        <ele>574.3</ele>
        <time>1970-01-01T00:48:45.000Z</time>
      </trkpt>
      <trkpt lat="42.783583" lon="-7.931826">
        <ele>574.1</ele>
        <time>1970-01-01T00:48:46.000Z</time>
      </trkpt>
      <trkpt lat="42.783583" lon="-7.931764">
        <ele>574</ele>
        <time>1970-01-01T00:48:47.000Z</time>
      </trkpt>
      <trkpt lat="42.783582" lon="-7.931702">
        <ele>574</ele>
        <time>1970-01-01T00:48:48.000Z</time>
      </trkpt>
      <trkpt lat="42.783583" lon="-7.931645">
        <ele>573.9</ele>
        <time>1970-01-01T00:48:49.000Z</time>
      </trkpt>
      <trkpt lat="42.78358" lon="-7.931585">
        <ele>573.9</ele>
        <time>1970-01-01T00:48:50.000Z</time>
      </trkpt>
      <trkpt lat="42.783579" lon="-7.931533">
        <ele>573.9</ele>
        <time>1970-01-01T00:48:51.000Z</time>
      </trkpt>
      <trkpt lat="42.78359" lon="-7.931476">
        <ele>573.9</ele>
        <time>1970-01-01T00:48:52.000Z</time>
      </trkpt>
      <trkpt lat="42.783602" lon="-7.931434">
        <ele>574.2</ele>
        <time>1970-01-01T00:48:53.000Z</time>
      </trkpt>
      <trkpt lat="42.78362" lon="-7.931384">
        <ele>574.2</ele>
        <time>1970-01-01T00:48:54.000Z</time>
      </trkpt>
      <trkpt lat="42.783629" lon="-7.931361">
        <ele>574.4</ele>
        <time>1970-01-01T00:48:55.000Z</time>
      </trkpt>
      <trkpt lat="42.783637" lon="-7.931337">
        <ele>574.4</ele>
        <time>1970-01-01T00:48:56.000Z</time>
      </trkpt>
      <trkpt lat="42.783655" lon="-7.931295">
        <ele>574.7</ele>
        <time>1970-01-01T00:48:57.000Z</time>
      </trkpt>
      <trkpt lat="42.783696" lon="-7.931243">
        <ele>574.9</ele>
        <time>1970-01-01T00:48:58.000Z</time>
      </trkpt>
      <trkpt lat="42.783696" lon="-7.931243">
        <ele>574.8</ele>
        <time>1970-01-01T00:48:59.000Z</time>
      </trkpt>
      <trkpt lat="42.783715" lon="-7.931207">
        <ele>574.8</ele>
        <time>1970-01-01T00:49:00.000Z</time>
      </trkpt>
      <trkpt lat="42.783733" lon="-7.931175">
        <ele>575</ele>
        <time>1970-01-01T00:49:01.000Z</time>
      </trkpt>
      <trkpt lat="42.783773" lon="-7.93112">
        <ele>575.1</ele>
        <time>1970-01-01T00:49:02.000Z</time>
      </trkpt>
      <trkpt lat="42.783795" lon="-7.931096">
        <ele>575.2</ele>
        <time>1970-01-01T00:49:03.000Z</time>
      </trkpt>
      <trkpt lat="42.783815" lon="-7.931068">
        <ele>575.3</ele>
        <time>1970-01-01T00:49:04.000Z</time>
      </trkpt>
      <trkpt lat="42.783835" lon="-7.93104">
        <ele>575.2</ele>
        <time>1970-01-01T00:49:05.000Z</time>
      </trkpt>
      <trkpt lat="42.783855" lon="-7.931014">
        <ele>575.3</ele>
        <time>1970-01-01T00:49:06.000Z</time>
      </trkpt>
      <trkpt lat="42.783875" lon="-7.930987">
        <ele>575.4</ele>
        <time>1970-01-01T00:49:07.000Z</time>
      </trkpt>
      <trkpt lat="42.783891" lon="-7.930959">
        <ele>575.3</ele>
        <time>1970-01-01T00:49:08.000Z</time>
      </trkpt>
      <trkpt lat="42.78391" lon="-7.930933">
        <ele>575.4</ele>
        <time>1970-01-01T00:49:09.000Z</time>
      </trkpt>
      <trkpt lat="42.783932" lon="-7.930906">
        <ele>575.4</ele>
        <time>1970-01-01T00:49:10.000Z</time>
      </trkpt>
      <trkpt lat="42.783956" lon="-7.930884">
        <ele>575.4</ele>
        <time>1970-01-01T00:49:11.000Z</time>
      </trkpt>
      <trkpt lat="42.78398" lon="-7.930861">
        <ele>575.5</ele>
        <time>1970-01-01T00:49:12.000Z</time>
      </trkpt>
      <trkpt lat="42.784007" lon="-7.93084">
        <ele>575.4</ele>
        <time>1970-01-01T00:49:13.000Z</time>
      </trkpt>
      <trkpt lat="42.784032" lon="-7.930817">
        <ele>575.5</ele>
        <time>1970-01-01T00:49:14.000Z</time>
      </trkpt>
      <trkpt lat="42.784058" lon="-7.930793">
        <ele>575.4</ele>
        <time>1970-01-01T00:49:15.000Z</time>
      </trkpt>
      <trkpt lat="42.784084" lon="-7.930769">
        <ele>575.4</ele>
        <time>1970-01-01T00:49:16.000Z</time>
      </trkpt>
      <trkpt lat="42.784106" lon="-7.930752">
        <ele>575.3</ele>
        <time>1970-01-01T00:49:17.000Z</time>
      </trkpt>
      <trkpt lat="42.784128" lon="-7.930727">
        <ele>575.3</ele>
        <time>1970-01-01T00:49:18.000Z</time>
      </trkpt>
      <trkpt lat="42.784153" lon="-7.930702">
        <ele>575.2</ele>
        <time>1970-01-01T00:49:19.000Z</time>
      </trkpt>
      <trkpt lat="42.784177" lon="-7.930676">
        <ele>575.2</ele>
        <time>1970-01-01T00:49:20.000Z</time>
      </trkpt>
      <trkpt lat="42.784202" lon="-7.930657">
        <ele>575.1</ele>
        <time>1970-01-01T00:49:21.000Z</time>
      </trkpt>
      <trkpt lat="42.784225" lon="-7.930638">
        <ele>575</ele>
        <time>1970-01-01T00:49:22.000Z</time>
      </trkpt>
      <trkpt lat="42.784244" lon="-7.930621">
        <ele>574.9</ele>
        <time>1970-01-01T00:49:23.000Z</time>
      </trkpt>
      <trkpt lat="42.784262" lon="-7.930612">
        <ele>574.8</ele>
        <time>1970-01-01T00:49:24.000Z</time>
      </trkpt>
      <trkpt lat="42.784285" lon="-7.930613">
        <ele>574.8</ele>
        <time>1970-01-01T00:49:25.000Z</time>
      </trkpt>
      <trkpt lat="42.784306" lon="-7.93063">
        <ele>575</ele>
        <time>1970-01-01T00:49:26.000Z</time>
      </trkpt>
      <trkpt lat="42.784318" lon="-7.930655">
        <ele>574.9</ele>
        <time>1970-01-01T00:49:27.000Z</time>
      </trkpt>
      <trkpt lat="42.784328" lon="-7.930687">
        <ele>575.1</ele>
        <time>1970-01-01T00:49:28.000Z</time>
      </trkpt>
      <trkpt lat="42.784342" lon="-7.930723">
        <ele>575.2</ele>
        <time>1970-01-01T00:49:29.000Z</time>
      </trkpt>
      <trkpt lat="42.784342" lon="-7.930723">
        <ele>575.2</ele>
        <time>1970-01-01T00:49:30.000Z</time>
      </trkpt>
      <trkpt lat="42.784351" lon="-7.930758">
        <ele>575.3</ele>
        <time>1970-01-01T00:49:31.000Z</time>
      </trkpt>
      <trkpt lat="42.784367" lon="-7.930823">
        <ele>575.4</ele>
        <time>1970-01-01T00:49:32.000Z</time>
      </trkpt>
      <trkpt lat="42.784381" lon="-7.930853">
        <ele>575.4</ele>
        <time>1970-01-01T00:49:33.000Z</time>
      </trkpt>
      <trkpt lat="42.784402" lon="-7.930876">
        <ele>575.4</ele>
        <time>1970-01-01T00:49:34.000Z</time>
      </trkpt>
      <trkpt lat="42.784424" lon="-7.93089">
        <ele>575.5</ele>
        <time>1970-01-01T00:49:35.000Z</time>
      </trkpt>
      <trkpt lat="42.784446" lon="-7.930903">
        <ele>575.4</ele>
        <time>1970-01-01T00:49:36.000Z</time>
      </trkpt>
      <trkpt lat="42.784468" lon="-7.930914">
        <ele>575.4</ele>
        <time>1970-01-01T00:49:37.000Z</time>
      </trkpt>
      <trkpt lat="42.784493" lon="-7.930924">
        <ele>575.3</ele>
        <time>1970-01-01T00:49:38.000Z</time>
      </trkpt>
      <trkpt lat="42.784516" lon="-7.930927">
        <ele>575.3</ele>
        <time>1970-01-01T00:49:39.000Z</time>
      </trkpt>
      <trkpt lat="42.78454" lon="-7.930933">
        <ele>575.3</ele>
        <time>1970-01-01T00:49:40.000Z</time>
      </trkpt>
      <trkpt lat="42.784566" lon="-7.930938">
        <ele>575.3</ele>
        <time>1970-01-01T00:49:41.000Z</time>
      </trkpt>
      <trkpt lat="42.784592" lon="-7.930938">
        <ele>575.2</ele>
        <time>1970-01-01T00:49:42.000Z</time>
      </trkpt>
      <trkpt lat="42.784615" lon="-7.930936">
        <ele>575.1</ele>
        <time>1970-01-01T00:49:43.000Z</time>
      </trkpt>
      <trkpt lat="42.784644" lon="-7.930927">
        <ele>575</ele>
        <time>1970-01-01T00:49:44.000Z</time>
      </trkpt>
      <trkpt lat="42.784672" lon="-7.930923">
        <ele>574.9</ele>
        <time>1970-01-01T00:49:45.000Z</time>
      </trkpt>
      <trkpt lat="42.784697" lon="-7.930914">
        <ele>574.7</ele>
        <time>1970-01-01T00:49:46.000Z</time>
      </trkpt>
      <trkpt lat="42.784717" lon="-7.930907">
        <ele>574.7</ele>
        <time>1970-01-01T00:49:47.000Z</time>
      </trkpt>
      <trkpt lat="42.784737" lon="-7.930899">
        <ele>574.6</ele>
        <time>1970-01-01T00:49:48.000Z</time>
      </trkpt>
      <trkpt lat="42.784764" lon="-7.930893">
        <ele>574.5</ele>
        <time>1970-01-01T00:49:49.000Z</time>
      </trkpt>
      <trkpt lat="42.784793" lon="-7.93089">
        <ele>574.3</ele>
        <time>1970-01-01T00:49:50.000Z</time>
      </trkpt>
      <trkpt lat="42.784826" lon="-7.930881">
        <ele>574.1</ele>
        <time>1970-01-01T00:49:51.000Z</time>
      </trkpt>
      <trkpt lat="42.784852" lon="-7.930879">
        <ele>573.9</ele>
        <time>1970-01-01T00:49:52.000Z</time>
      </trkpt>
      <trkpt lat="42.78488" lon="-7.930867">
        <ele>573.9</ele>
        <time>1970-01-01T00:49:53.000Z</time>
      </trkpt>
      <trkpt lat="42.78491" lon="-7.930855">
        <ele>573.7</ele>
        <time>1970-01-01T00:49:54.000Z</time>
      </trkpt>
      <trkpt lat="42.784932" lon="-7.930853">
        <ele>573.5</ele>
        <time>1970-01-01T00:49:55.000Z</time>
      </trkpt>
      <trkpt lat="42.784956" lon="-7.930853">
        <ele>573.3</ele>
        <time>1970-01-01T00:49:56.000Z</time>
      </trkpt>
      <trkpt lat="42.784979" lon="-7.930861">
        <ele>573.1</ele>
        <time>1970-01-01T00:49:57.000Z</time>
      </trkpt>
      <trkpt lat="42.785004" lon="-7.930862">
        <ele>573.1</ele>
        <time>1970-01-01T00:49:58.000Z</time>
      </trkpt>
      <trkpt lat="42.78503" lon="-7.930865">
        <ele>572.8</ele>
        <time>1970-01-01T00:49:59.000Z</time>
      </trkpt>
      <trkpt lat="42.78505" lon="-7.930869">
        <ele>572.6</ele>
        <time>1970-01-01T00:50:00.000Z</time>
      </trkpt>
      <trkpt lat="42.785071" lon="-7.930874">
        <ele>572.3</ele>
        <time>1970-01-01T00:50:01.000Z</time>
      </trkpt>
      <trkpt lat="42.785094" lon="-7.93088">
        <ele>572.3</ele>
        <time>1970-01-01T00:50:02.000Z</time>
      </trkpt>
      <trkpt lat="42.785123" lon="-7.930886">
        <ele>572.2</ele>
        <time>1970-01-01T00:50:03.000Z</time>
      </trkpt>
      <trkpt lat="42.785147" lon="-7.930894">
        <ele>572</ele>
        <time>1970-01-01T00:50:04.000Z</time>
      </trkpt>
      <trkpt lat="42.78517" lon="-7.93091">
        <ele>571.7</ele>
        <time>1970-01-01T00:50:05.000Z</time>
      </trkpt>
      <trkpt lat="42.785192" lon="-7.930923">
        <ele>571.7</ele>
        <time>1970-01-01T00:50:06.000Z</time>
      </trkpt>
      <trkpt lat="42.785219" lon="-7.930932">
        <ele>571.6</ele>
        <time>1970-01-01T00:50:07.000Z</time>
      </trkpt>
      <trkpt lat="42.785248" lon="-7.930948">
        <ele>571.4</ele>
        <time>1970-01-01T00:50:08.000Z</time>
      </trkpt>
      <trkpt lat="42.785277" lon="-7.930967">
        <ele>571.1</ele>
        <time>1970-01-01T00:50:09.000Z</time>
      </trkpt>
      <trkpt lat="42.7853" lon="-7.930978">
        <ele>571.1</ele>
        <time>1970-01-01T00:50:10.000Z</time>
      </trkpt>
      <trkpt lat="42.785334" lon="-7.930984">
        <ele>570.8</ele>
        <time>1970-01-01T00:50:11.000Z</time>
      </trkpt>
      <trkpt lat="42.785354" lon="-7.930993">
        <ele>570.8</ele>
        <time>1970-01-01T00:50:12.000Z</time>
      </trkpt>
      <trkpt lat="42.785364" lon="-7.930998">
        <ele>570.6</ele>
        <time>1970-01-01T00:50:13.000Z</time>
      </trkpt>
      <trkpt lat="42.785385" lon="-7.931011">
        <ele>570.6</ele>
        <time>1970-01-01T00:50:14.000Z</time>
      </trkpt>
      <trkpt lat="42.785397" lon="-7.931039">
        <ele>570.5</ele>
        <time>1970-01-01T00:50:15.000Z</time>
      </trkpt>
      <trkpt lat="42.785434" lon="-7.931064">
        <ele>570.5</ele>
        <time>1970-01-01T00:50:16.000Z</time>
      </trkpt>
      <trkpt lat="42.785462" lon="-7.931086">
        <ele>570.2</ele>
        <time>1970-01-01T00:50:17.000Z</time>
      </trkpt>
      <trkpt lat="42.785476" lon="-7.93111">
        <ele>570.5</ele>
        <time>1970-01-01T00:50:18.000Z</time>
      </trkpt>
      <trkpt lat="42.785501" lon="-7.931127">
        <ele>570.2</ele>
        <time>1970-01-01T00:50:19.000Z</time>
      </trkpt>
      <trkpt lat="42.785511" lon="-7.93114">
        <ele>570.2</ele>
        <time>1970-01-01T00:50:20.000Z</time>
      </trkpt>
      <trkpt lat="42.785531" lon="-7.931162">
        <ele>570.2</ele>
        <time>1970-01-01T00:50:21.000Z</time>
      </trkpt>
      <trkpt lat="42.785563" lon="-7.931177">
        <ele>570</ele>
        <time>1970-01-01T00:50:22.000Z</time>
      </trkpt>
      <trkpt lat="42.785587" lon="-7.931193">
        <ele>570</ele>
        <time>1970-01-01T00:50:23.000Z</time>
      </trkpt>
      <trkpt lat="42.785604" lon="-7.931206">
        <ele>570</ele>
        <time>1970-01-01T00:50:24.000Z</time>
      </trkpt>
      <trkpt lat="42.785634" lon="-7.931215">
        <ele>569.8</ele>
        <time>1970-01-01T00:50:25.000Z</time>
      </trkpt>
      <trkpt lat="42.785668" lon="-7.931224">
        <ele>569.6</ele>
        <time>1970-01-01T00:50:26.000Z</time>
      </trkpt>
      <trkpt lat="42.785712" lon="-7.931226">
        <ele>569.2</ele>
        <time>1970-01-01T00:50:27.000Z</time>
      </trkpt>
      <trkpt lat="42.785753" lon="-7.931238">
        <ele>569.3</ele>
        <time>1970-01-01T00:50:28.000Z</time>
      </trkpt>
      <trkpt lat="42.785797" lon="-7.931248">
        <ele>569.1</ele>
        <time>1970-01-01T00:50:29.000Z</time>
      </trkpt>
      <trkpt lat="42.785822" lon="-7.93126">
        <ele>569.1</ele>
        <time>1970-01-01T00:50:30.000Z</time>
      </trkpt>
      <trkpt lat="42.785867" lon="-7.931268">
        <ele>568.8</ele>
        <time>1970-01-01T00:50:31.000Z</time>
      </trkpt>
      <trkpt lat="42.785906" lon="-7.931273">
        <ele>569</ele>
        <time>1970-01-01T00:50:32.000Z</time>
      </trkpt>
      <trkpt lat="42.785936" lon="-7.931277">
        <ele>568.9</ele>
        <time>1970-01-01T00:50:33.000Z</time>
      </trkpt>
      <trkpt lat="42.785977" lon="-7.931288">
        <ele>568.8</ele>
        <time>1970-01-01T00:50:34.000Z</time>
      </trkpt>
      <trkpt lat="42.78602" lon="-7.931301">
        <ele>568.7</ele>
        <time>1970-01-01T00:50:35.000Z</time>
      </trkpt>
      <trkpt lat="42.786054" lon="-7.931317">
        <ele>569</ele>
        <time>1970-01-01T00:50:36.000Z</time>
      </trkpt>
      <trkpt lat="42.786079" lon="-7.931333">
        <ele>569</ele>
        <time>1970-01-01T00:50:37.000Z</time>
      </trkpt>
      <trkpt lat="42.786086" lon="-7.931346">
        <ele>569</ele>
        <time>1970-01-01T00:50:38.000Z</time>
      </trkpt>
      <trkpt lat="42.786113" lon="-7.931362">
        <ele>569.5</ele>
        <time>1970-01-01T00:50:39.000Z</time>
      </trkpt>
      <trkpt lat="42.786158" lon="-7.931376">
        <ele>569.6</ele>
        <time>1970-01-01T00:50:40.000Z</time>
      </trkpt>
      <trkpt lat="42.786189" lon="-7.931384">
        <ele>569.6</ele>
        <time>1970-01-01T00:50:41.000Z</time>
      </trkpt>
      <trkpt lat="42.786227" lon="-7.931394">
        <ele>569.8</ele>
        <time>1970-01-01T00:50:42.000Z</time>
      </trkpt>
      <trkpt lat="42.786246" lon="-7.931397">
        <ele>569.9</ele>
        <time>1970-01-01T00:50:43.000Z</time>
      </trkpt>
      <trkpt lat="42.786264" lon="-7.931403">
        <ele>570.5</ele>
        <time>1970-01-01T00:50:44.000Z</time>
      </trkpt>
      <trkpt lat="42.786289" lon="-7.931407">
        <ele>570.8</ele>
        <time>1970-01-01T00:50:45.000Z</time>
      </trkpt>
      <trkpt lat="42.786323" lon="-7.931415">
        <ele>571</ele>
        <time>1970-01-01T00:50:46.000Z</time>
      </trkpt>
      <trkpt lat="42.786335" lon="-7.931425">
        <ele>571.3</ele>
        <time>1970-01-01T00:50:47.000Z</time>
      </trkpt>
      <trkpt lat="42.786358" lon="-7.931423">
        <ele>571.3</ele>
        <time>1970-01-01T00:50:48.000Z</time>
      </trkpt>
      <trkpt lat="42.786384" lon="-7.931414">
        <ele>571.6</ele>
        <time>1970-01-01T00:50:49.000Z</time>
      </trkpt>
      <trkpt lat="42.786403" lon="-7.931408">
        <ele>571.9</ele>
        <time>1970-01-01T00:50:50.000Z</time>
      </trkpt>
      <trkpt lat="42.786433" lon="-7.9314">
        <ele>572.2</ele>
        <time>1970-01-01T00:50:51.000Z</time>
      </trkpt>
      <trkpt lat="42.786479" lon="-7.931396">
        <ele>571.9</ele>
        <time>1970-01-01T00:50:52.000Z</time>
      </trkpt>
      <trkpt lat="42.786505" lon="-7.931389">
        <ele>572.2</ele>
        <time>1970-01-01T00:50:53.000Z</time>
      </trkpt>
      <trkpt lat="42.786545" lon="-7.931383">
        <ele>572.6</ele>
        <time>1970-01-01T00:50:54.000Z</time>
      </trkpt>
      <trkpt lat="42.78659" lon="-7.931375">
        <ele>573.2</ele>
        <time>1970-01-01T00:50:55.000Z</time>
      </trkpt>
      <trkpt lat="42.786638" lon="-7.931355">
        <ele>572.8</ele>
        <time>1970-01-01T00:50:56.000Z</time>
      </trkpt>
      <trkpt lat="42.786685" lon="-7.931337">
        <ele>573.4</ele>
        <time>1970-01-01T00:50:57.000Z</time>
      </trkpt>
      <trkpt lat="42.786722" lon="-7.931316">
        <ele>573.7</ele>
        <time>1970-01-01T00:50:58.000Z</time>
      </trkpt>
      <trkpt lat="42.786768" lon="-7.931302">
        <ele>573.4</ele>
        <time>1970-01-01T00:50:59.000Z</time>
      </trkpt>
      <trkpt lat="42.786811" lon="-7.931283">
        <ele>573.8</ele>
        <time>1970-01-01T00:51:00.000Z</time>
      </trkpt>
      <trkpt lat="42.786847" lon="-7.931263">
        <ele>573.4</ele>
        <time>1970-01-01T00:51:01.000Z</time>
      </trkpt>
      <trkpt lat="42.78688" lon="-7.931236">
        <ele>573.6</ele>
        <time>1970-01-01T00:51:02.000Z</time>
      </trkpt>
      <trkpt lat="42.786911" lon="-7.931208">
        <ele>573.2</ele>
        <time>1970-01-01T00:51:03.000Z</time>
      </trkpt>
      <trkpt lat="42.786943" lon="-7.931178">
        <ele>572.8</ele>
        <time>1970-01-01T00:51:04.000Z</time>
      </trkpt>
      <trkpt lat="42.786978" lon="-7.931149">
        <ele>573</ele>
        <time>1970-01-01T00:51:05.000Z</time>
      </trkpt>
      <trkpt lat="42.78701" lon="-7.931115">
        <ele>572.7</ele>
        <time>1970-01-01T00:51:06.000Z</time>
      </trkpt>
      <trkpt lat="42.78705" lon="-7.931077">
        <ele>572.4</ele>
        <time>1970-01-01T00:51:07.000Z</time>
      </trkpt>
      <trkpt lat="42.78708" lon="-7.931041">
        <ele>572.1</ele>
        <time>1970-01-01T00:51:08.000Z</time>
      </trkpt>
      <trkpt lat="42.787107" lon="-7.931005">
        <ele>571.9</ele>
        <time>1970-01-01T00:51:09.000Z</time>
      </trkpt>
      <trkpt lat="42.787141" lon="-7.930968">
        <ele>571.7</ele>
        <time>1970-01-01T00:51:10.000Z</time>
      </trkpt>
      <trkpt lat="42.787168" lon="-7.930945">
        <ele>572</ele>
        <time>1970-01-01T00:51:11.000Z</time>
      </trkpt>
      <trkpt lat="42.787202" lon="-7.930923">
        <ele>571.8</ele>
        <time>1970-01-01T00:51:12.000Z</time>
      </trkpt>
      <trkpt lat="42.787236" lon="-7.930906">
        <ele>572.1</ele>
        <time>1970-01-01T00:51:13.000Z</time>
      </trkpt>
      <trkpt lat="42.787269" lon="-7.930895">
        <ele>572.3</ele>
        <time>1970-01-01T00:51:14.000Z</time>
      </trkpt>
      <trkpt lat="42.7873" lon="-7.930884">
        <ele>572.1</ele>
        <time>1970-01-01T00:51:15.000Z</time>
      </trkpt>
      <trkpt lat="42.787331" lon="-7.930872">
        <ele>572.3</ele>
        <time>1970-01-01T00:51:16.000Z</time>
      </trkpt>
      <trkpt lat="42.787361" lon="-7.930866">
        <ele>572.6</ele>
        <time>1970-01-01T00:51:17.000Z</time>
      </trkpt>
      <trkpt lat="42.787388" lon="-7.930858">
        <ele>572.8</ele>
        <time>1970-01-01T00:51:18.000Z</time>
      </trkpt>
      <trkpt lat="42.787423" lon="-7.930852">
        <ele>573</ele>
        <time>1970-01-01T00:51:19.000Z</time>
      </trkpt>
      <trkpt lat="42.787457" lon="-7.930842">
        <ele>573.2</ele>
        <time>1970-01-01T00:51:20.000Z</time>
      </trkpt>
      <trkpt lat="42.78749" lon="-7.930834">
        <ele>572.9</ele>
        <time>1970-01-01T00:51:21.000Z</time>
      </trkpt>
      <trkpt lat="42.787521" lon="-7.930827">
        <ele>573.1</ele>
        <time>1970-01-01T00:51:22.000Z</time>
      </trkpt>
      <trkpt lat="42.787549" lon="-7.930819">
        <ele>573.3</ele>
        <time>1970-01-01T00:51:23.000Z</time>
      </trkpt>
      <trkpt lat="42.787576" lon="-7.93081">
        <ele>573.4</ele>
        <time>1970-01-01T00:51:24.000Z</time>
      </trkpt>
      <trkpt lat="42.787602" lon="-7.930794">
        <ele>573.3</ele>
        <time>1970-01-01T00:51:25.000Z</time>
      </trkpt>
      <trkpt lat="42.787637" lon="-7.930785">
        <ele>573.4</ele>
        <time>1970-01-01T00:51:26.000Z</time>
      </trkpt>
      <trkpt lat="42.787669" lon="-7.930772">
        <ele>573.5</ele>
        <time>1970-01-01T00:51:27.000Z</time>
      </trkpt>
      <trkpt lat="42.787695" lon="-7.93076">
        <ele>573.7</ele>
        <time>1970-01-01T00:51:28.000Z</time>
      </trkpt>
      <trkpt lat="42.787718" lon="-7.930749">
        <ele>573.5</ele>
        <time>1970-01-01T00:51:29.000Z</time>
      </trkpt>
      <trkpt lat="42.787736" lon="-7.930743">
        <ele>573.5</ele>
        <time>1970-01-01T00:51:30.000Z</time>
      </trkpt>
      <trkpt lat="42.787754" lon="-7.930742">
        <ele>573.7</ele>
        <time>1970-01-01T00:51:31.000Z</time>
      </trkpt>
      <trkpt lat="42.78778" lon="-7.930733">
        <ele>573.8</ele>
        <time>1970-01-01T00:51:32.000Z</time>
      </trkpt>
      <trkpt lat="42.787801" lon="-7.930726">
        <ele>573.8</ele>
        <time>1970-01-01T00:51:33.000Z</time>
      </trkpt>
      <trkpt lat="42.787827" lon="-7.930717">
        <ele>573.8</ele>
        <time>1970-01-01T00:51:34.000Z</time>
      </trkpt>
      <trkpt lat="42.787854" lon="-7.93071">
        <ele>573.6</ele>
        <time>1970-01-01T00:51:35.000Z</time>
      </trkpt>
      <trkpt lat="42.787877" lon="-7.9307">
        <ele>573.7</ele>
        <time>1970-01-01T00:51:36.000Z</time>
      </trkpt>
      <trkpt lat="42.787896" lon="-7.930693">
        <ele>573.7</ele>
        <time>1970-01-01T00:51:37.000Z</time>
      </trkpt>
      <trkpt lat="42.787916" lon="-7.930685">
        <ele>573.7</ele>
        <time>1970-01-01T00:51:38.000Z</time>
      </trkpt>
      <trkpt lat="42.787931" lon="-7.93067">
        <ele>573.7</ele>
        <time>1970-01-01T00:51:39.000Z</time>
      </trkpt>
      <trkpt lat="42.787956" lon="-7.93065">
        <ele>573.5</ele>
        <time>1970-01-01T00:51:40.000Z</time>
      </trkpt>
      <trkpt lat="42.787985" lon="-7.93063">
        <ele>573.5</ele>
        <time>1970-01-01T00:51:41.000Z</time>
      </trkpt>
      <trkpt lat="42.788009" lon="-7.930608">
        <ele>573.2</ele>
        <time>1970-01-01T00:51:42.000Z</time>
      </trkpt>
      <trkpt lat="42.788042" lon="-7.930583">
        <ele>572.9</ele>
        <time>1970-01-01T00:51:43.000Z</time>
      </trkpt>
      <trkpt lat="42.78807" lon="-7.930559">
        <ele>572.8</ele>
        <time>1970-01-01T00:51:44.000Z</time>
      </trkpt>
      <trkpt lat="42.788098" lon="-7.930538">
        <ele>572.5</ele>
        <time>1970-01-01T00:51:45.000Z</time>
      </trkpt>
      <trkpt lat="42.788128" lon="-7.930511">
        <ele>572.4</ele>
        <time>1970-01-01T00:51:46.000Z</time>
      </trkpt>
      <trkpt lat="42.788155" lon="-7.93049">
        <ele>572.2</ele>
        <time>1970-01-01T00:51:47.000Z</time>
      </trkpt>
      <trkpt lat="42.788189" lon="-7.930463">
        <ele>572</ele>
        <time>1970-01-01T00:51:48.000Z</time>
      </trkpt>
      <trkpt lat="42.788216" lon="-7.930441">
        <ele>571.8</ele>
        <time>1970-01-01T00:51:49.000Z</time>
      </trkpt>
      <trkpt lat="42.788244" lon="-7.930417">
        <ele>571.7</ele>
        <time>1970-01-01T00:51:50.000Z</time>
      </trkpt>
      <trkpt lat="42.788271" lon="-7.930396">
        <ele>571.4</ele>
        <time>1970-01-01T00:51:51.000Z</time>
      </trkpt>
      <trkpt lat="42.788302" lon="-7.930372">
        <ele>571.4</ele>
        <time>1970-01-01T00:51:52.000Z</time>
      </trkpt>
      <trkpt lat="42.788327" lon="-7.930351">
        <ele>571.1</ele>
        <time>1970-01-01T00:51:53.000Z</time>
      </trkpt>
      <trkpt lat="42.788353" lon="-7.930324">
        <ele>570.8</ele>
        <time>1970-01-01T00:51:54.000Z</time>
      </trkpt>
      <trkpt lat="42.788382" lon="-7.930295">
        <ele>570.8</ele>
        <time>1970-01-01T00:51:55.000Z</time>
      </trkpt>
      <trkpt lat="42.788411" lon="-7.930271">
        <ele>570.6</ele>
        <time>1970-01-01T00:51:56.000Z</time>
      </trkpt>
      <trkpt lat="42.78844" lon="-7.93025">
        <ele>570.6</ele>
        <time>1970-01-01T00:51:57.000Z</time>
      </trkpt>
      <trkpt lat="42.788466" lon="-7.930233">
        <ele>570.3</ele>
        <time>1970-01-01T00:51:58.000Z</time>
      </trkpt>
      <trkpt lat="42.78849" lon="-7.930215">
        <ele>570.3</ele>
        <time>1970-01-01T00:51:59.000Z</time>
      </trkpt>
      <trkpt lat="42.78852" lon="-7.930189">
        <ele>570</ele>
        <time>1970-01-01T00:52:00.000Z</time>
      </trkpt>
      <trkpt lat="42.788542" lon="-7.930162">
        <ele>570.1</ele>
        <time>1970-01-01T00:52:01.000Z</time>
      </trkpt>
      <trkpt lat="42.788566" lon="-7.930141">
        <ele>569.8</ele>
        <time>1970-01-01T00:52:02.000Z</time>
      </trkpt>
      <trkpt lat="42.788596" lon="-7.930127">
        <ele>569.8</ele>
        <time>1970-01-01T00:52:03.000Z</time>
      </trkpt>
      <trkpt lat="42.788619" lon="-7.930112">
        <ele>569.9</ele>
        <time>1970-01-01T00:52:04.000Z</time>
      </trkpt>
      <trkpt lat="42.788648" lon="-7.930087">
        <ele>569.7</ele>
        <time>1970-01-01T00:52:05.000Z</time>
      </trkpt>
      <trkpt lat="42.788674" lon="-7.930073">
        <ele>569.7</ele>
        <time>1970-01-01T00:52:06.000Z</time>
      </trkpt>
      <trkpt lat="42.788703" lon="-7.930055">
        <ele>569.5</ele>
        <time>1970-01-01T00:52:07.000Z</time>
      </trkpt>
      <trkpt lat="42.78873" lon="-7.930036">
        <ele>569.6</ele>
        <time>1970-01-01T00:52:08.000Z</time>
      </trkpt>
      <trkpt lat="42.78876" lon="-7.930009">
        <ele>569.4</ele>
        <time>1970-01-01T00:52:09.000Z</time>
      </trkpt>
      <trkpt lat="42.788785" lon="-7.929981">
        <ele>569.2</ele>
        <time>1970-01-01T00:52:10.000Z</time>
      </trkpt>
      <trkpt lat="42.788809" lon="-7.929953">
        <ele>569.3</ele>
        <time>1970-01-01T00:52:11.000Z</time>
      </trkpt>
      <trkpt lat="42.788838" lon="-7.929927">
        <ele>569.2</ele>
        <time>1970-01-01T00:52:12.000Z</time>
      </trkpt>
      <trkpt lat="42.788868" lon="-7.929901">
        <ele>569.3</ele>
        <time>1970-01-01T00:52:13.000Z</time>
      </trkpt>
      <trkpt lat="42.78889" lon="-7.929881">
        <ele>569.3</ele>
        <time>1970-01-01T00:52:14.000Z</time>
      </trkpt>
      <trkpt lat="42.788915" lon="-7.929859">
        <ele>569.4</ele>
        <time>1970-01-01T00:52:15.000Z</time>
      </trkpt>
      <trkpt lat="42.78894" lon="-7.929838">
        <ele>569.2</ele>
        <time>1970-01-01T00:52:16.000Z</time>
      </trkpt>
      <trkpt lat="42.788961" lon="-7.929819">
        <ele>569.3</ele>
        <time>1970-01-01T00:52:17.000Z</time>
      </trkpt>
      <trkpt lat="42.788984" lon="-7.929798">
        <ele>569.2</ele>
        <time>1970-01-01T00:52:18.000Z</time>
      </trkpt>
      <trkpt lat="42.789008" lon="-7.929777">
        <ele>569.3</ele>
        <time>1970-01-01T00:52:19.000Z</time>
      </trkpt>
      <trkpt lat="42.789033" lon="-7.929762">
        <ele>569</ele>
        <time>1970-01-01T00:52:20.000Z</time>
      </trkpt>
      <trkpt lat="42.789064" lon="-7.929744">
        <ele>569.1</ele>
        <time>1970-01-01T00:52:21.000Z</time>
      </trkpt>
      <trkpt lat="42.789092" lon="-7.929735">
        <ele>569.2</ele>
        <time>1970-01-01T00:52:22.000Z</time>
      </trkpt>
      <trkpt lat="42.789109" lon="-7.929722">
        <ele>569</ele>
        <time>1970-01-01T00:52:23.000Z</time>
      </trkpt>
      <trkpt lat="42.789129" lon="-7.929707">
        <ele>569</ele>
        <time>1970-01-01T00:52:24.000Z</time>
      </trkpt>
      <trkpt lat="42.789144" lon="-7.929695">
        <ele>569.1</ele>
        <time>1970-01-01T00:52:25.000Z</time>
      </trkpt>
      <trkpt lat="42.789171" lon="-7.92968">
        <ele>568.9</ele>
        <time>1970-01-01T00:52:26.000Z</time>
      </trkpt>
      <trkpt lat="42.7892" lon="-7.929666">
        <ele>569</ele>
        <time>1970-01-01T00:52:27.000Z</time>
      </trkpt>
      <trkpt lat="42.789224" lon="-7.92966">
        <ele>569</ele>
        <time>1970-01-01T00:52:28.000Z</time>
      </trkpt>
      <trkpt lat="42.789255" lon="-7.929646">
        <ele>569.1</ele>
        <time>1970-01-01T00:52:29.000Z</time>
      </trkpt>
      <trkpt lat="42.789293" lon="-7.92963">
        <ele>569</ele>
        <time>1970-01-01T00:52:30.000Z</time>
      </trkpt>
      <trkpt lat="42.789327" lon="-7.929614">
        <ele>569.1</ele>
        <time>1970-01-01T00:52:31.000Z</time>
      </trkpt>
      <trkpt lat="42.78936" lon="-7.929603">
        <ele>569.2</ele>
        <time>1970-01-01T00:52:32.000Z</time>
      </trkpt>
      <trkpt lat="42.789393" lon="-7.929588">
        <ele>568.9</ele>
        <time>1970-01-01T00:52:33.000Z</time>
      </trkpt>
      <trkpt lat="42.789425" lon="-7.929576">
        <ele>569</ele>
        <time>1970-01-01T00:52:34.000Z</time>
      </trkpt>
      <trkpt lat="42.789458" lon="-7.929563">
        <ele>569.1</ele>
        <time>1970-01-01T00:52:35.000Z</time>
      </trkpt>
      <trkpt lat="42.789491" lon="-7.929556">
        <ele>569.2</ele>
        <time>1970-01-01T00:52:36.000Z</time>
      </trkpt>
      <trkpt lat="42.789523" lon="-7.929548">
        <ele>568.9</ele>
        <time>1970-01-01T00:52:37.000Z</time>
      </trkpt>
      <trkpt lat="42.789561" lon="-7.929536">
        <ele>569</ele>
        <time>1970-01-01T00:52:38.000Z</time>
      </trkpt>
      <trkpt lat="42.789599" lon="-7.929529">
        <ele>569.1</ele>
        <time>1970-01-01T00:52:39.000Z</time>
      </trkpt>
      <trkpt lat="42.789636" lon="-7.929522">
        <ele>569.2</ele>
        <time>1970-01-01T00:52:40.000Z</time>
      </trkpt>
      <trkpt lat="42.789676" lon="-7.929516">
        <ele>569.4</ele>
        <time>1970-01-01T00:52:41.000Z</time>
      </trkpt>
      <trkpt lat="42.789715" lon="-7.929508">
        <ele>569.2</ele>
        <time>1970-01-01T00:52:42.000Z</time>
      </trkpt>
      <trkpt lat="42.789756" lon="-7.929499">
        <ele>569.4</ele>
        <time>1970-01-01T00:52:43.000Z</time>
      </trkpt>
      <trkpt lat="42.78979" lon="-7.92948">
        <ele>569.5</ele>
        <time>1970-01-01T00:52:44.000Z</time>
      </trkpt>
      <trkpt lat="42.789817" lon="-7.929455">
        <ele>569.3</ele>
        <time>1970-01-01T00:52:45.000Z</time>
      </trkpt>
      <trkpt lat="42.78985" lon="-7.929431">
        <ele>569.4</ele>
        <time>1970-01-01T00:52:46.000Z</time>
      </trkpt>
      <trkpt lat="42.789881" lon="-7.929408">
        <ele>569.3</ele>
        <time>1970-01-01T00:52:47.000Z</time>
      </trkpt>
      <trkpt lat="42.789914" lon="-7.929386">
        <ele>569.3</ele>
        <time>1970-01-01T00:52:48.000Z</time>
      </trkpt>
      <trkpt lat="42.789939" lon="-7.929365">
        <ele>569.1</ele>
        <time>1970-01-01T00:52:49.000Z</time>
      </trkpt>
      <trkpt lat="42.789965" lon="-7.929346">
        <ele>569.2</ele>
        <time>1970-01-01T00:52:50.000Z</time>
      </trkpt>
      <trkpt lat="42.789991" lon="-7.929324">
        <ele>568.9</ele>
        <time>1970-01-01T00:52:51.000Z</time>
      </trkpt>
      <trkpt lat="42.790015" lon="-7.929303">
        <ele>568.9</ele>
        <time>1970-01-01T00:52:52.000Z</time>
      </trkpt>
      <trkpt lat="42.790047" lon="-7.929279">
        <ele>568.6</ele>
        <time>1970-01-01T00:52:53.000Z</time>
      </trkpt>
      <trkpt lat="42.790078" lon="-7.929257">
        <ele>568.6</ele>
        <time>1970-01-01T00:52:54.000Z</time>
      </trkpt>
      <trkpt lat="42.79011" lon="-7.929237">
        <ele>568.3</ele>
        <time>1970-01-01T00:52:55.000Z</time>
      </trkpt>
      <trkpt lat="42.790145" lon="-7.929214">
        <ele>568.4</ele>
        <time>1970-01-01T00:52:56.000Z</time>
      </trkpt>
      <trkpt lat="42.790171" lon="-7.929193">
        <ele>568</ele>
        <time>1970-01-01T00:52:57.000Z</time>
      </trkpt>
      <trkpt lat="42.790203" lon="-7.929172">
        <ele>568.1</ele>
        <time>1970-01-01T00:52:58.000Z</time>
      </trkpt>
      <trkpt lat="42.790241" lon="-7.92915">
        <ele>567.8</ele>
        <time>1970-01-01T00:52:59.000Z</time>
      </trkpt>
      <trkpt lat="42.790274" lon="-7.929133">
        <ele>567.9</ele>
        <time>1970-01-01T00:53:00.000Z</time>
      </trkpt>
      <trkpt lat="42.790306" lon="-7.929112">
        <ele>567.6</ele>
        <time>1970-01-01T00:53:01.000Z</time>
      </trkpt>
      <trkpt lat="42.790339" lon="-7.929093">
        <ele>567.7</ele>
        <time>1970-01-01T00:53:02.000Z</time>
      </trkpt>
      <trkpt lat="42.79038" lon="-7.929071">
        <ele>567.4</ele>
        <time>1970-01-01T00:53:03.000Z</time>
      </trkpt>
      <trkpt lat="42.790417" lon="-7.929049">
        <ele>567.5</ele>
        <time>1970-01-01T00:53:04.000Z</time>
      </trkpt>
      <trkpt lat="42.790454" lon="-7.929025">
        <ele>567.2</ele>
        <time>1970-01-01T00:53:05.000Z</time>
      </trkpt>
      <trkpt lat="42.790492" lon="-7.929004">
        <ele>567.3</ele>
        <time>1970-01-01T00:53:06.000Z</time>
      </trkpt>
      <trkpt lat="42.790528" lon="-7.928989">
        <ele>567.1</ele>
        <time>1970-01-01T00:53:07.000Z</time>
      </trkpt>
      <trkpt lat="42.790562" lon="-7.92898">
        <ele>567.1</ele>
        <time>1970-01-01T00:53:08.000Z</time>
      </trkpt>
      <trkpt lat="42.790593" lon="-7.92897">
        <ele>567.1</ele>
        <time>1970-01-01T00:53:09.000Z</time>
      </trkpt>
      <trkpt lat="42.790627" lon="-7.928961">
        <ele>567.1</ele>
        <time>1970-01-01T00:53:10.000Z</time>
      </trkpt>
      <trkpt lat="42.790649" lon="-7.928968">
        <ele>567.1</ele>
        <time>1970-01-01T00:53:11.000Z</time>
      </trkpt>
      <trkpt lat="42.790677" lon="-7.928959">
        <ele>567</ele>
        <time>1970-01-01T00:53:12.000Z</time>
      </trkpt>
      <trkpt lat="42.790704" lon="-7.928952">
        <ele>566.8</ele>
        <time>1970-01-01T00:53:13.000Z</time>
      </trkpt>
      <trkpt lat="42.790732" lon="-7.92895">
        <ele>566.8</ele>
        <time>1970-01-01T00:53:14.000Z</time>
      </trkpt>
      <trkpt lat="42.790769" lon="-7.928949">
        <ele>566.8</ele>
        <time>1970-01-01T00:53:15.000Z</time>
      </trkpt>
      <trkpt lat="42.790806" lon="-7.928949">
        <ele>566.8</ele>
        <time>1970-01-01T00:53:16.000Z</time>
      </trkpt>
      <trkpt lat="42.790842" lon="-7.928951">
        <ele>566.7</ele>
        <time>1970-01-01T00:53:17.000Z</time>
      </trkpt>
      <trkpt lat="42.790875" lon="-7.928948">
        <ele>566.7</ele>
        <time>1970-01-01T00:53:18.000Z</time>
      </trkpt>
      <trkpt lat="42.790905" lon="-7.928942">
        <ele>566.7</ele>
        <time>1970-01-01T00:53:19.000Z</time>
      </trkpt>
      <trkpt lat="42.790938" lon="-7.92893">
        <ele>566.7</ele>
        <time>1970-01-01T00:53:20.000Z</time>
      </trkpt>
      <trkpt lat="42.790975" lon="-7.928917">
        <ele>566.6</ele>
        <time>1970-01-01T00:53:21.000Z</time>
      </trkpt>
      <trkpt lat="42.791011" lon="-7.928899">
        <ele>566.4</ele>
        <time>1970-01-01T00:53:22.000Z</time>
      </trkpt>
      <trkpt lat="42.791041" lon="-7.928884">
        <ele>566.4</ele>
        <time>1970-01-01T00:53:23.000Z</time>
      </trkpt>
      <trkpt lat="42.791073" lon="-7.928864">
        <ele>566.2</ele>
        <time>1970-01-01T00:53:24.000Z</time>
      </trkpt>
      <trkpt lat="42.791101" lon="-7.928842">
        <ele>566.2</ele>
        <time>1970-01-01T00:53:25.000Z</time>
      </trkpt>
      <trkpt lat="42.791128" lon="-7.928818">
        <ele>566</ele>
        <time>1970-01-01T00:53:26.000Z</time>
      </trkpt>
      <trkpt lat="42.79115" lon="-7.928794">
        <ele>566</ele>
        <time>1970-01-01T00:53:27.000Z</time>
      </trkpt>
      <trkpt lat="42.79118" lon="-7.928775">
        <ele>565.8</ele>
        <time>1970-01-01T00:53:28.000Z</time>
      </trkpt>
      <trkpt lat="42.791209" lon="-7.928764">
        <ele>565.8</ele>
        <time>1970-01-01T00:53:29.000Z</time>
      </trkpt>
      <trkpt lat="42.791236" lon="-7.928749">
        <ele>565.8</ele>
        <time>1970-01-01T00:53:30.000Z</time>
      </trkpt>
      <trkpt lat="42.791261" lon="-7.928733">
        <ele>565.6</ele>
        <time>1970-01-01T00:53:31.000Z</time>
      </trkpt>
      <trkpt lat="42.791279" lon="-7.928725">
        <ele>565.5</ele>
        <time>1970-01-01T00:53:32.000Z</time>
      </trkpt>
      <trkpt lat="42.791302" lon="-7.928717">
        <ele>565.5</ele>
        <time>1970-01-01T00:53:33.000Z</time>
      </trkpt>
      <trkpt lat="42.791324" lon="-7.92872">
        <ele>565.5</ele>
        <time>1970-01-01T00:53:34.000Z</time>
      </trkpt>
      <trkpt lat="42.791348" lon="-7.928715">
        <ele>565.5</ele>
        <time>1970-01-01T00:53:35.000Z</time>
      </trkpt>
      <trkpt lat="42.791377" lon="-7.928706">
        <ele>565.5</ele>
        <time>1970-01-01T00:53:36.000Z</time>
      </trkpt>
      <trkpt lat="42.791403" lon="-7.928685">
        <ele>565.3</ele>
        <time>1970-01-01T00:53:37.000Z</time>
      </trkpt>
      <trkpt lat="42.791426" lon="-7.928664">
        <ele>565.3</ele>
        <time>1970-01-01T00:53:38.000Z</time>
      </trkpt>
      <trkpt lat="42.791444" lon="-7.928651">
        <ele>565.2</ele>
        <time>1970-01-01T00:53:39.000Z</time>
      </trkpt>
      <trkpt lat="42.791462" lon="-7.92865">
        <ele>565.2</ele>
        <time>1970-01-01T00:53:40.000Z</time>
      </trkpt>
      <trkpt lat="42.791483" lon="-7.928663">
        <ele>565.3</ele>
        <time>1970-01-01T00:53:41.000Z</time>
      </trkpt>
      <trkpt lat="42.791499" lon="-7.928687">
        <ele>565.2</ele>
        <time>1970-01-01T00:53:42.000Z</time>
      </trkpt>
      <trkpt lat="42.791506" lon="-7.928718">
        <ele>565.3</ele>
        <time>1970-01-01T00:53:43.000Z</time>
      </trkpt>
      <trkpt lat="42.791509" lon="-7.928754">
        <ele>565.5</ele>
        <time>1970-01-01T00:53:44.000Z</time>
      </trkpt>
      <trkpt lat="42.791511" lon="-7.928786">
        <ele>565.6</ele>
        <time>1970-01-01T00:53:45.000Z</time>
      </trkpt>
      <trkpt lat="42.791507" lon="-7.928821">
        <ele>565.6</ele>
        <time>1970-01-01T00:53:46.000Z</time>
      </trkpt>
      <trkpt lat="42.791509" lon="-7.928854">
        <ele>565.7</ele>
        <time>1970-01-01T00:53:47.000Z</time>
      </trkpt>
      <trkpt lat="42.791511" lon="-7.928892">
        <ele>565.8</ele>
        <time>1970-01-01T00:53:48.000Z</time>
      </trkpt>
      <trkpt lat="42.79151" lon="-7.928929">
        <ele>565.9</ele>
        <time>1970-01-01T00:53:49.000Z</time>
      </trkpt>
      <trkpt lat="42.791511" lon="-7.928968">
        <ele>566</ele>
        <time>1970-01-01T00:53:50.000Z</time>
      </trkpt>
      <trkpt lat="42.791514" lon="-7.929003">
        <ele>566.1</ele>
        <time>1970-01-01T00:53:51.000Z</time>
      </trkpt>
      <trkpt lat="42.791512" lon="-7.929038">
        <ele>566.1</ele>
        <time>1970-01-01T00:53:52.000Z</time>
      </trkpt>
      <trkpt lat="42.791512" lon="-7.929083">
        <ele>566.3</ele>
        <time>1970-01-01T00:53:53.000Z</time>
      </trkpt>
      <trkpt lat="42.791513" lon="-7.929106">
        <ele>566.3</ele>
        <time>1970-01-01T00:53:54.000Z</time>
      </trkpt>
      <trkpt lat="42.791509" lon="-7.929137">
        <ele>566.5</ele>
        <time>1970-01-01T00:53:55.000Z</time>
      </trkpt>
      <trkpt lat="42.791502" lon="-7.929169">
        <ele>566.6</ele>
        <time>1970-01-01T00:53:56.000Z</time>
      </trkpt>
      <trkpt lat="42.791502" lon="-7.929213">
        <ele>566.7</ele>
        <time>1970-01-01T00:53:57.000Z</time>
      </trkpt>
      <trkpt lat="42.7915" lon="-7.929258">
        <ele>566.8</ele>
        <time>1970-01-01T00:53:58.000Z</time>
      </trkpt>
      <trkpt lat="42.791488" lon="-7.929296">
        <ele>566.8</ele>
        <time>1970-01-01T00:53:59.000Z</time>
      </trkpt>
      <trkpt lat="42.791499" lon="-7.929341">
        <ele>567</ele>
        <time>1970-01-01T00:54:00.000Z</time>
      </trkpt>
      <trkpt lat="42.791513" lon="-7.929383">
        <ele>567.1</ele>
        <time>1970-01-01T00:54:01.000Z</time>
      </trkpt>
      <trkpt lat="42.791527" lon="-7.929425">
        <ele>567.1</ele>
        <time>1970-01-01T00:54:02.000Z</time>
      </trkpt>
      <trkpt lat="42.791544" lon="-7.929481">
        <ele>567.3</ele>
        <time>1970-01-01T00:54:03.000Z</time>
      </trkpt>
      <trkpt lat="42.791569" lon="-7.929516">
        <ele>567.4</ele>
        <time>1970-01-01T00:54:04.000Z</time>
      </trkpt>
      <trkpt lat="42.791579" lon="-7.929556">
        <ele>567.5</ele>
        <time>1970-01-01T00:54:05.000Z</time>
      </trkpt>
      <trkpt lat="42.791587" lon="-7.929601">
        <ele>567.6</ele>
        <time>1970-01-01T00:54:06.000Z</time>
      </trkpt>
      <trkpt lat="42.7916" lon="-7.929648">
        <ele>567.6</ele>
        <time>1970-01-01T00:54:07.000Z</time>
      </trkpt>
      <trkpt lat="42.791619" lon="-7.929695">
        <ele>567.8</ele>
        <time>1970-01-01T00:54:08.000Z</time>
      </trkpt>
      <trkpt lat="42.791645" lon="-7.929747">
        <ele>567.8</ele>
        <time>1970-01-01T00:54:09.000Z</time>
      </trkpt>
      <trkpt lat="42.791669" lon="-7.929801">
        <ele>567.9</ele>
        <time>1970-01-01T00:54:10.000Z</time>
      </trkpt>
      <trkpt lat="42.791694" lon="-7.929852">
        <ele>568</ele>
        <time>1970-01-01T00:54:11.000Z</time>
      </trkpt>
      <trkpt lat="42.791724" lon="-7.929902">
        <ele>568.1</ele>
        <time>1970-01-01T00:54:12.000Z</time>
      </trkpt>
      <trkpt lat="42.79175" lon="-7.92995">
        <ele>568.2</ele>
        <time>1970-01-01T00:54:13.000Z</time>
      </trkpt>
      <trkpt lat="42.791776" lon="-7.929995">
        <ele>568.3</ele>
        <time>1970-01-01T00:54:14.000Z</time>
      </trkpt>
      <trkpt lat="42.791803" lon="-7.930041">
        <ele>568.4</ele>
        <time>1970-01-01T00:54:15.000Z</time>
      </trkpt>
      <trkpt lat="42.791836" lon="-7.930086">
        <ele>568.4</ele>
        <time>1970-01-01T00:54:16.000Z</time>
      </trkpt>
      <trkpt lat="42.791879" lon="-7.930122">
        <ele>568.6</ele>
        <time>1970-01-01T00:54:17.000Z</time>
      </trkpt>
      <trkpt lat="42.791919" lon="-7.930147">
        <ele>568.6</ele>
        <time>1970-01-01T00:54:18.000Z</time>
      </trkpt>
      <trkpt lat="42.79196" lon="-7.930161">
        <ele>568.7</ele>
        <time>1970-01-01T00:54:19.000Z</time>
      </trkpt>
      <trkpt lat="42.792001" lon="-7.930171">
        <ele>568.7</ele>
        <time>1970-01-01T00:54:20.000Z</time>
      </trkpt>
      <trkpt lat="42.792042" lon="-7.930176">
        <ele>568.7</ele>
        <time>1970-01-01T00:54:21.000Z</time>
      </trkpt>
      <trkpt lat="42.792077" lon="-7.930177">
        <ele>568.7</ele>
        <time>1970-01-01T00:54:22.000Z</time>
      </trkpt>
      <trkpt lat="42.792112" lon="-7.930183">
        <ele>568.7</ele>
        <time>1970-01-01T00:54:23.000Z</time>
      </trkpt>
      <trkpt lat="42.792144" lon="-7.930193">
        <ele>568.7</ele>
        <time>1970-01-01T00:54:24.000Z</time>
      </trkpt>
      <trkpt lat="42.79217" lon="-7.930212">
        <ele>568.8</ele>
        <time>1970-01-01T00:54:25.000Z</time>
      </trkpt>
      <trkpt lat="42.792193" lon="-7.930226">
        <ele>568.7</ele>
        <time>1970-01-01T00:54:26.000Z</time>
      </trkpt>
      <trkpt lat="42.792218" lon="-7.930241">
        <ele>568.9</ele>
        <time>1970-01-01T00:54:27.000Z</time>
      </trkpt>
      <trkpt lat="42.792239" lon="-7.93025">
        <ele>568.8</ele>
        <time>1970-01-01T00:54:28.000Z</time>
      </trkpt>
      <trkpt lat="42.792243" lon="-7.930257">
        <ele>568.8</ele>
        <time>1970-01-01T00:54:29.000Z</time>
      </trkpt>
      <trkpt lat="42.792258" lon="-7.930269">
        <ele>568.8</ele>
        <time>1970-01-01T00:54:30.000Z</time>
      </trkpt>
      <trkpt lat="42.792286" lon="-7.930292">
        <ele>568.8</ele>
        <time>1970-01-01T00:54:31.000Z</time>
      </trkpt>
      <trkpt lat="42.792314" lon="-7.930314">
        <ele>568.8</ele>
        <time>1970-01-01T00:54:32.000Z</time>
      </trkpt>
      <trkpt lat="42.792336" lon="-7.930339">
        <ele>568.9</ele>
        <time>1970-01-01T00:54:33.000Z</time>
      </trkpt>
      <trkpt lat="42.792354" lon="-7.93036">
        <ele>568.8</ele>
        <time>1970-01-01T00:54:34.000Z</time>
      </trkpt>
      <trkpt lat="42.792374" lon="-7.930371">
        <ele>568.9</ele>
        <time>1970-01-01T00:54:35.000Z</time>
      </trkpt>
      <trkpt lat="42.792398" lon="-7.930383">
        <ele>568.8</ele>
        <time>1970-01-01T00:54:36.000Z</time>
      </trkpt>
      <trkpt lat="42.79243" lon="-7.930403">
        <ele>568.8</ele>
        <time>1970-01-01T00:54:37.000Z</time>
      </trkpt>
      <trkpt lat="42.792459" lon="-7.930422">
        <ele>568.7</ele>
        <time>1970-01-01T00:54:38.000Z</time>
      </trkpt>
      <trkpt lat="42.792482" lon="-7.930441">
        <ele>568.6</ele>
        <time>1970-01-01T00:54:39.000Z</time>
      </trkpt>
      <trkpt lat="42.792507" lon="-7.930453">
        <ele>568.5</ele>
        <time>1970-01-01T00:54:40.000Z</time>
      </trkpt>
      <trkpt lat="42.792527" lon="-7.930467">
        <ele>568.6</ele>
        <time>1970-01-01T00:54:41.000Z</time>
      </trkpt>
      <trkpt lat="42.792549" lon="-7.930491">
        <ele>568.4</ele>
        <time>1970-01-01T00:54:42.000Z</time>
      </trkpt>
      <trkpt lat="42.79257" lon="-7.930501">
        <ele>568.4</ele>
        <time>1970-01-01T00:54:43.000Z</time>
      </trkpt>
      <trkpt lat="42.792588" lon="-7.930515">
        <ele>568.4</ele>
        <time>1970-01-01T00:54:44.000Z</time>
      </trkpt>
      <trkpt lat="42.792616" lon="-7.930524">
        <ele>568.2</ele>
        <time>1970-01-01T00:54:45.000Z</time>
      </trkpt>
      <trkpt lat="42.792629" lon="-7.930533">
        <ele>568.2</ele>
        <time>1970-01-01T00:54:46.000Z</time>
      </trkpt>
      <trkpt lat="42.792643" lon="-7.930553">
        <ele>568.2</ele>
        <time>1970-01-01T00:54:47.000Z</time>
      </trkpt>
      <trkpt lat="42.792657" lon="-7.930571">
        <ele>568.2</ele>
        <time>1970-01-01T00:54:48.000Z</time>
      </trkpt>
      <trkpt lat="42.792667" lon="-7.930584">
        <ele>568.1</ele>
        <time>1970-01-01T00:54:49.000Z</time>
      </trkpt>
      <trkpt lat="42.792685" lon="-7.930602">
        <ele>568.1</ele>
        <time>1970-01-01T00:54:50.000Z</time>
      </trkpt>
      <trkpt lat="42.792709" lon="-7.930621">
        <ele>567.9</ele>
        <time>1970-01-01T00:54:51.000Z</time>
      </trkpt>
      <trkpt lat="42.792725" lon="-7.930638">
        <ele>567.8</ele>
        <time>1970-01-01T00:54:52.000Z</time>
      </trkpt>
      <trkpt lat="42.79275" lon="-7.930653">
        <ele>567.8</ele>
        <time>1970-01-01T00:54:53.000Z</time>
      </trkpt>
      <trkpt lat="42.792758" lon="-7.93068">
        <ele>567.6</ele>
        <time>1970-01-01T00:54:54.000Z</time>
      </trkpt>
      <trkpt lat="42.792784" lon="-7.930701">
        <ele>567.6</ele>
        <time>1970-01-01T00:54:55.000Z</time>
      </trkpt>
      <trkpt lat="42.79282" lon="-7.930719">
        <ele>567.1</ele>
        <time>1970-01-01T00:54:56.000Z</time>
      </trkpt>
      <trkpt lat="42.792846" lon="-7.930732">
        <ele>567.1</ele>
        <time>1970-01-01T00:54:57.000Z</time>
      </trkpt>
      <trkpt lat="42.792882" lon="-7.930751">
        <ele>566.8</ele>
        <time>1970-01-01T00:54:58.000Z</time>
      </trkpt>
      <trkpt lat="42.792926" lon="-7.930757">
        <ele>566.5</ele>
        <time>1970-01-01T00:54:59.000Z</time>
      </trkpt>
      <trkpt lat="42.792967" lon="-7.930767">
        <ele>566.3</ele>
        <time>1970-01-01T00:55:00.000Z</time>
      </trkpt>
      <trkpt lat="42.793007" lon="-7.930777">
        <ele>566.1</ele>
        <time>1970-01-01T00:55:01.000Z</time>
      </trkpt>
      <trkpt lat="42.793049" lon="-7.930789">
        <ele>565.6</ele>
        <time>1970-01-01T00:55:02.000Z</time>
      </trkpt>
      <trkpt lat="42.793086" lon="-7.9308">
        <ele>565.3</ele>
        <time>1970-01-01T00:55:03.000Z</time>
      </trkpt>
      <trkpt lat="42.793123" lon="-7.930811">
        <ele>565</ele>
        <time>1970-01-01T00:55:04.000Z</time>
      </trkpt>
      <trkpt lat="42.793153" lon="-7.930823">
        <ele>564.7</ele>
        <time>1970-01-01T00:55:05.000Z</time>
      </trkpt>
      <trkpt lat="42.793199" lon="-7.930841">
        <ele>564.1</ele>
        <time>1970-01-01T00:55:06.000Z</time>
      </trkpt>
      <trkpt lat="42.79325" lon="-7.930862">
        <ele>563.7</ele>
        <time>1970-01-01T00:55:07.000Z</time>
      </trkpt>
      <trkpt lat="42.793288" lon="-7.930869">
        <ele>563.4</ele>
        <time>1970-01-01T00:55:08.000Z</time>
      </trkpt>
      <trkpt lat="42.793317" lon="-7.930883">
        <ele>563</ele>
        <time>1970-01-01T00:55:09.000Z</time>
      </trkpt>
      <trkpt lat="42.793351" lon="-7.930895">
        <ele>562.6</ele>
        <time>1970-01-01T00:55:10.000Z</time>
      </trkpt>
      <trkpt lat="42.793385" lon="-7.930911">
        <ele>562.2</ele>
        <time>1970-01-01T00:55:11.000Z</time>
      </trkpt>
      <trkpt lat="42.793412" lon="-7.930927">
        <ele>561.9</ele>
        <time>1970-01-01T00:55:12.000Z</time>
      </trkpt>
      <trkpt lat="42.793458" lon="-7.930948">
        <ele>561.1</ele>
        <time>1970-01-01T00:55:13.000Z</time>
      </trkpt>
      <trkpt lat="42.793494" lon="-7.930972">
        <ele>560.8</ele>
        <time>1970-01-01T00:55:14.000Z</time>
      </trkpt>
      <trkpt lat="42.793536" lon="-7.93099">
        <ele>560.4</ele>
        <time>1970-01-01T00:55:15.000Z</time>
      </trkpt>
      <trkpt lat="42.793565" lon="-7.931024">
        <ele>560.1</ele>
        <time>1970-01-01T00:55:16.000Z</time>
      </trkpt>
      <trkpt lat="42.793593" lon="-7.931062">
        <ele>559.7</ele>
        <time>1970-01-01T00:55:17.000Z</time>
      </trkpt>
      <trkpt lat="42.793617" lon="-7.931103">
        <ele>559.3</ele>
        <time>1970-01-01T00:55:18.000Z</time>
      </trkpt>
      <trkpt lat="42.79365" lon="-7.931151">
        <ele>558.9</ele>
        <time>1970-01-01T00:55:19.000Z</time>
      </trkpt>
      <trkpt lat="42.793687" lon="-7.931183">
        <ele>558.5</ele>
        <time>1970-01-01T00:55:20.000Z</time>
      </trkpt>
      <trkpt lat="42.79373" lon="-7.931215">
        <ele>558.2</ele>
        <time>1970-01-01T00:55:21.000Z</time>
      </trkpt>
      <trkpt lat="42.793766" lon="-7.931259">
        <ele>557.7</ele>
        <time>1970-01-01T00:55:22.000Z</time>
      </trkpt>
      <trkpt lat="42.793796" lon="-7.931299">
        <ele>557.4</ele>
        <time>1970-01-01T00:55:23.000Z</time>
      </trkpt>
      <trkpt lat="42.793842" lon="-7.931326">
        <ele>557.2</ele>
        <time>1970-01-01T00:55:24.000Z</time>
      </trkpt>
      <trkpt lat="42.793876" lon="-7.931358">
        <ele>556.9</ele>
        <time>1970-01-01T00:55:25.000Z</time>
      </trkpt>
      <trkpt lat="42.793911" lon="-7.931379">
        <ele>556.7</ele>
        <time>1970-01-01T00:55:26.000Z</time>
      </trkpt>
      <trkpt lat="42.793943" lon="-7.931397">
        <ele>556.5</ele>
        <time>1970-01-01T00:55:27.000Z</time>
      </trkpt>
      <trkpt lat="42.793988" lon="-7.931414">
        <ele>556</ele>
        <time>1970-01-01T00:55:28.000Z</time>
      </trkpt>
      <trkpt lat="42.794026" lon="-7.931422">
        <ele>555.9</ele>
        <time>1970-01-01T00:55:29.000Z</time>
      </trkpt>
      <trkpt lat="42.794065" lon="-7.931421">
        <ele>555.7</ele>
        <time>1970-01-01T00:55:30.000Z</time>
      </trkpt>
      <trkpt lat="42.794107" lon="-7.931409">
        <ele>555.5</ele>
        <time>1970-01-01T00:55:31.000Z</time>
      </trkpt>
      <trkpt lat="42.794155" lon="-7.931393">
        <ele>555</ele>
        <time>1970-01-01T00:55:32.000Z</time>
      </trkpt>
      <trkpt lat="42.794198" lon="-7.931371">
        <ele>554.7</ele>
        <time>1970-01-01T00:55:33.000Z</time>
      </trkpt>
      <trkpt lat="42.794227" lon="-7.931357">
        <ele>554.4</ele>
        <time>1970-01-01T00:55:34.000Z</time>
      </trkpt>
      <trkpt lat="42.794273" lon="-7.931341">
        <ele>553.9</ele>
        <time>1970-01-01T00:55:35.000Z</time>
      </trkpt>
      <trkpt lat="42.794311" lon="-7.931335">
        <ele>553.7</ele>
        <time>1970-01-01T00:55:36.000Z</time>
      </trkpt>
      <trkpt lat="42.794352" lon="-7.931336">
        <ele>553.5</ele>
        <time>1970-01-01T00:55:37.000Z</time>
      </trkpt>
      <trkpt lat="42.794401" lon="-7.931341">
        <ele>553</ele>
        <time>1970-01-01T00:55:38.000Z</time>
      </trkpt>
      <trkpt lat="42.794444" lon="-7.93135">
        <ele>552.8</ele>
        <time>1970-01-01T00:55:39.000Z</time>
      </trkpt>
      <trkpt lat="42.794504" lon="-7.931374">
        <ele>552.5</ele>
        <time>1970-01-01T00:55:40.000Z</time>
      </trkpt>
      <trkpt lat="42.79455" lon="-7.931398">
        <ele>552.3</ele>
        <time>1970-01-01T00:55:41.000Z</time>
      </trkpt>
      <trkpt lat="42.79461" lon="-7.931417">
        <ele>551.9</ele>
        <time>1970-01-01T00:55:42.000Z</time>
      </trkpt>
      <trkpt lat="42.79466" lon="-7.931442">
        <ele>551.5</ele>
        <time>1970-01-01T00:55:43.000Z</time>
      </trkpt>
      <trkpt lat="42.79472" lon="-7.931459">
        <ele>551.1</ele>
        <time>1970-01-01T00:55:44.000Z</time>
      </trkpt>
      <trkpt lat="42.794766" lon="-7.931469">
        <ele>550.9</ele>
        <time>1970-01-01T00:55:45.000Z</time>
      </trkpt>
      <trkpt lat="42.794831" lon="-7.931484">
        <ele>550.5</ele>
        <time>1970-01-01T00:55:46.000Z</time>
      </trkpt>
      <trkpt lat="42.79488" lon="-7.931509">
        <ele>550.1</ele>
        <time>1970-01-01T00:55:47.000Z</time>
      </trkpt>
      <trkpt lat="42.794932" lon="-7.931529">
        <ele>549.7</ele>
        <time>1970-01-01T00:55:48.000Z</time>
      </trkpt>
      <trkpt lat="42.794972" lon="-7.931553">
        <ele>549.5</ele>
        <time>1970-01-01T00:55:49.000Z</time>
      </trkpt>
      <trkpt lat="42.79503" lon="-7.931589">
        <ele>549.1</ele>
        <time>1970-01-01T00:55:50.000Z</time>
      </trkpt>
      <trkpt lat="42.795067" lon="-7.931625">
        <ele>548.8</ele>
        <time>1970-01-01T00:55:51.000Z</time>
      </trkpt>
      <trkpt lat="42.795124" lon="-7.931659">
        <ele>548.4</ele>
        <time>1970-01-01T00:55:52.000Z</time>
      </trkpt>
      <trkpt lat="42.795177" lon="-7.931681">
        <ele>548.2</ele>
        <time>1970-01-01T00:55:53.000Z</time>
      </trkpt>
      <trkpt lat="42.795222" lon="-7.931706">
        <ele>547.8</ele>
        <time>1970-01-01T00:55:54.000Z</time>
      </trkpt>
      <trkpt lat="42.795267" lon="-7.931718">
        <ele>547.6</ele>
        <time>1970-01-01T00:55:55.000Z</time>
      </trkpt>
      <trkpt lat="42.795314" lon="-7.931726">
        <ele>547.1</ele>
        <time>1970-01-01T00:55:56.000Z</time>
      </trkpt>
      <trkpt lat="42.795352" lon="-7.931717">
        <ele>546.9</ele>
        <time>1970-01-01T00:55:57.000Z</time>
      </trkpt>
      <trkpt lat="42.79538" lon="-7.931701">
        <ele>546.7</ele>
        <time>1970-01-01T00:55:58.000Z</time>
      </trkpt>
      <trkpt lat="42.795447" lon="-7.931684">
        <ele>546.3</ele>
        <time>1970-01-01T00:55:59.000Z</time>
      </trkpt>
      <trkpt lat="42.795472" lon="-7.931664">
        <ele>546.1</ele>
        <time>1970-01-01T00:56:00.000Z</time>
      </trkpt>
      <trkpt lat="42.795482" lon="-7.931634">
        <ele>546.2</ele>
        <time>1970-01-01T00:56:01.000Z</time>
      </trkpt>
      <trkpt lat="42.795487" lon="-7.931599">
        <ele>546.2</ele>
        <time>1970-01-01T00:56:02.000Z</time>
      </trkpt>
      <trkpt lat="42.795504" lon="-7.931562">
        <ele>546</ele>
        <time>1970-01-01T00:56:03.000Z</time>
      </trkpt>
      <trkpt lat="42.795516" lon="-7.931517">
        <ele>546</ele>
        <time>1970-01-01T00:56:04.000Z</time>
      </trkpt>
      <trkpt lat="42.795531" lon="-7.931486">
        <ele>545.8</ele>
        <time>1970-01-01T00:56:05.000Z</time>
      </trkpt>
      <trkpt lat="42.795542" lon="-7.93145">
        <ele>545.7</ele>
        <time>1970-01-01T00:56:06.000Z</time>
      </trkpt>
      <trkpt lat="42.795559" lon="-7.93142">
        <ele>545.4</ele>
        <time>1970-01-01T00:56:07.000Z</time>
      </trkpt>
      <trkpt lat="42.795579" lon="-7.931375">
        <ele>545.4</ele>
        <time>1970-01-01T00:56:08.000Z</time>
      </trkpt>
      <trkpt lat="42.79559" lon="-7.931328">
        <ele>545.1</ele>
        <time>1970-01-01T00:56:09.000Z</time>
      </trkpt>
      <trkpt lat="42.795612" lon="-7.931293">
        <ele>545</ele>
        <time>1970-01-01T00:56:10.000Z</time>
      </trkpt>
      <trkpt lat="42.795637" lon="-7.931245">
        <ele>544.7</ele>
        <time>1970-01-01T00:56:11.000Z</time>
      </trkpt>
      <trkpt lat="42.795651" lon="-7.9312">
        <ele>544.6</ele>
        <time>1970-01-01T00:56:13.000Z</time>
      </trkpt>
      <trkpt lat="42.795682" lon="-7.931088">
        <ele>544.1</ele>
        <time>1970-01-01T00:56:14.000Z</time>
      </trkpt>
      <trkpt lat="42.795711" lon="-7.931039">
        <ele>543.8</ele>
        <time>1970-01-01T00:56:16.000Z</time>
      </trkpt>
      <trkpt lat="42.795773" lon="-7.930936">
        <ele>543.2</ele>
        <time>1970-01-01T00:56:18.000Z</time>
      </trkpt>
      <trkpt lat="42.795812" lon="-7.930847">
        <ele>542.6</ele>
        <time>1970-01-01T00:56:20.000Z</time>
      </trkpt>
      <trkpt lat="42.795863" lon="-7.930746">
        <ele>542</ele>
        <time>1970-01-01T00:56:22.000Z</time>
      </trkpt>
      <trkpt lat="42.795898" lon="-7.930647">
        <ele>541.5</ele>
        <time>1970-01-01T00:56:23.000Z</time>
      </trkpt>
      <trkpt lat="42.795908" lon="-7.930593">
        <ele>541.1</ele>
        <time>1970-01-01T00:56:25.000Z</time>
      </trkpt>
      <trkpt lat="42.795919" lon="-7.930478">
        <ele>540.9</ele>
        <time>1970-01-01T00:56:26.000Z</time>
      </trkpt>
      <trkpt lat="42.795926" lon="-7.930414">
        <ele>540.7</ele>
        <time>1970-01-01T00:56:27.000Z</time>
      </trkpt>
      <trkpt lat="42.795929" lon="-7.930353">
        <ele>540.6</ele>
        <time>1970-01-01T00:56:29.000Z</time>
      </trkpt>
      <trkpt lat="42.795937" lon="-7.930236">
        <ele>540.3</ele>
        <time>1970-01-01T00:56:30.000Z</time>
      </trkpt>
      <trkpt lat="42.795936" lon="-7.930182">
        <ele>540.2</ele>
        <time>1970-01-01T00:56:32.000Z</time>
      </trkpt>
      <trkpt lat="42.795928" lon="-7.930075">
        <ele>540.4</ele>
        <time>1970-01-01T00:56:33.000Z</time>
      </trkpt>
      <trkpt lat="42.795922" lon="-7.930024">
        <ele>540.4</ele>
        <time>1970-01-01T00:56:35.000Z</time>
      </trkpt>
      <trkpt lat="42.795913" lon="-7.92992">
        <ele>540.5</ele>
        <time>1970-01-01T00:56:36.000Z</time>
      </trkpt>
      <trkpt lat="42.795913" lon="-7.929865">
        <ele>540.6</ele>
        <time>1970-01-01T00:56:37.000Z</time>
      </trkpt>
      <trkpt lat="42.795909" lon="-7.929811">
        <ele>540.6</ele>
        <time>1970-01-01T00:56:39.000Z</time>
      </trkpt>
      <trkpt lat="42.795911" lon="-7.929721">
        <ele>540.6</ele>
        <time>1970-01-01T00:56:40.000Z</time>
      </trkpt>
      <trkpt lat="42.795902" lon="-7.929682">
        <ele>540.6</ele>
        <time>1970-01-01T00:56:41.000Z</time>
      </trkpt>
      <trkpt lat="42.795892" lon="-7.929635">
        <ele>540.7</ele>
        <time>1970-01-01T00:56:43.000Z</time>
      </trkpt>
      <trkpt lat="42.795874" lon="-7.929528">
        <ele>540.8</ele>
        <time>1970-01-01T00:56:45.000Z</time>
      </trkpt>
      <trkpt lat="42.79585" lon="-7.929389">
        <ele>540.8</ele>
        <time>1970-01-01T00:56:47.000Z</time>
      </trkpt>
      <trkpt lat="42.795827" lon="-7.929232">
        <ele>541.1</ele>
        <time>1970-01-01T00:56:49.000Z</time>
      </trkpt>
      <trkpt lat="42.795801" lon="-7.929075">
        <ele>541.3</ele>
        <time>1970-01-01T00:56:51.000Z</time>
      </trkpt>
      <trkpt lat="42.795773" lon="-7.92893">
        <ele>541.5</ele>
        <time>1970-01-01T00:56:52.000Z</time>
      </trkpt>
      <trkpt lat="42.795758" lon="-7.928862">
        <ele>541.4</ele>
        <time>1970-01-01T00:56:53.000Z</time>
      </trkpt>
      <trkpt lat="42.795742" lon="-7.9288">
        <ele>541.4</ele>
        <time>1970-01-01T00:56:55.000Z</time>
      </trkpt>
      <trkpt lat="42.795708" lon="-7.92869">
        <ele>541.4</ele>
        <time>1970-01-01T00:56:56.000Z</time>
      </trkpt>
      <trkpt lat="42.79569" lon="-7.928649">
        <ele>541.4</ele>
        <time>1970-01-01T00:56:57.000Z</time>
      </trkpt>
      <trkpt lat="42.795664" lon="-7.928563">
        <ele>541.5</ele>
        <time>1970-01-01T00:56:59.000Z</time>
      </trkpt>
      <trkpt lat="42.795653" lon="-7.928519">
        <ele>541.5</ele>
        <time>1970-01-01T00:57:00.000Z</time>
      </trkpt>
      <trkpt lat="42.795648" lon="-7.928476">
        <ele>541.5</ele>
        <time>1970-01-01T00:57:01.000Z</time>
      </trkpt>
      <trkpt lat="42.795638" lon="-7.92843">
        <ele>541.6</ele>
        <time>1970-01-01T00:57:03.000Z</time>
      </trkpt>
      <trkpt lat="42.795609" lon="-7.928343">
        <ele>541.7</ele>
        <time>1970-01-01T00:57:05.000Z</time>
      </trkpt>
      <trkpt lat="42.795588" lon="-7.928253">
        <ele>541.8</ele>
        <time>1970-01-01T00:57:07.000Z</time>
      </trkpt>
      <trkpt lat="42.795572" lon="-7.928164">
        <ele>541.9</ele>
        <time>1970-01-01T00:57:09.000Z</time>
      </trkpt>
      <trkpt lat="42.795566" lon="-7.928081">
        <ele>541.9</ele>
        <time>1970-01-01T00:57:11.000Z</time>
      </trkpt>
      <trkpt lat="42.795575" lon="-7.928008">
        <ele>541.9</ele>
        <time>1970-01-01T00:57:13.000Z</time>
      </trkpt>
      <trkpt lat="42.795588" lon="-7.927937">
        <ele>541.9</ele>
        <time>1970-01-01T00:57:15.000Z</time>
      </trkpt>
      <trkpt lat="42.795599" lon="-7.92787">
        <ele>541.6</ele>
        <time>1970-01-01T00:57:17.000Z</time>
      </trkpt>
      <trkpt lat="42.79563" lon="-7.927828">
        <ele>541.4</ele>
        <time>1970-01-01T00:57:18.000Z</time>
      </trkpt>
      <trkpt lat="42.795654" lon="-7.927809">
        <ele>541.3</ele>
        <time>1970-01-01T00:57:19.000Z</time>
      </trkpt>
      <trkpt lat="42.795683" lon="-7.927794">
        <ele>541.3</ele>
        <time>1970-01-01T00:57:21.000Z</time>
      </trkpt>
      <trkpt lat="42.795713" lon="-7.927777">
        <ele>541.1</ele>
        <time>1970-01-01T00:57:22.000Z</time>
      </trkpt>
      <trkpt lat="42.795776" lon="-7.92773">
        <ele>540.8</ele>
        <time>1970-01-01T00:57:24.000Z</time>
      </trkpt>
      <trkpt lat="42.795807" lon="-7.927693">
        <ele>540.6</ele>
        <time>1970-01-01T00:57:25.000Z</time>
      </trkpt>
      <trkpt lat="42.795867" lon="-7.927603">
        <ele>540.3</ele>
        <time>1970-01-01T00:57:26.000Z</time>
      </trkpt>
      <trkpt lat="42.795902" lon="-7.927554">
        <ele>540.2</ele>
        <time>1970-01-01T00:57:27.000Z</time>
      </trkpt>
      <trkpt lat="42.795938" lon="-7.927516">
        <ele>539.9</ele>
        <time>1970-01-01T00:57:29.000Z</time>
      </trkpt>
      <trkpt lat="42.795976" lon="-7.927486">
        <ele>539.8</ele>
        <time>1970-01-01T00:57:30.000Z</time>
      </trkpt>
      <trkpt lat="42.796016" lon="-7.927464">
        <ele>539.6</ele>
        <time>1970-01-01T00:57:31.000Z</time>
      </trkpt>
      <trkpt lat="42.796059" lon="-7.927442">
        <ele>539.4</ele>
        <time>1970-01-01T00:57:32.000Z</time>
      </trkpt>
      <trkpt lat="42.796101" lon="-7.927417">
        <ele>538.9</ele>
        <time>1970-01-01T00:57:33.000Z</time>
      </trkpt>
      <trkpt lat="42.79614" lon="-7.927395">
        <ele>538.6</ele>
        <time>1970-01-01T00:57:34.000Z</time>
      </trkpt>
      <trkpt lat="42.796178" lon="-7.927371">
        <ele>538.4</ele>
        <time>1970-01-01T00:57:35.000Z</time>
      </trkpt>
      <trkpt lat="42.796218" lon="-7.927355">
        <ele>538.1</ele>
        <time>1970-01-01T00:57:36.000Z</time>
      </trkpt>
      <trkpt lat="42.796262" lon="-7.927354">
        <ele>537.7</ele>
        <time>1970-01-01T00:57:37.000Z</time>
      </trkpt>
      <trkpt lat="42.796301" lon="-7.927354">
        <ele>537.5</ele>
        <time>1970-01-01T00:57:38.000Z</time>
      </trkpt>
      <trkpt lat="42.796352" lon="-7.927348">
        <ele>537.1</ele>
        <time>1970-01-01T00:57:39.000Z</time>
      </trkpt>
      <trkpt lat="42.796401" lon="-7.927332">
        <ele>536.8</ele>
        <time>1970-01-01T00:57:40.000Z</time>
      </trkpt>
      <trkpt lat="42.796457" lon="-7.927306">
        <ele>536.5</ele>
        <time>1970-01-01T00:57:41.000Z</time>
      </trkpt>
      <trkpt lat="42.796513" lon="-7.927282">
        <ele>536.1</ele>
        <time>1970-01-01T00:57:42.000Z</time>
      </trkpt>
      <trkpt lat="42.796564" lon="-7.927251">
        <ele>536</ele>
        <time>1970-01-01T00:57:43.000Z</time>
      </trkpt>
      <trkpt lat="42.796617" lon="-7.927217">
        <ele>535.6</ele>
        <time>1970-01-01T00:57:44.000Z</time>
      </trkpt>
      <trkpt lat="42.796667" lon="-7.927175">
        <ele>535.2</ele>
        <time>1970-01-01T00:57:45.000Z</time>
      </trkpt>
      <trkpt lat="42.796708" lon="-7.927128">
        <ele>535</ele>
        <time>1970-01-01T00:57:46.000Z</time>
      </trkpt>
      <trkpt lat="42.796753" lon="-7.927082">
        <ele>534.8</ele>
        <time>1970-01-01T00:57:47.000Z</time>
      </trkpt>
      <trkpt lat="42.796801" lon="-7.927037">
        <ele>534.4</ele>
        <time>1970-01-01T00:57:48.000Z</time>
      </trkpt>
      <trkpt lat="42.796849" lon="-7.92699">
        <ele>534.3</ele>
        <time>1970-01-01T00:57:49.000Z</time>
      </trkpt>
      <trkpt lat="42.796897" lon="-7.92695">
        <ele>534</ele>
        <time>1970-01-01T00:57:50.000Z</time>
      </trkpt>
      <trkpt lat="42.796957" lon="-7.9269">
        <ele>533.8</ele>
        <time>1970-01-01T00:57:51.000Z</time>
      </trkpt>
      <trkpt lat="42.797013" lon="-7.926859">
        <ele>533.6</ele>
        <time>1970-01-01T00:57:52.000Z</time>
      </trkpt>
      <trkpt lat="42.797069" lon="-7.92682">
        <ele>533.6</ele>
        <time>1970-01-01T00:57:53.000Z</time>
      </trkpt>
      <trkpt lat="42.797123" lon="-7.926776">
        <ele>533.4</ele>
        <time>1970-01-01T00:57:54.000Z</time>
      </trkpt>
      <trkpt lat="42.797175" lon="-7.926732">
        <ele>533.2</ele>
        <time>1970-01-01T00:57:55.000Z</time>
      </trkpt>
      <trkpt lat="42.797224" lon="-7.926686">
        <ele>533.1</ele>
        <time>1970-01-01T00:57:56.000Z</time>
      </trkpt>
      <trkpt lat="42.797272" lon="-7.926639">
        <ele>532.9</ele>
        <time>1970-01-01T00:57:57.000Z</time>
      </trkpt>
      <trkpt lat="42.797318" lon="-7.926591">
        <ele>532.8</ele>
        <time>1970-01-01T00:57:58.000Z</time>
      </trkpt>
      <trkpt lat="42.797363" lon="-7.926542">
        <ele>532.6</ele>
        <time>1970-01-01T00:57:59.000Z</time>
      </trkpt>
      <trkpt lat="42.797408" lon="-7.926493">
        <ele>532.5</ele>
        <time>1970-01-01T00:58:00.000Z</time>
      </trkpt>
      <trkpt lat="42.79745" lon="-7.926443">
        <ele>532.3</ele>
        <time>1970-01-01T00:58:01.000Z</time>
      </trkpt>
      <trkpt lat="42.79749" lon="-7.926393">
        <ele>532.2</ele>
        <time>1970-01-01T00:58:02.000Z</time>
      </trkpt>
      <trkpt lat="42.797532" lon="-7.926345">
        <ele>532.1</ele>
        <time>1970-01-01T00:58:03.000Z</time>
      </trkpt>
      <trkpt lat="42.797572" lon="-7.926295">
        <ele>531.9</ele>
        <time>1970-01-01T00:58:04.000Z</time>
      </trkpt>
      <trkpt lat="42.797611" lon="-7.926244">
        <ele>531.7</ele>
        <time>1970-01-01T00:58:05.000Z</time>
      </trkpt>
      <trkpt lat="42.797649" lon="-7.92619">
        <ele>531.6</ele>
        <time>1970-01-01T00:58:06.000Z</time>
      </trkpt>
      <trkpt lat="42.797688" lon="-7.926138">
        <ele>531.5</ele>
        <time>1970-01-01T00:58:07.000Z</time>
      </trkpt>
      <trkpt lat="42.797724" lon="-7.926087">
        <ele>531.4</ele>
        <time>1970-01-01T00:58:08.000Z</time>
      </trkpt>
      <trkpt lat="42.79776" lon="-7.926035">
        <ele>531.3</ele>
        <time>1970-01-01T00:58:09.000Z</time>
      </trkpt>
      <trkpt lat="42.797797" lon="-7.925986">
        <ele>531</ele>
        <time>1970-01-01T00:58:10.000Z</time>
      </trkpt>
      <trkpt lat="42.797833" lon="-7.925939">
        <ele>530.9</ele>
        <time>1970-01-01T00:58:11.000Z</time>
      </trkpt>
      <trkpt lat="42.797869" lon="-7.925892">
        <ele>530.9</ele>
        <time>1970-01-01T00:58:12.000Z</time>
      </trkpt>
      <trkpt lat="42.797905" lon="-7.925844">
        <ele>530.8</ele>
        <time>1970-01-01T00:58:13.000Z</time>
      </trkpt>
      <trkpt lat="42.79794" lon="-7.925795">
        <ele>530.7</ele>
        <time>1970-01-01T00:58:14.000Z</time>
      </trkpt>
      <trkpt lat="42.797974" lon="-7.925743">
        <ele>530.6</ele>
        <time>1970-01-01T00:58:15.000Z</time>
      </trkpt>
      <trkpt lat="42.798005" lon="-7.925689">
        <ele>530.6</ele>
        <time>1970-01-01T00:58:16.000Z</time>
      </trkpt>
      <trkpt lat="42.798037" lon="-7.925636">
        <ele>530.5</ele>
        <time>1970-01-01T00:58:17.000Z</time>
      </trkpt>
      <trkpt lat="42.798074" lon="-7.925589">
        <ele>530.4</ele>
        <time>1970-01-01T00:58:18.000Z</time>
      </trkpt>
      <trkpt lat="42.798117" lon="-7.925548">
        <ele>530.2</ele>
        <time>1970-01-01T00:58:19.000Z</time>
      </trkpt>
      <trkpt lat="42.798162" lon="-7.925507">
        <ele>530.2</ele>
        <time>1970-01-01T00:58:20.000Z</time>
      </trkpt>
      <trkpt lat="42.798209" lon="-7.925465">
        <ele>530</ele>
        <time>1970-01-01T00:58:21.000Z</time>
      </trkpt>
      <trkpt lat="42.798258" lon="-7.925423">
        <ele>529.9</ele>
        <time>1970-01-01T00:58:22.000Z</time>
      </trkpt>
      <trkpt lat="42.798307" lon="-7.925381">
        <ele>529.7</ele>
        <time>1970-01-01T00:58:23.000Z</time>
      </trkpt>
      <trkpt lat="42.798358" lon="-7.925337">
        <ele>529.6</ele>
        <time>1970-01-01T00:58:24.000Z</time>
      </trkpt>
      <trkpt lat="42.798408" lon="-7.925295">
        <ele>529.3</ele>
        <time>1970-01-01T00:58:25.000Z</time>
      </trkpt>
      <trkpt lat="42.79846" lon="-7.925253">
        <ele>529</ele>
        <time>1970-01-01T00:58:26.000Z</time>
      </trkpt>
      <trkpt lat="42.798513" lon="-7.925217">
        <ele>528.8</ele>
        <time>1970-01-01T00:58:27.000Z</time>
      </trkpt>
      <trkpt lat="42.798564" lon="-7.925179">
        <ele>528.6</ele>
        <time>1970-01-01T00:58:28.000Z</time>
      </trkpt>
      <trkpt lat="42.798613" lon="-7.925141">
        <ele>528.2</ele>
        <time>1970-01-01T00:58:29.000Z</time>
      </trkpt>
      <trkpt lat="42.798658" lon="-7.925102">
        <ele>528</ele>
        <time>1970-01-01T00:58:30.000Z</time>
      </trkpt>
      <trkpt lat="42.798706" lon="-7.925068">
        <ele>527.9</ele>
        <time>1970-01-01T00:58:31.000Z</time>
      </trkpt>
      <trkpt lat="42.79875" lon="-7.925037">
        <ele>527.6</ele>
        <time>1970-01-01T00:58:32.000Z</time>
      </trkpt>
      <trkpt lat="42.798791" lon="-7.925011">
        <ele>527.6</ele>
        <time>1970-01-01T00:58:33.000Z</time>
      </trkpt>
      <trkpt lat="42.798839" lon="-7.924985">
        <ele>527.4</ele>
        <time>1970-01-01T00:58:34.000Z</time>
      </trkpt>
      <trkpt lat="42.79889" lon="-7.924965">
        <ele>527.3</ele>
        <time>1970-01-01T00:58:35.000Z</time>
      </trkpt>
      <trkpt lat="42.798941" lon="-7.924946">
        <ele>527.1</ele>
        <time>1970-01-01T00:58:36.000Z</time>
      </trkpt>
      <trkpt lat="42.798984" lon="-7.924921">
        <ele>527</ele>
        <time>1970-01-01T00:58:37.000Z</time>
      </trkpt>
      <trkpt lat="42.799026" lon="-7.924897">
        <ele>526.6</ele>
        <time>1970-01-01T00:58:38.000Z</time>
      </trkpt>
      <trkpt lat="42.79906" lon="-7.924872">
        <ele>526.3</ele>
        <time>1970-01-01T00:58:39.000Z</time>
      </trkpt>
      <trkpt lat="42.799097" lon="-7.924854">
        <ele>526.2</ele>
        <time>1970-01-01T00:58:40.000Z</time>
      </trkpt>
      <trkpt lat="42.799139" lon="-7.924831">
        <ele>525.8</ele>
        <time>1970-01-01T00:58:41.000Z</time>
      </trkpt>
      <trkpt lat="42.799186" lon="-7.924796">
        <ele>525.3</ele>
        <time>1970-01-01T00:58:42.000Z</time>
      </trkpt>
      <trkpt lat="42.799231" lon="-7.924748">
        <ele>524.8</ele>
        <time>1970-01-01T00:58:43.000Z</time>
      </trkpt>
      <trkpt lat="42.79928" lon="-7.924696">
        <ele>523.9</ele>
        <time>1970-01-01T00:58:44.000Z</time>
      </trkpt>
      <trkpt lat="42.799329" lon="-7.924642">
        <ele>523.4</ele>
        <time>1970-01-01T00:58:45.000Z</time>
      </trkpt>
      <trkpt lat="42.799377" lon="-7.924587">
        <ele>522.7</ele>
        <time>1970-01-01T00:58:46.000Z</time>
      </trkpt>
      <trkpt lat="42.799431" lon="-7.924537">
        <ele>522.2</ele>
        <time>1970-01-01T00:58:47.000Z</time>
      </trkpt>
      <trkpt lat="42.799484" lon="-7.924484">
        <ele>521.1</ele>
        <time>1970-01-01T00:58:48.000Z</time>
      </trkpt>
      <trkpt lat="42.799538" lon="-7.924432">
        <ele>520.4</ele>
        <time>1970-01-01T00:58:49.000Z</time>
      </trkpt>
      <trkpt lat="42.79959" lon="-7.924382">
        <ele>519.6</ele>
        <time>1970-01-01T00:58:50.000Z</time>
      </trkpt>
      <trkpt lat="42.799637" lon="-7.924336">
        <ele>519.1</ele>
        <time>1970-01-01T00:58:51.000Z</time>
      </trkpt>
      <trkpt lat="42.799684" lon="-7.924292">
        <ele>518.2</ele>
        <time>1970-01-01T00:58:52.000Z</time>
      </trkpt>
      <trkpt lat="42.799734" lon="-7.924254">
        <ele>517.7</ele>
        <time>1970-01-01T00:58:53.000Z</time>
      </trkpt>
      <trkpt lat="42.799791" lon="-7.924222">
        <ele>516.9</ele>
        <time>1970-01-01T00:58:54.000Z</time>
      </trkpt>
      <trkpt lat="42.799851" lon="-7.924195">
        <ele>516.2</ele>
        <time>1970-01-01T00:58:55.000Z</time>
      </trkpt>
      <trkpt lat="42.799911" lon="-7.924172">
        <ele>515.4</ele>
        <time>1970-01-01T00:58:56.000Z</time>
      </trkpt>
      <trkpt lat="42.799972" lon="-7.924149">
        <ele>514.8</ele>
        <time>1970-01-01T00:58:57.000Z</time>
      </trkpt>
      <trkpt lat="42.800031" lon="-7.924128">
        <ele>514.1</ele>
        <time>1970-01-01T00:58:58.000Z</time>
      </trkpt>
      <trkpt lat="42.800074" lon="-7.924109">
        <ele>513.9</ele>
        <time>1970-01-01T00:58:59.000Z</time>
      </trkpt>
      <trkpt lat="42.800107" lon="-7.924083">
        <ele>513.6</ele>
        <time>1970-01-01T00:59:00.000Z</time>
      </trkpt>
      <trkpt lat="42.800127" lon="-7.924042">
        <ele>513.4</ele>
        <time>1970-01-01T00:59:01.000Z</time>
      </trkpt>
      <trkpt lat="42.800131" lon="-7.923998">
        <ele>513.5</ele>
        <time>1970-01-01T00:59:02.000Z</time>
      </trkpt>
      <trkpt lat="42.800129" lon="-7.923947">
        <ele>513.5</ele>
        <time>1970-01-01T00:59:03.000Z</time>
      </trkpt>
      <trkpt lat="42.800122" lon="-7.923894">
        <ele>513.6</ele>
        <time>1970-01-01T00:59:04.000Z</time>
      </trkpt>
      <trkpt lat="42.800112" lon="-7.923839">
        <ele>513.6</ele>
        <time>1970-01-01T00:59:05.000Z</time>
      </trkpt>
      <trkpt lat="42.800102" lon="-7.923783">
        <ele>513.7</ele>
        <time>1970-01-01T00:59:06.000Z</time>
      </trkpt>
      <trkpt lat="42.800092" lon="-7.923725">
        <ele>513.8</ele>
        <time>1970-01-01T00:59:07.000Z</time>
      </trkpt>
      <trkpt lat="42.800082" lon="-7.923665">
        <ele>513.8</ele>
        <time>1970-01-01T00:59:08.000Z</time>
      </trkpt>
      <trkpt lat="42.80007" lon="-7.923605">
        <ele>513.9</ele>
        <time>1970-01-01T00:59:09.000Z</time>
      </trkpt>
      <trkpt lat="42.800059" lon="-7.923545">
        <ele>514</ele>
        <time>1970-01-01T00:59:10.000Z</time>
      </trkpt>
      <trkpt lat="42.800047" lon="-7.923484">
        <ele>514.2</ele>
        <time>1970-01-01T00:59:11.000Z</time>
      </trkpt>
      <trkpt lat="42.800034" lon="-7.923424">
        <ele>514.4</ele>
        <time>1970-01-01T00:59:12.000Z</time>
      </trkpt>
      <trkpt lat="42.80002" lon="-7.923362">
        <ele>514.5</ele>
        <time>1970-01-01T00:59:13.000Z</time>
      </trkpt>
      <trkpt lat="42.800003" lon="-7.923302">
        <ele>514.7</ele>
        <time>1970-01-01T00:59:14.000Z</time>
      </trkpt>
      <trkpt lat="42.799977" lon="-7.923247">
        <ele>514.8</ele>
        <time>1970-01-01T00:59:15.000Z</time>
      </trkpt>
      <trkpt lat="42.799943" lon="-7.923199">
        <ele>515.2</ele>
        <time>1970-01-01T00:59:16.000Z</time>
      </trkpt>
      <trkpt lat="42.799903" lon="-7.923162">
        <ele>515.5</ele>
        <time>1970-01-01T00:59:17.000Z</time>
      </trkpt>
      <trkpt lat="42.799859" lon="-7.923135">
        <ele>515.9</ele>
        <time>1970-01-01T00:59:18.000Z</time>
      </trkpt>
      <trkpt lat="42.799812" lon="-7.923114">
        <ele>516.3</ele>
        <time>1970-01-01T00:59:19.000Z</time>
      </trkpt>
      <trkpt lat="42.799764" lon="-7.9231">
        <ele>516.6</ele>
        <time>1970-01-01T00:59:20.000Z</time>
      </trkpt>
      <trkpt lat="42.799716" lon="-7.923093">
        <ele>517</ele>
        <time>1970-01-01T00:59:21.000Z</time>
      </trkpt>
      <trkpt lat="42.799667" lon="-7.923095">
        <ele>517.4</ele>
        <time>1970-01-01T00:59:22.000Z</time>
      </trkpt>
      <trkpt lat="42.799619" lon="-7.923106">
        <ele>517.8</ele>
        <time>1970-01-01T00:59:23.000Z</time>
      </trkpt>
      <trkpt lat="42.799574" lon="-7.923128">
        <ele>518.2</ele>
        <time>1970-01-01T00:59:24.000Z</time>
      </trkpt>
      <trkpt lat="42.799528" lon="-7.923151">
        <ele>518.5</ele>
        <time>1970-01-01T00:59:25.000Z</time>
      </trkpt>
      <trkpt lat="42.799483" lon="-7.923172">
        <ele>518.9</ele>
        <time>1970-01-01T00:59:26.000Z</time>
      </trkpt>
      <trkpt lat="42.799439" lon="-7.923196">
        <ele>519.3</ele>
        <time>1970-01-01T00:59:27.000Z</time>
      </trkpt>
      <trkpt lat="42.799398" lon="-7.923224">
        <ele>519.6</ele>
        <time>1970-01-01T00:59:28.000Z</time>
      </trkpt>
      <trkpt lat="42.799363" lon="-7.923252">
        <ele>519.8</ele>
        <time>1970-01-01T00:59:29.000Z</time>
      </trkpt>
      <trkpt lat="42.799328" lon="-7.923266">
        <ele>520.1</ele>
        <time>1970-01-01T00:59:30.000Z</time>
      </trkpt>
      <trkpt lat="42.799291" lon="-7.923278">
        <ele>520.3</ele>
        <time>1970-01-01T00:59:31.000Z</time>
      </trkpt>
      <trkpt lat="42.799252" lon="-7.923293">
        <ele>520.5</ele>
        <time>1970-01-01T00:59:32.000Z</time>
      </trkpt>
      <trkpt lat="42.799214" lon="-7.923309">
        <ele>520.7</ele>
        <time>1970-01-01T00:59:33.000Z</time>
      </trkpt>
      <trkpt lat="42.799178" lon="-7.923326">
        <ele>520.9</ele>
        <time>1970-01-01T00:59:34.000Z</time>
      </trkpt>
      <trkpt lat="42.799145" lon="-7.923341">
        <ele>521.1</ele>
        <time>1970-01-01T00:59:35.000Z</time>
      </trkpt>
      <trkpt lat="42.799114" lon="-7.923353">
        <ele>521.4</ele>
        <time>1970-01-01T00:59:36.000Z</time>
      </trkpt>
      <trkpt lat="42.799087" lon="-7.923366">
        <ele>521.7</ele>
        <time>1970-01-01T00:59:37.000Z</time>
      </trkpt>
      <trkpt lat="42.799056" lon="-7.923371">
        <ele>521.9</ele>
        <time>1970-01-01T00:59:38.000Z</time>
      </trkpt>
      <trkpt lat="42.799024" lon="-7.923379">
        <ele>522.1</ele>
        <time>1970-01-01T00:59:39.000Z</time>
      </trkpt>
      <trkpt lat="42.798993" lon="-7.923376">
        <ele>522.4</ele>
        <time>1970-01-01T00:59:40.000Z</time>
      </trkpt>
      <trkpt lat="42.798958" lon="-7.923375">
        <ele>522.6</ele>
        <time>1970-01-01T00:59:41.000Z</time>
      </trkpt>
      <trkpt lat="42.798924" lon="-7.923375">
        <ele>522.8</ele>
        <time>1970-01-01T00:59:42.000Z</time>
      </trkpt>
      <trkpt lat="42.798886" lon="-7.923374">
        <ele>523.1</ele>
        <time>1970-01-01T00:59:43.000Z</time>
      </trkpt>
      <trkpt lat="42.79885" lon="-7.923365">
        <ele>523.3</ele>
        <time>1970-01-01T00:59:44.000Z</time>
      </trkpt>
      <trkpt lat="42.798809" lon="-7.923356">
        <ele>523.6</ele>
        <time>1970-01-01T00:59:45.000Z</time>
      </trkpt>
      <trkpt lat="42.798772" lon="-7.92336">
        <ele>523.9</ele>
        <time>1970-01-01T00:59:46.000Z</time>
      </trkpt>
      <trkpt lat="42.798731" lon="-7.923361">
        <ele>524.1</ele>
        <time>1970-01-01T00:59:47.000Z</time>
      </trkpt>
      <trkpt lat="42.798692" lon="-7.923368">
        <ele>524.3</ele>
        <time>1970-01-01T00:59:48.000Z</time>
      </trkpt>
      <trkpt lat="42.798653" lon="-7.923366">
        <ele>524.4</ele>
        <time>1970-01-01T00:59:49.000Z</time>
      </trkpt>
      <trkpt lat="42.798613" lon="-7.923364">
        <ele>524.6</ele>
        <time>1970-01-01T00:59:50.000Z</time>
      </trkpt>
      <trkpt lat="42.798575" lon="-7.923363">
        <ele>524.7</ele>
        <time>1970-01-01T00:59:51.000Z</time>
      </trkpt>
      <trkpt lat="42.798534" lon="-7.923354">
        <ele>524.8</ele>
        <time>1970-01-01T00:59:52.000Z</time>
      </trkpt>
      <trkpt lat="42.798495" lon="-7.923342">
        <ele>524.9</ele>
        <time>1970-01-01T00:59:53.000Z</time>
      </trkpt>
      <trkpt lat="42.798454" lon="-7.923327">
        <ele>525</ele>
        <time>1970-01-01T00:59:54.000Z</time>
      </trkpt>
      <trkpt lat="42.798415" lon="-7.923306">
        <ele>525.1</ele>
        <time>1970-01-01T00:59:55.000Z</time>
      </trkpt>
      <trkpt lat="42.798373" lon="-7.92328">
        <ele>525</ele>
        <time>1970-01-01T00:59:56.000Z</time>
      </trkpt>
      <trkpt lat="42.798331" lon="-7.923253">
        <ele>525</ele>
        <time>1970-01-01T00:59:57.000Z</time>
      </trkpt>
      <trkpt lat="42.798289" lon="-7.923219">
        <ele>525</ele>
        <time>1970-01-01T00:59:58.000Z</time>
      </trkpt>
      <trkpt lat="42.798244" lon="-7.923183">
        <ele>525</ele>
        <time>1970-01-01T00:59:59.000Z</time>
      </trkpt>
      <trkpt lat="42.798199" lon="-7.923147">
        <ele>524.9</ele>
        <time>1970-01-01T01:00:00.000Z</time>
      </trkpt>
      <trkpt lat="42.798152" lon="-7.92311">
        <ele>524.8</ele>
        <time>1970-01-01T01:00:01.000Z</time>
      </trkpt>
      <trkpt lat="42.798104" lon="-7.923073">
        <ele>524.7</ele>
        <time>1970-01-01T01:00:02.000Z</time>
      </trkpt>
      <trkpt lat="42.798054" lon="-7.923039">
        <ele>524.5</ele>
        <time>1970-01-01T01:00:03.000Z</time>
      </trkpt>
      <trkpt lat="42.798002" lon="-7.923006">
        <ele>524.3</ele>
        <time>1970-01-01T01:00:04.000Z</time>
      </trkpt>
      <trkpt lat="42.797949" lon="-7.922979">
        <ele>524.2</ele>
        <time>1970-01-01T01:00:05.000Z</time>
      </trkpt>
      <trkpt lat="42.797901" lon="-7.92296">
        <ele>524</ele>
        <time>1970-01-01T01:00:06.000Z</time>
      </trkpt>
      <trkpt lat="42.797864" lon="-7.922938">
        <ele>523.9</ele>
        <time>1970-01-01T01:00:07.000Z</time>
      </trkpt>
      <trkpt lat="42.797834" lon="-7.922904">
        <ele>523.8</ele>
        <time>1970-01-01T01:00:08.000Z</time>
      </trkpt>
      <trkpt lat="42.797818" lon="-7.922861">
        <ele>523.4</ele>
        <time>1970-01-01T01:00:09.000Z</time>
      </trkpt>
      <trkpt lat="42.797815" lon="-7.922811">
        <ele>522.8</ele>
        <time>1970-01-01T01:00:10.000Z</time>
      </trkpt>
      <trkpt lat="42.797814" lon="-7.922747">
        <ele>522.5</ele>
        <time>1970-01-01T01:00:11.000Z</time>
      </trkpt>
      <trkpt lat="42.79782" lon="-7.92267">
        <ele>521.9</ele>
        <time>1970-01-01T01:00:12.000Z</time>
      </trkpt>
      <trkpt lat="42.797835" lon="-7.922584">
        <ele>521.5</ele>
        <time>1970-01-01T01:00:13.000Z</time>
      </trkpt>
      <trkpt lat="42.79785" lon="-7.922496">
        <ele>521</ele>
        <time>1970-01-01T01:00:14.000Z</time>
      </trkpt>
      <trkpt lat="42.797869" lon="-7.922408">
        <ele>520.7</ele>
        <time>1970-01-01T01:00:15.000Z</time>
      </trkpt>
      <trkpt lat="42.797886" lon="-7.922326">
        <ele>520.4</ele>
        <time>1970-01-01T01:00:16.000Z</time>
      </trkpt>
      <trkpt lat="42.797899" lon="-7.922242">
        <ele>520.1</ele>
        <time>1970-01-01T01:00:17.000Z</time>
      </trkpt>
      <trkpt lat="42.797914" lon="-7.922173">
        <ele>519.9</ele>
        <time>1970-01-01T01:00:18.000Z</time>
      </trkpt>
      <trkpt lat="42.797928" lon="-7.922096">
        <ele>519.6</ele>
        <time>1970-01-01T01:00:19.000Z</time>
      </trkpt>
      <trkpt lat="42.797939" lon="-7.922006">
        <ele>519.2</ele>
        <time>1970-01-01T01:00:20.000Z</time>
      </trkpt>
      <trkpt lat="42.797949" lon="-7.921915">
        <ele>518.6</ele>
        <time>1970-01-01T01:00:21.000Z</time>
      </trkpt>
      <trkpt lat="42.797959" lon="-7.92182">
        <ele>518.3</ele>
        <time>1970-01-01T01:00:22.000Z</time>
      </trkpt>
      <trkpt lat="42.797966" lon="-7.921721">
        <ele>517.9</ele>
        <time>1970-01-01T01:00:23.000Z</time>
      </trkpt>
      <trkpt lat="42.797975" lon="-7.921623">
        <ele>517.4</ele>
        <time>1970-01-01T01:00:24.000Z</time>
      </trkpt>
      <trkpt lat="42.797983" lon="-7.921526">
        <ele>516.9</ele>
        <time>1970-01-01T01:00:25.000Z</time>
      </trkpt>
      <trkpt lat="42.797987" lon="-7.921426">
        <ele>516.5</ele>
        <time>1970-01-01T01:00:26.000Z</time>
      </trkpt>
      <trkpt lat="42.79799" lon="-7.921328">
        <ele>516.2</ele>
        <time>1970-01-01T01:00:27.000Z</time>
      </trkpt>
      <trkpt lat="42.797993" lon="-7.921225">
        <ele>515.7</ele>
        <time>1970-01-01T01:00:28.000Z</time>
      </trkpt>
      <trkpt lat="42.797998" lon="-7.921127">
        <ele>515.4</ele>
        <time>1970-01-01T01:00:29.000Z</time>
      </trkpt>
      <trkpt lat="42.798003" lon="-7.92103">
        <ele>515.2</ele>
        <time>1970-01-01T01:00:30.000Z</time>
      </trkpt>
      <trkpt lat="42.798008" lon="-7.920935">
        <ele>515</ele>
        <time>1970-01-01T01:00:31.000Z</time>
      </trkpt>
      <trkpt lat="42.798013" lon="-7.920838">
        <ele>514.8</ele>
        <time>1970-01-01T01:00:32.000Z</time>
      </trkpt>
      <trkpt lat="42.798018" lon="-7.920745">
        <ele>514.7</ele>
        <time>1970-01-01T01:00:33.000Z</time>
      </trkpt>
      <trkpt lat="42.798021" lon="-7.920651">
        <ele>514.5</ele>
        <time>1970-01-01T01:00:34.000Z</time>
      </trkpt>
      <trkpt lat="42.798025" lon="-7.920557">
        <ele>514.4</ele>
        <time>1970-01-01T01:00:35.000Z</time>
      </trkpt>
      <trkpt lat="42.79803" lon="-7.920462">
        <ele>514.3</ele>
        <time>1970-01-01T01:00:36.000Z</time>
      </trkpt>
      <trkpt lat="42.798034" lon="-7.920369">
        <ele>514</ele>
        <time>1970-01-01T01:00:37.000Z</time>
      </trkpt>
      <trkpt lat="42.798037" lon="-7.920278">
        <ele>513.8</ele>
        <time>1970-01-01T01:00:38.000Z</time>
      </trkpt>
      <trkpt lat="42.798042" lon="-7.920186">
        <ele>513.6</ele>
        <time>1970-01-01T01:00:39.000Z</time>
      </trkpt>
      <trkpt lat="42.798051" lon="-7.920099">
        <ele>513.4</ele>
        <time>1970-01-01T01:00:40.000Z</time>
      </trkpt>
      <trkpt lat="42.798057" lon="-7.920014">
        <ele>513.2</ele>
        <time>1970-01-01T01:00:41.000Z</time>
      </trkpt>
      <trkpt lat="42.798061" lon="-7.919933">
        <ele>513.1</ele>
        <time>1970-01-01T01:00:42.000Z</time>
      </trkpt>
      <trkpt lat="42.798064" lon="-7.919853">
        <ele>513</ele>
        <time>1970-01-01T01:00:43.000Z</time>
      </trkpt>
      <trkpt lat="42.798068" lon="-7.919775">
        <ele>512.9</ele>
        <time>1970-01-01T01:00:44.000Z</time>
      </trkpt>
      <trkpt lat="42.798071" lon="-7.9197">
        <ele>512.9</ele>
        <time>1970-01-01T01:00:45.000Z</time>
      </trkpt>
      <trkpt lat="42.79808" lon="-7.919628">
        <ele>512.9</ele>
        <time>1970-01-01T01:00:46.000Z</time>
      </trkpt>
      <trkpt lat="42.798098" lon="-7.919566">
        <ele>512.9</ele>
        <time>1970-01-01T01:00:47.000Z</time>
      </trkpt>
      <trkpt lat="42.798114" lon="-7.919513">
        <ele>512.9</ele>
        <time>1970-01-01T01:00:48.000Z</time>
      </trkpt>
      <trkpt lat="42.798136" lon="-7.919465">
        <ele>513</ele>
        <time>1970-01-01T01:00:49.000Z</time>
      </trkpt>
      <trkpt lat="42.798165" lon="-7.919421">
        <ele>513</ele>
        <time>1970-01-01T01:00:50.000Z</time>
      </trkpt>
      <trkpt lat="42.798183" lon="-7.91938">
        <ele>513.1</ele>
        <time>1970-01-01T01:00:51.000Z</time>
      </trkpt>
      <trkpt lat="42.798198" lon="-7.919334">
        <ele>513.1</ele>
        <time>1970-01-01T01:00:52.000Z</time>
      </trkpt>
      <trkpt lat="42.79821" lon="-7.919284">
        <ele>513.1</ele>
        <time>1970-01-01T01:00:53.000Z</time>
      </trkpt>
      <trkpt lat="42.798215" lon="-7.919251">
        <ele>513.1</ele>
        <time>1970-01-01T01:00:54.000Z</time>
      </trkpt>
      <trkpt lat="42.798214" lon="-7.919204">
        <ele>513.2</ele>
        <time>1970-01-01T01:00:55.000Z</time>
      </trkpt>
      <trkpt lat="42.798208" lon="-7.919163">
        <ele>513.2</ele>
        <time>1970-01-01T01:00:56.000Z</time>
      </trkpt>
      <trkpt lat="42.798196" lon="-7.919123">
        <ele>513.2</ele>
        <time>1970-01-01T01:00:57.000Z</time>
      </trkpt>
      <trkpt lat="42.798192" lon="-7.919078">
        <ele>513.3</ele>
        <time>1970-01-01T01:00:58.000Z</time>
      </trkpt>
      <trkpt lat="42.798181" lon="-7.919031">
        <ele>513.3</ele>
        <time>1970-01-01T01:00:59.000Z</time>
      </trkpt>
      <trkpt lat="42.798159" lon="-7.918982">
        <ele>513.3</ele>
        <time>1970-01-01T01:01:00.000Z</time>
      </trkpt>
      <trkpt lat="42.798134" lon="-7.918946">
        <ele>513.4</ele>
        <time>1970-01-01T01:01:01.000Z</time>
      </trkpt>
      <trkpt lat="42.798112" lon="-7.91891">
        <ele>513.4</ele>
        <time>1970-01-01T01:01:02.000Z</time>
      </trkpt>
      <trkpt lat="42.798089" lon="-7.918863">
        <ele>513.5</ele>
        <time>1970-01-01T01:01:03.000Z</time>
      </trkpt>
      <trkpt lat="42.798063" lon="-7.91882">
        <ele>513.5</ele>
        <time>1970-01-01T01:01:04.000Z</time>
      </trkpt>
      <trkpt lat="42.798046" lon="-7.918764">
        <ele>513.6</ele>
        <time>1970-01-01T01:01:05.000Z</time>
      </trkpt>
      <trkpt lat="42.798037" lon="-7.918711">
        <ele>513.6</ele>
        <time>1970-01-01T01:01:06.000Z</time>
      </trkpt>
      <trkpt lat="42.798031" lon="-7.918672">
        <ele>513.7</ele>
        <time>1970-01-01T01:01:07.000Z</time>
      </trkpt>
      <trkpt lat="42.798026" lon="-7.918614">
        <ele>513.7</ele>
        <time>1970-01-01T01:01:08.000Z</time>
      </trkpt>
      <trkpt lat="42.798019" lon="-7.918556">
        <ele>513.8</ele>
        <time>1970-01-01T01:01:09.000Z</time>
      </trkpt>
      <trkpt lat="42.798013" lon="-7.918498">
        <ele>513.9</ele>
        <time>1970-01-01T01:01:10.000Z</time>
      </trkpt>
      <trkpt lat="42.798009" lon="-7.918434">
        <ele>514</ele>
        <time>1970-01-01T01:01:11.000Z</time>
      </trkpt>
      <trkpt lat="42.798006" lon="-7.918376">
        <ele>514</ele>
        <time>1970-01-01T01:01:12.000Z</time>
      </trkpt>
      <trkpt lat="42.797999" lon="-7.918318">
        <ele>514.1</ele>
        <time>1970-01-01T01:01:13.000Z</time>
      </trkpt>
      <trkpt lat="42.79799" lon="-7.91826">
        <ele>514.2</ele>
        <time>1970-01-01T01:01:14.000Z</time>
      </trkpt>
      <trkpt lat="42.797979" lon="-7.918205">
        <ele>514.3</ele>
        <time>1970-01-01T01:01:15.000Z</time>
      </trkpt>
      <trkpt lat="42.797966" lon="-7.918124">
        <ele>514.5</ele>
        <time>1970-01-01T01:01:16.000Z</time>
      </trkpt>
      <trkpt lat="42.797952" lon="-7.918066">
        <ele>514.5</ele>
        <time>1970-01-01T01:01:17.000Z</time>
      </trkpt>
      <trkpt lat="42.797946" lon="-7.918007">
        <ele>514.7</ele>
        <time>1970-01-01T01:01:18.000Z</time>
      </trkpt>
      <trkpt lat="42.79794" lon="-7.917954">
        <ele>514.8</ele>
        <time>1970-01-01T01:01:19.000Z</time>
      </trkpt>
      <trkpt lat="42.797932" lon="-7.917905">
        <ele>514.9</ele>
        <time>1970-01-01T01:01:20.000Z</time>
      </trkpt>
      <trkpt lat="42.79792" lon="-7.91785">
        <ele>515</ele>
        <time>1970-01-01T01:01:21.000Z</time>
      </trkpt>
      <trkpt lat="42.797912" lon="-7.917802">
        <ele>515</ele>
        <time>1970-01-01T01:01:22.000Z</time>
      </trkpt>
      <trkpt lat="42.797907" lon="-7.917741">
        <ele>515.2</ele>
        <time>1970-01-01T01:01:23.000Z</time>
      </trkpt>
      <trkpt lat="42.797903" lon="-7.917683">
        <ele>515.3</ele>
        <time>1970-01-01T01:01:24.000Z</time>
      </trkpt>
      <trkpt lat="42.797894" lon="-7.917624">
        <ele>515.4</ele>
        <time>1970-01-01T01:01:25.000Z</time>
      </trkpt>
      <trkpt lat="42.797891" lon="-7.91757">
        <ele>515.5</ele>
        <time>1970-01-01T01:01:26.000Z</time>
      </trkpt>
      <trkpt lat="42.797887" lon="-7.917524">
        <ele>515.5</ele>
        <time>1970-01-01T01:01:27.000Z</time>
      </trkpt>
      <trkpt lat="42.797878" lon="-7.91747">
        <ele>515.6</ele>
        <time>1970-01-01T01:01:28.000Z</time>
      </trkpt>
      <trkpt lat="42.797871" lon="-7.917422">
        <ele>515.6</ele>
        <time>1970-01-01T01:01:29.000Z</time>
      </trkpt>
      <trkpt lat="42.797864" lon="-7.917356">
        <ele>515.7</ele>
        <time>1970-01-01T01:01:30.000Z</time>
      </trkpt>
      <trkpt lat="42.797851" lon="-7.917283">
        <ele>515.7</ele>
        <time>1970-01-01T01:01:31.000Z</time>
      </trkpt>
      <trkpt lat="42.797837" lon="-7.917218">
        <ele>515.7</ele>
        <time>1970-01-01T01:01:32.000Z</time>
      </trkpt>
      <trkpt lat="42.797829" lon="-7.917149">
        <ele>515.7</ele>
        <time>1970-01-01T01:01:33.000Z</time>
      </trkpt>
      <trkpt lat="42.797814" lon="-7.917089">
        <ele>515.7</ele>
        <time>1970-01-01T01:01:34.000Z</time>
      </trkpt>
      <trkpt lat="42.797794" lon="-7.917005">
        <ele>515.7</ele>
        <time>1970-01-01T01:01:35.000Z</time>
      </trkpt>
      <trkpt lat="42.797771" lon="-7.916898">
        <ele>515.7</ele>
        <time>1970-01-01T01:01:36.000Z</time>
      </trkpt>
      <trkpt lat="42.797753" lon="-7.916811">
        <ele>515.7</ele>
        <time>1970-01-01T01:01:37.000Z</time>
      </trkpt>
      <trkpt lat="42.797733" lon="-7.916755">
        <ele>515.6</ele>
        <time>1970-01-01T01:01:38.000Z</time>
      </trkpt>
      <trkpt lat="42.79771" lon="-7.916709">
        <ele>515.5</ele>
        <time>1970-01-01T01:01:39.000Z</time>
      </trkpt>
      <trkpt lat="42.797693" lon="-7.916632">
        <ele>515.1</ele>
        <time>1970-01-01T01:01:40.000Z</time>
      </trkpt>
      <trkpt lat="42.797672" lon="-7.91658">
        <ele>514.9</ele>
        <time>1970-01-01T01:01:41.000Z</time>
      </trkpt>
      <trkpt lat="42.797652" lon="-7.916526">
        <ele>514.6</ele>
        <time>1970-01-01T01:01:42.000Z</time>
      </trkpt>
      <trkpt lat="42.79764" lon="-7.916478">
        <ele>514.4</ele>
        <time>1970-01-01T01:01:43.000Z</time>
      </trkpt>
      <trkpt lat="42.797639" lon="-7.916429">
        <ele>514.1</ele>
        <time>1970-01-01T01:01:44.000Z</time>
      </trkpt>
      <trkpt lat="42.797645" lon="-7.916381">
        <ele>513.7</ele>
        <time>1970-01-01T01:01:45.000Z</time>
      </trkpt>
      <trkpt lat="42.797658" lon="-7.916335">
        <ele>512.6</ele>
        <time>1970-01-01T01:01:46.000Z</time>
      </trkpt>
      <trkpt lat="42.797681" lon="-7.916299">
        <ele>512.7</ele>
        <time>1970-01-01T01:01:47.000Z</time>
      </trkpt>
      <trkpt lat="42.797694" lon="-7.916261">
        <ele>512</ele>
        <time>1970-01-01T01:01:48.000Z</time>
      </trkpt>
      <trkpt lat="42.797711" lon="-7.916225">
        <ele>511.3</ele>
        <time>1970-01-01T01:01:49.000Z</time>
      </trkpt>
      <trkpt lat="42.797724" lon="-7.916203">
        <ele>510.5</ele>
        <time>1970-01-01T01:01:50.000Z</time>
      </trkpt>
      <trkpt lat="42.797736" lon="-7.91619">
        <ele>510.5</ele>
        <time>1970-01-01T01:01:51.000Z</time>
      </trkpt>
      <trkpt lat="42.797744" lon="-7.916178">
        <ele>510.5</ele>
        <time>1970-01-01T01:01:52.000Z</time>
      </trkpt>
      <trkpt lat="42.797749" lon="-7.916174">
        <ele>510.5</ele>
        <time>1970-01-01T01:01:53.000Z</time>
      </trkpt>
      <trkpt lat="42.79776" lon="-7.916173">
        <ele>510.5</ele>
        <time>1970-01-01T01:01:54.000Z</time>
      </trkpt>
      <trkpt lat="42.797771" lon="-7.916172">
        <ele>510.5</ele>
        <time>1970-01-01T01:01:55.000Z</time>
      </trkpt>
      <trkpt lat="42.797793" lon="-7.916169">
        <ele>510.5</ele>
        <time>1970-01-01T01:01:56.000Z</time>
      </trkpt>
      <trkpt lat="42.79781" lon="-7.916171">
        <ele>510.6</ele>
        <time>1970-01-01T01:01:57.000Z</time>
      </trkpt>
      <trkpt lat="42.797829" lon="-7.916166">
        <ele>510.5</ele>
        <time>1970-01-01T01:01:58.000Z</time>
      </trkpt>
      <trkpt lat="42.797848" lon="-7.916159">
        <ele>509.6</ele>
        <time>1970-01-01T01:01:59.000Z</time>
      </trkpt>
      <trkpt lat="42.797877" lon="-7.916156">
        <ele>509.6</ele>
        <time>1970-01-01T01:02:00.000Z</time>
      </trkpt>
      <trkpt lat="42.797905" lon="-7.916149">
        <ele>509.5</ele>
        <time>1970-01-01T01:02:01.000Z</time>
      </trkpt>
      <trkpt lat="42.797928" lon="-7.916142">
        <ele>509.4</ele>
        <time>1970-01-01T01:02:02.000Z</time>
      </trkpt>
      <trkpt lat="42.797948" lon="-7.916133">
        <ele>509.4</ele>
        <time>1970-01-01T01:02:03.000Z</time>
      </trkpt>
      <trkpt lat="42.797987" lon="-7.916127">
        <ele>509.2</ele>
        <time>1970-01-01T01:02:04.000Z</time>
      </trkpt>
      <trkpt lat="42.798019" lon="-7.916118">
        <ele>508</ele>
        <time>1970-01-01T01:02:05.000Z</time>
      </trkpt>
      <trkpt lat="42.798044" lon="-7.916109">
        <ele>508</ele>
        <time>1970-01-01T01:02:06.000Z</time>
      </trkpt>
      <trkpt lat="42.798062" lon="-7.916092">
        <ele>507.8</ele>
        <time>1970-01-01T01:02:07.000Z</time>
      </trkpt>
      <trkpt lat="42.798092" lon="-7.916076">
        <ele>506.6</ele>
        <time>1970-01-01T01:02:08.000Z</time>
      </trkpt>
      <trkpt lat="42.798124" lon="-7.916059">
        <ele>506.4</ele>
        <time>1970-01-01T01:02:09.000Z</time>
      </trkpt>
      <trkpt lat="42.798156" lon="-7.916044">
        <ele>506.3</ele>
        <time>1970-01-01T01:02:10.000Z</time>
      </trkpt>
      <trkpt lat="42.798193" lon="-7.916033">
        <ele>505.1</ele>
        <time>1970-01-01T01:02:11.000Z</time>
      </trkpt>
      <trkpt lat="42.798224" lon="-7.916022">
        <ele>505.1</ele>
        <time>1970-01-01T01:02:12.000Z</time>
      </trkpt>
      <trkpt lat="42.798254" lon="-7.916016">
        <ele>505.1</ele>
        <time>1970-01-01T01:02:13.000Z</time>
      </trkpt>
      <trkpt lat="42.798271" lon="-7.916018">
        <ele>505.1</ele>
        <time>1970-01-01T01:02:14.000Z</time>
      </trkpt>
      <trkpt lat="42.798293" lon="-7.916015">
        <ele>505.1</ele>
        <time>1970-01-01T01:02:15.000Z</time>
      </trkpt>
      <trkpt lat="42.798318" lon="-7.916004">
        <ele>505.2</ele>
        <time>1970-01-01T01:02:16.000Z</time>
      </trkpt>
      <trkpt lat="42.798331" lon="-7.916001">
        <ele>505.3</ele>
        <time>1970-01-01T01:02:17.000Z</time>
      </trkpt>
      <trkpt lat="42.798365" lon="-7.915992">
        <ele>504.6</ele>
        <time>1970-01-01T01:02:18.000Z</time>
      </trkpt>
      <trkpt lat="42.798388" lon="-7.915983">
        <ele>504.6</ele>
        <time>1970-01-01T01:02:19.000Z</time>
      </trkpt>
      <trkpt lat="42.798402" lon="-7.915982">
        <ele>504.7</ele>
        <time>1970-01-01T01:02:20.000Z</time>
      </trkpt>
      <trkpt lat="42.798451" lon="-7.91597">
        <ele>504.9</ele>
        <time>1970-01-01T01:02:22.000Z</time>
      </trkpt>
      <trkpt lat="42.798471" lon="-7.915967">
        <ele>505.1</ele>
        <time>1970-01-01T01:02:23.000Z</time>
      </trkpt>
      <trkpt lat="42.798486" lon="-7.915964">
        <ele>505.1</ele>
        <time>1970-01-01T01:02:24.000Z</time>
      </trkpt>
      <trkpt lat="42.798492" lon="-7.915974">
        <ele>505.3</ele>
        <time>1970-01-01T01:02:25.000Z</time>
      </trkpt>
      <trkpt lat="42.798509" lon="-7.915978">
        <ele>505.3</ele>
        <time>1970-01-01T01:02:26.000Z</time>
      </trkpt>
      <trkpt lat="42.798517" lon="-7.915978">
        <ele>505.3</ele>
        <time>1970-01-01T01:02:27.000Z</time>
      </trkpt>
      <trkpt lat="42.798529" lon="-7.91597">
        <ele>505.5</ele>
        <time>1970-01-01T01:02:28.000Z</time>
      </trkpt>
      <trkpt lat="42.79855" lon="-7.915968">
        <ele>505.7</ele>
        <time>1970-01-01T01:02:29.000Z</time>
      </trkpt>
      <trkpt lat="42.798555" lon="-7.915966">
        <ele>505.7</ele>
        <time>1970-01-01T01:02:30.000Z</time>
      </trkpt>
      <trkpt lat="42.798576" lon="-7.915968">
        <ele>505.7</ele>
        <time>1970-01-01T01:02:31.000Z</time>
      </trkpt>
      <trkpt lat="42.798601" lon="-7.915955">
        <ele>505.9</ele>
        <time>1970-01-01T01:02:32.000Z</time>
      </trkpt>
      <trkpt lat="42.798635" lon="-7.915955">
        <ele>506.1</ele>
        <time>1970-01-01T01:02:33.000Z</time>
      </trkpt>
      <trkpt lat="42.798667" lon="-7.915957">
        <ele>506.4</ele>
        <time>1970-01-01T01:02:34.000Z</time>
      </trkpt>
      <trkpt lat="42.798682" lon="-7.91596">
        <ele>506.6</ele>
        <time>1970-01-01T01:02:35.000Z</time>
      </trkpt>
      <trkpt lat="42.79871" lon="-7.915957">
        <ele>506.9</ele>
        <time>1970-01-01T01:02:36.000Z</time>
      </trkpt>
      <trkpt lat="42.798733" lon="-7.915955">
        <ele>506.9</ele>
        <time>1970-01-01T01:02:37.000Z</time>
      </trkpt>
      <trkpt lat="42.798753" lon="-7.91595">
        <ele>507.2</ele>
        <time>1970-01-01T01:02:38.000Z</time>
      </trkpt>
      <trkpt lat="42.798779" lon="-7.915945">
        <ele>506.6</ele>
        <time>1970-01-01T01:02:39.000Z</time>
      </trkpt>
      <trkpt lat="42.798806" lon="-7.915941">
        <ele>507</ele>
        <time>1970-01-01T01:02:40.000Z</time>
      </trkpt>
      <trkpt lat="42.798836" lon="-7.915934">
        <ele>507.3</ele>
        <time>1970-01-01T01:02:41.000Z</time>
      </trkpt>
      <trkpt lat="42.798876" lon="-7.915927">
        <ele>507.6</ele>
        <time>1970-01-01T01:02:42.000Z</time>
      </trkpt>
      <trkpt lat="42.798917" lon="-7.915927">
        <ele>507.9</ele>
        <time>1970-01-01T01:02:43.000Z</time>
      </trkpt>
      <trkpt lat="42.79894" lon="-7.915924">
        <ele>508.3</ele>
        <time>1970-01-01T01:02:44.000Z</time>
      </trkpt>
      <trkpt lat="42.798961" lon="-7.915932">
        <ele>508.6</ele>
        <time>1970-01-01T01:02:45.000Z</time>
      </trkpt>
      <trkpt lat="42.798979" lon="-7.915945">
        <ele>508.6</ele>
        <time>1970-01-01T01:02:46.000Z</time>
      </trkpt>
      <trkpt lat="42.798997" lon="-7.915965">
        <ele>509.5</ele>
        <time>1970-01-01T01:02:47.000Z</time>
      </trkpt>
      <trkpt lat="42.799001" lon="-7.915991">
        <ele>509.5</ele>
        <time>1970-01-01T01:02:48.000Z</time>
      </trkpt>
      <trkpt lat="42.799004" lon="-7.916008">
        <ele>510.2</ele>
        <time>1970-01-01T01:02:49.000Z</time>
      </trkpt>
      <trkpt lat="42.799018" lon="-7.916024">
        <ele>510.2</ele>
        <time>1970-01-01T01:02:50.000Z</time>
      </trkpt>
      <trkpt lat="42.799028" lon="-7.916049">
        <ele>511</ele>
        <time>1970-01-01T01:02:51.000Z</time>
      </trkpt>
      <trkpt lat="42.799044" lon="-7.916064">
        <ele>511</ele>
        <time>1970-01-01T01:02:52.000Z</time>
      </trkpt>
      <trkpt lat="42.799063" lon="-7.916077">
        <ele>511.2</ele>
        <time>1970-01-01T01:02:53.000Z</time>
      </trkpt>
      <trkpt lat="42.799073" lon="-7.916097">
        <ele>511.8</ele>
        <time>1970-01-01T01:02:54.000Z</time>
      </trkpt>
      <trkpt lat="42.799096" lon="-7.916117">
        <ele>511.9</ele>
        <time>1970-01-01T01:02:55.000Z</time>
      </trkpt>
      <trkpt lat="42.799114" lon="-7.916133">
        <ele>512.4</ele>
        <time>1970-01-01T01:02:56.000Z</time>
      </trkpt>
      <trkpt lat="42.799125" lon="-7.916156">
        <ele>512.5</ele>
        <time>1970-01-01T01:02:57.000Z</time>
      </trkpt>
      <trkpt lat="42.799136" lon="-7.916177">
        <ele>513</ele>
        <time>1970-01-01T01:02:58.000Z</time>
      </trkpt>
      <trkpt lat="42.799149" lon="-7.916202">
        <ele>513</ele>
        <time>1970-01-01T01:02:59.000Z</time>
      </trkpt>
      <trkpt lat="42.799162" lon="-7.916226">
        <ele>513.4</ele>
        <time>1970-01-01T01:03:00.000Z</time>
      </trkpt>
      <trkpt lat="42.799176" lon="-7.916242">
        <ele>513.4</ele>
        <time>1970-01-01T01:03:01.000Z</time>
      </trkpt>
      <trkpt lat="42.799182" lon="-7.916274">
        <ele>513.8</ele>
        <time>1970-01-01T01:03:02.000Z</time>
      </trkpt>
      <trkpt lat="42.799196" lon="-7.916308">
        <ele>514.1</ele>
        <time>1970-01-01T01:03:03.000Z</time>
      </trkpt>
      <trkpt lat="42.799193" lon="-7.916345">
        <ele>514.4</ele>
        <time>1970-01-01T01:03:04.000Z</time>
      </trkpt>
      <trkpt lat="42.799196" lon="-7.916384">
        <ele>514.6</ele>
        <time>1970-01-01T01:03:05.000Z</time>
      </trkpt>
      <trkpt lat="42.799204" lon="-7.91643">
        <ele>514.7</ele>
        <time>1970-01-01T01:03:06.000Z</time>
      </trkpt>
      <trkpt lat="42.799215" lon="-7.916479">
        <ele>514.8</ele>
        <time>1970-01-01T01:03:07.000Z</time>
      </trkpt>
      <trkpt lat="42.799225" lon="-7.91653">
        <ele>514.8</ele>
        <time>1970-01-01T01:03:08.000Z</time>
      </trkpt>
      <trkpt lat="42.799231" lon="-7.916582">
        <ele>514.8</ele>
        <time>1970-01-01T01:03:09.000Z</time>
      </trkpt>
      <trkpt lat="42.799249" lon="-7.916628">
        <ele>514.8</ele>
        <time>1970-01-01T01:03:10.000Z</time>
      </trkpt>
      <trkpt lat="42.799271" lon="-7.916672">
        <ele>514.8</ele>
        <time>1970-01-01T01:03:11.000Z</time>
      </trkpt>
      <trkpt lat="42.799277" lon="-7.916717">
        <ele>514.7</ele>
        <time>1970-01-01T01:03:12.000Z</time>
      </trkpt>
      <trkpt lat="42.799292" lon="-7.916769">
        <ele>514.7</ele>
        <time>1970-01-01T01:03:13.000Z</time>
      </trkpt>
      <trkpt lat="42.799295" lon="-7.916811">
        <ele>514.7</ele>
        <time>1970-01-01T01:03:14.000Z</time>
      </trkpt>
      <trkpt lat="42.799312" lon="-7.916848">
        <ele>514.6</ele>
        <time>1970-01-01T01:03:15.000Z</time>
      </trkpt>
      <trkpt lat="42.799322" lon="-7.916873">
        <ele>514.5</ele>
        <time>1970-01-01T01:03:16.000Z</time>
      </trkpt>
      <trkpt lat="42.799325" lon="-7.9169">
        <ele>514.5</ele>
        <time>1970-01-01T01:03:17.000Z</time>
      </trkpt>
      <trkpt lat="42.799342" lon="-7.916919">
        <ele>514.4</ele>
        <time>1970-01-01T01:03:18.000Z</time>
      </trkpt>
      <trkpt lat="42.799357" lon="-7.916928">
        <ele>514.4</ele>
        <time>1970-01-01T01:03:19.000Z</time>
      </trkpt>
      <trkpt lat="42.799371" lon="-7.916927">
        <ele>514.3</ele>
        <time>1970-01-01T01:03:20.000Z</time>
      </trkpt>
      <trkpt lat="42.799394" lon="-7.916928">
        <ele>514.3</ele>
        <time>1970-01-01T01:03:21.000Z</time>
      </trkpt>
      <trkpt lat="42.799421" lon="-7.916927">
        <ele>514.3</ele>
        <time>1970-01-01T01:03:22.000Z</time>
      </trkpt>
      <trkpt lat="42.799453" lon="-7.916934">
        <ele>514.2</ele>
        <time>1970-01-01T01:03:23.000Z</time>
      </trkpt>
      <trkpt lat="42.799483" lon="-7.916929">
        <ele>514.2</ele>
        <time>1970-01-01T01:03:24.000Z</time>
      </trkpt>
      <trkpt lat="42.799512" lon="-7.916925">
        <ele>514.2</ele>
        <time>1970-01-01T01:03:25.000Z</time>
      </trkpt>
      <trkpt lat="42.799547" lon="-7.916915">
        <ele>514.2</ele>
        <time>1970-01-01T01:03:26.000Z</time>
      </trkpt>
      <trkpt lat="42.799572" lon="-7.916904">
        <ele>514.3</ele>
        <time>1970-01-01T01:03:27.000Z</time>
      </trkpt>
      <trkpt lat="42.799605" lon="-7.916893">
        <ele>514.4</ele>
        <time>1970-01-01T01:03:28.000Z</time>
      </trkpt>
      <trkpt lat="42.799636" lon="-7.916886">
        <ele>514.5</ele>
        <time>1970-01-01T01:03:29.000Z</time>
      </trkpt>
      <trkpt lat="42.799651" lon="-7.91688">
        <ele>514.5</ele>
        <time>1970-01-01T01:03:30.000Z</time>
      </trkpt>
      <trkpt lat="42.799678" lon="-7.916871">
        <ele>514.6</ele>
        <time>1970-01-01T01:03:31.000Z</time>
      </trkpt>
      <trkpt lat="42.799711" lon="-7.916881">
        <ele>514.7</ele>
        <time>1970-01-01T01:03:32.000Z</time>
      </trkpt>
      <trkpt lat="42.799741" lon="-7.916882">
        <ele>514.8</ele>
        <time>1970-01-01T01:03:33.000Z</time>
      </trkpt>
      <trkpt lat="42.799771" lon="-7.916878">
        <ele>514.9</ele>
        <time>1970-01-01T01:03:34.000Z</time>
      </trkpt>
      <trkpt lat="42.799792" lon="-7.916869">
        <ele>515</ele>
        <time>1970-01-01T01:03:35.000Z</time>
      </trkpt>
      <trkpt lat="42.799814" lon="-7.916861">
        <ele>515</ele>
        <time>1970-01-01T01:03:36.000Z</time>
      </trkpt>
      <trkpt lat="42.799835" lon="-7.916846">
        <ele>514.9</ele>
        <time>1970-01-01T01:03:37.000Z</time>
      </trkpt>
      <trkpt lat="42.799867" lon="-7.916827">
        <ele>514.9</ele>
        <time>1970-01-01T01:03:38.000Z</time>
      </trkpt>
      <trkpt lat="42.799892" lon="-7.916807">
        <ele>514.7</ele>
        <time>1970-01-01T01:03:39.000Z</time>
      </trkpt>
      <trkpt lat="42.799909" lon="-7.916788">
        <ele>514.7</ele>
        <time>1970-01-01T01:03:40.000Z</time>
      </trkpt>
      <trkpt lat="42.799932" lon="-7.916766">
        <ele>514.7</ele>
        <time>1970-01-01T01:03:41.000Z</time>
      </trkpt>
      <trkpt lat="42.799945" lon="-7.916745">
        <ele>514.4</ele>
        <time>1970-01-01T01:03:42.000Z</time>
      </trkpt>
      <trkpt lat="42.799973" lon="-7.916722">
        <ele>514.1</ele>
        <time>1970-01-01T01:03:43.000Z</time>
      </trkpt>
      <trkpt lat="42.799994" lon="-7.916696">
        <ele>514.1</ele>
        <time>1970-01-01T01:03:44.000Z</time>
      </trkpt>
      <trkpt lat="42.800004" lon="-7.916668">
        <ele>513.7</ele>
        <time>1970-01-01T01:03:45.000Z</time>
      </trkpt>
      <trkpt lat="42.800023" lon="-7.916643">
        <ele>513.7</ele>
        <time>1970-01-01T01:03:46.000Z</time>
      </trkpt>
      <trkpt lat="42.800042" lon="-7.916624">
        <ele>513.3</ele>
        <time>1970-01-01T01:03:47.000Z</time>
      </trkpt>
      <trkpt lat="42.800062" lon="-7.916607">
        <ele>512.9</ele>
        <time>1970-01-01T01:03:48.000Z</time>
      </trkpt>
      <trkpt lat="42.800087" lon="-7.916589">
        <ele>512.8</ele>
        <time>1970-01-01T01:03:49.000Z</time>
      </trkpt>
      <trkpt lat="42.800105" lon="-7.916574">
        <ele>512.4</ele>
        <time>1970-01-01T01:03:50.000Z</time>
      </trkpt>
      <trkpt lat="42.800126" lon="-7.916556">
        <ele>512</ele>
        <time>1970-01-01T01:03:51.000Z</time>
      </trkpt>
      <trkpt lat="42.800149" lon="-7.916533">
        <ele>511.9</ele>
        <time>1970-01-01T01:03:52.000Z</time>
      </trkpt>
      <trkpt lat="42.80017" lon="-7.916506">
        <ele>511.3</ele>
        <time>1970-01-01T01:03:53.000Z</time>
      </trkpt>
      <trkpt lat="42.800191" lon="-7.916478">
        <ele>510.8</ele>
        <time>1970-01-01T01:03:54.000Z</time>
      </trkpt>
      <trkpt lat="42.800222" lon="-7.91646">
        <ele>510.1</ele>
        <time>1970-01-01T01:03:55.000Z</time>
      </trkpt>
      <trkpt lat="42.800241" lon="-7.916443">
        <ele>510</ele>
        <time>1970-01-01T01:03:56.000Z</time>
      </trkpt>
      <trkpt lat="42.800264" lon="-7.91642">
        <ele>509.3</ele>
        <time>1970-01-01T01:03:57.000Z</time>
      </trkpt>
      <trkpt lat="42.800296" lon="-7.916403">
        <ele>508.6</ele>
        <time>1970-01-01T01:03:58.000Z</time>
      </trkpt>
      <trkpt lat="42.800314" lon="-7.91639">
        <ele>507.9</ele>
        <time>1970-01-01T01:03:59.000Z</time>
      </trkpt>
      <trkpt lat="42.800361" lon="-7.91638">
        <ele>507.2</ele>
        <time>1970-01-01T01:04:00.000Z</time>
      </trkpt>
      <trkpt lat="42.800396" lon="-7.916366">
        <ele>506.3</ele>
        <time>1970-01-01T01:04:01.000Z</time>
      </trkpt>
      <trkpt lat="42.800427" lon="-7.91635">
        <ele>505.6</ele>
        <time>1970-01-01T01:04:02.000Z</time>
      </trkpt>
      <trkpt lat="42.800438" lon="-7.916334">
        <ele>505.4</ele>
        <time>1970-01-01T01:04:03.000Z</time>
      </trkpt>
      <trkpt lat="42.800442" lon="-7.916316">
        <ele>504.7</ele>
        <time>1970-01-01T01:04:04.000Z</time>
      </trkpt>
      <trkpt lat="42.800457" lon="-7.916305">
        <ele>504.7</ele>
        <time>1970-01-01T01:04:05.000Z</time>
      </trkpt>
      <trkpt lat="42.800482" lon="-7.91629">
        <ele>503.8</ele>
        <time>1970-01-01T01:04:06.000Z</time>
      </trkpt>
      <trkpt lat="42.800509" lon="-7.916274">
        <ele>503.2</ele>
        <time>1970-01-01T01:04:07.000Z</time>
      </trkpt>
      <trkpt lat="42.800538" lon="-7.916259">
        <ele>502.6</ele>
        <time>1970-01-01T01:04:08.000Z</time>
      </trkpt>
      <trkpt lat="42.800568" lon="-7.916243">
        <ele>501.7</ele>
        <time>1970-01-01T01:04:09.000Z</time>
      </trkpt>
      <trkpt lat="42.800586" lon="-7.91623">
        <ele>501.7</ele>
        <time>1970-01-01T01:04:10.000Z</time>
      </trkpt>
      <trkpt lat="42.800601" lon="-7.916223">
        <ele>501.2</ele>
        <time>1970-01-01T01:04:11.000Z</time>
      </trkpt>
      <trkpt lat="42.800619" lon="-7.916215">
        <ele>501.2</ele>
        <time>1970-01-01T01:04:12.000Z</time>
      </trkpt>
      <trkpt lat="42.800637" lon="-7.916203">
        <ele>500.5</ele>
        <time>1970-01-01T01:04:13.000Z</time>
      </trkpt>
      <trkpt lat="42.80064" lon="-7.916195">
        <ele>500.5</ele>
        <time>1970-01-01T01:04:14.000Z</time>
      </trkpt>
      <trkpt lat="42.800644" lon="-7.916187">
        <ele>500.5</ele>
        <time>1970-01-01T01:04:15.000Z</time>
      </trkpt>
      <trkpt lat="42.800656" lon="-7.916184">
        <ele>500.5</ele>
        <time>1970-01-01T01:04:16.000Z</time>
      </trkpt>
      <trkpt lat="42.800666" lon="-7.916191">
        <ele>500.1</ele>
        <time>1970-01-01T01:04:17.000Z</time>
      </trkpt>
      <trkpt lat="42.800679" lon="-7.916189">
        <ele>500.1</ele>
        <time>1970-01-01T01:04:18.000Z</time>
      </trkpt>
      <trkpt lat="42.80069" lon="-7.916186">
        <ele>500.1</ele>
        <time>1970-01-01T01:04:19.000Z</time>
      </trkpt>
      <trkpt lat="42.80071" lon="-7.91618">
        <ele>499.9</ele>
        <time>1970-01-01T01:04:20.000Z</time>
      </trkpt>
      <trkpt lat="42.800724" lon="-7.916173">
        <ele>499.7</ele>
        <time>1970-01-01T01:04:21.000Z</time>
      </trkpt>
      <trkpt lat="42.800733" lon="-7.91618">
        <ele>499.7</ele>
        <time>1970-01-01T01:04:22.000Z</time>
      </trkpt>
      <trkpt lat="42.800753" lon="-7.916181">
        <ele>499.7</ele>
        <time>1970-01-01T01:04:23.000Z</time>
      </trkpt>
      <trkpt lat="42.800765" lon="-7.916183">
        <ele>499.6</ele>
        <time>1970-01-01T01:04:24.000Z</time>
      </trkpt>
      <trkpt lat="42.800784" lon="-7.916185">
        <ele>499.6</ele>
        <time>1970-01-01T01:04:25.000Z</time>
      </trkpt>
      <trkpt lat="42.800823" lon="-7.916146">
        <ele>499.1</ele>
        <time>1970-01-01T01:04:30.000Z</time>
      </trkpt>
      <trkpt lat="42.800825" lon="-7.916145">
        <ele>499.1</ele>
        <time>1970-01-01T01:04:31.000Z</time>
      </trkpt>
      <trkpt lat="42.800829" lon="-7.916141">
        <ele>499.1</ele>
        <time>1970-01-01T01:04:32.000Z</time>
      </trkpt>
      <trkpt lat="42.800835" lon="-7.916137">
        <ele>499.1</ele>
        <time>1970-01-01T01:04:33.000Z</time>
      </trkpt>
      <trkpt lat="42.800835" lon="-7.916128">
        <ele>499.1</ele>
        <time>1970-01-01T01:04:34.000Z</time>
      </trkpt>
      <trkpt lat="42.800837" lon="-7.916109">
        <ele>498.7</ele>
        <time>1970-01-01T01:04:35.000Z</time>
      </trkpt>
      <trkpt lat="42.800842" lon="-7.915921">
        <ele>497.2</ele>
        <time>1970-01-01T01:04:42.000Z</time>
      </trkpt>
      <trkpt lat="42.800836" lon="-7.915895">
        <ele>496.7</ele>
        <time>1970-01-01T01:04:43.000Z</time>
      </trkpt>
      <trkpt lat="42.800833" lon="-7.915862">
        <ele>496.2</ele>
        <time>1970-01-01T01:04:44.000Z</time>
      </trkpt>
      <trkpt lat="42.800828" lon="-7.915828">
        <ele>496.2</ele>
        <time>1970-01-01T01:04:45.000Z</time>
      </trkpt>
      <trkpt lat="42.800823" lon="-7.915791">
        <ele>495.7</ele>
        <time>1970-01-01T01:04:46.000Z</time>
      </trkpt>
      <trkpt lat="42.800816" lon="-7.915757">
        <ele>495.3</ele>
        <time>1970-01-01T01:04:47.000Z</time>
      </trkpt>
      <trkpt lat="42.800811" lon="-7.91572">
        <ele>494.8</ele>
        <time>1970-01-01T01:04:48.000Z</time>
      </trkpt>
      <trkpt lat="42.800812" lon="-7.915695">
        <ele>494.8</ele>
        <time>1970-01-01T01:04:49.000Z</time>
      </trkpt>
      <trkpt lat="42.800808" lon="-7.915677">
        <ele>494.3</ele>
        <time>1970-01-01T01:04:50.000Z</time>
      </trkpt>
      <trkpt lat="42.800799" lon="-7.915658">
        <ele>494.3</ele>
        <time>1970-01-01T01:04:51.000Z</time>
      </trkpt>
      <trkpt lat="42.800791" lon="-7.915638">
        <ele>493.9</ele>
        <time>1970-01-01T01:04:52.000Z</time>
      </trkpt>
      <trkpt lat="42.800779" lon="-7.91561">
        <ele>494.1</ele>
        <time>1970-01-01T01:04:53.000Z</time>
      </trkpt>
      <trkpt lat="42.800767" lon="-7.915584">
        <ele>493.7</ele>
        <time>1970-01-01T01:04:54.000Z</time>
      </trkpt>
      <trkpt lat="42.800755" lon="-7.915561">
        <ele>493.3</ele>
        <time>1970-01-01T01:04:55.000Z</time>
      </trkpt>
      <trkpt lat="42.800742" lon="-7.915559">
        <ele>493.6</ele>
        <time>1970-01-01T01:04:56.000Z</time>
      </trkpt>
      <trkpt lat="42.80073" lon="-7.915538">
        <ele>493.6</ele>
        <time>1970-01-01T01:04:57.000Z</time>
      </trkpt>
      <trkpt lat="42.800723" lon="-7.915507">
        <ele>493.3</ele>
        <time>1970-01-01T01:04:58.000Z</time>
      </trkpt>
      <trkpt lat="42.800713" lon="-7.915475">
        <ele>493.4</ele>
        <time>1970-01-01T01:04:59.000Z</time>
      </trkpt>
      <trkpt lat="42.800705" lon="-7.91545">
        <ele>493.4</ele>
        <time>1970-01-01T01:05:00.000Z</time>
      </trkpt>
      <trkpt lat="42.800693" lon="-7.915429">
        <ele>493.1</ele>
        <time>1970-01-01T01:05:01.000Z</time>
      </trkpt>
      <trkpt lat="42.800682" lon="-7.915404">
        <ele>493.5</ele>
        <time>1970-01-01T01:05:02.000Z</time>
      </trkpt>
      <trkpt lat="42.800676" lon="-7.915384">
        <ele>493.2</ele>
        <time>1970-01-01T01:05:03.000Z</time>
      </trkpt>
      <trkpt lat="42.800669" lon="-7.915361">
        <ele>493.2</ele>
        <time>1970-01-01T01:05:04.000Z</time>
      </trkpt>
      <trkpt lat="42.800666" lon="-7.915331">
        <ele>492.8</ele>
        <time>1970-01-01T01:05:05.000Z</time>
      </trkpt>
      <trkpt lat="42.800661" lon="-7.915303">
        <ele>492.5</ele>
        <time>1970-01-01T01:05:06.000Z</time>
      </trkpt>
      <trkpt lat="42.800655" lon="-7.915281">
        <ele>492.9</ele>
        <time>1970-01-01T01:05:07.000Z</time>
      </trkpt>
      <trkpt lat="42.80064" lon="-7.915267">
        <ele>492.9</ele>
        <time>1970-01-01T01:05:08.000Z</time>
      </trkpt>
      <trkpt lat="42.80062" lon="-7.915249">
        <ele>493</ele>
        <time>1970-01-01T01:05:09.000Z</time>
      </trkpt>
      <trkpt lat="42.800603" lon="-7.91523">
        <ele>493</ele>
        <time>1970-01-01T01:05:10.000Z</time>
      </trkpt>
      <trkpt lat="42.800588" lon="-7.915222">
        <ele>493.5</ele>
        <time>1970-01-01T01:05:11.000Z</time>
      </trkpt>
      <trkpt lat="42.800567" lon="-7.915223">
        <ele>493.4</ele>
        <time>1970-01-01T01:05:12.000Z</time>
      </trkpt>
      <trkpt lat="42.800557" lon="-7.915227">
        <ele>494</ele>
        <time>1970-01-01T01:05:13.000Z</time>
      </trkpt>
      <trkpt lat="42.800541" lon="-7.915221">
        <ele>493.9</ele>
        <time>1970-01-01T01:05:14.000Z</time>
      </trkpt>
      <trkpt lat="42.800523" lon="-7.915221">
        <ele>494.5</ele>
        <time>1970-01-01T01:05:15.000Z</time>
      </trkpt>
      <trkpt lat="42.800508" lon="-7.915223">
        <ele>494.5</ele>
        <time>1970-01-01T01:05:16.000Z</time>
      </trkpt>
      <trkpt lat="42.80049" lon="-7.915228">
        <ele>495</ele>
        <time>1970-01-01T01:05:17.000Z</time>
      </trkpt>
      <trkpt lat="42.80047" lon="-7.915235">
        <ele>495.5</ele>
        <time>1970-01-01T01:05:18.000Z</time>
      </trkpt>
      <trkpt lat="42.800445" lon="-7.915237">
        <ele>495.5</ele>
        <time>1970-01-01T01:05:19.000Z</time>
      </trkpt>
      <trkpt lat="42.800425" lon="-7.915246">
        <ele>496</ele>
        <time>1970-01-01T01:05:20.000Z</time>
      </trkpt>
      <trkpt lat="42.800404" lon="-7.915249">
        <ele>496.5</ele>
        <time>1970-01-01T01:05:21.000Z</time>
      </trkpt>
      <trkpt lat="42.800386" lon="-7.915258">
        <ele>496.5</ele>
        <time>1970-01-01T01:05:22.000Z</time>
      </trkpt>
      <trkpt lat="42.800357" lon="-7.915237">
        <ele>497</ele>
        <time>1970-01-01T01:05:23.000Z</time>
      </trkpt>
      <trkpt lat="42.800333" lon="-7.915224">
        <ele>497.5</ele>
        <time>1970-01-01T01:05:24.000Z</time>
      </trkpt>
      <trkpt lat="42.800308" lon="-7.915215">
        <ele>497.3</ele>
        <time>1970-01-01T01:05:25.000Z</time>
      </trkpt>
      <trkpt lat="42.800285" lon="-7.915215">
        <ele>497.3</ele>
        <time>1970-01-01T01:05:26.000Z</time>
      </trkpt>
      <trkpt lat="42.800263" lon="-7.915223">
        <ele>498.4</ele>
        <time>1970-01-01T01:05:27.000Z</time>
      </trkpt>
      <trkpt lat="42.800237" lon="-7.915229">
        <ele>498.8</ele>
        <time>1970-01-01T01:05:28.000Z</time>
      </trkpt>
      <trkpt lat="42.800209" lon="-7.915239">
        <ele>499.2</ele>
        <time>1970-01-01T01:05:29.000Z</time>
      </trkpt>
      <trkpt lat="42.800186" lon="-7.915251">
        <ele>499.5</ele>
        <time>1970-01-01T01:05:30.000Z</time>
      </trkpt>
      <trkpt lat="42.800169" lon="-7.915264">
        <ele>500.1</ele>
        <time>1970-01-01T01:05:31.000Z</time>
      </trkpt>
      <trkpt lat="42.800145" lon="-7.915269">
        <ele>500.5</ele>
        <time>1970-01-01T01:05:32.000Z</time>
      </trkpt>
      <trkpt lat="42.800122" lon="-7.915258">
        <ele>500.1</ele>
        <time>1970-01-01T01:05:33.000Z</time>
      </trkpt>
      <trkpt lat="42.800098" lon="-7.915255">
        <ele>500.1</ele>
        <time>1970-01-01T01:05:34.000Z</time>
      </trkpt>
      <trkpt lat="42.800074" lon="-7.915241">
        <ele>500.4</ele>
        <time>1970-01-01T01:05:35.000Z</time>
      </trkpt>
      <trkpt lat="42.800052" lon="-7.915225">
        <ele>500.7</ele>
        <time>1970-01-01T01:05:36.000Z</time>
      </trkpt>
      <trkpt lat="42.800029" lon="-7.915204">
        <ele>500.4</ele>
        <time>1970-01-01T01:05:37.000Z</time>
      </trkpt>
      <trkpt lat="42.800004" lon="-7.915193">
        <ele>500.4</ele>
        <time>1970-01-01T01:05:38.000Z</time>
      </trkpt>
      <trkpt lat="42.799985" lon="-7.915191">
        <ele>500.6</ele>
        <time>1970-01-01T01:05:39.000Z</time>
      </trkpt>
      <trkpt lat="42.799967" lon="-7.915188">
        <ele>500.6</ele>
        <time>1970-01-01T01:05:40.000Z</time>
      </trkpt>
      <trkpt lat="42.799935" lon="-7.915174">
        <ele>500.6</ele>
        <time>1970-01-01T01:05:41.000Z</time>
      </trkpt>
      <trkpt lat="42.799906" lon="-7.915164">
        <ele>500.6</ele>
        <time>1970-01-01T01:05:42.000Z</time>
      </trkpt>
      <trkpt lat="42.799879" lon="-7.915152">
        <ele>500.7</ele>
        <time>1970-01-01T01:05:43.000Z</time>
      </trkpt>
      <trkpt lat="42.799846" lon="-7.915128">
        <ele>500.5</ele>
        <time>1970-01-01T01:05:44.000Z</time>
      </trkpt>
      <trkpt lat="42.799821" lon="-7.915119">
        <ele>500.6</ele>
        <time>1970-01-01T01:05:45.000Z</time>
      </trkpt>
      <trkpt lat="42.799793" lon="-7.915103">
        <ele>500.8</ele>
        <time>1970-01-01T01:05:46.000Z</time>
      </trkpt>
      <trkpt lat="42.799771" lon="-7.915085">
        <ele>500.6</ele>
        <time>1970-01-01T01:05:47.000Z</time>
      </trkpt>
      <trkpt lat="42.799744" lon="-7.915079">
        <ele>500.7</ele>
        <time>1970-01-01T01:05:48.000Z</time>
      </trkpt>
      <trkpt lat="42.799714" lon="-7.915078">
        <ele>500.9</ele>
        <time>1970-01-01T01:05:49.000Z</time>
      </trkpt>
      <trkpt lat="42.799682" lon="-7.915059">
        <ele>501</ele>
        <time>1970-01-01T01:05:50.000Z</time>
      </trkpt>
      <trkpt lat="42.799656" lon="-7.915043">
        <ele>500.8</ele>
        <time>1970-01-01T01:05:51.000Z</time>
      </trkpt>
      <trkpt lat="42.799628" lon="-7.915026">
        <ele>500.9</ele>
        <time>1970-01-01T01:05:52.000Z</time>
      </trkpt>
      <trkpt lat="42.799597" lon="-7.915004">
        <ele>500.9</ele>
        <time>1970-01-01T01:05:53.000Z</time>
      </trkpt>
      <trkpt lat="42.799565" lon="-7.914982">
        <ele>501</ele>
        <time>1970-01-01T01:05:54.000Z</time>
      </trkpt>
      <trkpt lat="42.799539" lon="-7.914967">
        <ele>501.1</ele>
        <time>1970-01-01T01:05:55.000Z</time>
      </trkpt>
      <trkpt lat="42.799511" lon="-7.914944">
        <ele>500.9</ele>
        <time>1970-01-01T01:05:56.000Z</time>
      </trkpt>
      <trkpt lat="42.799484" lon="-7.914939">
        <ele>501</ele>
        <time>1970-01-01T01:05:57.000Z</time>
      </trkpt>
      <trkpt lat="42.799461" lon="-7.914927">
        <ele>501</ele>
        <time>1970-01-01T01:05:58.000Z</time>
      </trkpt>
      <trkpt lat="42.799435" lon="-7.914919">
        <ele>500.8</ele>
        <time>1970-01-01T01:05:59.000Z</time>
      </trkpt>
      <trkpt lat="42.799411" lon="-7.914906">
        <ele>500.8</ele>
        <time>1970-01-01T01:06:00.000Z</time>
      </trkpt>
      <trkpt lat="42.799391" lon="-7.914881">
        <ele>500.8</ele>
        <time>1970-01-01T01:06:01.000Z</time>
      </trkpt>
      <trkpt lat="42.799378" lon="-7.914853">
        <ele>500.7</ele>
        <time>1970-01-01T01:06:02.000Z</time>
      </trkpt>
      <trkpt lat="42.799368" lon="-7.914811">
        <ele>500.6</ele>
        <time>1970-01-01T01:06:03.000Z</time>
      </trkpt>
      <trkpt lat="42.799368" lon="-7.914761">
        <ele>500.6</ele>
        <time>1970-01-01T01:06:04.000Z</time>
      </trkpt>
      <trkpt lat="42.799372" lon="-7.914704">
        <ele>500.6</ele>
        <time>1970-01-01T01:06:05.000Z</time>
      </trkpt>
      <trkpt lat="42.799376" lon="-7.914647">
        <ele>500.4</ele>
        <time>1970-01-01T01:06:06.000Z</time>
      </trkpt>
      <trkpt lat="42.799376" lon="-7.914596">
        <ele>500.2</ele>
        <time>1970-01-01T01:06:07.000Z</time>
      </trkpt>
      <trkpt lat="42.799384" lon="-7.914563">
        <ele>499.9</ele>
        <time>1970-01-01T01:06:08.000Z</time>
      </trkpt>
      <trkpt lat="42.799392" lon="-7.914523">
        <ele>499.5</ele>
        <time>1970-01-01T01:06:09.000Z</time>
      </trkpt>
      <trkpt lat="42.799412" lon="-7.91449">
        <ele>498.9</ele>
        <time>1970-01-01T01:06:10.000Z</time>
      </trkpt>
      <trkpt lat="42.799428" lon="-7.914476">
        <ele>498.9</ele>
        <time>1970-01-01T01:06:11.000Z</time>
      </trkpt>
      <trkpt lat="42.799442" lon="-7.914452">
        <ele>498.8</ele>
        <time>1970-01-01T01:06:12.000Z</time>
      </trkpt>
      <trkpt lat="42.799454" lon="-7.914432">
        <ele>498.1</ele>
        <time>1970-01-01T01:06:13.000Z</time>
      </trkpt>
      <trkpt lat="42.799468" lon="-7.914416">
        <ele>498</ele>
        <time>1970-01-01T01:06:14.000Z</time>
      </trkpt>
      <trkpt lat="42.799482" lon="-7.914401">
        <ele>497.3</ele>
        <time>1970-01-01T01:06:15.000Z</time>
      </trkpt>
      <trkpt lat="42.799492" lon="-7.914381">
        <ele>497.3</ele>
        <time>1970-01-01T01:06:16.000Z</time>
      </trkpt>
      <trkpt lat="42.799499" lon="-7.914362">
        <ele>497.1</ele>
        <time>1970-01-01T01:06:17.000Z</time>
      </trkpt>
      <trkpt lat="42.799505" lon="-7.914342">
        <ele>496.3</ele>
        <time>1970-01-01T01:06:18.000Z</time>
      </trkpt>
      <trkpt lat="42.799515" lon="-7.914321">
        <ele>496.3</ele>
        <time>1970-01-01T01:06:19.000Z</time>
      </trkpt>
      <trkpt lat="42.799524" lon="-7.914302">
        <ele>495.5</ele>
        <time>1970-01-01T01:06:20.000Z</time>
      </trkpt>
      <trkpt lat="42.799537" lon="-7.914285">
        <ele>495.3</ele>
        <time>1970-01-01T01:06:21.000Z</time>
      </trkpt>
      <trkpt lat="42.799547" lon="-7.91426">
        <ele>494.5</ele>
        <time>1970-01-01T01:06:22.000Z</time>
      </trkpt>
      <trkpt lat="42.799559" lon="-7.914238">
        <ele>494.3</ele>
        <time>1970-01-01T01:06:23.000Z</time>
      </trkpt>
      <trkpt lat="42.799574" lon="-7.914222">
        <ele>493.6</ele>
        <time>1970-01-01T01:06:24.000Z</time>
      </trkpt>
      <trkpt lat="42.799589" lon="-7.914206">
        <ele>493.3</ele>
        <time>1970-01-01T01:06:25.000Z</time>
      </trkpt>
      <trkpt lat="42.799602" lon="-7.914185">
        <ele>492.7</ele>
        <time>1970-01-01T01:06:26.000Z</time>
      </trkpt>
      <trkpt lat="42.799613" lon="-7.91417">
        <ele>492.7</ele>
        <time>1970-01-01T01:06:27.000Z</time>
      </trkpt>
      <trkpt lat="42.799628" lon="-7.914155">
        <ele>492.4</ele>
        <time>1970-01-01T01:06:28.000Z</time>
      </trkpt>
      <trkpt lat="42.799641" lon="-7.914137">
        <ele>491.9</ele>
        <time>1970-01-01T01:06:29.000Z</time>
      </trkpt>
      <trkpt lat="42.799655" lon="-7.914124">
        <ele>491.6</ele>
        <time>1970-01-01T01:06:30.000Z</time>
      </trkpt>
      <trkpt lat="42.799671" lon="-7.914101">
        <ele>491.3</ele>
        <time>1970-01-01T01:06:31.000Z</time>
      </trkpt>
      <trkpt lat="42.799686" lon="-7.914082">
        <ele>491</ele>
        <time>1970-01-01T01:06:32.000Z</time>
      </trkpt>
      <trkpt lat="42.799705" lon="-7.914062">
        <ele>490.9</ele>
        <time>1970-01-01T01:06:33.000Z</time>
      </trkpt>
      <trkpt lat="42.799727" lon="-7.914036">
        <ele>490.4</ele>
        <time>1970-01-01T01:06:34.000Z</time>
      </trkpt>
      <trkpt lat="42.79975" lon="-7.914009">
        <ele>489.9</ele>
        <time>1970-01-01T01:06:35.000Z</time>
      </trkpt>
      <trkpt lat="42.799773" lon="-7.913979">
        <ele>489.9</ele>
        <time>1970-01-01T01:06:36.000Z</time>
      </trkpt>
      <trkpt lat="42.799796" lon="-7.913947">
        <ele>489.5</ele>
        <time>1970-01-01T01:06:37.000Z</time>
      </trkpt>
      <trkpt lat="42.799819" lon="-7.913912">
        <ele>489.2</ele>
        <time>1970-01-01T01:06:38.000Z</time>
      </trkpt>
      <trkpt lat="42.799845" lon="-7.913875">
        <ele>488.9</ele>
        <time>1970-01-01T01:06:39.000Z</time>
      </trkpt>
      <trkpt lat="42.799872" lon="-7.913831">
        <ele>488.9</ele>
        <time>1970-01-01T01:06:40.000Z</time>
      </trkpt>
      <trkpt lat="42.799899" lon="-7.913786">
        <ele>488.6</ele>
        <time>1970-01-01T01:06:41.000Z</time>
      </trkpt>
      <trkpt lat="42.799926" lon="-7.913734">
        <ele>488.2</ele>
        <time>1970-01-01T01:06:42.000Z</time>
      </trkpt>
      <trkpt lat="42.799954" lon="-7.913683">
        <ele>487.7</ele>
        <time>1970-01-01T01:06:43.000Z</time>
      </trkpt>
      <trkpt lat="42.799984" lon="-7.913625">
        <ele>487.1</ele>
        <time>1970-01-01T01:06:44.000Z</time>
      </trkpt>
      <trkpt lat="42.800013" lon="-7.913566">
        <ele>486.5</ele>
        <time>1970-01-01T01:06:45.000Z</time>
      </trkpt>
      <trkpt lat="42.800043" lon="-7.913514">
        <ele>485.9</ele>
        <time>1970-01-01T01:06:46.000Z</time>
      </trkpt>
      <trkpt lat="42.800076" lon="-7.913466">
        <ele>485.3</ele>
        <time>1970-01-01T01:06:47.000Z</time>
      </trkpt>
      <trkpt lat="42.800111" lon="-7.913427">
        <ele>484.7</ele>
        <time>1970-01-01T01:06:48.000Z</time>
      </trkpt>
      <trkpt lat="42.800156" lon="-7.913374">
        <ele>483.6</ele>
        <time>1970-01-01T01:06:49.000Z</time>
      </trkpt>
      <trkpt lat="42.800208" lon="-7.913316">
        <ele>483.1</ele>
        <time>1970-01-01T01:06:50.000Z</time>
      </trkpt>
      <trkpt lat="42.800265" lon="-7.91325">
        <ele>482.4</ele>
        <time>1970-01-01T01:06:51.000Z</time>
      </trkpt>
      <trkpt lat="42.800324" lon="-7.91318">
        <ele>481.8</ele>
        <time>1970-01-01T01:06:52.000Z</time>
      </trkpt>
      <trkpt lat="42.800386" lon="-7.9131">
        <ele>481.4</ele>
        <time>1970-01-01T01:06:53.000Z</time>
      </trkpt>
      <trkpt lat="42.800446" lon="-7.913016">
        <ele>481.1</ele>
        <time>1970-01-01T01:06:54.000Z</time>
      </trkpt>
      <trkpt lat="42.800504" lon="-7.912935">
        <ele>481</ele>
        <time>1970-01-01T01:06:55.000Z</time>
      </trkpt>
      <trkpt lat="42.800558" lon="-7.912854">
        <ele>481.1</ele>
        <time>1970-01-01T01:06:56.000Z</time>
      </trkpt>
      <trkpt lat="42.800607" lon="-7.91278">
        <ele>481.1</ele>
        <time>1970-01-01T01:06:57.000Z</time>
      </trkpt>
      <trkpt lat="42.800651" lon="-7.912712">
        <ele>481.1</ele>
        <time>1970-01-01T01:06:58.000Z</time>
      </trkpt>
      <trkpt lat="42.800688" lon="-7.912643">
        <ele>481.1</ele>
        <time>1970-01-01T01:06:59.000Z</time>
      </trkpt>
      <trkpt lat="42.800713" lon="-7.91257">
        <ele>481.1</ele>
        <time>1970-01-01T01:07:00.000Z</time>
      </trkpt>
      <trkpt lat="42.800727" lon="-7.912493">
        <ele>481</ele>
        <time>1970-01-01T01:07:01.000Z</time>
      </trkpt>
      <trkpt lat="42.800728" lon="-7.912419">
        <ele>481.1</ele>
        <time>1970-01-01T01:07:02.000Z</time>
      </trkpt>
      <trkpt lat="42.800723" lon="-7.912347">
        <ele>481.2</ele>
        <time>1970-01-01T01:07:03.000Z</time>
      </trkpt>
      <trkpt lat="42.800719" lon="-7.912274">
        <ele>481.5</ele>
        <time>1970-01-01T01:07:04.000Z</time>
      </trkpt>
      <trkpt lat="42.800714" lon="-7.912208">
        <ele>482</ele>
        <time>1970-01-01T01:07:05.000Z</time>
      </trkpt>
      <trkpt lat="42.800709" lon="-7.912147">
        <ele>482.2</ele>
        <time>1970-01-01T01:07:06.000Z</time>
      </trkpt>
      <trkpt lat="42.800706" lon="-7.912091">
        <ele>482.5</ele>
        <time>1970-01-01T01:07:07.000Z</time>
      </trkpt>
      <trkpt lat="42.800704" lon="-7.912037">
        <ele>482.9</ele>
        <time>1970-01-01T01:07:08.000Z</time>
      </trkpt>
      <trkpt lat="42.800699" lon="-7.911986">
        <ele>483</ele>
        <time>1970-01-01T01:07:09.000Z</time>
      </trkpt>
      <trkpt lat="42.800695" lon="-7.911936">
        <ele>483.2</ele>
        <time>1970-01-01T01:07:10.000Z</time>
      </trkpt>
      <trkpt lat="42.800692" lon="-7.911885">
        <ele>483.4</ele>
        <time>1970-01-01T01:07:11.000Z</time>
      </trkpt>
      <trkpt lat="42.800689" lon="-7.911831">
        <ele>483.7</ele>
        <time>1970-01-01T01:07:12.000Z</time>
      </trkpt>
      <trkpt lat="42.800686" lon="-7.911777">
        <ele>484.2</ele>
        <time>1970-01-01T01:07:13.000Z</time>
      </trkpt>
      <trkpt lat="42.800684" lon="-7.911723">
        <ele>484.5</ele>
        <time>1970-01-01T01:07:14.000Z</time>
      </trkpt>
      <trkpt lat="42.800681" lon="-7.911668">
        <ele>484.8</ele>
        <time>1970-01-01T01:07:15.000Z</time>
      </trkpt>
      <trkpt lat="42.800677" lon="-7.911613">
        <ele>485.4</ele>
        <time>1970-01-01T01:07:16.000Z</time>
      </trkpt>
      <trkpt lat="42.800672" lon="-7.91156">
        <ele>485.7</ele>
        <time>1970-01-01T01:07:17.000Z</time>
      </trkpt>
      <trkpt lat="42.800669" lon="-7.911508">
        <ele>486.1</ele>
        <time>1970-01-01T01:07:18.000Z</time>
      </trkpt>
      <trkpt lat="42.800664" lon="-7.911449">
        <ele>486.4</ele>
        <time>1970-01-01T01:07:19.000Z</time>
      </trkpt>
      <trkpt lat="42.800664" lon="-7.911399">
        <ele>487.2</ele>
        <time>1970-01-01T01:07:20.000Z</time>
      </trkpt>
      <trkpt lat="42.800668" lon="-7.911356">
        <ele>487.5</ele>
        <time>1970-01-01T01:07:21.000Z</time>
      </trkpt>
      <trkpt lat="42.800676" lon="-7.911317">
        <ele>487.5</ele>
        <time>1970-01-01T01:07:22.000Z</time>
      </trkpt>
      <trkpt lat="42.800678" lon="-7.911275">
        <ele>487.8</ele>
        <time>1970-01-01T01:07:23.000Z</time>
      </trkpt>
      <trkpt lat="42.800686" lon="-7.911241">
        <ele>488.1</ele>
        <time>1970-01-01T01:07:24.000Z</time>
      </trkpt>
      <trkpt lat="42.800687" lon="-7.911203">
        <ele>488.4</ele>
        <time>1970-01-01T01:07:25.000Z</time>
      </trkpt>
      <trkpt lat="42.80069" lon="-7.911165">
        <ele>488.6</ele>
        <time>1970-01-01T01:07:26.000Z</time>
      </trkpt>
      <trkpt lat="42.800699" lon="-7.911124">
        <ele>488.5</ele>
        <time>1970-01-01T01:07:27.000Z</time>
      </trkpt>
      <trkpt lat="42.800699" lon="-7.911088">
        <ele>488.6</ele>
        <time>1970-01-01T01:07:28.000Z</time>
      </trkpt>
      <trkpt lat="42.800701" lon="-7.911052">
        <ele>488.7</ele>
        <time>1970-01-01T01:07:29.000Z</time>
      </trkpt>
      <trkpt lat="42.800701" lon="-7.911015">
        <ele>488.7</ele>
        <time>1970-01-01T01:07:30.000Z</time>
      </trkpt>
      <trkpt lat="42.800701" lon="-7.910982">
        <ele>488.9</ele>
        <time>1970-01-01T01:07:31.000Z</time>
      </trkpt>
      <trkpt lat="42.800698" lon="-7.910956">
        <ele>489</ele>
        <time>1970-01-01T01:07:32.000Z</time>
      </trkpt>
      <trkpt lat="42.80071" lon="-7.91092">
        <ele>489.2</ele>
        <time>1970-01-01T01:07:33.000Z</time>
      </trkpt>
      <trkpt lat="42.800717" lon="-7.910895">
        <ele>489.2</ele>
        <time>1970-01-01T01:07:34.000Z</time>
      </trkpt>
      <trkpt lat="42.800725" lon="-7.910867">
        <ele>489.2</ele>
        <time>1970-01-01T01:07:35.000Z</time>
      </trkpt>
      <trkpt lat="42.80073" lon="-7.910833">
        <ele>489.4</ele>
        <time>1970-01-01T01:07:36.000Z</time>
      </trkpt>
      <trkpt lat="42.800736" lon="-7.910799">
        <ele>489.7</ele>
        <time>1970-01-01T01:07:37.000Z</time>
      </trkpt>
      <trkpt lat="42.800741" lon="-7.910765">
        <ele>489.7</ele>
        <time>1970-01-01T01:07:38.000Z</time>
      </trkpt>
      <trkpt lat="42.800742" lon="-7.910727">
        <ele>490</ele>
        <time>1970-01-01T01:07:39.000Z</time>
      </trkpt>
      <trkpt lat="42.800749" lon="-7.910689">
        <ele>490.2</ele>
        <time>1970-01-01T01:07:40.000Z</time>
      </trkpt>
      <trkpt lat="42.800757" lon="-7.91065">
        <ele>490.2</ele>
        <time>1970-01-01T01:07:41.000Z</time>
      </trkpt>
      <trkpt lat="42.800765" lon="-7.910615">
        <ele>490.4</ele>
        <time>1970-01-01T01:07:42.000Z</time>
      </trkpt>
      <trkpt lat="42.800772" lon="-7.910576">
        <ele>490.6</ele>
        <time>1970-01-01T01:07:43.000Z</time>
      </trkpt>
      <trkpt lat="42.800762" lon="-7.910544">
        <ele>490.6</ele>
        <time>1970-01-01T01:07:44.000Z</time>
      </trkpt>
      <trkpt lat="42.800765" lon="-7.910505">
        <ele>490.8</ele>
        <time>1970-01-01T01:07:45.000Z</time>
      </trkpt>
      <trkpt lat="42.800769" lon="-7.91047">
        <ele>491</ele>
        <time>1970-01-01T01:07:46.000Z</time>
      </trkpt>
      <trkpt lat="42.800772" lon="-7.91043">
        <ele>491.2</ele>
        <time>1970-01-01T01:07:47.000Z</time>
      </trkpt>
      <trkpt lat="42.800773" lon="-7.910385">
        <ele>491.3</ele>
        <time>1970-01-01T01:07:48.000Z</time>
      </trkpt>
      <trkpt lat="42.800776" lon="-7.910343">
        <ele>491.5</ele>
        <time>1970-01-01T01:07:49.000Z</time>
      </trkpt>
      <trkpt lat="42.800779" lon="-7.910308">
        <ele>491.5</ele>
        <time>1970-01-01T01:07:50.000Z</time>
      </trkpt>
      <trkpt lat="42.800781" lon="-7.910272">
        <ele>491.6</ele>
        <time>1970-01-01T01:07:51.000Z</time>
      </trkpt>
      <trkpt lat="42.800783" lon="-7.910237">
        <ele>491.7</ele>
        <time>1970-01-01T01:07:52.000Z</time>
      </trkpt>
      <trkpt lat="42.800785" lon="-7.910207">
        <ele>491.6</ele>
        <time>1970-01-01T01:07:53.000Z</time>
      </trkpt>
      <trkpt lat="42.800783" lon="-7.910181">
        <ele>491.7</ele>
        <time>1970-01-01T01:07:54.000Z</time>
      </trkpt>
      <trkpt lat="42.800781" lon="-7.910154">
        <ele>491.8</ele>
        <time>1970-01-01T01:07:55.000Z</time>
      </trkpt>
      <trkpt lat="42.800781" lon="-7.910124">
        <ele>491.7</ele>
        <time>1970-01-01T01:07:56.000Z</time>
      </trkpt>
      <trkpt lat="42.800783" lon="-7.910102">
        <ele>491.8</ele>
        <time>1970-01-01T01:07:57.000Z</time>
      </trkpt>
      <trkpt lat="42.80078" lon="-7.910081">
        <ele>491.8</ele>
        <time>1970-01-01T01:07:58.000Z</time>
      </trkpt>
      <trkpt lat="42.800776" lon="-7.910049">
        <ele>491.9</ele>
        <time>1970-01-01T01:07:59.000Z</time>
      </trkpt>
      <trkpt lat="42.800773" lon="-7.910017">
        <ele>491.9</ele>
        <time>1970-01-01T01:08:00.000Z</time>
      </trkpt>
      <trkpt lat="42.800769" lon="-7.909983">
        <ele>492</ele>
        <time>1970-01-01T01:08:01.000Z</time>
      </trkpt>
      <trkpt lat="42.80077" lon="-7.909949">
        <ele>492</ele>
        <time>1970-01-01T01:08:02.000Z</time>
      </trkpt>
      <trkpt lat="42.80077" lon="-7.909914">
        <ele>492.1</ele>
        <time>1970-01-01T01:08:03.000Z</time>
      </trkpt>
      <trkpt lat="42.800767" lon="-7.909882">
        <ele>492.2</ele>
        <time>1970-01-01T01:08:04.000Z</time>
      </trkpt>
      <trkpt lat="42.800763" lon="-7.909851">
        <ele>492.3</ele>
        <time>1970-01-01T01:08:05.000Z</time>
      </trkpt>
      <trkpt lat="42.800764" lon="-7.909816">
        <ele>492.3</ele>
        <time>1970-01-01T01:08:06.000Z</time>
      </trkpt>
      <trkpt lat="42.80076" lon="-7.909784">
        <ele>492.4</ele>
        <time>1970-01-01T01:08:07.000Z</time>
      </trkpt>
      <trkpt lat="42.800758" lon="-7.909755">
        <ele>492.5</ele>
        <time>1970-01-01T01:08:08.000Z</time>
      </trkpt>
      <trkpt lat="42.800762" lon="-7.909714">
        <ele>492.5</ele>
        <time>1970-01-01T01:08:09.000Z</time>
      </trkpt>
      <trkpt lat="42.800762" lon="-7.90968">
        <ele>492.6</ele>
        <time>1970-01-01T01:08:10.000Z</time>
      </trkpt>
      <trkpt lat="42.800765" lon="-7.909645">
        <ele>492.6</ele>
        <time>1970-01-01T01:08:11.000Z</time>
      </trkpt>
      <trkpt lat="42.800766" lon="-7.90961">
        <ele>492.6</ele>
        <time>1970-01-01T01:08:12.000Z</time>
      </trkpt>
      <trkpt lat="42.800772" lon="-7.909573">
        <ele>492.7</ele>
        <time>1970-01-01T01:08:13.000Z</time>
      </trkpt>
      <trkpt lat="42.800782" lon="-7.909536">
        <ele>492.7</ele>
        <time>1970-01-01T01:08:14.000Z</time>
      </trkpt>
      <trkpt lat="42.80079" lon="-7.909503">
        <ele>492.1</ele>
        <time>1970-01-01T01:08:15.000Z</time>
      </trkpt>
      <trkpt lat="42.800798" lon="-7.909473">
        <ele>492.1</ele>
        <time>1970-01-01T01:08:16.000Z</time>
      </trkpt>
      <trkpt lat="42.800806" lon="-7.909446">
        <ele>492.1</ele>
        <time>1970-01-01T01:08:17.000Z</time>
      </trkpt>
      <trkpt lat="42.800815" lon="-7.909405">
        <ele>492.1</ele>
        <time>1970-01-01T01:08:18.000Z</time>
      </trkpt>
      <trkpt lat="42.800832" lon="-7.909349">
        <ele>491.5</ele>
        <time>1970-01-01T01:08:19.000Z</time>
      </trkpt>
      <trkpt lat="42.800841" lon="-7.909305">
        <ele>491.5</ele>
        <time>1970-01-01T01:08:20.000Z</time>
      </trkpt>
      <trkpt lat="42.800851" lon="-7.909265">
        <ele>490.9</ele>
        <time>1970-01-01T01:08:21.000Z</time>
      </trkpt>
      <trkpt lat="42.800864" lon="-7.909225">
        <ele>490.9</ele>
        <time>1970-01-01T01:08:22.000Z</time>
      </trkpt>
      <trkpt lat="42.800877" lon="-7.909184">
        <ele>490.8</ele>
        <time>1970-01-01T01:08:23.000Z</time>
      </trkpt>
      <trkpt lat="42.800887" lon="-7.909142">
        <ele>490.3</ele>
        <time>1970-01-01T01:08:24.000Z</time>
      </trkpt>
      <trkpt lat="42.800896" lon="-7.909098">
        <ele>490.3</ele>
        <time>1970-01-01T01:08:25.000Z</time>
      </trkpt>
      <trkpt lat="42.800903" lon="-7.909063">
        <ele>490.3</ele>
        <time>1970-01-01T01:08:26.000Z</time>
      </trkpt>
      <trkpt lat="42.800913" lon="-7.909021">
        <ele>489.8</ele>
        <time>1970-01-01T01:08:27.000Z</time>
      </trkpt>
      <trkpt lat="42.800921" lon="-7.908983">
        <ele>489.8</ele>
        <time>1970-01-01T01:08:28.000Z</time>
      </trkpt>
      <trkpt lat="42.800929" lon="-7.908953">
        <ele>489.9</ele>
        <time>1970-01-01T01:08:29.000Z</time>
      </trkpt>
      <trkpt lat="42.800934" lon="-7.908927">
        <ele>489.9</ele>
        <time>1970-01-01T01:08:30.000Z</time>
      </trkpt>
      <trkpt lat="42.800948" lon="-7.908891">
        <ele>489.5</ele>
        <time>1970-01-01T01:08:31.000Z</time>
      </trkpt>
      <trkpt lat="42.800961" lon="-7.908859">
        <ele>489.6</ele>
        <time>1970-01-01T01:08:32.000Z</time>
      </trkpt>
      <trkpt lat="42.800965" lon="-7.908821">
        <ele>489.6</ele>
        <time>1970-01-01T01:08:33.000Z</time>
      </trkpt>
      <trkpt lat="42.800968" lon="-7.908759">
        <ele>489.7</ele>
        <time>1970-01-01T01:08:34.000Z</time>
      </trkpt>
      <trkpt lat="42.800967" lon="-7.908706">
        <ele>489.8</ele>
        <time>1970-01-01T01:08:35.000Z</time>
      </trkpt>
      <trkpt lat="42.800966" lon="-7.908657">
        <ele>489.9</ele>
        <time>1970-01-01T01:08:36.000Z</time>
      </trkpt>
      <trkpt lat="42.800973" lon="-7.908609">
        <ele>490</ele>
        <time>1970-01-01T01:08:37.000Z</time>
      </trkpt>
      <trkpt lat="42.800981" lon="-7.908562">
        <ele>489.6</ele>
        <time>1970-01-01T01:08:38.000Z</time>
      </trkpt>
      <trkpt lat="42.800989" lon="-7.90852">
        <ele>489.7</ele>
        <time>1970-01-01T01:08:39.000Z</time>
      </trkpt>
      <trkpt lat="42.800997" lon="-7.908476">
        <ele>489.7</ele>
        <time>1970-01-01T01:08:40.000Z</time>
      </trkpt>
      <trkpt lat="42.801008" lon="-7.908428">
        <ele>489.2</ele>
        <time>1970-01-01T01:08:41.000Z</time>
      </trkpt>
      <trkpt lat="42.801017" lon="-7.908376">
        <ele>489.3</ele>
        <time>1970-01-01T01:08:42.000Z</time>
      </trkpt>
      <trkpt lat="42.801025" lon="-7.908316">
        <ele>489.3</ele>
        <time>1970-01-01T01:08:43.000Z</time>
      </trkpt>
      <trkpt lat="42.801046" lon="-7.908255">
        <ele>489</ele>
        <time>1970-01-01T01:08:44.000Z</time>
      </trkpt>
      <trkpt lat="42.801072" lon="-7.908195">
        <ele>488.8</ele>
        <time>1970-01-01T01:08:45.000Z</time>
      </trkpt>
      <trkpt lat="42.801097" lon="-7.908142">
        <ele>489</ele>
        <time>1970-01-01T01:08:46.000Z</time>
      </trkpt>
      <trkpt lat="42.801132" lon="-7.908089">
        <ele>488.7</ele>
        <time>1970-01-01T01:08:47.000Z</time>
      </trkpt>
      <trkpt lat="42.80117" lon="-7.908036">
        <ele>488.6</ele>
        <time>1970-01-01T01:08:48.000Z</time>
      </trkpt>
      <trkpt lat="42.801222" lon="-7.907977">
        <ele>488.5</ele>
        <time>1970-01-01T01:08:49.000Z</time>
      </trkpt>
      <trkpt lat="42.801273" lon="-7.907926">
        <ele>488</ele>
        <time>1970-01-01T01:08:50.000Z</time>
      </trkpt>
      <trkpt lat="42.801323" lon="-7.907876">
        <ele>487.8</ele>
        <time>1970-01-01T01:08:51.000Z</time>
      </trkpt>
      <trkpt lat="42.801369" lon="-7.907823">
        <ele>487.8</ele>
        <time>1970-01-01T01:08:52.000Z</time>
      </trkpt>
      <trkpt lat="42.801409" lon="-7.907775">
        <ele>487.8</ele>
        <time>1970-01-01T01:08:53.000Z</time>
      </trkpt>
      <trkpt lat="42.801447" lon="-7.907714">
        <ele>487.6</ele>
        <time>1970-01-01T01:08:54.000Z</time>
      </trkpt>
      <trkpt lat="42.801485" lon="-7.907643">
        <ele>487.8</ele>
        <time>1970-01-01T01:08:55.000Z</time>
      </trkpt>
      <trkpt lat="42.801524" lon="-7.907578">
        <ele>488.1</ele>
        <time>1970-01-01T01:08:56.000Z</time>
      </trkpt>
      <trkpt lat="42.801566" lon="-7.907512">
        <ele>488.1</ele>
        <time>1970-01-01T01:08:57.000Z</time>
      </trkpt>
      <trkpt lat="42.801611" lon="-7.907441">
        <ele>488.3</ele>
        <time>1970-01-01T01:08:58.000Z</time>
      </trkpt>
      <trkpt lat="42.801651" lon="-7.907385">
        <ele>488.5</ele>
        <time>1970-01-01T01:08:59.000Z</time>
      </trkpt>
      <trkpt lat="42.801686" lon="-7.907334">
        <ele>488.7</ele>
        <time>1970-01-01T01:09:00.000Z</time>
      </trkpt>
      <trkpt lat="42.801719" lon="-7.907284">
        <ele>488.9</ele>
        <time>1970-01-01T01:09:01.000Z</time>
      </trkpt>
      <trkpt lat="42.801749" lon="-7.907237">
        <ele>489.5</ele>
        <time>1970-01-01T01:09:02.000Z</time>
      </trkpt>
      <trkpt lat="42.801775" lon="-7.907188">
        <ele>489.7</ele>
        <time>1970-01-01T01:09:03.000Z</time>
      </trkpt>
      <trkpt lat="42.801798" lon="-7.90714">
        <ele>489.9</ele>
        <time>1970-01-01T01:09:04.000Z</time>
      </trkpt>
      <trkpt lat="42.801817" lon="-7.90709">
        <ele>490.2</ele>
        <time>1970-01-01T01:09:05.000Z</time>
      </trkpt>
      <trkpt lat="42.80183" lon="-7.907035">
        <ele>490.4</ele>
        <time>1970-01-01T01:09:06.000Z</time>
      </trkpt>
      <trkpt lat="42.801843" lon="-7.906987">
        <ele>490.6</ele>
        <time>1970-01-01T01:09:07.000Z</time>
      </trkpt>
      <trkpt lat="42.801856" lon="-7.906935">
        <ele>491.1</ele>
        <time>1970-01-01T01:09:08.000Z</time>
      </trkpt>
      <trkpt lat="42.80187" lon="-7.906889">
        <ele>491.4</ele>
        <time>1970-01-01T01:09:09.000Z</time>
      </trkpt>
      <trkpt lat="42.801889" lon="-7.906846">
        <ele>491.6</ele>
        <time>1970-01-01T01:09:10.000Z</time>
      </trkpt>
      <trkpt lat="42.801911" lon="-7.906812">
        <ele>491.6</ele>
        <time>1970-01-01T01:09:11.000Z</time>
      </trkpt>
      <trkpt lat="42.801937" lon="-7.906783">
        <ele>491.8</ele>
        <time>1970-01-01T01:09:12.000Z</time>
      </trkpt>
      <trkpt lat="42.801966" lon="-7.906765">
        <ele>492.1</ele>
        <time>1970-01-01T01:09:13.000Z</time>
      </trkpt>
      <trkpt lat="42.801995" lon="-7.906763">
        <ele>492</ele>
        <time>1970-01-01T01:09:14.000Z</time>
      </trkpt>
      <trkpt lat="42.802022" lon="-7.906772">
        <ele>491.5</ele>
        <time>1970-01-01T01:09:15.000Z</time>
      </trkpt>
      <trkpt lat="42.802046" lon="-7.906783">
        <ele>491.5</ele>
        <time>1970-01-01T01:09:16.000Z</time>
      </trkpt>
      <trkpt lat="42.80207" lon="-7.906797">
        <ele>491.5</ele>
        <time>1970-01-01T01:09:17.000Z</time>
      </trkpt>
      <trkpt lat="42.802095" lon="-7.906808">
        <ele>491.4</ele>
        <time>1970-01-01T01:09:18.000Z</time>
      </trkpt>
      <trkpt lat="42.802119" lon="-7.906827">
        <ele>490.9</ele>
        <time>1970-01-01T01:09:19.000Z</time>
      </trkpt>
      <trkpt lat="42.802141" lon="-7.906847">
        <ele>490.8</ele>
        <time>1970-01-01T01:09:20.000Z</time>
      </trkpt>
      <trkpt lat="42.802164" lon="-7.906866">
        <ele>490.4</ele>
        <time>1970-01-01T01:09:21.000Z</time>
      </trkpt>
      <trkpt lat="42.802188" lon="-7.906882">
        <ele>490.2</ele>
        <time>1970-01-01T01:09:22.000Z</time>
      </trkpt>
      <trkpt lat="42.802211" lon="-7.906893">
        <ele>490.3</ele>
        <time>1970-01-01T01:09:23.000Z</time>
      </trkpt>
      <trkpt lat="42.802234" lon="-7.9069">
        <ele>490.4</ele>
        <time>1970-01-01T01:09:24.000Z</time>
      </trkpt>
      <trkpt lat="42.802257" lon="-7.906903">
        <ele>490.4</ele>
        <time>1970-01-01T01:09:25.000Z</time>
      </trkpt>
      <trkpt lat="42.802279" lon="-7.906907">
        <ele>490.5</ele>
        <time>1970-01-01T01:09:26.000Z</time>
      </trkpt>
      <trkpt lat="42.8023" lon="-7.906905">
        <ele>490.6</ele>
        <time>1970-01-01T01:09:27.000Z</time>
      </trkpt>
      <trkpt lat="42.80232" lon="-7.906898">
        <ele>490.6</ele>
        <time>1970-01-01T01:09:28.000Z</time>
      </trkpt>
      <trkpt lat="42.802337" lon="-7.906893">
        <ele>490.7</ele>
        <time>1970-01-01T01:09:29.000Z</time>
      </trkpt>
      <trkpt lat="42.802357" lon="-7.906879">
        <ele>490.7</ele>
        <time>1970-01-01T01:09:30.000Z</time>
      </trkpt>
      <trkpt lat="42.802376" lon="-7.906868">
        <ele>490.8</ele>
        <time>1970-01-01T01:09:31.000Z</time>
      </trkpt>
      <trkpt lat="42.802396" lon="-7.906864">
        <ele>490.9</ele>
        <time>1970-01-01T01:09:32.000Z</time>
      </trkpt>
      <trkpt lat="42.802417" lon="-7.906857">
        <ele>490.9</ele>
        <time>1970-01-01T01:09:33.000Z</time>
      </trkpt>
      <trkpt lat="42.802436" lon="-7.90685">
        <ele>491</ele>
        <time>1970-01-01T01:09:34.000Z</time>
      </trkpt>
      <trkpt lat="42.802456" lon="-7.906843">
        <ele>491</ele>
        <time>1970-01-01T01:09:35.000Z</time>
      </trkpt>
      <trkpt lat="42.802477" lon="-7.906833">
        <ele>491.1</ele>
        <time>1970-01-01T01:09:36.000Z</time>
      </trkpt>
      <trkpt lat="42.802499" lon="-7.906825">
        <ele>491.2</ele>
        <time>1970-01-01T01:09:37.000Z</time>
      </trkpt>
      <trkpt lat="42.802519" lon="-7.906815">
        <ele>491.2</ele>
        <time>1970-01-01T01:09:38.000Z</time>
      </trkpt>
      <trkpt lat="42.802539" lon="-7.906802">
        <ele>491.3</ele>
        <time>1970-01-01T01:09:39.000Z</time>
      </trkpt>
      <trkpt lat="42.802556" lon="-7.906783">
        <ele>491.4</ele>
        <time>1970-01-01T01:09:40.000Z</time>
      </trkpt>
      <trkpt lat="42.80257" lon="-7.906759">
        <ele>491.4</ele>
        <time>1970-01-01T01:09:41.000Z</time>
      </trkpt>
      <trkpt lat="42.802583" lon="-7.906738">
        <ele>491.5</ele>
        <time>1970-01-01T01:09:42.000Z</time>
      </trkpt>
      <trkpt lat="42.802593" lon="-7.906716">
        <ele>491.6</ele>
        <time>1970-01-01T01:09:43.000Z</time>
      </trkpt>
      <trkpt lat="42.802601" lon="-7.906696">
        <ele>491.6</ele>
        <time>1970-01-01T01:09:44.000Z</time>
      </trkpt>
      <trkpt lat="42.802607" lon="-7.906673">
        <ele>491.7</ele>
        <time>1970-01-01T01:09:45.000Z</time>
      </trkpt>
      <trkpt lat="42.802608" lon="-7.906648">
        <ele>491.7</ele>
        <time>1970-01-01T01:09:46.000Z</time>
      </trkpt>
      <trkpt lat="42.802608" lon="-7.906623">
        <ele>491.8</ele>
        <time>1970-01-01T01:09:47.000Z</time>
      </trkpt>
      <trkpt lat="42.802605" lon="-7.906599">
        <ele>492.5</ele>
        <time>1970-01-01T01:09:48.000Z</time>
      </trkpt>
      <trkpt lat="42.8026" lon="-7.906578">
        <ele>492.8</ele>
        <time>1970-01-01T01:09:49.000Z</time>
      </trkpt>
      <trkpt lat="42.802596" lon="-7.906555">
        <ele>493</ele>
        <time>1970-01-01T01:09:50.000Z</time>
      </trkpt>
      <trkpt lat="42.802595" lon="-7.906533">
        <ele>493.3</ele>
        <time>1970-01-01T01:09:51.000Z</time>
      </trkpt>
      <trkpt lat="42.802596" lon="-7.906512">
        <ele>493.5</ele>
        <time>1970-01-01T01:09:52.000Z</time>
      </trkpt>
      <trkpt lat="42.802601" lon="-7.906494">
        <ele>493.7</ele>
        <time>1970-01-01T01:09:53.000Z</time>
      </trkpt>
      <trkpt lat="42.802605" lon="-7.906473">
        <ele>493.9</ele>
        <time>1970-01-01T01:09:54.000Z</time>
      </trkpt>
      <trkpt lat="42.802607" lon="-7.906454">
        <ele>494.1</ele>
        <time>1970-01-01T01:09:55.000Z</time>
      </trkpt>
      <trkpt lat="42.802612" lon="-7.906436">
        <ele>494.3</ele>
        <time>1970-01-01T01:09:56.000Z</time>
      </trkpt>
      <trkpt lat="42.802622" lon="-7.906418">
        <ele>494.6</ele>
        <time>1970-01-01T01:09:57.000Z</time>
      </trkpt>
      <trkpt lat="42.802632" lon="-7.906401">
        <ele>494.9</ele>
        <time>1970-01-01T01:09:58.000Z</time>
      </trkpt>
      <trkpt lat="42.802643" lon="-7.906381">
        <ele>495.2</ele>
        <time>1970-01-01T01:09:59.000Z</time>
      </trkpt>
      <trkpt lat="42.802653" lon="-7.906361">
        <ele>495.4</ele>
        <time>1970-01-01T01:10:00.000Z</time>
      </trkpt>
      <trkpt lat="42.802663" lon="-7.906342">
        <ele>495.6</ele>
        <time>1970-01-01T01:10:01.000Z</time>
      </trkpt>
      <trkpt lat="42.802674" lon="-7.906324">
        <ele>495.9</ele>
        <time>1970-01-01T01:10:02.000Z</time>
      </trkpt>
      <trkpt lat="42.802683" lon="-7.906302">
        <ele>496.1</ele>
        <time>1970-01-01T01:10:03.000Z</time>
      </trkpt>
      <trkpt lat="42.802692" lon="-7.906278">
        <ele>496.4</ele>
        <time>1970-01-01T01:10:04.000Z</time>
      </trkpt>
      <trkpt lat="42.802703" lon="-7.906258">
        <ele>496.6</ele>
        <time>1970-01-01T01:10:05.000Z</time>
      </trkpt>
      <trkpt lat="42.802715" lon="-7.906238">
        <ele>496.8</ele>
        <time>1970-01-01T01:10:06.000Z</time>
      </trkpt>
      <trkpt lat="42.802725" lon="-7.906217">
        <ele>497</ele>
        <time>1970-01-01T01:10:07.000Z</time>
      </trkpt>
      <trkpt lat="42.802733" lon="-7.906198">
        <ele>497.2</ele>
        <time>1970-01-01T01:10:08.000Z</time>
      </trkpt>
      <trkpt lat="42.802741" lon="-7.90618">
        <ele>497.4</ele>
        <time>1970-01-01T01:10:09.000Z</time>
      </trkpt>
      <trkpt lat="42.802751" lon="-7.906161">
        <ele>497.5</ele>
        <time>1970-01-01T01:10:10.000Z</time>
      </trkpt>
      <trkpt lat="42.802759" lon="-7.906139">
        <ele>497.7</ele>
        <time>1970-01-01T01:10:11.000Z</time>
      </trkpt>
      <trkpt lat="42.802766" lon="-7.906119">
        <ele>497.9</ele>
        <time>1970-01-01T01:10:12.000Z</time>
      </trkpt>
      <trkpt lat="42.802775" lon="-7.906103">
        <ele>498.1</ele>
        <time>1970-01-01T01:10:13.000Z</time>
      </trkpt>
      <trkpt lat="42.802784" lon="-7.906083">
        <ele>498.3</ele>
        <time>1970-01-01T01:10:14.000Z</time>
      </trkpt>
      <trkpt lat="42.802796" lon="-7.906063">
        <ele>498.6</ele>
        <time>1970-01-01T01:10:15.000Z</time>
      </trkpt>
      <trkpt lat="42.802811" lon="-7.906041">
        <ele>498.9</ele>
        <time>1970-01-01T01:10:16.000Z</time>
      </trkpt>
      <trkpt lat="42.802825" lon="-7.906015">
        <ele>499.1</ele>
        <time>1970-01-01T01:10:17.000Z</time>
      </trkpt>
      <trkpt lat="42.802838" lon="-7.905987">
        <ele>499.3</ele>
        <time>1970-01-01T01:10:18.000Z</time>
      </trkpt>
      <trkpt lat="42.802849" lon="-7.905959">
        <ele>499.5</ele>
        <time>1970-01-01T01:10:19.000Z</time>
      </trkpt>
      <trkpt lat="42.802859" lon="-7.90593">
        <ele>499.7</ele>
        <time>1970-01-01T01:10:20.000Z</time>
      </trkpt>
      <trkpt lat="42.802869" lon="-7.905897">
        <ele>499.9</ele>
        <time>1970-01-01T01:10:21.000Z</time>
      </trkpt>
      <trkpt lat="42.802877" lon="-7.905862">
        <ele>500.2</ele>
        <time>1970-01-01T01:10:22.000Z</time>
      </trkpt>
      <trkpt lat="42.802886" lon="-7.905828">
        <ele>500.4</ele>
        <time>1970-01-01T01:10:23.000Z</time>
      </trkpt>
      <trkpt lat="42.802893" lon="-7.905793">
        <ele>500.6</ele>
        <time>1970-01-01T01:10:24.000Z</time>
      </trkpt>
      <trkpt lat="42.8029" lon="-7.905758">
        <ele>500.8</ele>
        <time>1970-01-01T01:10:25.000Z</time>
      </trkpt>
      <trkpt lat="42.802908" lon="-7.905723">
        <ele>501.1</ele>
        <time>1970-01-01T01:10:26.000Z</time>
      </trkpt>
      <trkpt lat="42.802915" lon="-7.905692">
        <ele>501.3</ele>
        <time>1970-01-01T01:10:27.000Z</time>
      </trkpt>
      <trkpt lat="42.802926" lon="-7.905661">
        <ele>501.5</ele>
        <time>1970-01-01T01:10:28.000Z</time>
      </trkpt>
      <trkpt lat="42.802937" lon="-7.905628">
        <ele>501.6</ele>
        <time>1970-01-01T01:10:29.000Z</time>
      </trkpt>
      <trkpt lat="42.802946" lon="-7.905593">
        <ele>501.8</ele>
        <time>1970-01-01T01:10:30.000Z</time>
      </trkpt>
      <trkpt lat="42.802953" lon="-7.905555">
        <ele>501.9</ele>
        <time>1970-01-01T01:10:31.000Z</time>
      </trkpt>
      <trkpt lat="42.80296" lon="-7.905516">
        <ele>502.1</ele>
        <time>1970-01-01T01:10:32.000Z</time>
      </trkpt>
      <trkpt lat="42.802968" lon="-7.905478">
        <ele>502.2</ele>
        <time>1970-01-01T01:10:33.000Z</time>
      </trkpt>
      <trkpt lat="42.802977" lon="-7.905444">
        <ele>502.3</ele>
        <time>1970-01-01T01:10:34.000Z</time>
      </trkpt>
      <trkpt lat="42.802984" lon="-7.905408">
        <ele>502.5</ele>
        <time>1970-01-01T01:10:35.000Z</time>
      </trkpt>
      <trkpt lat="42.80299" lon="-7.905374">
        <ele>502.6</ele>
        <time>1970-01-01T01:10:36.000Z</time>
      </trkpt>
      <trkpt lat="42.802995" lon="-7.905339">
        <ele>502.7</ele>
        <time>1970-01-01T01:10:37.000Z</time>
      </trkpt>
      <trkpt lat="42.802999" lon="-7.905301">
        <ele>502.9</ele>
        <time>1970-01-01T01:10:38.000Z</time>
      </trkpt>
      <trkpt lat="42.803004" lon="-7.905263">
        <ele>503.1</ele>
        <time>1970-01-01T01:10:39.000Z</time>
      </trkpt>
      <trkpt lat="42.803008" lon="-7.905227">
        <ele>503.3</ele>
        <time>1970-01-01T01:10:40.000Z</time>
      </trkpt>
      <trkpt lat="42.803013" lon="-7.905193">
        <ele>503.5</ele>
        <time>1970-01-01T01:10:41.000Z</time>
      </trkpt>
      <trkpt lat="42.803021" lon="-7.905155">
        <ele>503.7</ele>
        <time>1970-01-01T01:10:42.000Z</time>
      </trkpt>
      <trkpt lat="42.80303" lon="-7.905118">
        <ele>504</ele>
        <time>1970-01-01T01:10:43.000Z</time>
      </trkpt>
      <trkpt lat="42.80304" lon="-7.905081">
        <ele>504.3</ele>
        <time>1970-01-01T01:10:44.000Z</time>
      </trkpt>
      <trkpt lat="42.803048" lon="-7.905043">
        <ele>504.6</ele>
        <time>1970-01-01T01:10:45.000Z</time>
      </trkpt>
      <trkpt lat="42.803056" lon="-7.905005">
        <ele>504.9</ele>
        <time>1970-01-01T01:10:46.000Z</time>
      </trkpt>
      <trkpt lat="42.803067" lon="-7.904968">
        <ele>505.2</ele>
        <time>1970-01-01T01:10:47.000Z</time>
      </trkpt>
      <trkpt lat="42.803076" lon="-7.90493">
        <ele>505.4</ele>
        <time>1970-01-01T01:10:48.000Z</time>
      </trkpt>
      <trkpt lat="42.803084" lon="-7.904893">
        <ele>505.7</ele>
        <time>1970-01-01T01:10:49.000Z</time>
      </trkpt>
      <trkpt lat="42.803096" lon="-7.904857">
        <ele>506</ele>
        <time>1970-01-01T01:10:50.000Z</time>
      </trkpt>
      <trkpt lat="42.803106" lon="-7.904822">
        <ele>506.3</ele>
        <time>1970-01-01T01:10:51.000Z</time>
      </trkpt>
      <trkpt lat="42.803116" lon="-7.904786">
        <ele>506.6</ele>
        <time>1970-01-01T01:10:52.000Z</time>
      </trkpt>
      <trkpt lat="42.803127" lon="-7.904751">
        <ele>506.8</ele>
        <time>1970-01-01T01:10:53.000Z</time>
      </trkpt>
      <trkpt lat="42.803138" lon="-7.904717">
        <ele>507.1</ele>
        <time>1970-01-01T01:10:54.000Z</time>
      </trkpt>
      <trkpt lat="42.803145" lon="-7.904682">
        <ele>507.4</ele>
        <time>1970-01-01T01:10:55.000Z</time>
      </trkpt>
      <trkpt lat="42.80315" lon="-7.904647">
        <ele>507.6</ele>
        <time>1970-01-01T01:10:56.000Z</time>
      </trkpt>
      <trkpt lat="42.803155" lon="-7.904609">
        <ele>508</ele>
        <time>1970-01-01T01:10:57.000Z</time>
      </trkpt>
      <trkpt lat="42.803161" lon="-7.90457">
        <ele>508.3</ele>
        <time>1970-01-01T01:10:58.000Z</time>
      </trkpt>
      <trkpt lat="42.803166" lon="-7.904531">
        <ele>508.6</ele>
        <time>1970-01-01T01:10:59.000Z</time>
      </trkpt>
      <trkpt lat="42.803169" lon="-7.904496">
        <ele>508.6</ele>
        <time>1970-01-01T01:11:00.000Z</time>
      </trkpt>
      <trkpt lat="42.803172" lon="-7.904461">
        <ele>508.9</ele>
        <time>1970-01-01T01:11:01.000Z</time>
      </trkpt>
      <trkpt lat="42.803177" lon="-7.904427">
        <ele>509.2</ele>
        <time>1970-01-01T01:11:02.000Z</time>
      </trkpt>
      <trkpt lat="42.803182" lon="-7.904394">
        <ele>509.6</ele>
        <time>1970-01-01T01:11:03.000Z</time>
      </trkpt>
      <trkpt lat="42.803186" lon="-7.904362">
        <ele>509.9</ele>
        <time>1970-01-01T01:11:04.000Z</time>
      </trkpt>
      <trkpt lat="42.803178" lon="-7.904338">
        <ele>509.8</ele>
        <time>1970-01-01T01:11:05.000Z</time>
      </trkpt>
      <trkpt lat="42.803175" lon="-7.904312">
        <ele>510.1</ele>
        <time>1970-01-01T01:11:06.000Z</time>
      </trkpt>
      <trkpt lat="42.803174" lon="-7.904284">
        <ele>510.1</ele>
        <time>1970-01-01T01:11:07.000Z</time>
      </trkpt>
      <trkpt lat="42.803169" lon="-7.904256">
        <ele>510.4</ele>
        <time>1970-01-01T01:11:08.000Z</time>
      </trkpt>
      <trkpt lat="42.803164" lon="-7.904226">
        <ele>510.7</ele>
        <time>1970-01-01T01:11:09.000Z</time>
      </trkpt>
      <trkpt lat="42.803162" lon="-7.9042">
        <ele>510.7</ele>
        <time>1970-01-01T01:11:10.000Z</time>
      </trkpt>
      <trkpt lat="42.803162" lon="-7.904179">
        <ele>511.1</ele>
        <time>1970-01-01T01:11:11.000Z</time>
      </trkpt>
      <trkpt lat="42.803159" lon="-7.904161">
        <ele>511.1</ele>
        <time>1970-01-01T01:11:12.000Z</time>
      </trkpt>
      <trkpt lat="42.803154" lon="-7.904141">
        <ele>511.4</ele>
        <time>1970-01-01T01:11:13.000Z</time>
      </trkpt>
      <trkpt lat="42.803152" lon="-7.904123">
        <ele>511.4</ele>
        <time>1970-01-01T01:11:14.000Z</time>
      </trkpt>
      <trkpt lat="42.803147" lon="-7.904105">
        <ele>511.8</ele>
        <time>1970-01-01T01:11:15.000Z</time>
      </trkpt>
      <trkpt lat="42.803142" lon="-7.90409">
        <ele>511.7</ele>
        <time>1970-01-01T01:11:16.000Z</time>
      </trkpt>
      <trkpt lat="42.803137" lon="-7.904074">
        <ele>511.7</ele>
        <time>1970-01-01T01:11:17.000Z</time>
      </trkpt>
      <trkpt lat="42.803133" lon="-7.904064">
        <ele>511.7</ele>
        <time>1970-01-01T01:11:18.000Z</time>
      </trkpt>
      <trkpt lat="42.803128" lon="-7.904052">
        <ele>512.1</ele>
        <time>1970-01-01T01:11:19.000Z</time>
      </trkpt>
      <trkpt lat="42.803126" lon="-7.904044">
        <ele>512.1</ele>
        <time>1970-01-01T01:11:20.000Z</time>
      </trkpt>
      <trkpt lat="42.803122" lon="-7.904029">
        <ele>512.1</ele>
        <time>1970-01-01T01:11:21.000Z</time>
      </trkpt>
      <trkpt lat="42.803119" lon="-7.904024">
        <ele>512.1</ele>
        <time>1970-01-01T01:11:22.000Z</time>
      </trkpt>
      <trkpt lat="42.803111" lon="-7.904007">
        <ele>512.3</ele>
        <time>1970-01-01T01:11:23.000Z</time>
      </trkpt>
      <trkpt lat="42.803103" lon="-7.903996">
        <ele>512.3</ele>
        <time>1970-01-01T01:11:24.000Z</time>
      </trkpt>
      <trkpt lat="42.803093" lon="-7.903981">
        <ele>512.3</ele>
        <time>1970-01-01T01:11:25.000Z</time>
      </trkpt>
      <trkpt lat="42.803088" lon="-7.903967">
        <ele>512.7</ele>
        <time>1970-01-01T01:11:26.000Z</time>
      </trkpt>
      <trkpt lat="42.803082" lon="-7.90395">
        <ele>512.6</ele>
        <time>1970-01-01T01:11:27.000Z</time>
      </trkpt>
      <trkpt lat="42.803075" lon="-7.903927">
        <ele>512.9</ele>
        <time>1970-01-01T01:11:28.000Z</time>
      </trkpt>
      <trkpt lat="42.803065" lon="-7.903907">
        <ele>512.9</ele>
        <time>1970-01-01T01:11:29.000Z</time>
      </trkpt>
      <trkpt lat="42.803063" lon="-7.903894">
        <ele>512.9</ele>
        <time>1970-01-01T01:11:30.000Z</time>
      </trkpt>
      <trkpt lat="42.803063" lon="-7.903883">
        <ele>513.2</ele>
        <time>1970-01-01T01:11:31.000Z</time>
      </trkpt>
      <trkpt lat="42.803051" lon="-7.903868">
        <ele>513.1</ele>
        <time>1970-01-01T01:11:32.000Z</time>
      </trkpt>
      <trkpt lat="42.803038" lon="-7.903841">
        <ele>513.4</ele>
        <time>1970-01-01T01:11:33.000Z</time>
      </trkpt>
      <trkpt lat="42.803032" lon="-7.903822">
        <ele>513.5</ele>
        <time>1970-01-01T01:11:34.000Z</time>
      </trkpt>
      <trkpt lat="42.803026" lon="-7.903804">
        <ele>513.7</ele>
        <time>1970-01-01T01:11:35.000Z</time>
      </trkpt>
      <trkpt lat="42.803022" lon="-7.903789">
        <ele>513.8</ele>
        <time>1970-01-01T01:11:36.000Z</time>
      </trkpt>
      <trkpt lat="42.803021" lon="-7.903764">
        <ele>513.8</ele>
        <time>1970-01-01T01:11:37.000Z</time>
      </trkpt>
      <trkpt lat="42.803015" lon="-7.903736">
        <ele>514</ele>
        <time>1970-01-01T01:11:38.000Z</time>
      </trkpt>
      <trkpt lat="42.80301" lon="-7.903713">
        <ele>514.3</ele>
        <time>1970-01-01T01:11:39.000Z</time>
      </trkpt>
      <trkpt lat="42.803005" lon="-7.903691">
        <ele>514.3</ele>
        <time>1970-01-01T01:11:40.000Z</time>
      </trkpt>
      <trkpt lat="42.803" lon="-7.903664">
        <ele>514.6</ele>
        <time>1970-01-01T01:11:41.000Z</time>
      </trkpt>
      <trkpt lat="42.802996" lon="-7.903636">
        <ele>514.6</ele>
        <time>1970-01-01T01:11:42.000Z</time>
      </trkpt>
      <trkpt lat="42.802984" lon="-7.9036">
        <ele>514.8</ele>
        <time>1970-01-01T01:11:43.000Z</time>
      </trkpt>
      <trkpt lat="42.802978" lon="-7.903575">
        <ele>515.1</ele>
        <time>1970-01-01T01:11:44.000Z</time>
      </trkpt>
      <trkpt lat="42.80297" lon="-7.90354">
        <ele>515.4</ele>
        <time>1970-01-01T01:11:45.000Z</time>
      </trkpt>
      <trkpt lat="42.80296" lon="-7.903518">
        <ele>515.4</ele>
        <time>1970-01-01T01:11:46.000Z</time>
      </trkpt>
      <trkpt lat="42.802951" lon="-7.903502">
        <ele>515.6</ele>
        <time>1970-01-01T01:11:47.000Z</time>
      </trkpt>
      <trkpt lat="42.80294" lon="-7.903477">
        <ele>515.6</ele>
        <time>1970-01-01T01:11:48.000Z</time>
      </trkpt>
      <trkpt lat="42.802933" lon="-7.903453">
        <ele>515.8</ele>
        <time>1970-01-01T01:11:49.000Z</time>
      </trkpt>
      <trkpt lat="42.802923" lon="-7.903421">
        <ele>515.7</ele>
        <time>1970-01-01T01:11:50.000Z</time>
      </trkpt>
      <trkpt lat="42.802914" lon="-7.903391">
        <ele>515.9</ele>
        <time>1970-01-01T01:11:51.000Z</time>
      </trkpt>
      <trkpt lat="42.802904" lon="-7.903347">
        <ele>516.2</ele>
        <time>1970-01-01T01:11:52.000Z</time>
      </trkpt>
      <trkpt lat="42.802895" lon="-7.903308">
        <ele>516.4</ele>
        <time>1970-01-01T01:11:53.000Z</time>
      </trkpt>
      <trkpt lat="42.802892" lon="-7.903276">
        <ele>516.6</ele>
        <time>1970-01-01T01:11:54.000Z</time>
      </trkpt>
      <trkpt lat="42.8029" lon="-7.903252">
        <ele>516.7</ele>
        <time>1970-01-01T01:11:55.000Z</time>
      </trkpt>
      <trkpt lat="42.802907" lon="-7.903223">
        <ele>516.9</ele>
        <time>1970-01-01T01:11:56.000Z</time>
      </trkpt>
      <trkpt lat="42.802923" lon="-7.903204">
        <ele>516.9</ele>
        <time>1970-01-01T01:11:57.000Z</time>
      </trkpt>
      <trkpt lat="42.802939" lon="-7.903196">
        <ele>517.3</ele>
        <time>1970-01-01T01:11:58.000Z</time>
      </trkpt>
      <trkpt lat="42.802951" lon="-7.903193">
        <ele>517.3</ele>
        <time>1970-01-01T01:11:59.000Z</time>
      </trkpt>
      <trkpt lat="42.802967" lon="-7.903193">
        <ele>517.4</ele>
        <time>1970-01-01T01:12:00.000Z</time>
      </trkpt>
      <trkpt lat="42.802981" lon="-7.903189">
        <ele>517.4</ele>
        <time>1970-01-01T01:12:01.000Z</time>
      </trkpt>
      <trkpt lat="42.802994" lon="-7.903193">
        <ele>517.5</ele>
        <time>1970-01-01T01:12:02.000Z</time>
      </trkpt>
      <trkpt lat="42.802999" lon="-7.903154">
        <ele>517.8</ele>
        <time>1970-01-01T01:12:03.000Z</time>
      </trkpt>
      <trkpt lat="42.803013" lon="-7.903155">
        <ele>517.8</ele>
        <time>1970-01-01T01:12:04.000Z</time>
      </trkpt>
      <trkpt lat="42.803028" lon="-7.903158">
        <ele>517.9</ele>
        <time>1970-01-01T01:12:05.000Z</time>
      </trkpt>
      <trkpt lat="42.803042" lon="-7.903157">
        <ele>517.9</ele>
        <time>1970-01-01T01:12:06.000Z</time>
      </trkpt>
      <trkpt lat="42.803055" lon="-7.903153">
        <ele>518</ele>
        <time>1970-01-01T01:12:07.000Z</time>
      </trkpt>
      <trkpt lat="42.80307" lon="-7.903156">
        <ele>518</ele>
        <time>1970-01-01T01:12:08.000Z</time>
      </trkpt>
      <trkpt lat="42.803087" lon="-7.903155">
        <ele>518.1</ele>
        <time>1970-01-01T01:12:09.000Z</time>
      </trkpt>
      <trkpt lat="42.803101" lon="-7.903152">
        <ele>518.1</ele>
        <time>1970-01-01T01:12:10.000Z</time>
      </trkpt>
      <trkpt lat="42.803114" lon="-7.903146">
        <ele>518.2</ele>
        <time>1970-01-01T01:12:11.000Z</time>
      </trkpt>
      <trkpt lat="42.803125" lon="-7.903139">
        <ele>518.3</ele>
        <time>1970-01-01T01:12:12.000Z</time>
      </trkpt>
      <trkpt lat="42.803138" lon="-7.903133">
        <ele>518.3</ele>
        <time>1970-01-01T01:12:13.000Z</time>
      </trkpt>
      <trkpt lat="42.803156" lon="-7.903127">
        <ele>518.4</ele>
        <time>1970-01-01T01:12:14.000Z</time>
      </trkpt>
      <trkpt lat="42.80318" lon="-7.90312">
        <ele>518.5</ele>
        <time>1970-01-01T01:12:15.000Z</time>
      </trkpt>
      <trkpt lat="42.803205" lon="-7.903109">
        <ele>518.7</ele>
        <time>1970-01-01T01:12:16.000Z</time>
      </trkpt>
      <trkpt lat="42.803231" lon="-7.903104">
        <ele>518.8</ele>
        <time>1970-01-01T01:12:17.000Z</time>
      </trkpt>
      <trkpt lat="42.803257" lon="-7.903096">
        <ele>518.9</ele>
        <time>1970-01-01T01:12:18.000Z</time>
      </trkpt>
      <trkpt lat="42.803281" lon="-7.903086">
        <ele>519</ele>
        <time>1970-01-01T01:12:19.000Z</time>
      </trkpt>
      <trkpt lat="42.803305" lon="-7.903076">
        <ele>519.1</ele>
        <time>1970-01-01T01:12:20.000Z</time>
      </trkpt>
      <trkpt lat="42.803327" lon="-7.903062">
        <ele>519.3</ele>
        <time>1970-01-01T01:12:21.000Z</time>
      </trkpt>
      <trkpt lat="42.803351" lon="-7.903051">
        <ele>519.3</ele>
        <time>1970-01-01T01:12:22.000Z</time>
      </trkpt>
      <trkpt lat="42.803374" lon="-7.903036">
        <ele>519.4</ele>
        <time>1970-01-01T01:12:23.000Z</time>
      </trkpt>
      <trkpt lat="42.803396" lon="-7.903022">
        <ele>519.6</ele>
        <time>1970-01-01T01:12:24.000Z</time>
      </trkpt>
      <trkpt lat="42.803418" lon="-7.903006">
        <ele>519.6</ele>
        <time>1970-01-01T01:12:25.000Z</time>
      </trkpt>
      <trkpt lat="42.803441" lon="-7.902981">
        <ele>519.8</ele>
        <time>1970-01-01T01:12:26.000Z</time>
      </trkpt>
      <trkpt lat="42.803464" lon="-7.902958">
        <ele>519.9</ele>
        <time>1970-01-01T01:12:27.000Z</time>
      </trkpt>
      <trkpt lat="42.803484" lon="-7.902938">
        <ele>520</ele>
        <time>1970-01-01T01:12:28.000Z</time>
      </trkpt>
      <trkpt lat="42.803505" lon="-7.902921">
        <ele>520.1</ele>
        <time>1970-01-01T01:12:29.000Z</time>
      </trkpt>
      <trkpt lat="42.803525" lon="-7.902902">
        <ele>520.2</ele>
        <time>1970-01-01T01:12:30.000Z</time>
      </trkpt>
      <trkpt lat="42.803545" lon="-7.902882">
        <ele>520.2</ele>
        <time>1970-01-01T01:12:31.000Z</time>
      </trkpt>
      <trkpt lat="42.803565" lon="-7.90286">
        <ele>520.4</ele>
        <time>1970-01-01T01:12:32.000Z</time>
      </trkpt>
      <trkpt lat="42.803586" lon="-7.902839">
        <ele>520.4</ele>
        <time>1970-01-01T01:12:33.000Z</time>
      </trkpt>
      <trkpt lat="42.803608" lon="-7.902817">
        <ele>520.6</ele>
        <time>1970-01-01T01:12:34.000Z</time>
      </trkpt>
      <trkpt lat="42.803629" lon="-7.902795">
        <ele>520.6</ele>
        <time>1970-01-01T01:12:35.000Z</time>
      </trkpt>
      <trkpt lat="42.803646" lon="-7.902775">
        <ele>520.7</ele>
        <time>1970-01-01T01:12:36.000Z</time>
      </trkpt>
      <trkpt lat="42.803664" lon="-7.902755">
        <ele>520.8</ele>
        <time>1970-01-01T01:12:37.000Z</time>
      </trkpt>
      <trkpt lat="42.803682" lon="-7.902733">
        <ele>520.8</ele>
        <time>1970-01-01T01:12:38.000Z</time>
      </trkpt>
      <trkpt lat="42.803697" lon="-7.902711">
        <ele>520.9</ele>
        <time>1970-01-01T01:12:39.000Z</time>
      </trkpt>
      <trkpt lat="42.803715" lon="-7.902686">
        <ele>521.1</ele>
        <time>1970-01-01T01:12:40.000Z</time>
      </trkpt>
      <trkpt lat="42.803731" lon="-7.902663">
        <ele>521.1</ele>
        <time>1970-01-01T01:12:41.000Z</time>
      </trkpt>
      <trkpt lat="42.803747" lon="-7.90264">
        <ele>521.2</ele>
        <time>1970-01-01T01:12:42.000Z</time>
      </trkpt>
      <trkpt lat="42.803765" lon="-7.902614">
        <ele>521.2</ele>
        <time>1970-01-01T01:12:43.000Z</time>
      </trkpt>
      <trkpt lat="42.803782" lon="-7.902588">
        <ele>521.3</ele>
        <time>1970-01-01T01:12:44.000Z</time>
      </trkpt>
      <trkpt lat="42.803799" lon="-7.902562">
        <ele>521.3</ele>
        <time>1970-01-01T01:12:45.000Z</time>
      </trkpt>
      <trkpt lat="42.803814" lon="-7.902535">
        <ele>521.4</ele>
        <time>1970-01-01T01:12:46.000Z</time>
      </trkpt>
      <trkpt lat="42.803826" lon="-7.902508">
        <ele>521.5</ele>
        <time>1970-01-01T01:12:47.000Z</time>
      </trkpt>
      <trkpt lat="42.803839" lon="-7.902482">
        <ele>521.5</ele>
        <time>1970-01-01T01:12:48.000Z</time>
      </trkpt>
      <trkpt lat="42.803851" lon="-7.902452">
        <ele>521.6</ele>
        <time>1970-01-01T01:12:49.000Z</time>
      </trkpt>
      <trkpt lat="42.803859" lon="-7.902421">
        <ele>521.6</ele>
        <time>1970-01-01T01:12:50.000Z</time>
      </trkpt>
      <trkpt lat="42.803867" lon="-7.902391">
        <ele>521.6</ele>
        <time>1970-01-01T01:12:51.000Z</time>
      </trkpt>
      <trkpt lat="42.803874" lon="-7.902361">
        <ele>521.7</ele>
        <time>1970-01-01T01:12:52.000Z</time>
      </trkpt>
      <trkpt lat="42.80388" lon="-7.90233">
        <ele>521.7</ele>
        <time>1970-01-01T01:12:53.000Z</time>
      </trkpt>
      <trkpt lat="42.803885" lon="-7.902298">
        <ele>521.8</ele>
        <time>1970-01-01T01:12:54.000Z</time>
      </trkpt>
      <trkpt lat="42.803891" lon="-7.902266">
        <ele>521.8</ele>
        <time>1970-01-01T01:12:55.000Z</time>
      </trkpt>
      <trkpt lat="42.803896" lon="-7.902234">
        <ele>521.8</ele>
        <time>1970-01-01T01:12:56.000Z</time>
      </trkpt>
      <trkpt lat="42.803902" lon="-7.9022">
        <ele>521.8</ele>
        <time>1970-01-01T01:12:57.000Z</time>
      </trkpt>
      <trkpt lat="42.80391" lon="-7.902169">
        <ele>521.8</ele>
        <time>1970-01-01T01:12:58.000Z</time>
      </trkpt>
      <trkpt lat="42.803918" lon="-7.902142">
        <ele>521.8</ele>
        <time>1970-01-01T01:12:59.000Z</time>
      </trkpt>
      <trkpt lat="42.803927" lon="-7.902115">
        <ele>521.8</ele>
        <time>1970-01-01T01:13:00.000Z</time>
      </trkpt>
      <trkpt lat="42.803938" lon="-7.902087">
        <ele>521.8</ele>
        <time>1970-01-01T01:13:01.000Z</time>
      </trkpt>
      <trkpt lat="42.803952" lon="-7.902058">
        <ele>521.8</ele>
        <time>1970-01-01T01:13:02.000Z</time>
      </trkpt>
      <trkpt lat="42.803972" lon="-7.90203">
        <ele>521.8</ele>
        <time>1970-01-01T01:13:03.000Z</time>
      </trkpt>
      <trkpt lat="42.803998" lon="-7.902003">
        <ele>521.8</ele>
        <time>1970-01-01T01:13:04.000Z</time>
      </trkpt>
      <trkpt lat="42.804026" lon="-7.901981">
        <ele>521.7</ele>
        <time>1970-01-01T01:13:05.000Z</time>
      </trkpt>
      <trkpt lat="42.804055" lon="-7.90196">
        <ele>521.8</ele>
        <time>1970-01-01T01:13:06.000Z</time>
      </trkpt>
      <trkpt lat="42.804085" lon="-7.90194">
        <ele>521.7</ele>
        <time>1970-01-01T01:13:07.000Z</time>
      </trkpt>
      <trkpt lat="42.804116" lon="-7.901923">
        <ele>521.7</ele>
        <time>1970-01-01T01:13:08.000Z</time>
      </trkpt>
      <trkpt lat="42.804148" lon="-7.90191">
        <ele>521.7</ele>
        <time>1970-01-01T01:13:09.000Z</time>
      </trkpt>
      <trkpt lat="42.804182" lon="-7.901897">
        <ele>521.7</ele>
        <time>1970-01-01T01:13:10.000Z</time>
      </trkpt>
      <trkpt lat="42.804215" lon="-7.901886">
        <ele>521.7</ele>
        <time>1970-01-01T01:13:11.000Z</time>
      </trkpt>
      <trkpt lat="42.80425" lon="-7.901876">
        <ele>521.8</ele>
        <time>1970-01-01T01:13:12.000Z</time>
      </trkpt>
      <trkpt lat="42.804286" lon="-7.901867">
        <ele>521.7</ele>
        <time>1970-01-01T01:13:13.000Z</time>
      </trkpt>
      <trkpt lat="42.804321" lon="-7.901863">
        <ele>521.7</ele>
        <time>1970-01-01T01:13:14.000Z</time>
      </trkpt>
      <trkpt lat="42.804356" lon="-7.901858">
        <ele>521.8</ele>
        <time>1970-01-01T01:13:15.000Z</time>
      </trkpt>
      <trkpt lat="42.804391" lon="-7.901854">
        <ele>521.8</ele>
        <time>1970-01-01T01:13:16.000Z</time>
      </trkpt>
      <trkpt lat="42.804427" lon="-7.901852">
        <ele>521.8</ele>
        <time>1970-01-01T01:13:17.000Z</time>
      </trkpt>
      <trkpt lat="42.804461" lon="-7.901852">
        <ele>521.8</ele>
        <time>1970-01-01T01:13:18.000Z</time>
      </trkpt>
      <trkpt lat="42.804497" lon="-7.901853">
        <ele>521.8</ele>
        <time>1970-01-01T01:13:19.000Z</time>
      </trkpt>
      <trkpt lat="42.804531" lon="-7.901855">
        <ele>521.9</ele>
        <time>1970-01-01T01:13:20.000Z</time>
      </trkpt>
      <trkpt lat="42.804564" lon="-7.901858">
        <ele>521.9</ele>
        <time>1970-01-01T01:13:21.000Z</time>
      </trkpt>
      <trkpt lat="42.804596" lon="-7.901861">
        <ele>521.9</ele>
        <time>1970-01-01T01:13:22.000Z</time>
      </trkpt>
      <trkpt lat="42.804629" lon="-7.901863">
        <ele>521.9</ele>
        <time>1970-01-01T01:13:23.000Z</time>
      </trkpt>
      <trkpt lat="42.804662" lon="-7.901867">
        <ele>521.9</ele>
        <time>1970-01-01T01:13:24.000Z</time>
      </trkpt>
      <trkpt lat="42.804697" lon="-7.901874">
        <ele>522.1</ele>
        <time>1970-01-01T01:13:25.000Z</time>
      </trkpt>
      <trkpt lat="42.804732" lon="-7.901879">
        <ele>522.1</ele>
        <time>1970-01-01T01:13:26.000Z</time>
      </trkpt>
      <trkpt lat="42.804767" lon="-7.901881">
        <ele>522.1</ele>
        <time>1970-01-01T01:13:27.000Z</time>
      </trkpt>
      <trkpt lat="42.804802" lon="-7.901888">
        <ele>522.1</ele>
        <time>1970-01-01T01:13:28.000Z</time>
      </trkpt>
      <trkpt lat="42.804835" lon="-7.9019">
        <ele>522.1</ele>
        <time>1970-01-01T01:13:29.000Z</time>
      </trkpt>
      <trkpt lat="42.804867" lon="-7.901915">
        <ele>522.1</ele>
        <time>1970-01-01T01:13:30.000Z</time>
      </trkpt>
      <trkpt lat="42.804898" lon="-7.90193">
        <ele>522.2</ele>
        <time>1970-01-01T01:13:31.000Z</time>
      </trkpt>
      <trkpt lat="42.80493" lon="-7.901944">
        <ele>522.2</ele>
        <time>1970-01-01T01:13:32.000Z</time>
      </trkpt>
      <trkpt lat="42.804962" lon="-7.901955">
        <ele>522.3</ele>
        <time>1970-01-01T01:13:33.000Z</time>
      </trkpt>
      <trkpt lat="42.804997" lon="-7.901963">
        <ele>522.4</ele>
        <time>1970-01-01T01:13:34.000Z</time>
      </trkpt>
      <trkpt lat="42.805033" lon="-7.90197">
        <ele>522.4</ele>
        <time>1970-01-01T01:13:35.000Z</time>
      </trkpt>
      <trkpt lat="42.805069" lon="-7.901977">
        <ele>522.5</ele>
        <time>1970-01-01T01:13:36.000Z</time>
      </trkpt>
      <trkpt lat="42.805104" lon="-7.901981">
        <ele>522.5</ele>
        <time>1970-01-01T01:13:37.000Z</time>
      </trkpt>
      <trkpt lat="42.805141" lon="-7.901985">
        <ele>522.6</ele>
        <time>1970-01-01T01:13:38.000Z</time>
      </trkpt>
      <trkpt lat="42.805177" lon="-7.901991">
        <ele>522.6</ele>
        <time>1970-01-01T01:13:39.000Z</time>
      </trkpt>
      <trkpt lat="42.805213" lon="-7.901996">
        <ele>522.7</ele>
        <time>1970-01-01T01:13:40.000Z</time>
      </trkpt>
      <trkpt lat="42.80525" lon="-7.901998">
        <ele>522.8</ele>
        <time>1970-01-01T01:13:41.000Z</time>
      </trkpt>
      <trkpt lat="42.805287" lon="-7.902001">
        <ele>522.8</ele>
        <time>1970-01-01T01:13:42.000Z</time>
      </trkpt>
      <trkpt lat="42.805324" lon="-7.902003">
        <ele>523.2</ele>
        <time>1970-01-01T01:13:43.000Z</time>
      </trkpt>
      <trkpt lat="42.805361" lon="-7.902006">
        <ele>523.3</ele>
        <time>1970-01-01T01:13:44.000Z</time>
      </trkpt>
      <trkpt lat="42.805396" lon="-7.902009">
        <ele>523.4</ele>
        <time>1970-01-01T01:13:45.000Z</time>
      </trkpt>
      <trkpt lat="42.805432" lon="-7.902012">
        <ele>523.5</ele>
        <time>1970-01-01T01:13:46.000Z</time>
      </trkpt>
      <trkpt lat="42.805463" lon="-7.902013">
        <ele>523.6</ele>
        <time>1970-01-01T01:13:47.000Z</time>
      </trkpt>
      <trkpt lat="42.805496" lon="-7.902014">
        <ele>523.7</ele>
        <time>1970-01-01T01:13:48.000Z</time>
      </trkpt>
      <trkpt lat="42.805533" lon="-7.902011">
        <ele>523.7</ele>
        <time>1970-01-01T01:13:49.000Z</time>
      </trkpt>
      <trkpt lat="42.805569" lon="-7.902005">
        <ele>523.8</ele>
        <time>1970-01-01T01:13:50.000Z</time>
      </trkpt>
      <trkpt lat="42.805607" lon="-7.901997">
        <ele>523.8</ele>
        <time>1970-01-01T01:13:51.000Z</time>
      </trkpt>
      <trkpt lat="42.805643" lon="-7.90199">
        <ele>523.9</ele>
        <time>1970-01-01T01:13:52.000Z</time>
      </trkpt>
      <trkpt lat="42.805678" lon="-7.901981">
        <ele>523.9</ele>
        <time>1970-01-01T01:13:53.000Z</time>
      </trkpt>
      <trkpt lat="42.805712" lon="-7.901969">
        <ele>524</ele>
        <time>1970-01-01T01:13:54.000Z</time>
      </trkpt>
      <trkpt lat="42.805744" lon="-7.901956">
        <ele>523.9</ele>
        <time>1970-01-01T01:13:55.000Z</time>
      </trkpt>
      <trkpt lat="42.805777" lon="-7.901946">
        <ele>523.9</ele>
        <time>1970-01-01T01:13:56.000Z</time>
      </trkpt>
      <trkpt lat="42.805808" lon="-7.901933">
        <ele>524</ele>
        <time>1970-01-01T01:13:57.000Z</time>
      </trkpt>
      <trkpt lat="42.805839" lon="-7.901919">
        <ele>524.1</ele>
        <time>1970-01-01T01:13:58.000Z</time>
      </trkpt>
      <trkpt lat="42.805868" lon="-7.901907">
        <ele>524</ele>
        <time>1970-01-01T01:13:59.000Z</time>
      </trkpt>
      <trkpt lat="42.805898" lon="-7.901892">
        <ele>524.1</ele>
        <time>1970-01-01T01:14:00.000Z</time>
      </trkpt>
      <trkpt lat="42.805932" lon="-7.901874">
        <ele>524.1</ele>
        <time>1970-01-01T01:14:01.000Z</time>
      </trkpt>
      <trkpt lat="42.805967" lon="-7.901859">
        <ele>524</ele>
        <time>1970-01-01T01:14:02.000Z</time>
      </trkpt>
      <trkpt lat="42.806004" lon="-7.901847">
        <ele>524.1</ele>
        <time>1970-01-01T01:14:03.000Z</time>
      </trkpt>
      <trkpt lat="42.806041" lon="-7.901836">
        <ele>524.1</ele>
        <time>1970-01-01T01:14:04.000Z</time>
      </trkpt>
      <trkpt lat="42.806076" lon="-7.901821">
        <ele>524.1</ele>
        <time>1970-01-01T01:14:05.000Z</time>
      </trkpt>
      <trkpt lat="42.80611" lon="-7.901805">
        <ele>524.1</ele>
        <time>1970-01-01T01:14:06.000Z</time>
      </trkpt>
      <trkpt lat="42.806144" lon="-7.90179">
        <ele>524.1</ele>
        <time>1970-01-01T01:14:07.000Z</time>
      </trkpt>
      <trkpt lat="42.806177" lon="-7.901768">
        <ele>524.1</ele>
        <time>1970-01-01T01:14:08.000Z</time>
      </trkpt>
      <trkpt lat="42.806204" lon="-7.901751">
        <ele>524.1</ele>
        <time>1970-01-01T01:14:09.000Z</time>
      </trkpt>
      <trkpt lat="42.806236" lon="-7.90174">
        <ele>524.1</ele>
        <time>1970-01-01T01:14:10.000Z</time>
      </trkpt>
      <trkpt lat="42.806266" lon="-7.901745">
        <ele>524.1</ele>
        <time>1970-01-01T01:14:11.000Z</time>
      </trkpt>
      <trkpt lat="42.806305" lon="-7.901758">
        <ele>524.2</ele>
        <time>1970-01-01T01:14:12.000Z</time>
      </trkpt>
      <trkpt lat="42.806345" lon="-7.901776">
        <ele>524.2</ele>
        <time>1970-01-01T01:14:13.000Z</time>
      </trkpt>
      <trkpt lat="42.80638" lon="-7.901802">
        <ele>524.3</ele>
        <time>1970-01-01T01:14:14.000Z</time>
      </trkpt>
      <trkpt lat="42.806408" lon="-7.901836">
        <ele>524.1</ele>
        <time>1970-01-01T01:14:15.000Z</time>
      </trkpt>
      <trkpt lat="42.806439" lon="-7.901873">
        <ele>523.9</ele>
        <time>1970-01-01T01:14:16.000Z</time>
      </trkpt>
      <trkpt lat="42.80648" lon="-7.901909">
        <ele>523.5</ele>
        <time>1970-01-01T01:14:17.000Z</time>
      </trkpt>
      <trkpt lat="42.806524" lon="-7.901941">
        <ele>523.2</ele>
        <time>1970-01-01T01:14:18.000Z</time>
      </trkpt>
      <trkpt lat="42.80657" lon="-7.901963">
        <ele>522.8</ele>
        <time>1970-01-01T01:14:19.000Z</time>
      </trkpt>
      <trkpt lat="42.806622" lon="-7.901967">
        <ele>522.7</ele>
        <time>1970-01-01T01:14:20.000Z</time>
      </trkpt>
      <trkpt lat="42.806674" lon="-7.901962">
        <ele>522.5</ele>
        <time>1970-01-01T01:14:21.000Z</time>
      </trkpt>
      <trkpt lat="42.806727" lon="-7.901949">
        <ele>522.4</ele>
        <time>1970-01-01T01:14:22.000Z</time>
      </trkpt>
      <trkpt lat="42.80678" lon="-7.901935">
        <ele>522.3</ele>
        <time>1970-01-01T01:14:23.000Z</time>
      </trkpt>
      <trkpt lat="42.806837" lon="-7.901921">
        <ele>522.1</ele>
        <time>1970-01-01T01:14:24.000Z</time>
      </trkpt>
      <trkpt lat="42.806899" lon="-7.901904">
        <ele>522</ele>
        <time>1970-01-01T01:14:25.000Z</time>
      </trkpt>
      <trkpt lat="42.806963" lon="-7.901883">
        <ele>521.9</ele>
        <time>1970-01-01T01:14:26.000Z</time>
      </trkpt>
      <trkpt lat="42.807026" lon="-7.901853">
        <ele>521.6</ele>
        <time>1970-01-01T01:14:27.000Z</time>
      </trkpt>
      <trkpt lat="42.807085" lon="-7.901817">
        <ele>521.5</ele>
        <time>1970-01-01T01:14:28.000Z</time>
      </trkpt>
      <trkpt lat="42.807138" lon="-7.901776">
        <ele>521.3</ele>
        <time>1970-01-01T01:14:29.000Z</time>
      </trkpt>
      <trkpt lat="42.80719" lon="-7.901734">
        <ele>521.2</ele>
        <time>1970-01-01T01:14:30.000Z</time>
      </trkpt>
      <trkpt lat="42.807244" lon="-7.901698">
        <ele>521</ele>
        <time>1970-01-01T01:14:31.000Z</time>
      </trkpt>
      <trkpt lat="42.807298" lon="-7.901673">
        <ele>520.9</ele>
        <time>1970-01-01T01:14:32.000Z</time>
      </trkpt>
      <trkpt lat="42.807356" lon="-7.901657">
        <ele>520.7</ele>
        <time>1970-01-01T01:14:33.000Z</time>
      </trkpt>
      <trkpt lat="42.807413" lon="-7.901643">
        <ele>520.5</ele>
        <time>1970-01-01T01:14:34.000Z</time>
      </trkpt>
      <trkpt lat="42.80747" lon="-7.901629">
        <ele>520.3</ele>
        <time>1970-01-01T01:14:35.000Z</time>
      </trkpt>
      <trkpt lat="42.807522" lon="-7.901613">
        <ele>520.2</ele>
        <time>1970-01-01T01:14:36.000Z</time>
      </trkpt>
      <trkpt lat="42.807575" lon="-7.901601">
        <ele>520</ele>
        <time>1970-01-01T01:14:37.000Z</time>
      </trkpt>
      <trkpt lat="42.807629" lon="-7.901591">
        <ele>519.9</ele>
        <time>1970-01-01T01:14:38.000Z</time>
      </trkpt>
      <trkpt lat="42.807677" lon="-7.901574">
        <ele>519.7</ele>
        <time>1970-01-01T01:14:39.000Z</time>
      </trkpt>
      <trkpt lat="42.807721" lon="-7.901553">
        <ele>519.5</ele>
        <time>1970-01-01T01:14:40.000Z</time>
      </trkpt>
      <trkpt lat="42.807757" lon="-7.901534">
        <ele>518.6</ele>
        <time>1970-01-01T01:14:41.000Z</time>
      </trkpt>
      <trkpt lat="42.807783" lon="-7.901508">
        <ele>518.5</ele>
        <time>1970-01-01T01:14:42.000Z</time>
      </trkpt>
      <trkpt lat="42.8078" lon="-7.901477">
        <ele>518.5</ele>
        <time>1970-01-01T01:14:43.000Z</time>
      </trkpt>
      <trkpt lat="42.807806" lon="-7.901441">
        <ele>518.5</ele>
        <time>1970-01-01T01:14:44.000Z</time>
      </trkpt>
      <trkpt lat="42.807803" lon="-7.9014">
        <ele>518.6</ele>
        <time>1970-01-01T01:14:45.000Z</time>
      </trkpt>
      <trkpt lat="42.807795" lon="-7.901356">
        <ele>518.6</ele>
        <time>1970-01-01T01:14:46.000Z</time>
      </trkpt>
      <trkpt lat="42.807783" lon="-7.901307">
        <ele>518.6</ele>
        <time>1970-01-01T01:14:47.000Z</time>
      </trkpt>
      <trkpt lat="42.807772" lon="-7.90125">
        <ele>518.7</ele>
        <time>1970-01-01T01:14:48.000Z</time>
      </trkpt>
      <trkpt lat="42.807763" lon="-7.901187">
        <ele>518.8</ele>
        <time>1970-01-01T01:14:49.000Z</time>
      </trkpt>
      <trkpt lat="42.807756" lon="-7.901123">
        <ele>518.9</ele>
        <time>1970-01-01T01:14:50.000Z</time>
      </trkpt>
      <trkpt lat="42.807746" lon="-7.90106">
        <ele>519.1</ele>
        <time>1970-01-01T01:14:51.000Z</time>
      </trkpt>
      <trkpt lat="42.807734" lon="-7.900994">
        <ele>519.2</ele>
        <time>1970-01-01T01:14:52.000Z</time>
      </trkpt>
      <trkpt lat="42.807722" lon="-7.900928">
        <ele>519.4</ele>
        <time>1970-01-01T01:14:53.000Z</time>
      </trkpt>
      <trkpt lat="42.807709" lon="-7.90086">
        <ele>519.7</ele>
        <time>1970-01-01T01:14:54.000Z</time>
      </trkpt>
      <trkpt lat="42.807696" lon="-7.90079">
        <ele>519.9</ele>
        <time>1970-01-01T01:14:55.000Z</time>
      </trkpt>
      <trkpt lat="42.807681" lon="-7.900719">
        <ele>520.1</ele>
        <time>1970-01-01T01:14:56.000Z</time>
      </trkpt>
      <trkpt lat="42.807666" lon="-7.900649">
        <ele>520.2</ele>
        <time>1970-01-01T01:14:57.000Z</time>
      </trkpt>
      <trkpt lat="42.807651" lon="-7.900578">
        <ele>520.3</ele>
        <time>1970-01-01T01:14:58.000Z</time>
      </trkpt>
      <trkpt lat="42.807636" lon="-7.900507">
        <ele>520.3</ele>
        <time>1970-01-01T01:14:59.000Z</time>
      </trkpt>
      <trkpt lat="42.807623" lon="-7.900435">
        <ele>520.3</ele>
        <time>1970-01-01T01:15:00.000Z</time>
      </trkpt>
      <trkpt lat="42.807611" lon="-7.900362">
        <ele>520.3</ele>
        <time>1970-01-01T01:15:01.000Z</time>
      </trkpt>
      <trkpt lat="42.807597" lon="-7.900289">
        <ele>520.3</ele>
        <time>1970-01-01T01:15:02.000Z</time>
      </trkpt>
      <trkpt lat="42.807584" lon="-7.900216">
        <ele>520.3</ele>
        <time>1970-01-01T01:15:03.000Z</time>
      </trkpt>
      <trkpt lat="42.807573" lon="-7.900142">
        <ele>520.3</ele>
        <time>1970-01-01T01:15:04.000Z</time>
      </trkpt>
      <trkpt lat="42.807565" lon="-7.900069">
        <ele>520.3</ele>
        <time>1970-01-01T01:15:05.000Z</time>
      </trkpt>
      <trkpt lat="42.807559" lon="-7.899995">
        <ele>520.3</ele>
        <time>1970-01-01T01:15:06.000Z</time>
      </trkpt>
      <trkpt lat="42.807555" lon="-7.89992">
        <ele>520.3</ele>
        <time>1970-01-01T01:15:07.000Z</time>
      </trkpt>
      <trkpt lat="42.807552" lon="-7.899843">
        <ele>520.3</ele>
        <time>1970-01-01T01:15:08.000Z</time>
      </trkpt>
      <trkpt lat="42.807554" lon="-7.899766">
        <ele>520.3</ele>
        <time>1970-01-01T01:15:09.000Z</time>
      </trkpt>
      <trkpt lat="42.807559" lon="-7.899687">
        <ele>520.2</ele>
        <time>1970-01-01T01:15:10.000Z</time>
      </trkpt>
      <trkpt lat="42.807566" lon="-7.899607">
        <ele>520.2</ele>
        <time>1970-01-01T01:15:11.000Z</time>
      </trkpt>
      <trkpt lat="42.807574" lon="-7.899529">
        <ele>520.2</ele>
        <time>1970-01-01T01:15:12.000Z</time>
      </trkpt>
      <trkpt lat="42.807582" lon="-7.899449">
        <ele>520.2</ele>
        <time>1970-01-01T01:15:13.000Z</time>
      </trkpt>
      <trkpt lat="42.807588" lon="-7.899369">
        <ele>520.2</ele>
        <time>1970-01-01T01:15:14.000Z</time>
      </trkpt>
      <trkpt lat="42.807591" lon="-7.899289">
        <ele>520.1</ele>
        <time>1970-01-01T01:15:15.000Z</time>
      </trkpt>
      <trkpt lat="42.807595" lon="-7.89921">
        <ele>520.1</ele>
        <time>1970-01-01T01:15:16.000Z</time>
      </trkpt>
      <trkpt lat="42.8076" lon="-7.899131">
        <ele>519.9</ele>
        <time>1970-01-01T01:15:17.000Z</time>
      </trkpt>
      <trkpt lat="42.807599" lon="-7.899049">
        <ele>519.8</ele>
        <time>1970-01-01T01:15:18.000Z</time>
      </trkpt>
      <trkpt lat="42.807596" lon="-7.898965">
        <ele>519.6</ele>
        <time>1970-01-01T01:15:19.000Z</time>
      </trkpt>
      <trkpt lat="42.807593" lon="-7.898879">
        <ele>519.3</ele>
        <time>1970-01-01T01:15:20.000Z</time>
      </trkpt>
      <trkpt lat="42.807589" lon="-7.898789">
        <ele>519.1</ele>
        <time>1970-01-01T01:15:21.000Z</time>
      </trkpt>
      <trkpt lat="42.807584" lon="-7.898696">
        <ele>518.8</ele>
        <time>1970-01-01T01:15:22.000Z</time>
      </trkpt>
      <trkpt lat="42.807577" lon="-7.898602">
        <ele>518.6</ele>
        <time>1970-01-01T01:15:23.000Z</time>
      </trkpt>
      <trkpt lat="42.807571" lon="-7.898505">
        <ele>518.3</ele>
        <time>1970-01-01T01:15:24.000Z</time>
      </trkpt>
      <trkpt lat="42.807563" lon="-7.898407">
        <ele>518.1</ele>
        <time>1970-01-01T01:15:25.000Z</time>
      </trkpt>
      <trkpt lat="42.807552" lon="-7.898307">
        <ele>517.8</ele>
        <time>1970-01-01T01:15:26.000Z</time>
      </trkpt>
      <trkpt lat="42.807543" lon="-7.898206">
        <ele>517.5</ele>
        <time>1970-01-01T01:15:27.000Z</time>
      </trkpt>
      <trkpt lat="42.807536" lon="-7.898103">
        <ele>517.1</ele>
        <time>1970-01-01T01:15:28.000Z</time>
      </trkpt>
      <trkpt lat="42.807529" lon="-7.897999">
        <ele>516.8</ele>
        <time>1970-01-01T01:15:29.000Z</time>
      </trkpt>
      <trkpt lat="42.807519" lon="-7.897893">
        <ele>516.6</ele>
        <time>1970-01-01T01:15:30.000Z</time>
      </trkpt>
      <trkpt lat="42.807504" lon="-7.897788">
        <ele>516.4</ele>
        <time>1970-01-01T01:15:31.000Z</time>
      </trkpt>
      <trkpt lat="42.807483" lon="-7.897687">
        <ele>516.1</ele>
        <time>1970-01-01T01:15:32.000Z</time>
      </trkpt>
      <trkpt lat="42.807455" lon="-7.897589">
        <ele>515.6</ele>
        <time>1970-01-01T01:15:33.000Z</time>
      </trkpt>
      <trkpt lat="42.807422" lon="-7.897495">
        <ele>515</ele>
        <time>1970-01-01T01:15:34.000Z</time>
      </trkpt>
      <trkpt lat="42.807381" lon="-7.897409">
        <ele>514.5</ele>
        <time>1970-01-01T01:15:35.000Z</time>
      </trkpt>
      <trkpt lat="42.807341" lon="-7.897322">
        <ele>513.8</ele>
        <time>1970-01-01T01:15:36.000Z</time>
      </trkpt>
      <trkpt lat="42.807305" lon="-7.897236">
        <ele>513.4</ele>
        <time>1970-01-01T01:15:37.000Z</time>
      </trkpt>
      <trkpt lat="42.807267" lon="-7.897153">
        <ele>513.1</ele>
        <time>1970-01-01T01:15:38.000Z</time>
      </trkpt>
      <trkpt lat="42.80723" lon="-7.897074">
        <ele>512.9</ele>
        <time>1970-01-01T01:15:39.000Z</time>
      </trkpt>
      <trkpt lat="42.807192" lon="-7.897001">
        <ele>512.9</ele>
        <time>1970-01-01T01:15:40.000Z</time>
      </trkpt>
      <trkpt lat="42.807153" lon="-7.89694">
        <ele>513.4</ele>
        <time>1970-01-01T01:15:41.000Z</time>
      </trkpt>
      <trkpt lat="42.807111" lon="-7.896885">
        <ele>514</ele>
        <time>1970-01-01T01:15:42.000Z</time>
      </trkpt>
      <trkpt lat="42.807071" lon="-7.896832">
        <ele>514.3</ele>
        <time>1970-01-01T01:15:43.000Z</time>
      </trkpt>
      <trkpt lat="42.807037" lon="-7.896775">
        <ele>514.7</ele>
        <time>1970-01-01T01:15:44.000Z</time>
      </trkpt>
      <trkpt lat="42.807007" lon="-7.896714">
        <ele>515</ele>
        <time>1970-01-01T01:15:45.000Z</time>
      </trkpt>
      <trkpt lat="42.806982" lon="-7.896648">
        <ele>515.3</ele>
        <time>1970-01-01T01:15:46.000Z</time>
      </trkpt>
      <trkpt lat="42.80696" lon="-7.896584">
        <ele>515.7</ele>
        <time>1970-01-01T01:15:47.000Z</time>
      </trkpt>
      <trkpt lat="42.806935" lon="-7.896526">
        <ele>516</ele>
        <time>1970-01-01T01:15:48.000Z</time>
      </trkpt>
      <trkpt lat="42.806913" lon="-7.896474">
        <ele>516.4</ele>
        <time>1970-01-01T01:15:49.000Z</time>
      </trkpt>
      <trkpt lat="42.806898" lon="-7.896422">
        <ele>516.7</ele>
        <time>1970-01-01T01:15:50.000Z</time>
      </trkpt>
      <trkpt lat="42.806893" lon="-7.896366">
        <ele>517.1</ele>
        <time>1970-01-01T01:15:51.000Z</time>
      </trkpt>
      <trkpt lat="42.806897" lon="-7.896306">
        <ele>517.2</ele>
        <time>1970-01-01T01:15:52.000Z</time>
      </trkpt>
      <trkpt lat="42.806907" lon="-7.896248">
        <ele>517.5</ele>
        <time>1970-01-01T01:15:53.000Z</time>
      </trkpt>
      <trkpt lat="42.806919" lon="-7.896184">
        <ele>518</ele>
        <time>1970-01-01T01:15:54.000Z</time>
      </trkpt>
      <trkpt lat="42.806933" lon="-7.896121">
        <ele>518.3</ele>
        <time>1970-01-01T01:15:55.000Z</time>
      </trkpt>
      <trkpt lat="42.806943" lon="-7.896061">
        <ele>518.5</ele>
        <time>1970-01-01T01:15:56.000Z</time>
      </trkpt>
      <trkpt lat="42.80695" lon="-7.895999">
        <ele>519.1</ele>
        <time>1970-01-01T01:15:57.000Z</time>
      </trkpt>
      <trkpt lat="42.806959" lon="-7.895934">
        <ele>519.6</ele>
        <time>1970-01-01T01:15:58.000Z</time>
      </trkpt>
      <trkpt lat="42.806966" lon="-7.895869">
        <ele>519.7</ele>
        <time>1970-01-01T01:15:59.000Z</time>
      </trkpt>
      <trkpt lat="42.80697" lon="-7.895805">
        <ele>520.1</ele>
        <time>1970-01-01T01:16:00.000Z</time>
      </trkpt>
      <trkpt lat="42.806972" lon="-7.895742">
        <ele>520.7</ele>
        <time>1970-01-01T01:16:01.000Z</time>
      </trkpt>
      <trkpt lat="42.806976" lon="-7.895683">
        <ele>521.2</ele>
        <time>1970-01-01T01:16:02.000Z</time>
      </trkpt>
      <trkpt lat="42.806981" lon="-7.895626">
        <ele>521.6</ele>
        <time>1970-01-01T01:16:03.000Z</time>
      </trkpt>
      <trkpt lat="42.806985" lon="-7.895568">
        <ele>521.8</ele>
        <time>1970-01-01T01:16:04.000Z</time>
      </trkpt>
      <trkpt lat="42.806987" lon="-7.895521">
        <ele>521.9</ele>
        <time>1970-01-01T01:16:05.000Z</time>
      </trkpt>
      <trkpt lat="42.806988" lon="-7.895489">
        <ele>522</ele>
        <time>1970-01-01T01:16:06.000Z</time>
      </trkpt>
      <trkpt lat="42.806987" lon="-7.895451">
        <ele>522</ele>
        <time>1970-01-01T01:16:07.000Z</time>
      </trkpt>
      <trkpt lat="42.806984" lon="-7.895414">
        <ele>522</ele>
        <time>1970-01-01T01:16:08.000Z</time>
      </trkpt>
      <trkpt lat="42.806978" lon="-7.895377">
        <ele>522</ele>
        <time>1970-01-01T01:16:09.000Z</time>
      </trkpt>
      <trkpt lat="42.806974" lon="-7.895343">
        <ele>522</ele>
        <time>1970-01-01T01:16:10.000Z</time>
      </trkpt>
      <trkpt lat="42.806968" lon="-7.895311">
        <ele>522.2</ele>
        <time>1970-01-01T01:16:11.000Z</time>
      </trkpt>
      <trkpt lat="42.806962" lon="-7.895281">
        <ele>522.3</ele>
        <time>1970-01-01T01:16:12.000Z</time>
      </trkpt>
      <trkpt lat="42.806956" lon="-7.895251">
        <ele>522.4</ele>
        <time>1970-01-01T01:16:13.000Z</time>
      </trkpt>
      <trkpt lat="42.806953" lon="-7.89522">
        <ele>522.4</ele>
        <time>1970-01-01T01:16:14.000Z</time>
      </trkpt>
      <trkpt lat="42.806947" lon="-7.895184">
        <ele>522.4</ele>
        <time>1970-01-01T01:16:15.000Z</time>
      </trkpt>
      <trkpt lat="42.80694" lon="-7.895147">
        <ele>522.4</ele>
        <time>1970-01-01T01:16:16.000Z</time>
      </trkpt>
      <trkpt lat="42.806934" lon="-7.895111">
        <ele>522.4</ele>
        <time>1970-01-01T01:16:17.000Z</time>
      </trkpt>
      <trkpt lat="42.806929" lon="-7.895075">
        <ele>522.4</ele>
        <time>1970-01-01T01:16:18.000Z</time>
      </trkpt>
      <trkpt lat="42.806924" lon="-7.895039">
        <ele>522.5</ele>
        <time>1970-01-01T01:16:19.000Z</time>
      </trkpt>
      <trkpt lat="42.806918" lon="-7.895004">
        <ele>522.6</ele>
        <time>1970-01-01T01:16:20.000Z</time>
      </trkpt>
      <trkpt lat="42.806914" lon="-7.894974">
        <ele>522.7</ele>
        <time>1970-01-01T01:16:21.000Z</time>
      </trkpt>
      <trkpt lat="42.806911" lon="-7.894952">
        <ele>522.8</ele>
        <time>1970-01-01T01:16:22.000Z</time>
      </trkpt>
      <trkpt lat="42.806905" lon="-7.894926">
        <ele>522.9</ele>
        <time>1970-01-01T01:16:23.000Z</time>
      </trkpt>
      <trkpt lat="42.806897" lon="-7.894894">
        <ele>522.9</ele>
        <time>1970-01-01T01:16:24.000Z</time>
      </trkpt>
      <trkpt lat="42.806891" lon="-7.894858">
        <ele>522.8</ele>
        <time>1970-01-01T01:16:25.000Z</time>
      </trkpt>
      <trkpt lat="42.806882" lon="-7.894816">
        <ele>522.8</ele>
        <time>1970-01-01T01:16:26.000Z</time>
      </trkpt>
      <trkpt lat="42.806872" lon="-7.894778">
        <ele>522.6</ele>
        <time>1970-01-01T01:16:27.000Z</time>
      </trkpt>
      <trkpt lat="42.80686" lon="-7.894735">
        <ele>522.5</ele>
        <time>1970-01-01T01:16:28.000Z</time>
      </trkpt>
      <trkpt lat="42.80685" lon="-7.894698">
        <ele>522.4</ele>
        <time>1970-01-01T01:16:29.000Z</time>
      </trkpt>
      <trkpt lat="42.806846" lon="-7.894651">
        <ele>522.2</ele>
        <time>1970-01-01T01:16:30.000Z</time>
      </trkpt>
      <trkpt lat="42.806835" lon="-7.894606">
        <ele>522.1</ele>
        <time>1970-01-01T01:16:31.000Z</time>
      </trkpt>
      <trkpt lat="42.806823" lon="-7.894568">
        <ele>522</ele>
        <time>1970-01-01T01:16:32.000Z</time>
      </trkpt>
      <trkpt lat="42.80682" lon="-7.894536">
        <ele>521.8</ele>
        <time>1970-01-01T01:16:33.000Z</time>
      </trkpt>
      <trkpt lat="42.80682" lon="-7.894499">
        <ele>521.8</ele>
        <time>1970-01-01T01:16:34.000Z</time>
      </trkpt>
      <trkpt lat="42.806818" lon="-7.894466">
        <ele>521.8</ele>
        <time>1970-01-01T01:16:35.000Z</time>
      </trkpt>
      <trkpt lat="42.806815" lon="-7.894438">
        <ele>521.8</ele>
        <time>1970-01-01T01:16:36.000Z</time>
      </trkpt>
      <trkpt lat="42.806814" lon="-7.894405">
        <ele>521.8</ele>
        <time>1970-01-01T01:16:37.000Z</time>
      </trkpt>
      <trkpt lat="42.806812" lon="-7.894381">
        <ele>521.8</ele>
        <time>1970-01-01T01:16:38.000Z</time>
      </trkpt>
      <trkpt lat="42.80681" lon="-7.894346">
        <ele>521.7</ele>
        <time>1970-01-01T01:16:39.000Z</time>
      </trkpt>
      <trkpt lat="42.806807" lon="-7.894315">
        <ele>521.7</ele>
        <time>1970-01-01T01:16:40.000Z</time>
      </trkpt>
      <trkpt lat="42.806807" lon="-7.894279">
        <ele>521.6</ele>
        <time>1970-01-01T01:16:41.000Z</time>
      </trkpt>
      <trkpt lat="42.806808" lon="-7.894215">
        <ele>521.8</ele>
        <time>1970-01-01T01:16:42.000Z</time>
      </trkpt>
      <trkpt lat="42.806812" lon="-7.894166">
        <ele>521.9</ele>
        <time>1970-01-01T01:16:43.000Z</time>
      </trkpt>
      <trkpt lat="42.806818" lon="-7.894121">
        <ele>522</ele>
        <time>1970-01-01T01:16:44.000Z</time>
      </trkpt>
      <trkpt lat="42.806823" lon="-7.894075">
        <ele>522.1</ele>
        <time>1970-01-01T01:16:45.000Z</time>
      </trkpt>
      <trkpt lat="42.806826" lon="-7.894029">
        <ele>522.3</ele>
        <time>1970-01-01T01:16:46.000Z</time>
      </trkpt>
      <trkpt lat="42.806827" lon="-7.893984">
        <ele>522.4</ele>
        <time>1970-01-01T01:16:47.000Z</time>
      </trkpt>
      <trkpt lat="42.806825" lon="-7.893942">
        <ele>522.5</ele>
        <time>1970-01-01T01:16:48.000Z</time>
      </trkpt>
      <trkpt lat="42.806826" lon="-7.893904">
        <ele>522.7</ele>
        <time>1970-01-01T01:16:49.000Z</time>
      </trkpt>
      <trkpt lat="42.80683" lon="-7.893869">
        <ele>522.8</ele>
        <time>1970-01-01T01:16:50.000Z</time>
      </trkpt>
      <trkpt lat="42.806831" lon="-7.893835">
        <ele>523</ele>
        <time>1970-01-01T01:16:51.000Z</time>
      </trkpt>
      <trkpt lat="42.80683" lon="-7.893797">
        <ele>523.2</ele>
        <time>1970-01-01T01:16:52.000Z</time>
      </trkpt>
      <trkpt lat="42.806825" lon="-7.893762">
        <ele>523.3</ele>
        <time>1970-01-01T01:16:53.000Z</time>
      </trkpt>
      <trkpt lat="42.806821" lon="-7.893729">
        <ele>523.6</ele>
        <time>1970-01-01T01:16:54.000Z</time>
      </trkpt>
      <trkpt lat="42.80682" lon="-7.893697">
        <ele>523.9</ele>
        <time>1970-01-01T01:16:55.000Z</time>
      </trkpt>
      <trkpt lat="42.806818" lon="-7.893654">
        <ele>524.3</ele>
        <time>1970-01-01T01:16:56.000Z</time>
      </trkpt>
      <trkpt lat="42.806812" lon="-7.893621">
        <ele>524.5</ele>
        <time>1970-01-01T01:16:57.000Z</time>
      </trkpt>
      <trkpt lat="42.806802" lon="-7.893592">
        <ele>524.8</ele>
        <time>1970-01-01T01:16:58.000Z</time>
      </trkpt>
      <trkpt lat="42.806797" lon="-7.893564">
        <ele>525</ele>
        <time>1970-01-01T01:16:59.000Z</time>
      </trkpt>
      <trkpt lat="42.806793" lon="-7.893521">
        <ele>525.4</ele>
        <time>1970-01-01T01:17:00.000Z</time>
      </trkpt>
      <trkpt lat="42.806792" lon="-7.893477">
        <ele>525.7</ele>
        <time>1970-01-01T01:17:01.000Z</time>
      </trkpt>
      <trkpt lat="42.80679" lon="-7.893433">
        <ele>526.1</ele>
        <time>1970-01-01T01:17:02.000Z</time>
      </trkpt>
      <trkpt lat="42.806786" lon="-7.89339">
        <ele>526.6</ele>
        <time>1970-01-01T01:17:03.000Z</time>
      </trkpt>
      <trkpt lat="42.806783" lon="-7.893344">
        <ele>527.1</ele>
        <time>1970-01-01T01:17:04.000Z</time>
      </trkpt>
      <trkpt lat="42.80678" lon="-7.8933">
        <ele>527.6</ele>
        <time>1970-01-01T01:17:05.000Z</time>
      </trkpt>
      <trkpt lat="42.806775" lon="-7.893257">
        <ele>528</ele>
        <time>1970-01-01T01:17:06.000Z</time>
      </trkpt>
      <trkpt lat="42.806769" lon="-7.893217">
        <ele>528.4</ele>
        <time>1970-01-01T01:17:07.000Z</time>
      </trkpt>
      <trkpt lat="42.806761" lon="-7.893178">
        <ele>528.7</ele>
        <time>1970-01-01T01:17:08.000Z</time>
      </trkpt>
      <trkpt lat="42.806752" lon="-7.893146">
        <ele>528.9</ele>
        <time>1970-01-01T01:17:09.000Z</time>
      </trkpt>
      <trkpt lat="42.806743" lon="-7.89311">
        <ele>529.1</ele>
        <time>1970-01-01T01:17:10.000Z</time>
      </trkpt>
      <trkpt lat="42.806736" lon="-7.89306">
        <ele>529.4</ele>
        <time>1970-01-01T01:17:11.000Z</time>
      </trkpt>
      <trkpt lat="42.806728" lon="-7.893024">
        <ele>529.7</ele>
        <time>1970-01-01T01:17:12.000Z</time>
      </trkpt>
      <trkpt lat="42.806721" lon="-7.892992">
        <ele>529.9</ele>
        <time>1970-01-01T01:17:13.000Z</time>
      </trkpt>
      <trkpt lat="42.806717" lon="-7.892953">
        <ele>530.2</ele>
        <time>1970-01-01T01:17:14.000Z</time>
      </trkpt>
      <trkpt lat="42.806706" lon="-7.892926">
        <ele>530.3</ele>
        <time>1970-01-01T01:17:15.000Z</time>
      </trkpt>
      <trkpt lat="42.806694" lon="-7.892903">
        <ele>530.5</ele>
        <time>1970-01-01T01:17:16.000Z</time>
      </trkpt>
      <trkpt lat="42.806683" lon="-7.892883">
        <ele>530.6</ele>
        <time>1970-01-01T01:17:17.000Z</time>
      </trkpt>
      <trkpt lat="42.806672" lon="-7.892861">
        <ele>530.7</ele>
        <time>1970-01-01T01:17:18.000Z</time>
      </trkpt>
      <trkpt lat="42.806659" lon="-7.892837">
        <ele>530.9</ele>
        <time>1970-01-01T01:17:19.000Z</time>
      </trkpt>
      <trkpt lat="42.80665" lon="-7.892816">
        <ele>531.1</ele>
        <time>1970-01-01T01:17:20.000Z</time>
      </trkpt>
      <trkpt lat="42.806648" lon="-7.892796">
        <ele>531.2</ele>
        <time>1970-01-01T01:17:21.000Z</time>
      </trkpt>
      <trkpt lat="42.806642" lon="-7.892768">
        <ele>531.4</ele>
        <time>1970-01-01T01:17:22.000Z</time>
      </trkpt>
      <trkpt lat="42.806644" lon="-7.89275">
        <ele>531.4</ele>
        <time>1970-01-01T01:17:23.000Z</time>
      </trkpt>
      <trkpt lat="42.806641" lon="-7.892731">
        <ele>531.5</ele>
        <time>1970-01-01T01:17:24.000Z</time>
      </trkpt>
      <trkpt lat="42.806636" lon="-7.892708">
        <ele>531.5</ele>
        <time>1970-01-01T01:17:25.000Z</time>
      </trkpt>
      <trkpt lat="42.806631" lon="-7.892691">
        <ele>531.6</ele>
        <time>1970-01-01T01:17:26.000Z</time>
      </trkpt>
      <trkpt lat="42.806623" lon="-7.892663">
        <ele>531.7</ele>
        <time>1970-01-01T01:17:27.000Z</time>
      </trkpt>
      <trkpt lat="42.806614" lon="-7.892641">
        <ele>531.7</ele>
        <time>1970-01-01T01:17:28.000Z</time>
      </trkpt>
      <trkpt lat="42.806601" lon="-7.892611">
        <ele>531.8</ele>
        <time>1970-01-01T01:17:29.000Z</time>
      </trkpt>
      <trkpt lat="42.806593" lon="-7.89259">
        <ele>531.8</ele>
        <time>1970-01-01T01:17:30.000Z</time>
      </trkpt>
      <trkpt lat="42.806584" lon="-7.892561">
        <ele>531.8</ele>
        <time>1970-01-01T01:17:31.000Z</time>
      </trkpt>
      <trkpt lat="42.806576" lon="-7.892542">
        <ele>531.8</ele>
        <time>1970-01-01T01:17:32.000Z</time>
      </trkpt>
      <trkpt lat="42.806568" lon="-7.892515">
        <ele>531.8</ele>
        <time>1970-01-01T01:17:33.000Z</time>
      </trkpt>
      <trkpt lat="42.80656" lon="-7.892484">
        <ele>531.8</ele>
        <time>1970-01-01T01:17:34.000Z</time>
      </trkpt>
      <trkpt lat="42.806557" lon="-7.892453">
        <ele>531.7</ele>
        <time>1970-01-01T01:17:35.000Z</time>
      </trkpt>
      <trkpt lat="42.806548" lon="-7.89242">
        <ele>531.6</ele>
        <time>1970-01-01T01:17:36.000Z</time>
      </trkpt>
      <trkpt lat="42.806537" lon="-7.892395">
        <ele>531.5</ele>
        <time>1970-01-01T01:17:37.000Z</time>
      </trkpt>
      <trkpt lat="42.806529" lon="-7.892367">
        <ele>531.3</ele>
        <time>1970-01-01T01:17:38.000Z</time>
      </trkpt>
      <trkpt lat="42.806516" lon="-7.892336">
        <ele>531.2</ele>
        <time>1970-01-01T01:17:39.000Z</time>
      </trkpt>
      <trkpt lat="42.806502" lon="-7.892298">
        <ele>531</ele>
        <time>1970-01-01T01:17:40.000Z</time>
      </trkpt>
      <trkpt lat="42.806487" lon="-7.892269">
        <ele>530.8</ele>
        <time>1970-01-01T01:17:41.000Z</time>
      </trkpt>
      <trkpt lat="42.806473" lon="-7.892253">
        <ele>530.7</ele>
        <time>1970-01-01T01:17:42.000Z</time>
      </trkpt>
      <trkpt lat="42.806454" lon="-7.892221">
        <ele>530.5</ele>
        <time>1970-01-01T01:17:43.000Z</time>
      </trkpt>
      <trkpt lat="42.806432" lon="-7.892181">
        <ele>530.2</ele>
        <time>1970-01-01T01:17:44.000Z</time>
      </trkpt>
      <trkpt lat="42.80641" lon="-7.892142">
        <ele>529.9</ele>
        <time>1970-01-01T01:17:45.000Z</time>
      </trkpt>
      <trkpt lat="42.806387" lon="-7.892119">
        <ele>529.7</ele>
        <time>1970-01-01T01:17:46.000Z</time>
      </trkpt>
      <trkpt lat="42.806373" lon="-7.892095">
        <ele>529.4</ele>
        <time>1970-01-01T01:17:47.000Z</time>
      </trkpt>
      <trkpt lat="42.806356" lon="-7.892078">
        <ele>529.2</ele>
        <time>1970-01-01T01:17:48.000Z</time>
      </trkpt>
      <trkpt lat="42.806341" lon="-7.892051">
        <ele>529</ele>
        <time>1970-01-01T01:17:49.000Z</time>
      </trkpt>
      <trkpt lat="42.806311" lon="-7.892013">
        <ele>528.8</ele>
        <time>1970-01-01T01:17:50.000Z</time>
      </trkpt>
      <trkpt lat="42.806286" lon="-7.891973">
        <ele>528.6</ele>
        <time>1970-01-01T01:17:51.000Z</time>
      </trkpt>
      <trkpt lat="42.80626" lon="-7.891925">
        <ele>528.4</ele>
        <time>1970-01-01T01:17:52.000Z</time>
      </trkpt>
      <trkpt lat="42.806233" lon="-7.891875">
        <ele>528.1</ele>
        <time>1970-01-01T01:17:53.000Z</time>
      </trkpt>
      <trkpt lat="42.80621" lon="-7.891842">
        <ele>527.9</ele>
        <time>1970-01-01T01:17:54.000Z</time>
      </trkpt>
      <trkpt lat="42.806177" lon="-7.891796">
        <ele>527.6</ele>
        <time>1970-01-01T01:17:55.000Z</time>
      </trkpt>
      <trkpt lat="42.806157" lon="-7.891758">
        <ele>527.4</ele>
        <time>1970-01-01T01:17:56.000Z</time>
      </trkpt>
      <trkpt lat="42.806134" lon="-7.891718">
        <ele>527.2</ele>
        <time>1970-01-01T01:17:57.000Z</time>
      </trkpt>
      <trkpt lat="42.806108" lon="-7.891683">
        <ele>527</ele>
        <time>1970-01-01T01:17:58.000Z</time>
      </trkpt>
      <trkpt lat="42.806081" lon="-7.891624">
        <ele>526.7</ele>
        <time>1970-01-01T01:17:59.000Z</time>
      </trkpt>
      <trkpt lat="42.806049" lon="-7.891554">
        <ele>526.4</ele>
        <time>1970-01-01T01:18:00.000Z</time>
      </trkpt>
      <trkpt lat="42.806021" lon="-7.891488">
        <ele>526</ele>
        <time>1970-01-01T01:18:01.000Z</time>
      </trkpt>
      <trkpt lat="42.80599" lon="-7.891436">
        <ele>525.6</ele>
        <time>1970-01-01T01:18:02.000Z</time>
      </trkpt>
      <trkpt lat="42.805959" lon="-7.891391">
        <ele>525.4</ele>
        <time>1970-01-01T01:18:03.000Z</time>
      </trkpt>
      <trkpt lat="42.805932" lon="-7.891344">
        <ele>525.1</ele>
        <time>1970-01-01T01:18:04.000Z</time>
      </trkpt>
      <trkpt lat="42.805902" lon="-7.891315">
        <ele>524.9</ele>
        <time>1970-01-01T01:18:05.000Z</time>
      </trkpt>
      <trkpt lat="42.805869" lon="-7.891281">
        <ele>524.5</ele>
        <time>1970-01-01T01:18:06.000Z</time>
      </trkpt>
      <trkpt lat="42.805834" lon="-7.891241">
        <ele>524.1</ele>
        <time>1970-01-01T01:18:07.000Z</time>
      </trkpt>
      <trkpt lat="42.805799" lon="-7.891222">
        <ele>523.8</ele>
        <time>1970-01-01T01:18:08.000Z</time>
      </trkpt>
      <trkpt lat="42.805772" lon="-7.891219">
        <ele>523.6</ele>
        <time>1970-01-01T01:18:09.000Z</time>
      </trkpt>
      <trkpt lat="42.805742" lon="-7.891212">
        <ele>523.5</ele>
        <time>1970-01-01T01:18:10.000Z</time>
      </trkpt>
      <trkpt lat="42.805715" lon="-7.891219">
        <ele>523.3</ele>
        <time>1970-01-01T01:18:11.000Z</time>
      </trkpt>
      <trkpt lat="42.805688" lon="-7.891216">
        <ele>523.1</ele>
        <time>1970-01-01T01:18:12.000Z</time>
      </trkpt>
      <trkpt lat="42.805665" lon="-7.891206">
        <ele>522.9</ele>
        <time>1970-01-01T01:18:13.000Z</time>
      </trkpt>
      <trkpt lat="42.805624" lon="-7.891159">
        <ele>522.5</ele>
        <time>1970-01-01T01:18:14.000Z</time>
      </trkpt>
      <trkpt lat="42.805597" lon="-7.89108">
        <ele>522.2</ele>
        <time>1970-01-01T01:18:15.000Z</time>
      </trkpt>
      <trkpt lat="42.805559" lon="-7.891065">
        <ele>522.1</ele>
        <time>1970-01-01T01:18:16.000Z</time>
      </trkpt>
      <trkpt lat="42.805521" lon="-7.891042">
        <ele>522.1</ele>
        <time>1970-01-01T01:18:17.000Z</time>
      </trkpt>
      <trkpt lat="42.805491" lon="-7.891024">
        <ele>522</ele>
        <time>1970-01-01T01:18:18.000Z</time>
      </trkpt>
      <trkpt lat="42.805458" lon="-7.890998">
        <ele>522</ele>
        <time>1970-01-01T01:18:19.000Z</time>
      </trkpt>
      <trkpt lat="42.805428" lon="-7.890979">
        <ele>522.1</ele>
        <time>1970-01-01T01:18:20.000Z</time>
      </trkpt>
      <trkpt lat="42.805399" lon="-7.890945">
        <ele>522.1</ele>
        <time>1970-01-01T01:18:21.000Z</time>
      </trkpt>
      <trkpt lat="42.805381" lon="-7.890915">
        <ele>522.3</ele>
        <time>1970-01-01T01:18:22.000Z</time>
      </trkpt>
      <trkpt lat="42.80535" lon="-7.890879">
        <ele>522.4</ele>
        <time>1970-01-01T01:18:23.000Z</time>
      </trkpt>
      <trkpt lat="42.805324" lon="-7.89085">
        <ele>522.6</ele>
        <time>1970-01-01T01:18:24.000Z</time>
      </trkpt>
      <trkpt lat="42.805302" lon="-7.890827">
        <ele>522.8</ele>
        <time>1970-01-01T01:18:25.000Z</time>
      </trkpt>
      <trkpt lat="42.805272" lon="-7.890806">
        <ele>523</ele>
        <time>1970-01-01T01:18:26.000Z</time>
      </trkpt>
      <trkpt lat="42.805246" lon="-7.890775">
        <ele>523.3</ele>
        <time>1970-01-01T01:18:27.000Z</time>
      </trkpt>
      <trkpt lat="42.805207" lon="-7.890722">
        <ele>523.9</ele>
        <time>1970-01-01T01:18:28.000Z</time>
      </trkpt>
      <trkpt lat="42.805164" lon="-7.890666">
        <ele>524.5</ele>
        <time>1970-01-01T01:18:29.000Z</time>
      </trkpt>
      <trkpt lat="42.805124" lon="-7.890622">
        <ele>525</ele>
        <time>1970-01-01T01:18:30.000Z</time>
      </trkpt>
      <trkpt lat="42.805093" lon="-7.890589">
        <ele>525.4</ele>
        <time>1970-01-01T01:18:31.000Z</time>
      </trkpt>
      <trkpt lat="42.805064" lon="-7.890556">
        <ele>525.8</ele>
        <time>1970-01-01T01:18:32.000Z</time>
      </trkpt>
      <trkpt lat="42.805029" lon="-7.890518">
        <ele>526.2</ele>
        <time>1970-01-01T01:18:33.000Z</time>
      </trkpt>
      <trkpt lat="42.804994" lon="-7.890478">
        <ele>526.7</ele>
        <time>1970-01-01T01:18:34.000Z</time>
      </trkpt>
      <trkpt lat="42.80496" lon="-7.890444">
        <ele>527.2</ele>
        <time>1970-01-01T01:18:35.000Z</time>
      </trkpt>
      <trkpt lat="42.804927" lon="-7.890406">
        <ele>527.6</ele>
        <time>1970-01-01T01:18:36.000Z</time>
      </trkpt>
      <trkpt lat="42.804895" lon="-7.890377">
        <ele>528</ele>
        <time>1970-01-01T01:18:37.000Z</time>
      </trkpt>
      <trkpt lat="42.804868" lon="-7.890346">
        <ele>528.4</ele>
        <time>1970-01-01T01:18:38.000Z</time>
      </trkpt>
      <trkpt lat="42.804841" lon="-7.890331">
        <ele>528.7</ele>
        <time>1970-01-01T01:18:39.000Z</time>
      </trkpt>
      <trkpt lat="42.804817" lon="-7.890288">
        <ele>529.1</ele>
        <time>1970-01-01T01:18:40.000Z</time>
      </trkpt>
      <trkpt lat="42.8048" lon="-7.890249">
        <ele>529.4</ele>
        <time>1970-01-01T01:18:41.000Z</time>
      </trkpt>
      <trkpt lat="42.804778" lon="-7.890216">
        <ele>529.8</ele>
        <time>1970-01-01T01:18:42.000Z</time>
      </trkpt>
      <trkpt lat="42.804752" lon="-7.890187">
        <ele>530</ele>
        <time>1970-01-01T01:18:43.000Z</time>
      </trkpt>
      <trkpt lat="42.804729" lon="-7.890158">
        <ele>530.2</ele>
        <time>1970-01-01T01:18:44.000Z</time>
      </trkpt>
      <trkpt lat="42.804709" lon="-7.890135">
        <ele>530.4</ele>
        <time>1970-01-01T01:18:45.000Z</time>
      </trkpt>
      <trkpt lat="42.804687" lon="-7.890116">
        <ele>530.6</ele>
        <time>1970-01-01T01:18:46.000Z</time>
      </trkpt>
      <trkpt lat="42.804667" lon="-7.890097">
        <ele>530.8</ele>
        <time>1970-01-01T01:18:47.000Z</time>
      </trkpt>
      <trkpt lat="42.804651" lon="-7.890087">
        <ele>531</ele>
        <time>1970-01-01T01:18:48.000Z</time>
      </trkpt>
      <trkpt lat="42.804643" lon="-7.890056">
        <ele>531.1</ele>
        <time>1970-01-01T01:18:49.000Z</time>
      </trkpt>
      <trkpt lat="42.80464" lon="-7.890022">
        <ele>531.3</ele>
        <time>1970-01-01T01:18:50.000Z</time>
      </trkpt>
      <trkpt lat="42.804627" lon="-7.889998">
        <ele>531.4</ele>
        <time>1970-01-01T01:18:51.000Z</time>
      </trkpt>
      <trkpt lat="42.804611" lon="-7.889962">
        <ele>531.5</ele>
        <time>1970-01-01T01:18:52.000Z</time>
      </trkpt>
      <trkpt lat="42.804607" lon="-7.889926">
        <ele>531.6</ele>
        <time>1970-01-01T01:18:53.000Z</time>
      </trkpt>
      <trkpt lat="42.804602" lon="-7.889898">
        <ele>531.6</ele>
        <time>1970-01-01T01:18:54.000Z</time>
      </trkpt>
      <trkpt lat="42.804591" lon="-7.889862">
        <ele>531.7</ele>
        <time>1970-01-01T01:18:55.000Z</time>
      </trkpt>
      <trkpt lat="42.804583" lon="-7.889827">
        <ele>531.7</ele>
        <time>1970-01-01T01:18:56.000Z</time>
      </trkpt>
      <trkpt lat="42.804576" lon="-7.889789">
        <ele>531.7</ele>
        <time>1970-01-01T01:18:57.000Z</time>
      </trkpt>
      <trkpt lat="42.804567" lon="-7.889739">
        <ele>531.6</ele>
        <time>1970-01-01T01:18:58.000Z</time>
      </trkpt>
      <trkpt lat="42.804561" lon="-7.889692">
        <ele>531.6</ele>
        <time>1970-01-01T01:18:59.000Z</time>
      </trkpt>
      <trkpt lat="42.80455" lon="-7.88965">
        <ele>531.5</ele>
        <time>1970-01-01T01:19:00.000Z</time>
      </trkpt>
      <trkpt lat="42.804528" lon="-7.889597">
        <ele>531.2</ele>
        <time>1970-01-01T01:19:01.000Z</time>
      </trkpt>
      <trkpt lat="42.804512" lon="-7.889563">
        <ele>531</ele>
        <time>1970-01-01T01:19:02.000Z</time>
      </trkpt>
      <trkpt lat="42.804485" lon="-7.889518">
        <ele>530.8</ele>
        <time>1970-01-01T01:19:03.000Z</time>
      </trkpt>
      <trkpt lat="42.804459" lon="-7.889477">
        <ele>530.6</ele>
        <time>1970-01-01T01:19:04.000Z</time>
      </trkpt>
      <trkpt lat="42.804433" lon="-7.889443">
        <ele>530.5</ele>
        <time>1970-01-01T01:19:05.000Z</time>
      </trkpt>
      <trkpt lat="42.804409" lon="-7.889409">
        <ele>530.3</ele>
        <time>1970-01-01T01:19:06.000Z</time>
      </trkpt>
      <trkpt lat="42.804386" lon="-7.889376">
        <ele>530.2</ele>
        <time>1970-01-01T01:19:07.000Z</time>
      </trkpt>
      <trkpt lat="42.804363" lon="-7.889353">
        <ele>530.2</ele>
        <time>1970-01-01T01:19:08.000Z</time>
      </trkpt>
      <trkpt lat="42.804337" lon="-7.889314">
        <ele>530.3</ele>
        <time>1970-01-01T01:19:09.000Z</time>
      </trkpt>
      <trkpt lat="42.804316" lon="-7.889283">
        <ele>530.3</ele>
        <time>1970-01-01T01:19:10.000Z</time>
      </trkpt>
      <trkpt lat="42.804294" lon="-7.889253">
        <ele>530.4</ele>
        <time>1970-01-01T01:19:11.000Z</time>
      </trkpt>
      <trkpt lat="42.804273" lon="-7.88922">
        <ele>530.4</ele>
        <time>1970-01-01T01:19:12.000Z</time>
      </trkpt>
      <trkpt lat="42.80425" lon="-7.889187">
        <ele>530.4</ele>
        <time>1970-01-01T01:19:13.000Z</time>
      </trkpt>
      <trkpt lat="42.804221" lon="-7.889148">
        <ele>530.5</ele>
        <time>1970-01-01T01:19:14.000Z</time>
      </trkpt>
      <trkpt lat="42.804191" lon="-7.889122">
        <ele>530.6</ele>
        <time>1970-01-01T01:19:15.000Z</time>
      </trkpt>
      <trkpt lat="42.80416" lon="-7.889097">
        <ele>530.7</ele>
        <time>1970-01-01T01:19:16.000Z</time>
      </trkpt>
      <trkpt lat="42.804131" lon="-7.889074">
        <ele>530.8</ele>
        <time>1970-01-01T01:19:17.000Z</time>
      </trkpt>
      <trkpt lat="42.804101" lon="-7.889044">
        <ele>530.8</ele>
        <time>1970-01-01T01:19:18.000Z</time>
      </trkpt>
      <trkpt lat="42.804072" lon="-7.889003">
        <ele>530.9</ele>
        <time>1970-01-01T01:19:19.000Z</time>
      </trkpt>
      <trkpt lat="42.804042" lon="-7.888957">
        <ele>531</ele>
        <time>1970-01-01T01:19:20.000Z</time>
      </trkpt>
      <trkpt lat="42.804012" lon="-7.888916">
        <ele>531.1</ele>
        <time>1970-01-01T01:19:21.000Z</time>
      </trkpt>
      <trkpt lat="42.803982" lon="-7.888878">
        <ele>531.1</ele>
        <time>1970-01-01T01:19:22.000Z</time>
      </trkpt>
      <trkpt lat="42.803952" lon="-7.888844">
        <ele>531.2</ele>
        <time>1970-01-01T01:19:23.000Z</time>
      </trkpt>
      <trkpt lat="42.80392" lon="-7.888809">
        <ele>531.3</ele>
        <time>1970-01-01T01:19:24.000Z</time>
      </trkpt>
      <trkpt lat="42.803889" lon="-7.88877">
        <ele>531.4</ele>
        <time>1970-01-01T01:19:25.000Z</time>
      </trkpt>
      <trkpt lat="42.80386" lon="-7.888733">
        <ele>531.5</ele>
        <time>1970-01-01T01:19:26.000Z</time>
      </trkpt>
      <trkpt lat="42.803835" lon="-7.888692">
        <ele>531.6</ele>
        <time>1970-01-01T01:19:27.000Z</time>
      </trkpt>
      <trkpt lat="42.803812" lon="-7.888652">
        <ele>531.7</ele>
        <time>1970-01-01T01:19:28.000Z</time>
      </trkpt>
      <trkpt lat="42.803788" lon="-7.888612">
        <ele>531.8</ele>
        <time>1970-01-01T01:19:29.000Z</time>
      </trkpt>
      <trkpt lat="42.803766" lon="-7.888573">
        <ele>531.8</ele>
        <time>1970-01-01T01:19:30.000Z</time>
      </trkpt>
      <trkpt lat="42.803743" lon="-7.888535">
        <ele>531.9</ele>
        <time>1970-01-01T01:19:31.000Z</time>
      </trkpt>
      <trkpt lat="42.803722" lon="-7.888498">
        <ele>531.9</ele>
        <time>1970-01-01T01:19:32.000Z</time>
      </trkpt>
      <trkpt lat="42.803701" lon="-7.888463">
        <ele>531.9</ele>
        <time>1970-01-01T01:19:33.000Z</time>
      </trkpt>
      <trkpt lat="42.803679" lon="-7.888427">
        <ele>531.8</ele>
        <time>1970-01-01T01:19:34.000Z</time>
      </trkpt>
      <trkpt lat="42.803657" lon="-7.888392">
        <ele>531.8</ele>
        <time>1970-01-01T01:19:35.000Z</time>
      </trkpt>
      <trkpt lat="42.803637" lon="-7.888357">
        <ele>531.8</ele>
        <time>1970-01-01T01:19:36.000Z</time>
      </trkpt>
      <trkpt lat="42.803617" lon="-7.88832">
        <ele>531.7</ele>
        <time>1970-01-01T01:19:37.000Z</time>
      </trkpt>
      <trkpt lat="42.803596" lon="-7.888283">
        <ele>531.7</ele>
        <time>1970-01-01T01:19:38.000Z</time>
      </trkpt>
      <trkpt lat="42.803575" lon="-7.888245">
        <ele>531.6</ele>
        <time>1970-01-01T01:19:39.000Z</time>
      </trkpt>
      <trkpt lat="42.803556" lon="-7.888206">
        <ele>531.5</ele>
        <time>1970-01-01T01:19:40.000Z</time>
      </trkpt>
      <trkpt lat="42.803536" lon="-7.888168">
        <ele>531.5</ele>
        <time>1970-01-01T01:19:41.000Z</time>
      </trkpt>
      <trkpt lat="42.803521" lon="-7.88813">
        <ele>531.5</ele>
        <time>1970-01-01T01:19:42.000Z</time>
      </trkpt>
      <trkpt lat="42.803504" lon="-7.888098">
        <ele>531.5</ele>
        <time>1970-01-01T01:19:43.000Z</time>
      </trkpt>
      <trkpt lat="42.803487" lon="-7.888065">
        <ele>531.4</ele>
        <time>1970-01-01T01:19:44.000Z</time>
      </trkpt>
      <trkpt lat="42.803467" lon="-7.888027">
        <ele>531.4</ele>
        <time>1970-01-01T01:19:45.000Z</time>
      </trkpt>
      <trkpt lat="42.803442" lon="-7.887997">
        <ele>531.4</ele>
        <time>1970-01-01T01:19:46.000Z</time>
      </trkpt>
      <trkpt lat="42.803414" lon="-7.887971">
        <ele>531.4</ele>
        <time>1970-01-01T01:19:47.000Z</time>
      </trkpt>
      <trkpt lat="42.803387" lon="-7.887941">
        <ele>531.5</ele>
        <time>1970-01-01T01:19:48.000Z</time>
      </trkpt>
      <trkpt lat="42.803356" lon="-7.887918">
        <ele>531.6</ele>
        <time>1970-01-01T01:19:49.000Z</time>
      </trkpt>
      <trkpt lat="42.803328" lon="-7.887881">
        <ele>531.8</ele>
        <time>1970-01-01T01:19:50.000Z</time>
      </trkpt>
      <trkpt lat="42.803302" lon="-7.887834">
        <ele>531.9</ele>
        <time>1970-01-01T01:19:51.000Z</time>
      </trkpt>
      <trkpt lat="42.803282" lon="-7.887775">
        <ele>532</ele>
        <time>1970-01-01T01:19:52.000Z</time>
      </trkpt>
      <trkpt lat="42.803268" lon="-7.887705">
        <ele>532.2</ele>
        <time>1970-01-01T01:19:53.000Z</time>
      </trkpt>
      <trkpt lat="42.803262" lon="-7.887625">
        <ele>532.4</ele>
        <time>1970-01-01T01:19:54.000Z</time>
      </trkpt>
      <trkpt lat="42.803254" lon="-7.887543">
        <ele>532.5</ele>
        <time>1970-01-01T01:19:55.000Z</time>
      </trkpt>
      <trkpt lat="42.803247" lon="-7.887459">
        <ele>532.3</ele>
        <time>1970-01-01T01:19:56.000Z</time>
      </trkpt>
      <trkpt lat="42.803241" lon="-7.887375">
        <ele>532.1</ele>
        <time>1970-01-01T01:19:57.000Z</time>
      </trkpt>
      <trkpt lat="42.803229" lon="-7.887285">
        <ele>531.8</ele>
        <time>1970-01-01T01:19:58.000Z</time>
      </trkpt>
      <trkpt lat="42.803217" lon="-7.887198">
        <ele>531.5</ele>
        <time>1970-01-01T01:19:59.000Z</time>
      </trkpt>
      <trkpt lat="42.803202" lon="-7.887108">
        <ele>531.3</ele>
        <time>1970-01-01T01:20:00.000Z</time>
      </trkpt>
      <trkpt lat="42.803186" lon="-7.88702">
        <ele>531</ele>
        <time>1970-01-01T01:20:01.000Z</time>
      </trkpt>
      <trkpt lat="42.80317" lon="-7.886929">
        <ele>530.7</ele>
        <time>1970-01-01T01:20:02.000Z</time>
      </trkpt>
      <trkpt lat="42.803152" lon="-7.886831">
        <ele>530.4</ele>
        <time>1970-01-01T01:20:03.000Z</time>
      </trkpt>
      <trkpt lat="42.803134" lon="-7.886731">
        <ele>530.2</ele>
        <time>1970-01-01T01:20:04.000Z</time>
      </trkpt>
      <trkpt lat="42.803116" lon="-7.886634">
        <ele>529.9</ele>
        <time>1970-01-01T01:20:05.000Z</time>
      </trkpt>
      <trkpt lat="42.803099" lon="-7.886539">
        <ele>529.7</ele>
        <time>1970-01-01T01:20:06.000Z</time>
      </trkpt>
      <trkpt lat="42.803083" lon="-7.88645">
        <ele>529.5</ele>
        <time>1970-01-01T01:20:07.000Z</time>
      </trkpt>
      <trkpt lat="42.803064" lon="-7.886364">
        <ele>529.4</ele>
        <time>1970-01-01T01:20:08.000Z</time>
      </trkpt>
      <trkpt lat="42.803048" lon="-7.886277">
        <ele>529.3</ele>
        <time>1970-01-01T01:20:09.000Z</time>
      </trkpt>
      <trkpt lat="42.803034" lon="-7.886193">
        <ele>529.1</ele>
        <time>1970-01-01T01:20:10.000Z</time>
      </trkpt>
      <trkpt lat="42.803021" lon="-7.886113">
        <ele>529</ele>
        <time>1970-01-01T01:20:11.000Z</time>
      </trkpt>
      <trkpt lat="42.803017" lon="-7.886034">
        <ele>528.9</ele>
        <time>1970-01-01T01:20:12.000Z</time>
      </trkpt>
      <trkpt lat="42.803015" lon="-7.885955">
        <ele>528.7</ele>
        <time>1970-01-01T01:20:13.000Z</time>
      </trkpt>
      <trkpt lat="42.803014" lon="-7.885877">
        <ele>528.6</ele>
        <time>1970-01-01T01:20:14.000Z</time>
      </trkpt>
      <trkpt lat="42.803013" lon="-7.8858">
        <ele>528.5</ele>
        <time>1970-01-01T01:20:15.000Z</time>
      </trkpt>
      <trkpt lat="42.803012" lon="-7.885722">
        <ele>528.3</ele>
        <time>1970-01-01T01:20:16.000Z</time>
      </trkpt>
      <trkpt lat="42.803012" lon="-7.885654">
        <ele>528.2</ele>
        <time>1970-01-01T01:20:17.000Z</time>
      </trkpt>
      <trkpt lat="42.803011" lon="-7.885601">
        <ele>528.1</ele>
        <time>1970-01-01T01:20:18.000Z</time>
      </trkpt>
      <trkpt lat="42.803008" lon="-7.885561">
        <ele>528</ele>
        <time>1970-01-01T01:20:19.000Z</time>
      </trkpt>
      <trkpt lat="42.803005" lon="-7.885526">
        <ele>528</ele>
        <time>1970-01-01T01:20:20.000Z</time>
      </trkpt>
      <trkpt lat="42.802998" lon="-7.885499">
        <ele>527.9</ele>
        <time>1970-01-01T01:20:21.000Z</time>
      </trkpt>
      <trkpt lat="42.802985" lon="-7.885475">
        <ele>527.8</ele>
        <time>1970-01-01T01:20:22.000Z</time>
      </trkpt>
      <trkpt lat="42.802975" lon="-7.885451">
        <ele>527.8</ele>
        <time>1970-01-01T01:20:23.000Z</time>
      </trkpt>
      <trkpt lat="42.802974" lon="-7.885434">
        <ele>527.8</ele>
        <time>1970-01-01T01:20:24.000Z</time>
      </trkpt>
      <trkpt lat="42.802975" lon="-7.885422">
        <ele>527.8</ele>
        <time>1970-01-01T01:20:25.000Z</time>
      </trkpt>
      <trkpt lat="42.802976" lon="-7.885414">
        <ele>527.8</ele>
        <time>1970-01-01T01:20:26.000Z</time>
      </trkpt>
      <trkpt lat="42.802975" lon="-7.885409">
        <ele>527.8</ele>
        <time>1970-01-01T01:20:27.000Z</time>
      </trkpt>
      <trkpt lat="42.802975" lon="-7.885407">
        <ele>527.8</ele>
        <time>1970-01-01T01:20:28.000Z</time>
      </trkpt>
      <trkpt lat="42.802974" lon="-7.885403">
        <ele>527.8</ele>
        <time>1970-01-01T01:20:29.000Z</time>
      </trkpt>
      <trkpt lat="42.802973" lon="-7.885399">
        <ele>527.7</ele>
        <time>1970-01-01T01:20:30.000Z</time>
      </trkpt>
      <trkpt lat="42.802972" lon="-7.885397">
        <ele>527.7</ele>
        <time>1970-01-01T01:20:31.000Z</time>
      </trkpt>
      <trkpt lat="42.802972" lon="-7.885394">
        <ele>527.7</ele>
        <time>1970-01-01T01:20:32.000Z</time>
      </trkpt>
      <trkpt lat="42.802971" lon="-7.885391">
        <ele>527.7</ele>
        <time>1970-01-01T01:20:33.000Z</time>
      </trkpt>
      <trkpt lat="42.802971" lon="-7.885386">
        <ele>527.7</ele>
        <time>1970-01-01T01:20:34.000Z</time>
      </trkpt>
      <trkpt lat="42.802971" lon="-7.885383">
        <ele>527.7</ele>
        <time>1970-01-01T01:20:35.000Z</time>
      </trkpt>
      <trkpt lat="42.803151" lon="-7.885219">
        <ele>527.5</ele>
        <time>1970-01-01T01:48:59.000Z</time>
      </trkpt>
      <trkpt lat="42.803178" lon="-7.885209">
        <ele>527.5</ele>
        <time>1970-01-01T01:49:00.000Z</time>
      </trkpt>
      <trkpt lat="42.803206" lon="-7.8852">
        <ele>527.6</ele>
        <time>1970-01-01T01:49:01.000Z</time>
      </trkpt>
      <trkpt lat="42.803236" lon="-7.88519">
        <ele>527.6</ele>
        <time>1970-01-01T01:49:02.000Z</time>
      </trkpt>
      <trkpt lat="42.803269" lon="-7.885181">
        <ele>527.7</ele>
        <time>1970-01-01T01:49:03.000Z</time>
      </trkpt>
      <trkpt lat="42.803305" lon="-7.88517">
        <ele>527.8</ele>
        <time>1970-01-01T01:49:04.000Z</time>
      </trkpt>
      <trkpt lat="42.803341" lon="-7.885159">
        <ele>527.9</ele>
        <time>1970-01-01T01:49:05.000Z</time>
      </trkpt>
      <trkpt lat="42.803376" lon="-7.885147">
        <ele>528</ele>
        <time>1970-01-01T01:49:06.000Z</time>
      </trkpt>
      <trkpt lat="42.803407" lon="-7.88513">
        <ele>528</ele>
        <time>1970-01-01T01:49:07.000Z</time>
      </trkpt>
      <trkpt lat="42.80343" lon="-7.885103">
        <ele>528</ele>
        <time>1970-01-01T01:49:08.000Z</time>
      </trkpt>
      <trkpt lat="42.803443" lon="-7.885068">
        <ele>528.1</ele>
        <time>1970-01-01T01:49:09.000Z</time>
      </trkpt>
      <trkpt lat="42.803454" lon="-7.885028">
        <ele>528.1</ele>
        <time>1970-01-01T01:49:10.000Z</time>
      </trkpt>
      <trkpt lat="42.803469" lon="-7.884989">
        <ele>528.3</ele>
        <time>1970-01-01T01:49:11.000Z</time>
      </trkpt>
      <trkpt lat="42.803485" lon="-7.884958">
        <ele>528.2</ele>
        <time>1970-01-01T01:49:12.000Z</time>
      </trkpt>
      <trkpt lat="42.803505" lon="-7.88493">
        <ele>528.4</ele>
        <time>1970-01-01T01:49:13.000Z</time>
      </trkpt>
      <trkpt lat="42.803525" lon="-7.8849">
        <ele>528.6</ele>
        <time>1970-01-01T01:49:14.000Z</time>
      </trkpt>
      <trkpt lat="42.803542" lon="-7.88488">
        <ele>528.6</ele>
        <time>1970-01-01T01:49:15.000Z</time>
      </trkpt>
      <trkpt lat="42.803562" lon="-7.884856">
        <ele>528.8</ele>
        <time>1970-01-01T01:49:16.000Z</time>
      </trkpt>
      <trkpt lat="42.803588" lon="-7.884832">
        <ele>529</ele>
        <time>1970-01-01T01:49:17.000Z</time>
      </trkpt>
      <trkpt lat="42.803606" lon="-7.884817">
        <ele>529</ele>
        <time>1970-01-01T01:49:18.000Z</time>
      </trkpt>
      <trkpt lat="42.803615" lon="-7.884801">
        <ele>529</ele>
        <time>1970-01-01T01:49:19.000Z</time>
      </trkpt>
      <trkpt lat="42.803648" lon="-7.884778">
        <ele>529.1</ele>
        <time>1970-01-01T01:49:20.000Z</time>
      </trkpt>
      <trkpt lat="42.803667" lon="-7.884765">
        <ele>529.4</ele>
        <time>1970-01-01T01:49:21.000Z</time>
      </trkpt>
      <trkpt lat="42.803693" lon="-7.884748">
        <ele>529.5</ele>
        <time>1970-01-01T01:49:22.000Z</time>
      </trkpt>
      <trkpt lat="42.803714" lon="-7.884735">
        <ele>529.8</ele>
        <time>1970-01-01T01:49:23.000Z</time>
      </trkpt>
      <trkpt lat="42.803745" lon="-7.884713">
        <ele>529.8</ele>
        <time>1970-01-01T01:49:24.000Z</time>
      </trkpt>
      <trkpt lat="42.803785" lon="-7.884678">
        <ele>530.1</ele>
        <time>1970-01-01T01:49:25.000Z</time>
      </trkpt>
      <trkpt lat="42.803795" lon="-7.884644">
        <ele>530</ele>
        <time>1970-01-01T01:49:26.000Z</time>
      </trkpt>
      <trkpt lat="42.803816" lon="-7.884595">
        <ele>530.1</ele>
        <time>1970-01-01T01:49:27.000Z</time>
      </trkpt>
      <trkpt lat="42.803841" lon="-7.884551">
        <ele>530.2</ele>
        <time>1970-01-01T01:49:28.000Z</time>
      </trkpt>
      <trkpt lat="42.803872" lon="-7.884502">
        <ele>530.2</ele>
        <time>1970-01-01T01:49:29.000Z</time>
      </trkpt>
      <trkpt lat="42.803922" lon="-7.884456">
        <ele>530.2</ele>
        <time>1970-01-01T01:49:30.000Z</time>
      </trkpt>
      <trkpt lat="42.803984" lon="-7.884408">
        <ele>530.4</ele>
        <time>1970-01-01T01:49:31.000Z</time>
      </trkpt>
      <trkpt lat="42.804044" lon="-7.884359">
        <ele>530.4</ele>
        <time>1970-01-01T01:49:32.000Z</time>
      </trkpt>
      <trkpt lat="42.804106" lon="-7.884305">
        <ele>530.5</ele>
        <time>1970-01-01T01:49:33.000Z</time>
      </trkpt>
      <trkpt lat="42.804155" lon="-7.88425">
        <ele>530.7</ele>
        <time>1970-01-01T01:49:34.000Z</time>
      </trkpt>
      <trkpt lat="42.804206" lon="-7.884197">
        <ele>530.7</ele>
        <time>1970-01-01T01:49:35.000Z</time>
      </trkpt>
      <trkpt lat="42.804245" lon="-7.884164">
        <ele>530.8</ele>
        <time>1970-01-01T01:49:36.000Z</time>
      </trkpt>
      <trkpt lat="42.804308" lon="-7.884128">
        <ele>530.9</ele>
        <time>1970-01-01T01:49:37.000Z</time>
      </trkpt>
      <trkpt lat="42.804381" lon="-7.884093">
        <ele>531</ele>
        <time>1970-01-01T01:49:38.000Z</time>
      </trkpt>
      <trkpt lat="42.804437" lon="-7.884083">
        <ele>531</ele>
        <time>1970-01-01T01:49:39.000Z</time>
      </trkpt>
      <trkpt lat="42.804484" lon="-7.884076">
        <ele>531.1</ele>
        <time>1970-01-01T01:49:40.000Z</time>
      </trkpt>
      <trkpt lat="42.804521" lon="-7.884066">
        <ele>531.2</ele>
        <time>1970-01-01T01:49:41.000Z</time>
      </trkpt>
      <trkpt lat="42.804559" lon="-7.884058">
        <ele>531.1</ele>
        <time>1970-01-01T01:49:42.000Z</time>
      </trkpt>
      <trkpt lat="42.804595" lon="-7.884057">
        <ele>531.1</ele>
        <time>1970-01-01T01:49:43.000Z</time>
      </trkpt>
      <trkpt lat="42.804618" lon="-7.884052">
        <ele>531.1</ele>
        <time>1970-01-01T01:49:44.000Z</time>
      </trkpt>
      <trkpt lat="42.804654" lon="-7.884042">
        <ele>531</ele>
        <time>1970-01-01T01:49:45.000Z</time>
      </trkpt>
      <trkpt lat="42.804681" lon="-7.884036">
        <ele>531</ele>
        <time>1970-01-01T01:49:46.000Z</time>
      </trkpt>
      <trkpt lat="42.804707" lon="-7.884029">
        <ele>531.1</ele>
        <time>1970-01-01T01:49:47.000Z</time>
      </trkpt>
      <trkpt lat="42.804728" lon="-7.884018">
        <ele>530.9</ele>
        <time>1970-01-01T01:49:48.000Z</time>
      </trkpt>
      <trkpt lat="42.804752" lon="-7.884005">
        <ele>530.9</ele>
        <time>1970-01-01T01:49:49.000Z</time>
      </trkpt>
      <trkpt lat="42.804777" lon="-7.883993">
        <ele>531</ele>
        <time>1970-01-01T01:49:50.000Z</time>
      </trkpt>
      <trkpt lat="42.80481" lon="-7.883975">
        <ele>530.8</ele>
        <time>1970-01-01T01:49:51.000Z</time>
      </trkpt>
      <trkpt lat="42.804842" lon="-7.883955">
        <ele>530.8</ele>
        <time>1970-01-01T01:49:52.000Z</time>
      </trkpt>
      <trkpt lat="42.804871" lon="-7.883942">
        <ele>530.8</ele>
        <time>1970-01-01T01:49:53.000Z</time>
      </trkpt>
      <trkpt lat="42.804903" lon="-7.88393">
        <ele>530.7</ele>
        <time>1970-01-01T01:49:54.000Z</time>
      </trkpt>
      <trkpt lat="42.804934" lon="-7.883915">
        <ele>530.8</ele>
        <time>1970-01-01T01:49:55.000Z</time>
      </trkpt>
      <trkpt lat="42.804958" lon="-7.883904">
        <ele>530.9</ele>
        <time>1970-01-01T01:49:56.000Z</time>
      </trkpt>
      <trkpt lat="42.804976" lon="-7.883889">
        <ele>530.8</ele>
        <time>1970-01-01T01:49:57.000Z</time>
      </trkpt>
      <trkpt lat="42.804997" lon="-7.883881">
        <ele>530.8</ele>
        <time>1970-01-01T01:49:58.000Z</time>
      </trkpt>
      <trkpt lat="42.805024" lon="-7.88387">
        <ele>531</ele>
        <time>1970-01-01T01:49:59.000Z</time>
      </trkpt>
      <trkpt lat="42.805063" lon="-7.883855">
        <ele>531.1</ele>
        <time>1970-01-01T01:50:00.000Z</time>
      </trkpt>
      <trkpt lat="42.805084" lon="-7.883846">
        <ele>531.2</ele>
        <time>1970-01-01T01:50:01.000Z</time>
      </trkpt>
      <trkpt lat="42.805107" lon="-7.883841">
        <ele>531.3</ele>
        <time>1970-01-01T01:50:02.000Z</time>
      </trkpt>
      <trkpt lat="42.805127" lon="-7.883832">
        <ele>531.3</ele>
        <time>1970-01-01T01:50:03.000Z</time>
      </trkpt>
      <trkpt lat="42.805147" lon="-7.883821">
        <ele>531.5</ele>
        <time>1970-01-01T01:50:04.000Z</time>
      </trkpt>
      <trkpt lat="42.805168" lon="-7.883816">
        <ele>531.6</ele>
        <time>1970-01-01T01:50:05.000Z</time>
      </trkpt>
      <trkpt lat="42.805192" lon="-7.883803">
        <ele>531.6</ele>
        <time>1970-01-01T01:50:06.000Z</time>
      </trkpt>
      <trkpt lat="42.805218" lon="-7.883788">
        <ele>531.7</ele>
        <time>1970-01-01T01:50:07.000Z</time>
      </trkpt>
      <trkpt lat="42.805243" lon="-7.883775">
        <ele>531.9</ele>
        <time>1970-01-01T01:50:08.000Z</time>
      </trkpt>
      <trkpt lat="42.805261" lon="-7.883761">
        <ele>532</ele>
        <time>1970-01-01T01:50:09.000Z</time>
      </trkpt>
      <trkpt lat="42.805279" lon="-7.883742">
        <ele>532</ele>
        <time>1970-01-01T01:50:10.000Z</time>
      </trkpt>
      <trkpt lat="42.805288" lon="-7.883734">
        <ele>532.1</ele>
        <time>1970-01-01T01:50:11.000Z</time>
      </trkpt>
      <trkpt lat="42.805301" lon="-7.883725">
        <ele>532.1</ele>
        <time>1970-01-01T01:50:12.000Z</time>
      </trkpt>
      <trkpt lat="42.805325" lon="-7.883711">
        <ele>532.2</ele>
        <time>1970-01-01T01:50:13.000Z</time>
      </trkpt>
      <trkpt lat="42.805343" lon="-7.883704">
        <ele>532.2</ele>
        <time>1970-01-01T01:50:14.000Z</time>
      </trkpt>
      <trkpt lat="42.805371" lon="-7.883687">
        <ele>532.3</ele>
        <time>1970-01-01T01:50:15.000Z</time>
      </trkpt>
      <trkpt lat="42.805395" lon="-7.883664">
        <ele>532.3</ele>
        <time>1970-01-01T01:50:16.000Z</time>
      </trkpt>
      <trkpt lat="42.805411" lon="-7.883645">
        <ele>532.3</ele>
        <time>1970-01-01T01:50:17.000Z</time>
      </trkpt>
      <trkpt lat="42.805439" lon="-7.883628">
        <ele>532.4</ele>
        <time>1970-01-01T01:50:18.000Z</time>
      </trkpt>
      <trkpt lat="42.805471" lon="-7.883606">
        <ele>532.5</ele>
        <time>1970-01-01T01:50:19.000Z</time>
      </trkpt>
      <trkpt lat="42.805495" lon="-7.883584">
        <ele>532.5</ele>
        <time>1970-01-01T01:50:20.000Z</time>
      </trkpt>
      <trkpt lat="42.805522" lon="-7.883563">
        <ele>532.7</ele>
        <time>1970-01-01T01:50:21.000Z</time>
      </trkpt>
      <trkpt lat="42.805548" lon="-7.88354">
        <ele>532.7</ele>
        <time>1970-01-01T01:50:22.000Z</time>
      </trkpt>
      <trkpt lat="42.805571" lon="-7.883515">
        <ele>532.7</ele>
        <time>1970-01-01T01:50:23.000Z</time>
      </trkpt>
      <trkpt lat="42.80559" lon="-7.883495">
        <ele>532.7</ele>
        <time>1970-01-01T01:50:24.000Z</time>
      </trkpt>
      <trkpt lat="42.80561" lon="-7.88347">
        <ele>532.8</ele>
        <time>1970-01-01T01:50:25.000Z</time>
      </trkpt>
      <trkpt lat="42.80563" lon="-7.883449">
        <ele>532.6</ele>
        <time>1970-01-01T01:50:26.000Z</time>
      </trkpt>
      <trkpt lat="42.805653" lon="-7.883424">
        <ele>532.7</ele>
        <time>1970-01-01T01:50:27.000Z</time>
      </trkpt>
      <trkpt lat="42.805679" lon="-7.883402">
        <ele>532.6</ele>
        <time>1970-01-01T01:50:28.000Z</time>
      </trkpt>
      <trkpt lat="42.805699" lon="-7.883384">
        <ele>532.7</ele>
        <time>1970-01-01T01:50:29.000Z</time>
      </trkpt>
      <trkpt lat="42.80572" lon="-7.883366">
        <ele>532.5</ele>
        <time>1970-01-01T01:50:30.000Z</time>
      </trkpt>
      <trkpt lat="42.805743" lon="-7.883341">
        <ele>532.6</ele>
        <time>1970-01-01T01:50:31.000Z</time>
      </trkpt>
      <trkpt lat="42.805766" lon="-7.883312">
        <ele>532.4</ele>
        <time>1970-01-01T01:50:32.000Z</time>
      </trkpt>
      <trkpt lat="42.805789" lon="-7.883288">
        <ele>532.3</ele>
        <time>1970-01-01T01:50:33.000Z</time>
      </trkpt>
      <trkpt lat="42.805809" lon="-7.883268">
        <ele>532.3</ele>
        <time>1970-01-01T01:50:34.000Z</time>
      </trkpt>
      <trkpt lat="42.805824" lon="-7.883243">
        <ele>532.1</ele>
        <time>1970-01-01T01:50:35.000Z</time>
      </trkpt>
      <trkpt lat="42.805836" lon="-7.883211">
        <ele>532.1</ele>
        <time>1970-01-01T01:50:36.000Z</time>
      </trkpt>
      <trkpt lat="42.805858" lon="-7.883173">
        <ele>531.8</ele>
        <time>1970-01-01T01:50:37.000Z</time>
      </trkpt>
      <trkpt lat="42.805872" lon="-7.883135">
        <ele>531.6</ele>
        <time>1970-01-01T01:50:38.000Z</time>
      </trkpt>
      <trkpt lat="42.805879" lon="-7.883111">
        <ele>531.4</ele>
        <time>1970-01-01T01:50:39.000Z</time>
      </trkpt>
      <trkpt lat="42.805892" lon="-7.883076">
        <ele>531.1</ele>
        <time>1970-01-01T01:50:40.000Z</time>
      </trkpt>
      <trkpt lat="42.805914" lon="-7.883035">
        <ele>531.1</ele>
        <time>1970-01-01T01:50:41.000Z</time>
      </trkpt>
      <trkpt lat="42.805926" lon="-7.882996">
        <ele>530.7</ele>
        <time>1970-01-01T01:50:42.000Z</time>
      </trkpt>
      <trkpt lat="42.805941" lon="-7.882953">
        <ele>530.5</ele>
        <time>1970-01-01T01:50:43.000Z</time>
      </trkpt>
      <trkpt lat="42.805955" lon="-7.882907">
        <ele>530.1</ele>
        <time>1970-01-01T01:50:44.000Z</time>
      </trkpt>
      <trkpt lat="42.805969" lon="-7.882858">
        <ele>529.6</ele>
        <time>1970-01-01T01:50:45.000Z</time>
      </trkpt>
      <trkpt lat="42.805977" lon="-7.882806">
        <ele>529.3</ele>
        <time>1970-01-01T01:50:46.000Z</time>
      </trkpt>
      <trkpt lat="42.805978" lon="-7.882761">
        <ele>529</ele>
        <time>1970-01-01T01:50:47.000Z</time>
      </trkpt>
      <trkpt lat="42.805977" lon="-7.882728">
        <ele>528.8</ele>
        <time>1970-01-01T01:50:48.000Z</time>
      </trkpt>
      <trkpt lat="42.805975" lon="-7.882692">
        <ele>528.8</ele>
        <time>1970-01-01T01:50:49.000Z</time>
      </trkpt>
      <trkpt lat="42.805972" lon="-7.882648">
        <ele>528.6</ele>
        <time>1970-01-01T01:50:50.000Z</time>
      </trkpt>
      <trkpt lat="42.805973" lon="-7.882601">
        <ele>528.1</ele>
        <time>1970-01-01T01:50:51.000Z</time>
      </trkpt>
      <trkpt lat="42.805978" lon="-7.882551">
        <ele>527.8</ele>
        <time>1970-01-01T01:50:52.000Z</time>
      </trkpt>
      <trkpt lat="42.805979" lon="-7.882486">
        <ele>527.6</ele>
        <time>1970-01-01T01:50:53.000Z</time>
      </trkpt>
      <trkpt lat="42.805984" lon="-7.882417">
        <ele>527</ele>
        <time>1970-01-01T01:50:54.000Z</time>
      </trkpt>
      <trkpt lat="42.805993" lon="-7.882354">
        <ele>526.8</ele>
        <time>1970-01-01T01:50:55.000Z</time>
      </trkpt>
      <trkpt lat="42.805998" lon="-7.882296">
        <ele>526.4</ele>
        <time>1970-01-01T01:50:56.000Z</time>
      </trkpt>
      <trkpt lat="42.806013" lon="-7.882238">
        <ele>526.1</ele>
        <time>1970-01-01T01:50:57.000Z</time>
      </trkpt>
      <trkpt lat="42.806029" lon="-7.882178">
        <ele>525.9</ele>
        <time>1970-01-01T01:50:58.000Z</time>
      </trkpt>
      <trkpt lat="42.806044" lon="-7.882112">
        <ele>525.3</ele>
        <time>1970-01-01T01:50:59.000Z</time>
      </trkpt>
      <trkpt lat="42.806063" lon="-7.882044">
        <ele>524.9</ele>
        <time>1970-01-01T01:51:00.000Z</time>
      </trkpt>
      <trkpt lat="42.806082" lon="-7.881987">
        <ele>524.6</ele>
        <time>1970-01-01T01:51:01.000Z</time>
      </trkpt>
      <trkpt lat="42.806104" lon="-7.881932">
        <ele>524.4</ele>
        <time>1970-01-01T01:51:02.000Z</time>
      </trkpt>
      <trkpt lat="42.806126" lon="-7.881877">
        <ele>524.1</ele>
        <time>1970-01-01T01:51:03.000Z</time>
      </trkpt>
      <trkpt lat="42.806147" lon="-7.88182">
        <ele>523.5</ele>
        <time>1970-01-01T01:51:04.000Z</time>
      </trkpt>
      <trkpt lat="42.806169" lon="-7.881758">
        <ele>523.3</ele>
        <time>1970-01-01T01:51:05.000Z</time>
      </trkpt>
      <trkpt lat="42.806182" lon="-7.881699">
        <ele>522.5</ele>
        <time>1970-01-01T01:51:06.000Z</time>
      </trkpt>
      <trkpt lat="42.806208" lon="-7.881632">
        <ele>522.1</ele>
        <time>1970-01-01T01:51:07.000Z</time>
      </trkpt>
      <trkpt lat="42.806228" lon="-7.881575">
        <ele>521.7</ele>
        <time>1970-01-01T01:51:08.000Z</time>
      </trkpt>
      <trkpt lat="42.806244" lon="-7.881518">
        <ele>521</ele>
        <time>1970-01-01T01:51:09.000Z</time>
      </trkpt>
      <trkpt lat="42.806258" lon="-7.881467">
        <ele>520.7</ele>
        <time>1970-01-01T01:51:10.000Z</time>
      </trkpt>
      <trkpt lat="42.806274" lon="-7.881416">
        <ele>520.3</ele>
        <time>1970-01-01T01:51:11.000Z</time>
      </trkpt>
      <trkpt lat="42.806285" lon="-7.88136">
        <ele>519.7</ele>
        <time>1970-01-01T01:51:12.000Z</time>
      </trkpt>
      <trkpt lat="42.806294" lon="-7.881299">
        <ele>519.4</ele>
        <time>1970-01-01T01:51:13.000Z</time>
      </trkpt>
      <trkpt lat="42.8063" lon="-7.881238">
        <ele>519</ele>
        <time>1970-01-01T01:51:14.000Z</time>
      </trkpt>
      <trkpt lat="42.806305" lon="-7.88118">
        <ele>518.4</ele>
        <time>1970-01-01T01:51:15.000Z</time>
      </trkpt>
      <trkpt lat="42.806305" lon="-7.881116">
        <ele>518.1</ele>
        <time>1970-01-01T01:51:16.000Z</time>
      </trkpt>
      <trkpt lat="42.806292" lon="-7.881051">
        <ele>517.7</ele>
        <time>1970-01-01T01:51:17.000Z</time>
      </trkpt>
      <trkpt lat="42.806271" lon="-7.880994">
        <ele>517.6</ele>
        <time>1970-01-01T01:51:18.000Z</time>
      </trkpt>
      <trkpt lat="42.806244" lon="-7.880942">
        <ele>517.5</ele>
        <time>1970-01-01T01:51:19.000Z</time>
      </trkpt>
      <trkpt lat="42.806223" lon="-7.880893">
        <ele>517.4</ele>
        <time>1970-01-01T01:51:20.000Z</time>
      </trkpt>
      <trkpt lat="42.806194" lon="-7.880852">
        <ele>517.3</ele>
        <time>1970-01-01T01:51:21.000Z</time>
      </trkpt>
      <trkpt lat="42.806161" lon="-7.880839">
        <ele>517.2</ele>
        <time>1970-01-01T01:51:22.000Z</time>
      </trkpt>
      <trkpt lat="42.806129" lon="-7.88082">
        <ele>517.2</ele>
        <time>1970-01-01T01:51:23.000Z</time>
      </trkpt>
      <trkpt lat="42.806098" lon="-7.880804">
        <ele>517.3</ele>
        <time>1970-01-01T01:51:24.000Z</time>
      </trkpt>
      <trkpt lat="42.806062" lon="-7.880783">
        <ele>517.2</ele>
        <time>1970-01-01T01:51:25.000Z</time>
      </trkpt>
      <trkpt lat="42.806028" lon="-7.880772">
        <ele>517.3</ele>
        <time>1970-01-01T01:51:26.000Z</time>
      </trkpt>
      <trkpt lat="42.805996" lon="-7.880755">
        <ele>517.2</ele>
        <time>1970-01-01T01:51:27.000Z</time>
      </trkpt>
      <trkpt lat="42.805968" lon="-7.880741">
        <ele>517.3</ele>
        <time>1970-01-01T01:51:28.000Z</time>
      </trkpt>
      <trkpt lat="42.805949" lon="-7.88071">
        <ele>517.2</ele>
        <time>1970-01-01T01:51:29.000Z</time>
      </trkpt>
      <trkpt lat="42.805929" lon="-7.880679">
        <ele>517.2</ele>
        <time>1970-01-01T01:51:30.000Z</time>
      </trkpt>
      <trkpt lat="42.805917" lon="-7.880635">
        <ele>517.2</ele>
        <time>1970-01-01T01:51:31.000Z</time>
      </trkpt>
      <trkpt lat="42.805908" lon="-7.880596">
        <ele>517</ele>
        <time>1970-01-01T01:51:32.000Z</time>
      </trkpt>
      <trkpt lat="42.8059" lon="-7.880555">
        <ele>516.8</ele>
        <time>1970-01-01T01:51:33.000Z</time>
      </trkpt>
      <trkpt lat="42.805895" lon="-7.880499">
        <ele>516.5</ele>
        <time>1970-01-01T01:51:34.000Z</time>
      </trkpt>
      <trkpt lat="42.805893" lon="-7.88044">
        <ele>516.3</ele>
        <time>1970-01-01T01:51:35.000Z</time>
      </trkpt>
      <trkpt lat="42.805889" lon="-7.880366">
        <ele>516</ele>
        <time>1970-01-01T01:51:36.000Z</time>
      </trkpt>
      <trkpt lat="42.805891" lon="-7.88032">
        <ele>515.8</ele>
        <time>1970-01-01T01:51:37.000Z</time>
      </trkpt>
      <trkpt lat="42.805889" lon="-7.880266">
        <ele>515.6</ele>
        <time>1970-01-01T01:51:38.000Z</time>
      </trkpt>
      <trkpt lat="42.805889" lon="-7.880223">
        <ele>515.4</ele>
        <time>1970-01-01T01:51:39.000Z</time>
      </trkpt>
      <trkpt lat="42.80588" lon="-7.880193">
        <ele>515.3</ele>
        <time>1970-01-01T01:51:40.000Z</time>
      </trkpt>
      <trkpt lat="42.805864" lon="-7.880145">
        <ele>515.1</ele>
        <time>1970-01-01T01:51:41.000Z</time>
      </trkpt>
      <trkpt lat="42.805856" lon="-7.880103">
        <ele>514.9</ele>
        <time>1970-01-01T01:51:42.000Z</time>
      </trkpt>
      <trkpt lat="42.805844" lon="-7.880075">
        <ele>515</ele>
        <time>1970-01-01T01:51:43.000Z</time>
      </trkpt>
      <trkpt lat="42.805826" lon="-7.880041">
        <ele>514.8</ele>
        <time>1970-01-01T01:51:44.000Z</time>
      </trkpt>
      <trkpt lat="42.805813" lon="-7.88002">
        <ele>514.6</ele>
        <time>1970-01-01T01:51:45.000Z</time>
      </trkpt>
      <trkpt lat="42.805799" lon="-7.879986">
        <ele>514.3</ele>
        <time>1970-01-01T01:51:46.000Z</time>
      </trkpt>
      <trkpt lat="42.805785" lon="-7.879971">
        <ele>514.4</ele>
        <time>1970-01-01T01:51:47.000Z</time>
      </trkpt>
      <trkpt lat="42.805767" lon="-7.879935">
        <ele>514.1</ele>
        <time>1970-01-01T01:51:48.000Z</time>
      </trkpt>
      <trkpt lat="42.805746" lon="-7.879906">
        <ele>514.2</ele>
        <time>1970-01-01T01:51:49.000Z</time>
      </trkpt>
      <trkpt lat="42.805729" lon="-7.879886">
        <ele>513.9</ele>
        <time>1970-01-01T01:51:50.000Z</time>
      </trkpt>
      <trkpt lat="42.805715" lon="-7.879863">
        <ele>514</ele>
        <time>1970-01-01T01:51:51.000Z</time>
      </trkpt>
      <trkpt lat="42.805687" lon="-7.879817">
        <ele>513.8</ele>
        <time>1970-01-01T01:51:52.000Z</time>
      </trkpt>
      <trkpt lat="42.805663" lon="-7.879782">
        <ele>513.6</ele>
        <time>1970-01-01T01:51:53.000Z</time>
      </trkpt>
      <trkpt lat="42.805636" lon="-7.87974">
        <ele>513.4</ele>
        <time>1970-01-01T01:51:54.000Z</time>
      </trkpt>
      <trkpt lat="42.805607" lon="-7.879702">
        <ele>513.2</ele>
        <time>1970-01-01T01:51:55.000Z</time>
      </trkpt>
      <trkpt lat="42.805577" lon="-7.879658">
        <ele>513.1</ele>
        <time>1970-01-01T01:51:56.000Z</time>
      </trkpt>
      <trkpt lat="42.80555" lon="-7.879619">
        <ele>513</ele>
        <time>1970-01-01T01:51:57.000Z</time>
      </trkpt>
      <trkpt lat="42.805518" lon="-7.879593">
        <ele>512.8</ele>
        <time>1970-01-01T01:51:58.000Z</time>
      </trkpt>
      <trkpt lat="42.805494" lon="-7.879572">
        <ele>512.9</ele>
        <time>1970-01-01T01:51:59.000Z</time>
      </trkpt>
      <trkpt lat="42.805486" lon="-7.879537">
        <ele>512.7</ele>
        <time>1970-01-01T01:52:00.000Z</time>
      </trkpt>
      <trkpt lat="42.805472" lon="-7.879477">
        <ele>512.5</ele>
        <time>1970-01-01T01:52:01.000Z</time>
      </trkpt>
      <trkpt lat="42.805461" lon="-7.879435">
        <ele>512.2</ele>
        <time>1970-01-01T01:52:02.000Z</time>
      </trkpt>
      <trkpt lat="42.80545" lon="-7.879385">
        <ele>511.6</ele>
        <time>1970-01-01T01:52:03.000Z</time>
      </trkpt>
      <trkpt lat="42.805438" lon="-7.879348">
        <ele>511.7</ele>
        <time>1970-01-01T01:52:04.000Z</time>
      </trkpt>
      <trkpt lat="42.805417" lon="-7.879313">
        <ele>511.4</ele>
        <time>1970-01-01T01:52:05.000Z</time>
      </trkpt>
      <trkpt lat="42.80539" lon="-7.879289">
        <ele>511.2</ele>
        <time>1970-01-01T01:52:06.000Z</time>
      </trkpt>
      <trkpt lat="42.805361" lon="-7.879265">
        <ele>511.2</ele>
        <time>1970-01-01T01:52:07.000Z</time>
      </trkpt>
      <trkpt lat="42.805332" lon="-7.879238">
        <ele>511</ele>
        <time>1970-01-01T01:52:08.000Z</time>
      </trkpt>
      <trkpt lat="42.805312" lon="-7.879215">
        <ele>511.1</ele>
        <time>1970-01-01T01:52:09.000Z</time>
      </trkpt>
      <trkpt lat="42.805289" lon="-7.87919">
        <ele>510.8</ele>
        <time>1970-01-01T01:52:10.000Z</time>
      </trkpt>
      <trkpt lat="42.805268" lon="-7.879145">
        <ele>510.6</ele>
        <time>1970-01-01T01:52:11.000Z</time>
      </trkpt>
      <trkpt lat="42.805251" lon="-7.879116">
        <ele>510.4</ele>
        <time>1970-01-01T01:52:12.000Z</time>
      </trkpt>
      <trkpt lat="42.805238" lon="-7.879084">
        <ele>510.2</ele>
        <time>1970-01-01T01:52:13.000Z</time>
      </trkpt>
      <trkpt lat="42.805214" lon="-7.879053">
        <ele>510.2</ele>
        <time>1970-01-01T01:52:14.000Z</time>
      </trkpt>
      <trkpt lat="42.805192" lon="-7.879018">
        <ele>510</ele>
        <time>1970-01-01T01:52:15.000Z</time>
      </trkpt>
      <trkpt lat="42.805171" lon="-7.878988">
        <ele>509.8</ele>
        <time>1970-01-01T01:52:16.000Z</time>
      </trkpt>
      <trkpt lat="42.805155" lon="-7.878946">
        <ele>509.7</ele>
        <time>1970-01-01T01:52:17.000Z</time>
      </trkpt>
      <trkpt lat="42.805135" lon="-7.878908">
        <ele>509.5</ele>
        <time>1970-01-01T01:52:18.000Z</time>
      </trkpt>
      <trkpt lat="42.805119" lon="-7.87887">
        <ele>509.4</ele>
        <time>1970-01-01T01:52:19.000Z</time>
      </trkpt>
      <trkpt lat="42.805102" lon="-7.878842">
        <ele>509.4</ele>
        <time>1970-01-01T01:52:20.000Z</time>
      </trkpt>
      <trkpt lat="42.805087" lon="-7.878807">
        <ele>509.3</ele>
        <time>1970-01-01T01:52:21.000Z</time>
      </trkpt>
      <trkpt lat="42.805078" lon="-7.878764">
        <ele>509.2</ele>
        <time>1970-01-01T01:52:22.000Z</time>
      </trkpt>
      <trkpt lat="42.805071" lon="-7.878714">
        <ele>509.2</ele>
        <time>1970-01-01T01:52:23.000Z</time>
      </trkpt>
      <trkpt lat="42.805058" lon="-7.878686">
        <ele>509.1</ele>
        <time>1970-01-01T01:52:24.000Z</time>
      </trkpt>
      <trkpt lat="42.805046" lon="-7.878659">
        <ele>509.1</ele>
        <time>1970-01-01T01:52:25.000Z</time>
      </trkpt>
      <trkpt lat="42.805029" lon="-7.878627">
        <ele>509</ele>
        <time>1970-01-01T01:52:26.000Z</time>
      </trkpt>
      <trkpt lat="42.805019" lon="-7.878605">
        <ele>509</ele>
        <time>1970-01-01T01:52:27.000Z</time>
      </trkpt>
      <trkpt lat="42.80501" lon="-7.878572">
        <ele>509</ele>
        <time>1970-01-01T01:52:28.000Z</time>
      </trkpt>
      <trkpt lat="42.805012" lon="-7.87854">
        <ele>508.9</ele>
        <time>1970-01-01T01:52:29.000Z</time>
      </trkpt>
      <trkpt lat="42.805022" lon="-7.878517">
        <ele>508.8</ele>
        <time>1970-01-01T01:52:30.000Z</time>
      </trkpt>
      <trkpt lat="42.80503" lon="-7.878504">
        <ele>508.8</ele>
        <time>1970-01-01T01:52:31.000Z</time>
      </trkpt>
      <trkpt lat="42.805043" lon="-7.878484">
        <ele>508.8</ele>
        <time>1970-01-01T01:52:32.000Z</time>
      </trkpt>
      <trkpt lat="42.805053" lon="-7.878458">
        <ele>508.8</ele>
        <time>1970-01-01T01:52:33.000Z</time>
      </trkpt>
      <trkpt lat="42.805067" lon="-7.878428">
        <ele>508.8</ele>
        <time>1970-01-01T01:52:34.000Z</time>
      </trkpt>
      <trkpt lat="42.805081" lon="-7.878399">
        <ele>508.8</ele>
        <time>1970-01-01T01:52:35.000Z</time>
      </trkpt>
      <trkpt lat="42.8051" lon="-7.878385">
        <ele>508.9</ele>
        <time>1970-01-01T01:52:36.000Z</time>
      </trkpt>
      <trkpt lat="42.805118" lon="-7.878379">
        <ele>508.9</ele>
        <time>1970-01-01T01:52:37.000Z</time>
      </trkpt>
      <trkpt lat="42.805138" lon="-7.878352">
        <ele>508.9</ele>
        <time>1970-01-01T01:52:38.000Z</time>
      </trkpt>
      <trkpt lat="42.80516" lon="-7.878329">
        <ele>508.9</ele>
        <time>1970-01-01T01:52:39.000Z</time>
      </trkpt>
      <trkpt lat="42.805176" lon="-7.878307">
        <ele>508.9</ele>
        <time>1970-01-01T01:52:40.000Z</time>
      </trkpt>
      <trkpt lat="42.805197" lon="-7.878286">
        <ele>509</ele>
        <time>1970-01-01T01:52:41.000Z</time>
      </trkpt>
      <trkpt lat="42.805215" lon="-7.878261">
        <ele>509</ele>
        <time>1970-01-01T01:52:42.000Z</time>
      </trkpt>
      <trkpt lat="42.805234" lon="-7.878244">
        <ele>509.1</ele>
        <time>1970-01-01T01:52:43.000Z</time>
      </trkpt>
      <trkpt lat="42.805258" lon="-7.878225">
        <ele>509.1</ele>
        <time>1970-01-01T01:52:44.000Z</time>
      </trkpt>
      <trkpt lat="42.805272" lon="-7.878202">
        <ele>509.1</ele>
        <time>1970-01-01T01:52:45.000Z</time>
      </trkpt>
      <trkpt lat="42.805287" lon="-7.878187">
        <ele>509.1</ele>
        <time>1970-01-01T01:52:46.000Z</time>
      </trkpt>
      <trkpt lat="42.805308" lon="-7.878175">
        <ele>509.2</ele>
        <time>1970-01-01T01:52:47.000Z</time>
      </trkpt>
      <trkpt lat="42.80533" lon="-7.87816">
        <ele>509.3</ele>
        <time>1970-01-01T01:52:48.000Z</time>
      </trkpt>
      <trkpt lat="42.805353" lon="-7.878148">
        <ele>509.4</ele>
        <time>1970-01-01T01:52:49.000Z</time>
      </trkpt>
      <trkpt lat="42.805366" lon="-7.878125">
        <ele>509.4</ele>
        <time>1970-01-01T01:52:50.000Z</time>
      </trkpt>
      <trkpt lat="42.80538" lon="-7.878105">
        <ele>509.4</ele>
        <time>1970-01-01T01:52:51.000Z</time>
      </trkpt>
      <trkpt lat="42.805394" lon="-7.878085">
        <ele>509.5</ele>
        <time>1970-01-01T01:52:52.000Z</time>
      </trkpt>
      <trkpt lat="42.80541" lon="-7.878071">
        <ele>509.5</ele>
        <time>1970-01-01T01:52:53.000Z</time>
      </trkpt>
      <trkpt lat="42.805418" lon="-7.878066">
        <ele>509.6</ele>
        <time>1970-01-01T01:52:54.000Z</time>
      </trkpt>
      <trkpt lat="42.805435" lon="-7.878053">
        <ele>509.6</ele>
        <time>1970-01-01T01:52:55.000Z</time>
      </trkpt>
      <trkpt lat="42.805441" lon="-7.878035">
        <ele>509.6</ele>
        <time>1970-01-01T01:52:56.000Z</time>
      </trkpt>
      <trkpt lat="42.805441" lon="-7.878025">
        <ele>509.6</ele>
        <time>1970-01-01T01:52:57.000Z</time>
      </trkpt>
      <trkpt lat="42.805454" lon="-7.878015">
        <ele>509.7</ele>
        <time>1970-01-01T01:52:58.000Z</time>
      </trkpt>
      <trkpt lat="42.805469" lon="-7.878004">
        <ele>509.8</ele>
        <time>1970-01-01T01:52:59.000Z</time>
      </trkpt>
      <trkpt lat="42.805491" lon="-7.87799">
        <ele>509.9</ele>
        <time>1970-01-01T01:53:00.000Z</time>
      </trkpt>
      <trkpt lat="42.805509" lon="-7.877978">
        <ele>510</ele>
        <time>1970-01-01T01:53:01.000Z</time>
      </trkpt>
      <trkpt lat="42.805528" lon="-7.877969">
        <ele>510</ele>
        <time>1970-01-01T01:53:02.000Z</time>
      </trkpt>
      <trkpt lat="42.805531" lon="-7.877961">
        <ele>510</ele>
        <time>1970-01-01T01:53:03.000Z</time>
      </trkpt>
      <trkpt lat="42.805545" lon="-7.877949">
        <ele>510.1</ele>
        <time>1970-01-01T01:53:04.000Z</time>
      </trkpt>
      <trkpt lat="42.805575" lon="-7.877931">
        <ele>510.2</ele>
        <time>1970-01-01T01:53:05.000Z</time>
      </trkpt>
      <trkpt lat="42.8056" lon="-7.877914">
        <ele>510.2</ele>
        <time>1970-01-01T01:53:06.000Z</time>
      </trkpt>
      <trkpt lat="42.805618" lon="-7.877905">
        <ele>510.3</ele>
        <time>1970-01-01T01:53:07.000Z</time>
      </trkpt>
      <trkpt lat="42.80564" lon="-7.8779">
        <ele>510.4</ele>
        <time>1970-01-01T01:53:08.000Z</time>
      </trkpt>
      <trkpt lat="42.80566" lon="-7.877887">
        <ele>510.4</ele>
        <time>1970-01-01T01:53:09.000Z</time>
      </trkpt>
      <trkpt lat="42.805675" lon="-7.877871">
        <ele>510.4</ele>
        <time>1970-01-01T01:53:10.000Z</time>
      </trkpt>
      <trkpt lat="42.805686" lon="-7.877859">
        <ele>510.5</ele>
        <time>1970-01-01T01:53:11.000Z</time>
      </trkpt>
      <trkpt lat="42.805698" lon="-7.877848">
        <ele>510.5</ele>
        <time>1970-01-01T01:53:12.000Z</time>
      </trkpt>
      <trkpt lat="42.80571" lon="-7.877844">
        <ele>510.5</ele>
        <time>1970-01-01T01:53:13.000Z</time>
      </trkpt>
      <trkpt lat="42.805727" lon="-7.877835">
        <ele>510.5</ele>
        <time>1970-01-01T01:53:14.000Z</time>
      </trkpt>
      <trkpt lat="42.805734" lon="-7.877824">
        <ele>510.6</ele>
        <time>1970-01-01T01:53:15.000Z</time>
      </trkpt>
      <trkpt lat="42.805736" lon="-7.877821">
        <ele>510.6</ele>
        <time>1970-01-01T01:53:16.000Z</time>
      </trkpt>
      <trkpt lat="42.805741" lon="-7.877819">
        <ele>510.6</ele>
        <time>1970-01-01T01:53:17.000Z</time>
      </trkpt>
      <trkpt lat="42.805747" lon="-7.877813">
        <ele>510.6</ele>
        <time>1970-01-01T01:53:18.000Z</time>
      </trkpt>
      <trkpt lat="42.805754" lon="-7.877808">
        <ele>510.6</ele>
        <time>1970-01-01T01:53:19.000Z</time>
      </trkpt>
      <trkpt lat="42.805764" lon="-7.877796">
        <ele>510.6</ele>
        <time>1970-01-01T01:53:20.000Z</time>
      </trkpt>
      <trkpt lat="42.805773" lon="-7.87779">
        <ele>510.6</ele>
        <time>1970-01-01T01:53:21.000Z</time>
      </trkpt>
      <trkpt lat="42.805778" lon="-7.877787">
        <ele>510.6</ele>
        <time>1970-01-01T01:53:22.000Z</time>
      </trkpt>
      <trkpt lat="42.805783" lon="-7.877784">
        <ele>510.6</ele>
        <time>1970-01-01T01:53:23.000Z</time>
      </trkpt>
      <trkpt lat="42.80579" lon="-7.87778">
        <ele>510.6</ele>
        <time>1970-01-01T01:53:24.000Z</time>
      </trkpt>
      <trkpt lat="42.805796" lon="-7.877777">
        <ele>510.6</ele>
        <time>1970-01-01T01:53:25.000Z</time>
      </trkpt>
      <trkpt lat="42.805802" lon="-7.877773">
        <ele>510.6</ele>
        <time>1970-01-01T01:53:26.000Z</time>
      </trkpt>
      <trkpt lat="42.805895" lon="-7.877726">
        <ele>510.7</ele>
        <time>1970-01-01T01:53:38.000Z</time>
      </trkpt>
      <trkpt lat="42.805902" lon="-7.877724">
        <ele>510.7</ele>
        <time>1970-01-01T01:53:39.000Z</time>
      </trkpt>
      <trkpt lat="42.805905" lon="-7.87772">
        <ele>510.7</ele>
        <time>1970-01-01T01:53:40.000Z</time>
      </trkpt>
      <trkpt lat="42.805908" lon="-7.877718">
        <ele>510.7</ele>
        <time>1970-01-01T01:53:41.000Z</time>
      </trkpt>
      <trkpt lat="42.805912" lon="-7.877718">
        <ele>510.7</ele>
        <time>1970-01-01T01:53:42.000Z</time>
      </trkpt>
      <trkpt lat="42.805917" lon="-7.877718">
        <ele>510.7</ele>
        <time>1970-01-01T01:53:43.000Z</time>
      </trkpt>
      <trkpt lat="42.805923" lon="-7.877715">
        <ele>510.7</ele>
        <time>1970-01-01T01:53:44.000Z</time>
      </trkpt>
      <trkpt lat="42.805928" lon="-7.87771">
        <ele>510.7</ele>
        <time>1970-01-01T01:53:45.000Z</time>
      </trkpt>
      <trkpt lat="42.805935" lon="-7.877704">
        <ele>510.7</ele>
        <time>1970-01-01T01:53:46.000Z</time>
      </trkpt>
      <trkpt lat="42.80594" lon="-7.877696">
        <ele>510.7</ele>
        <time>1970-01-01T01:53:47.000Z</time>
      </trkpt>
      <trkpt lat="42.805951" lon="-7.877686">
        <ele>510.7</ele>
        <time>1970-01-01T01:53:48.000Z</time>
      </trkpt>
      <trkpt lat="42.806017" lon="-7.877684">
        <ele>510.7</ele>
        <time>1970-01-01T01:53:53.000Z</time>
      </trkpt>
      <trkpt lat="42.806053" lon="-7.877688">
        <ele>510.7</ele>
        <time>1970-01-01T01:53:54.000Z</time>
      </trkpt>
      <trkpt lat="42.806086" lon="-7.877685">
        <ele>510.7</ele>
        <time>1970-01-01T01:53:55.000Z</time>
      </trkpt>
      <trkpt lat="42.806118" lon="-7.87768">
        <ele>510.7</ele>
        <time>1970-01-01T01:53:56.000Z</time>
      </trkpt>
      <trkpt lat="42.80615" lon="-7.877677">
        <ele>510.6</ele>
        <time>1970-01-01T01:53:57.000Z</time>
      </trkpt>
      <trkpt lat="42.80618" lon="-7.877665">
        <ele>510.6</ele>
        <time>1970-01-01T01:53:58.000Z</time>
      </trkpt>
      <trkpt lat="42.806213" lon="-7.877652">
        <ele>510.6</ele>
        <time>1970-01-01T01:53:59.000Z</time>
      </trkpt>
      <trkpt lat="42.806249" lon="-7.877643">
        <ele>510.6</ele>
        <time>1970-01-01T01:54:00.000Z</time>
      </trkpt>
      <trkpt lat="42.806285" lon="-7.877635">
        <ele>510.6</ele>
        <time>1970-01-01T01:54:01.000Z</time>
      </trkpt>
      <trkpt lat="42.806321" lon="-7.877628">
        <ele>510.6</ele>
        <time>1970-01-01T01:54:02.000Z</time>
      </trkpt>
      <trkpt lat="42.806362" lon="-7.877623">
        <ele>510.5</ele>
        <time>1970-01-01T01:54:03.000Z</time>
      </trkpt>
      <trkpt lat="42.8064" lon="-7.877618">
        <ele>510.6</ele>
        <time>1970-01-01T01:54:04.000Z</time>
      </trkpt>
      <trkpt lat="42.806433" lon="-7.877614">
        <ele>510.6</ele>
        <time>1970-01-01T01:54:05.000Z</time>
      </trkpt>
      <trkpt lat="42.806462" lon="-7.877611">
        <ele>510.7</ele>
        <time>1970-01-01T01:54:06.000Z</time>
      </trkpt>
      <trkpt lat="42.80648" lon="-7.877603">
        <ele>510.7</ele>
        <time>1970-01-01T01:54:07.000Z</time>
      </trkpt>
      <trkpt lat="42.806496" lon="-7.877585">
        <ele>510.8</ele>
        <time>1970-01-01T01:54:08.000Z</time>
      </trkpt>
      <trkpt lat="42.806506" lon="-7.877564">
        <ele>510.7</ele>
        <time>1970-01-01T01:54:09.000Z</time>
      </trkpt>
      <trkpt lat="42.806513" lon="-7.877539">
        <ele>510.7</ele>
        <time>1970-01-01T01:54:10.000Z</time>
      </trkpt>
      <trkpt lat="42.806516" lon="-7.877516">
        <ele>510.7</ele>
        <time>1970-01-01T01:54:11.000Z</time>
      </trkpt>
      <trkpt lat="42.806523" lon="-7.877485">
        <ele>510.7</ele>
        <time>1970-01-01T01:54:12.000Z</time>
      </trkpt>
      <trkpt lat="42.806526" lon="-7.877452">
        <ele>510.7</ele>
        <time>1970-01-01T01:54:13.000Z</time>
      </trkpt>
      <trkpt lat="42.806525" lon="-7.877415">
        <ele>510.7</ele>
        <time>1970-01-01T01:54:14.000Z</time>
      </trkpt>
      <trkpt lat="42.806524" lon="-7.877386">
        <ele>510.6</ele>
        <time>1970-01-01T01:54:15.000Z</time>
      </trkpt>
      <trkpt lat="42.80653" lon="-7.877347">
        <ele>510.6</ele>
        <time>1970-01-01T01:54:16.000Z</time>
      </trkpt>
      <trkpt lat="42.806525" lon="-7.877316">
        <ele>510.7</ele>
        <time>1970-01-01T01:54:17.000Z</time>
      </trkpt>
      <trkpt lat="42.80653" lon="-7.877289">
        <ele>510.7</ele>
        <time>1970-01-01T01:54:18.000Z</time>
      </trkpt>
      <trkpt lat="42.806526" lon="-7.877264">
        <ele>510.7</ele>
        <time>1970-01-01T01:54:19.000Z</time>
      </trkpt>
      <trkpt lat="42.806521" lon="-7.877229">
        <ele>510.7</ele>
        <time>1970-01-01T01:54:20.000Z</time>
      </trkpt>
      <trkpt lat="42.806517" lon="-7.877194">
        <ele>510.8</ele>
        <time>1970-01-01T01:54:21.000Z</time>
      </trkpt>
      <trkpt lat="42.806517" lon="-7.877165">
        <ele>510.8</ele>
        <time>1970-01-01T01:54:22.000Z</time>
      </trkpt>
      <trkpt lat="42.806518" lon="-7.877129">
        <ele>510.9</ele>
        <time>1970-01-01T01:54:23.000Z</time>
      </trkpt>
      <trkpt lat="42.806525" lon="-7.877089">
        <ele>511</ele>
        <time>1970-01-01T01:54:24.000Z</time>
      </trkpt>
      <trkpt lat="42.806522" lon="-7.877052">
        <ele>511</ele>
        <time>1970-01-01T01:54:25.000Z</time>
      </trkpt>
      <trkpt lat="42.806516" lon="-7.877012">
        <ele>511.1</ele>
        <time>1970-01-01T01:54:26.000Z</time>
      </trkpt>
      <trkpt lat="42.806511" lon="-7.876978">
        <ele>511.1</ele>
        <time>1970-01-01T01:54:27.000Z</time>
      </trkpt>
      <trkpt lat="42.806504" lon="-7.876943">
        <ele>511.1</ele>
        <time>1970-01-01T01:54:28.000Z</time>
      </trkpt>
      <trkpt lat="42.806505" lon="-7.87691">
        <ele>511.2</ele>
        <time>1970-01-01T01:54:29.000Z</time>
      </trkpt>
      <trkpt lat="42.806506" lon="-7.876873">
        <ele>511.3</ele>
        <time>1970-01-01T01:54:30.000Z</time>
      </trkpt>
      <trkpt lat="42.80651" lon="-7.876835">
        <ele>511.4</ele>
        <time>1970-01-01T01:54:31.000Z</time>
      </trkpt>
      <trkpt lat="42.806512" lon="-7.876801">
        <ele>511.4</ele>
        <time>1970-01-01T01:54:32.000Z</time>
      </trkpt>
      <trkpt lat="42.806513" lon="-7.876765">
        <ele>511.5</ele>
        <time>1970-01-01T01:54:33.000Z</time>
      </trkpt>
      <trkpt lat="42.806513" lon="-7.87673">
        <ele>511.5</ele>
        <time>1970-01-01T01:54:34.000Z</time>
      </trkpt>
      <trkpt lat="42.806513" lon="-7.876692">
        <ele>511.6</ele>
        <time>1970-01-01T01:54:35.000Z</time>
      </trkpt>
      <trkpt lat="42.806515" lon="-7.876661">
        <ele>511.7</ele>
        <time>1970-01-01T01:54:36.000Z</time>
      </trkpt>
      <trkpt lat="42.806517" lon="-7.876628">
        <ele>511.8</ele>
        <time>1970-01-01T01:54:37.000Z</time>
      </trkpt>
      <trkpt lat="42.80652" lon="-7.876599">
        <ele>511.8</ele>
        <time>1970-01-01T01:54:38.000Z</time>
      </trkpt>
      <trkpt lat="42.806525" lon="-7.876568">
        <ele>511.9</ele>
        <time>1970-01-01T01:54:39.000Z</time>
      </trkpt>
      <trkpt lat="42.806525" lon="-7.876534">
        <ele>511.9</ele>
        <time>1970-01-01T01:54:40.000Z</time>
      </trkpt>
      <trkpt lat="42.806534" lon="-7.876496">
        <ele>512</ele>
        <time>1970-01-01T01:54:41.000Z</time>
      </trkpt>
      <trkpt lat="42.806542" lon="-7.876459">
        <ele>512.1</ele>
        <time>1970-01-01T01:54:42.000Z</time>
      </trkpt>
      <trkpt lat="42.806548" lon="-7.876418">
        <ele>512.2</ele>
        <time>1970-01-01T01:54:43.000Z</time>
      </trkpt>
      <trkpt lat="42.80655" lon="-7.876379">
        <ele>512.2</ele>
        <time>1970-01-01T01:54:44.000Z</time>
      </trkpt>
      <trkpt lat="42.80655" lon="-7.876344">
        <ele>512.2</ele>
        <time>1970-01-01T01:54:45.000Z</time>
      </trkpt>
      <trkpt lat="42.806549" lon="-7.876313">
        <ele>512.2</ele>
        <time>1970-01-01T01:54:46.000Z</time>
      </trkpt>
      <trkpt lat="42.806551" lon="-7.87628">
        <ele>512.2</ele>
        <time>1970-01-01T01:54:47.000Z</time>
      </trkpt>
      <trkpt lat="42.80655" lon="-7.87625">
        <ele>512.2</ele>
        <time>1970-01-01T01:54:48.000Z</time>
      </trkpt>
      <trkpt lat="42.80655" lon="-7.876219">
        <ele>512.2</ele>
        <time>1970-01-01T01:54:49.000Z</time>
      </trkpt>
      <trkpt lat="42.806552" lon="-7.876183">
        <ele>512.2</ele>
        <time>1970-01-01T01:54:50.000Z</time>
      </trkpt>
      <trkpt lat="42.806552" lon="-7.876146">
        <ele>512.2</ele>
        <time>1970-01-01T01:54:51.000Z</time>
      </trkpt>
      <trkpt lat="42.806552" lon="-7.876117">
        <ele>512.2</ele>
        <time>1970-01-01T01:54:52.000Z</time>
      </trkpt>
      <trkpt lat="42.806553" lon="-7.876086">
        <ele>512.2</ele>
        <time>1970-01-01T01:54:53.000Z</time>
      </trkpt>
      <trkpt lat="42.806556" lon="-7.876072">
        <ele>512.1</ele>
        <time>1970-01-01T01:54:54.000Z</time>
      </trkpt>
      <trkpt lat="42.806548" lon="-7.876053">
        <ele>512.1</ele>
        <time>1970-01-01T01:54:55.000Z</time>
      </trkpt>
      <trkpt lat="42.806542" lon="-7.876018">
        <ele>512</ele>
        <time>1970-01-01T01:54:56.000Z</time>
      </trkpt>
      <trkpt lat="42.806542" lon="-7.875981">
        <ele>511.9</ele>
        <time>1970-01-01T01:54:57.000Z</time>
      </trkpt>
      <trkpt lat="42.806542" lon="-7.875941">
        <ele>511.8</ele>
        <time>1970-01-01T01:54:58.000Z</time>
      </trkpt>
      <trkpt lat="42.806535" lon="-7.875889">
        <ele>511.7</ele>
        <time>1970-01-01T01:54:59.000Z</time>
      </trkpt>
      <trkpt lat="42.806535" lon="-7.87585">
        <ele>511.6</ele>
        <time>1970-01-01T01:55:00.000Z</time>
      </trkpt>
      <trkpt lat="42.806538" lon="-7.875812">
        <ele>511.5</ele>
        <time>1970-01-01T01:55:01.000Z</time>
      </trkpt>
      <trkpt lat="42.806535" lon="-7.875787">
        <ele>511.5</ele>
        <time>1970-01-01T01:55:02.000Z</time>
      </trkpt>
      <trkpt lat="42.806522" lon="-7.87576">
        <ele>511.4</ele>
        <time>1970-01-01T01:55:03.000Z</time>
      </trkpt>
      <trkpt lat="42.806509" lon="-7.87573">
        <ele>511.3</ele>
        <time>1970-01-01T01:55:04.000Z</time>
      </trkpt>
      <trkpt lat="42.806494" lon="-7.875692">
        <ele>511.2</ele>
        <time>1970-01-01T01:55:05.000Z</time>
      </trkpt>
      <trkpt lat="42.806478" lon="-7.875665">
        <ele>511.2</ele>
        <time>1970-01-01T01:55:06.000Z</time>
      </trkpt>
      <trkpt lat="42.806467" lon="-7.875624">
        <ele>511.1</ele>
        <time>1970-01-01T01:55:07.000Z</time>
      </trkpt>
      <trkpt lat="42.806464" lon="-7.875588">
        <ele>511</ele>
        <time>1970-01-01T01:55:08.000Z</time>
      </trkpt>
      <trkpt lat="42.806457" lon="-7.875552">
        <ele>510.8</ele>
        <time>1970-01-01T01:55:09.000Z</time>
      </trkpt>
      <trkpt lat="42.806451" lon="-7.875496">
        <ele>510.7</ele>
        <time>1970-01-01T01:55:10.000Z</time>
      </trkpt>
      <trkpt lat="42.806441" lon="-7.875454">
        <ele>510.6</ele>
        <time>1970-01-01T01:55:11.000Z</time>
      </trkpt>
      <trkpt lat="42.806422" lon="-7.875412">
        <ele>510.4</ele>
        <time>1970-01-01T01:55:12.000Z</time>
      </trkpt>
      <trkpt lat="42.806397" lon="-7.875373">
        <ele>510.3</ele>
        <time>1970-01-01T01:55:13.000Z</time>
      </trkpt>
      <trkpt lat="42.806379" lon="-7.875322">
        <ele>510.2</ele>
        <time>1970-01-01T01:55:14.000Z</time>
      </trkpt>
      <trkpt lat="42.806363" lon="-7.875274">
        <ele>509.9</ele>
        <time>1970-01-01T01:55:15.000Z</time>
      </trkpt>
      <trkpt lat="42.806339" lon="-7.875216">
        <ele>509.7</ele>
        <time>1970-01-01T01:55:16.000Z</time>
      </trkpt>
      <trkpt lat="42.806315" lon="-7.875148">
        <ele>509.7</ele>
        <time>1970-01-01T01:55:17.000Z</time>
      </trkpt>
      <trkpt lat="42.806285" lon="-7.875094">
        <ele>509.5</ele>
        <time>1970-01-01T01:55:18.000Z</time>
      </trkpt>
      <trkpt lat="42.806262" lon="-7.87503">
        <ele>509.5</ele>
        <time>1970-01-01T01:55:19.000Z</time>
      </trkpt>
      <trkpt lat="42.806242" lon="-7.874977">
        <ele>509.3</ele>
        <time>1970-01-01T01:55:20.000Z</time>
      </trkpt>
      <trkpt lat="42.806221" lon="-7.874912">
        <ele>509.1</ele>
        <time>1970-01-01T01:55:21.000Z</time>
      </trkpt>
      <trkpt lat="42.806208" lon="-7.874866">
        <ele>508.9</ele>
        <time>1970-01-01T01:55:22.000Z</time>
      </trkpt>
      <trkpt lat="42.806191" lon="-7.874834">
        <ele>508.9</ele>
        <time>1970-01-01T01:55:23.000Z</time>
      </trkpt>
      <trkpt lat="42.806176" lon="-7.874793">
        <ele>508.7</ele>
        <time>1970-01-01T01:55:24.000Z</time>
      </trkpt>
      <trkpt lat="42.806168" lon="-7.87476">
        <ele>508.9</ele>
        <time>1970-01-01T01:55:25.000Z</time>
      </trkpt>
      <trkpt lat="42.806157" lon="-7.874724">
        <ele>508.8</ele>
        <time>1970-01-01T01:55:26.000Z</time>
      </trkpt>
      <trkpt lat="42.806142" lon="-7.874683">
        <ele>508.6</ele>
        <time>1970-01-01T01:55:27.000Z</time>
      </trkpt>
      <trkpt lat="42.806131" lon="-7.874641">
        <ele>508.8</ele>
        <time>1970-01-01T01:55:28.000Z</time>
      </trkpt>
      <trkpt lat="42.80612" lon="-7.874606">
        <ele>508.7</ele>
        <time>1970-01-01T01:55:29.000Z</time>
      </trkpt>
      <trkpt lat="42.806106" lon="-7.874571">
        <ele>508.9</ele>
        <time>1970-01-01T01:55:30.000Z</time>
      </trkpt>
      <trkpt lat="42.806098" lon="-7.874534">
        <ele>508.9</ele>
        <time>1970-01-01T01:55:31.000Z</time>
      </trkpt>
      <trkpt lat="42.806087" lon="-7.874495">
        <ele>508.9</ele>
        <time>1970-01-01T01:55:32.000Z</time>
      </trkpt>
      <trkpt lat="42.806069" lon="-7.874451">
        <ele>509.2</ele>
        <time>1970-01-01T01:55:33.000Z</time>
      </trkpt>
      <trkpt lat="42.806046" lon="-7.874396">
        <ele>509.1</ele>
        <time>1970-01-01T01:55:34.000Z</time>
      </trkpt>
      <trkpt lat="42.806023" lon="-7.874344">
        <ele>509.5</ele>
        <time>1970-01-01T01:55:35.000Z</time>
      </trkpt>
      <trkpt lat="42.806004" lon="-7.874296">
        <ele>509.8</ele>
        <time>1970-01-01T01:55:36.000Z</time>
      </trkpt>
      <trkpt lat="42.80598" lon="-7.87424">
        <ele>510.1</ele>
        <time>1970-01-01T01:55:37.000Z</time>
      </trkpt>
      <trkpt lat="42.805953" lon="-7.874201">
        <ele>510.1</ele>
        <time>1970-01-01T01:55:38.000Z</time>
      </trkpt>
      <trkpt lat="42.80593" lon="-7.874167">
        <ele>510.3</ele>
        <time>1970-01-01T01:55:39.000Z</time>
      </trkpt>
      <trkpt lat="42.805909" lon="-7.874132">
        <ele>510.6</ele>
        <time>1970-01-01T01:55:40.000Z</time>
      </trkpt>
      <trkpt lat="42.805889" lon="-7.874099">
        <ele>510.6</ele>
        <time>1970-01-01T01:55:41.000Z</time>
      </trkpt>
      <trkpt lat="42.80587" lon="-7.874067">
        <ele>511</ele>
        <time>1970-01-01T01:55:42.000Z</time>
      </trkpt>
      <trkpt lat="42.805846" lon="-7.874023">
        <ele>511.3</ele>
        <time>1970-01-01T01:55:43.000Z</time>
      </trkpt>
      <trkpt lat="42.805822" lon="-7.873974">
        <ele>511.6</ele>
        <time>1970-01-01T01:55:44.000Z</time>
      </trkpt>
      <trkpt lat="42.805797" lon="-7.873934">
        <ele>511.5</ele>
        <time>1970-01-01T01:55:45.000Z</time>
      </trkpt>
      <trkpt lat="42.805773" lon="-7.873887">
        <ele>511.9</ele>
        <time>1970-01-01T01:55:46.000Z</time>
      </trkpt>
      <trkpt lat="42.805747" lon="-7.873843">
        <ele>512.2</ele>
        <time>1970-01-01T01:55:47.000Z</time>
      </trkpt>
      <trkpt lat="42.80572" lon="-7.873804">
        <ele>512.5</ele>
        <time>1970-01-01T01:55:48.000Z</time>
      </trkpt>
      <trkpt lat="42.805696" lon="-7.873764">
        <ele>512.8</ele>
        <time>1970-01-01T01:55:49.000Z</time>
      </trkpt>
      <trkpt lat="42.805673" lon="-7.873719">
        <ele>512.7</ele>
        <time>1970-01-01T01:55:50.000Z</time>
      </trkpt>
      <trkpt lat="42.805653" lon="-7.873677">
        <ele>513.1</ele>
        <time>1970-01-01T01:55:51.000Z</time>
      </trkpt>
      <trkpt lat="42.805632" lon="-7.873632">
        <ele>513.6</ele>
        <time>1970-01-01T01:55:52.000Z</time>
      </trkpt>
      <trkpt lat="42.805609" lon="-7.873589">
        <ele>513.5</ele>
        <time>1970-01-01T01:55:53.000Z</time>
      </trkpt>
      <trkpt lat="42.805582" lon="-7.873552">
        <ele>514.1</ele>
        <time>1970-01-01T01:55:54.000Z</time>
      </trkpt>
      <trkpt lat="42.805551" lon="-7.873525">
        <ele>514.6</ele>
        <time>1970-01-01T01:55:55.000Z</time>
      </trkpt>
      <trkpt lat="42.805516" lon="-7.873507">
        <ele>515.1</ele>
        <time>1970-01-01T01:55:56.000Z</time>
      </trkpt>
      <trkpt lat="42.805482" lon="-7.873497">
        <ele>515.6</ele>
        <time>1970-01-01T01:55:57.000Z</time>
      </trkpt>
      <trkpt lat="42.805448" lon="-7.873491">
        <ele>516.1</ele>
        <time>1970-01-01T01:55:58.000Z</time>
      </trkpt>
      <trkpt lat="42.805417" lon="-7.873487">
        <ele>516.6</ele>
        <time>1970-01-01T01:55:59.000Z</time>
      </trkpt>
      <trkpt lat="42.805391" lon="-7.873488">
        <ele>517</ele>
        <time>1970-01-01T01:56:00.000Z</time>
      </trkpt>
      <trkpt lat="42.805369" lon="-7.873488">
        <ele>517.4</ele>
        <time>1970-01-01T01:56:01.000Z</time>
      </trkpt>
      <trkpt lat="42.805345" lon="-7.873488">
        <ele>517.8</ele>
        <time>1970-01-01T01:56:02.000Z</time>
      </trkpt>
      <trkpt lat="42.805321" lon="-7.873491">
        <ele>517.8</ele>
        <time>1970-01-01T01:56:03.000Z</time>
      </trkpt>
      <trkpt lat="42.805295" lon="-7.873493">
        <ele>518.1</ele>
        <time>1970-01-01T01:56:04.000Z</time>
      </trkpt>
      <trkpt lat="42.805271" lon="-7.873501">
        <ele>518.4</ele>
        <time>1970-01-01T01:56:05.000Z</time>
      </trkpt>
      <trkpt lat="42.805252" lon="-7.873514">
        <ele>518.6</ele>
        <time>1970-01-01T01:56:06.000Z</time>
      </trkpt>
      <trkpt lat="42.805231" lon="-7.873524">
        <ele>518.6</ele>
        <time>1970-01-01T01:56:07.000Z</time>
      </trkpt>
      <trkpt lat="42.805209" lon="-7.873534">
        <ele>518.8</ele>
        <time>1970-01-01T01:56:08.000Z</time>
      </trkpt>
      <trkpt lat="42.805184" lon="-7.873539">
        <ele>518.9</ele>
        <time>1970-01-01T01:56:09.000Z</time>
      </trkpt>
      <trkpt lat="42.805162" lon="-7.873549">
        <ele>518.9</ele>
        <time>1970-01-01T01:56:10.000Z</time>
      </trkpt>
      <trkpt lat="42.805134" lon="-7.873554">
        <ele>519</ele>
        <time>1970-01-01T01:56:11.000Z</time>
      </trkpt>
      <trkpt lat="42.805109" lon="-7.873567">
        <ele>519</ele>
        <time>1970-01-01T01:56:12.000Z</time>
      </trkpt>
      <trkpt lat="42.80509" lon="-7.873581">
        <ele>519</ele>
        <time>1970-01-01T01:56:13.000Z</time>
      </trkpt>
      <trkpt lat="42.805073" lon="-7.873591">
        <ele>519</ele>
        <time>1970-01-01T01:56:14.000Z</time>
      </trkpt>
      <trkpt lat="42.805059" lon="-7.873608">
        <ele>519</ele>
        <time>1970-01-01T01:56:15.000Z</time>
      </trkpt>
      <trkpt lat="42.805036" lon="-7.873612">
        <ele>519</ele>
        <time>1970-01-01T01:56:16.000Z</time>
      </trkpt>
      <trkpt lat="42.805011" lon="-7.873621">
        <ele>519</ele>
        <time>1970-01-01T01:56:17.000Z</time>
      </trkpt>
      <trkpt lat="42.804987" lon="-7.873633">
        <ele>519</ele>
        <time>1970-01-01T01:56:18.000Z</time>
      </trkpt>
      <trkpt lat="42.80496" lon="-7.873643">
        <ele>519</ele>
        <time>1970-01-01T01:56:19.000Z</time>
      </trkpt>
      <trkpt lat="42.804935" lon="-7.873659">
        <ele>518.9</ele>
        <time>1970-01-01T01:56:20.000Z</time>
      </trkpt>
      <trkpt lat="42.804912" lon="-7.873671">
        <ele>518.9</ele>
        <time>1970-01-01T01:56:21.000Z</time>
      </trkpt>
      <trkpt lat="42.80489" lon="-7.87369">
        <ele>518.8</ele>
        <time>1970-01-01T01:56:22.000Z</time>
      </trkpt>
      <trkpt lat="42.804865" lon="-7.873709">
        <ele>518.8</ele>
        <time>1970-01-01T01:56:23.000Z</time>
      </trkpt>
      <trkpt lat="42.804844" lon="-7.87373">
        <ele>518.6</ele>
        <time>1970-01-01T01:56:24.000Z</time>
      </trkpt>
      <trkpt lat="42.804828" lon="-7.873749">
        <ele>518.6</ele>
        <time>1970-01-01T01:56:25.000Z</time>
      </trkpt>
      <trkpt lat="42.804808" lon="-7.873762">
        <ele>518.5</ele>
        <time>1970-01-01T01:56:26.000Z</time>
      </trkpt>
      <trkpt lat="42.804787" lon="-7.873774">
        <ele>518.5</ele>
        <time>1970-01-01T01:56:27.000Z</time>
      </trkpt>
      <trkpt lat="42.804762" lon="-7.873789">
        <ele>518.4</ele>
        <time>1970-01-01T01:56:28.000Z</time>
      </trkpt>
      <trkpt lat="42.804733" lon="-7.873804">
        <ele>518.3</ele>
        <time>1970-01-01T01:56:29.000Z</time>
      </trkpt>
      <trkpt lat="42.804706" lon="-7.873817">
        <ele>518.2</ele>
        <time>1970-01-01T01:56:30.000Z</time>
      </trkpt>
      <trkpt lat="42.804676" lon="-7.873831">
        <ele>518.2</ele>
        <time>1970-01-01T01:56:31.000Z</time>
      </trkpt>
      <trkpt lat="42.804648" lon="-7.873849">
        <ele>518.1</ele>
        <time>1970-01-01T01:56:32.000Z</time>
      </trkpt>
      <trkpt lat="42.804624" lon="-7.873869">
        <ele>518</ele>
        <time>1970-01-01T01:56:33.000Z</time>
      </trkpt>
      <trkpt lat="42.804595" lon="-7.873891">
        <ele>517.9</ele>
        <time>1970-01-01T01:56:34.000Z</time>
      </trkpt>
      <trkpt lat="42.804569" lon="-7.873917">
        <ele>518</ele>
        <time>1970-01-01T01:56:35.000Z</time>
      </trkpt>
      <trkpt lat="42.804541" lon="-7.873943">
        <ele>517.9</ele>
        <time>1970-01-01T01:56:36.000Z</time>
      </trkpt>
      <trkpt lat="42.80451" lon="-7.873974">
        <ele>517.8</ele>
        <time>1970-01-01T01:56:37.000Z</time>
      </trkpt>
      <trkpt lat="42.804484" lon="-7.874004">
        <ele>517.8</ele>
        <time>1970-01-01T01:56:38.000Z</time>
      </trkpt>
      <trkpt lat="42.804467" lon="-7.874037">
        <ele>517.7</ele>
        <time>1970-01-01T01:56:39.000Z</time>
      </trkpt>
      <trkpt lat="42.804443" lon="-7.874076">
        <ele>517.7</ele>
        <time>1970-01-01T01:56:40.000Z</time>
      </trkpt>
      <trkpt lat="42.804428" lon="-7.874123">
        <ele>517.6</ele>
        <time>1970-01-01T01:56:41.000Z</time>
      </trkpt>
      <trkpt lat="42.804425" lon="-7.874169">
        <ele>517.6</ele>
        <time>1970-01-01T01:56:42.000Z</time>
      </trkpt>
      <trkpt lat="42.804424" lon="-7.874205">
        <ele>517.5</ele>
        <time>1970-01-01T01:56:43.000Z</time>
      </trkpt>
      <trkpt lat="42.804421" lon="-7.874253">
        <ele>517.5</ele>
        <time>1970-01-01T01:56:44.000Z</time>
      </trkpt>
      <trkpt lat="42.804426" lon="-7.874317">
        <ele>517.4</ele>
        <time>1970-01-01T01:56:45.000Z</time>
      </trkpt>
      <trkpt lat="42.804432" lon="-7.874365">
        <ele>517.3</ele>
        <time>1970-01-01T01:56:46.000Z</time>
      </trkpt>
      <trkpt lat="42.804426" lon="-7.874403">
        <ele>517.3</ele>
        <time>1970-01-01T01:56:47.000Z</time>
      </trkpt>
      <trkpt lat="42.804409" lon="-7.874437">
        <ele>517.3</ele>
        <time>1970-01-01T01:56:48.000Z</time>
      </trkpt>
      <trkpt lat="42.804386" lon="-7.874483">
        <ele>517.2</ele>
        <time>1970-01-01T01:56:49.000Z</time>
      </trkpt>
      <trkpt lat="42.804394" lon="-7.874564">
        <ele>517.1</ele>
        <time>1970-01-01T01:56:50.000Z</time>
      </trkpt>
      <trkpt lat="42.804385" lon="-7.874628">
        <ele>517</ele>
        <time>1970-01-01T01:56:51.000Z</time>
      </trkpt>
      <trkpt lat="42.804348" lon="-7.87467">
        <ele>516.9</ele>
        <time>1970-01-01T01:56:52.000Z</time>
      </trkpt>
      <trkpt lat="42.804292" lon="-7.87469">
        <ele>516.8</ele>
        <time>1970-01-01T01:56:53.000Z</time>
      </trkpt>
      <trkpt lat="42.804265" lon="-7.874753">
        <ele>516.6</ele>
        <time>1970-01-01T01:56:54.000Z</time>
      </trkpt>
      <trkpt lat="42.804222" lon="-7.874804">
        <ele>516.5</ele>
        <time>1970-01-01T01:56:55.000Z</time>
      </trkpt>
      <trkpt lat="42.80417" lon="-7.874836">
        <ele>516.4</ele>
        <time>1970-01-01T01:56:56.000Z</time>
      </trkpt>
      <trkpt lat="42.804102" lon="-7.874853">
        <ele>516.2</ele>
        <time>1970-01-01T01:56:57.000Z</time>
      </trkpt>
      <trkpt lat="42.804054" lon="-7.874899">
        <ele>516</ele>
        <time>1970-01-01T01:56:58.000Z</time>
      </trkpt>
      <trkpt lat="42.804034" lon="-7.874948">
        <ele>515.9</ele>
        <time>1970-01-01T01:56:59.000Z</time>
      </trkpt>
      <trkpt lat="42.804015" lon="-7.875004">
        <ele>515.8</ele>
        <time>1970-01-01T01:57:00.000Z</time>
      </trkpt>
      <trkpt lat="42.803987" lon="-7.875044">
        <ele>515.6</ele>
        <time>1970-01-01T01:57:01.000Z</time>
      </trkpt>
      <trkpt lat="42.803948" lon="-7.875084">
        <ele>515.5</ele>
        <time>1970-01-01T01:57:02.000Z</time>
      </trkpt>
      <trkpt lat="42.803909" lon="-7.875124">
        <ele>515.4</ele>
        <time>1970-01-01T01:57:03.000Z</time>
      </trkpt>
      <trkpt lat="42.803882" lon="-7.87517">
        <ele>515.3</ele>
        <time>1970-01-01T01:57:04.000Z</time>
      </trkpt>
      <trkpt lat="42.803862" lon="-7.875216">
        <ele>515.2</ele>
        <time>1970-01-01T01:57:05.000Z</time>
      </trkpt>
      <trkpt lat="42.803851" lon="-7.875288">
        <ele>515</ele>
        <time>1970-01-01T01:57:06.000Z</time>
      </trkpt>
      <trkpt lat="42.803845" lon="-7.875357">
        <ele>514.9</ele>
        <time>1970-01-01T01:57:07.000Z</time>
      </trkpt>
      <trkpt lat="42.803838" lon="-7.875413">
        <ele>514.9</ele>
        <time>1970-01-01T01:57:08.000Z</time>
      </trkpt>
      <trkpt lat="42.803825" lon="-7.875446">
        <ele>514.8</ele>
        <time>1970-01-01T01:57:09.000Z</time>
      </trkpt>
      <trkpt lat="42.803826" lon="-7.875485">
        <ele>514.8</ele>
        <time>1970-01-01T01:57:10.000Z</time>
      </trkpt>
      <trkpt lat="42.803818" lon="-7.875521">
        <ele>514.8</ele>
        <time>1970-01-01T01:57:11.000Z</time>
      </trkpt>
      <trkpt lat="42.803807" lon="-7.875558">
        <ele>514.8</ele>
        <time>1970-01-01T01:57:12.000Z</time>
      </trkpt>
      <trkpt lat="42.803794" lon="-7.875599">
        <ele>514.8</ele>
        <time>1970-01-01T01:57:13.000Z</time>
      </trkpt>
      <trkpt lat="42.803783" lon="-7.875654">
        <ele>514.8</ele>
        <time>1970-01-01T01:57:14.000Z</time>
      </trkpt>
      <trkpt lat="42.803783" lon="-7.875708">
        <ele>514.8</ele>
        <time>1970-01-01T01:57:15.000Z</time>
      </trkpt>
      <trkpt lat="42.803779" lon="-7.875765">
        <ele>514.8</ele>
        <time>1970-01-01T01:57:16.000Z</time>
      </trkpt>
      <trkpt lat="42.80375" lon="-7.87582">
        <ele>514.8</ele>
        <time>1970-01-01T01:57:17.000Z</time>
      </trkpt>
      <trkpt lat="42.803728" lon="-7.875871">
        <ele>514.8</ele>
        <time>1970-01-01T01:57:18.000Z</time>
      </trkpt>
      <trkpt lat="42.803704" lon="-7.875917">
        <ele>514.8</ele>
        <time>1970-01-01T01:57:19.000Z</time>
      </trkpt>
      <trkpt lat="42.803684" lon="-7.875965">
        <ele>514.8</ele>
        <time>1970-01-01T01:57:20.000Z</time>
      </trkpt>
      <trkpt lat="42.803657" lon="-7.876011">
        <ele>514.8</ele>
        <time>1970-01-01T01:57:21.000Z</time>
      </trkpt>
      <trkpt lat="42.803629" lon="-7.876053">
        <ele>514.8</ele>
        <time>1970-01-01T01:57:22.000Z</time>
      </trkpt>
      <trkpt lat="42.803602" lon="-7.876093">
        <ele>514.8</ele>
        <time>1970-01-01T01:57:23.000Z</time>
      </trkpt>
      <trkpt lat="42.803563" lon="-7.876125">
        <ele>514.9</ele>
        <time>1970-01-01T01:57:24.000Z</time>
      </trkpt>
      <trkpt lat="42.803514" lon="-7.876162">
        <ele>515</ele>
        <time>1970-01-01T01:57:25.000Z</time>
      </trkpt>
      <trkpt lat="42.803484" lon="-7.876216">
        <ele>515</ele>
        <time>1970-01-01T01:57:26.000Z</time>
      </trkpt>
      <trkpt lat="42.803453" lon="-7.876264">
        <ele>515.1</ele>
        <time>1970-01-01T01:57:27.000Z</time>
      </trkpt>
      <trkpt lat="42.80342" lon="-7.876314">
        <ele>515.2</ele>
        <time>1970-01-01T01:57:28.000Z</time>
      </trkpt>
      <trkpt lat="42.803391" lon="-7.876365">
        <ele>515.3</ele>
        <time>1970-01-01T01:57:29.000Z</time>
      </trkpt>
      <trkpt lat="42.803367" lon="-7.876412">
        <ele>515.4</ele>
        <time>1970-01-01T01:57:30.000Z</time>
      </trkpt>
      <trkpt lat="42.803352" lon="-7.876451">
        <ele>515.4</ele>
        <time>1970-01-01T01:57:31.000Z</time>
      </trkpt>
      <trkpt lat="42.803332" lon="-7.876503">
        <ele>515.5</ele>
        <time>1970-01-01T01:57:32.000Z</time>
      </trkpt>
      <trkpt lat="42.803316" lon="-7.876565">
        <ele>515.5</ele>
        <time>1970-01-01T01:57:33.000Z</time>
      </trkpt>
      <trkpt lat="42.803296" lon="-7.876624">
        <ele>515.6</ele>
        <time>1970-01-01T01:57:34.000Z</time>
      </trkpt>
      <trkpt lat="42.803274" lon="-7.87668">
        <ele>515.6</ele>
        <time>1970-01-01T01:57:35.000Z</time>
      </trkpt>
      <trkpt lat="42.80326" lon="-7.876716">
        <ele>515.7</ele>
        <time>1970-01-01T01:57:36.000Z</time>
      </trkpt>
      <trkpt lat="42.80324" lon="-7.876751">
        <ele>515.9</ele>
        <time>1970-01-01T01:57:37.000Z</time>
      </trkpt>
      <trkpt lat="42.803206" lon="-7.876782">
        <ele>516</ele>
        <time>1970-01-01T01:57:38.000Z</time>
      </trkpt>
      <trkpt lat="42.803185" lon="-7.876822">
        <ele>516</ele>
        <time>1970-01-01T01:57:39.000Z</time>
      </trkpt>
      <trkpt lat="42.803177" lon="-7.876862">
        <ele>516.1</ele>
        <time>1970-01-01T01:57:40.000Z</time>
      </trkpt>
      <trkpt lat="42.803167" lon="-7.876903">
        <ele>516.1</ele>
        <time>1970-01-01T01:57:41.000Z</time>
      </trkpt>
      <trkpt lat="42.803155" lon="-7.87694">
        <ele>516.1</ele>
        <time>1970-01-01T01:57:42.000Z</time>
      </trkpt>
      <trkpt lat="42.803145" lon="-7.87698">
        <ele>516.2</ele>
        <time>1970-01-01T01:57:43.000Z</time>
      </trkpt>
      <trkpt lat="42.803128" lon="-7.877021">
        <ele>516.2</ele>
        <time>1970-01-01T01:57:44.000Z</time>
      </trkpt>
      <trkpt lat="42.803107" lon="-7.877059">
        <ele>516.4</ele>
        <time>1970-01-01T01:57:45.000Z</time>
      </trkpt>
      <trkpt lat="42.803093" lon="-7.877105">
        <ele>516.5</ele>
        <time>1970-01-01T01:57:46.000Z</time>
      </trkpt>
      <trkpt lat="42.80308" lon="-7.87715">
        <ele>516.7</ele>
        <time>1970-01-01T01:57:47.000Z</time>
      </trkpt>
      <trkpt lat="42.803067" lon="-7.877197">
        <ele>516.7</ele>
        <time>1970-01-01T01:57:48.000Z</time>
      </trkpt>
      <trkpt lat="42.803051" lon="-7.877234">
        <ele>517.1</ele>
        <time>1970-01-01T01:57:49.000Z</time>
      </trkpt>
      <trkpt lat="42.803033" lon="-7.87727">
        <ele>517.1</ele>
        <time>1970-01-01T01:57:50.000Z</time>
      </trkpt>
      <trkpt lat="42.803001" lon="-7.877337">
        <ele>517.4</ele>
        <time>1970-01-01T01:57:51.000Z</time>
      </trkpt>
      <trkpt lat="42.803001" lon="-7.877337">
        <ele>517.4</ele>
        <time>1970-01-01T01:57:52.000Z</time>
      </trkpt>
      <trkpt lat="42.802987" lon="-7.877373">
        <ele>517.6</ele>
        <time>1970-01-01T01:57:53.000Z</time>
      </trkpt>
      <trkpt lat="42.802976" lon="-7.87741">
        <ele>517.7</ele>
        <time>1970-01-01T01:57:54.000Z</time>
      </trkpt>
      <trkpt lat="42.802963" lon="-7.877448">
        <ele>517.9</ele>
        <time>1970-01-01T01:57:55.000Z</time>
      </trkpt>
      <trkpt lat="42.802949" lon="-7.877485">
        <ele>518</ele>
        <time>1970-01-01T01:57:56.000Z</time>
      </trkpt>
      <trkpt lat="42.802934" lon="-7.877519">
        <ele>518.2</ele>
        <time>1970-01-01T01:57:57.000Z</time>
      </trkpt>
      <trkpt lat="42.80292" lon="-7.877554">
        <ele>518.3</ele>
        <time>1970-01-01T01:57:58.000Z</time>
      </trkpt>
      <trkpt lat="42.802902" lon="-7.877588">
        <ele>518.5</ele>
        <time>1970-01-01T01:57:59.000Z</time>
      </trkpt>
      <trkpt lat="42.802873" lon="-7.877661">
        <ele>518.9</ele>
        <time>1970-01-01T01:58:00.000Z</time>
      </trkpt>
      <trkpt lat="42.802873" lon="-7.877661">
        <ele>518.9</ele>
        <time>1970-01-01T01:58:01.000Z</time>
      </trkpt>
      <trkpt lat="42.802861" lon="-7.877692">
        <ele>519</ele>
        <time>1970-01-01T01:58:02.000Z</time>
      </trkpt>
      <trkpt lat="42.802848" lon="-7.877725">
        <ele>519.2</ele>
        <time>1970-01-01T01:58:03.000Z</time>
      </trkpt>
      <trkpt lat="42.802838" lon="-7.877761">
        <ele>519.3</ele>
        <time>1970-01-01T01:58:04.000Z</time>
      </trkpt>
      <trkpt lat="42.802829" lon="-7.877795">
        <ele>519.5</ele>
        <time>1970-01-01T01:58:05.000Z</time>
      </trkpt>
      <trkpt lat="42.80282" lon="-7.877832">
        <ele>519.7</ele>
        <time>1970-01-01T01:58:06.000Z</time>
      </trkpt>
      <trkpt lat="42.80281" lon="-7.877869">
        <ele>519.9</ele>
        <time>1970-01-01T01:58:07.000Z</time>
      </trkpt>
      <trkpt lat="42.802801" lon="-7.877906">
        <ele>520</ele>
        <time>1970-01-01T01:58:08.000Z</time>
      </trkpt>
      <trkpt lat="42.80279" lon="-7.877942">
        <ele>520.1</ele>
        <time>1970-01-01T01:58:09.000Z</time>
      </trkpt>
      <trkpt lat="42.80278" lon="-7.877978">
        <ele>520.3</ele>
        <time>1970-01-01T01:58:10.000Z</time>
      </trkpt>
      <trkpt lat="42.802769" lon="-7.878013">
        <ele>520.4</ele>
        <time>1970-01-01T01:58:11.000Z</time>
      </trkpt>
      <trkpt lat="42.802756" lon="-7.878047">
        <ele>520.6</ele>
        <time>1970-01-01T01:58:12.000Z</time>
      </trkpt>
      <trkpt lat="42.802748" lon="-7.878079">
        <ele>520.7</ele>
        <time>1970-01-01T01:58:13.000Z</time>
      </trkpt>
      <trkpt lat="42.802739" lon="-7.878115">
        <ele>520.8</ele>
        <time>1970-01-01T01:58:14.000Z</time>
      </trkpt>
      <trkpt lat="42.802727" lon="-7.878153">
        <ele>521</ele>
        <time>1970-01-01T01:58:15.000Z</time>
      </trkpt>
      <trkpt lat="42.802714" lon="-7.878187">
        <ele>521.1</ele>
        <time>1970-01-01T01:58:16.000Z</time>
      </trkpt>
      <trkpt lat="42.802702" lon="-7.878222">
        <ele>521.2</ele>
        <time>1970-01-01T01:58:17.000Z</time>
      </trkpt>
      <trkpt lat="42.80269" lon="-7.878258">
        <ele>521.3</ele>
        <time>1970-01-01T01:58:18.000Z</time>
      </trkpt>
      <trkpt lat="42.80268" lon="-7.878294">
        <ele>521.4</ele>
        <time>1970-01-01T01:58:19.000Z</time>
      </trkpt>
      <trkpt lat="42.80267" lon="-7.878328">
        <ele>521.5</ele>
        <time>1970-01-01T01:58:20.000Z</time>
      </trkpt>
      <trkpt lat="42.802662" lon="-7.878361">
        <ele>521.6</ele>
        <time>1970-01-01T01:58:21.000Z</time>
      </trkpt>
      <trkpt lat="42.802652" lon="-7.878394">
        <ele>521.6</ele>
        <time>1970-01-01T01:58:22.000Z</time>
      </trkpt>
      <trkpt lat="42.802642" lon="-7.878428">
        <ele>521.7</ele>
        <time>1970-01-01T01:58:23.000Z</time>
      </trkpt>
      <trkpt lat="42.802631" lon="-7.878462">
        <ele>521.8</ele>
        <time>1970-01-01T01:58:24.000Z</time>
      </trkpt>
      <trkpt lat="42.80262" lon="-7.878497">
        <ele>521.9</ele>
        <time>1970-01-01T01:58:25.000Z</time>
      </trkpt>
      <trkpt lat="42.80261" lon="-7.878532">
        <ele>522</ele>
        <time>1970-01-01T01:58:26.000Z</time>
      </trkpt>
      <trkpt lat="42.802595" lon="-7.878607">
        <ele>522.2</ele>
        <time>1970-01-01T01:58:27.000Z</time>
      </trkpt>
      <trkpt lat="42.802595" lon="-7.878607">
        <ele>522.2</ele>
        <time>1970-01-01T01:58:28.000Z</time>
      </trkpt>
      <trkpt lat="42.802591" lon="-7.878647">
        <ele>522.3</ele>
        <time>1970-01-01T01:58:29.000Z</time>
      </trkpt>
      <trkpt lat="42.80259" lon="-7.878683">
        <ele>522.3</ele>
        <time>1970-01-01T01:58:30.000Z</time>
      </trkpt>
      <trkpt lat="42.802597" lon="-7.878754">
        <ele>522.4</ele>
        <time>1970-01-01T01:58:31.000Z</time>
      </trkpt>
      <trkpt lat="42.802597" lon="-7.878754">
        <ele>522.4</ele>
        <time>1970-01-01T01:58:32.000Z</time>
      </trkpt>
      <trkpt lat="42.802602" lon="-7.878791">
        <ele>522.5</ele>
        <time>1970-01-01T01:58:33.000Z</time>
      </trkpt>
      <trkpt lat="42.802607" lon="-7.878832">
        <ele>522.5</ele>
        <time>1970-01-01T01:58:34.000Z</time>
      </trkpt>
      <trkpt lat="42.802609" lon="-7.878876">
        <ele>522.6</ele>
        <time>1970-01-01T01:58:35.000Z</time>
      </trkpt>
      <trkpt lat="42.802606" lon="-7.87892">
        <ele>522.6</ele>
        <time>1970-01-01T01:58:36.000Z</time>
      </trkpt>
      <trkpt lat="42.802579" lon="-7.879009">
        <ele>522.7</ele>
        <time>1970-01-01T01:58:37.000Z</time>
      </trkpt>
      <trkpt lat="42.802557" lon="-7.87905">
        <ele>522.7</ele>
        <time>1970-01-01T01:58:38.000Z</time>
      </trkpt>
      <trkpt lat="42.802534" lon="-7.87909">
        <ele>522.8</ele>
        <time>1970-01-01T01:58:39.000Z</time>
      </trkpt>
      <trkpt lat="42.802524" lon="-7.879111">
        <ele>522.8</ele>
        <time>1970-01-01T01:58:40.000Z</time>
      </trkpt>
      <trkpt lat="42.802513" lon="-7.879132">
        <ele>522.6</ele>
        <time>1970-01-01T01:58:41.000Z</time>
      </trkpt>
      <trkpt lat="42.802493" lon="-7.879175">
        <ele>522.4</ele>
        <time>1970-01-01T01:58:42.000Z</time>
      </trkpt>
      <trkpt lat="42.802449" lon="-7.879258">
        <ele>522.3</ele>
        <time>1970-01-01T01:58:43.000Z</time>
      </trkpt>
      <trkpt lat="42.80243" lon="-7.879298">
        <ele>522.2</ele>
        <time>1970-01-01T01:58:44.000Z</time>
      </trkpt>
      <trkpt lat="42.80241" lon="-7.879338">
        <ele>522.2</ele>
        <time>1970-01-01T01:58:45.000Z</time>
      </trkpt>
      <trkpt lat="42.802399" lon="-7.879362">
        <ele>522.1</ele>
        <time>1970-01-01T01:58:46.000Z</time>
      </trkpt>
      <trkpt lat="42.802388" lon="-7.879386">
        <ele>522.1</ele>
        <time>1970-01-01T01:58:47.000Z</time>
      </trkpt>
      <trkpt lat="42.802368" lon="-7.87943">
        <ele>522</ele>
        <time>1970-01-01T01:58:48.000Z</time>
      </trkpt>
      <trkpt lat="42.802332" lon="-7.879515">
        <ele>521.9</ele>
        <time>1970-01-01T01:58:49.000Z</time>
      </trkpt>
      <trkpt lat="42.802318" lon="-7.879558">
        <ele>521.8</ele>
        <time>1970-01-01T01:58:50.000Z</time>
      </trkpt>
      <trkpt lat="42.802303" lon="-7.8796">
        <ele>521.8</ele>
        <time>1970-01-01T01:58:51.000Z</time>
      </trkpt>
      <trkpt lat="42.802291" lon="-7.879643">
        <ele>521.8</ele>
        <time>1970-01-01T01:58:52.000Z</time>
      </trkpt>
      <trkpt lat="42.802277" lon="-7.879684">
        <ele>521.7</ele>
        <time>1970-01-01T01:58:53.000Z</time>
      </trkpt>
      <trkpt lat="42.802277" lon="-7.879684">
        <ele>521.7</ele>
        <time>1970-01-01T01:58:54.000Z</time>
      </trkpt>
      <trkpt lat="42.802265" lon="-7.879725">
        <ele>521.7</ele>
        <time>1970-01-01T01:58:55.000Z</time>
      </trkpt>
      <trkpt lat="42.802237" lon="-7.879807">
        <ele>521.6</ele>
        <time>1970-01-01T01:58:56.000Z</time>
      </trkpt>
      <trkpt lat="42.802237" lon="-7.879807">
        <ele>521.6</ele>
        <time>1970-01-01T01:58:57.000Z</time>
      </trkpt>
      <trkpt lat="42.802227" lon="-7.879851">
        <ele>521.5</ele>
        <time>1970-01-01T01:58:58.000Z</time>
      </trkpt>
      <trkpt lat="42.802211" lon="-7.879942">
        <ele>521.4</ele>
        <time>1970-01-01T01:58:59.000Z</time>
      </trkpt>
      <trkpt lat="42.802204" lon="-7.879986">
        <ele>521.3</ele>
        <time>1970-01-01T01:59:00.000Z</time>
      </trkpt>
      <trkpt lat="42.802196" lon="-7.88003">
        <ele>521.3</ele>
        <time>1970-01-01T01:59:01.000Z</time>
      </trkpt>
      <trkpt lat="42.80219" lon="-7.880076">
        <ele>521.2</ele>
        <time>1970-01-01T01:59:02.000Z</time>
      </trkpt>
      <trkpt lat="42.802184" lon="-7.880126">
        <ele>521.1</ele>
        <time>1970-01-01T01:59:03.000Z</time>
      </trkpt>
      <trkpt lat="42.802177" lon="-7.880176">
        <ele>521.1</ele>
        <time>1970-01-01T01:59:04.000Z</time>
      </trkpt>
      <trkpt lat="42.802169" lon="-7.880226">
        <ele>521</ele>
        <time>1970-01-01T01:59:05.000Z</time>
      </trkpt>
      <trkpt lat="42.802167" lon="-7.880269">
        <ele>520.9</ele>
        <time>1970-01-01T01:59:06.000Z</time>
      </trkpt>
      <trkpt lat="42.802165" lon="-7.880312">
        <ele>520.9</ele>
        <time>1970-01-01T01:59:07.000Z</time>
      </trkpt>
      <trkpt lat="42.802161" lon="-7.880355">
        <ele>520.8</ele>
        <time>1970-01-01T01:59:08.000Z</time>
      </trkpt>
      <trkpt lat="42.802156" lon="-7.880398">
        <ele>520.7</ele>
        <time>1970-01-01T01:59:09.000Z</time>
      </trkpt>
      <trkpt lat="42.80215" lon="-7.880423">
        <ele>520.6</ele>
        <time>1970-01-01T01:59:10.000Z</time>
      </trkpt>
      <trkpt lat="42.802143" lon="-7.880447">
        <ele>520.6</ele>
        <time>1970-01-01T01:59:11.000Z</time>
      </trkpt>
      <trkpt lat="42.802097" lon="-7.880522">
        <ele>520.5</ele>
        <time>1970-01-01T01:59:12.000Z</time>
      </trkpt>
      <trkpt lat="42.802069" lon="-7.880559">
        <ele>520.6</ele>
        <time>1970-01-01T01:59:13.000Z</time>
      </trkpt>
      <trkpt lat="42.80204" lon="-7.880595">
        <ele>520.6</ele>
        <time>1970-01-01T01:59:14.000Z</time>
      </trkpt>
      <trkpt lat="42.802022" lon="-7.880611">
        <ele>520.7</ele>
        <time>1970-01-01T01:59:15.000Z</time>
      </trkpt>
      <trkpt lat="42.802004" lon="-7.880626">
        <ele>520.7</ele>
        <time>1970-01-01T01:59:16.000Z</time>
      </trkpt>
      <trkpt lat="42.801969" lon="-7.880651">
        <ele>520.8</ele>
        <time>1970-01-01T01:59:17.000Z</time>
      </trkpt>
      <trkpt lat="42.801932" lon="-7.880672">
        <ele>520.8</ele>
        <time>1970-01-01T01:59:18.000Z</time>
      </trkpt>
      <trkpt lat="42.801894" lon="-7.880691">
        <ele>520.9</ele>
        <time>1970-01-01T01:59:19.000Z</time>
      </trkpt>
      <trkpt lat="42.801852" lon="-7.880707">
        <ele>521</ele>
        <time>1970-01-01T01:59:20.000Z</time>
      </trkpt>
      <trkpt lat="42.801771" lon="-7.880741">
        <ele>521.1</ele>
        <time>1970-01-01T01:59:21.000Z</time>
      </trkpt>
      <trkpt lat="42.801731" lon="-7.880757">
        <ele>521.2</ele>
        <time>1970-01-01T01:59:22.000Z</time>
      </trkpt>
      <trkpt lat="42.801692" lon="-7.88077">
        <ele>521.3</ele>
        <time>1970-01-01T01:59:23.000Z</time>
      </trkpt>
      <trkpt lat="42.801655" lon="-7.880784">
        <ele>521.3</ele>
        <time>1970-01-01T01:59:24.000Z</time>
      </trkpt>
      <trkpt lat="42.801621" lon="-7.880799">
        <ele>521.4</ele>
        <time>1970-01-01T01:59:25.000Z</time>
      </trkpt>
      <trkpt lat="42.801586" lon="-7.880817">
        <ele>521.5</ele>
        <time>1970-01-01T01:59:26.000Z</time>
      </trkpt>
      <trkpt lat="42.801569" lon="-7.880828">
        <ele>521.5</ele>
        <time>1970-01-01T01:59:27.000Z</time>
      </trkpt>
      <trkpt lat="42.801551" lon="-7.880838">
        <ele>521.5</ele>
        <time>1970-01-01T01:59:28.000Z</time>
      </trkpt>
      <trkpt lat="42.80152" lon="-7.880864">
        <ele>521.6</ele>
        <time>1970-01-01T01:59:29.000Z</time>
      </trkpt>
      <trkpt lat="42.801461" lon="-7.880914">
        <ele>521.7</ele>
        <time>1970-01-01T01:59:30.000Z</time>
      </trkpt>
      <trkpt lat="42.801461" lon="-7.880914">
        <ele>521.7</ele>
        <time>1970-01-01T01:59:31.000Z</time>
      </trkpt>
      <trkpt lat="42.801435" lon="-7.88094">
        <ele>521.8</ele>
        <time>1970-01-01T01:59:32.000Z</time>
      </trkpt>
      <trkpt lat="42.801385" lon="-7.880993">
        <ele>521.9</ele>
        <time>1970-01-01T01:59:33.000Z</time>
      </trkpt>
      <trkpt lat="42.801365" lon="-7.881027">
        <ele>521.9</ele>
        <time>1970-01-01T01:59:34.000Z</time>
      </trkpt>
      <trkpt lat="42.801347" lon="-7.88106">
        <ele>522</ele>
        <time>1970-01-01T01:59:35.000Z</time>
      </trkpt>
      <trkpt lat="42.801347" lon="-7.88106">
        <ele>522</ele>
        <time>1970-01-01T01:59:36.000Z</time>
      </trkpt>
      <trkpt lat="42.801332" lon="-7.881094">
        <ele>522</ele>
        <time>1970-01-01T01:59:37.000Z</time>
      </trkpt>
      <trkpt lat="42.801319" lon="-7.88113">
        <ele>522.1</ele>
        <time>1970-01-01T01:59:38.000Z</time>
      </trkpt>
      <trkpt lat="42.801288" lon="-7.881197">
        <ele>522.2</ele>
        <time>1970-01-01T01:59:39.000Z</time>
      </trkpt>
      <trkpt lat="42.80127" lon="-7.881227">
        <ele>522.2</ele>
        <time>1970-01-01T01:59:40.000Z</time>
      </trkpt>
      <trkpt lat="42.801249" lon="-7.881256">
        <ele>522.3</ele>
        <time>1970-01-01T01:59:41.000Z</time>
      </trkpt>
      <trkpt lat="42.801249" lon="-7.881256">
        <ele>522.3</ele>
        <time>1970-01-01T01:59:42.000Z</time>
      </trkpt>
      <trkpt lat="42.801224" lon="-7.881288">
        <ele>522.3</ele>
        <time>1970-01-01T01:59:43.000Z</time>
      </trkpt>
      <trkpt lat="42.801173" lon="-7.881356">
        <ele>522.5</ele>
        <time>1970-01-01T01:59:44.000Z</time>
      </trkpt>
      <trkpt lat="42.801144" lon="-7.881391">
        <ele>522.5</ele>
        <time>1970-01-01T01:59:45.000Z</time>
      </trkpt>
      <trkpt lat="42.801114" lon="-7.881427">
        <ele>522.6</ele>
        <time>1970-01-01T01:59:46.000Z</time>
      </trkpt>
      <trkpt lat="42.801084" lon="-7.881462">
        <ele>522.7</ele>
        <time>1970-01-01T01:59:47.000Z</time>
      </trkpt>
      <trkpt lat="42.801054" lon="-7.881497">
        <ele>522.7</ele>
        <time>1970-01-01T01:59:48.000Z</time>
      </trkpt>
      <trkpt lat="42.801023" lon="-7.88153">
        <ele>522.8</ele>
        <time>1970-01-01T01:59:49.000Z</time>
      </trkpt>
      <trkpt lat="42.800992" lon="-7.881563">
        <ele>522.8</ele>
        <time>1970-01-01T01:59:50.000Z</time>
      </trkpt>
      <trkpt lat="42.800961" lon="-7.881595">
        <ele>522.9</ele>
        <time>1970-01-01T01:59:51.000Z</time>
      </trkpt>
      <trkpt lat="42.800945" lon="-7.88161">
        <ele>522.9</ele>
        <time>1970-01-01T01:59:52.000Z</time>
      </trkpt>
      <trkpt lat="42.800928" lon="-7.881624">
        <ele>523</ele>
        <time>1970-01-01T01:59:53.000Z</time>
      </trkpt>
      <trkpt lat="42.800866" lon="-7.881682">
        <ele>523.1</ele>
        <time>1970-01-01T01:59:54.000Z</time>
      </trkpt>
      <trkpt lat="42.800834" lon="-7.881707">
        <ele>523.2</ele>
        <time>1970-01-01T01:59:55.000Z</time>
      </trkpt>
      <trkpt lat="42.800802" lon="-7.881724">
        <ele>523.3</ele>
        <time>1970-01-01T01:59:56.000Z</time>
      </trkpt>
      <trkpt lat="42.800769" lon="-7.881726">
        <ele>523.3</ele>
        <time>1970-01-01T01:59:57.000Z</time>
      </trkpt>
      <trkpt lat="42.800736" lon="-7.881728">
        <ele>523.4</ele>
        <time>1970-01-01T01:59:58.000Z</time>
      </trkpt>
      <trkpt lat="42.800713" lon="-7.881698">
        <ele>523.4</ele>
        <time>1970-01-01T01:59:59.000Z</time>
      </trkpt>
      <trkpt lat="42.800689" lon="-7.881669">
        <ele>523.4</ele>
        <time>1970-01-01T02:00:00.000Z</time>
      </trkpt>
      <trkpt lat="42.80067" lon="-7.881624">
        <ele>523.4</ele>
        <time>1970-01-01T02:00:01.000Z</time>
      </trkpt>
      <trkpt lat="42.800655" lon="-7.881573">
        <ele>523.4</ele>
        <time>1970-01-01T02:00:02.000Z</time>
      </trkpt>
      <trkpt lat="42.800648" lon="-7.881547">
        <ele>523.4</ele>
        <time>1970-01-01T02:00:03.000Z</time>
      </trkpt>
      <trkpt lat="42.80064" lon="-7.881521">
        <ele>523.4</ele>
        <time>1970-01-01T02:00:04.000Z</time>
      </trkpt>
      <trkpt lat="42.800611" lon="-7.881414">
        <ele>523.5</ele>
        <time>1970-01-01T02:00:05.000Z</time>
      </trkpt>
      <trkpt lat="42.800597" lon="-7.881358">
        <ele>523.5</ele>
        <time>1970-01-01T02:00:06.000Z</time>
      </trkpt>
      <trkpt lat="42.800584" lon="-7.881302">
        <ele>523.5</ele>
        <time>1970-01-01T02:00:07.000Z</time>
      </trkpt>
      <trkpt lat="42.800579" lon="-7.881274">
        <ele>523.6</ele>
        <time>1970-01-01T02:00:08.000Z</time>
      </trkpt>
      <trkpt lat="42.800573" lon="-7.881247">
        <ele>523.6</ele>
        <time>1970-01-01T02:00:09.000Z</time>
      </trkpt>
      <trkpt lat="42.800553" lon="-7.881134">
        <ele>523.9</ele>
        <time>1970-01-01T02:00:10.000Z</time>
      </trkpt>
      <trkpt lat="42.800544" lon="-7.881082">
        <ele>524</ele>
        <time>1970-01-01T02:00:11.000Z</time>
      </trkpt>
      <trkpt lat="42.800534" lon="-7.88103">
        <ele>524.3</ele>
        <time>1970-01-01T02:00:12.000Z</time>
      </trkpt>
      <trkpt lat="42.800524" lon="-7.88098">
        <ele>524.5</ele>
        <time>1970-01-01T02:00:13.000Z</time>
      </trkpt>
      <trkpt lat="42.800514" lon="-7.880931">
        <ele>524.7</ele>
        <time>1970-01-01T02:00:14.000Z</time>
      </trkpt>
      <trkpt lat="42.800504" lon="-7.880886">
        <ele>524.8</ele>
        <time>1970-01-01T02:00:15.000Z</time>
      </trkpt>
      <trkpt lat="42.800493" lon="-7.880843">
        <ele>525</ele>
        <time>1970-01-01T02:00:16.000Z</time>
      </trkpt>
      <trkpt lat="42.800484" lon="-7.880799">
        <ele>525.1</ele>
        <time>1970-01-01T02:00:17.000Z</time>
      </trkpt>
      <trkpt lat="42.800477" lon="-7.880756">
        <ele>525.2</ele>
        <time>1970-01-01T02:00:18.000Z</time>
      </trkpt>
      <trkpt lat="42.800469" lon="-7.880713">
        <ele>525.3</ele>
        <time>1970-01-01T02:00:19.000Z</time>
      </trkpt>
      <trkpt lat="42.80046" lon="-7.880672">
        <ele>525.3</ele>
        <time>1970-01-01T02:00:20.000Z</time>
      </trkpt>
      <trkpt lat="42.800454" lon="-7.880638">
        <ele>525.4</ele>
        <time>1970-01-01T02:00:21.000Z</time>
      </trkpt>
      <trkpt lat="42.800447" lon="-7.880602">
        <ele>525.4</ele>
        <time>1970-01-01T02:00:22.000Z</time>
      </trkpt>
      <trkpt lat="42.800441" lon="-7.880564">
        <ele>525.4</ele>
        <time>1970-01-01T02:00:23.000Z</time>
      </trkpt>
      <trkpt lat="42.800434" lon="-7.880527">
        <ele>525.4</ele>
        <time>1970-01-01T02:00:24.000Z</time>
      </trkpt>
      <trkpt lat="42.800426" lon="-7.88049">
        <ele>525.4</ele>
        <time>1970-01-01T02:00:25.000Z</time>
      </trkpt>
      <trkpt lat="42.800415" lon="-7.880453">
        <ele>525.4</ele>
        <time>1970-01-01T02:00:26.000Z</time>
      </trkpt>
      <trkpt lat="42.800403" lon="-7.880415">
        <ele>525.3</ele>
        <time>1970-01-01T02:00:27.000Z</time>
      </trkpt>
      <trkpt lat="42.800392" lon="-7.880376">
        <ele>525.3</ele>
        <time>1970-01-01T02:00:28.000Z</time>
      </trkpt>
      <trkpt lat="42.800381" lon="-7.88034">
        <ele>525.2</ele>
        <time>1970-01-01T02:00:29.000Z</time>
      </trkpt>
      <trkpt lat="42.800367" lon="-7.880302">
        <ele>525.1</ele>
        <time>1970-01-01T02:00:30.000Z</time>
      </trkpt>
      <trkpt lat="42.800352" lon="-7.880265">
        <ele>525.1</ele>
        <time>1970-01-01T02:00:31.000Z</time>
      </trkpt>
      <trkpt lat="42.800337" lon="-7.880228">
        <ele>525</ele>
        <time>1970-01-01T02:00:32.000Z</time>
      </trkpt>
      <trkpt lat="42.800321" lon="-7.880192">
        <ele>524.9</ele>
        <time>1970-01-01T02:00:33.000Z</time>
      </trkpt>
      <trkpt lat="42.800306" lon="-7.880156">
        <ele>524.9</ele>
        <time>1970-01-01T02:00:34.000Z</time>
      </trkpt>
      <trkpt lat="42.80029" lon="-7.880117">
        <ele>524.8</ele>
        <time>1970-01-01T02:00:35.000Z</time>
      </trkpt>
      <trkpt lat="42.800279" lon="-7.880081">
        <ele>524.7</ele>
        <time>1970-01-01T02:00:36.000Z</time>
      </trkpt>
      <trkpt lat="42.800264" lon="-7.880045">
        <ele>524.6</ele>
        <time>1970-01-01T02:00:37.000Z</time>
      </trkpt>
      <trkpt lat="42.800245" lon="-7.880016">
        <ele>524.6</ele>
        <time>1970-01-01T02:00:38.000Z</time>
      </trkpt>
      <trkpt lat="42.800222" lon="-7.879988">
        <ele>524.6</ele>
        <time>1970-01-01T02:00:39.000Z</time>
      </trkpt>
      <trkpt lat="42.800199" lon="-7.879961">
        <ele>524.5</ele>
        <time>1970-01-01T02:00:40.000Z</time>
      </trkpt>
      <trkpt lat="42.800177" lon="-7.879933">
        <ele>524.5</ele>
        <time>1970-01-01T02:00:41.000Z</time>
      </trkpt>
      <trkpt lat="42.800156" lon="-7.879907">
        <ele>524.5</ele>
        <time>1970-01-01T02:00:42.000Z</time>
      </trkpt>
      <trkpt lat="42.800134" lon="-7.879881">
        <ele>524.5</ele>
        <time>1970-01-01T02:00:43.000Z</time>
      </trkpt>
      <trkpt lat="42.800111" lon="-7.879852">
        <ele>524.4</ele>
        <time>1970-01-01T02:00:44.000Z</time>
      </trkpt>
      <trkpt lat="42.800088" lon="-7.879822">
        <ele>524.4</ele>
        <time>1970-01-01T02:00:45.000Z</time>
      </trkpt>
      <trkpt lat="42.800067" lon="-7.879792">
        <ele>524.4</ele>
        <time>1970-01-01T02:00:46.000Z</time>
      </trkpt>
      <trkpt lat="42.800046" lon="-7.87976">
        <ele>524.4</ele>
        <time>1970-01-01T02:00:47.000Z</time>
      </trkpt>
      <trkpt lat="42.800025" lon="-7.879732">
        <ele>524.3</ele>
        <time>1970-01-01T02:00:48.000Z</time>
      </trkpt>
      <trkpt lat="42.800003" lon="-7.8797">
        <ele>524.2</ele>
        <time>1970-01-01T02:00:49.000Z</time>
      </trkpt>
      <trkpt lat="42.799982" lon="-7.879672">
        <ele>524.2</ele>
        <time>1970-01-01T02:00:50.000Z</time>
      </trkpt>
      <trkpt lat="42.799961" lon="-7.879646">
        <ele>524.1</ele>
        <time>1970-01-01T02:00:51.000Z</time>
      </trkpt>
      <trkpt lat="42.799939" lon="-7.87962">
        <ele>524</ele>
        <time>1970-01-01T02:00:52.000Z</time>
      </trkpt>
      <trkpt lat="42.799916" lon="-7.879592">
        <ele>523.9</ele>
        <time>1970-01-01T02:00:53.000Z</time>
      </trkpt>
      <trkpt lat="42.799892" lon="-7.879563">
        <ele>523.8</ele>
        <time>1970-01-01T02:00:54.000Z</time>
      </trkpt>
      <trkpt lat="42.799868" lon="-7.879537">
        <ele>523.7</ele>
        <time>1970-01-01T02:00:55.000Z</time>
      </trkpt>
      <trkpt lat="42.799843" lon="-7.879509">
        <ele>523.6</ele>
        <time>1970-01-01T02:00:56.000Z</time>
      </trkpt>
      <trkpt lat="42.799822" lon="-7.879485">
        <ele>523.4</ele>
        <time>1970-01-01T02:00:57.000Z</time>
      </trkpt>
      <trkpt lat="42.7998" lon="-7.879469">
        <ele>523.2</ele>
        <time>1970-01-01T02:00:58.000Z</time>
      </trkpt>
      <trkpt lat="42.79978" lon="-7.879453">
        <ele>523</ele>
        <time>1970-01-01T02:00:59.000Z</time>
      </trkpt>
      <trkpt lat="42.799764" lon="-7.879439">
        <ele>522.9</ele>
        <time>1970-01-01T02:01:00.000Z</time>
      </trkpt>
      <trkpt lat="42.799749" lon="-7.879421">
        <ele>522.7</ele>
        <time>1970-01-01T02:01:01.000Z</time>
      </trkpt>
      <trkpt lat="42.799731" lon="-7.879404">
        <ele>522.5</ele>
        <time>1970-01-01T02:01:02.000Z</time>
      </trkpt>
      <trkpt lat="42.799714" lon="-7.879393">
        <ele>522.4</ele>
        <time>1970-01-01T02:01:03.000Z</time>
      </trkpt>
      <trkpt lat="42.799693" lon="-7.879387">
        <ele>522.2</ele>
        <time>1970-01-01T02:01:04.000Z</time>
      </trkpt>
      <trkpt lat="42.799671" lon="-7.879379">
        <ele>522</ele>
        <time>1970-01-01T02:01:05.000Z</time>
      </trkpt>
      <trkpt lat="42.799649" lon="-7.879367">
        <ele>521.8</ele>
        <time>1970-01-01T02:01:06.000Z</time>
      </trkpt>
      <trkpt lat="42.799628" lon="-7.879359">
        <ele>521.6</ele>
        <time>1970-01-01T02:01:07.000Z</time>
      </trkpt>
      <trkpt lat="42.799608" lon="-7.87933">
        <ele>521.4</ele>
        <time>1970-01-01T02:01:08.000Z</time>
      </trkpt>
      <trkpt lat="42.799588" lon="-7.879296">
        <ele>521.1</ele>
        <time>1970-01-01T02:01:09.000Z</time>
      </trkpt>
      <trkpt lat="42.799569" lon="-7.87927">
        <ele>520.9</ele>
        <time>1970-01-01T02:01:10.000Z</time>
      </trkpt>
      <trkpt lat="42.799552" lon="-7.879239">
        <ele>520.6</ele>
        <time>1970-01-01T02:01:11.000Z</time>
      </trkpt>
      <trkpt lat="42.799534" lon="-7.879211">
        <ele>520.4</ele>
        <time>1970-01-01T02:01:12.000Z</time>
      </trkpt>
      <trkpt lat="42.799511" lon="-7.879179">
        <ele>520</ele>
        <time>1970-01-01T02:01:13.000Z</time>
      </trkpt>
      <trkpt lat="42.799487" lon="-7.879149">
        <ele>519.7</ele>
        <time>1970-01-01T02:01:14.000Z</time>
      </trkpt>
      <trkpt lat="42.799461" lon="-7.879114">
        <ele>519.3</ele>
        <time>1970-01-01T02:01:15.000Z</time>
      </trkpt>
      <trkpt lat="42.79944" lon="-7.87908">
        <ele>518.9</ele>
        <time>1970-01-01T02:01:16.000Z</time>
      </trkpt>
      <trkpt lat="42.799416" lon="-7.87904">
        <ele>518.6</ele>
        <time>1970-01-01T02:01:17.000Z</time>
      </trkpt>
      <trkpt lat="42.799392" lon="-7.879">
        <ele>518.2</ele>
        <time>1970-01-01T02:01:18.000Z</time>
      </trkpt>
      <trkpt lat="42.799368" lon="-7.878963">
        <ele>517.9</ele>
        <time>1970-01-01T02:01:19.000Z</time>
      </trkpt>
      <trkpt lat="42.799341" lon="-7.878925">
        <ele>517.6</ele>
        <time>1970-01-01T02:01:20.000Z</time>
      </trkpt>
      <trkpt lat="42.799319" lon="-7.878889">
        <ele>517.3</ele>
        <time>1970-01-01T02:01:21.000Z</time>
      </trkpt>
      <trkpt lat="42.799295" lon="-7.878853">
        <ele>517</ele>
        <time>1970-01-01T02:01:22.000Z</time>
      </trkpt>
      <trkpt lat="42.799268" lon="-7.878814">
        <ele>516.7</ele>
        <time>1970-01-01T02:01:23.000Z</time>
      </trkpt>
      <trkpt lat="42.799242" lon="-7.878775">
        <ele>516.4</ele>
        <time>1970-01-01T02:01:24.000Z</time>
      </trkpt>
      <trkpt lat="42.799219" lon="-7.878742">
        <ele>516.2</ele>
        <time>1970-01-01T02:01:25.000Z</time>
      </trkpt>
      <trkpt lat="42.799194" lon="-7.878704">
        <ele>516</ele>
        <time>1970-01-01T02:01:26.000Z</time>
      </trkpt>
      <trkpt lat="42.799169" lon="-7.878665">
        <ele>515.9</ele>
        <time>1970-01-01T02:01:27.000Z</time>
      </trkpt>
      <trkpt lat="42.799141" lon="-7.878625">
        <ele>515.7</ele>
        <time>1970-01-01T02:01:28.000Z</time>
      </trkpt>
      <trkpt lat="42.799113" lon="-7.878584">
        <ele>515.6</ele>
        <time>1970-01-01T02:01:29.000Z</time>
      </trkpt>
      <trkpt lat="42.799085" lon="-7.878546">
        <ele>515.5</ele>
        <time>1970-01-01T02:01:30.000Z</time>
      </trkpt>
      <trkpt lat="42.799058" lon="-7.878509">
        <ele>515.4</ele>
        <time>1970-01-01T02:01:31.000Z</time>
      </trkpt>
      <trkpt lat="42.799036" lon="-7.878473">
        <ele>515.4</ele>
        <time>1970-01-01T02:01:32.000Z</time>
      </trkpt>
      <trkpt lat="42.799014" lon="-7.87844">
        <ele>515.3</ele>
        <time>1970-01-01T02:01:33.000Z</time>
      </trkpt>
      <trkpt lat="42.79899" lon="-7.878406">
        <ele>515.3</ele>
        <time>1970-01-01T02:01:34.000Z</time>
      </trkpt>
      <trkpt lat="42.798963" lon="-7.878368">
        <ele>515.2</ele>
        <time>1970-01-01T02:01:35.000Z</time>
      </trkpt>
      <trkpt lat="42.798938" lon="-7.878326">
        <ele>515.1</ele>
        <time>1970-01-01T02:01:36.000Z</time>
      </trkpt>
      <trkpt lat="42.798912" lon="-7.878284">
        <ele>515</ele>
        <time>1970-01-01T02:01:37.000Z</time>
      </trkpt>
      <trkpt lat="42.798886" lon="-7.878243">
        <ele>514.9</ele>
        <time>1970-01-01T02:01:38.000Z</time>
      </trkpt>
      <trkpt lat="42.798859" lon="-7.878201">
        <ele>514.8</ele>
        <time>1970-01-01T02:01:39.000Z</time>
      </trkpt>
      <trkpt lat="42.798833" lon="-7.878158">
        <ele>514.8</ele>
        <time>1970-01-01T02:01:40.000Z</time>
      </trkpt>
      <trkpt lat="42.798805" lon="-7.878112">
        <ele>514.7</ele>
        <time>1970-01-01T02:01:41.000Z</time>
      </trkpt>
      <trkpt lat="42.798776" lon="-7.878063">
        <ele>514.6</ele>
        <time>1970-01-01T02:01:42.000Z</time>
      </trkpt>
      <trkpt lat="42.798747" lon="-7.87801">
        <ele>514.6</ele>
        <time>1970-01-01T02:01:43.000Z</time>
      </trkpt>
      <trkpt lat="42.798716" lon="-7.877952">
        <ele>514.6</ele>
        <time>1970-01-01T02:01:44.000Z</time>
      </trkpt>
      <trkpt lat="42.798683" lon="-7.877893">
        <ele>514.5</ele>
        <time>1970-01-01T02:01:45.000Z</time>
      </trkpt>
      <trkpt lat="42.798652" lon="-7.877831">
        <ele>514.5</ele>
        <time>1970-01-01T02:01:46.000Z</time>
      </trkpt>
      <trkpt lat="42.798621" lon="-7.877767">
        <ele>514.5</ele>
        <time>1970-01-01T02:01:47.000Z</time>
      </trkpt>
      <trkpt lat="42.798591" lon="-7.877702">
        <ele>514.5</ele>
        <time>1970-01-01T02:01:48.000Z</time>
      </trkpt>
      <trkpt lat="42.798563" lon="-7.877633">
        <ele>514.5</ele>
        <time>1970-01-01T02:01:49.000Z</time>
      </trkpt>
      <trkpt lat="42.798537" lon="-7.87756">
        <ele>514.5</ele>
        <time>1970-01-01T02:01:50.000Z</time>
      </trkpt>
      <trkpt lat="42.798511" lon="-7.877486">
        <ele>514.5</ele>
        <time>1970-01-01T02:01:51.000Z</time>
      </trkpt>
      <trkpt lat="42.798483" lon="-7.877413">
        <ele>514.5</ele>
        <time>1970-01-01T02:01:52.000Z</time>
      </trkpt>
      <trkpt lat="42.798458" lon="-7.87734">
        <ele>514.5</ele>
        <time>1970-01-01T02:01:53.000Z</time>
      </trkpt>
      <trkpt lat="42.798433" lon="-7.877267">
        <ele>514.5</ele>
        <time>1970-01-01T02:01:54.000Z</time>
      </trkpt>
      <trkpt lat="42.798407" lon="-7.877196">
        <ele>514.5</ele>
        <time>1970-01-01T02:01:55.000Z</time>
      </trkpt>
      <trkpt lat="42.798382" lon="-7.877117">
        <ele>514.5</ele>
        <time>1970-01-01T02:01:56.000Z</time>
      </trkpt>
      <trkpt lat="42.79836" lon="-7.877042">
        <ele>514.5</ele>
        <time>1970-01-01T02:01:57.000Z</time>
      </trkpt>
      <trkpt lat="42.798339" lon="-7.876969">
        <ele>514.5</ele>
        <time>1970-01-01T02:01:58.000Z</time>
      </trkpt>
      <trkpt lat="42.798322" lon="-7.876895">
        <ele>514.5</ele>
        <time>1970-01-01T02:01:59.000Z</time>
      </trkpt>
      <trkpt lat="42.798305" lon="-7.876818">
        <ele>514.5</ele>
        <time>1970-01-01T02:02:00.000Z</time>
      </trkpt>
      <trkpt lat="42.798291" lon="-7.876751">
        <ele>514.4</ele>
        <time>1970-01-01T02:02:01.000Z</time>
      </trkpt>
      <trkpt lat="42.798275" lon="-7.876686">
        <ele>514.3</ele>
        <time>1970-01-01T02:02:02.000Z</time>
      </trkpt>
      <trkpt lat="42.79826" lon="-7.876628">
        <ele>514</ele>
        <time>1970-01-01T02:02:03.000Z</time>
      </trkpt>
      <trkpt lat="42.798248" lon="-7.876581">
        <ele>513.8</ele>
        <time>1970-01-01T02:02:04.000Z</time>
      </trkpt>
      <trkpt lat="42.798239" lon="-7.876535">
        <ele>513.5</ele>
        <time>1970-01-01T02:02:05.000Z</time>
      </trkpt>
      <trkpt lat="42.798226" lon="-7.87649">
        <ele>513.2</ele>
        <time>1970-01-01T02:02:06.000Z</time>
      </trkpt>
      <trkpt lat="42.798212" lon="-7.876439">
        <ele>512.8</ele>
        <time>1970-01-01T02:02:07.000Z</time>
      </trkpt>
      <trkpt lat="42.798192" lon="-7.876385">
        <ele>512.4</ele>
        <time>1970-01-01T02:02:08.000Z</time>
      </trkpt>
      <trkpt lat="42.798163" lon="-7.876332">
        <ele>511.8</ele>
        <time>1970-01-01T02:02:09.000Z</time>
      </trkpt>
      <trkpt lat="42.798126" lon="-7.876278">
        <ele>511.2</ele>
        <time>1970-01-01T02:02:10.000Z</time>
      </trkpt>
      <trkpt lat="42.798079" lon="-7.876227">
        <ele>510.7</ele>
        <time>1970-01-01T02:02:11.000Z</time>
      </trkpt>
      <trkpt lat="42.798033" lon="-7.876184">
        <ele>510.3</ele>
        <time>1970-01-01T02:02:12.000Z</time>
      </trkpt>
      <trkpt lat="42.797976" lon="-7.876143">
        <ele>509.8</ele>
        <time>1970-01-01T02:02:13.000Z</time>
      </trkpt>
      <trkpt lat="42.797912" lon="-7.876112">
        <ele>509.2</ele>
        <time>1970-01-01T02:02:14.000Z</time>
      </trkpt>
      <trkpt lat="42.797845" lon="-7.87608">
        <ele>508.6</ele>
        <time>1970-01-01T02:02:15.000Z</time>
      </trkpt>
      <trkpt lat="42.797767" lon="-7.87606">
        <ele>507.9</ele>
        <time>1970-01-01T02:02:16.000Z</time>
      </trkpt>
      <trkpt lat="42.797683" lon="-7.876054">
        <ele>507.3</ele>
        <time>1970-01-01T02:02:17.000Z</time>
      </trkpt>
      <trkpt lat="42.797594" lon="-7.876045">
        <ele>506.4</ele>
        <time>1970-01-01T02:02:18.000Z</time>
      </trkpt>
      <trkpt lat="42.797497" lon="-7.87604">
        <ele>505.2</ele>
        <time>1970-01-01T02:02:19.000Z</time>
      </trkpt>
      <trkpt lat="42.797396" lon="-7.87603">
        <ele>503.9</ele>
        <time>1970-01-01T02:02:20.000Z</time>
      </trkpt>
      <trkpt lat="42.797289" lon="-7.876002">
        <ele>502.4</ele>
        <time>1970-01-01T02:02:21.000Z</time>
      </trkpt>
      <trkpt lat="42.797191" lon="-7.875995">
        <ele>501.2</ele>
        <time>1970-01-01T02:02:22.000Z</time>
      </trkpt>
      <trkpt lat="42.797087" lon="-7.875976">
        <ele>500.6</ele>
        <time>1970-01-01T02:02:23.000Z</time>
      </trkpt>
      <trkpt lat="42.796986" lon="-7.875953">
        <ele>500.2</ele>
        <time>1970-01-01T02:02:24.000Z</time>
      </trkpt>
      <trkpt lat="42.796894" lon="-7.875931">
        <ele>499.7</ele>
        <time>1970-01-01T02:02:25.000Z</time>
      </trkpt>
      <trkpt lat="42.79681" lon="-7.875896">
        <ele>498.9</ele>
        <time>1970-01-01T02:02:26.000Z</time>
      </trkpt>
      <trkpt lat="42.796736" lon="-7.875847">
        <ele>498.3</ele>
        <time>1970-01-01T02:02:27.000Z</time>
      </trkpt>
      <trkpt lat="42.796663" lon="-7.875785">
        <ele>497.7</ele>
        <time>1970-01-01T02:02:28.000Z</time>
      </trkpt>
      <trkpt lat="42.796598" lon="-7.875717">
        <ele>497.2</ele>
        <time>1970-01-01T02:02:29.000Z</time>
      </trkpt>
      <trkpt lat="42.796531" lon="-7.875635">
        <ele>497.1</ele>
        <time>1970-01-01T02:02:30.000Z</time>
      </trkpt>
      <trkpt lat="42.79646" lon="-7.87556">
        <ele>497.3</ele>
        <time>1970-01-01T02:02:31.000Z</time>
      </trkpt>
      <trkpt lat="42.796391" lon="-7.87548">
        <ele>497.9</ele>
        <time>1970-01-01T02:02:32.000Z</time>
      </trkpt>
      <trkpt lat="42.796324" lon="-7.875404">
        <ele>498.5</ele>
        <time>1970-01-01T02:02:33.000Z</time>
      </trkpt>
      <trkpt lat="42.796268" lon="-7.875328">
        <ele>499.1</ele>
        <time>1970-01-01T02:02:34.000Z</time>
      </trkpt>
      <trkpt lat="42.796221" lon="-7.875257">
        <ele>499.6</ele>
        <time>1970-01-01T02:02:35.000Z</time>
      </trkpt>
      <trkpt lat="42.79619" lon="-7.875176">
        <ele>500</ele>
        <time>1970-01-01T02:02:36.000Z</time>
      </trkpt>
      <trkpt lat="42.796174" lon="-7.875089">
        <ele>500.4</ele>
        <time>1970-01-01T02:02:37.000Z</time>
      </trkpt>
      <trkpt lat="42.796169" lon="-7.875004">
        <ele>500.6</ele>
        <time>1970-01-01T02:02:38.000Z</time>
      </trkpt>
      <trkpt lat="42.796172" lon="-7.87492">
        <ele>501</ele>
        <time>1970-01-01T02:02:39.000Z</time>
      </trkpt>
      <trkpt lat="42.796176" lon="-7.874835">
        <ele>501.3</ele>
        <time>1970-01-01T02:02:40.000Z</time>
      </trkpt>
      <trkpt lat="42.796183" lon="-7.874758">
        <ele>501.8</ele>
        <time>1970-01-01T02:02:41.000Z</time>
      </trkpt>
      <trkpt lat="42.796189" lon="-7.874688">
        <ele>502.2</ele>
        <time>1970-01-01T02:02:42.000Z</time>
      </trkpt>
      <trkpt lat="42.796196" lon="-7.874623">
        <ele>502.7</ele>
        <time>1970-01-01T02:02:43.000Z</time>
      </trkpt>
      <trkpt lat="42.796209" lon="-7.874566">
        <ele>503.1</ele>
        <time>1970-01-01T02:02:44.000Z</time>
      </trkpt>
      <trkpt lat="42.796216" lon="-7.874498">
        <ele>503.6</ele>
        <time>1970-01-01T02:02:45.000Z</time>
      </trkpt>
      <trkpt lat="42.796227" lon="-7.874436">
        <ele>504.1</ele>
        <time>1970-01-01T02:02:46.000Z</time>
      </trkpt>
      <trkpt lat="42.796241" lon="-7.87438">
        <ele>504.6</ele>
        <time>1970-01-01T02:02:47.000Z</time>
      </trkpt>
      <trkpt lat="42.796256" lon="-7.874328">
        <ele>505.1</ele>
        <time>1970-01-01T02:02:48.000Z</time>
      </trkpt>
      <trkpt lat="42.79627" lon="-7.874278">
        <ele>505.5</ele>
        <time>1970-01-01T02:02:49.000Z</time>
      </trkpt>
      <trkpt lat="42.796287" lon="-7.874232">
        <ele>505.9</ele>
        <time>1970-01-01T02:02:50.000Z</time>
      </trkpt>
      <trkpt lat="42.796303" lon="-7.874191">
        <ele>506.2</ele>
        <time>1970-01-01T02:02:51.000Z</time>
      </trkpt>
      <trkpt lat="42.796319" lon="-7.874147">
        <ele>506.5</ele>
        <time>1970-01-01T02:02:52.000Z</time>
      </trkpt>
      <trkpt lat="42.796327" lon="-7.874101">
        <ele>506.7</ele>
        <time>1970-01-01T02:02:53.000Z</time>
      </trkpt>
      <trkpt lat="42.796334" lon="-7.874053">
        <ele>506.9</ele>
        <time>1970-01-01T02:02:54.000Z</time>
      </trkpt>
      <trkpt lat="42.796338" lon="-7.874004">
        <ele>507.1</ele>
        <time>1970-01-01T02:02:55.000Z</time>
      </trkpt>
      <trkpt lat="42.796343" lon="-7.873953">
        <ele>507.2</ele>
        <time>1970-01-01T02:02:56.000Z</time>
      </trkpt>
      <trkpt lat="42.796349" lon="-7.873899">
        <ele>507.3</ele>
        <time>1970-01-01T02:02:57.000Z</time>
      </trkpt>
      <trkpt lat="42.796354" lon="-7.873843">
        <ele>507.4</ele>
        <time>1970-01-01T02:02:58.000Z</time>
      </trkpt>
      <trkpt lat="42.796355" lon="-7.873788">
        <ele>507.5</ele>
        <time>1970-01-01T02:02:59.000Z</time>
      </trkpt>
      <trkpt lat="42.796353" lon="-7.873734">
        <ele>507.5</ele>
        <time>1970-01-01T02:03:00.000Z</time>
      </trkpt>
      <trkpt lat="42.796348" lon="-7.873678">
        <ele>507.6</ele>
        <time>1970-01-01T02:03:01.000Z</time>
      </trkpt>
      <trkpt lat="42.796349" lon="-7.873619">
        <ele>507.6</ele>
        <time>1970-01-01T02:03:02.000Z</time>
      </trkpt>
      <trkpt lat="42.796349" lon="-7.87356">
        <ele>507.6</ele>
        <time>1970-01-01T02:03:03.000Z</time>
      </trkpt>
      <trkpt lat="42.796345" lon="-7.873499">
        <ele>507.6</ele>
        <time>1970-01-01T02:03:04.000Z</time>
      </trkpt>
      <trkpt lat="42.796339" lon="-7.87344">
        <ele>507.6</ele>
        <time>1970-01-01T02:03:05.000Z</time>
      </trkpt>
      <trkpt lat="42.796329" lon="-7.87338">
        <ele>507.6</ele>
        <time>1970-01-01T02:03:06.000Z</time>
      </trkpt>
      <trkpt lat="42.796319" lon="-7.873319">
        <ele>507.7</ele>
        <time>1970-01-01T02:03:07.000Z</time>
      </trkpt>
      <trkpt lat="42.796309" lon="-7.87326">
        <ele>507.8</ele>
        <time>1970-01-01T02:03:08.000Z</time>
      </trkpt>
      <trkpt lat="42.796299" lon="-7.873199">
        <ele>507.9</ele>
        <time>1970-01-01T02:03:09.000Z</time>
      </trkpt>
      <trkpt lat="42.796293" lon="-7.873138">
        <ele>508.1</ele>
        <time>1970-01-01T02:03:10.000Z</time>
      </trkpt>
      <trkpt lat="42.796282" lon="-7.873077">
        <ele>508.4</ele>
        <time>1970-01-01T02:03:11.000Z</time>
      </trkpt>
      <trkpt lat="42.796267" lon="-7.873016">
        <ele>508.7</ele>
        <time>1970-01-01T02:03:12.000Z</time>
      </trkpt>
      <trkpt lat="42.796251" lon="-7.872956">
        <ele>508.9</ele>
        <time>1970-01-01T02:03:13.000Z</time>
      </trkpt>
      <trkpt lat="42.796234" lon="-7.872897">
        <ele>509.1</ele>
        <time>1970-01-01T02:03:14.000Z</time>
      </trkpt>
      <trkpt lat="42.796221" lon="-7.872839">
        <ele>509.3</ele>
        <time>1970-01-01T02:03:15.000Z</time>
      </trkpt>
      <trkpt lat="42.796204" lon="-7.872776">
        <ele>509.4</ele>
        <time>1970-01-01T02:03:16.000Z</time>
      </trkpt>
      <trkpt lat="42.796182" lon="-7.872725">
        <ele>509.5</ele>
        <time>1970-01-01T02:03:17.000Z</time>
      </trkpt>
      <trkpt lat="42.796162" lon="-7.872692">
        <ele>509.5</ele>
        <time>1970-01-01T02:03:18.000Z</time>
      </trkpt>
      <trkpt lat="42.79615" lon="-7.872658">
        <ele>509.6</ele>
        <time>1970-01-01T02:03:19.000Z</time>
      </trkpt>
      <trkpt lat="42.796137" lon="-7.87263">
        <ele>509.6</ele>
        <time>1970-01-01T02:03:20.000Z</time>
      </trkpt>
      <trkpt lat="42.796126" lon="-7.872597">
        <ele>509.6</ele>
        <time>1970-01-01T02:03:21.000Z</time>
      </trkpt>
      <trkpt lat="42.796111" lon="-7.872558">
        <ele>509.6</ele>
        <time>1970-01-01T02:03:22.000Z</time>
      </trkpt>
      <trkpt lat="42.796097" lon="-7.872504">
        <ele>509.6</ele>
        <time>1970-01-01T02:03:23.000Z</time>
      </trkpt>
      <trkpt lat="42.796086" lon="-7.872462">
        <ele>509.6</ele>
        <time>1970-01-01T02:03:24.000Z</time>
      </trkpt>
      <trkpt lat="42.796077" lon="-7.872426">
        <ele>509.6</ele>
        <time>1970-01-01T02:03:25.000Z</time>
      </trkpt>
      <trkpt lat="42.796069" lon="-7.872385">
        <ele>509.6</ele>
        <time>1970-01-01T02:03:26.000Z</time>
      </trkpt>
      <trkpt lat="42.796059" lon="-7.872336">
        <ele>509.6</ele>
        <time>1970-01-01T02:03:27.000Z</time>
      </trkpt>
      <trkpt lat="42.79605" lon="-7.872293">
        <ele>509.6</ele>
        <time>1970-01-01T02:03:28.000Z</time>
      </trkpt>
      <trkpt lat="42.796037" lon="-7.87224">
        <ele>509.5</ele>
        <time>1970-01-01T02:03:29.000Z</time>
      </trkpt>
      <trkpt lat="42.796023" lon="-7.872175">
        <ele>509.5</ele>
        <time>1970-01-01T02:03:30.000Z</time>
      </trkpt>
      <trkpt lat="42.796006" lon="-7.872108">
        <ele>509.4</ele>
        <time>1970-01-01T02:03:31.000Z</time>
      </trkpt>
      <trkpt lat="42.795993" lon="-7.872039">
        <ele>509.2</ele>
        <time>1970-01-01T02:03:32.000Z</time>
      </trkpt>
      <trkpt lat="42.79598" lon="-7.871966">
        <ele>509</ele>
        <time>1970-01-01T02:03:33.000Z</time>
      </trkpt>
      <trkpt lat="42.795971" lon="-7.87189">
        <ele>508.7</ele>
        <time>1970-01-01T02:03:34.000Z</time>
      </trkpt>
      <trkpt lat="42.795962" lon="-7.871815">
        <ele>508.3</ele>
        <time>1970-01-01T02:03:35.000Z</time>
      </trkpt>
      <trkpt lat="42.795958" lon="-7.871737">
        <ele>508</ele>
        <time>1970-01-01T02:03:36.000Z</time>
      </trkpt>
      <trkpt lat="42.795954" lon="-7.871655">
        <ele>507.8</ele>
        <time>1970-01-01T02:03:37.000Z</time>
      </trkpt>
      <trkpt lat="42.795953" lon="-7.871578">
        <ele>507.5</ele>
        <time>1970-01-01T02:03:38.000Z</time>
      </trkpt>
      <trkpt lat="42.795955" lon="-7.871498">
        <ele>507.3</ele>
        <time>1970-01-01T02:03:39.000Z</time>
      </trkpt>
      <trkpt lat="42.795954" lon="-7.871417">
        <ele>507</ele>
        <time>1970-01-01T02:03:40.000Z</time>
      </trkpt>
      <trkpt lat="42.795953" lon="-7.871338">
        <ele>506.6</ele>
        <time>1970-01-01T02:03:41.000Z</time>
      </trkpt>
      <trkpt lat="42.795952" lon="-7.871262">
        <ele>506.3</ele>
        <time>1970-01-01T02:03:42.000Z</time>
      </trkpt>
      <trkpt lat="42.795951" lon="-7.871185">
        <ele>506</ele>
        <time>1970-01-01T02:03:43.000Z</time>
      </trkpt>
      <trkpt lat="42.795948" lon="-7.871109">
        <ele>505.8</ele>
        <time>1970-01-01T02:03:44.000Z</time>
      </trkpt>
      <trkpt lat="42.795943" lon="-7.871031">
        <ele>505.7</ele>
        <time>1970-01-01T02:03:45.000Z</time>
      </trkpt>
      <trkpt lat="42.795931" lon="-7.870952">
        <ele>505.7</ele>
        <time>1970-01-01T02:03:46.000Z</time>
      </trkpt>
      <trkpt lat="42.795913" lon="-7.870875">
        <ele>505.3</ele>
        <time>1970-01-01T02:03:47.000Z</time>
      </trkpt>
      <trkpt lat="42.795889" lon="-7.870803">
        <ele>504.9</ele>
        <time>1970-01-01T02:03:48.000Z</time>
      </trkpt>
      <trkpt lat="42.795862" lon="-7.870734">
        <ele>504.6</ele>
        <time>1970-01-01T02:03:49.000Z</time>
      </trkpt>
      <trkpt lat="42.79583" lon="-7.870666">
        <ele>504.3</ele>
        <time>1970-01-01T02:03:50.000Z</time>
      </trkpt>
      <trkpt lat="42.795799" lon="-7.870599">
        <ele>503.9</ele>
        <time>1970-01-01T02:03:51.000Z</time>
      </trkpt>
      <trkpt lat="42.795766" lon="-7.870534">
        <ele>503.5</ele>
        <time>1970-01-01T02:03:52.000Z</time>
      </trkpt>
      <trkpt lat="42.795732" lon="-7.870469">
        <ele>503.3</ele>
        <time>1970-01-01T02:03:53.000Z</time>
      </trkpt>
      <trkpt lat="42.795697" lon="-7.870407">
        <ele>503.1</ele>
        <time>1970-01-01T02:03:54.000Z</time>
      </trkpt>
      <trkpt lat="42.795662" lon="-7.870345">
        <ele>502.9</ele>
        <time>1970-01-01T02:03:55.000Z</time>
      </trkpt>
      <trkpt lat="42.795631" lon="-7.870292">
        <ele>502.8</ele>
        <time>1970-01-01T02:03:56.000Z</time>
      </trkpt>
      <trkpt lat="42.795599" lon="-7.87023">
        <ele>502.6</ele>
        <time>1970-01-01T02:03:57.000Z</time>
      </trkpt>
      <trkpt lat="42.795563" lon="-7.870167">
        <ele>502.5</ele>
        <time>1970-01-01T02:03:58.000Z</time>
      </trkpt>
      <trkpt lat="42.795523" lon="-7.870108">
        <ele>502.3</ele>
        <time>1970-01-01T02:03:59.000Z</time>
      </trkpt>
      <trkpt lat="42.79548" lon="-7.870049">
        <ele>502.2</ele>
        <time>1970-01-01T02:04:00.000Z</time>
      </trkpt>
      <trkpt lat="42.795434" lon="-7.869993">
        <ele>502</ele>
        <time>1970-01-01T02:04:01.000Z</time>
      </trkpt>
      <trkpt lat="42.795388" lon="-7.869945">
        <ele>502</ele>
        <time>1970-01-01T02:04:02.000Z</time>
      </trkpt>
      <trkpt lat="42.795343" lon="-7.869899">
        <ele>502.1</ele>
        <time>1970-01-01T02:04:03.000Z</time>
      </trkpt>
      <trkpt lat="42.795298" lon="-7.86986">
        <ele>502.2</ele>
        <time>1970-01-01T02:04:04.000Z</time>
      </trkpt>
      <trkpt lat="42.795253" lon="-7.869825">
        <ele>502.3</ele>
        <time>1970-01-01T02:04:05.000Z</time>
      </trkpt>
      <trkpt lat="42.795207" lon="-7.869782">
        <ele>502.5</ele>
        <time>1970-01-01T02:04:06.000Z</time>
      </trkpt>
      <trkpt lat="42.795164" lon="-7.869744">
        <ele>502.7</ele>
        <time>1970-01-01T02:04:07.000Z</time>
      </trkpt>
      <trkpt lat="42.795125" lon="-7.869698">
        <ele>502.9</ele>
        <time>1970-01-01T02:04:08.000Z</time>
      </trkpt>
      <trkpt lat="42.795088" lon="-7.869647">
        <ele>503.1</ele>
        <time>1970-01-01T02:04:09.000Z</time>
      </trkpt>
      <trkpt lat="42.795056" lon="-7.869594">
        <ele>503.4</ele>
        <time>1970-01-01T02:04:10.000Z</time>
      </trkpt>
      <trkpt lat="42.79503" lon="-7.869536">
        <ele>503.6</ele>
        <time>1970-01-01T02:04:11.000Z</time>
      </trkpt>
      <trkpt lat="42.795018" lon="-7.869474">
        <ele>503.8</ele>
        <time>1970-01-01T02:04:12.000Z</time>
      </trkpt>
      <trkpt lat="42.795027" lon="-7.869411">
        <ele>504</ele>
        <time>1970-01-01T02:04:13.000Z</time>
      </trkpt>
      <trkpt lat="42.795051" lon="-7.869356">
        <ele>504.4</ele>
        <time>1970-01-01T02:04:14.000Z</time>
      </trkpt>
      <trkpt lat="42.795084" lon="-7.869304">
        <ele>504.4</ele>
        <time>1970-01-01T02:04:15.000Z</time>
      </trkpt>
      <trkpt lat="42.795121" lon="-7.869247">
        <ele>504.4</ele>
        <time>1970-01-01T02:04:16.000Z</time>
      </trkpt>
      <trkpt lat="42.795157" lon="-7.869185">
        <ele>504.4</ele>
        <time>1970-01-01T02:04:17.000Z</time>
      </trkpt>
      <trkpt lat="42.795195" lon="-7.869117">
        <ele>504.4</ele>
        <time>1970-01-01T02:04:18.000Z</time>
      </trkpt>
      <trkpt lat="42.795236" lon="-7.869049">
        <ele>504.4</ele>
        <time>1970-01-01T02:04:19.000Z</time>
      </trkpt>
      <trkpt lat="42.795278" lon="-7.868981">
        <ele>504.4</ele>
        <time>1970-01-01T02:04:20.000Z</time>
      </trkpt>
      <trkpt lat="42.79532" lon="-7.868914">
        <ele>504.4</ele>
        <time>1970-01-01T02:04:21.000Z</time>
      </trkpt>
      <trkpt lat="42.795363" lon="-7.868847">
        <ele>504.4</ele>
        <time>1970-01-01T02:04:22.000Z</time>
      </trkpt>
      <trkpt lat="42.795408" lon="-7.868782">
        <ele>504.4</ele>
        <time>1970-01-01T02:04:23.000Z</time>
      </trkpt>
      <trkpt lat="42.795452" lon="-7.868718">
        <ele>504.3</ele>
        <time>1970-01-01T02:04:24.000Z</time>
      </trkpt>
      <trkpt lat="42.795495" lon="-7.868655">
        <ele>504.2</ele>
        <time>1970-01-01T02:04:25.000Z</time>
      </trkpt>
      <trkpt lat="42.795537" lon="-7.868593">
        <ele>504.1</ele>
        <time>1970-01-01T02:04:26.000Z</time>
      </trkpt>
      <trkpt lat="42.795579" lon="-7.868535">
        <ele>503.8</ele>
        <time>1970-01-01T02:04:27.000Z</time>
      </trkpt>
      <trkpt lat="42.795623" lon="-7.868481">
        <ele>503.5</ele>
        <time>1970-01-01T02:04:28.000Z</time>
      </trkpt>
      <trkpt lat="42.795668" lon="-7.868432">
        <ele>503.2</ele>
        <time>1970-01-01T02:04:29.000Z</time>
      </trkpt>
      <trkpt lat="42.795717" lon="-7.868389">
        <ele>502.9</ele>
        <time>1970-01-01T02:04:30.000Z</time>
      </trkpt>
      <trkpt lat="42.795771" lon="-7.868355">
        <ele>502.6</ele>
        <time>1970-01-01T02:04:31.000Z</time>
      </trkpt>
      <trkpt lat="42.795825" lon="-7.868328">
        <ele>502.5</ele>
        <time>1970-01-01T02:04:32.000Z</time>
      </trkpt>
      <trkpt lat="42.795879" lon="-7.8683">
        <ele>502.4</ele>
        <time>1970-01-01T02:04:33.000Z</time>
      </trkpt>
      <trkpt lat="42.795932" lon="-7.868269">
        <ele>502.4</ele>
        <time>1970-01-01T02:04:34.000Z</time>
      </trkpt>
      <trkpt lat="42.795987" lon="-7.868241">
        <ele>502.4</ele>
        <time>1970-01-01T02:04:35.000Z</time>
      </trkpt>
      <trkpt lat="42.796043" lon="-7.868212">
        <ele>502.4</ele>
        <time>1970-01-01T02:04:36.000Z</time>
      </trkpt>
      <trkpt lat="42.796103" lon="-7.868181">
        <ele>502.3</ele>
        <time>1970-01-01T02:04:37.000Z</time>
      </trkpt>
      <trkpt lat="42.796162" lon="-7.868148">
        <ele>502.3</ele>
        <time>1970-01-01T02:04:38.000Z</time>
      </trkpt>
      <trkpt lat="42.796222" lon="-7.868117">
        <ele>502.2</ele>
        <time>1970-01-01T02:04:39.000Z</time>
      </trkpt>
      <trkpt lat="42.796283" lon="-7.868086">
        <ele>501.9</ele>
        <time>1970-01-01T02:04:40.000Z</time>
      </trkpt>
      <trkpt lat="42.796346" lon="-7.868052">
        <ele>501.5</ele>
        <time>1970-01-01T02:04:41.000Z</time>
      </trkpt>
      <trkpt lat="42.796409" lon="-7.868016">
        <ele>501.1</ele>
        <time>1970-01-01T02:04:42.000Z</time>
      </trkpt>
      <trkpt lat="42.796469" lon="-7.867974">
        <ele>500.8</ele>
        <time>1970-01-01T02:04:43.000Z</time>
      </trkpt>
      <trkpt lat="42.796526" lon="-7.867934">
        <ele>500.6</ele>
        <time>1970-01-01T02:04:44.000Z</time>
      </trkpt>
      <trkpt lat="42.79659" lon="-7.867896">
        <ele>500.5</ele>
        <time>1970-01-01T02:04:45.000Z</time>
      </trkpt>
      <trkpt lat="42.796654" lon="-7.867857">
        <ele>500.4</ele>
        <time>1970-01-01T02:04:46.000Z</time>
      </trkpt>
      <trkpt lat="42.79672" lon="-7.867823">
        <ele>500.3</ele>
        <time>1970-01-01T02:04:47.000Z</time>
      </trkpt>
      <trkpt lat="42.796786" lon="-7.867784">
        <ele>500.3</ele>
        <time>1970-01-01T02:04:48.000Z</time>
      </trkpt>
      <trkpt lat="42.796851" lon="-7.86774">
        <ele>500.1</ele>
        <time>1970-01-01T02:04:49.000Z</time>
      </trkpt>
      <trkpt lat="42.796915" lon="-7.867694">
        <ele>499.9</ele>
        <time>1970-01-01T02:04:50.000Z</time>
      </trkpt>
      <trkpt lat="42.796979" lon="-7.867648">
        <ele>499.7</ele>
        <time>1970-01-01T02:04:51.000Z</time>
      </trkpt>
      <trkpt lat="42.797037" lon="-7.867597">
        <ele>499.5</ele>
        <time>1970-01-01T02:04:52.000Z</time>
      </trkpt>
      <trkpt lat="42.797094" lon="-7.867545">
        <ele>499.2</ele>
        <time>1970-01-01T02:04:53.000Z</time>
      </trkpt>
      <trkpt lat="42.79715" lon="-7.867493">
        <ele>499</ele>
        <time>1970-01-01T02:04:54.000Z</time>
      </trkpt>
      <trkpt lat="42.797207" lon="-7.867441">
        <ele>498.8</ele>
        <time>1970-01-01T02:04:55.000Z</time>
      </trkpt>
      <trkpt lat="42.797264" lon="-7.867389">
        <ele>498.6</ele>
        <time>1970-01-01T02:04:56.000Z</time>
      </trkpt>
      <trkpt lat="42.797321" lon="-7.867338">
        <ele>498.5</ele>
        <time>1970-01-01T02:04:57.000Z</time>
      </trkpt>
      <trkpt lat="42.797376" lon="-7.867287">
        <ele>498.4</ele>
        <time>1970-01-01T02:04:58.000Z</time>
      </trkpt>
      <trkpt lat="42.79743" lon="-7.867239">
        <ele>498.3</ele>
        <time>1970-01-01T02:04:59.000Z</time>
      </trkpt>
      <trkpt lat="42.797483" lon="-7.867196">
        <ele>498.3</ele>
        <time>1970-01-01T02:05:00.000Z</time>
      </trkpt>
      <trkpt lat="42.797538" lon="-7.867157">
        <ele>498.2</ele>
        <time>1970-01-01T02:05:01.000Z</time>
      </trkpt>
      <trkpt lat="42.797593" lon="-7.867121">
        <ele>498.1</ele>
        <time>1970-01-01T02:05:02.000Z</time>
      </trkpt>
      <trkpt lat="42.797648" lon="-7.867091">
        <ele>498</ele>
        <time>1970-01-01T02:05:03.000Z</time>
      </trkpt>
      <trkpt lat="42.797706" lon="-7.867067">
        <ele>497.8</ele>
        <time>1970-01-01T02:05:04.000Z</time>
      </trkpt>
      <trkpt lat="42.797764" lon="-7.867053">
        <ele>497.6</ele>
        <time>1970-01-01T02:05:05.000Z</time>
      </trkpt>
      <trkpt lat="42.797822" lon="-7.867045">
        <ele>497.3</ele>
        <time>1970-01-01T02:05:06.000Z</time>
      </trkpt>
      <trkpt lat="42.797884" lon="-7.867042">
        <ele>497</ele>
        <time>1970-01-01T02:05:07.000Z</time>
      </trkpt>
      <trkpt lat="42.797948" lon="-7.867036">
        <ele>496.6</ele>
        <time>1970-01-01T02:05:08.000Z</time>
      </trkpt>
      <trkpt lat="42.798014" lon="-7.867029">
        <ele>496.1</ele>
        <time>1970-01-01T02:05:09.000Z</time>
      </trkpt>
      <trkpt lat="42.798077" lon="-7.867004">
        <ele>495.5</ele>
        <time>1970-01-01T02:05:10.000Z</time>
      </trkpt>
      <trkpt lat="42.798134" lon="-7.866957">
        <ele>495</ele>
        <time>1970-01-01T02:05:11.000Z</time>
      </trkpt>
      <trkpt lat="42.798188" lon="-7.866896">
        <ele>494.7</ele>
        <time>1970-01-01T02:05:12.000Z</time>
      </trkpt>
      <trkpt lat="42.798236" lon="-7.866829">
        <ele>494.5</ele>
        <time>1970-01-01T02:05:13.000Z</time>
      </trkpt>
      <trkpt lat="42.798281" lon="-7.866758">
        <ele>494.4</ele>
        <time>1970-01-01T02:05:14.000Z</time>
      </trkpt>
      <trkpt lat="42.798323" lon="-7.866687">
        <ele>494.3</ele>
        <time>1970-01-01T02:05:15.000Z</time>
      </trkpt>
      <trkpt lat="42.798347" lon="-7.866632">
        <ele>494.3</ele>
        <time>1970-01-01T02:05:16.000Z</time>
      </trkpt>
      <trkpt lat="42.798371" lon="-7.866576">
        <ele>494.3</ele>
        <time>1970-01-01T02:05:17.000Z</time>
      </trkpt>
      <trkpt lat="42.798418" lon="-7.866464">
        <ele>494.3</ele>
        <time>1970-01-01T02:05:18.000Z</time>
      </trkpt>
      <trkpt lat="42.798432" lon="-7.866387">
        <ele>494.4</ele>
        <time>1970-01-01T02:05:19.000Z</time>
      </trkpt>
      <trkpt lat="42.798424" lon="-7.866315">
        <ele>494.5</ele>
        <time>1970-01-01T02:05:20.000Z</time>
      </trkpt>
      <trkpt lat="42.7984" lon="-7.866255">
        <ele>494.7</ele>
        <time>1970-01-01T02:05:21.000Z</time>
      </trkpt>
      <trkpt lat="42.798368" lon="-7.8662">
        <ele>494.8</ele>
        <time>1970-01-01T02:05:22.000Z</time>
      </trkpt>
      <trkpt lat="42.798336" lon="-7.866149">
        <ele>494.9</ele>
        <time>1970-01-01T02:05:23.000Z</time>
      </trkpt>
      <trkpt lat="42.798302" lon="-7.866099">
        <ele>495</ele>
        <time>1970-01-01T02:05:24.000Z</time>
      </trkpt>
      <trkpt lat="42.798267" lon="-7.866048">
        <ele>495.1</ele>
        <time>1970-01-01T02:05:25.000Z</time>
      </trkpt>
      <trkpt lat="42.798233" lon="-7.865998">
        <ele>495.1</ele>
        <time>1970-01-01T02:05:26.000Z</time>
      </trkpt>
      <trkpt lat="42.798204" lon="-7.865947">
        <ele>495.1</ele>
        <time>1970-01-01T02:05:27.000Z</time>
      </trkpt>
      <trkpt lat="42.798187" lon="-7.865917">
        <ele>495.1</ele>
        <time>1970-01-01T02:05:28.000Z</time>
      </trkpt>
      <trkpt lat="42.798165" lon="-7.865896">
        <ele>495.1</ele>
        <time>1970-01-01T02:05:29.000Z</time>
      </trkpt>
      <trkpt lat="42.798128" lon="-7.865872">
        <ele>495.1</ele>
        <time>1970-01-01T02:05:30.000Z</time>
      </trkpt>
      <trkpt lat="42.798095" lon="-7.865842">
        <ele>495.2</ele>
        <time>1970-01-01T02:05:31.000Z</time>
      </trkpt>
      <trkpt lat="42.798068" lon="-7.865808">
        <ele>495.2</ele>
        <time>1970-01-01T02:05:32.000Z</time>
      </trkpt>
      <trkpt lat="42.798047" lon="-7.86577">
        <ele>495.2</ele>
        <time>1970-01-01T02:05:33.000Z</time>
      </trkpt>
      <trkpt lat="42.798017" lon="-7.86573">
        <ele>495.3</ele>
        <time>1970-01-01T02:05:35.000Z</time>
      </trkpt>
      <trkpt lat="42.797969" lon="-7.865673">
        <ele>495.4</ele>
        <time>1970-01-01T02:05:36.000Z</time>
      </trkpt>
      <trkpt lat="42.797941" lon="-7.865646">
        <ele>495.5</ele>
        <time>1970-01-01T02:05:37.000Z</time>
      </trkpt>
      <trkpt lat="42.797919" lon="-7.865622">
        <ele>495.5</ele>
        <time>1970-01-01T02:05:38.000Z</time>
      </trkpt>
      <trkpt lat="42.797896" lon="-7.865594">
        <ele>495.5</ele>
        <time>1970-01-01T02:05:39.000Z</time>
      </trkpt>
      <trkpt lat="42.797876" lon="-7.865566">
        <ele>495.6</ele>
        <time>1970-01-01T02:05:40.000Z</time>
      </trkpt>
      <trkpt lat="42.797836" lon="-7.86551">
        <ele>495.6</ele>
        <time>1970-01-01T02:05:42.000Z</time>
      </trkpt>
      <trkpt lat="42.79781" lon="-7.86548">
        <ele>495.7</ele>
        <time>1970-01-01T02:05:43.000Z</time>
      </trkpt>
      <trkpt lat="42.797786" lon="-7.865456">
        <ele>495.8</ele>
        <time>1970-01-01T02:05:45.000Z</time>
      </trkpt>
      <trkpt lat="42.797741" lon="-7.865411">
        <ele>495.8</ele>
        <time>1970-01-01T02:05:47.000Z</time>
      </trkpt>
      <trkpt lat="42.7977" lon="-7.865374">
        <ele>495.9</ele>
        <time>1970-01-01T02:05:48.000Z</time>
      </trkpt>
      <trkpt lat="42.797674" lon="-7.865343">
        <ele>496</ele>
        <time>1970-01-01T02:05:49.000Z</time>
      </trkpt>
      <trkpt lat="42.797651" lon="-7.865307">
        <ele>496</ele>
        <time>1970-01-01T02:05:50.000Z</time>
      </trkpt>
      <trkpt lat="42.797615" lon="-7.865242">
        <ele>496.1</ele>
        <time>1970-01-01T02:05:52.000Z</time>
      </trkpt>
      <trkpt lat="42.7976" lon="-7.865206">
        <ele>496.2</ele>
        <time>1970-01-01T02:05:53.000Z</time>
      </trkpt>
      <trkpt lat="42.797581" lon="-7.865169">
        <ele>496.2</ele>
        <time>1970-01-01T02:05:55.000Z</time>
      </trkpt>
      <trkpt lat="42.797538" lon="-7.865105">
        <ele>496.3</ele>
        <time>1970-01-01T02:05:57.000Z</time>
      </trkpt>
      <trkpt lat="42.797513" lon="-7.865042">
        <ele>496.3</ele>
        <time>1970-01-01T02:05:59.000Z</time>
      </trkpt>
      <trkpt lat="42.797467" lon="-7.864967">
        <ele>496.4</ele>
        <time>1970-01-01T02:06:00.000Z</time>
      </trkpt>
      <trkpt lat="42.797449" lon="-7.864938">
        <ele>496.4</ele>
        <time>1970-01-01T02:06:02.000Z</time>
      </trkpt>
      <trkpt lat="42.797414" lon="-7.864866">
        <ele>496.4</ele>
        <time>1970-01-01T02:06:04.000Z</time>
      </trkpt>
      <trkpt lat="42.797347" lon="-7.864785">
        <ele>496.3</ele>
        <time>1970-01-01T02:06:05.000Z</time>
      </trkpt>
      <trkpt lat="42.797306" lon="-7.864753">
        <ele>496.3</ele>
        <time>1970-01-01T02:06:06.000Z</time>
      </trkpt>
      <trkpt lat="42.797264" lon="-7.864711">
        <ele>496.3</ele>
        <time>1970-01-01T02:06:07.000Z</time>
      </trkpt>
      <trkpt lat="42.797218" lon="-7.864656">
        <ele>496.1</ele>
        <time>1970-01-01T02:06:09.000Z</time>
      </trkpt>
      <trkpt lat="42.797126" lon="-7.864582">
        <ele>496.1</ele>
        <time>1970-01-01T02:06:10.000Z</time>
      </trkpt>
      <trkpt lat="42.797078" lon="-7.864544">
        <ele>496</ele>
        <time>1970-01-01T02:06:12.000Z</time>
      </trkpt>
      <trkpt lat="42.796954" lon="-7.864482">
        <ele>495.8</ele>
        <time>1970-01-01T02:06:14.000Z</time>
      </trkpt>
      <trkpt lat="42.796847" lon="-7.86442">
        <ele>495.7</ele>
        <time>1970-01-01T02:06:16.000Z</time>
      </trkpt>
      <trkpt lat="42.796753" lon="-7.864384">
        <ele>495.6</ele>
        <time>1970-01-01T02:06:18.000Z</time>
      </trkpt>
      <trkpt lat="42.79668" lon="-7.86436">
        <ele>495.5</ele>
        <time>1970-01-01T02:06:20.000Z</time>
      </trkpt>
      <trkpt lat="42.796579" lon="-7.864343">
        <ele>495.3</ele>
        <time>1970-01-01T02:06:21.000Z</time>
      </trkpt>
      <trkpt lat="42.796527" lon="-7.864322">
        <ele>495.2</ele>
        <time>1970-01-01T02:06:22.000Z</time>
      </trkpt>
      <trkpt lat="42.796481" lon="-7.864312">
        <ele>495.2</ele>
        <time>1970-01-01T02:06:24.000Z</time>
      </trkpt>
      <trkpt lat="42.796387" lon="-7.864273">
        <ele>495</ele>
        <time>1970-01-01T02:06:26.000Z</time>
      </trkpt>
      <trkpt lat="42.796298" lon="-7.864253">
        <ele>494.8</ele>
        <time>1970-01-01T02:06:28.000Z</time>
      </trkpt>
      <trkpt lat="42.796202" lon="-7.864203">
        <ele>494.5</ele>
        <time>1970-01-01T02:06:30.000Z</time>
      </trkpt>
      <trkpt lat="42.796105" lon="-7.864136">
        <ele>493.9</ele>
        <time>1970-01-01T02:06:31.000Z</time>
      </trkpt>
      <trkpt lat="42.796073" lon="-7.864099">
        <ele>493.7</ele>
        <time>1970-01-01T02:06:32.000Z</time>
      </trkpt>
      <trkpt lat="42.796034" lon="-7.864077">
        <ele>493.6</ele>
        <time>1970-01-01T02:06:34.000Z</time>
      </trkpt>
      <trkpt lat="42.795957" lon="-7.864021">
        <ele>493.2</ele>
        <time>1970-01-01T02:06:35.000Z</time>
      </trkpt>
      <trkpt lat="42.795919" lon="-7.864006">
        <ele>493.1</ele>
        <time>1970-01-01T02:06:36.000Z</time>
      </trkpt>
      <trkpt lat="42.795874" lon="-7.86398">
        <ele>493</ele>
        <time>1970-01-01T02:06:37.000Z</time>
      </trkpt>
      <trkpt lat="42.795842" lon="-7.863985">
        <ele>492.9</ele>
        <time>1970-01-01T02:06:39.000Z</time>
      </trkpt>
      <trkpt lat="42.795769" lon="-7.863984">
        <ele>492.8</ele>
        <time>1970-01-01T02:06:41.000Z</time>
      </trkpt>
      <trkpt lat="42.795703" lon="-7.863997">
        <ele>492.8</ele>
        <time>1970-01-01T02:06:43.000Z</time>
      </trkpt>
      <trkpt lat="42.795651" lon="-7.86401">
        <ele>492.7</ele>
        <time>1970-01-01T02:06:45.000Z</time>
      </trkpt>
      <trkpt lat="42.795609" lon="-7.864043">
        <ele>492.8</ele>
        <time>1970-01-01T02:06:47.000Z</time>
      </trkpt>
      <trkpt lat="42.795549" lon="-7.864071">
        <ele>492.9</ele>
        <time>1970-01-01T02:06:49.000Z</time>
      </trkpt>
      <trkpt lat="42.795502" lon="-7.864106">
        <ele>492.9</ele>
        <time>1970-01-01T02:06:51.000Z</time>
      </trkpt>
      <trkpt lat="42.795418" lon="-7.864085">
        <ele>492.9</ele>
        <time>1970-01-01T02:06:53.000Z</time>
      </trkpt>
      <trkpt lat="42.795372" lon="-7.864076">
        <ele>492.9</ele>
        <time>1970-01-01T02:06:54.000Z</time>
      </trkpt>
      <trkpt lat="42.795294" lon="-7.864046">
        <ele>492.8</ele>
        <time>1970-01-01T02:06:56.000Z</time>
      </trkpt>
      <trkpt lat="42.795259" lon="-7.864028">
        <ele>492.8</ele>
        <time>1970-01-01T02:06:57.000Z</time>
      </trkpt>
      <trkpt lat="42.795231" lon="-7.864004">
        <ele>492.7</ele>
        <time>1970-01-01T02:06:58.000Z</time>
      </trkpt>
      <trkpt lat="42.795209" lon="-7.864003">
        <ele>492.7</ele>
        <time>1970-01-01T02:06:59.000Z</time>
      </trkpt>
      <trkpt lat="42.795173" lon="-7.863992">
        <ele>492.6</ele>
        <time>1970-01-01T02:07:00.000Z</time>
      </trkpt>
      <trkpt lat="42.795137" lon="-7.863977">
        <ele>492.5</ele>
        <time>1970-01-01T02:07:01.000Z</time>
      </trkpt>
      <trkpt lat="42.795105" lon="-7.863968">
        <ele>492.5</ele>
        <time>1970-01-01T02:07:02.000Z</time>
      </trkpt>
      <trkpt lat="42.795067" lon="-7.863955">
        <ele>492.4</ele>
        <time>1970-01-01T02:07:03.000Z</time>
      </trkpt>
      <trkpt lat="42.795034" lon="-7.863946">
        <ele>492.4</ele>
        <time>1970-01-01T02:07:04.000Z</time>
      </trkpt>
      <trkpt lat="42.795004" lon="-7.86394">
        <ele>492.4</ele>
        <time>1970-01-01T02:07:05.000Z</time>
      </trkpt>
      <trkpt lat="42.794975" lon="-7.863923">
        <ele>492.3</ele>
        <time>1970-01-01T02:07:06.000Z</time>
      </trkpt>
      <trkpt lat="42.79494" lon="-7.863913">
        <ele>492.3</ele>
        <time>1970-01-01T02:07:07.000Z</time>
      </trkpt>
      <trkpt lat="42.794907" lon="-7.863899">
        <ele>492.4</ele>
        <time>1970-01-01T02:07:08.000Z</time>
      </trkpt>
      <trkpt lat="42.794871" lon="-7.863882">
        <ele>492.2</ele>
        <time>1970-01-01T02:07:09.000Z</time>
      </trkpt>
      <trkpt lat="42.794838" lon="-7.863865">
        <ele>492.3</ele>
        <time>1970-01-01T02:07:10.000Z</time>
      </trkpt>
      <trkpt lat="42.7948" lon="-7.863848">
        <ele>492.3</ele>
        <time>1970-01-01T02:07:11.000Z</time>
      </trkpt>
      <trkpt lat="42.794768" lon="-7.863831">
        <ele>492.4</ele>
        <time>1970-01-01T02:07:12.000Z</time>
      </trkpt>
      <trkpt lat="42.794729" lon="-7.863812">
        <ele>492.5</ele>
        <time>1970-01-01T02:07:13.000Z</time>
      </trkpt>
      <trkpt lat="42.794692" lon="-7.863798">
        <ele>492.4</ele>
        <time>1970-01-01T02:07:14.000Z</time>
      </trkpt>
      <trkpt lat="42.794668" lon="-7.863793">
        <ele>492.6</ele>
        <time>1970-01-01T02:07:15.000Z</time>
      </trkpt>
      <trkpt lat="42.794635" lon="-7.863775">
        <ele>492.7</ele>
        <time>1970-01-01T02:07:16.000Z</time>
      </trkpt>
      <trkpt lat="42.794603" lon="-7.86376">
        <ele>492.7</ele>
        <time>1970-01-01T02:07:17.000Z</time>
      </trkpt>
      <trkpt lat="42.794569" lon="-7.863752">
        <ele>492.8</ele>
        <time>1970-01-01T02:07:18.000Z</time>
      </trkpt>
      <trkpt lat="42.794536" lon="-7.863741">
        <ele>493</ele>
        <time>1970-01-01T02:07:19.000Z</time>
      </trkpt>
      <trkpt lat="42.794503" lon="-7.863736">
        <ele>493.2</ele>
        <time>1970-01-01T02:07:20.000Z</time>
      </trkpt>
      <trkpt lat="42.794468" lon="-7.863729">
        <ele>493.3</ele>
        <time>1970-01-01T02:07:21.000Z</time>
      </trkpt>
      <trkpt lat="42.794439" lon="-7.863735">
        <ele>493.5</ele>
        <time>1970-01-01T02:07:22.000Z</time>
      </trkpt>
      <trkpt lat="42.794412" lon="-7.86375">
        <ele>493.7</ele>
        <time>1970-01-01T02:07:23.000Z</time>
      </trkpt>
      <trkpt lat="42.794383" lon="-7.86376">
        <ele>493.9</ele>
        <time>1970-01-01T02:07:24.000Z</time>
      </trkpt>
      <trkpt lat="42.794355" lon="-7.863779">
        <ele>494.3</ele>
        <time>1970-01-01T02:07:25.000Z</time>
      </trkpt>
      <trkpt lat="42.794332" lon="-7.863796">
        <ele>494.3</ele>
        <time>1970-01-01T02:07:26.000Z</time>
      </trkpt>
      <trkpt lat="42.794306" lon="-7.863812">
        <ele>494.7</ele>
        <time>1970-01-01T02:07:27.000Z</time>
      </trkpt>
      <trkpt lat="42.794278" lon="-7.863819">
        <ele>495</ele>
        <time>1970-01-01T02:07:28.000Z</time>
      </trkpt>
      <trkpt lat="42.794246" lon="-7.863821">
        <ele>495.2</ele>
        <time>1970-01-01T02:07:29.000Z</time>
      </trkpt>
      <trkpt lat="42.794213" lon="-7.863823">
        <ele>495.5</ele>
        <time>1970-01-01T02:07:30.000Z</time>
      </trkpt>
      <trkpt lat="42.794187" lon="-7.863838">
        <ele>495.8</ele>
        <time>1970-01-01T02:07:31.000Z</time>
      </trkpt>
      <trkpt lat="42.794163" lon="-7.863852">
        <ele>496.2</ele>
        <time>1970-01-01T02:07:32.000Z</time>
      </trkpt>
      <trkpt lat="42.79414" lon="-7.863867">
        <ele>496.5</ele>
        <time>1970-01-01T02:07:33.000Z</time>
      </trkpt>
      <trkpt lat="42.794117" lon="-7.863882">
        <ele>496.5</ele>
        <time>1970-01-01T02:07:34.000Z</time>
      </trkpt>
      <trkpt lat="42.794096" lon="-7.863897">
        <ele>496.9</ele>
        <time>1970-01-01T02:07:35.000Z</time>
      </trkpt>
      <trkpt lat="42.794071" lon="-7.863906">
        <ele>497.2</ele>
        <time>1970-01-01T02:07:36.000Z</time>
      </trkpt>
      <trkpt lat="42.794048" lon="-7.863921">
        <ele>497.2</ele>
        <time>1970-01-01T02:07:37.000Z</time>
      </trkpt>
      <trkpt lat="42.794026" lon="-7.863938">
        <ele>497.5</ele>
        <time>1970-01-01T02:07:38.000Z</time>
      </trkpt>
      <trkpt lat="42.794004" lon="-7.863957">
        <ele>497.7</ele>
        <time>1970-01-01T02:07:39.000Z</time>
      </trkpt>
      <trkpt lat="42.793988" lon="-7.863981">
        <ele>497.9</ele>
        <time>1970-01-01T02:07:40.000Z</time>
      </trkpt>
      <trkpt lat="42.793978" lon="-7.864009">
        <ele>498.1</ele>
        <time>1970-01-01T02:07:41.000Z</time>
      </trkpt>
      <trkpt lat="42.793971" lon="-7.864032">
        <ele>498.2</ele>
        <time>1970-01-01T02:07:42.000Z</time>
      </trkpt>
      <trkpt lat="42.793968" lon="-7.864053">
        <ele>498.2</ele>
        <time>1970-01-01T02:07:43.000Z</time>
      </trkpt>
      <trkpt lat="42.793966" lon="-7.864081">
        <ele>498.3</ele>
        <time>1970-01-01T02:07:44.000Z</time>
      </trkpt>
      <trkpt lat="42.793961" lon="-7.864098">
        <ele>498.3</ele>
        <time>1970-01-01T02:07:45.000Z</time>
      </trkpt>
      <trkpt lat="42.793959" lon="-7.864117">
        <ele>498.5</ele>
        <time>1970-01-01T02:07:46.000Z</time>
      </trkpt>
      <trkpt lat="42.793951" lon="-7.864128">
        <ele>498.7</ele>
        <time>1970-01-01T02:07:47.000Z</time>
      </trkpt>
      <trkpt lat="42.793947" lon="-7.86414">
        <ele>498.6</ele>
        <time>1970-01-01T02:07:48.000Z</time>
      </trkpt>
      <trkpt lat="42.793937" lon="-7.864155">
        <ele>498.7</ele>
        <time>1970-01-01T02:07:49.000Z</time>
      </trkpt>
      <trkpt lat="42.793927" lon="-7.864169">
        <ele>498.7</ele>
        <time>1970-01-01T02:07:50.000Z</time>
      </trkpt>
      <trkpt lat="42.793919" lon="-7.864184">
        <ele>498.9</ele>
        <time>1970-01-01T02:07:51.000Z</time>
      </trkpt>
      <trkpt lat="42.793908" lon="-7.864197">
        <ele>499.1</ele>
        <time>1970-01-01T02:07:52.000Z</time>
      </trkpt>
      <trkpt lat="42.793894" lon="-7.864209">
        <ele>499.1</ele>
        <time>1970-01-01T02:07:53.000Z</time>
      </trkpt>
      <trkpt lat="42.793879" lon="-7.864222">
        <ele>499.3</ele>
        <time>1970-01-01T02:07:54.000Z</time>
      </trkpt>
      <trkpt lat="42.793864" lon="-7.864238">
        <ele>499.4</ele>
        <time>1970-01-01T02:07:55.000Z</time>
      </trkpt>
      <trkpt lat="42.79385" lon="-7.86425">
        <ele>499.6</ele>
        <time>1970-01-01T02:07:56.000Z</time>
      </trkpt>
      <trkpt lat="42.793838" lon="-7.864263">
        <ele>499.5</ele>
        <time>1970-01-01T02:07:57.000Z</time>
      </trkpt>
      <trkpt lat="42.793825" lon="-7.864275">
        <ele>499.7</ele>
        <time>1970-01-01T02:07:58.000Z</time>
      </trkpt>
      <trkpt lat="42.793813" lon="-7.864287">
        <ele>499.9</ele>
        <time>1970-01-01T02:07:59.000Z</time>
      </trkpt>
      <trkpt lat="42.793801" lon="-7.864305">
        <ele>499.9</ele>
        <time>1970-01-01T02:08:00.000Z</time>
      </trkpt>
      <trkpt lat="42.793789" lon="-7.864324">
        <ele>500.2</ele>
        <time>1970-01-01T02:08:01.000Z</time>
      </trkpt>
      <trkpt lat="42.793774" lon="-7.864343">
        <ele>500.2</ele>
        <time>1970-01-01T02:08:02.000Z</time>
      </trkpt>
      <trkpt lat="42.79376" lon="-7.864362">
        <ele>500.3</ele>
        <time>1970-01-01T02:08:03.000Z</time>
      </trkpt>
      <trkpt lat="42.793748" lon="-7.864382">
        <ele>500.5</ele>
        <time>1970-01-01T02:08:04.000Z</time>
      </trkpt>
      <trkpt lat="42.793737" lon="-7.8644">
        <ele>500.4</ele>
        <time>1970-01-01T02:08:05.000Z</time>
      </trkpt>
      <trkpt lat="42.793725" lon="-7.864415">
        <ele>500.7</ele>
        <time>1970-01-01T02:08:06.000Z</time>
      </trkpt>
      <trkpt lat="42.793715" lon="-7.864434">
        <ele>500.7</ele>
        <time>1970-01-01T02:08:07.000Z</time>
      </trkpt>
      <trkpt lat="42.793703" lon="-7.864452">
        <ele>500.8</ele>
        <time>1970-01-01T02:08:08.000Z</time>
      </trkpt>
      <trkpt lat="42.793692" lon="-7.864469">
        <ele>501</ele>
        <time>1970-01-01T02:08:09.000Z</time>
      </trkpt>
      <trkpt lat="42.79368" lon="-7.864483">
        <ele>501</ele>
        <time>1970-01-01T02:08:10.000Z</time>
      </trkpt>
      <trkpt lat="42.793672" lon="-7.864503">
        <ele>501.1</ele>
        <time>1970-01-01T02:08:11.000Z</time>
      </trkpt>
      <trkpt lat="42.793661" lon="-7.864524">
        <ele>501.2</ele>
        <time>1970-01-01T02:08:12.000Z</time>
      </trkpt>
      <trkpt lat="42.793652" lon="-7.864544">
        <ele>501.3</ele>
        <time>1970-01-01T02:08:13.000Z</time>
      </trkpt>
      <trkpt lat="42.793644" lon="-7.864566">
        <ele>501.3</ele>
        <time>1970-01-01T02:08:14.000Z</time>
      </trkpt>
      <trkpt lat="42.793633" lon="-7.864587">
        <ele>501.4</ele>
        <time>1970-01-01T02:08:15.000Z</time>
      </trkpt>
      <trkpt lat="42.793624" lon="-7.864603">
        <ele>501.4</ele>
        <time>1970-01-01T02:08:16.000Z</time>
      </trkpt>
      <trkpt lat="42.793615" lon="-7.864619">
        <ele>501.4</ele>
        <time>1970-01-01T02:08:17.000Z</time>
      </trkpt>
      <trkpt lat="42.793606" lon="-7.864635">
        <ele>501.4</ele>
        <time>1970-01-01T02:08:18.000Z</time>
      </trkpt>
      <trkpt lat="42.793595" lon="-7.864654">
        <ele>501.5</ele>
        <time>1970-01-01T02:08:19.000Z</time>
      </trkpt>
      <trkpt lat="42.793584" lon="-7.864675">
        <ele>501.5</ele>
        <time>1970-01-01T02:08:20.000Z</time>
      </trkpt>
      <trkpt lat="42.793573" lon="-7.864695">
        <ele>501.6</ele>
        <time>1970-01-01T02:08:21.000Z</time>
      </trkpt>
      <trkpt lat="42.793562" lon="-7.864715">
        <ele>501.6</ele>
        <time>1970-01-01T02:08:22.000Z</time>
      </trkpt>
      <trkpt lat="42.793551" lon="-7.864732">
        <ele>501.6</ele>
        <time>1970-01-01T02:08:23.000Z</time>
      </trkpt>
      <trkpt lat="42.79354" lon="-7.864747">
        <ele>501.6</ele>
        <time>1970-01-01T02:08:24.000Z</time>
      </trkpt>
      <trkpt lat="42.793529" lon="-7.864763">
        <ele>501.7</ele>
        <time>1970-01-01T02:08:25.000Z</time>
      </trkpt>
      <trkpt lat="42.793521" lon="-7.864779">
        <ele>501.6</ele>
        <time>1970-01-01T02:08:26.000Z</time>
      </trkpt>
      <trkpt lat="42.793511" lon="-7.864798">
        <ele>501.7</ele>
        <time>1970-01-01T02:08:27.000Z</time>
      </trkpt>
      <trkpt lat="42.793498" lon="-7.864821">
        <ele>501.7</ele>
        <time>1970-01-01T02:08:28.000Z</time>
      </trkpt>
      <trkpt lat="42.793486" lon="-7.86484">
        <ele>501.7</ele>
        <time>1970-01-01T02:08:29.000Z</time>
      </trkpt>
      <trkpt lat="42.793475" lon="-7.864859">
        <ele>501.8</ele>
        <time>1970-01-01T02:08:30.000Z</time>
      </trkpt>
      <trkpt lat="42.793466" lon="-7.864881">
        <ele>501.8</ele>
        <time>1970-01-01T02:08:31.000Z</time>
      </trkpt>
      <trkpt lat="42.793457" lon="-7.864898">
        <ele>501.8</ele>
        <time>1970-01-01T02:08:32.000Z</time>
      </trkpt>
      <trkpt lat="42.793445" lon="-7.864916">
        <ele>501.9</ele>
        <time>1970-01-01T02:08:33.000Z</time>
      </trkpt>
      <trkpt lat="42.793434" lon="-7.864931">
        <ele>501.9</ele>
        <time>1970-01-01T02:08:34.000Z</time>
      </trkpt>
      <trkpt lat="42.793423" lon="-7.864944">
        <ele>501.9</ele>
        <time>1970-01-01T02:08:35.000Z</time>
      </trkpt>
      <trkpt lat="42.793412" lon="-7.864959">
        <ele>502</ele>
        <time>1970-01-01T02:08:36.000Z</time>
      </trkpt>
      <trkpt lat="42.7934" lon="-7.864972">
        <ele>502</ele>
        <time>1970-01-01T02:08:37.000Z</time>
      </trkpt>
      <trkpt lat="42.793383" lon="-7.86499">
        <ele>502.1</ele>
        <time>1970-01-01T02:08:38.000Z</time>
      </trkpt>
      <trkpt lat="42.793367" lon="-7.865004">
        <ele>502.1</ele>
        <time>1970-01-01T02:08:39.000Z</time>
      </trkpt>
      <trkpt lat="42.793354" lon="-7.865021">
        <ele>502.1</ele>
        <time>1970-01-01T02:08:40.000Z</time>
      </trkpt>
      <trkpt lat="42.793342" lon="-7.865034">
        <ele>502.2</ele>
        <time>1970-01-01T02:08:41.000Z</time>
      </trkpt>
      <trkpt lat="42.793327" lon="-7.865044">
        <ele>502.2</ele>
        <time>1970-01-01T02:08:42.000Z</time>
      </trkpt>
      <trkpt lat="42.793313" lon="-7.86506">
        <ele>502.3</ele>
        <time>1970-01-01T02:08:43.000Z</time>
      </trkpt>
      <trkpt lat="42.793296" lon="-7.865078">
        <ele>502.3</ele>
        <time>1970-01-01T02:08:44.000Z</time>
      </trkpt>
      <trkpt lat="42.793276" lon="-7.86509">
        <ele>502.4</ele>
        <time>1970-01-01T02:08:45.000Z</time>
      </trkpt>
      <trkpt lat="42.793262" lon="-7.865096">
        <ele>502.5</ele>
        <time>1970-01-01T02:08:46.000Z</time>
      </trkpt>
      <trkpt lat="42.793242" lon="-7.8651">
        <ele>502.5</ele>
        <time>1970-01-01T02:08:47.000Z</time>
      </trkpt>
      <trkpt lat="42.793226" lon="-7.865105">
        <ele>502.6</ele>
        <time>1970-01-01T02:08:48.000Z</time>
      </trkpt>
      <trkpt lat="42.793208" lon="-7.865117">
        <ele>502.6</ele>
        <time>1970-01-01T02:08:49.000Z</time>
      </trkpt>
      <trkpt lat="42.793184" lon="-7.865137">
        <ele>502.7</ele>
        <time>1970-01-01T02:08:50.000Z</time>
      </trkpt>
      <trkpt lat="42.793168" lon="-7.865158">
        <ele>502.7</ele>
        <time>1970-01-01T02:08:51.000Z</time>
      </trkpt>
      <trkpt lat="42.793152" lon="-7.865182">
        <ele>502.9</ele>
        <time>1970-01-01T02:08:52.000Z</time>
      </trkpt>
      <trkpt lat="42.793134" lon="-7.865202">
        <ele>502.9</ele>
        <time>1970-01-01T02:08:53.000Z</time>
      </trkpt>
      <trkpt lat="42.793116" lon="-7.865224">
        <ele>503.1</ele>
        <time>1970-01-01T02:08:54.000Z</time>
      </trkpt>
      <trkpt lat="42.793099" lon="-7.865241">
        <ele>503.1</ele>
        <time>1970-01-01T02:08:55.000Z</time>
      </trkpt>
      <trkpt lat="42.793087" lon="-7.865257">
        <ele>503.1</ele>
        <time>1970-01-01T02:08:56.000Z</time>
      </trkpt>
      <trkpt lat="42.793071" lon="-7.865265">
        <ele>503.1</ele>
        <time>1970-01-01T02:08:57.000Z</time>
      </trkpt>
      <trkpt lat="42.793051" lon="-7.865265">
        <ele>503.2</ele>
        <time>1970-01-01T02:08:58.000Z</time>
      </trkpt>
      <trkpt lat="42.793035" lon="-7.865276">
        <ele>503.4</ele>
        <time>1970-01-01T02:08:59.000Z</time>
      </trkpt>
      <trkpt lat="42.793015" lon="-7.865292">
        <ele>503.4</ele>
        <time>1970-01-01T02:09:00.000Z</time>
      </trkpt>
      <trkpt lat="42.792993" lon="-7.86531">
        <ele>503.6</ele>
        <time>1970-01-01T02:09:01.000Z</time>
      </trkpt>
      <trkpt lat="42.792971" lon="-7.865324">
        <ele>503.7</ele>
        <time>1970-01-01T02:09:02.000Z</time>
      </trkpt>
      <trkpt lat="42.792947" lon="-7.865338">
        <ele>503.7</ele>
        <time>1970-01-01T02:09:03.000Z</time>
      </trkpt>
      <trkpt lat="42.792928" lon="-7.865355">
        <ele>504</ele>
        <time>1970-01-01T02:09:04.000Z</time>
      </trkpt>
      <trkpt lat="42.792907" lon="-7.865373">
        <ele>504</ele>
        <time>1970-01-01T02:09:05.000Z</time>
      </trkpt>
      <trkpt lat="42.792885" lon="-7.86539">
        <ele>504</ele>
        <time>1970-01-01T02:09:06.000Z</time>
      </trkpt>
      <trkpt lat="42.792862" lon="-7.865407">
        <ele>504.3</ele>
        <time>1970-01-01T02:09:07.000Z</time>
      </trkpt>
      <trkpt lat="42.792839" lon="-7.865421">
        <ele>504.3</ele>
        <time>1970-01-01T02:09:08.000Z</time>
      </trkpt>
      <trkpt lat="42.792817" lon="-7.865434">
        <ele>504.4</ele>
        <time>1970-01-01T02:09:09.000Z</time>
      </trkpt>
      <trkpt lat="42.792799" lon="-7.865449">
        <ele>504.6</ele>
        <time>1970-01-01T02:09:10.000Z</time>
      </trkpt>
      <trkpt lat="42.792781" lon="-7.865461">
        <ele>504.7</ele>
        <time>1970-01-01T02:09:11.000Z</time>
      </trkpt>
      <trkpt lat="42.792765" lon="-7.86547">
        <ele>504.6</ele>
        <time>1970-01-01T02:09:12.000Z</time>
      </trkpt>
      <trkpt lat="42.792748" lon="-7.86548">
        <ele>504.7</ele>
        <time>1970-01-01T02:09:13.000Z</time>
      </trkpt>
      <trkpt lat="42.792731" lon="-7.865494">
        <ele>504.9</ele>
        <time>1970-01-01T02:09:14.000Z</time>
      </trkpt>
      <trkpt lat="42.792712" lon="-7.865506">
        <ele>505</ele>
        <time>1970-01-01T02:09:15.000Z</time>
      </trkpt>
      <trkpt lat="42.792694" lon="-7.865514">
        <ele>505</ele>
        <time>1970-01-01T02:09:16.000Z</time>
      </trkpt>
      <trkpt lat="42.792676" lon="-7.865523">
        <ele>505</ele>
        <time>1970-01-01T02:09:17.000Z</time>
      </trkpt>
      <trkpt lat="42.792654" lon="-7.865535">
        <ele>505.3</ele>
        <time>1970-01-01T02:09:18.000Z</time>
      </trkpt>
      <trkpt lat="42.792631" lon="-7.865546">
        <ele>505.3</ele>
        <time>1970-01-01T02:09:19.000Z</time>
      </trkpt>
      <trkpt lat="42.792611" lon="-7.865557">
        <ele>505.3</ele>
        <time>1970-01-01T02:09:20.000Z</time>
      </trkpt>
      <trkpt lat="42.79259" lon="-7.86557">
        <ele>505.6</ele>
        <time>1970-01-01T02:09:21.000Z</time>
      </trkpt>
      <trkpt lat="42.79257" lon="-7.865583">
        <ele>505.6</ele>
        <time>1970-01-01T02:09:22.000Z</time>
      </trkpt>
      <trkpt lat="42.792548" lon="-7.865594">
        <ele>505.7</ele>
        <time>1970-01-01T02:09:23.000Z</time>
      </trkpt>
      <trkpt lat="42.792525" lon="-7.865602">
        <ele>505.8</ele>
        <time>1970-01-01T02:09:24.000Z</time>
      </trkpt>
      <trkpt lat="42.792503" lon="-7.865612">
        <ele>506.1</ele>
        <time>1970-01-01T02:09:25.000Z</time>
      </trkpt>
      <trkpt lat="42.792481" lon="-7.865622">
        <ele>506.1</ele>
        <time>1970-01-01T02:09:26.000Z</time>
      </trkpt>
      <trkpt lat="42.79246" lon="-7.865631">
        <ele>506.2</ele>
        <time>1970-01-01T02:09:27.000Z</time>
      </trkpt>
      <trkpt lat="42.792436" lon="-7.86564">
        <ele>506.3</ele>
        <time>1970-01-01T02:09:28.000Z</time>
      </trkpt>
      <trkpt lat="42.792414" lon="-7.86565">
        <ele>506.3</ele>
        <time>1970-01-01T02:09:29.000Z</time>
      </trkpt>
      <trkpt lat="42.792393" lon="-7.865661">
        <ele>506.5</ele>
        <time>1970-01-01T02:09:30.000Z</time>
      </trkpt>
      <trkpt lat="42.792374" lon="-7.865674">
        <ele>506.6</ele>
        <time>1970-01-01T02:09:31.000Z</time>
      </trkpt>
      <trkpt lat="42.792354" lon="-7.865683">
        <ele>506.6</ele>
        <time>1970-01-01T02:09:32.000Z</time>
      </trkpt>
      <trkpt lat="42.792333" lon="-7.865692">
        <ele>506.7</ele>
        <time>1970-01-01T02:09:33.000Z</time>
      </trkpt>
      <trkpt lat="42.792312" lon="-7.865697">
        <ele>506.9</ele>
        <time>1970-01-01T02:09:34.000Z</time>
      </trkpt>
      <trkpt lat="42.792288" lon="-7.865702">
        <ele>506.9</ele>
        <time>1970-01-01T02:09:35.000Z</time>
      </trkpt>
      <trkpt lat="42.792264" lon="-7.865705">
        <ele>507</ele>
        <time>1970-01-01T02:09:36.000Z</time>
      </trkpt>
      <trkpt lat="42.792238" lon="-7.865706">
        <ele>507.2</ele>
        <time>1970-01-01T02:09:37.000Z</time>
      </trkpt>
      <trkpt lat="42.792213" lon="-7.865705">
        <ele>507.3</ele>
        <time>1970-01-01T02:09:38.000Z</time>
      </trkpt>
      <trkpt lat="42.792188" lon="-7.865702">
        <ele>507.5</ele>
        <time>1970-01-01T02:09:39.000Z</time>
      </trkpt>
      <trkpt lat="42.792162" lon="-7.865698">
        <ele>507.7</ele>
        <time>1970-01-01T02:09:40.000Z</time>
      </trkpt>
      <trkpt lat="42.792136" lon="-7.865695">
        <ele>507.9</ele>
        <time>1970-01-01T02:09:41.000Z</time>
      </trkpt>
      <trkpt lat="42.792113" lon="-7.865689">
        <ele>508.1</ele>
        <time>1970-01-01T02:09:42.000Z</time>
      </trkpt>
      <trkpt lat="42.792088" lon="-7.865681">
        <ele>508.3</ele>
        <time>1970-01-01T02:09:43.000Z</time>
      </trkpt>
      <trkpt lat="42.792065" lon="-7.865671">
        <ele>508.5</ele>
        <time>1970-01-01T02:09:44.000Z</time>
      </trkpt>
      <trkpt lat="42.792042" lon="-7.865658">
        <ele>508.7</ele>
        <time>1970-01-01T02:09:45.000Z</time>
      </trkpt>
      <trkpt lat="42.792019" lon="-7.865647">
        <ele>508.8</ele>
        <time>1970-01-01T02:09:46.000Z</time>
      </trkpt>
      <trkpt lat="42.791995" lon="-7.865636">
        <ele>508.9</ele>
        <time>1970-01-01T02:09:47.000Z</time>
      </trkpt>
      <trkpt lat="42.791972" lon="-7.865623">
        <ele>509</ele>
        <time>1970-01-01T02:09:48.000Z</time>
      </trkpt>
      <trkpt lat="42.791946" lon="-7.865612">
        <ele>509.2</ele>
        <time>1970-01-01T02:09:49.000Z</time>
      </trkpt>
      <trkpt lat="42.791916" lon="-7.865607">
        <ele>509.3</ele>
        <time>1970-01-01T02:09:50.000Z</time>
      </trkpt>
      <trkpt lat="42.791887" lon="-7.865609">
        <ele>509.5</ele>
        <time>1970-01-01T02:09:51.000Z</time>
      </trkpt>
      <trkpt lat="42.791858" lon="-7.865612">
        <ele>509.6</ele>
        <time>1970-01-01T02:09:52.000Z</time>
      </trkpt>
      <trkpt lat="42.791829" lon="-7.865616">
        <ele>509.7</ele>
        <time>1970-01-01T02:09:53.000Z</time>
      </trkpt>
      <trkpt lat="42.7918" lon="-7.865624">
        <ele>509.9</ele>
        <time>1970-01-01T02:09:54.000Z</time>
      </trkpt>
      <trkpt lat="42.791777" lon="-7.86564">
        <ele>510</ele>
        <time>1970-01-01T02:09:55.000Z</time>
      </trkpt>
      <trkpt lat="42.791752" lon="-7.865657">
        <ele>510.2</ele>
        <time>1970-01-01T02:09:56.000Z</time>
      </trkpt>
      <trkpt lat="42.791727" lon="-7.865673">
        <ele>510.3</ele>
        <time>1970-01-01T02:09:57.000Z</time>
      </trkpt>
      <trkpt lat="42.791702" lon="-7.865689">
        <ele>510.4</ele>
        <time>1970-01-01T02:09:58.000Z</time>
      </trkpt>
      <trkpt lat="42.79168" lon="-7.865707">
        <ele>510.6</ele>
        <time>1970-01-01T02:09:59.000Z</time>
      </trkpt>
      <trkpt lat="42.791659" lon="-7.865729">
        <ele>510.7</ele>
        <time>1970-01-01T02:10:00.000Z</time>
      </trkpt>
      <trkpt lat="42.791638" lon="-7.865753">
        <ele>510.8</ele>
        <time>1970-01-01T02:10:01.000Z</time>
      </trkpt>
      <trkpt lat="42.791622" lon="-7.865783">
        <ele>511</ele>
        <time>1970-01-01T02:10:02.000Z</time>
      </trkpt>
      <trkpt lat="42.791606" lon="-7.865813">
        <ele>511.1</ele>
        <time>1970-01-01T02:10:03.000Z</time>
      </trkpt>
      <trkpt lat="42.791593" lon="-7.865843">
        <ele>511.2</ele>
        <time>1970-01-01T02:10:04.000Z</time>
      </trkpt>
      <trkpt lat="42.791587" lon="-7.865872">
        <ele>511.3</ele>
        <time>1970-01-01T02:10:05.000Z</time>
      </trkpt>
      <trkpt lat="42.791581" lon="-7.865905">
        <ele>511.4</ele>
        <time>1970-01-01T02:10:06.000Z</time>
      </trkpt>
      <trkpt lat="42.791565" lon="-7.865932">
        <ele>511.5</ele>
        <time>1970-01-01T02:10:07.000Z</time>
      </trkpt>
      <trkpt lat="42.791546" lon="-7.865957">
        <ele>511.7</ele>
        <time>1970-01-01T02:10:08.000Z</time>
      </trkpt>
      <trkpt lat="42.791527" lon="-7.865983">
        <ele>511.9</ele>
        <time>1970-01-01T02:10:09.000Z</time>
      </trkpt>
      <trkpt lat="42.791506" lon="-7.866008">
        <ele>512</ele>
        <time>1970-01-01T02:10:10.000Z</time>
      </trkpt>
      <trkpt lat="42.791486" lon="-7.86603">
        <ele>512.2</ele>
        <time>1970-01-01T02:10:11.000Z</time>
      </trkpt>
      <trkpt lat="42.791462" lon="-7.866043">
        <ele>512.3</ele>
        <time>1970-01-01T02:10:12.000Z</time>
      </trkpt>
      <trkpt lat="42.791438" lon="-7.866048">
        <ele>512.4</ele>
        <time>1970-01-01T02:10:13.000Z</time>
      </trkpt>
      <trkpt lat="42.791411" lon="-7.866044">
        <ele>512.6</ele>
        <time>1970-01-01T02:10:14.000Z</time>
      </trkpt>
      <trkpt lat="42.791383" lon="-7.866033">
        <ele>512.7</ele>
        <time>1970-01-01T02:10:15.000Z</time>
      </trkpt>
      <trkpt lat="42.791354" lon="-7.866019">
        <ele>512.9</ele>
        <time>1970-01-01T02:10:16.000Z</time>
      </trkpt>
      <trkpt lat="42.791323" lon="-7.866003">
        <ele>513.1</ele>
        <time>1970-01-01T02:10:17.000Z</time>
      </trkpt>
      <trkpt lat="42.79129" lon="-7.865985">
        <ele>513.2</ele>
        <time>1970-01-01T02:10:18.000Z</time>
      </trkpt>
      <trkpt lat="42.791254" lon="-7.865963">
        <ele>513.4</ele>
        <time>1970-01-01T02:10:19.000Z</time>
      </trkpt>
      <trkpt lat="42.791218" lon="-7.865939">
        <ele>513.5</ele>
        <time>1970-01-01T02:10:20.000Z</time>
      </trkpt>
      <trkpt lat="42.791182" lon="-7.865918">
        <ele>513.6</ele>
        <time>1970-01-01T02:10:21.000Z</time>
      </trkpt>
      <trkpt lat="42.791147" lon="-7.865897">
        <ele>513.6</ele>
        <time>1970-01-01T02:10:22.000Z</time>
      </trkpt>
      <trkpt lat="42.791114" lon="-7.865871">
        <ele>513.7</ele>
        <time>1970-01-01T02:10:23.000Z</time>
      </trkpt>
      <trkpt lat="42.791082" lon="-7.86584">
        <ele>513.6</ele>
        <time>1970-01-01T02:10:24.000Z</time>
      </trkpt>
      <trkpt lat="42.791051" lon="-7.865805">
        <ele>513.6</ele>
        <time>1970-01-01T02:10:25.000Z</time>
      </trkpt>
      <trkpt lat="42.791021" lon="-7.865767">
        <ele>513.5</ele>
        <time>1970-01-01T02:10:26.000Z</time>
      </trkpt>
      <trkpt lat="42.790994" lon="-7.865728">
        <ele>513.5</ele>
        <time>1970-01-01T02:10:27.000Z</time>
      </trkpt>
      <trkpt lat="42.790964" lon="-7.865689">
        <ele>513.4</ele>
        <time>1970-01-01T02:10:28.000Z</time>
      </trkpt>
      <trkpt lat="42.790933" lon="-7.865648">
        <ele>513.2</ele>
        <time>1970-01-01T02:10:29.000Z</time>
      </trkpt>
      <trkpt lat="42.790904" lon="-7.865614">
        <ele>513.1</ele>
        <time>1970-01-01T02:10:30.000Z</time>
      </trkpt>
      <trkpt lat="42.790874" lon="-7.865579">
        <ele>512.9</ele>
        <time>1970-01-01T02:10:31.000Z</time>
      </trkpt>
      <trkpt lat="42.79084" lon="-7.865553">
        <ele>512.7</ele>
        <time>1970-01-01T02:10:32.000Z</time>
      </trkpt>
      <trkpt lat="42.790793" lon="-7.865534">
        <ele>512.3</ele>
        <time>1970-01-01T02:10:33.000Z</time>
      </trkpt>
      <trkpt lat="42.790748" lon="-7.865526">
        <ele>512</ele>
        <time>1970-01-01T02:10:34.000Z</time>
      </trkpt>
      <trkpt lat="42.790706" lon="-7.865515">
        <ele>511.7</ele>
        <time>1970-01-01T02:10:35.000Z</time>
      </trkpt>
      <trkpt lat="42.790664" lon="-7.865508">
        <ele>511.3</ele>
        <time>1970-01-01T02:10:36.000Z</time>
      </trkpt>
      <trkpt lat="42.790624" lon="-7.865512">
        <ele>511</ele>
        <time>1970-01-01T02:10:37.000Z</time>
      </trkpt>
      <trkpt lat="42.790585" lon="-7.865525">
        <ele>511.2</ele>
        <time>1970-01-01T02:10:38.000Z</time>
      </trkpt>
      <trkpt lat="42.790548" lon="-7.865537">
        <ele>511.4</ele>
        <time>1970-01-01T02:10:39.000Z</time>
      </trkpt>
      <trkpt lat="42.790514" lon="-7.865566">
        <ele>511.4</ele>
        <time>1970-01-01T02:10:40.000Z</time>
      </trkpt>
      <trkpt lat="42.790478" lon="-7.865571">
        <ele>511.7</ele>
        <time>1970-01-01T02:10:41.000Z</time>
      </trkpt>
      <trkpt lat="42.790441" lon="-7.865564">
        <ele>511.5</ele>
        <time>1970-01-01T02:10:42.000Z</time>
      </trkpt>
      <trkpt lat="42.790406" lon="-7.865555">
        <ele>511.6</ele>
        <time>1970-01-01T02:10:43.000Z</time>
      </trkpt>
      <trkpt lat="42.790373" lon="-7.865544">
        <ele>511.6</ele>
        <time>1970-01-01T02:10:44.000Z</time>
      </trkpt>
      <trkpt lat="42.790345" lon="-7.865527">
        <ele>511.6</ele>
        <time>1970-01-01T02:10:45.000Z</time>
      </trkpt>
      <trkpt lat="42.790321" lon="-7.86551">
        <ele>511.5</ele>
        <time>1970-01-01T02:10:46.000Z</time>
      </trkpt>
      <trkpt lat="42.790275" lon="-7.865467">
        <ele>511.4</ele>
        <time>1970-01-01T02:10:48.000Z</time>
      </trkpt>
      <trkpt lat="42.79026" lon="-7.865444">
        <ele>511.4</ele>
        <time>1970-01-01T02:10:49.000Z</time>
      </trkpt>
      <trkpt lat="42.790247" lon="-7.865423">
        <ele>511.2</ele>
        <time>1970-01-01T02:10:50.000Z</time>
      </trkpt>
      <trkpt lat="42.79023" lon="-7.865397">
        <ele>511.3</ele>
        <time>1970-01-01T02:10:51.000Z</time>
      </trkpt>
      <trkpt lat="42.790214" lon="-7.865369">
        <ele>511.2</ele>
        <time>1970-01-01T02:10:52.000Z</time>
      </trkpt>
      <trkpt lat="42.790197" lon="-7.865341">
        <ele>511.1</ele>
        <time>1970-01-01T02:10:53.000Z</time>
      </trkpt>
      <trkpt lat="42.790186" lon="-7.865314">
        <ele>511.1</ele>
        <time>1970-01-01T02:10:54.000Z</time>
      </trkpt>
      <trkpt lat="42.790179" lon="-7.865277">
        <ele>511</ele>
        <time>1970-01-01T02:10:55.000Z</time>
      </trkpt>
      <trkpt lat="42.790173" lon="-7.865238">
        <ele>510.9</ele>
        <time>1970-01-01T02:10:56.000Z</time>
      </trkpt>
      <trkpt lat="42.790166" lon="-7.86519">
        <ele>510.9</ele>
        <time>1970-01-01T02:10:57.000Z</time>
      </trkpt>
      <trkpt lat="42.790163" lon="-7.865142">
        <ele>510.8</ele>
        <time>1970-01-01T02:10:58.000Z</time>
      </trkpt>
      <trkpt lat="42.79016" lon="-7.865098">
        <ele>510.7</ele>
        <time>1970-01-01T02:10:59.000Z</time>
      </trkpt>
      <trkpt lat="42.790159" lon="-7.86506">
        <ele>510.7</ele>
        <time>1970-01-01T02:11:00.000Z</time>
      </trkpt>
      <trkpt lat="42.790163" lon="-7.865036">
        <ele>510.7</ele>
        <time>1970-01-01T02:11:01.000Z</time>
      </trkpt>
      <trkpt lat="42.790162" lon="-7.865001">
        <ele>510.6</ele>
        <time>1970-01-01T02:11:02.000Z</time>
      </trkpt>
      <trkpt lat="42.790151" lon="-7.864969">
        <ele>510.6</ele>
        <time>1970-01-01T02:11:03.000Z</time>
      </trkpt>
      <trkpt lat="42.790145" lon="-7.86494">
        <ele>510.6</ele>
        <time>1970-01-01T02:11:04.000Z</time>
      </trkpt>
      <trkpt lat="42.790137" lon="-7.864912">
        <ele>510.7</ele>
        <time>1970-01-01T02:11:05.000Z</time>
      </trkpt>
      <trkpt lat="42.790123" lon="-7.864885">
        <ele>510.7</ele>
        <time>1970-01-01T02:11:06.000Z</time>
      </trkpt>
      <trkpt lat="42.790113" lon="-7.86486">
        <ele>510.6</ele>
        <time>1970-01-01T02:11:07.000Z</time>
      </trkpt>
      <trkpt lat="42.790103" lon="-7.864841">
        <ele>510.8</ele>
        <time>1970-01-01T02:11:08.000Z</time>
      </trkpt>
      <trkpt lat="42.790091" lon="-7.864809">
        <ele>510.8</ele>
        <time>1970-01-01T02:11:09.000Z</time>
      </trkpt>
      <trkpt lat="42.790083" lon="-7.864782">
        <ele>510.8</ele>
        <time>1970-01-01T02:11:10.000Z</time>
      </trkpt>
      <trkpt lat="42.790072" lon="-7.864737">
        <ele>510.9</ele>
        <time>1970-01-01T02:11:11.000Z</time>
      </trkpt>
      <trkpt lat="42.79006" lon="-7.864709">
        <ele>510.9</ele>
        <time>1970-01-01T02:11:12.000Z</time>
      </trkpt>
      <trkpt lat="42.790049" lon="-7.864687">
        <ele>510.9</ele>
        <time>1970-01-01T02:11:13.000Z</time>
      </trkpt>
      <trkpt lat="42.790038" lon="-7.864652">
        <ele>511.2</ele>
        <time>1970-01-01T02:11:14.000Z</time>
      </trkpt>
      <trkpt lat="42.790022" lon="-7.864617">
        <ele>511.3</ele>
        <time>1970-01-01T02:11:15.000Z</time>
      </trkpt>
      <trkpt lat="42.790008" lon="-7.864583">
        <ele>511.6</ele>
        <time>1970-01-01T02:11:16.000Z</time>
      </trkpt>
      <trkpt lat="42.789996" lon="-7.864552">
        <ele>511.7</ele>
        <time>1970-01-01T02:11:17.000Z</time>
      </trkpt>
      <trkpt lat="42.789983" lon="-7.86451">
        <ele>512.1</ele>
        <time>1970-01-01T02:11:18.000Z</time>
      </trkpt>
      <trkpt lat="42.789969" lon="-7.864466">
        <ele>512.3</ele>
        <time>1970-01-01T02:11:19.000Z</time>
      </trkpt>
      <trkpt lat="42.789954" lon="-7.864425">
        <ele>512.4</ele>
        <time>1970-01-01T02:11:20.000Z</time>
      </trkpt>
      <trkpt lat="42.789936" lon="-7.864389">
        <ele>513</ele>
        <time>1970-01-01T02:11:21.000Z</time>
      </trkpt>
      <trkpt lat="42.789914" lon="-7.864359">
        <ele>513.5</ele>
        <time>1970-01-01T02:11:22.000Z</time>
      </trkpt>
      <trkpt lat="42.789891" lon="-7.864332">
        <ele>513.5</ele>
        <time>1970-01-01T02:11:23.000Z</time>
      </trkpt>
      <trkpt lat="42.789867" lon="-7.86431">
        <ele>513.9</ele>
        <time>1970-01-01T02:11:24.000Z</time>
      </trkpt>
      <trkpt lat="42.789842" lon="-7.864294">
        <ele>514.2</ele>
        <time>1970-01-01T02:11:25.000Z</time>
      </trkpt>
      <trkpt lat="42.789819" lon="-7.864277">
        <ele>514.6</ele>
        <time>1970-01-01T02:11:26.000Z</time>
      </trkpt>
      <trkpt lat="42.789801" lon="-7.864253">
        <ele>514.6</ele>
        <time>1970-01-01T02:11:27.000Z</time>
      </trkpt>
      <trkpt lat="42.78979" lon="-7.864215">
        <ele>514.9</ele>
        <time>1970-01-01T02:11:28.000Z</time>
      </trkpt>
      <trkpt lat="42.789783" lon="-7.864165">
        <ele>515</ele>
        <time>1970-01-01T02:11:29.000Z</time>
      </trkpt>
      <trkpt lat="42.789779" lon="-7.864109">
        <ele>515.1</ele>
        <time>1970-01-01T02:11:30.000Z</time>
      </trkpt>
      <trkpt lat="42.789774" lon="-7.864048">
        <ele>515.2</ele>
        <time>1970-01-01T02:11:31.000Z</time>
      </trkpt>
      <trkpt lat="42.789771" lon="-7.863986">
        <ele>515.3</ele>
        <time>1970-01-01T02:11:32.000Z</time>
      </trkpt>
      <trkpt lat="42.78977" lon="-7.863923">
        <ele>515.5</ele>
        <time>1970-01-01T02:11:33.000Z</time>
      </trkpt>
      <trkpt lat="42.789764" lon="-7.863861">
        <ele>515.5</ele>
        <time>1970-01-01T02:11:34.000Z</time>
      </trkpt>
      <trkpt lat="42.789757" lon="-7.863799">
        <ele>515.9</ele>
        <time>1970-01-01T02:11:35.000Z</time>
      </trkpt>
      <trkpt lat="42.789754" lon="-7.863742">
        <ele>516</ele>
        <time>1970-01-01T02:11:36.000Z</time>
      </trkpt>
      <trkpt lat="42.78976" lon="-7.863682">
        <ele>515.9</ele>
        <time>1970-01-01T02:11:37.000Z</time>
      </trkpt>
      <trkpt lat="42.789754" lon="-7.863628">
        <ele>515.8</ele>
        <time>1970-01-01T02:11:38.000Z</time>
      </trkpt>
      <trkpt lat="42.789751" lon="-7.863568">
        <ele>515.7</ele>
        <time>1970-01-01T02:11:39.000Z</time>
      </trkpt>
      <trkpt lat="42.789754" lon="-7.863504">
        <ele>515.5</ele>
        <time>1970-01-01T02:11:40.000Z</time>
      </trkpt>
      <trkpt lat="42.789755" lon="-7.863438">
        <ele>515.4</ele>
        <time>1970-01-01T02:11:41.000Z</time>
      </trkpt>
      <trkpt lat="42.789748" lon="-7.863375">
        <ele>515.1</ele>
        <time>1970-01-01T02:11:42.000Z</time>
      </trkpt>
      <trkpt lat="42.78973" lon="-7.863328">
        <ele>515.2</ele>
        <time>1970-01-01T02:11:43.000Z</time>
      </trkpt>
      <trkpt lat="42.78972" lon="-7.863265">
        <ele>515.1</ele>
        <time>1970-01-01T02:11:44.000Z</time>
      </trkpt>
      <trkpt lat="42.789718" lon="-7.863194">
        <ele>514.8</ele>
        <time>1970-01-01T02:11:45.000Z</time>
      </trkpt>
      <trkpt lat="42.789711" lon="-7.863126">
        <ele>514.6</ele>
        <time>1970-01-01T02:11:46.000Z</time>
      </trkpt>
      <trkpt lat="42.789698" lon="-7.863048">
        <ele>514.6</ele>
        <time>1970-01-01T02:11:47.000Z</time>
      </trkpt>
      <trkpt lat="42.789702" lon="-7.862963">
        <ele>514.1</ele>
        <time>1970-01-01T02:11:48.000Z</time>
      </trkpt>
      <trkpt lat="42.789692" lon="-7.862881">
        <ele>514.1</ele>
        <time>1970-01-01T02:11:49.000Z</time>
      </trkpt>
      <trkpt lat="42.789689" lon="-7.862806">
        <ele>513.6</ele>
        <time>1970-01-01T02:11:50.000Z</time>
      </trkpt>
      <trkpt lat="42.789682" lon="-7.862737">
        <ele>513.4</ele>
        <time>1970-01-01T02:11:51.000Z</time>
      </trkpt>
      <trkpt lat="42.789677" lon="-7.862674">
        <ele>512.9</ele>
        <time>1970-01-01T02:11:52.000Z</time>
      </trkpt>
      <trkpt lat="42.789678" lon="-7.862617">
        <ele>512.6</ele>
        <time>1970-01-01T02:11:53.000Z</time>
      </trkpt>
      <trkpt lat="42.789686" lon="-7.862561">
        <ele>511.9</ele>
        <time>1970-01-01T02:11:54.000Z</time>
      </trkpt>
      <trkpt lat="42.789692" lon="-7.862505">
        <ele>511.6</ele>
        <time>1970-01-01T02:11:55.000Z</time>
      </trkpt>
      <trkpt lat="42.789695" lon="-7.862453">
        <ele>511.3</ele>
        <time>1970-01-01T02:11:56.000Z</time>
      </trkpt>
      <trkpt lat="42.7897" lon="-7.86241">
        <ele>511</ele>
        <time>1970-01-01T02:11:57.000Z</time>
      </trkpt>
      <trkpt lat="42.789705" lon="-7.862365">
        <ele>510.6</ele>
        <time>1970-01-01T02:11:58.000Z</time>
      </trkpt>
      <trkpt lat="42.789714" lon="-7.86232">
        <ele>510.4</ele>
        <time>1970-01-01T02:11:59.000Z</time>
      </trkpt>
      <trkpt lat="42.789725" lon="-7.86228">
        <ele>510.1</ele>
        <time>1970-01-01T02:12:00.000Z</time>
      </trkpt>
      <trkpt lat="42.789736" lon="-7.862246">
        <ele>509.8</ele>
        <time>1970-01-01T02:12:01.000Z</time>
      </trkpt>
      <trkpt lat="42.78975" lon="-7.862217">
        <ele>509.6</ele>
        <time>1970-01-01T02:12:02.000Z</time>
      </trkpt>
      <trkpt lat="42.789761" lon="-7.862187">
        <ele>509.6</ele>
        <time>1970-01-01T02:12:03.000Z</time>
      </trkpt>
      <trkpt lat="42.789763" lon="-7.862156">
        <ele>509.4</ele>
        <time>1970-01-01T02:12:04.000Z</time>
      </trkpt>
      <trkpt lat="42.789761" lon="-7.862125">
        <ele>509.2</ele>
        <time>1970-01-01T02:12:05.000Z</time>
      </trkpt>
      <trkpt lat="42.789753" lon="-7.862119">
        <ele>509.2</ele>
        <time>1970-01-01T02:12:06.000Z</time>
      </trkpt>
      <trkpt lat="42.789737" lon="-7.862122">
        <ele>509.2</ele>
        <time>1970-01-01T02:12:07.000Z</time>
      </trkpt>
      <trkpt lat="42.789728" lon="-7.862126">
        <ele>509.2</ele>
        <time>1970-01-01T02:12:08.000Z</time>
      </trkpt>
      <trkpt lat="42.789712" lon="-7.86212">
        <ele>509.2</ele>
        <time>1970-01-01T02:12:09.000Z</time>
      </trkpt>
      <trkpt lat="42.78969" lon="-7.862108">
        <ele>509.2</ele>
        <time>1970-01-01T02:12:10.000Z</time>
      </trkpt>
      <trkpt lat="42.789664" lon="-7.862095">
        <ele>509.2</ele>
        <time>1970-01-01T02:12:11.000Z</time>
      </trkpt>
      <trkpt lat="42.789645" lon="-7.862077">
        <ele>509</ele>
        <time>1970-01-01T02:12:12.000Z</time>
      </trkpt>
      <trkpt lat="42.789629" lon="-7.862053">
        <ele>509</ele>
        <time>1970-01-01T02:12:13.000Z</time>
      </trkpt>
      <trkpt lat="42.789609" lon="-7.862034">
        <ele>508.8</ele>
        <time>1970-01-01T02:12:14.000Z</time>
      </trkpt>
      <trkpt lat="42.789594" lon="-7.862016">
        <ele>508.8</ele>
        <time>1970-01-01T02:12:15.000Z</time>
      </trkpt>
      <trkpt lat="42.789578" lon="-7.861988">
        <ele>508.7</ele>
        <time>1970-01-01T02:12:16.000Z</time>
      </trkpt>
      <trkpt lat="42.789563" lon="-7.861971">
        <ele>508.7</ele>
        <time>1970-01-01T02:12:17.000Z</time>
      </trkpt>
      <trkpt lat="42.789543" lon="-7.861949">
        <ele>508.5</ele>
        <time>1970-01-01T02:12:18.000Z</time>
      </trkpt>
      <trkpt lat="42.789522" lon="-7.861926">
        <ele>508.5</ele>
        <time>1970-01-01T02:12:19.000Z</time>
      </trkpt>
      <trkpt lat="42.789494" lon="-7.861904">
        <ele>508.4</ele>
        <time>1970-01-01T02:12:20.000Z</time>
      </trkpt>
      <trkpt lat="42.789468" lon="-7.861876">
        <ele>508.2</ele>
        <time>1970-01-01T02:12:21.000Z</time>
      </trkpt>
      <trkpt lat="42.78944" lon="-7.861843">
        <ele>508.2</ele>
        <time>1970-01-01T02:12:22.000Z</time>
      </trkpt>
      <trkpt lat="42.789414" lon="-7.861814">
        <ele>508.1</ele>
        <time>1970-01-01T02:12:23.000Z</time>
      </trkpt>
      <trkpt lat="42.789385" lon="-7.861787">
        <ele>508</ele>
        <time>1970-01-01T02:12:24.000Z</time>
      </trkpt>
      <trkpt lat="42.78936" lon="-7.861755">
        <ele>508</ele>
        <time>1970-01-01T02:12:25.000Z</time>
      </trkpt>
      <trkpt lat="42.789336" lon="-7.861721">
        <ele>507.9</ele>
        <time>1970-01-01T02:12:26.000Z</time>
      </trkpt>
      <trkpt lat="42.789312" lon="-7.861692">
        <ele>507.9</ele>
        <time>1970-01-01T02:12:27.000Z</time>
      </trkpt>
      <trkpt lat="42.789279" lon="-7.861662">
        <ele>507.9</ele>
        <time>1970-01-01T02:12:28.000Z</time>
      </trkpt>
      <trkpt lat="42.789244" lon="-7.861632">
        <ele>507.8</ele>
        <time>1970-01-01T02:12:29.000Z</time>
      </trkpt>
      <trkpt lat="42.789205" lon="-7.861619">
        <ele>507.9</ele>
        <time>1970-01-01T02:12:30.000Z</time>
      </trkpt>
      <trkpt lat="42.789174" lon="-7.86161">
        <ele>507.8</ele>
        <time>1970-01-01T02:12:31.000Z</time>
      </trkpt>
      <trkpt lat="42.789135" lon="-7.861604">
        <ele>507.8</ele>
        <time>1970-01-01T02:12:32.000Z</time>
      </trkpt>
      <trkpt lat="42.789092" lon="-7.861604">
        <ele>508</ele>
        <time>1970-01-01T02:12:33.000Z</time>
      </trkpt>
      <trkpt lat="42.789047" lon="-7.861604">
        <ele>508</ele>
        <time>1970-01-01T02:12:34.000Z</time>
      </trkpt>
      <trkpt lat="42.789003" lon="-7.861603">
        <ele>508.2</ele>
        <time>1970-01-01T02:12:35.000Z</time>
      </trkpt>
      <trkpt lat="42.788964" lon="-7.86161">
        <ele>508.3</ele>
        <time>1970-01-01T02:12:36.000Z</time>
      </trkpt>
      <trkpt lat="42.788924" lon="-7.861622">
        <ele>508.5</ele>
        <time>1970-01-01T02:12:37.000Z</time>
      </trkpt>
      <trkpt lat="42.788875" lon="-7.861628">
        <ele>508.7</ele>
        <time>1970-01-01T02:12:38.000Z</time>
      </trkpt>
      <trkpt lat="42.788828" lon="-7.861634">
        <ele>508.8</ele>
        <time>1970-01-01T02:12:39.000Z</time>
      </trkpt>
      <trkpt lat="42.788784" lon="-7.861637">
        <ele>509</ele>
        <time>1970-01-01T02:12:40.000Z</time>
      </trkpt>
      <trkpt lat="42.788749" lon="-7.861637">
        <ele>509</ele>
        <time>1970-01-01T02:12:41.000Z</time>
      </trkpt>
      <trkpt lat="42.788729" lon="-7.861679">
        <ele>509.2</ele>
        <time>1970-01-01T02:12:42.000Z</time>
      </trkpt>
      <trkpt lat="42.788697" lon="-7.861709">
        <ele>509.4</ele>
        <time>1970-01-01T02:12:43.000Z</time>
      </trkpt>
      <trkpt lat="42.788666" lon="-7.861737">
        <ele>509.5</ele>
        <time>1970-01-01T02:12:44.000Z</time>
      </trkpt>
      <trkpt lat="42.788642" lon="-7.861759">
        <ele>509.7</ele>
        <time>1970-01-01T02:12:45.000Z</time>
      </trkpt>
      <trkpt lat="42.788621" lon="-7.861781">
        <ele>509.8</ele>
        <time>1970-01-01T02:12:46.000Z</time>
      </trkpt>
      <trkpt lat="42.788597" lon="-7.861778">
        <ele>509.9</ele>
        <time>1970-01-01T02:12:47.000Z</time>
      </trkpt>
      <trkpt lat="42.788583" lon="-7.861804">
        <ele>510</ele>
        <time>1970-01-01T02:12:48.000Z</time>
      </trkpt>
      <trkpt lat="42.788569" lon="-7.861831">
        <ele>510</ele>
        <time>1970-01-01T02:12:49.000Z</time>
      </trkpt>
      <trkpt lat="42.788556" lon="-7.861859">
        <ele>510.3</ele>
        <time>1970-01-01T02:12:50.000Z</time>
      </trkpt>
      <trkpt lat="42.788543" lon="-7.861887">
        <ele>510.4</ele>
        <time>1970-01-01T02:12:51.000Z</time>
      </trkpt>
      <trkpt lat="42.788536" lon="-7.861915">
        <ele>510.4</ele>
        <time>1970-01-01T02:12:52.000Z</time>
      </trkpt>
      <trkpt lat="42.78853" lon="-7.861942">
        <ele>510.6</ele>
        <time>1970-01-01T02:12:53.000Z</time>
      </trkpt>
      <trkpt lat="42.788523" lon="-7.861965">
        <ele>510.7</ele>
        <time>1970-01-01T02:12:54.000Z</time>
      </trkpt>
      <trkpt lat="42.788518" lon="-7.861992">
        <ele>510.7</ele>
        <time>1970-01-01T02:12:55.000Z</time>
      </trkpt>
      <trkpt lat="42.788512" lon="-7.86202">
        <ele>510.8</ele>
        <time>1970-01-01T02:12:56.000Z</time>
      </trkpt>
      <trkpt lat="42.788506" lon="-7.862048">
        <ele>510.8</ele>
        <time>1970-01-01T02:12:57.000Z</time>
      </trkpt>
      <trkpt lat="42.788502" lon="-7.862073">
        <ele>511</ele>
        <time>1970-01-01T02:12:58.000Z</time>
      </trkpt>
      <trkpt lat="42.788489" lon="-7.862094">
        <ele>511</ele>
        <time>1970-01-01T02:12:59.000Z</time>
      </trkpt>
      <trkpt lat="42.78847" lon="-7.862101">
        <ele>511.2</ele>
        <time>1970-01-01T02:13:00.000Z</time>
      </trkpt>
      <trkpt lat="42.788447" lon="-7.862091">
        <ele>511.1</ele>
        <time>1970-01-01T02:13:01.000Z</time>
      </trkpt>
      <trkpt lat="42.788427" lon="-7.862066">
        <ele>511.2</ele>
        <time>1970-01-01T02:13:02.000Z</time>
      </trkpt>
      <trkpt lat="42.788412" lon="-7.86203">
        <ele>511.1</ele>
        <time>1970-01-01T02:13:03.000Z</time>
      </trkpt>
      <trkpt lat="42.788403" lon="-7.861988">
        <ele>511</ele>
        <time>1970-01-01T02:13:04.000Z</time>
      </trkpt>
      <trkpt lat="42.788397" lon="-7.861936">
        <ele>510.8</ele>
        <time>1970-01-01T02:13:05.000Z</time>
      </trkpt>
      <trkpt lat="42.788394" lon="-7.861878">
        <ele>510.6</ele>
        <time>1970-01-01T02:13:06.000Z</time>
      </trkpt>
      <trkpt lat="42.788394" lon="-7.861815">
        <ele>510.3</ele>
        <time>1970-01-01T02:13:07.000Z</time>
      </trkpt>
      <trkpt lat="42.7884" lon="-7.861747">
        <ele>510.1</ele>
        <time>1970-01-01T02:13:08.000Z</time>
      </trkpt>
      <trkpt lat="42.78841" lon="-7.861674">
        <ele>509.8</ele>
        <time>1970-01-01T02:13:09.000Z</time>
      </trkpt>
      <trkpt lat="42.788425" lon="-7.861599">
        <ele>509.4</ele>
        <time>1970-01-01T02:13:10.000Z</time>
      </trkpt>
      <trkpt lat="42.788444" lon="-7.861523">
        <ele>509.1</ele>
        <time>1970-01-01T02:13:11.000Z</time>
      </trkpt>
      <trkpt lat="42.788467" lon="-7.861443">
        <ele>508.8</ele>
        <time>1970-01-01T02:13:12.000Z</time>
      </trkpt>
      <trkpt lat="42.788488" lon="-7.861359">
        <ele>508.4</ele>
        <time>1970-01-01T02:13:13.000Z</time>
      </trkpt>
      <trkpt lat="42.788511" lon="-7.86127">
        <ele>508.1</ele>
        <time>1970-01-01T02:13:14.000Z</time>
      </trkpt>
      <trkpt lat="42.788537" lon="-7.861182">
        <ele>507.9</ele>
        <time>1970-01-01T02:13:15.000Z</time>
      </trkpt>
      <trkpt lat="42.788564" lon="-7.861097">
        <ele>507.7</ele>
        <time>1970-01-01T02:13:16.000Z</time>
      </trkpt>
      <trkpt lat="42.788589" lon="-7.861018">
        <ele>507.5</ele>
        <time>1970-01-01T02:13:17.000Z</time>
      </trkpt>
      <trkpt lat="42.788609" lon="-7.860943">
        <ele>507.2</ele>
        <time>1970-01-01T02:13:18.000Z</time>
      </trkpt>
      <trkpt lat="42.788623" lon="-7.860869">
        <ele>506.9</ele>
        <time>1970-01-01T02:13:19.000Z</time>
      </trkpt>
      <trkpt lat="42.788634" lon="-7.860792">
        <ele>506.6</ele>
        <time>1970-01-01T02:13:20.000Z</time>
      </trkpt>
      <trkpt lat="42.788639" lon="-7.860714">
        <ele>506.3</ele>
        <time>1970-01-01T02:13:21.000Z</time>
      </trkpt>
      <trkpt lat="42.788645" lon="-7.860632">
        <ele>505.9</ele>
        <time>1970-01-01T02:13:22.000Z</time>
      </trkpt>
      <trkpt lat="42.788657" lon="-7.860544">
        <ele>505.6</ele>
        <time>1970-01-01T02:13:23.000Z</time>
      </trkpt>
      <trkpt lat="42.788677" lon="-7.860452">
        <ele>505.4</ele>
        <time>1970-01-01T02:13:24.000Z</time>
      </trkpt>
      <trkpt lat="42.788703" lon="-7.86036">
        <ele>505.1</ele>
        <time>1970-01-01T02:13:25.000Z</time>
      </trkpt>
      <trkpt lat="42.788732" lon="-7.860265">
        <ele>504.8</ele>
        <time>1970-01-01T02:13:26.000Z</time>
      </trkpt>
      <trkpt lat="42.788764" lon="-7.86017">
        <ele>504.5</ele>
        <time>1970-01-01T02:13:27.000Z</time>
      </trkpt>
      <trkpt lat="42.7888" lon="-7.860079">
        <ele>504.1</ele>
        <time>1970-01-01T02:13:28.000Z</time>
      </trkpt>
      <trkpt lat="42.788839" lon="-7.859991">
        <ele>503.7</ele>
        <time>1970-01-01T02:13:29.000Z</time>
      </trkpt>
      <trkpt lat="42.788873" lon="-7.8599">
        <ele>503.3</ele>
        <time>1970-01-01T02:13:30.000Z</time>
      </trkpt>
      <trkpt lat="42.788906" lon="-7.859807">
        <ele>502.9</ele>
        <time>1970-01-01T02:13:31.000Z</time>
      </trkpt>
      <trkpt lat="42.788941" lon="-7.859716">
        <ele>502.5</ele>
        <time>1970-01-01T02:13:32.000Z</time>
      </trkpt>
      <trkpt lat="42.788978" lon="-7.859627">
        <ele>502.1</ele>
        <time>1970-01-01T02:13:33.000Z</time>
      </trkpt>
      <trkpt lat="42.789016" lon="-7.859539">
        <ele>501.8</ele>
        <time>1970-01-01T02:13:34.000Z</time>
      </trkpt>
      <trkpt lat="42.789055" lon="-7.859446">
        <ele>501.5</ele>
        <time>1970-01-01T02:13:35.000Z</time>
      </trkpt>
      <trkpt lat="42.789092" lon="-7.859347">
        <ele>501.2</ele>
        <time>1970-01-01T02:13:36.000Z</time>
      </trkpt>
      <trkpt lat="42.78913" lon="-7.859248">
        <ele>500.8</ele>
        <time>1970-01-01T02:13:37.000Z</time>
      </trkpt>
      <trkpt lat="42.789168" lon="-7.859147">
        <ele>500.3</ele>
        <time>1970-01-01T02:13:38.000Z</time>
      </trkpt>
      <trkpt lat="42.789207" lon="-7.859044">
        <ele>499.6</ele>
        <time>1970-01-01T02:13:39.000Z</time>
      </trkpt>
      <trkpt lat="42.789245" lon="-7.858941">
        <ele>499</ele>
        <time>1970-01-01T02:13:40.000Z</time>
      </trkpt>
      <trkpt lat="42.789285" lon="-7.858836">
        <ele>498.4</ele>
        <time>1970-01-01T02:13:41.000Z</time>
      </trkpt>
      <trkpt lat="42.789325" lon="-7.858728">
        <ele>497.7</ele>
        <time>1970-01-01T02:13:42.000Z</time>
      </trkpt>
      <trkpt lat="42.789366" lon="-7.858618">
        <ele>497.1</ele>
        <time>1970-01-01T02:13:43.000Z</time>
      </trkpt>
      <trkpt lat="42.789407" lon="-7.858504">
        <ele>496.4</ele>
        <time>1970-01-01T02:13:44.000Z</time>
      </trkpt>
      <trkpt lat="42.789449" lon="-7.858385">
        <ele>495.7</ele>
        <time>1970-01-01T02:13:45.000Z</time>
      </trkpt>
      <trkpt lat="42.789491" lon="-7.858262">
        <ele>495</ele>
        <time>1970-01-01T02:13:46.000Z</time>
      </trkpt>
      <trkpt lat="42.789534" lon="-7.858141">
        <ele>494.3</ele>
        <time>1970-01-01T02:13:47.000Z</time>
      </trkpt>
      <trkpt lat="42.789577" lon="-7.858019">
        <ele>493.5</ele>
        <time>1970-01-01T02:13:48.000Z</time>
      </trkpt>
      <trkpt lat="42.789621" lon="-7.857898">
        <ele>492.9</ele>
        <time>1970-01-01T02:13:49.000Z</time>
      </trkpt>
      <trkpt lat="42.789663" lon="-7.857783">
        <ele>492.2</ele>
        <time>1970-01-01T02:13:50.000Z</time>
      </trkpt>
      <trkpt lat="42.789701" lon="-7.85768">
        <ele>491.7</ele>
        <time>1970-01-01T02:13:51.000Z</time>
      </trkpt>
      <trkpt lat="42.789733" lon="-7.857585">
        <ele>491.2</ele>
        <time>1970-01-01T02:13:52.000Z</time>
      </trkpt>
      <trkpt lat="42.789761" lon="-7.857494">
        <ele>489.8</ele>
        <time>1970-01-01T02:13:53.000Z</time>
      </trkpt>
      <trkpt lat="42.789788" lon="-7.857403">
        <ele>489.8</ele>
        <time>1970-01-01T02:13:54.000Z</time>
      </trkpt>
      <trkpt lat="42.789818" lon="-7.857315">
        <ele>489.7</ele>
        <time>1970-01-01T02:13:55.000Z</time>
      </trkpt>
      <trkpt lat="42.789851" lon="-7.85723">
        <ele>489.6</ele>
        <time>1970-01-01T02:13:56.000Z</time>
      </trkpt>
      <trkpt lat="42.789884" lon="-7.857147">
        <ele>489.6</ele>
        <time>1970-01-01T02:13:57.000Z</time>
      </trkpt>
      <trkpt lat="42.789915" lon="-7.857066">
        <ele>489.8</ele>
        <time>1970-01-01T02:13:58.000Z</time>
      </trkpt>
      <trkpt lat="42.789942" lon="-7.856983">
        <ele>490</ele>
        <time>1970-01-01T02:13:59.000Z</time>
      </trkpt>
      <trkpt lat="42.789969" lon="-7.856902">
        <ele>490.1</ele>
        <time>1970-01-01T02:14:00.000Z</time>
      </trkpt>
      <trkpt lat="42.789995" lon="-7.856825">
        <ele>490.4</ele>
        <time>1970-01-01T02:14:01.000Z</time>
      </trkpt>
      <trkpt lat="42.790022" lon="-7.856751">
        <ele>490.5</ele>
        <time>1970-01-01T02:14:02.000Z</time>
      </trkpt>
      <trkpt lat="42.790049" lon="-7.85668">
        <ele>490.5</ele>
        <time>1970-01-01T02:14:03.000Z</time>
      </trkpt>
      <trkpt lat="42.790075" lon="-7.856613">
        <ele>490.6</ele>
        <time>1970-01-01T02:14:04.000Z</time>
      </trkpt>
      <trkpt lat="42.790099" lon="-7.85655">
        <ele>490.6</ele>
        <time>1970-01-01T02:14:05.000Z</time>
      </trkpt>
      <trkpt lat="42.790121" lon="-7.856488">
        <ele>490.6</ele>
        <time>1970-01-01T02:14:06.000Z</time>
      </trkpt>
      <trkpt lat="42.790145" lon="-7.856424">
        <ele>490.6</ele>
        <time>1970-01-01T02:14:07.000Z</time>
      </trkpt>
      <trkpt lat="42.790168" lon="-7.856356">
        <ele>490.6</ele>
        <time>1970-01-01T02:14:08.000Z</time>
      </trkpt>
      <trkpt lat="42.790192" lon="-7.856283">
        <ele>490.5</ele>
        <time>1970-01-01T02:14:09.000Z</time>
      </trkpt>
      <trkpt lat="42.790215" lon="-7.856205">
        <ele>490.5</ele>
        <time>1970-01-01T02:14:10.000Z</time>
      </trkpt>
      <trkpt lat="42.790242" lon="-7.856124">
        <ele>490.5</ele>
        <time>1970-01-01T02:14:11.000Z</time>
      </trkpt>
      <trkpt lat="42.79027" lon="-7.856038">
        <ele>490.3</ele>
        <time>1970-01-01T02:14:12.000Z</time>
      </trkpt>
      <trkpt lat="42.790301" lon="-7.855947">
        <ele>490.3</ele>
        <time>1970-01-01T02:14:13.000Z</time>
      </trkpt>
      <trkpt lat="42.790332" lon="-7.855854">
        <ele>490.2</ele>
        <time>1970-01-01T02:14:14.000Z</time>
      </trkpt>
      <trkpt lat="42.790363" lon="-7.855759">
        <ele>490.1</ele>
        <time>1970-01-01T02:14:15.000Z</time>
      </trkpt>
      <trkpt lat="42.790392" lon="-7.855665">
        <ele>490.1</ele>
        <time>1970-01-01T02:14:16.000Z</time>
      </trkpt>
      <trkpt lat="42.790423" lon="-7.855574">
        <ele>490</ele>
        <time>1970-01-01T02:14:17.000Z</time>
      </trkpt>
      <trkpt lat="42.790451" lon="-7.855489">
        <ele>490</ele>
        <time>1970-01-01T02:14:18.000Z</time>
      </trkpt>
      <trkpt lat="42.790471" lon="-7.855415">
        <ele>490</ele>
        <time>1970-01-01T02:14:19.000Z</time>
      </trkpt>
      <trkpt lat="42.790472" lon="-7.855349">
        <ele>489.9</ele>
        <time>1970-01-01T02:14:20.000Z</time>
      </trkpt>
      <trkpt lat="42.79046" lon="-7.855295">
        <ele>489.9</ele>
        <time>1970-01-01T02:14:21.000Z</time>
      </trkpt>
      <trkpt lat="42.790442" lon="-7.855251">
        <ele>489.9</ele>
        <time>1970-01-01T02:14:22.000Z</time>
      </trkpt>
      <trkpt lat="42.790428" lon="-7.855216">
        <ele>489.9</ele>
        <time>1970-01-01T02:14:23.000Z</time>
      </trkpt>
      <trkpt lat="42.790418" lon="-7.855182">
        <ele>489.9</ele>
        <time>1970-01-01T02:14:24.000Z</time>
      </trkpt>
      <trkpt lat="42.790412" lon="-7.855148">
        <ele>489.9</ele>
        <time>1970-01-01T02:14:25.000Z</time>
      </trkpt>
      <trkpt lat="42.790397" lon="-7.85511">
        <ele>489.9</ele>
        <time>1970-01-01T02:14:26.000Z</time>
      </trkpt>
      <trkpt lat="42.79039" lon="-7.855055">
        <ele>489.9</ele>
        <time>1970-01-01T02:14:27.000Z</time>
      </trkpt>
      <trkpt lat="42.790382" lon="-7.854994">
        <ele>490</ele>
        <time>1970-01-01T02:14:28.000Z</time>
      </trkpt>
      <trkpt lat="42.790368" lon="-7.854929">
        <ele>490.1</ele>
        <time>1970-01-01T02:14:29.000Z</time>
      </trkpt>
      <trkpt lat="42.790351" lon="-7.854877">
        <ele>490.1</ele>
        <time>1970-01-01T02:14:30.000Z</time>
      </trkpt>
      <trkpt lat="42.790342" lon="-7.854822">
        <ele>490.2</ele>
        <time>1970-01-01T02:14:31.000Z</time>
      </trkpt>
      <trkpt lat="42.790327" lon="-7.854786">
        <ele>490.2</ele>
        <time>1970-01-01T02:14:32.000Z</time>
      </trkpt>
      <trkpt lat="42.790307" lon="-7.85476">
        <ele>490.3</ele>
        <time>1970-01-01T02:14:33.000Z</time>
      </trkpt>
      <trkpt lat="42.790287" lon="-7.854735">
        <ele>490.3</ele>
        <time>1970-01-01T02:14:34.000Z</time>
      </trkpt>
      <trkpt lat="42.790264" lon="-7.854715">
        <ele>490.3</ele>
        <time>1970-01-01T02:14:35.000Z</time>
      </trkpt>
      <trkpt lat="42.790238" lon="-7.854679">
        <ele>490.4</ele>
        <time>1970-01-01T02:14:36.000Z</time>
      </trkpt>
      <trkpt lat="42.790221" lon="-7.854624">
        <ele>490.4</ele>
        <time>1970-01-01T02:14:37.000Z</time>
      </trkpt>
      <trkpt lat="42.790218" lon="-7.854569">
        <ele>490.5</ele>
        <time>1970-01-01T02:14:38.000Z</time>
      </trkpt>
      <trkpt lat="42.79022" lon="-7.854507">
        <ele>490.6</ele>
        <time>1970-01-01T02:14:39.000Z</time>
      </trkpt>
      <trkpt lat="42.790221" lon="-7.854448">
        <ele>490.6</ele>
        <time>1970-01-01T02:14:40.000Z</time>
      </trkpt>
      <trkpt lat="42.790225" lon="-7.854395">
        <ele>490.7</ele>
        <time>1970-01-01T02:14:41.000Z</time>
      </trkpt>
      <trkpt lat="42.790223" lon="-7.854341">
        <ele>490.7</ele>
        <time>1970-01-01T02:14:42.000Z</time>
      </trkpt>
      <trkpt lat="42.79023" lon="-7.854284">
        <ele>490.8</ele>
        <time>1970-01-01T02:14:43.000Z</time>
      </trkpt>
      <trkpt lat="42.790239" lon="-7.854231">
        <ele>490.8</ele>
        <time>1970-01-01T02:14:44.000Z</time>
      </trkpt>
      <trkpt lat="42.790248" lon="-7.854174">
        <ele>490.9</ele>
        <time>1970-01-01T02:14:45.000Z</time>
      </trkpt>
      <trkpt lat="42.790253" lon="-7.854112">
        <ele>490.9</ele>
        <time>1970-01-01T02:14:46.000Z</time>
      </trkpt>
      <trkpt lat="42.790258" lon="-7.854043">
        <ele>491</ele>
        <time>1970-01-01T02:14:47.000Z</time>
      </trkpt>
      <trkpt lat="42.790263" lon="-7.853974">
        <ele>491.1</ele>
        <time>1970-01-01T02:14:48.000Z</time>
      </trkpt>
      <trkpt lat="42.790261" lon="-7.853908">
        <ele>491.1</ele>
        <time>1970-01-01T02:14:49.000Z</time>
      </trkpt>
      <trkpt lat="42.790251" lon="-7.853842">
        <ele>491.2</ele>
        <time>1970-01-01T02:14:50.000Z</time>
      </trkpt>
      <trkpt lat="42.790236" lon="-7.853784">
        <ele>491.3</ele>
        <time>1970-01-01T02:14:51.000Z</time>
      </trkpt>
      <trkpt lat="42.790217" lon="-7.853733">
        <ele>491.4</ele>
        <time>1970-01-01T02:14:52.000Z</time>
      </trkpt>
      <trkpt lat="42.790193" lon="-7.853697">
        <ele>491.4</ele>
        <time>1970-01-01T02:14:53.000Z</time>
      </trkpt>
      <trkpt lat="42.79018" lon="-7.853654">
        <ele>491.5</ele>
        <time>1970-01-01T02:14:54.000Z</time>
      </trkpt>
      <trkpt lat="42.790157" lon="-7.853618">
        <ele>491.5</ele>
        <time>1970-01-01T02:14:55.000Z</time>
      </trkpt>
      <trkpt lat="42.790137" lon="-7.853568">
        <ele>491.6</ele>
        <time>1970-01-01T02:14:56.000Z</time>
      </trkpt>
      <trkpt lat="42.790121" lon="-7.853506">
        <ele>491.6</ele>
        <time>1970-01-01T02:14:57.000Z</time>
      </trkpt>
      <trkpt lat="42.790098" lon="-7.853446">
        <ele>491.7</ele>
        <time>1970-01-01T02:14:58.000Z</time>
      </trkpt>
      <trkpt lat="42.790077" lon="-7.853388">
        <ele>491.8</ele>
        <time>1970-01-01T02:14:59.000Z</time>
      </trkpt>
      <trkpt lat="42.790061" lon="-7.85332">
        <ele>491.8</ele>
        <time>1970-01-01T02:15:00.000Z</time>
      </trkpt>
      <trkpt lat="42.790057" lon="-7.853253">
        <ele>491.9</ele>
        <time>1970-01-01T02:15:01.000Z</time>
      </trkpt>
      <trkpt lat="42.790059" lon="-7.853185">
        <ele>492</ele>
        <time>1970-01-01T02:15:02.000Z</time>
      </trkpt>
      <trkpt lat="42.790066" lon="-7.85311">
        <ele>492.1</ele>
        <time>1970-01-01T02:15:03.000Z</time>
      </trkpt>
      <trkpt lat="42.790075" lon="-7.853045">
        <ele>492.1</ele>
        <time>1970-01-01T02:15:04.000Z</time>
      </trkpt>
      <trkpt lat="42.790088" lon="-7.852981">
        <ele>492.2</ele>
        <time>1970-01-01T02:15:05.000Z</time>
      </trkpt>
      <trkpt lat="42.790106" lon="-7.852926">
        <ele>492.3</ele>
        <time>1970-01-01T02:15:06.000Z</time>
      </trkpt>
      <trkpt lat="42.790131" lon="-7.852874">
        <ele>492.3</ele>
        <time>1970-01-01T02:15:07.000Z</time>
      </trkpt>
      <trkpt lat="42.790153" lon="-7.852843">
        <ele>492.4</ele>
        <time>1970-01-01T02:15:08.000Z</time>
      </trkpt>
      <trkpt lat="42.79017" lon="-7.852795">
        <ele>492.4</ele>
        <time>1970-01-01T02:15:09.000Z</time>
      </trkpt>
      <trkpt lat="42.790187" lon="-7.852741">
        <ele>492.5</ele>
        <time>1970-01-01T02:15:10.000Z</time>
      </trkpt>
      <trkpt lat="42.790195" lon="-7.852699">
        <ele>492.5</ele>
        <time>1970-01-01T02:15:11.000Z</time>
      </trkpt>
      <trkpt lat="42.790204" lon="-7.852649">
        <ele>492.6</ele>
        <time>1970-01-01T02:15:12.000Z</time>
      </trkpt>
      <trkpt lat="42.790211" lon="-7.852586">
        <ele>492.6</ele>
        <time>1970-01-01T02:15:13.000Z</time>
      </trkpt>
      <trkpt lat="42.790217" lon="-7.852525">
        <ele>492.7</ele>
        <time>1970-01-01T02:15:14.000Z</time>
      </trkpt>
      <trkpt lat="42.79022" lon="-7.852458">
        <ele>492.8</ele>
        <time>1970-01-01T02:15:15.000Z</time>
      </trkpt>
      <trkpt lat="42.790216" lon="-7.852396">
        <ele>492.9</ele>
        <time>1970-01-01T02:15:16.000Z</time>
      </trkpt>
      <trkpt lat="42.790204" lon="-7.852337">
        <ele>493.1</ele>
        <time>1970-01-01T02:15:17.000Z</time>
      </trkpt>
      <trkpt lat="42.790187" lon="-7.852278">
        <ele>493.2</ele>
        <time>1970-01-01T02:15:18.000Z</time>
      </trkpt>
      <trkpt lat="42.790163" lon="-7.852222">
        <ele>493.4</ele>
        <time>1970-01-01T02:15:19.000Z</time>
      </trkpt>
      <trkpt lat="42.790132" lon="-7.852177">
        <ele>493.5</ele>
        <time>1970-01-01T02:15:20.000Z</time>
      </trkpt>
      <trkpt lat="42.790092" lon="-7.852148">
        <ele>493.7</ele>
        <time>1970-01-01T02:15:21.000Z</time>
      </trkpt>
      <trkpt lat="42.790045" lon="-7.852135">
        <ele>493.9</ele>
        <time>1970-01-01T02:15:22.000Z</time>
      </trkpt>
      <trkpt lat="42.789999" lon="-7.852128">
        <ele>494</ele>
        <time>1970-01-01T02:15:23.000Z</time>
      </trkpt>
      <trkpt lat="42.789956" lon="-7.852128">
        <ele>494.1</ele>
        <time>1970-01-01T02:15:24.000Z</time>
      </trkpt>
      <trkpt lat="42.789914" lon="-7.852132">
        <ele>494.3</ele>
        <time>1970-01-01T02:15:25.000Z</time>
      </trkpt>
      <trkpt lat="42.789881" lon="-7.85214">
        <ele>494.3</ele>
        <time>1970-01-01T02:15:26.000Z</time>
      </trkpt>
      <trkpt lat="42.789855" lon="-7.852137">
        <ele>494.4</ele>
        <time>1970-01-01T02:15:27.000Z</time>
      </trkpt>
      <trkpt lat="42.789828" lon="-7.852132">
        <ele>494.4</ele>
        <time>1970-01-01T02:15:28.000Z</time>
      </trkpt>
      <trkpt lat="42.789806" lon="-7.852116">
        <ele>494.5</ele>
        <time>1970-01-01T02:15:29.000Z</time>
      </trkpt>
      <trkpt lat="42.789782" lon="-7.852089">
        <ele>494.5</ele>
        <time>1970-01-01T02:15:30.000Z</time>
      </trkpt>
      <trkpt lat="42.789757" lon="-7.85204">
        <ele>494.6</ele>
        <time>1970-01-01T02:15:31.000Z</time>
      </trkpt>
      <trkpt lat="42.789745" lon="-7.852003">
        <ele>494.6</ele>
        <time>1970-01-01T02:15:32.000Z</time>
      </trkpt>
      <trkpt lat="42.789744" lon="-7.851962">
        <ele>494.7</ele>
        <time>1970-01-01T02:15:33.000Z</time>
      </trkpt>
      <trkpt lat="42.789739" lon="-7.851915">
        <ele>494.7</ele>
        <time>1970-01-01T02:15:34.000Z</time>
      </trkpt>
      <trkpt lat="42.789734" lon="-7.851875">
        <ele>494.8</ele>
        <time>1970-01-01T02:15:35.000Z</time>
      </trkpt>
      <trkpt lat="42.789726" lon="-7.851824">
        <ele>494.8</ele>
        <time>1970-01-01T02:15:36.000Z</time>
      </trkpt>
      <trkpt lat="42.789718" lon="-7.85177">
        <ele>494.8</ele>
        <time>1970-01-01T02:15:37.000Z</time>
      </trkpt>
      <trkpt lat="42.789709" lon="-7.851705">
        <ele>494.9</ele>
        <time>1970-01-01T02:15:38.000Z</time>
      </trkpt>
      <trkpt lat="42.789702" lon="-7.851651">
        <ele>495</ele>
        <time>1970-01-01T02:15:39.000Z</time>
      </trkpt>
      <trkpt lat="42.789695" lon="-7.85159">
        <ele>495</ele>
        <time>1970-01-01T02:15:40.000Z</time>
      </trkpt>
      <trkpt lat="42.789688" lon="-7.851539">
        <ele>495</ele>
        <time>1970-01-01T02:15:41.000Z</time>
      </trkpt>
      <trkpt lat="42.78969" lon="-7.851486">
        <ele>495</ele>
        <time>1970-01-01T02:15:42.000Z</time>
      </trkpt>
      <trkpt lat="42.789701" lon="-7.85145">
        <ele>495.1</ele>
        <time>1970-01-01T02:15:43.000Z</time>
      </trkpt>
      <trkpt lat="42.789706" lon="-7.851425">
        <ele>495.1</ele>
        <time>1970-01-01T02:15:44.000Z</time>
      </trkpt>
      <trkpt lat="42.789718" lon="-7.851384">
        <ele>495.1</ele>
        <time>1970-01-01T02:15:45.000Z</time>
      </trkpt>
      <trkpt lat="42.789744" lon="-7.851329">
        <ele>495</ele>
        <time>1970-01-01T02:15:46.000Z</time>
      </trkpt>
      <trkpt lat="42.789773" lon="-7.851303">
        <ele>495</ele>
        <time>1970-01-01T02:15:47.000Z</time>
      </trkpt>
      <trkpt lat="42.789803" lon="-7.851279">
        <ele>495</ele>
        <time>1970-01-01T02:15:48.000Z</time>
      </trkpt>
      <trkpt lat="42.789831" lon="-7.851266">
        <ele>494.9</ele>
        <time>1970-01-01T02:15:49.000Z</time>
      </trkpt>
      <trkpt lat="42.789862" lon="-7.851252">
        <ele>494.9</ele>
        <time>1970-01-01T02:15:50.000Z</time>
      </trkpt>
      <trkpt lat="42.789901" lon="-7.851239">
        <ele>494.9</ele>
        <time>1970-01-01T02:15:51.000Z</time>
      </trkpt>
      <trkpt lat="42.789937" lon="-7.851227">
        <ele>494.8</ele>
        <time>1970-01-01T02:15:52.000Z</time>
      </trkpt>
      <trkpt lat="42.789974" lon="-7.851209">
        <ele>494.8</ele>
        <time>1970-01-01T02:15:53.000Z</time>
      </trkpt>
      <trkpt lat="42.790008" lon="-7.851199">
        <ele>494.8</ele>
        <time>1970-01-01T02:15:54.000Z</time>
      </trkpt>
      <trkpt lat="42.790038" lon="-7.851176">
        <ele>494.7</ele>
        <time>1970-01-01T02:15:55.000Z</time>
      </trkpt>
      <trkpt lat="42.790063" lon="-7.851128">
        <ele>494.5</ele>
        <time>1970-01-01T02:15:56.000Z</time>
      </trkpt>
      <trkpt lat="42.790069" lon="-7.851086">
        <ele>494.4</ele>
        <time>1970-01-01T02:15:57.000Z</time>
      </trkpt>
      <trkpt lat="42.790065" lon="-7.851045">
        <ele>494.3</ele>
        <time>1970-01-01T02:15:58.000Z</time>
      </trkpt>
      <trkpt lat="42.790057" lon="-7.850991">
        <ele>494.2</ele>
        <time>1970-01-01T02:15:59.000Z</time>
      </trkpt>
      <trkpt lat="42.790054" lon="-7.85094">
        <ele>494.1</ele>
        <time>1970-01-01T02:16:00.000Z</time>
      </trkpt>
      <trkpt lat="42.790044" lon="-7.850892">
        <ele>494.1</ele>
        <time>1970-01-01T02:16:01.000Z</time>
      </trkpt>
      <trkpt lat="42.790033" lon="-7.850842">
        <ele>494</ele>
        <time>1970-01-01T02:16:02.000Z</time>
      </trkpt>
      <trkpt lat="42.790021" lon="-7.850782">
        <ele>493.9</ele>
        <time>1970-01-01T02:16:03.000Z</time>
      </trkpt>
      <trkpt lat="42.790001" lon="-7.850727">
        <ele>493.9</ele>
        <time>1970-01-01T02:16:04.000Z</time>
      </trkpt>
      <trkpt lat="42.789982" lon="-7.850671">
        <ele>493.8</ele>
        <time>1970-01-01T02:16:05.000Z</time>
      </trkpt>
      <trkpt lat="42.789966" lon="-7.850616">
        <ele>493.7</ele>
        <time>1970-01-01T02:16:06.000Z</time>
      </trkpt>
      <trkpt lat="42.789953" lon="-7.850561">
        <ele>493.7</ele>
        <time>1970-01-01T02:16:07.000Z</time>
      </trkpt>
      <trkpt lat="42.789939" lon="-7.850509">
        <ele>493.7</ele>
        <time>1970-01-01T02:16:08.000Z</time>
      </trkpt>
      <trkpt lat="42.789923" lon="-7.850461">
        <ele>493.6</ele>
        <time>1970-01-01T02:16:09.000Z</time>
      </trkpt>
      <trkpt lat="42.789903" lon="-7.850415">
        <ele>493.5</ele>
        <time>1970-01-01T02:16:10.000Z</time>
      </trkpt>
      <trkpt lat="42.789879" lon="-7.850377">
        <ele>493.6</ele>
        <time>1970-01-01T02:16:11.000Z</time>
      </trkpt>
      <trkpt lat="42.78985" lon="-7.850345">
        <ele>493.5</ele>
        <time>1970-01-01T02:16:12.000Z</time>
      </trkpt>
      <trkpt lat="42.789819" lon="-7.850319">
        <ele>493.5</ele>
        <time>1970-01-01T02:16:13.000Z</time>
      </trkpt>
      <trkpt lat="42.789778" lon="-7.850312">
        <ele>493.5</ele>
        <time>1970-01-01T02:16:14.000Z</time>
      </trkpt>
      <trkpt lat="42.789739" lon="-7.850294">
        <ele>493.5</ele>
        <time>1970-01-01T02:16:15.000Z</time>
      </trkpt>
      <trkpt lat="42.7897" lon="-7.850278">
        <ele>493.6</ele>
        <time>1970-01-01T02:16:16.000Z</time>
      </trkpt>
      <trkpt lat="42.789633" lon="-7.850218">
        <ele>493.6</ele>
        <time>1970-01-01T02:16:18.000Z</time>
      </trkpt>
      <trkpt lat="42.789601" lon="-7.850187">
        <ele>493.6</ele>
        <time>1970-01-01T02:16:19.000Z</time>
      </trkpt>
      <trkpt lat="42.78957" lon="-7.85016">
        <ele>493.6</ele>
        <time>1970-01-01T02:16:20.000Z</time>
      </trkpt>
      <trkpt lat="42.789538" lon="-7.850136">
        <ele>493.7</ele>
        <time>1970-01-01T02:16:21.000Z</time>
      </trkpt>
      <trkpt lat="42.78951" lon="-7.850102">
        <ele>493.7</ele>
        <time>1970-01-01T02:16:22.000Z</time>
      </trkpt>
      <trkpt lat="42.789484" lon="-7.850068">
        <ele>493.7</ele>
        <time>1970-01-01T02:16:23.000Z</time>
      </trkpt>
      <trkpt lat="42.789466" lon="-7.850039">
        <ele>493.8</ele>
        <time>1970-01-01T02:16:24.000Z</time>
      </trkpt>
      <trkpt lat="42.789446" lon="-7.850004">
        <ele>493.9</ele>
        <time>1970-01-01T02:16:25.000Z</time>
      </trkpt>
      <trkpt lat="42.78943" lon="-7.849959">
        <ele>493.9</ele>
        <time>1970-01-01T02:16:26.000Z</time>
      </trkpt>
      <trkpt lat="42.789413" lon="-7.849913">
        <ele>494</ele>
        <time>1970-01-01T02:16:27.000Z</time>
      </trkpt>
      <trkpt lat="42.789398" lon="-7.849869">
        <ele>494</ele>
        <time>1970-01-01T02:16:28.000Z</time>
      </trkpt>
      <trkpt lat="42.789379" lon="-7.849833">
        <ele>494.1</ele>
        <time>1970-01-01T02:16:29.000Z</time>
      </trkpt>
      <trkpt lat="42.789354" lon="-7.849782">
        <ele>494.2</ele>
        <time>1970-01-01T02:16:30.000Z</time>
      </trkpt>
      <trkpt lat="42.789333" lon="-7.849736">
        <ele>494.2</ele>
        <time>1970-01-01T02:16:31.000Z</time>
      </trkpt>
      <trkpt lat="42.789323" lon="-7.849674">
        <ele>494.3</ele>
        <time>1970-01-01T02:16:32.000Z</time>
      </trkpt>
      <trkpt lat="42.789315" lon="-7.849607">
        <ele>494.4</ele>
        <time>1970-01-01T02:16:33.000Z</time>
      </trkpt>
      <trkpt lat="42.789315" lon="-7.849543">
        <ele>494.4</ele>
        <time>1970-01-01T02:16:34.000Z</time>
      </trkpt>
      <trkpt lat="42.789321" lon="-7.849482">
        <ele>494.5</ele>
        <time>1970-01-01T02:16:35.000Z</time>
      </trkpt>
      <trkpt lat="42.789328" lon="-7.84942">
        <ele>494.5</ele>
        <time>1970-01-01T02:16:36.000Z</time>
      </trkpt>
      <trkpt lat="42.789339" lon="-7.849367">
        <ele>494.6</ele>
        <time>1970-01-01T02:16:37.000Z</time>
      </trkpt>
      <trkpt lat="42.78935" lon="-7.849298">
        <ele>494.7</ele>
        <time>1970-01-01T02:16:38.000Z</time>
      </trkpt>
      <trkpt lat="42.789359" lon="-7.849246">
        <ele>494.8</ele>
        <time>1970-01-01T02:16:39.000Z</time>
      </trkpt>
      <trkpt lat="42.789367" lon="-7.849197">
        <ele>494.8</ele>
        <time>1970-01-01T02:16:40.000Z</time>
      </trkpt>
      <trkpt lat="42.789375" lon="-7.849147">
        <ele>494.8</ele>
        <time>1970-01-01T02:16:41.000Z</time>
      </trkpt>
      <trkpt lat="42.789381" lon="-7.849103">
        <ele>494.9</ele>
        <time>1970-01-01T02:16:42.000Z</time>
      </trkpt>
      <trkpt lat="42.789388" lon="-7.849056">
        <ele>494.9</ele>
        <time>1970-01-01T02:16:43.000Z</time>
      </trkpt>
      <trkpt lat="42.789393" lon="-7.849009">
        <ele>495</ele>
        <time>1970-01-01T02:16:44.000Z</time>
      </trkpt>
      <trkpt lat="42.789392" lon="-7.848957">
        <ele>495</ele>
        <time>1970-01-01T02:16:45.000Z</time>
      </trkpt>
      <trkpt lat="42.789388" lon="-7.848921">
        <ele>495</ele>
        <time>1970-01-01T02:16:46.000Z</time>
      </trkpt>
      <trkpt lat="42.789382" lon="-7.848887">
        <ele>494.9</ele>
        <time>1970-01-01T02:16:47.000Z</time>
      </trkpt>
      <trkpt lat="42.789386" lon="-7.848847">
        <ele>495</ele>
        <time>1970-01-01T02:16:48.000Z</time>
      </trkpt>
      <trkpt lat="42.789403" lon="-7.84881">
        <ele>495</ele>
        <time>1970-01-01T02:16:49.000Z</time>
      </trkpt>
      <trkpt lat="42.789424" lon="-7.848796">
        <ele>495</ele>
        <time>1970-01-01T02:16:50.000Z</time>
      </trkpt>
      <trkpt lat="42.789453" lon="-7.848795">
        <ele>495.1</ele>
        <time>1970-01-01T02:16:51.000Z</time>
      </trkpt>
      <trkpt lat="42.78948" lon="-7.8488">
        <ele>495.1</ele>
        <time>1970-01-01T02:16:52.000Z</time>
      </trkpt>
      <trkpt lat="42.789504" lon="-7.848806">
        <ele>495.2</ele>
        <time>1970-01-01T02:16:53.000Z</time>
      </trkpt>
      <trkpt lat="42.78953" lon="-7.848811">
        <ele>495.3</ele>
        <time>1970-01-01T02:16:54.000Z</time>
      </trkpt>
      <trkpt lat="42.78956" lon="-7.848815">
        <ele>495.3</ele>
        <time>1970-01-01T02:16:55.000Z</time>
      </trkpt>
      <trkpt lat="42.789587" lon="-7.84882">
        <ele>495.4</ele>
        <time>1970-01-01T02:16:56.000Z</time>
      </trkpt>
      <trkpt lat="42.789608" lon="-7.848827">
        <ele>495.5</ele>
        <time>1970-01-01T02:16:57.000Z</time>
      </trkpt>
      <trkpt lat="42.789626" lon="-7.848838">
        <ele>495.5</ele>
        <time>1970-01-01T02:16:58.000Z</time>
      </trkpt>
      <trkpt lat="42.789644" lon="-7.848854">
        <ele>495.5</ele>
        <time>1970-01-01T02:16:59.000Z</time>
      </trkpt>
      <trkpt lat="42.789658" lon="-7.848868">
        <ele>495.5</ele>
        <time>1970-01-01T02:17:00.000Z</time>
      </trkpt>
      <trkpt lat="42.789673" lon="-7.848883">
        <ele>495.6</ele>
        <time>1970-01-01T02:17:01.000Z</time>
      </trkpt>
      <trkpt lat="42.789693" lon="-7.848905">
        <ele>495.6</ele>
        <time>1970-01-01T02:17:02.000Z</time>
      </trkpt>
      <trkpt lat="42.789721" lon="-7.848921">
        <ele>495.6</ele>
        <time>1970-01-01T02:17:03.000Z</time>
      </trkpt>
      <trkpt lat="42.789745" lon="-7.848939">
        <ele>495.7</ele>
        <time>1970-01-01T02:17:04.000Z</time>
      </trkpt>
      <trkpt lat="42.789767" lon="-7.848957">
        <ele>495.8</ele>
        <time>1970-01-01T02:17:05.000Z</time>
      </trkpt>
      <trkpt lat="42.789778" lon="-7.848976">
        <ele>495.7</ele>
        <time>1970-01-01T02:17:06.000Z</time>
      </trkpt>
      <trkpt lat="42.789796" lon="-7.849002">
        <ele>495.7</ele>
        <time>1970-01-01T02:17:07.000Z</time>
      </trkpt>
      <trkpt lat="42.789819" lon="-7.849025">
        <ele>495.7</ele>
        <time>1970-01-01T02:17:08.000Z</time>
      </trkpt>
      <trkpt lat="42.789847" lon="-7.849048">
        <ele>495.7</ele>
        <time>1970-01-01T02:17:09.000Z</time>
      </trkpt>
      <trkpt lat="42.78987" lon="-7.84907">
        <ele>495.7</ele>
        <time>1970-01-01T02:17:10.000Z</time>
      </trkpt>
      <trkpt lat="42.789893" lon="-7.849086">
        <ele>495.8</ele>
        <time>1970-01-01T02:17:11.000Z</time>
      </trkpt>
      <trkpt lat="42.789913" lon="-7.849113">
        <ele>495.7</ele>
        <time>1970-01-01T02:17:12.000Z</time>
      </trkpt>
      <trkpt lat="42.78994" lon="-7.84913">
        <ele>495.8</ele>
        <time>1970-01-01T02:17:13.000Z</time>
      </trkpt>
      <trkpt lat="42.789968" lon="-7.849144">
        <ele>495.7</ele>
        <time>1970-01-01T02:17:14.000Z</time>
      </trkpt>
      <trkpt lat="42.789995" lon="-7.849161">
        <ele>495.8</ele>
        <time>1970-01-01T02:17:15.000Z</time>
      </trkpt>
      <trkpt lat="42.790017" lon="-7.849179">
        <ele>495.7</ele>
        <time>1970-01-01T02:17:16.000Z</time>
      </trkpt>
      <trkpt lat="42.790041" lon="-7.849203">
        <ele>495.7</ele>
        <time>1970-01-01T02:17:17.000Z</time>
      </trkpt>
      <trkpt lat="42.790069" lon="-7.849229">
        <ele>495.6</ele>
        <time>1970-01-01T02:17:18.000Z</time>
      </trkpt>
      <trkpt lat="42.790099" lon="-7.849256">
        <ele>495.7</ele>
        <time>1970-01-01T02:17:19.000Z</time>
      </trkpt>
      <trkpt lat="42.790131" lon="-7.849282">
        <ele>495.6</ele>
        <time>1970-01-01T02:17:20.000Z</time>
      </trkpt>
      <trkpt lat="42.790172" lon="-7.849297">
        <ele>495.6</ele>
        <time>1970-01-01T02:17:21.000Z</time>
      </trkpt>
      <trkpt lat="42.790206" lon="-7.849294">
        <ele>495.8</ele>
        <time>1970-01-01T02:17:22.000Z</time>
      </trkpt>
      <trkpt lat="42.790227" lon="-7.849286">
        <ele>495.8</ele>
        <time>1970-01-01T02:17:23.000Z</time>
      </trkpt>
      <trkpt lat="42.79024" lon="-7.849272">
        <ele>495.9</ele>
        <time>1970-01-01T02:17:24.000Z</time>
      </trkpt>
      <trkpt lat="42.79025" lon="-7.849247">
        <ele>496.1</ele>
        <time>1970-01-01T02:17:25.000Z</time>
      </trkpt>
      <trkpt lat="42.790251" lon="-7.849226">
        <ele>496.1</ele>
        <time>1970-01-01T02:17:26.000Z</time>
      </trkpt>
      <trkpt lat="42.79027" lon="-7.849204">
        <ele>496.4</ele>
        <time>1970-01-01T02:17:27.000Z</time>
      </trkpt>
      <trkpt lat="42.790298" lon="-7.849175">
        <ele>496.4</ele>
        <time>1970-01-01T02:17:28.000Z</time>
      </trkpt>
      <trkpt lat="42.790313" lon="-7.849147">
        <ele>496.7</ele>
        <time>1970-01-01T02:17:29.000Z</time>
      </trkpt>
      <trkpt lat="42.790322" lon="-7.849127">
        <ele>496.9</ele>
        <time>1970-01-01T02:17:30.000Z</time>
      </trkpt>
      <trkpt lat="42.790333" lon="-7.849098">
        <ele>497</ele>
        <time>1970-01-01T02:17:31.000Z</time>
      </trkpt>
      <trkpt lat="42.79034" lon="-7.849074">
        <ele>497.2</ele>
        <time>1970-01-01T02:17:32.000Z</time>
      </trkpt>
      <trkpt lat="42.790349" lon="-7.84905">
        <ele>497.2</ele>
        <time>1970-01-01T02:17:33.000Z</time>
      </trkpt>
      <trkpt lat="42.790363" lon="-7.849038">
        <ele>497.4</ele>
        <time>1970-01-01T02:17:34.000Z</time>
      </trkpt>
      <trkpt lat="42.790381" lon="-7.849005">
        <ele>497.5</ele>
        <time>1970-01-01T02:17:35.000Z</time>
      </trkpt>
      <trkpt lat="42.790394" lon="-7.848974">
        <ele>497.6</ele>
        <time>1970-01-01T02:17:36.000Z</time>
      </trkpt>
      <trkpt lat="42.790408" lon="-7.848948">
        <ele>497.7</ele>
        <time>1970-01-01T02:17:37.000Z</time>
      </trkpt>
      <trkpt lat="42.790414" lon="-7.848924">
        <ele>497.8</ele>
        <time>1970-01-01T02:17:38.000Z</time>
      </trkpt>
      <trkpt lat="42.79043" lon="-7.848899">
        <ele>497.8</ele>
        <time>1970-01-01T02:17:39.000Z</time>
      </trkpt>
      <trkpt lat="42.790427" lon="-7.848878">
        <ele>497.9</ele>
        <time>1970-01-01T02:17:40.000Z</time>
      </trkpt>
      <trkpt lat="42.790424" lon="-7.848853">
        <ele>498</ele>
        <time>1970-01-01T02:17:41.000Z</time>
      </trkpt>
      <trkpt lat="42.790424" lon="-7.848821">
        <ele>498</ele>
        <time>1970-01-01T02:17:42.000Z</time>
      </trkpt>
      <trkpt lat="42.790431" lon="-7.848784">
        <ele>498</ele>
        <time>1970-01-01T02:17:43.000Z</time>
      </trkpt>
      <trkpt lat="42.790434" lon="-7.848746">
        <ele>498</ele>
        <time>1970-01-01T02:17:44.000Z</time>
      </trkpt>
      <trkpt lat="42.790434" lon="-7.84872">
        <ele>498</ele>
        <time>1970-01-01T02:17:45.000Z</time>
      </trkpt>
      <trkpt lat="42.790437" lon="-7.848681">
        <ele>498</ele>
        <time>1970-01-01T02:17:46.000Z</time>
      </trkpt>
      <trkpt lat="42.790439" lon="-7.848644">
        <ele>498</ele>
        <time>1970-01-01T02:17:47.000Z</time>
      </trkpt>
      <trkpt lat="42.790444" lon="-7.848603">
        <ele>498</ele>
        <time>1970-01-01T02:17:48.000Z</time>
      </trkpt>
      <trkpt lat="42.790449" lon="-7.848566">
        <ele>498</ele>
        <time>1970-01-01T02:17:49.000Z</time>
      </trkpt>
      <trkpt lat="42.790447" lon="-7.848517">
        <ele>498.1</ele>
        <time>1970-01-01T02:17:50.000Z</time>
      </trkpt>
      <trkpt lat="42.790447" lon="-7.848474">
        <ele>498.1</ele>
        <time>1970-01-01T02:17:51.000Z</time>
      </trkpt>
      <trkpt lat="42.790452" lon="-7.848432">
        <ele>498</ele>
        <time>1970-01-01T02:17:52.000Z</time>
      </trkpt>
      <trkpt lat="42.790457" lon="-7.848383">
        <ele>497.9</ele>
        <time>1970-01-01T02:17:53.000Z</time>
      </trkpt>
      <trkpt lat="42.790459" lon="-7.848324">
        <ele>497.9</ele>
        <time>1970-01-01T02:17:54.000Z</time>
      </trkpt>
      <trkpt lat="42.790461" lon="-7.848282">
        <ele>497.9</ele>
        <time>1970-01-01T02:17:55.000Z</time>
      </trkpt>
      <trkpt lat="42.790471" lon="-7.848246">
        <ele>497.9</ele>
        <time>1970-01-01T02:17:56.000Z</time>
      </trkpt>
      <trkpt lat="42.790482" lon="-7.848199">
        <ele>497.9</ele>
        <time>1970-01-01T02:17:57.000Z</time>
      </trkpt>
      <trkpt lat="42.790495" lon="-7.848147">
        <ele>497.9</ele>
        <time>1970-01-01T02:17:58.000Z</time>
      </trkpt>
      <trkpt lat="42.79051" lon="-7.848097">
        <ele>497.9</ele>
        <time>1970-01-01T02:17:59.000Z</time>
      </trkpt>
      <trkpt lat="42.79053" lon="-7.848038">
        <ele>497.9</ele>
        <time>1970-01-01T02:18:00.000Z</time>
      </trkpt>
      <trkpt lat="42.79054" lon="-7.847983">
        <ele>497.9</ele>
        <time>1970-01-01T02:18:01.000Z</time>
      </trkpt>
      <trkpt lat="42.790556" lon="-7.847943">
        <ele>497.9</ele>
        <time>1970-01-01T02:18:02.000Z</time>
      </trkpt>
      <trkpt lat="42.790559" lon="-7.8479">
        <ele>497.9</ele>
        <time>1970-01-01T02:18:03.000Z</time>
      </trkpt>
      <trkpt lat="42.790561" lon="-7.847849">
        <ele>498</ele>
        <time>1970-01-01T02:18:04.000Z</time>
      </trkpt>
      <trkpt lat="42.790576" lon="-7.847805">
        <ele>498</ele>
        <time>1970-01-01T02:18:05.000Z</time>
      </trkpt>
      <trkpt lat="42.790582" lon="-7.847765">
        <ele>498</ele>
        <time>1970-01-01T02:18:06.000Z</time>
      </trkpt>
      <trkpt lat="42.790581" lon="-7.847721">
        <ele>498</ele>
        <time>1970-01-01T02:18:07.000Z</time>
      </trkpt>
      <trkpt lat="42.790575" lon="-7.847671">
        <ele>497.9</ele>
        <time>1970-01-01T02:18:08.000Z</time>
      </trkpt>
      <trkpt lat="42.790568" lon="-7.847617">
        <ele>497.8</ele>
        <time>1970-01-01T02:18:09.000Z</time>
      </trkpt>
      <trkpt lat="42.79056" lon="-7.847568">
        <ele>497.8</ele>
        <time>1970-01-01T02:18:10.000Z</time>
      </trkpt>
      <trkpt lat="42.790555" lon="-7.847518">
        <ele>497.6</ele>
        <time>1970-01-01T02:18:11.000Z</time>
      </trkpt>
      <trkpt lat="42.790548" lon="-7.84745">
        <ele>497.3</ele>
        <time>1970-01-01T02:18:12.000Z</time>
      </trkpt>
      <trkpt lat="42.790545" lon="-7.847402">
        <ele>497.3</ele>
        <time>1970-01-01T02:18:13.000Z</time>
      </trkpt>
      <trkpt lat="42.790539" lon="-7.847357">
        <ele>497.2</ele>
        <time>1970-01-01T02:18:14.000Z</time>
      </trkpt>
      <trkpt lat="42.790538" lon="-7.847302">
        <ele>497.2</ele>
        <time>1970-01-01T02:18:15.000Z</time>
      </trkpt>
      <trkpt lat="42.790534" lon="-7.84725">
        <ele>497.1</ele>
        <time>1970-01-01T02:18:16.000Z</time>
      </trkpt>
      <trkpt lat="42.790528" lon="-7.847202">
        <ele>497</ele>
        <time>1970-01-01T02:18:17.000Z</time>
      </trkpt>
      <trkpt lat="42.790523" lon="-7.847158">
        <ele>497</ele>
        <time>1970-01-01T02:18:18.000Z</time>
      </trkpt>
      <trkpt lat="42.79052" lon="-7.847114">
        <ele>497.1</ele>
        <time>1970-01-01T02:18:19.000Z</time>
      </trkpt>
      <trkpt lat="42.790517" lon="-7.84707">
        <ele>497.1</ele>
        <time>1970-01-01T02:18:20.000Z</time>
      </trkpt>
      <trkpt lat="42.790513" lon="-7.847026">
        <ele>497.1</ele>
        <time>1970-01-01T02:18:21.000Z</time>
      </trkpt>
      <trkpt lat="42.790509" lon="-7.846979">
        <ele>497</ele>
        <time>1970-01-01T02:18:22.000Z</time>
      </trkpt>
      <trkpt lat="42.790506" lon="-7.846933">
        <ele>497</ele>
        <time>1970-01-01T02:18:23.000Z</time>
      </trkpt>
      <trkpt lat="42.790502" lon="-7.846887">
        <ele>497.1</ele>
        <time>1970-01-01T02:18:24.000Z</time>
      </trkpt>
      <trkpt lat="42.790499" lon="-7.846843">
        <ele>497.1</ele>
        <time>1970-01-01T02:18:25.000Z</time>
      </trkpt>
      <trkpt lat="42.790494" lon="-7.846801">
        <ele>497.1</ele>
        <time>1970-01-01T02:18:26.000Z</time>
      </trkpt>
      <trkpt lat="42.790491" lon="-7.846766">
        <ele>497.2</ele>
        <time>1970-01-01T02:18:27.000Z</time>
      </trkpt>
      <trkpt lat="42.790487" lon="-7.84674">
        <ele>497.2</ele>
        <time>1970-01-01T02:18:28.000Z</time>
      </trkpt>
      <trkpt lat="42.790485" lon="-7.846708">
        <ele>497.1</ele>
        <time>1970-01-01T02:18:29.000Z</time>
      </trkpt>
      <trkpt lat="42.790483" lon="-7.846679">
        <ele>497.1</ele>
        <time>1970-01-01T02:18:30.000Z</time>
      </trkpt>
      <trkpt lat="42.79048" lon="-7.846647">
        <ele>497</ele>
        <time>1970-01-01T02:18:31.000Z</time>
      </trkpt>
      <trkpt lat="42.790469" lon="-7.846609">
        <ele>496.9</ele>
        <time>1970-01-01T02:18:32.000Z</time>
      </trkpt>
      <trkpt lat="42.790458" lon="-7.846575">
        <ele>496.9</ele>
        <time>1970-01-01T02:18:33.000Z</time>
      </trkpt>
      <trkpt lat="42.790451" lon="-7.846544">
        <ele>496.8</ele>
        <time>1970-01-01T02:18:34.000Z</time>
      </trkpt>
      <trkpt lat="42.790445" lon="-7.846517">
        <ele>496.8</ele>
        <time>1970-01-01T02:18:35.000Z</time>
      </trkpt>
      <trkpt lat="42.790436" lon="-7.846498">
        <ele>496.8</ele>
        <time>1970-01-01T02:18:36.000Z</time>
      </trkpt>
      <trkpt lat="42.790422" lon="-7.84646">
        <ele>496.7</ele>
        <time>1970-01-01T02:18:37.000Z</time>
      </trkpt>
      <trkpt lat="42.790418" lon="-7.846414">
        <ele>496.7</ele>
        <time>1970-01-01T02:18:38.000Z</time>
      </trkpt>
      <trkpt lat="42.790413" lon="-7.84637">
        <ele>496.6</ele>
        <time>1970-01-01T02:18:39.000Z</time>
      </trkpt>
      <trkpt lat="42.790403" lon="-7.846322">
        <ele>496.6</ele>
        <time>1970-01-01T02:18:40.000Z</time>
      </trkpt>
      <trkpt lat="42.790393" lon="-7.846277">
        <ele>496.5</ele>
        <time>1970-01-01T02:18:41.000Z</time>
      </trkpt>
      <trkpt lat="42.79038" lon="-7.846248">
        <ele>496.5</ele>
        <time>1970-01-01T02:18:42.000Z</time>
      </trkpt>
      <trkpt lat="42.790367" lon="-7.846216">
        <ele>496.7</ele>
        <time>1970-01-01T02:18:43.000Z</time>
      </trkpt>
      <trkpt lat="42.790357" lon="-7.846176">
        <ele>496.8</ele>
        <time>1970-01-01T02:18:44.000Z</time>
      </trkpt>
      <trkpt lat="42.790349" lon="-7.846134">
        <ele>496.9</ele>
        <time>1970-01-01T02:18:45.000Z</time>
      </trkpt>
      <trkpt lat="42.790343" lon="-7.846092">
        <ele>496.9</ele>
        <time>1970-01-01T02:18:46.000Z</time>
      </trkpt>
      <trkpt lat="42.790342" lon="-7.846041">
        <ele>497</ele>
        <time>1970-01-01T02:18:47.000Z</time>
      </trkpt>
      <trkpt lat="42.790343" lon="-7.845989">
        <ele>497.1</ele>
        <time>1970-01-01T02:18:48.000Z</time>
      </trkpt>
      <trkpt lat="42.790339" lon="-7.845942">
        <ele>497.2</ele>
        <time>1970-01-01T02:18:49.000Z</time>
      </trkpt>
      <trkpt lat="42.790337" lon="-7.845892">
        <ele>497.3</ele>
        <time>1970-01-01T02:18:50.000Z</time>
      </trkpt>
      <trkpt lat="42.790333" lon="-7.845847">
        <ele>497.3</ele>
        <time>1970-01-01T02:18:51.000Z</time>
      </trkpt>
      <trkpt lat="42.790327" lon="-7.845806">
        <ele>497.4</ele>
        <time>1970-01-01T02:18:52.000Z</time>
      </trkpt>
      <trkpt lat="42.790329" lon="-7.845776">
        <ele>497.5</ele>
        <time>1970-01-01T02:18:53.000Z</time>
      </trkpt>
      <trkpt lat="42.790328" lon="-7.845733">
        <ele>497.7</ele>
        <time>1970-01-01T02:18:54.000Z</time>
      </trkpt>
      <trkpt lat="42.790327" lon="-7.845688">
        <ele>497.8</ele>
        <time>1970-01-01T02:18:55.000Z</time>
      </trkpt>
      <trkpt lat="42.790323" lon="-7.845651">
        <ele>498</ele>
        <time>1970-01-01T02:18:56.000Z</time>
      </trkpt>
      <trkpt lat="42.790319" lon="-7.845603">
        <ele>498.2</ele>
        <time>1970-01-01T02:18:57.000Z</time>
      </trkpt>
      <trkpt lat="42.790321" lon="-7.84555">
        <ele>498.5</ele>
        <time>1970-01-01T02:18:58.000Z</time>
      </trkpt>
      <trkpt lat="42.790323" lon="-7.845507">
        <ele>498.7</ele>
        <time>1970-01-01T02:18:59.000Z</time>
      </trkpt>
      <trkpt lat="42.79033" lon="-7.845467">
        <ele>498.9</ele>
        <time>1970-01-01T02:19:00.000Z</time>
      </trkpt>
      <trkpt lat="42.790334" lon="-7.845422">
        <ele>499</ele>
        <time>1970-01-01T02:19:01.000Z</time>
      </trkpt>
      <trkpt lat="42.790336" lon="-7.845369">
        <ele>499.4</ele>
        <time>1970-01-01T02:19:02.000Z</time>
      </trkpt>
      <trkpt lat="42.79034" lon="-7.845321">
        <ele>499.7</ele>
        <time>1970-01-01T02:19:03.000Z</time>
      </trkpt>
      <trkpt lat="42.790341" lon="-7.845267">
        <ele>500</ele>
        <time>1970-01-01T02:19:04.000Z</time>
      </trkpt>
      <trkpt lat="42.790346" lon="-7.845226">
        <ele>500.2</ele>
        <time>1970-01-01T02:19:05.000Z</time>
      </trkpt>
      <trkpt lat="42.79035" lon="-7.845187">
        <ele>500.4</ele>
        <time>1970-01-01T02:19:06.000Z</time>
      </trkpt>
      <trkpt lat="42.790353" lon="-7.845149">
        <ele>500.5</ele>
        <time>1970-01-01T02:19:07.000Z</time>
      </trkpt>
      <trkpt lat="42.79036" lon="-7.845113">
        <ele>500.6</ele>
        <time>1970-01-01T02:19:08.000Z</time>
      </trkpt>
      <trkpt lat="42.79036" lon="-7.845063">
        <ele>500.8</ele>
        <time>1970-01-01T02:19:09.000Z</time>
      </trkpt>
      <trkpt lat="42.790362" lon="-7.845017">
        <ele>501</ele>
        <time>1970-01-01T02:19:10.000Z</time>
      </trkpt>
      <trkpt lat="42.790368" lon="-7.844985">
        <ele>501.2</ele>
        <time>1970-01-01T02:19:11.000Z</time>
      </trkpt>
      <trkpt lat="42.790373" lon="-7.844955">
        <ele>501.3</ele>
        <time>1970-01-01T02:19:12.000Z</time>
      </trkpt>
      <trkpt lat="42.790378" lon="-7.844921">
        <ele>501.4</ele>
        <time>1970-01-01T02:19:13.000Z</time>
      </trkpt>
      <trkpt lat="42.790385" lon="-7.844889">
        <ele>501.6</ele>
        <time>1970-01-01T02:19:14.000Z</time>
      </trkpt>
      <trkpt lat="42.790392" lon="-7.844861">
        <ele>501.7</ele>
        <time>1970-01-01T02:19:15.000Z</time>
      </trkpt>
      <trkpt lat="42.790403" lon="-7.844836">
        <ele>501.8</ele>
        <time>1970-01-01T02:19:16.000Z</time>
      </trkpt>
      <trkpt lat="42.790414" lon="-7.844812">
        <ele>501.9</ele>
        <time>1970-01-01T02:19:17.000Z</time>
      </trkpt>
      <trkpt lat="42.790425" lon="-7.844783">
        <ele>502</ele>
        <time>1970-01-01T02:19:18.000Z</time>
      </trkpt>
      <trkpt lat="42.790434" lon="-7.844752">
        <ele>502.1</ele>
        <time>1970-01-01T02:19:19.000Z</time>
      </trkpt>
      <trkpt lat="42.79044" lon="-7.844722">
        <ele>502.2</ele>
        <time>1970-01-01T02:19:20.000Z</time>
      </trkpt>
      <trkpt lat="42.790441" lon="-7.844695">
        <ele>502.3</ele>
        <time>1970-01-01T02:19:21.000Z</time>
      </trkpt>
      <trkpt lat="42.790448" lon="-7.84467">
        <ele>502.5</ele>
        <time>1970-01-01T02:19:22.000Z</time>
      </trkpt>
      <trkpt lat="42.790457" lon="-7.844643">
        <ele>502.6</ele>
        <time>1970-01-01T02:19:23.000Z</time>
      </trkpt>
      <trkpt lat="42.79046" lon="-7.84461">
        <ele>502.8</ele>
        <time>1970-01-01T02:19:24.000Z</time>
      </trkpt>
      <trkpt lat="42.790467" lon="-7.844574">
        <ele>502.8</ele>
        <time>1970-01-01T02:19:25.000Z</time>
      </trkpt>
      <trkpt lat="42.790473" lon="-7.844539">
        <ele>502.8</ele>
        <time>1970-01-01T02:19:26.000Z</time>
      </trkpt>
      <trkpt lat="42.790478" lon="-7.844506">
        <ele>502.8</ele>
        <time>1970-01-01T02:19:27.000Z</time>
      </trkpt>
      <trkpt lat="42.790481" lon="-7.844476">
        <ele>502.8</ele>
        <time>1970-01-01T02:19:28.000Z</time>
      </trkpt>
      <trkpt lat="42.790485" lon="-7.844441">
        <ele>502.9</ele>
        <time>1970-01-01T02:19:29.000Z</time>
      </trkpt>
      <trkpt lat="42.790491" lon="-7.844411">
        <ele>502.9</ele>
        <time>1970-01-01T02:19:30.000Z</time>
      </trkpt>
      <trkpt lat="42.790494" lon="-7.844381">
        <ele>503</ele>
        <time>1970-01-01T02:19:31.000Z</time>
      </trkpt>
      <trkpt lat="42.790491" lon="-7.844352">
        <ele>503</ele>
        <time>1970-01-01T02:19:32.000Z</time>
      </trkpt>
      <trkpt lat="42.790488" lon="-7.844331">
        <ele>503.1</ele>
        <time>1970-01-01T02:19:33.000Z</time>
      </trkpt>
      <trkpt lat="42.790483" lon="-7.84432">
        <ele>503.1</ele>
        <time>1970-01-01T02:19:34.000Z</time>
      </trkpt>
      <trkpt lat="42.790473" lon="-7.844291">
        <ele>503.2</ele>
        <time>1970-01-01T02:19:35.000Z</time>
      </trkpt>
      <trkpt lat="42.790462" lon="-7.844259">
        <ele>503.2</ele>
        <time>1970-01-01T02:19:36.000Z</time>
      </trkpt>
      <trkpt lat="42.790448" lon="-7.844227">
        <ele>503.2</ele>
        <time>1970-01-01T02:19:37.000Z</time>
      </trkpt>
      <trkpt lat="42.790434" lon="-7.844201">
        <ele>503.2</ele>
        <time>1970-01-01T02:19:38.000Z</time>
      </trkpt>
      <trkpt lat="42.790428" lon="-7.844178">
        <ele>503.2</ele>
        <time>1970-01-01T02:19:39.000Z</time>
      </trkpt>
      <trkpt lat="42.790421" lon="-7.844142">
        <ele>503.1</ele>
        <time>1970-01-01T02:19:40.000Z</time>
      </trkpt>
      <trkpt lat="42.790417" lon="-7.8441">
        <ele>503.1</ele>
        <time>1970-01-01T02:19:41.000Z</time>
      </trkpt>
      <trkpt lat="42.790413" lon="-7.844052">
        <ele>503</ele>
        <time>1970-01-01T02:19:42.000Z</time>
      </trkpt>
      <trkpt lat="42.790403" lon="-7.844002">
        <ele>502.9</ele>
        <time>1970-01-01T02:19:43.000Z</time>
      </trkpt>
      <trkpt lat="42.790393" lon="-7.843951">
        <ele>502.8</ele>
        <time>1970-01-01T02:19:44.000Z</time>
      </trkpt>
      <trkpt lat="42.79038" lon="-7.843906">
        <ele>502.6</ele>
        <time>1970-01-01T02:19:45.000Z</time>
      </trkpt>
      <trkpt lat="42.790365" lon="-7.843862">
        <ele>502.5</ele>
        <time>1970-01-01T02:19:46.000Z</time>
      </trkpt>
      <trkpt lat="42.790349" lon="-7.843822">
        <ele>502.4</ele>
        <time>1970-01-01T02:19:47.000Z</time>
      </trkpt>
      <trkpt lat="42.790339" lon="-7.843791">
        <ele>502.4</ele>
        <time>1970-01-01T02:19:48.000Z</time>
      </trkpt>
      <trkpt lat="42.790326" lon="-7.843761">
        <ele>502.2</ele>
        <time>1970-01-01T02:19:49.000Z</time>
      </trkpt>
      <trkpt lat="42.790309" lon="-7.843727">
        <ele>502.1</ele>
        <time>1970-01-01T02:19:50.000Z</time>
      </trkpt>
      <trkpt lat="42.790289" lon="-7.843698">
        <ele>502</ele>
        <time>1970-01-01T02:19:51.000Z</time>
      </trkpt>
      <trkpt lat="42.790269" lon="-7.843666">
        <ele>501.9</ele>
        <time>1970-01-01T02:19:52.000Z</time>
      </trkpt>
      <trkpt lat="42.790254" lon="-7.843632">
        <ele>501.9</ele>
        <time>1970-01-01T02:19:53.000Z</time>
      </trkpt>
      <trkpt lat="42.790241" lon="-7.843597">
        <ele>501.8</ele>
        <time>1970-01-01T02:19:54.000Z</time>
      </trkpt>
      <trkpt lat="42.790232" lon="-7.843563">
        <ele>501.8</ele>
        <time>1970-01-01T02:19:55.000Z</time>
      </trkpt>
      <trkpt lat="42.790218" lon="-7.843528">
        <ele>501.7</ele>
        <time>1970-01-01T02:19:56.000Z</time>
      </trkpt>
      <trkpt lat="42.790201" lon="-7.84349">
        <ele>501.7</ele>
        <time>1970-01-01T02:19:57.000Z</time>
      </trkpt>
      <trkpt lat="42.79018" lon="-7.843447">
        <ele>501.7</ele>
        <time>1970-01-01T02:19:58.000Z</time>
      </trkpt>
      <trkpt lat="42.790162" lon="-7.843414">
        <ele>501.6</ele>
        <time>1970-01-01T02:19:59.000Z</time>
      </trkpt>
      <trkpt lat="42.790145" lon="-7.843375">
        <ele>501.7</ele>
        <time>1970-01-01T02:20:00.000Z</time>
      </trkpt>
      <trkpt lat="42.790124" lon="-7.843344">
        <ele>501.7</ele>
        <time>1970-01-01T02:20:01.000Z</time>
      </trkpt>
      <trkpt lat="42.790102" lon="-7.843314">
        <ele>501.8</ele>
        <time>1970-01-01T02:20:02.000Z</time>
      </trkpt>
      <trkpt lat="42.790082" lon="-7.843283">
        <ele>501.8</ele>
        <time>1970-01-01T02:20:03.000Z</time>
      </trkpt>
      <trkpt lat="42.790061" lon="-7.843254">
        <ele>501.8</ele>
        <time>1970-01-01T02:20:04.000Z</time>
      </trkpt>
      <trkpt lat="42.790043" lon="-7.843232">
        <ele>501.8</ele>
        <time>1970-01-01T02:20:05.000Z</time>
      </trkpt>
      <trkpt lat="42.790028" lon="-7.843208">
        <ele>501.8</ele>
        <time>1970-01-01T02:20:06.000Z</time>
      </trkpt>
      <trkpt lat="42.790013" lon="-7.843179">
        <ele>501.9</ele>
        <time>1970-01-01T02:20:07.000Z</time>
      </trkpt>
      <trkpt lat="42.789994" lon="-7.843144">
        <ele>501.9</ele>
        <time>1970-01-01T02:20:08.000Z</time>
      </trkpt>
      <trkpt lat="42.789967" lon="-7.843108">
        <ele>502</ele>
        <time>1970-01-01T02:20:09.000Z</time>
      </trkpt>
      <trkpt lat="42.789938" lon="-7.843074">
        <ele>502.1</ele>
        <time>1970-01-01T02:20:10.000Z</time>
      </trkpt>
      <trkpt lat="42.78991" lon="-7.843042">
        <ele>502.2</ele>
        <time>1970-01-01T02:20:11.000Z</time>
      </trkpt>
      <trkpt lat="42.789882" lon="-7.84301">
        <ele>502.3</ele>
        <time>1970-01-01T02:20:12.000Z</time>
      </trkpt>
      <trkpt lat="42.789858" lon="-7.842977">
        <ele>502.4</ele>
        <time>1970-01-01T02:20:13.000Z</time>
      </trkpt>
      <trkpt lat="42.789833" lon="-7.842943">
        <ele>502.5</ele>
        <time>1970-01-01T02:20:14.000Z</time>
      </trkpt>
      <trkpt lat="42.789808" lon="-7.842911">
        <ele>502.5</ele>
        <time>1970-01-01T02:20:15.000Z</time>
      </trkpt>
      <trkpt lat="42.789785" lon="-7.842876">
        <ele>502.6</ele>
        <time>1970-01-01T02:20:16.000Z</time>
      </trkpt>
      <trkpt lat="42.789762" lon="-7.842845">
        <ele>502.6</ele>
        <time>1970-01-01T02:20:17.000Z</time>
      </trkpt>
      <trkpt lat="42.789742" lon="-7.842804">
        <ele>502.6</ele>
        <time>1970-01-01T02:20:18.000Z</time>
      </trkpt>
      <trkpt lat="42.789727" lon="-7.842762">
        <ele>502.7</ele>
        <time>1970-01-01T02:20:19.000Z</time>
      </trkpt>
      <trkpt lat="42.789714" lon="-7.84272">
        <ele>502.8</ele>
        <time>1970-01-01T02:20:20.000Z</time>
      </trkpt>
      <trkpt lat="42.7897" lon="-7.842679">
        <ele>502.9</ele>
        <time>1970-01-01T02:20:21.000Z</time>
      </trkpt>
      <trkpt lat="42.78969" lon="-7.84264">
        <ele>503</ele>
        <time>1970-01-01T02:20:22.000Z</time>
      </trkpt>
      <trkpt lat="42.789685" lon="-7.842597">
        <ele>503.2</ele>
        <time>1970-01-01T02:20:23.000Z</time>
      </trkpt>
      <trkpt lat="42.789677" lon="-7.842552">
        <ele>503.3</ele>
        <time>1970-01-01T02:20:24.000Z</time>
      </trkpt>
      <trkpt lat="42.789667" lon="-7.8425">
        <ele>503.6</ele>
        <time>1970-01-01T02:20:25.000Z</time>
      </trkpt>
      <trkpt lat="42.78966" lon="-7.842448">
        <ele>503.9</ele>
        <time>1970-01-01T02:20:26.000Z</time>
      </trkpt>
      <trkpt lat="42.789657" lon="-7.842402">
        <ele>504.1</ele>
        <time>1970-01-01T02:20:27.000Z</time>
      </trkpt>
      <trkpt lat="42.789657" lon="-7.84236">
        <ele>504.2</ele>
        <time>1970-01-01T02:20:28.000Z</time>
      </trkpt>
      <trkpt lat="42.789653" lon="-7.842319">
        <ele>504.4</ele>
        <time>1970-01-01T02:20:29.000Z</time>
      </trkpt>
      <trkpt lat="42.789649" lon="-7.842279">
        <ele>504.5</ele>
        <time>1970-01-01T02:20:30.000Z</time>
      </trkpt>
      <trkpt lat="42.789647" lon="-7.842239">
        <ele>504.7</ele>
        <time>1970-01-01T02:20:31.000Z</time>
      </trkpt>
      <trkpt lat="42.789644" lon="-7.842197">
        <ele>504.8</ele>
        <time>1970-01-01T02:20:32.000Z</time>
      </trkpt>
      <trkpt lat="42.789638" lon="-7.842158">
        <ele>505</ele>
        <time>1970-01-01T02:20:33.000Z</time>
      </trkpt>
      <trkpt lat="42.789635" lon="-7.842119">
        <ele>505.1</ele>
        <time>1970-01-01T02:20:34.000Z</time>
      </trkpt>
      <trkpt lat="42.789629" lon="-7.842083">
        <ele>505.3</ele>
        <time>1970-01-01T02:20:35.000Z</time>
      </trkpt>
      <trkpt lat="42.789625" lon="-7.842046">
        <ele>505.4</ele>
        <time>1970-01-01T02:20:36.000Z</time>
      </trkpt>
      <trkpt lat="42.789622" lon="-7.842008">
        <ele>505.6</ele>
        <time>1970-01-01T02:20:37.000Z</time>
      </trkpt>
      <trkpt lat="42.789617" lon="-7.84197">
        <ele>505.7</ele>
        <time>1970-01-01T02:20:38.000Z</time>
      </trkpt>
      <trkpt lat="42.789612" lon="-7.841934">
        <ele>505.9</ele>
        <time>1970-01-01T02:20:39.000Z</time>
      </trkpt>
      <trkpt lat="42.789608" lon="-7.841898">
        <ele>506</ele>
        <time>1970-01-01T02:20:40.000Z</time>
      </trkpt>
      <trkpt lat="42.789605" lon="-7.841863">
        <ele>506.2</ele>
        <time>1970-01-01T02:20:41.000Z</time>
      </trkpt>
      <trkpt lat="42.789603" lon="-7.841825">
        <ele>506.3</ele>
        <time>1970-01-01T02:20:42.000Z</time>
      </trkpt>
      <trkpt lat="42.7896" lon="-7.841789">
        <ele>506.4</ele>
        <time>1970-01-01T02:20:43.000Z</time>
      </trkpt>
      <trkpt lat="42.789597" lon="-7.841754">
        <ele>506.5</ele>
        <time>1970-01-01T02:20:44.000Z</time>
      </trkpt>
      <trkpt lat="42.789592" lon="-7.841718">
        <ele>506.6</ele>
        <time>1970-01-01T02:20:45.000Z</time>
      </trkpt>
      <trkpt lat="42.789589" lon="-7.841682">
        <ele>506.8</ele>
        <time>1970-01-01T02:20:46.000Z</time>
      </trkpt>
      <trkpt lat="42.789586" lon="-7.841647">
        <ele>506.9</ele>
        <time>1970-01-01T02:20:47.000Z</time>
      </trkpt>
      <trkpt lat="42.789584" lon="-7.841609">
        <ele>507</ele>
        <time>1970-01-01T02:20:48.000Z</time>
      </trkpt>
      <trkpt lat="42.789581" lon="-7.841571">
        <ele>507.2</ele>
        <time>1970-01-01T02:20:49.000Z</time>
      </trkpt>
      <trkpt lat="42.78958" lon="-7.841533">
        <ele>507.3</ele>
        <time>1970-01-01T02:20:50.000Z</time>
      </trkpt>
      <trkpt lat="42.789576" lon="-7.841497">
        <ele>507.4</ele>
        <time>1970-01-01T02:20:51.000Z</time>
      </trkpt>
      <trkpt lat="42.789571" lon="-7.841462">
        <ele>507.5</ele>
        <time>1970-01-01T02:20:52.000Z</time>
      </trkpt>
      <trkpt lat="42.789566" lon="-7.841426">
        <ele>507.6</ele>
        <time>1970-01-01T02:20:53.000Z</time>
      </trkpt>
      <trkpt lat="42.789563" lon="-7.84139">
        <ele>507.7</ele>
        <time>1970-01-01T02:20:54.000Z</time>
      </trkpt>
      <trkpt lat="42.78956" lon="-7.841351">
        <ele>507.9</ele>
        <time>1970-01-01T02:20:55.000Z</time>
      </trkpt>
      <trkpt lat="42.789557" lon="-7.841313">
        <ele>508</ele>
        <time>1970-01-01T02:20:56.000Z</time>
      </trkpt>
      <trkpt lat="42.789553" lon="-7.841276">
        <ele>508.1</ele>
        <time>1970-01-01T02:20:57.000Z</time>
      </trkpt>
      <trkpt lat="42.789546" lon="-7.841241">
        <ele>508.2</ele>
        <time>1970-01-01T02:20:58.000Z</time>
      </trkpt>
      <trkpt lat="42.78954" lon="-7.841205">
        <ele>508.3</ele>
        <time>1970-01-01T02:20:59.000Z</time>
      </trkpt>
      <trkpt lat="42.789533" lon="-7.841171">
        <ele>508.3</ele>
        <time>1970-01-01T02:21:00.000Z</time>
      </trkpt>
      <trkpt lat="42.789527" lon="-7.841137">
        <ele>508.4</ele>
        <time>1970-01-01T02:21:01.000Z</time>
      </trkpt>
      <trkpt lat="42.789519" lon="-7.841101">
        <ele>508.5</ele>
        <time>1970-01-01T02:21:02.000Z</time>
      </trkpt>
      <trkpt lat="42.78951" lon="-7.841064">
        <ele>508.6</ele>
        <time>1970-01-01T02:21:03.000Z</time>
      </trkpt>
      <trkpt lat="42.7895" lon="-7.841026">
        <ele>508.7</ele>
        <time>1970-01-01T02:21:04.000Z</time>
      </trkpt>
      <trkpt lat="42.789488" lon="-7.840988">
        <ele>508.8</ele>
        <time>1970-01-01T02:21:05.000Z</time>
      </trkpt>
      <trkpt lat="42.789475" lon="-7.840951">
        <ele>508.9</ele>
        <time>1970-01-01T02:21:06.000Z</time>
      </trkpt>
      <trkpt lat="42.789464" lon="-7.840914">
        <ele>509</ele>
        <time>1970-01-01T02:21:07.000Z</time>
      </trkpt>
      <trkpt lat="42.789456" lon="-7.840875">
        <ele>509.1</ele>
        <time>1970-01-01T02:21:08.000Z</time>
      </trkpt>
      <trkpt lat="42.789449" lon="-7.840836">
        <ele>509.3</ele>
        <time>1970-01-01T02:21:09.000Z</time>
      </trkpt>
      <trkpt lat="42.789443" lon="-7.840798">
        <ele>509.3</ele>
        <time>1970-01-01T02:21:10.000Z</time>
      </trkpt>
      <trkpt lat="42.789439" lon="-7.84076">
        <ele>509.3</ele>
        <time>1970-01-01T02:21:11.000Z</time>
      </trkpt>
      <trkpt lat="42.789433" lon="-7.840724">
        <ele>509.5</ele>
        <time>1970-01-01T02:21:12.000Z</time>
      </trkpt>
      <trkpt lat="42.78943" lon="-7.840688">
        <ele>509.6</ele>
        <time>1970-01-01T02:21:13.000Z</time>
      </trkpt>
      <trkpt lat="42.78943" lon="-7.840652">
        <ele>509.7</ele>
        <time>1970-01-01T02:21:14.000Z</time>
      </trkpt>
      <trkpt lat="42.789434" lon="-7.840616">
        <ele>509.9</ele>
        <time>1970-01-01T02:21:15.000Z</time>
      </trkpt>
      <trkpt lat="42.78944" lon="-7.840582">
        <ele>510</ele>
        <time>1970-01-01T02:21:16.000Z</time>
      </trkpt>
      <trkpt lat="42.789446" lon="-7.840549">
        <ele>510.2</ele>
        <time>1970-01-01T02:21:17.000Z</time>
      </trkpt>
      <trkpt lat="42.789454" lon="-7.840517">
        <ele>510.3</ele>
        <time>1970-01-01T02:21:18.000Z</time>
      </trkpt>
      <trkpt lat="42.789462" lon="-7.840485">
        <ele>510.4</ele>
        <time>1970-01-01T02:21:19.000Z</time>
      </trkpt>
      <trkpt lat="42.789471" lon="-7.840455">
        <ele>510.6</ele>
        <time>1970-01-01T02:21:20.000Z</time>
      </trkpt>
      <trkpt lat="42.789479" lon="-7.840423">
        <ele>510.7</ele>
        <time>1970-01-01T02:21:21.000Z</time>
      </trkpt>
      <trkpt lat="42.789489" lon="-7.84039">
        <ele>510.8</ele>
        <time>1970-01-01T02:21:22.000Z</time>
      </trkpt>
      <trkpt lat="42.789502" lon="-7.840358">
        <ele>511</ele>
        <time>1970-01-01T02:21:23.000Z</time>
      </trkpt>
      <trkpt lat="42.789515" lon="-7.840328">
        <ele>511.1</ele>
        <time>1970-01-01T02:21:24.000Z</time>
      </trkpt>
      <trkpt lat="42.789529" lon="-7.840299">
        <ele>511.3</ele>
        <time>1970-01-01T02:21:25.000Z</time>
      </trkpt>
      <trkpt lat="42.789544" lon="-7.840272">
        <ele>511.5</ele>
        <time>1970-01-01T02:21:26.000Z</time>
      </trkpt>
      <trkpt lat="42.789564" lon="-7.840248">
        <ele>511.6</ele>
        <time>1970-01-01T02:21:27.000Z</time>
      </trkpt>
      <trkpt lat="42.789585" lon="-7.84023">
        <ele>511.7</ele>
        <time>1970-01-01T02:21:28.000Z</time>
      </trkpt>
      <trkpt lat="42.789608" lon="-7.840213">
        <ele>511.8</ele>
        <time>1970-01-01T02:21:29.000Z</time>
      </trkpt>
      <trkpt lat="42.789632" lon="-7.840197">
        <ele>511.9</ele>
        <time>1970-01-01T02:21:30.000Z</time>
      </trkpt>
      <trkpt lat="42.789656" lon="-7.840185">
        <ele>511.9</ele>
        <time>1970-01-01T02:21:31.000Z</time>
      </trkpt>
      <trkpt lat="42.789682" lon="-7.840171">
        <ele>512</ele>
        <time>1970-01-01T02:21:32.000Z</time>
      </trkpt>
      <trkpt lat="42.789707" lon="-7.840158">
        <ele>512</ele>
        <time>1970-01-01T02:21:33.000Z</time>
      </trkpt>
      <trkpt lat="42.789733" lon="-7.840146">
        <ele>512.1</ele>
        <time>1970-01-01T02:21:34.000Z</time>
      </trkpt>
      <trkpt lat="42.789759" lon="-7.840134">
        <ele>512.1</ele>
        <time>1970-01-01T02:21:35.000Z</time>
      </trkpt>
      <trkpt lat="42.789785" lon="-7.840122">
        <ele>512.2</ele>
        <time>1970-01-01T02:21:36.000Z</time>
      </trkpt>
      <trkpt lat="42.789812" lon="-7.84011">
        <ele>512.2</ele>
        <time>1970-01-01T02:21:37.000Z</time>
      </trkpt>
      <trkpt lat="42.789838" lon="-7.8401">
        <ele>512.3</ele>
        <time>1970-01-01T02:21:38.000Z</time>
      </trkpt>
      <trkpt lat="42.789863" lon="-7.84009">
        <ele>512.4</ele>
        <time>1970-01-01T02:21:39.000Z</time>
      </trkpt>
      <trkpt lat="42.789886" lon="-7.840078">
        <ele>512.4</ele>
        <time>1970-01-01T02:21:40.000Z</time>
      </trkpt>
      <trkpt lat="42.789906" lon="-7.840066">
        <ele>512.5</ele>
        <time>1970-01-01T02:21:41.000Z</time>
      </trkpt>
      <trkpt lat="42.789931" lon="-7.840055">
        <ele>512.5</ele>
        <time>1970-01-01T02:21:42.000Z</time>
      </trkpt>
      <trkpt lat="42.789953" lon="-7.840043">
        <ele>512.5</ele>
        <time>1970-01-01T02:21:43.000Z</time>
      </trkpt>
      <trkpt lat="42.789976" lon="-7.840031">
        <ele>512.6</ele>
        <time>1970-01-01T02:21:44.000Z</time>
      </trkpt>
      <trkpt lat="42.789999" lon="-7.840022">
        <ele>512.6</ele>
        <time>1970-01-01T02:21:45.000Z</time>
      </trkpt>
      <trkpt lat="42.790023" lon="-7.840012">
        <ele>512.6</ele>
        <time>1970-01-01T02:21:46.000Z</time>
      </trkpt>
      <trkpt lat="42.790046" lon="-7.840002">
        <ele>512.6</ele>
        <time>1970-01-01T02:21:47.000Z</time>
      </trkpt>
      <trkpt lat="42.790071" lon="-7.839993">
        <ele>512.7</ele>
        <time>1970-01-01T02:21:48.000Z</time>
      </trkpt>
      <trkpt lat="42.790095" lon="-7.839985">
        <ele>512.7</ele>
        <time>1970-01-01T02:21:49.000Z</time>
      </trkpt>
      <trkpt lat="42.790121" lon="-7.839975">
        <ele>512.7</ele>
        <time>1970-01-01T02:21:50.000Z</time>
      </trkpt>
      <trkpt lat="42.790149" lon="-7.839963">
        <ele>512.8</ele>
        <time>1970-01-01T02:21:51.000Z</time>
      </trkpt>
      <trkpt lat="42.790179" lon="-7.839953">
        <ele>512.8</ele>
        <time>1970-01-01T02:21:52.000Z</time>
      </trkpt>
      <trkpt lat="42.790207" lon="-7.839944">
        <ele>512.8</ele>
        <time>1970-01-01T02:21:53.000Z</time>
      </trkpt>
      <trkpt lat="42.790234" lon="-7.839933">
        <ele>512.8</ele>
        <time>1970-01-01T02:21:54.000Z</time>
      </trkpt>
      <trkpt lat="42.790261" lon="-7.839922">
        <ele>512.9</ele>
        <time>1970-01-01T02:21:55.000Z</time>
      </trkpt>
      <trkpt lat="42.790287" lon="-7.839912">
        <ele>512.9</ele>
        <time>1970-01-01T02:21:56.000Z</time>
      </trkpt>
      <trkpt lat="42.790315" lon="-7.839901">
        <ele>512.9</ele>
        <time>1970-01-01T02:21:57.000Z</time>
      </trkpt>
      <trkpt lat="42.790343" lon="-7.83989">
        <ele>513</ele>
        <time>1970-01-01T02:21:58.000Z</time>
      </trkpt>
      <trkpt lat="42.79037" lon="-7.839882">
        <ele>513</ele>
        <time>1970-01-01T02:21:59.000Z</time>
      </trkpt>
      <trkpt lat="42.790398" lon="-7.839874">
        <ele>513</ele>
        <time>1970-01-01T02:22:00.000Z</time>
      </trkpt>
      <trkpt lat="42.790425" lon="-7.839866">
        <ele>513.1</ele>
        <time>1970-01-01T02:22:01.000Z</time>
      </trkpt>
      <trkpt lat="42.790449" lon="-7.839856">
        <ele>513.1</ele>
        <time>1970-01-01T02:22:02.000Z</time>
      </trkpt>
      <trkpt lat="42.790471" lon="-7.839845">
        <ele>513.1</ele>
        <time>1970-01-01T02:22:03.000Z</time>
      </trkpt>
      <trkpt lat="42.790494" lon="-7.839832">
        <ele>513.1</ele>
        <time>1970-01-01T02:22:04.000Z</time>
      </trkpt>
      <trkpt lat="42.790515" lon="-7.839816">
        <ele>513.1</ele>
        <time>1970-01-01T02:22:05.000Z</time>
      </trkpt>
      <trkpt lat="42.790535" lon="-7.839798">
        <ele>513.2</ele>
        <time>1970-01-01T02:22:06.000Z</time>
      </trkpt>
      <trkpt lat="42.790547" lon="-7.839776">
        <ele>513.2</ele>
        <time>1970-01-01T02:22:07.000Z</time>
      </trkpt>
      <trkpt lat="42.790554" lon="-7.839748">
        <ele>513.2</ele>
        <time>1970-01-01T02:22:08.000Z</time>
      </trkpt>
      <trkpt lat="42.790556" lon="-7.839718">
        <ele>513.2</ele>
        <time>1970-01-01T02:22:09.000Z</time>
      </trkpt>
      <trkpt lat="42.79055" lon="-7.83969">
        <ele>513.2</ele>
        <time>1970-01-01T02:22:10.000Z</time>
      </trkpt>
      <trkpt lat="42.790551" lon="-7.839662">
        <ele>513.8</ele>
        <time>1970-01-01T02:22:11.000Z</time>
      </trkpt>
      <trkpt lat="42.790554" lon="-7.839634">
        <ele>513.9</ele>
        <time>1970-01-01T02:22:12.000Z</time>
      </trkpt>
      <trkpt lat="42.790555" lon="-7.839607">
        <ele>514.1</ele>
        <time>1970-01-01T02:22:13.000Z</time>
      </trkpt>
      <trkpt lat="42.790561" lon="-7.839583">
        <ele>514.2</ele>
        <time>1970-01-01T02:22:14.000Z</time>
      </trkpt>
      <trkpt lat="42.790564" lon="-7.839557">
        <ele>514.4</ele>
        <time>1970-01-01T02:22:15.000Z</time>
      </trkpt>
      <trkpt lat="42.790563" lon="-7.839533">
        <ele>514.6</ele>
        <time>1970-01-01T02:22:16.000Z</time>
      </trkpt>
      <trkpt lat="42.79056" lon="-7.839514">
        <ele>514.7</ele>
        <time>1970-01-01T02:22:17.000Z</time>
      </trkpt>
      <trkpt lat="42.790553" lon="-7.839502">
        <ele>514.8</ele>
        <time>1970-01-01T02:22:18.000Z</time>
      </trkpt>
      <trkpt lat="42.790547" lon="-7.839489">
        <ele>514.9</ele>
        <time>1970-01-01T02:22:19.000Z</time>
      </trkpt>
      <trkpt lat="42.790547" lon="-7.839472">
        <ele>515</ele>
        <time>1970-01-01T02:22:20.000Z</time>
      </trkpt>
      <trkpt lat="42.790546" lon="-7.839454">
        <ele>515</ele>
        <time>1970-01-01T02:22:21.000Z</time>
      </trkpt>
      <trkpt lat="42.79054" lon="-7.839439">
        <ele>515.1</ele>
        <time>1970-01-01T02:22:22.000Z</time>
      </trkpt>
      <trkpt lat="42.790532" lon="-7.839431">
        <ele>515.2</ele>
        <time>1970-01-01T02:22:23.000Z</time>
      </trkpt>
      <trkpt lat="42.790525" lon="-7.839422">
        <ele>515.3</ele>
        <time>1970-01-01T02:22:24.000Z</time>
      </trkpt>
      <trkpt lat="42.790521" lon="-7.839406">
        <ele>515.4</ele>
        <time>1970-01-01T02:22:25.000Z</time>
      </trkpt>
      <trkpt lat="42.790523" lon="-7.839387">
        <ele>515.5</ele>
        <time>1970-01-01T02:22:26.000Z</time>
      </trkpt>
      <trkpt lat="42.790523" lon="-7.839367">
        <ele>515.6</ele>
        <time>1970-01-01T02:22:27.000Z</time>
      </trkpt>
      <trkpt lat="42.790521" lon="-7.839348">
        <ele>515.7</ele>
        <time>1970-01-01T02:22:28.000Z</time>
      </trkpt>
      <trkpt lat="42.790515" lon="-7.839333">
        <ele>515.8</ele>
        <time>1970-01-01T02:22:29.000Z</time>
      </trkpt>
      <trkpt lat="42.790511" lon="-7.83932">
        <ele>515.8</ele>
        <time>1970-01-01T02:22:30.000Z</time>
      </trkpt>
      <trkpt lat="42.790511" lon="-7.839304">
        <ele>515.9</ele>
        <time>1970-01-01T02:22:31.000Z</time>
      </trkpt>
      <trkpt lat="42.790508" lon="-7.839286">
        <ele>515.9</ele>
        <time>1970-01-01T02:22:32.000Z</time>
      </trkpt>
      <trkpt lat="42.790501" lon="-7.839265">
        <ele>516</ele>
        <time>1970-01-01T02:22:33.000Z</time>
      </trkpt>
      <trkpt lat="42.790494" lon="-7.839244">
        <ele>516.1</ele>
        <time>1970-01-01T02:22:34.000Z</time>
      </trkpt>
      <trkpt lat="42.790487" lon="-7.839218">
        <ele>516.2</ele>
        <time>1970-01-01T02:22:35.000Z</time>
      </trkpt>
      <trkpt lat="42.790481" lon="-7.83919">
        <ele>516.3</ele>
        <time>1970-01-01T02:22:36.000Z</time>
      </trkpt>
      <trkpt lat="42.790475" lon="-7.83916">
        <ele>516.5</ele>
        <time>1970-01-01T02:22:37.000Z</time>
      </trkpt>
      <trkpt lat="42.790468" lon="-7.839132">
        <ele>516.6</ele>
        <time>1970-01-01T02:22:38.000Z</time>
      </trkpt>
      <trkpt lat="42.790461" lon="-7.839103">
        <ele>516.7</ele>
        <time>1970-01-01T02:22:39.000Z</time>
      </trkpt>
      <trkpt lat="42.790453" lon="-7.839072">
        <ele>516.8</ele>
        <time>1970-01-01T02:22:40.000Z</time>
      </trkpt>
      <trkpt lat="42.790445" lon="-7.839044">
        <ele>517</ele>
        <time>1970-01-01T02:22:41.000Z</time>
      </trkpt>
      <trkpt lat="42.790436" lon="-7.839015">
        <ele>517.1</ele>
        <time>1970-01-01T02:22:42.000Z</time>
      </trkpt>
      <trkpt lat="42.790427" lon="-7.838986">
        <ele>517.2</ele>
        <time>1970-01-01T02:22:43.000Z</time>
      </trkpt>
      <trkpt lat="42.790421" lon="-7.838954">
        <ele>517.4</ele>
        <time>1970-01-01T02:22:44.000Z</time>
      </trkpt>
      <trkpt lat="42.790415" lon="-7.838922">
        <ele>517.6</ele>
        <time>1970-01-01T02:22:45.000Z</time>
      </trkpt>
      <trkpt lat="42.790408" lon="-7.838889">
        <ele>517.8</ele>
        <time>1970-01-01T02:22:46.000Z</time>
      </trkpt>
      <trkpt lat="42.790402" lon="-7.838855">
        <ele>518</ele>
        <time>1970-01-01T02:22:47.000Z</time>
      </trkpt>
      <trkpt lat="42.790395" lon="-7.838821">
        <ele>518.2</ele>
        <time>1970-01-01T02:22:48.000Z</time>
      </trkpt>
      <trkpt lat="42.790388" lon="-7.838787">
        <ele>518.5</ele>
        <time>1970-01-01T02:22:49.000Z</time>
      </trkpt>
      <trkpt lat="42.790381" lon="-7.838753">
        <ele>518.9</ele>
        <time>1970-01-01T02:22:50.000Z</time>
      </trkpt>
      <trkpt lat="42.790372" lon="-7.838722">
        <ele>519.2</ele>
        <time>1970-01-01T02:22:51.000Z</time>
      </trkpt>
      <trkpt lat="42.790364" lon="-7.83869">
        <ele>519.4</ele>
        <time>1970-01-01T02:22:52.000Z</time>
      </trkpt>
      <trkpt lat="42.790359" lon="-7.83866">
        <ele>519.6</ele>
        <time>1970-01-01T02:22:53.000Z</time>
      </trkpt>
      <trkpt lat="42.790356" lon="-7.838629">
        <ele>519.8</ele>
        <time>1970-01-01T02:22:54.000Z</time>
      </trkpt>
      <trkpt lat="42.790352" lon="-7.838599">
        <ele>520</ele>
        <time>1970-01-01T02:22:55.000Z</time>
      </trkpt>
      <trkpt lat="42.790348" lon="-7.83857">
        <ele>520.2</ele>
        <time>1970-01-01T02:22:56.000Z</time>
      </trkpt>
      <trkpt lat="42.790343" lon="-7.83854">
        <ele>520.4</ele>
        <time>1970-01-01T02:22:57.000Z</time>
      </trkpt>
      <trkpt lat="42.79034" lon="-7.838511">
        <ele>520.6</ele>
        <time>1970-01-01T02:22:58.000Z</time>
      </trkpt>
      <trkpt lat="42.790343" lon="-7.838479">
        <ele>520.9</ele>
        <time>1970-01-01T02:22:59.000Z</time>
      </trkpt>
      <trkpt lat="42.790355" lon="-7.838453">
        <ele>522</ele>
        <time>1970-01-01T02:23:00.000Z</time>
      </trkpt>
      <trkpt lat="42.79037" lon="-7.838426">
        <ele>522.1</ele>
        <time>1970-01-01T02:23:01.000Z</time>
      </trkpt>
      <trkpt lat="42.790387" lon="-7.838404">
        <ele>522.3</ele>
        <time>1970-01-01T02:23:02.000Z</time>
      </trkpt>
      <trkpt lat="42.790405" lon="-7.838388">
        <ele>522.5</ele>
        <time>1970-01-01T02:23:03.000Z</time>
      </trkpt>
      <trkpt lat="42.790424" lon="-7.83838">
        <ele>522.7</ele>
        <time>1970-01-01T02:23:04.000Z</time>
      </trkpt>
      <trkpt lat="42.79044" lon="-7.838378">
        <ele>522.8</ele>
        <time>1970-01-01T02:23:05.000Z</time>
      </trkpt>
      <trkpt lat="42.790457" lon="-7.838376">
        <ele>523</ele>
        <time>1970-01-01T02:23:06.000Z</time>
      </trkpt>
      <trkpt lat="42.790473" lon="-7.838372">
        <ele>523.1</ele>
        <time>1970-01-01T02:23:07.000Z</time>
      </trkpt>
      <trkpt lat="42.790488" lon="-7.838368">
        <ele>523.3</ele>
        <time>1970-01-01T02:23:08.000Z</time>
      </trkpt>
      <trkpt lat="42.790502" lon="-7.83836">
        <ele>523.4</ele>
        <time>1970-01-01T02:23:09.000Z</time>
      </trkpt>
      <trkpt lat="42.790516" lon="-7.838351">
        <ele>523.6</ele>
        <time>1970-01-01T02:23:10.000Z</time>
      </trkpt>
      <trkpt lat="42.790531" lon="-7.838342">
        <ele>523.7</ele>
        <time>1970-01-01T02:23:11.000Z</time>
      </trkpt>
      <trkpt lat="42.790543" lon="-7.838335">
        <ele>523.8</ele>
        <time>1970-01-01T02:23:12.000Z</time>
      </trkpt>
      <trkpt lat="42.790558" lon="-7.838331">
        <ele>524</ele>
        <time>1970-01-01T02:23:13.000Z</time>
      </trkpt>
      <trkpt lat="42.790572" lon="-7.838326">
        <ele>524.1</ele>
        <time>1970-01-01T02:23:14.000Z</time>
      </trkpt>
      <trkpt lat="42.790584" lon="-7.838319">
        <ele>524.2</ele>
        <time>1970-01-01T02:23:15.000Z</time>
      </trkpt>
      <trkpt lat="42.790595" lon="-7.838312">
        <ele>524.3</ele>
        <time>1970-01-01T02:23:16.000Z</time>
      </trkpt>
      <trkpt lat="42.790607" lon="-7.838306">
        <ele>524.4</ele>
        <time>1970-01-01T02:23:17.000Z</time>
      </trkpt>
      <trkpt lat="42.790618" lon="-7.838299">
        <ele>524.5</ele>
        <time>1970-01-01T02:23:18.000Z</time>
      </trkpt>
      <trkpt lat="42.790625" lon="-7.838298">
        <ele>524.6</ele>
        <time>1970-01-01T02:23:19.000Z</time>
      </trkpt>
      <trkpt lat="42.790641" lon="-7.838294">
        <ele>524.7</ele>
        <time>1970-01-01T02:23:20.000Z</time>
      </trkpt>
      <trkpt lat="42.790655" lon="-7.838287">
        <ele>524.8</ele>
        <time>1970-01-01T02:23:21.000Z</time>
      </trkpt>
      <trkpt lat="42.790667" lon="-7.838278">
        <ele>524.9</ele>
        <time>1970-01-01T02:23:22.000Z</time>
      </trkpt>
      <trkpt lat="42.790679" lon="-7.838265">
        <ele>525</ele>
        <time>1970-01-01T02:23:23.000Z</time>
      </trkpt>
      <trkpt lat="42.790694" lon="-7.838254">
        <ele>525.1</ele>
        <time>1970-01-01T02:23:24.000Z</time>
      </trkpt>
      <trkpt lat="42.790711" lon="-7.838245">
        <ele>525.3</ele>
        <time>1970-01-01T02:23:25.000Z</time>
      </trkpt>
      <trkpt lat="42.790728" lon="-7.838236">
        <ele>525.4</ele>
        <time>1970-01-01T02:23:26.000Z</time>
      </trkpt>
      <trkpt lat="42.790745" lon="-7.838227">
        <ele>525.5</ele>
        <time>1970-01-01T02:23:27.000Z</time>
      </trkpt>
      <trkpt lat="42.790762" lon="-7.83822">
        <ele>525.6</ele>
        <time>1970-01-01T02:23:28.000Z</time>
      </trkpt>
      <trkpt lat="42.790778" lon="-7.838213">
        <ele>525.7</ele>
        <time>1970-01-01T02:23:29.000Z</time>
      </trkpt>
      <trkpt lat="42.790795" lon="-7.838207">
        <ele>525.8</ele>
        <time>1970-01-01T02:23:30.000Z</time>
      </trkpt>
      <trkpt lat="42.790814" lon="-7.838204">
        <ele>525.9</ele>
        <time>1970-01-01T02:23:31.000Z</time>
      </trkpt>
      <trkpt lat="42.790829" lon="-7.838199">
        <ele>526</ele>
        <time>1970-01-01T02:23:32.000Z</time>
      </trkpt>
      <trkpt lat="42.790846" lon="-7.838194">
        <ele>526.2</ele>
        <time>1970-01-01T02:23:33.000Z</time>
      </trkpt>
      <trkpt lat="42.790862" lon="-7.838187">
        <ele>526.3</ele>
        <time>1970-01-01T02:23:34.000Z</time>
      </trkpt>
      <trkpt lat="42.790876" lon="-7.838176">
        <ele>526.4</ele>
        <time>1970-01-01T02:23:35.000Z</time>
      </trkpt>
      <trkpt lat="42.790892" lon="-7.838172">
        <ele>526.5</ele>
        <time>1970-01-01T02:23:36.000Z</time>
      </trkpt>
      <trkpt lat="42.790909" lon="-7.838168">
        <ele>526.6</ele>
        <time>1970-01-01T02:23:37.000Z</time>
      </trkpt>
      <trkpt lat="42.790926" lon="-7.838162">
        <ele>526.7</ele>
        <time>1970-01-01T02:23:38.000Z</time>
      </trkpt>
      <trkpt lat="42.790941" lon="-7.838155">
        <ele>526.8</ele>
        <time>1970-01-01T02:23:39.000Z</time>
      </trkpt>
      <trkpt lat="42.790958" lon="-7.838146">
        <ele>526.9</ele>
        <time>1970-01-01T02:23:40.000Z</time>
      </trkpt>
      <trkpt lat="42.790974" lon="-7.838137">
        <ele>527</ele>
        <time>1970-01-01T02:23:41.000Z</time>
      </trkpt>
      <trkpt lat="42.79099" lon="-7.838127">
        <ele>527.2</ele>
        <time>1970-01-01T02:23:42.000Z</time>
      </trkpt>
      <trkpt lat="42.791005" lon="-7.838117">
        <ele>527.3</ele>
        <time>1970-01-01T02:23:43.000Z</time>
      </trkpt>
      <trkpt lat="42.79102" lon="-7.838111">
        <ele>527.4</ele>
        <time>1970-01-01T02:23:44.000Z</time>
      </trkpt>
      <trkpt lat="42.791035" lon="-7.838101">
        <ele>527.5</ele>
        <time>1970-01-01T02:23:45.000Z</time>
      </trkpt>
      <trkpt lat="42.791051" lon="-7.838091">
        <ele>527.6</ele>
        <time>1970-01-01T02:23:46.000Z</time>
      </trkpt>
      <trkpt lat="42.791068" lon="-7.838082">
        <ele>527.7</ele>
        <time>1970-01-01T02:23:47.000Z</time>
      </trkpt>
      <trkpt lat="42.791085" lon="-7.838077">
        <ele>527.8</ele>
        <time>1970-01-01T02:23:48.000Z</time>
      </trkpt>
      <trkpt lat="42.791102" lon="-7.838068">
        <ele>528</ele>
        <time>1970-01-01T02:23:49.000Z</time>
      </trkpt>
      <trkpt lat="42.791119" lon="-7.838062">
        <ele>528.1</ele>
        <time>1970-01-01T02:23:50.000Z</time>
      </trkpt>
      <trkpt lat="42.79114" lon="-7.838054">
        <ele>528.2</ele>
        <time>1970-01-01T02:23:51.000Z</time>
      </trkpt>
      <trkpt lat="42.791158" lon="-7.838045">
        <ele>528.4</ele>
        <time>1970-01-01T02:23:52.000Z</time>
      </trkpt>
      <trkpt lat="42.791177" lon="-7.838037">
        <ele>528.5</ele>
        <time>1970-01-01T02:23:53.000Z</time>
      </trkpt>
      <trkpt lat="42.791195" lon="-7.838027">
        <ele>528.7</ele>
        <time>1970-01-01T02:23:54.000Z</time>
      </trkpt>
      <trkpt lat="42.791215" lon="-7.838015">
        <ele>528.8</ele>
        <time>1970-01-01T02:23:55.000Z</time>
      </trkpt>
      <trkpt lat="42.791234" lon="-7.838005">
        <ele>529</ele>
        <time>1970-01-01T02:23:56.000Z</time>
      </trkpt>
      <trkpt lat="42.791253" lon="-7.837993">
        <ele>529.1</ele>
        <time>1970-01-01T02:23:57.000Z</time>
      </trkpt>
      <trkpt lat="42.791272" lon="-7.837982">
        <ele>529.3</ele>
        <time>1970-01-01T02:23:58.000Z</time>
      </trkpt>
      <trkpt lat="42.791292" lon="-7.837971">
        <ele>529.5</ele>
        <time>1970-01-01T02:23:59.000Z</time>
      </trkpt>
      <trkpt lat="42.791312" lon="-7.837962">
        <ele>529.6</ele>
        <time>1970-01-01T02:24:00.000Z</time>
      </trkpt>
      <trkpt lat="42.791331" lon="-7.837949">
        <ele>529.8</ele>
        <time>1970-01-01T02:24:01.000Z</time>
      </trkpt>
      <trkpt lat="42.791349" lon="-7.837936">
        <ele>530</ele>
        <time>1970-01-01T02:24:02.000Z</time>
      </trkpt>
      <trkpt lat="42.791367" lon="-7.837921">
        <ele>530.1</ele>
        <time>1970-01-01T02:24:03.000Z</time>
      </trkpt>
      <trkpt lat="42.791383" lon="-7.837912">
        <ele>530.3</ele>
        <time>1970-01-01T02:24:04.000Z</time>
      </trkpt>
      <trkpt lat="42.791397" lon="-7.837904">
        <ele>530.5</ele>
        <time>1970-01-01T02:24:05.000Z</time>
      </trkpt>
      <trkpt lat="42.791412" lon="-7.837896">
        <ele>530.6</ele>
        <time>1970-01-01T02:24:06.000Z</time>
      </trkpt>
      <trkpt lat="42.791427" lon="-7.837887">
        <ele>530.6</ele>
        <time>1970-01-01T02:24:07.000Z</time>
      </trkpt>
      <trkpt lat="42.791443" lon="-7.837877">
        <ele>530.8</ele>
        <time>1970-01-01T02:24:08.000Z</time>
      </trkpt>
      <trkpt lat="42.791459" lon="-7.837866">
        <ele>530.9</ele>
        <time>1970-01-01T02:24:09.000Z</time>
      </trkpt>
      <trkpt lat="42.791475" lon="-7.837856">
        <ele>531</ele>
        <time>1970-01-01T02:24:10.000Z</time>
      </trkpt>
      <trkpt lat="42.791492" lon="-7.837846">
        <ele>531.1</ele>
        <time>1970-01-01T02:24:11.000Z</time>
      </trkpt>
      <trkpt lat="42.791509" lon="-7.837838">
        <ele>531.2</ele>
        <time>1970-01-01T02:24:12.000Z</time>
      </trkpt>
      <trkpt lat="42.791527" lon="-7.837827">
        <ele>531.3</ele>
        <time>1970-01-01T02:24:13.000Z</time>
      </trkpt>
      <trkpt lat="42.791546" lon="-7.837819">
        <ele>531.5</ele>
        <time>1970-01-01T02:24:14.000Z</time>
      </trkpt>
      <trkpt lat="42.791563" lon="-7.83781">
        <ele>531.6</ele>
        <time>1970-01-01T02:24:15.000Z</time>
      </trkpt>
      <trkpt lat="42.79158" lon="-7.8378">
        <ele>531.7</ele>
        <time>1970-01-01T02:24:16.000Z</time>
      </trkpt>
      <trkpt lat="42.791598" lon="-7.837787">
        <ele>531.9</ele>
        <time>1970-01-01T02:24:17.000Z</time>
      </trkpt>
      <trkpt lat="42.791615" lon="-7.837776">
        <ele>532</ele>
        <time>1970-01-01T02:24:18.000Z</time>
      </trkpt>
      <trkpt lat="42.791634" lon="-7.837765">
        <ele>532.2</ele>
        <time>1970-01-01T02:24:19.000Z</time>
      </trkpt>
      <trkpt lat="42.791653" lon="-7.837757">
        <ele>532.4</ele>
        <time>1970-01-01T02:24:20.000Z</time>
      </trkpt>
      <trkpt lat="42.791672" lon="-7.837747">
        <ele>532.5</ele>
        <time>1970-01-01T02:24:21.000Z</time>
      </trkpt>
      <trkpt lat="42.791689" lon="-7.837735">
        <ele>532.7</ele>
        <time>1970-01-01T02:24:22.000Z</time>
      </trkpt>
      <trkpt lat="42.791707" lon="-7.837722">
        <ele>532.8</ele>
        <time>1970-01-01T02:24:23.000Z</time>
      </trkpt>
      <trkpt lat="42.791722" lon="-7.83771">
        <ele>533</ele>
        <time>1970-01-01T02:24:24.000Z</time>
      </trkpt>
      <trkpt lat="42.791738" lon="-7.837699">
        <ele>533.1</ele>
        <time>1970-01-01T02:24:25.000Z</time>
      </trkpt>
      <trkpt lat="42.791755" lon="-7.837686">
        <ele>533.2</ele>
        <time>1970-01-01T02:24:26.000Z</time>
      </trkpt>
      <trkpt lat="42.791773" lon="-7.837674">
        <ele>533.3</ele>
        <time>1970-01-01T02:24:27.000Z</time>
      </trkpt>
      <trkpt lat="42.791792" lon="-7.837662">
        <ele>533.5</ele>
        <time>1970-01-01T02:24:28.000Z</time>
      </trkpt>
      <trkpt lat="42.791809" lon="-7.837648">
        <ele>533.6</ele>
        <time>1970-01-01T02:24:29.000Z</time>
      </trkpt>
      <trkpt lat="42.791826" lon="-7.837631">
        <ele>533.7</ele>
        <time>1970-01-01T02:24:30.000Z</time>
      </trkpt>
      <trkpt lat="42.791842" lon="-7.837613">
        <ele>533.8</ele>
        <time>1970-01-01T02:24:31.000Z</time>
      </trkpt>
      <trkpt lat="42.791857" lon="-7.837593">
        <ele>534</ele>
        <time>1970-01-01T02:24:32.000Z</time>
      </trkpt>
      <trkpt lat="42.791871" lon="-7.837574">
        <ele>534.1</ele>
        <time>1970-01-01T02:24:33.000Z</time>
      </trkpt>
      <trkpt lat="42.791885" lon="-7.837552">
        <ele>534.2</ele>
        <time>1970-01-01T02:24:34.000Z</time>
      </trkpt>
      <trkpt lat="42.791899" lon="-7.837532">
        <ele>534.2</ele>
        <time>1970-01-01T02:24:35.000Z</time>
      </trkpt>
      <trkpt lat="42.791915" lon="-7.837511">
        <ele>534.3</ele>
        <time>1970-01-01T02:24:36.000Z</time>
      </trkpt>
      <trkpt lat="42.79193" lon="-7.83749">
        <ele>534.4</ele>
        <time>1970-01-01T02:24:37.000Z</time>
      </trkpt>
      <trkpt lat="42.79194" lon="-7.837465">
        <ele>534.5</ele>
        <time>1970-01-01T02:24:38.000Z</time>
      </trkpt>
      <trkpt lat="42.791952" lon="-7.837447">
        <ele>534.5</ele>
        <time>1970-01-01T02:24:39.000Z</time>
      </trkpt>
      <trkpt lat="42.791962" lon="-7.837423">
        <ele>534.5</ele>
        <time>1970-01-01T02:24:40.000Z</time>
      </trkpt>
      <trkpt lat="42.791969" lon="-7.837395">
        <ele>534.6</ele>
        <time>1970-01-01T02:24:41.000Z</time>
      </trkpt>
      <trkpt lat="42.791974" lon="-7.837365">
        <ele>534.6</ele>
        <time>1970-01-01T02:24:42.000Z</time>
      </trkpt>
      <trkpt lat="42.791982" lon="-7.837335">
        <ele>534.6</ele>
        <time>1970-01-01T02:24:43.000Z</time>
      </trkpt>
      <trkpt lat="42.791989" lon="-7.837305">
        <ele>534.6</ele>
        <time>1970-01-01T02:24:44.000Z</time>
      </trkpt>
      <trkpt lat="42.79199" lon="-7.837276">
        <ele>534.6</ele>
        <time>1970-01-01T02:24:45.000Z</time>
      </trkpt>
      <trkpt lat="42.79199" lon="-7.837249">
        <ele>534.7</ele>
        <time>1970-01-01T02:24:46.000Z</time>
      </trkpt>
      <trkpt lat="42.791986" lon="-7.837225">
        <ele>534.8</ele>
        <time>1970-01-01T02:24:47.000Z</time>
      </trkpt>
      <trkpt lat="42.791979" lon="-7.837203">
        <ele>534.9</ele>
        <time>1970-01-01T02:24:48.000Z</time>
      </trkpt>
      <trkpt lat="42.791971" lon="-7.837179">
        <ele>535.1</ele>
        <time>1970-01-01T02:24:49.000Z</time>
      </trkpt>
      <trkpt lat="42.791965" lon="-7.837155">
        <ele>535.2</ele>
        <time>1970-01-01T02:24:50.000Z</time>
      </trkpt>
      <trkpt lat="42.791958" lon="-7.837132">
        <ele>535.3</ele>
        <time>1970-01-01T02:24:51.000Z</time>
      </trkpt>
      <trkpt lat="42.791952" lon="-7.837108">
        <ele>535.4</ele>
        <time>1970-01-01T02:24:52.000Z</time>
      </trkpt>
      <trkpt lat="42.791946" lon="-7.837082">
        <ele>535.5</ele>
        <time>1970-01-01T02:24:53.000Z</time>
      </trkpt>
      <trkpt lat="42.791937" lon="-7.837059">
        <ele>535.6</ele>
        <time>1970-01-01T02:24:54.000Z</time>
      </trkpt>
      <trkpt lat="42.791931" lon="-7.837034">
        <ele>535.7</ele>
        <time>1970-01-01T02:24:55.000Z</time>
      </trkpt>
      <trkpt lat="42.791923" lon="-7.837009">
        <ele>535.8</ele>
        <time>1970-01-01T02:24:56.000Z</time>
      </trkpt>
      <trkpt lat="42.791918" lon="-7.836984">
        <ele>535.9</ele>
        <time>1970-01-01T02:24:57.000Z</time>
      </trkpt>
      <trkpt lat="42.791911" lon="-7.836961">
        <ele>536</ele>
        <time>1970-01-01T02:24:58.000Z</time>
      </trkpt>
      <trkpt lat="42.791904" lon="-7.836937">
        <ele>536.1</ele>
        <time>1970-01-01T02:24:59.000Z</time>
      </trkpt>
      <trkpt lat="42.791899" lon="-7.836911">
        <ele>536.2</ele>
        <time>1970-01-01T02:25:00.000Z</time>
      </trkpt>
      <trkpt lat="42.791892" lon="-7.836887">
        <ele>537</ele>
        <time>1970-01-01T02:25:01.000Z</time>
      </trkpt>
      <trkpt lat="42.791885" lon="-7.836863">
        <ele>537.2</ele>
        <time>1970-01-01T02:25:02.000Z</time>
      </trkpt>
      <trkpt lat="42.791879" lon="-7.836838">
        <ele>537.5</ele>
        <time>1970-01-01T02:25:03.000Z</time>
      </trkpt>
      <trkpt lat="42.791876" lon="-7.836813">
        <ele>537.7</ele>
        <time>1970-01-01T02:25:04.000Z</time>
      </trkpt>
      <trkpt lat="42.791875" lon="-7.836789">
        <ele>538</ele>
        <time>1970-01-01T02:25:05.000Z</time>
      </trkpt>
      <trkpt lat="42.791873" lon="-7.836764">
        <ele>538.2</ele>
        <time>1970-01-01T02:25:06.000Z</time>
      </trkpt>
      <trkpt lat="42.791873" lon="-7.83674">
        <ele>538.4</ele>
        <time>1970-01-01T02:25:07.000Z</time>
      </trkpt>
      <trkpt lat="42.79187" lon="-7.836716">
        <ele>538.7</ele>
        <time>1970-01-01T02:25:08.000Z</time>
      </trkpt>
      <trkpt lat="42.791873" lon="-7.836691">
        <ele>538.9</ele>
        <time>1970-01-01T02:25:09.000Z</time>
      </trkpt>
      <trkpt lat="42.791875" lon="-7.836666">
        <ele>539.2</ele>
        <time>1970-01-01T02:25:10.000Z</time>
      </trkpt>
      <trkpt lat="42.791875" lon="-7.836645">
        <ele>539.4</ele>
        <time>1970-01-01T02:25:11.000Z</time>
      </trkpt>
      <trkpt lat="42.791872" lon="-7.83662">
        <ele>539.6</ele>
        <time>1970-01-01T02:25:12.000Z</time>
      </trkpt>
      <trkpt lat="42.791867" lon="-7.836593">
        <ele>539.9</ele>
        <time>1970-01-01T02:25:13.000Z</time>
      </trkpt>
      <trkpt lat="42.791863" lon="-7.836569">
        <ele>540.1</ele>
        <time>1970-01-01T02:25:14.000Z</time>
      </trkpt>
      <trkpt lat="42.79186" lon="-7.836543">
        <ele>540.4</ele>
        <time>1970-01-01T02:25:15.000Z</time>
      </trkpt>
      <trkpt lat="42.791859" lon="-7.836514">
        <ele>540.6</ele>
        <time>1970-01-01T02:25:16.000Z</time>
      </trkpt>
      <trkpt lat="42.791854" lon="-7.83648">
        <ele>540.9</ele>
        <time>1970-01-01T02:25:17.000Z</time>
      </trkpt>
      <trkpt lat="42.791853" lon="-7.836445">
        <ele>541.2</ele>
        <time>1970-01-01T02:25:18.000Z</time>
      </trkpt>
      <trkpt lat="42.791854" lon="-7.836413">
        <ele>541.5</ele>
        <time>1970-01-01T02:25:19.000Z</time>
      </trkpt>
      <trkpt lat="42.791855" lon="-7.836383">
        <ele>541.7</ele>
        <time>1970-01-01T02:25:20.000Z</time>
      </trkpt>
      <trkpt lat="42.791857" lon="-7.836352">
        <ele>542</ele>
        <time>1970-01-01T02:25:21.000Z</time>
      </trkpt>
      <trkpt lat="42.791857" lon="-7.836322">
        <ele>542.3</ele>
        <time>1970-01-01T02:25:22.000Z</time>
      </trkpt>
      <trkpt lat="42.791857" lon="-7.836294">
        <ele>542.5</ele>
        <time>1970-01-01T02:25:23.000Z</time>
      </trkpt>
      <trkpt lat="42.791857" lon="-7.836265">
        <ele>542.8</ele>
        <time>1970-01-01T02:25:24.000Z</time>
      </trkpt>
      <trkpt lat="42.791857" lon="-7.836237">
        <ele>543</ele>
        <time>1970-01-01T02:25:25.000Z</time>
      </trkpt>
      <trkpt lat="42.791853" lon="-7.83621">
        <ele>543.2</ele>
        <time>1970-01-01T02:25:26.000Z</time>
      </trkpt>
      <trkpt lat="42.791849" lon="-7.836182">
        <ele>543.5</ele>
        <time>1970-01-01T02:25:27.000Z</time>
      </trkpt>
      <trkpt lat="42.791843" lon="-7.836156">
        <ele>543.7</ele>
        <time>1970-01-01T02:25:28.000Z</time>
      </trkpt>
      <trkpt lat="42.791837" lon="-7.836129">
        <ele>544</ele>
        <time>1970-01-01T02:25:29.000Z</time>
      </trkpt>
      <trkpt lat="42.791832" lon="-7.836103">
        <ele>544.4</ele>
        <time>1970-01-01T02:25:30.000Z</time>
      </trkpt>
      <trkpt lat="42.791828" lon="-7.836075">
        <ele>544.5</ele>
        <time>1970-01-01T02:25:31.000Z</time>
      </trkpt>
      <trkpt lat="42.791829" lon="-7.836046">
        <ele>544.7</ele>
        <time>1970-01-01T02:25:32.000Z</time>
      </trkpt>
      <trkpt lat="42.791832" lon="-7.836019">
        <ele>544.8</ele>
        <time>1970-01-01T02:25:33.000Z</time>
      </trkpt>
      <trkpt lat="42.791833" lon="-7.835992">
        <ele>544.9</ele>
        <time>1970-01-01T02:25:34.000Z</time>
      </trkpt>
      <trkpt lat="42.791832" lon="-7.835962">
        <ele>545.1</ele>
        <time>1970-01-01T02:25:35.000Z</time>
      </trkpt>
      <trkpt lat="42.791831" lon="-7.835932">
        <ele>545.2</ele>
        <time>1970-01-01T02:25:36.000Z</time>
      </trkpt>
      <trkpt lat="42.791832" lon="-7.835907">
        <ele>545.3</ele>
        <time>1970-01-01T02:25:37.000Z</time>
      </trkpt>
      <trkpt lat="42.791835" lon="-7.835884">
        <ele>545.5</ele>
        <time>1970-01-01T02:25:38.000Z</time>
      </trkpt>
      <trkpt lat="42.791834" lon="-7.835862">
        <ele>545.6</ele>
        <time>1970-01-01T02:25:39.000Z</time>
      </trkpt>
      <trkpt lat="42.791832" lon="-7.835842">
        <ele>545.7</ele>
        <time>1970-01-01T02:25:40.000Z</time>
      </trkpt>
      <trkpt lat="42.791827" lon="-7.835823">
        <ele>545.8</ele>
        <time>1970-01-01T02:25:41.000Z</time>
      </trkpt>
      <trkpt lat="42.791822" lon="-7.835808">
        <ele>545.8</ele>
        <time>1970-01-01T02:25:42.000Z</time>
      </trkpt>
      <trkpt lat="42.791818" lon="-7.835797">
        <ele>545.9</ele>
        <time>1970-01-01T02:25:43.000Z</time>
      </trkpt>
      <trkpt lat="42.791821" lon="-7.835783">
        <ele>546</ele>
        <time>1970-01-01T02:25:44.000Z</time>
      </trkpt>
      <trkpt lat="42.79183" lon="-7.835776">
        <ele>546.1</ele>
        <time>1970-01-01T02:25:45.000Z</time>
      </trkpt>
      <trkpt lat="42.791832" lon="-7.835771">
        <ele>546.1</ele>
        <time>1970-01-01T02:25:46.000Z</time>
      </trkpt>
      <trkpt lat="42.791831" lon="-7.835768">
        <ele>546.1</ele>
        <time>1970-01-01T02:25:47.000Z</time>
      </trkpt>
      <trkpt lat="42.79183" lon="-7.83576">
        <ele>546.1</ele>
        <time>1970-01-01T02:25:48.000Z</time>
      </trkpt>
      <trkpt lat="42.791831" lon="-7.835758">
        <ele>546.1</ele>
        <time>1970-01-01T02:25:49.000Z</time>
      </trkpt>
      <trkpt lat="42.791828" lon="-7.835759">
        <ele>546.2</ele>
        <time>1970-01-01T02:25:50.000Z</time>
      </trkpt>
      <trkpt lat="42.791824" lon="-7.835755">
        <ele>546.2</ele>
        <time>1970-01-01T02:25:51.000Z</time>
      </trkpt>
      <trkpt lat="42.791824" lon="-7.835756">
        <ele>546.2</ele>
        <time>1970-01-01T02:25:52.000Z</time>
      </trkpt>
      <trkpt lat="42.791822" lon="-7.835753">
        <ele>546.2</ele>
        <time>1970-01-01T02:25:53.000Z</time>
      </trkpt>
    </trkseg>
  </trk>
</gpx>
